<?xml version="1.0" encoding="UTF-8" standalone="no" ?>
<gpx xmlns="http://www.topografix.com/GPX/1/1" xmlns:xsi="http://www.w3.org/2001/XMLSchema-instance" xsi:schemaLocation="http://www.topografix.com/GPX/1/1 http://www.topografix.com/GPX/1/1/gpx.xsd" version="1.1" creator="VisuGPX - https://www.visugpx.com">
  <metadata>
    <name>Refuge du Merlet-2021-07-18</name>
  </metadata>
  <trk>
    <name><![CDATA[TRK-2021-07-18]]></name>
    <trkseg>
      <trkpt lat="45.38369" lon="6.09742">
        <ele>-52.179592</ele>
        <time>2021-07-18T10:13:15</time>
      </trkpt>
      <trkpt lat="45.38361" lon="6.09746">
        <ele>593.4204</ele>
        <time>2021-07-18T10:14:18</time>
      </trkpt>
      <trkpt lat="45.3836" lon="6.09746">
        <ele>594.52045</ele>
        <time>2021-07-18T10:14:32</time>
      </trkpt>
      <trkpt lat="45.3836" lon="6.09745">
        <ele>594.52045</ele>
        <time>2021-07-18T10:14:33</time>
      </trkpt>
      <trkpt lat="45.38357" lon="6.09744">
        <ele>594.52045</ele>
        <time>2021-07-18T10:14:34</time>
      </trkpt>
      <trkpt lat="45.38356" lon="6.09742">
        <ele>594.52045</ele>
        <time>2021-07-18T10:14:35</time>
      </trkpt>
      <trkpt lat="45.38357" lon="6.09744">
        <ele>594.52045</ele>
        <time>2021-07-18T10:14:36</time>
      </trkpt>
      <trkpt lat="45.38359" lon="6.09746">
        <ele>594.52045</ele>
        <time>2021-07-18T10:16:03</time>
      </trkpt>
      <trkpt lat="45.38359" lon="6.09747">
        <ele>593.1204</ele>
        <time>2021-07-18T10:16:14</time>
      </trkpt>
      <trkpt lat="45.38359" lon="6.09747">
        <ele>593.1204</ele>
        <time>2021-07-18T10:16:15</time>
      </trkpt>
      <trkpt lat="45.38356" lon="6.0974">
        <ele>593.1204</ele>
        <time>2021-07-18T10:19:08</time>
      </trkpt>
      <trkpt lat="45.38361" lon="6.09741">
        <ele>593.1204</ele>
        <time>2021-07-18T10:19:56</time>
      </trkpt>
      <trkpt lat="45.3836" lon="6.09742">
        <ele>593.1204</ele>
        <time>2021-07-18T10:19:57</time>
      </trkpt>
      <trkpt lat="45.38359" lon="6.09745">
        <ele>603.6204</ele>
        <time>2021-07-18T10:20:03</time>
      </trkpt>
      <trkpt lat="45.38359" lon="6.09746">
        <ele>603.6204</ele>
        <time>2021-07-18T10:20:04</time>
      </trkpt>
      <trkpt lat="45.3836" lon="6.09747">
        <ele>603.6204</ele>
        <time>2021-07-18T10:20:05</time>
      </trkpt>
      <trkpt lat="45.3836" lon="6.09747">
        <ele>603.6204</ele>
        <time>2021-07-18T10:20:06</time>
      </trkpt>
      <trkpt lat="45.38361" lon="6.09747">
        <ele>603.6204</ele>
        <time>2021-07-18T10:20:07</time>
      </trkpt>
      <trkpt lat="45.38361" lon="6.09747">
        <ele>600.4204</ele>
        <time>2021-07-18T10:20:12</time>
      </trkpt>
      <trkpt lat="45.38361" lon="6.09748">
        <ele>600.4204</ele>
        <time>2021-07-18T10:20:13</time>
      </trkpt>
      <trkpt lat="45.38361" lon="6.09748">
        <ele>600.4204</ele>
        <time>2021-07-18T10:20:15</time>
      </trkpt>
      <trkpt lat="45.38361" lon="6.09748">
        <ele>600.4204</ele>
        <time>2021-07-18T10:20:16</time>
      </trkpt>
      <trkpt lat="45.38361" lon="6.09747">
        <ele>600.4204</ele>
        <time>2021-07-18T10:20:17</time>
      </trkpt>
      <trkpt lat="45.3836" lon="6.09748">
        <ele>596.22046</ele>
        <time>2021-07-18T10:20:47</time>
      </trkpt>
      <trkpt lat="45.38362" lon="6.09749">
        <ele>595.5871</ele>
        <time>2021-07-18T10:21:18</time>
      </trkpt>
      <trkpt lat="45.38364" lon="6.09751">
        <ele>595.5871</ele>
        <time>2021-07-18T10:21:20</time>
      </trkpt>
      <trkpt lat="45.38365" lon="6.09753">
        <ele>596.02045</ele>
        <time>2021-07-18T10:21:21</time>
      </trkpt>
      <trkpt lat="45.38366" lon="6.09755">
        <ele>596.02045</ele>
        <time>2021-07-18T10:21:22</time>
      </trkpt>
      <trkpt lat="45.38367" lon="6.09756">
        <ele>596.02045</ele>
        <time>2021-07-18T10:21:23</time>
      </trkpt>
      <trkpt lat="45.38367" lon="6.09758">
        <ele>596.02045</ele>
        <time>2021-07-18T10:21:26</time>
      </trkpt>
      <trkpt lat="45.38368" lon="6.09762">
        <ele>596.02045</ele>
        <time>2021-07-18T10:21:29</time>
      </trkpt>
      <trkpt lat="45.3837" lon="6.09775">
        <ele>592.9204</ele>
        <time>2021-07-18T10:21:47</time>
      </trkpt>
      <trkpt lat="45.3837" lon="6.09777">
        <ele>592.9204</ele>
        <time>2021-07-18T10:21:48</time>
      </trkpt>
      <trkpt lat="45.38375" lon="6.09796">
        <ele>592.9204</ele>
        <time>2021-07-18T10:22:02</time>
      </trkpt>
      <trkpt lat="45.38378" lon="6.09814">
        <ele>599.02045</ele>
        <time>2021-07-18T10:22:20</time>
      </trkpt>
      <trkpt lat="45.38378" lon="6.09815">
        <ele>604.1204</ele>
        <time>2021-07-18T10:22:21</time>
      </trkpt>
      <trkpt lat="45.38378" lon="6.09817">
        <ele>604.1204</ele>
        <time>2021-07-18T10:22:23</time>
      </trkpt>
      <trkpt lat="45.38379" lon="6.09823">
        <ele>604.1204</ele>
        <time>2021-07-18T10:22:28</time>
      </trkpt>
      <trkpt lat="45.3838" lon="6.09829">
        <ele>607.22046</ele>
        <time>2021-07-18T10:22:34</time>
      </trkpt>
      <trkpt lat="45.38379" lon="6.0983">
        <ele>607.22046</ele>
        <time>2021-07-18T10:22:36</time>
      </trkpt>
      <trkpt lat="45.38378" lon="6.09833">
        <ele>607.22046</ele>
        <time>2021-07-18T10:22:39</time>
      </trkpt>
      <trkpt lat="45.38377" lon="6.09834">
        <ele>607.22046</ele>
        <time>2021-07-18T10:22:40</time>
      </trkpt>
      <trkpt lat="45.38377" lon="6.09837">
        <ele>606.1204</ele>
        <time>2021-07-18T10:22:42</time>
      </trkpt>
      <trkpt lat="45.38377" lon="6.09851">
        <ele>610.85376</ele>
        <time>2021-07-18T10:22:53</time>
      </trkpt>
      <trkpt lat="45.3838" lon="6.0986">
        <ele>610.85376</ele>
        <time>2021-07-18T10:23:00</time>
      </trkpt>
      <trkpt lat="45.3838" lon="6.09864">
        <ele>610.72046</ele>
        <time>2021-07-18T10:23:02</time>
      </trkpt>
      <trkpt lat="45.38381" lon="6.0987">
        <ele>610.72046</ele>
        <time>2021-07-18T10:23:08</time>
      </trkpt>
      <trkpt lat="45.38383" lon="6.0988">
        <ele>610.72046</ele>
        <time>2021-07-18T10:23:17</time>
      </trkpt>
      <trkpt lat="45.38383" lon="6.09881">
        <ele>610.72046</ele>
        <time>2021-07-18T10:23:18</time>
      </trkpt>
      <trkpt lat="45.38383" lon="6.09883">
        <ele>610.72046</ele>
        <time>2021-07-18T10:23:20</time>
      </trkpt>
      <trkpt lat="45.38383" lon="6.09884">
        <ele>610.6204</ele>
        <time>2021-07-18T10:23:21</time>
      </trkpt>
      <trkpt lat="45.38383" lon="6.09885">
        <ele>610.6204</ele>
        <time>2021-07-18T10:23:22</time>
      </trkpt>
      <trkpt lat="45.38383" lon="6.09886">
        <ele>610.6204</ele>
        <time>2021-07-18T10:23:23</time>
      </trkpt>
      <trkpt lat="45.38383" lon="6.09886">
        <ele>610.6204</ele>
        <time>2021-07-18T10:23:25</time>
      </trkpt>
      <trkpt lat="45.38382" lon="6.09887">
        <ele>610.6204</ele>
        <time>2021-07-18T10:23:27</time>
      </trkpt>
      <trkpt lat="45.38382" lon="6.09888">
        <ele>610.6204</ele>
        <time>2021-07-18T10:23:28</time>
      </trkpt>
      <trkpt lat="45.38383" lon="6.0989">
        <ele>610.6204</ele>
        <time>2021-07-18T10:23:29</time>
      </trkpt>
      <trkpt lat="45.38385" lon="6.09892">
        <ele>610.6204</ele>
        <time>2021-07-18T10:23:30</time>
      </trkpt>
      <trkpt lat="45.38386" lon="6.09893">
        <ele>606.1204</ele>
        <time>2021-07-18T10:23:31</time>
      </trkpt>
      <trkpt lat="45.38386" lon="6.09895">
        <ele>606.1204</ele>
        <time>2021-07-18T10:23:33</time>
      </trkpt>
      <trkpt lat="45.38386" lon="6.09903">
        <ele>604.22046</ele>
        <time>2021-07-18T10:23:47</time>
      </trkpt>
      <trkpt lat="45.38386" lon="6.09904">
        <ele>604.22046</ele>
        <time>2021-07-18T10:23:48</time>
      </trkpt>
      <trkpt lat="45.38386" lon="6.09905">
        <ele>604.22046</ele>
        <time>2021-07-18T10:23:49</time>
      </trkpt>
      <trkpt lat="45.38386" lon="6.09913">
        <ele>604.32043</ele>
        <time>2021-07-18T10:23:56</time>
      </trkpt>
      <trkpt lat="45.38385" lon="6.09915">
        <ele>604.32043</ele>
        <time>2021-07-18T10:23:57</time>
      </trkpt>
      <trkpt lat="45.38384" lon="6.09918">
        <ele>604.32043</ele>
        <time>2021-07-18T10:24:00</time>
      </trkpt>
      <trkpt lat="45.38384" lon="6.0992">
        <ele>604.32043</ele>
        <time>2021-07-18T10:24:01</time>
      </trkpt>
      <trkpt lat="45.38384" lon="6.09921">
        <ele>604.32043</ele>
        <time>2021-07-18T10:24:02</time>
      </trkpt>
      <trkpt lat="45.38378" lon="6.09937">
        <ele>604.32043</ele>
        <time>2021-07-18T10:24:13</time>
      </trkpt>
      <trkpt lat="45.38377" lon="6.09943">
        <ele>604.32043</ele>
        <time>2021-07-18T10:24:16</time>
      </trkpt>
      <trkpt lat="45.38376" lon="6.09946">
        <ele>604.32043</ele>
        <time>2021-07-18T10:24:18</time>
      </trkpt>
      <trkpt lat="45.38376" lon="6.09951">
        <ele>604.32043</ele>
        <time>2021-07-18T10:24:21</time>
      </trkpt>
      <trkpt lat="45.38376" lon="6.09955">
        <ele>604.32043</ele>
        <time>2021-07-18T10:24:24</time>
      </trkpt>
      <trkpt lat="45.38375" lon="6.09955">
        <ele>604.32043</ele>
        <time>2021-07-18T10:24:25</time>
      </trkpt>
      <trkpt lat="45.38375" lon="6.09956">
        <ele>604.32043</ele>
        <time>2021-07-18T10:24:26</time>
      </trkpt>
      <trkpt lat="45.38373" lon="6.09958">
        <ele>604.32043</ele>
        <time>2021-07-18T10:24:28</time>
      </trkpt>
      <trkpt lat="45.38373" lon="6.09962">
        <ele>604.32043</ele>
        <time>2021-07-18T10:24:30</time>
      </trkpt>
      <trkpt lat="45.38372" lon="6.09966">
        <ele>616.1204</ele>
        <time>2021-07-18T10:24:33</time>
      </trkpt>
      <trkpt lat="45.3837" lon="6.09968">
        <ele>616.1204</ele>
        <time>2021-07-18T10:24:37</time>
      </trkpt>
      <trkpt lat="45.38369" lon="6.09968">
        <ele>616.1204</ele>
        <time>2021-07-18T10:24:43</time>
      </trkpt>
      <trkpt lat="45.38368" lon="6.09977">
        <ele>616.1204</ele>
        <time>2021-07-18T10:24:49</time>
      </trkpt>
      <trkpt lat="45.38368" lon="6.0998">
        <ele>620.1204</ele>
        <time>2021-07-18T10:24:51</time>
      </trkpt>
      <trkpt lat="45.38367" lon="6.0999">
        <ele>620.1204</ele>
        <time>2021-07-18T10:24:56</time>
      </trkpt>
      <trkpt lat="45.38366" lon="6.09998">
        <ele>620.1204</ele>
        <time>2021-07-18T10:25:01</time>
      </trkpt>
      <trkpt lat="45.38367" lon="6.10012">
        <ele>620.1204</ele>
        <time>2021-07-18T10:25:09</time>
      </trkpt>
      <trkpt lat="45.38367" lon="6.10014">
        <ele>620.1204</ele>
        <time>2021-07-18T10:25:10</time>
      </trkpt>
      <trkpt lat="45.38368" lon="6.10015">
        <ele>620.1204</ele>
        <time>2021-07-18T10:25:11</time>
      </trkpt>
      <trkpt lat="45.38368" lon="6.10016">
        <ele>620.1204</ele>
        <time>2021-07-18T10:25:13</time>
      </trkpt>
      <trkpt lat="45.38367" lon="6.10017">
        <ele>620.1204</ele>
        <time>2021-07-18T10:25:14</time>
      </trkpt>
      <trkpt lat="45.38367" lon="6.10019">
        <ele>620.1204</ele>
        <time>2021-07-18T10:25:15</time>
      </trkpt>
      <trkpt lat="45.38366" lon="6.1002">
        <ele>620.1204</ele>
        <time>2021-07-18T10:25:16</time>
      </trkpt>
      <trkpt lat="45.38366" lon="6.10021">
        <ele>620.1204</ele>
        <time>2021-07-18T10:25:17</time>
      </trkpt>
      <trkpt lat="45.38364" lon="6.10031">
        <ele>620.1204</ele>
        <time>2021-07-18T10:25:24</time>
      </trkpt>
      <trkpt lat="45.38364" lon="6.10033">
        <ele>620.1204</ele>
        <time>2021-07-18T10:25:25</time>
      </trkpt>
      <trkpt lat="45.38359" lon="6.1004">
        <ele>620.1204</ele>
        <time>2021-07-18T10:25:31</time>
      </trkpt>
      <trkpt lat="45.38359" lon="6.10041">
        <ele>620.1204</ele>
        <time>2021-07-18T10:25:32</time>
      </trkpt>
      <trkpt lat="45.38359" lon="6.10042">
        <ele>620.1204</ele>
        <time>2021-07-18T10:25:33</time>
      </trkpt>
      <trkpt lat="45.38358" lon="6.10044">
        <ele>620.1204</ele>
        <time>2021-07-18T10:25:35</time>
      </trkpt>
      <trkpt lat="45.38355" lon="6.10048">
        <ele>620.1204</ele>
        <time>2021-07-18T10:25:38</time>
      </trkpt>
      <trkpt lat="45.38354" lon="6.10049">
        <ele>620.1204</ele>
        <time>2021-07-18T10:25:39</time>
      </trkpt>
      <trkpt lat="45.38354" lon="6.10052">
        <ele>620.1204</ele>
        <time>2021-07-18T10:25:41</time>
      </trkpt>
      <trkpt lat="45.38354" lon="6.10056">
        <ele>620.1204</ele>
        <time>2021-07-18T10:25:43</time>
      </trkpt>
      <trkpt lat="45.38352" lon="6.1006">
        <ele>620.1204</ele>
        <time>2021-07-18T10:25:47</time>
      </trkpt>
      <trkpt lat="45.38347" lon="6.10071">
        <ele>627.9204</ele>
        <time>2021-07-18T10:25:55</time>
      </trkpt>
      <trkpt lat="45.38345" lon="6.10071">
        <ele>627.9204</ele>
        <time>2021-07-18T10:25:56</time>
      </trkpt>
      <trkpt lat="45.38345" lon="6.1007">
        <ele>627.9204</ele>
        <time>2021-07-18T10:25:57</time>
      </trkpt>
      <trkpt lat="45.38343" lon="6.10072">
        <ele>627.9204</ele>
        <time>2021-07-18T10:26:01</time>
      </trkpt>
      <trkpt lat="45.38343" lon="6.10073">
        <ele>627.9204</ele>
        <time>2021-07-18T10:26:02</time>
      </trkpt>
      <trkpt lat="45.38343" lon="6.10074">
        <ele>627.9204</ele>
        <time>2021-07-18T10:26:03</time>
      </trkpt>
      <trkpt lat="45.38342" lon="6.10077">
        <ele>627.9204</ele>
        <time>2021-07-18T10:26:05</time>
      </trkpt>
      <trkpt lat="45.38342" lon="6.10079">
        <ele>627.9204</ele>
        <time>2021-07-18T10:26:06</time>
      </trkpt>
      <trkpt lat="45.38342" lon="6.1008">
        <ele>627.9204</ele>
        <time>2021-07-18T10:26:07</time>
      </trkpt>
      <trkpt lat="45.3834" lon="6.10086">
        <ele>627.9204</ele>
        <time>2021-07-18T10:26:11</time>
      </trkpt>
      <trkpt lat="45.3834" lon="6.10088">
        <ele>627.9204</ele>
        <time>2021-07-18T10:26:12</time>
      </trkpt>
      <trkpt lat="45.3834" lon="6.10089">
        <ele>627.9204</ele>
        <time>2021-07-18T10:26:13</time>
      </trkpt>
      <trkpt lat="45.38339" lon="6.1009">
        <ele>627.9204</ele>
        <time>2021-07-18T10:26:14</time>
      </trkpt>
      <trkpt lat="45.38339" lon="6.10092">
        <ele>627.9204</ele>
        <time>2021-07-18T10:26:15</time>
      </trkpt>
      <trkpt lat="45.38338" lon="6.10095">
        <ele>627.9204</ele>
        <time>2021-07-18T10:26:17</time>
      </trkpt>
      <trkpt lat="45.38338" lon="6.10096">
        <ele>627.9204</ele>
        <time>2021-07-18T10:26:18</time>
      </trkpt>
      <trkpt lat="45.38337" lon="6.10107">
        <ele>625.4204</ele>
        <time>2021-07-18T10:26:24</time>
      </trkpt>
      <trkpt lat="45.38337" lon="6.10108">
        <ele>625.4204</ele>
        <time>2021-07-18T10:26:25</time>
      </trkpt>
      <trkpt lat="45.38336" lon="6.10109">
        <ele>625.4204</ele>
        <time>2021-07-18T10:26:26</time>
      </trkpt>
      <trkpt lat="45.38335" lon="6.10113">
        <ele>625.4204</ele>
        <time>2021-07-18T10:26:28</time>
      </trkpt>
      <trkpt lat="45.38334" lon="6.10116">
        <ele>625.4204</ele>
        <time>2021-07-18T10:26:31</time>
      </trkpt>
      <trkpt lat="45.38329" lon="6.10122">
        <ele>625.4204</ele>
        <time>2021-07-18T10:26:37</time>
      </trkpt>
      <trkpt lat="45.38328" lon="6.10124">
        <ele>625.4204</ele>
        <time>2021-07-18T10:26:39</time>
      </trkpt>
      <trkpt lat="45.38327" lon="6.10124">
        <ele>625.4204</ele>
        <time>2021-07-18T10:26:40</time>
      </trkpt>
      <trkpt lat="45.38327" lon="6.10125">
        <ele>628.9204</ele>
        <time>2021-07-18T10:26:41</time>
      </trkpt>
      <trkpt lat="45.38326" lon="6.10126">
        <ele>628.9204</ele>
        <time>2021-07-18T10:26:42</time>
      </trkpt>
      <trkpt lat="45.38325" lon="6.10127">
        <ele>628.9204</ele>
        <time>2021-07-18T10:26:43</time>
      </trkpt>
      <trkpt lat="45.38322" lon="6.10128">
        <ele>628.9204</ele>
        <time>2021-07-18T10:26:47</time>
      </trkpt>
      <trkpt lat="45.38321" lon="6.10128">
        <ele>628.9204</ele>
        <time>2021-07-18T10:26:48</time>
      </trkpt>
      <trkpt lat="45.38319" lon="6.10131">
        <ele>628.9204</ele>
        <time>2021-07-18T10:26:50</time>
      </trkpt>
      <trkpt lat="45.38319" lon="6.10132">
        <ele>633.82043</ele>
        <time>2021-07-18T10:26:51</time>
      </trkpt>
      <trkpt lat="45.38318" lon="6.10133">
        <ele>633.82043</ele>
        <time>2021-07-18T10:26:52</time>
      </trkpt>
      <trkpt lat="45.38317" lon="6.10133">
        <ele>633.82043</ele>
        <time>2021-07-18T10:26:53</time>
      </trkpt>
      <trkpt lat="45.38315" lon="6.10134">
        <ele>633.82043</ele>
        <time>2021-07-18T10:26:55</time>
      </trkpt>
      <trkpt lat="45.38314" lon="6.10135">
        <ele>633.82043</ele>
        <time>2021-07-18T10:26:56</time>
      </trkpt>
      <trkpt lat="45.38313" lon="6.10137">
        <ele>633.82043</ele>
        <time>2021-07-18T10:26:58</time>
      </trkpt>
      <trkpt lat="45.38312" lon="6.10138">
        <ele>633.82043</ele>
        <time>2021-07-18T10:26:59</time>
      </trkpt>
      <trkpt lat="45.38312" lon="6.10139">
        <ele>633.82043</ele>
        <time>2021-07-18T10:27:00</time>
      </trkpt>
      <trkpt lat="45.38311" lon="6.10139">
        <ele>634.1204</ele>
        <time>2021-07-18T10:27:01</time>
      </trkpt>
      <trkpt lat="45.38309" lon="6.10139">
        <ele>634.1204</ele>
        <time>2021-07-18T10:27:02</time>
      </trkpt>
      <trkpt lat="45.383" lon="6.10145">
        <ele>635.6204</ele>
        <time>2021-07-18T10:27:13</time>
      </trkpt>
      <trkpt lat="45.38299" lon="6.10147">
        <ele>635.6204</ele>
        <time>2021-07-18T10:27:14</time>
      </trkpt>
      <trkpt lat="45.38298" lon="6.10148">
        <ele>635.6204</ele>
        <time>2021-07-18T10:27:16</time>
      </trkpt>
      <trkpt lat="45.38297" lon="6.10149">
        <ele>635.6204</ele>
        <time>2021-07-18T10:27:17</time>
      </trkpt>
      <trkpt lat="45.38296" lon="6.10151">
        <ele>635.6204</ele>
        <time>2021-07-18T10:27:19</time>
      </trkpt>
      <trkpt lat="45.38295" lon="6.10152">
        <ele>635.6204</ele>
        <time>2021-07-18T10:27:20</time>
      </trkpt>
      <trkpt lat="45.38291" lon="6.10157">
        <ele>635.9204</ele>
        <time>2021-07-18T10:27:25</time>
      </trkpt>
      <trkpt lat="45.3829" lon="6.10157">
        <ele>635.9204</ele>
        <time>2021-07-18T10:27:26</time>
      </trkpt>
      <trkpt lat="45.38291" lon="6.10158">
        <ele>635.9204</ele>
        <time>2021-07-18T10:27:27</time>
      </trkpt>
      <trkpt lat="45.38291" lon="6.10159">
        <ele>635.9204</ele>
        <time>2021-07-18T10:27:28</time>
      </trkpt>
      <trkpt lat="45.38291" lon="6.1016">
        <ele>635.9204</ele>
        <time>2021-07-18T10:27:29</time>
      </trkpt>
      <trkpt lat="45.38291" lon="6.10161">
        <ele>635.9204</ele>
        <time>2021-07-18T10:27:30</time>
      </trkpt>
      <trkpt lat="45.3829" lon="6.1017">
        <ele>635.22046</ele>
        <time>2021-07-18T10:27:37</time>
      </trkpt>
      <trkpt lat="45.38288" lon="6.10175">
        <ele>637.72046</ele>
        <time>2021-07-18T10:27:43</time>
      </trkpt>
      <trkpt lat="45.38288" lon="6.10176">
        <ele>637.72046</ele>
        <time>2021-07-18T10:27:44</time>
      </trkpt>
      <trkpt lat="45.38286" lon="6.10178">
        <ele>637.72046</ele>
        <time>2021-07-18T10:27:47</time>
      </trkpt>
      <trkpt lat="45.38281" lon="6.10189">
        <ele>640.82043</ele>
        <time>2021-07-18T10:27:58</time>
      </trkpt>
      <trkpt lat="45.3828" lon="6.1019">
        <ele>640.82043</ele>
        <time>2021-07-18T10:27:59</time>
      </trkpt>
      <trkpt lat="45.3828" lon="6.10191">
        <ele>640.82043</ele>
        <time>2021-07-18T10:28:00</time>
      </trkpt>
      <trkpt lat="45.38279" lon="6.10195">
        <ele>644.6204</ele>
        <time>2021-07-18T10:28:03</time>
      </trkpt>
      <trkpt lat="45.38279" lon="6.10196">
        <ele>644.6204</ele>
        <time>2021-07-18T10:28:04</time>
      </trkpt>
      <trkpt lat="45.38278" lon="6.10197">
        <ele>644.6204</ele>
        <time>2021-07-18T10:28:05</time>
      </trkpt>
      <trkpt lat="45.38278" lon="6.10198">
        <ele>644.6204</ele>
        <time>2021-07-18T10:28:06</time>
      </trkpt>
      <trkpt lat="45.38278" lon="6.10199">
        <ele>644.6204</ele>
        <time>2021-07-18T10:28:07</time>
      </trkpt>
      <trkpt lat="45.38278" lon="6.10204">
        <ele>644.6204</ele>
        <time>2021-07-18T10:28:10</time>
      </trkpt>
      <trkpt lat="45.38274" lon="6.10218">
        <ele>648.52045</ele>
        <time>2021-07-18T10:28:21</time>
      </trkpt>
      <trkpt lat="45.38272" lon="6.1022">
        <ele>648.52045</ele>
        <time>2021-07-18T10:28:23</time>
      </trkpt>
      <trkpt lat="45.3827" lon="6.10229">
        <ele>648.52045</ele>
        <time>2021-07-18T10:28:30</time>
      </trkpt>
      <trkpt lat="45.3827" lon="6.1023">
        <ele>644.9204</ele>
        <time>2021-07-18T10:28:31</time>
      </trkpt>
      <trkpt lat="45.38264" lon="6.1024">
        <ele>644.9204</ele>
        <time>2021-07-18T10:28:44</time>
      </trkpt>
      <trkpt lat="45.38264" lon="6.10241">
        <ele>644.9204</ele>
        <time>2021-07-18T10:28:45</time>
      </trkpt>
      <trkpt lat="45.38264" lon="6.10243">
        <ele>644.9204</ele>
        <time>2021-07-18T10:28:47</time>
      </trkpt>
      <trkpt lat="45.38263" lon="6.10244">
        <ele>644.9204</ele>
        <time>2021-07-18T10:28:48</time>
      </trkpt>
      <trkpt lat="45.38262" lon="6.10245">
        <ele>644.9204</ele>
        <time>2021-07-18T10:28:49</time>
      </trkpt>
      <trkpt lat="45.38261" lon="6.10249">
        <ele>650.9204</ele>
        <time>2021-07-18T10:28:52</time>
      </trkpt>
      <trkpt lat="45.3826" lon="6.10252">
        <ele>650.9204</ele>
        <time>2021-07-18T10:28:55</time>
      </trkpt>
      <trkpt lat="45.3826" lon="6.10254">
        <ele>650.9204</ele>
        <time>2021-07-18T10:28:57</time>
      </trkpt>
      <trkpt lat="45.3826" lon="6.10255">
        <ele>650.9204</ele>
        <time>2021-07-18T10:28:58</time>
      </trkpt>
      <trkpt lat="45.38259" lon="6.10257">
        <ele>653.6204</ele>
        <time>2021-07-18T10:29:04</time>
      </trkpt>
      <trkpt lat="45.38259" lon="6.10258">
        <ele>653.6204</ele>
        <time>2021-07-18T10:29:05</time>
      </trkpt>
      <trkpt lat="45.38258" lon="6.10261">
        <ele>653.6204</ele>
        <time>2021-07-18T10:29:08</time>
      </trkpt>
      <trkpt lat="45.38257" lon="6.10262">
        <ele>653.6204</ele>
        <time>2021-07-18T10:29:10</time>
      </trkpt>
      <trkpt lat="45.38257" lon="6.10263">
        <ele>652.1204</ele>
        <time>2021-07-18T10:29:11</time>
      </trkpt>
      <trkpt lat="45.38256" lon="6.10264">
        <ele>652.1204</ele>
        <time>2021-07-18T10:29:12</time>
      </trkpt>
      <trkpt lat="45.38255" lon="6.10269">
        <ele>652.1204</ele>
        <time>2021-07-18T10:29:16</time>
      </trkpt>
      <trkpt lat="45.38254" lon="6.1027">
        <ele>652.1204</ele>
        <time>2021-07-18T10:29:17</time>
      </trkpt>
      <trkpt lat="45.38247" lon="6.1028">
        <ele>656.22046</ele>
        <time>2021-07-18T10:29:29</time>
      </trkpt>
      <trkpt lat="45.38245" lon="6.1029">
        <ele>659.32043</ele>
        <time>2021-07-18T10:29:38</time>
      </trkpt>
      <trkpt lat="45.38244" lon="6.10291">
        <ele>659.32043</ele>
        <time>2021-07-18T10:29:39</time>
      </trkpt>
      <trkpt lat="45.38243" lon="6.10293">
        <ele>658.4204</ele>
        <time>2021-07-18T10:29:41</time>
      </trkpt>
      <trkpt lat="45.38243" lon="6.10294">
        <ele>658.4204</ele>
        <time>2021-07-18T10:29:42</time>
      </trkpt>
      <trkpt lat="45.38242" lon="6.10297">
        <ele>658.4204</ele>
        <time>2021-07-18T10:29:44</time>
      </trkpt>
      <trkpt lat="45.38242" lon="6.10298">
        <ele>658.4204</ele>
        <time>2021-07-18T10:29:45</time>
      </trkpt>
      <trkpt lat="45.38241" lon="6.10299">
        <ele>658.4204</ele>
        <time>2021-07-18T10:29:46</time>
      </trkpt>
      <trkpt lat="45.38241" lon="6.103">
        <ele>658.4204</ele>
        <time>2021-07-18T10:29:47</time>
      </trkpt>
      <trkpt lat="45.3824" lon="6.10301">
        <ele>658.4204</ele>
        <time>2021-07-18T10:29:48</time>
      </trkpt>
      <trkpt lat="45.3824" lon="6.10302">
        <ele>658.4204</ele>
        <time>2021-07-18T10:29:49</time>
      </trkpt>
      <trkpt lat="45.38239" lon="6.10306">
        <ele>662.72046</ele>
        <time>2021-07-18T10:29:53</time>
      </trkpt>
      <trkpt lat="45.38241" lon="6.10308">
        <ele>662.72046</ele>
        <time>2021-07-18T10:29:55</time>
      </trkpt>
      <trkpt lat="45.38241" lon="6.1031">
        <ele>662.72046</ele>
        <time>2021-07-18T10:29:58</time>
      </trkpt>
      <trkpt lat="45.38242" lon="6.1031">
        <ele>662.72046</ele>
        <time>2021-07-18T10:29:59</time>
      </trkpt>
      <trkpt lat="45.38242" lon="6.10311">
        <ele>662.72046</ele>
        <time>2021-07-18T10:30:00</time>
      </trkpt>
      <trkpt lat="45.38245" lon="6.10319">
        <ele>658.72046</ele>
        <time>2021-07-18T10:30:09</time>
      </trkpt>
      <trkpt lat="45.38243" lon="6.10322">
        <ele>655.52045</ele>
        <time>2021-07-18T10:30:13</time>
      </trkpt>
      <trkpt lat="45.38242" lon="6.10323">
        <ele>655.52045</ele>
        <time>2021-07-18T10:30:24</time>
      </trkpt>
      <trkpt lat="45.38242" lon="6.10323">
        <ele>655.52045</ele>
        <time>2021-07-18T10:30:25</time>
      </trkpt>
      <trkpt lat="45.38243" lon="6.10324">
        <ele>655.52045</ele>
        <time>2021-07-18T10:30:26</time>
      </trkpt>
      <trkpt lat="45.38246" lon="6.10331">
        <ele>655.52045</ele>
        <time>2021-07-18T10:30:34</time>
      </trkpt>
      <trkpt lat="45.38245" lon="6.10332">
        <ele>655.52045</ele>
        <time>2021-07-18T10:30:40</time>
      </trkpt>
      <trkpt lat="45.38245" lon="6.10332">
        <ele>650.32043</ele>
        <time>2021-07-18T10:30:41</time>
      </trkpt>
      <trkpt lat="45.38243" lon="6.10331">
        <ele>650.32043</ele>
        <time>2021-07-18T10:30:45</time>
      </trkpt>
      <trkpt lat="45.38242" lon="6.10334">
        <ele>650.32043</ele>
        <time>2021-07-18T10:30:49</time>
      </trkpt>
      <trkpt lat="45.38241" lon="6.10335">
        <ele>650.32043</ele>
        <time>2021-07-18T10:30:50</time>
      </trkpt>
      <trkpt lat="45.3824" lon="6.10335">
        <ele>651.6204</ele>
        <time>2021-07-18T10:30:52</time>
      </trkpt>
      <trkpt lat="45.3824" lon="6.10335">
        <ele>651.6204</ele>
        <time>2021-07-18T10:30:53</time>
      </trkpt>
      <trkpt lat="45.38235" lon="6.10341">
        <ele>653.22046</ele>
        <time>2021-07-18T10:31:01</time>
      </trkpt>
      <trkpt lat="45.38234" lon="6.10342">
        <ele>653.22046</ele>
        <time>2021-07-18T10:31:02</time>
      </trkpt>
      <trkpt lat="45.38232" lon="6.10342">
        <ele>653.22046</ele>
        <time>2021-07-18T10:31:03</time>
      </trkpt>
      <trkpt lat="45.3823" lon="6.10343">
        <ele>653.22046</ele>
        <time>2021-07-18T10:31:05</time>
      </trkpt>
      <trkpt lat="45.3822" lon="6.10349">
        <ele>654.1204</ele>
        <time>2021-07-18T10:31:17</time>
      </trkpt>
      <trkpt lat="45.38219" lon="6.1035">
        <ele>654.1204</ele>
        <time>2021-07-18T10:31:18</time>
      </trkpt>
      <trkpt lat="45.38216" lon="6.10354">
        <ele>653.4204</ele>
        <time>2021-07-18T10:31:23</time>
      </trkpt>
      <trkpt lat="45.38212" lon="6.10365">
        <ele>659.4204</ele>
        <time>2021-07-18T10:31:35</time>
      </trkpt>
      <trkpt lat="45.38212" lon="6.1037">
        <ele>659.4204</ele>
        <time>2021-07-18T10:31:38</time>
      </trkpt>
      <trkpt lat="45.38211" lon="6.10372">
        <ele>659.4204</ele>
        <time>2021-07-18T10:31:39</time>
      </trkpt>
      <trkpt lat="45.38211" lon="6.10374">
        <ele>659.4204</ele>
        <time>2021-07-18T10:31:40</time>
      </trkpt>
      <trkpt lat="45.38211" lon="6.10377">
        <ele>662.22046</ele>
        <time>2021-07-18T10:31:42</time>
      </trkpt>
      <trkpt lat="45.38211" lon="6.10379">
        <ele>662.22046</ele>
        <time>2021-07-18T10:31:43</time>
      </trkpt>
      <trkpt lat="45.38212" lon="6.10389">
        <ele>662.22046</ele>
        <time>2021-07-18T10:31:50</time>
      </trkpt>
      <trkpt lat="45.38212" lon="6.10391">
        <ele>665.52045</ele>
        <time>2021-07-18T10:31:51</time>
      </trkpt>
      <trkpt lat="45.38212" lon="6.10393">
        <ele>665.52045</ele>
        <time>2021-07-18T10:31:52</time>
      </trkpt>
      <trkpt lat="45.38212" lon="6.10395">
        <ele>665.52045</ele>
        <time>2021-07-18T10:31:53</time>
      </trkpt>
      <trkpt lat="45.38216" lon="6.10413">
        <ele>666.72046</ele>
        <time>2021-07-18T10:32:04</time>
      </trkpt>
      <trkpt lat="45.38216" lon="6.10426">
        <ele>664.32043</ele>
        <time>2021-07-18T10:32:12</time>
      </trkpt>
      <trkpt lat="45.38216" lon="6.10441">
        <ele>670.52045</ele>
        <time>2021-07-18T10:32:25</time>
      </trkpt>
      <trkpt lat="45.38216" lon="6.10442">
        <ele>670.52045</ele>
        <time>2021-07-18T10:32:26</time>
      </trkpt>
      <trkpt lat="45.38216" lon="6.10443">
        <ele>670.52045</ele>
        <time>2021-07-18T10:32:27</time>
      </trkpt>
      <trkpt lat="45.38215" lon="6.10449">
        <ele>670.82043</ele>
        <time>2021-07-18T10:32:31</time>
      </trkpt>
      <trkpt lat="45.38214" lon="6.10451">
        <ele>670.82043</ele>
        <time>2021-07-18T10:32:32</time>
      </trkpt>
      <trkpt lat="45.38213" lon="6.10452">
        <ele>670.82043</ele>
        <time>2021-07-18T10:32:33</time>
      </trkpt>
      <trkpt lat="45.38211" lon="6.10457">
        <ele>670.82043</ele>
        <time>2021-07-18T10:32:36</time>
      </trkpt>
      <trkpt lat="45.38209" lon="6.10462">
        <ele>670.82043</ele>
        <time>2021-07-18T10:32:39</time>
      </trkpt>
      <trkpt lat="45.38209" lon="6.10464">
        <ele>669.72046</ele>
        <time>2021-07-18T10:32:41</time>
      </trkpt>
      <trkpt lat="45.38208" lon="6.10466">
        <ele>669.72046</ele>
        <time>2021-07-18T10:32:42</time>
      </trkpt>
      <trkpt lat="45.38208" lon="6.10467">
        <ele>669.72046</ele>
        <time>2021-07-18T10:32:43</time>
      </trkpt>
      <trkpt lat="45.38207" lon="6.10468">
        <ele>669.72046</ele>
        <time>2021-07-18T10:32:44</time>
      </trkpt>
      <trkpt lat="45.38206" lon="6.10469">
        <ele>669.72046</ele>
        <time>2021-07-18T10:32:45</time>
      </trkpt>
      <trkpt lat="45.38205" lon="6.1047">
        <ele>669.72046</ele>
        <time>2021-07-18T10:32:46</time>
      </trkpt>
      <trkpt lat="45.38205" lon="6.10472">
        <ele>669.72046</ele>
        <time>2021-07-18T10:32:47</time>
      </trkpt>
      <trkpt lat="45.38204" lon="6.10474">
        <ele>669.72046</ele>
        <time>2021-07-18T10:32:49</time>
      </trkpt>
      <trkpt lat="45.38203" lon="6.10475">
        <ele>669.72046</ele>
        <time>2021-07-18T10:32:50</time>
      </trkpt>
      <trkpt lat="45.38202" lon="6.10476">
        <ele>668.52045</ele>
        <time>2021-07-18T10:32:51</time>
      </trkpt>
      <trkpt lat="45.38202" lon="6.10477">
        <ele>668.52045</ele>
        <time>2021-07-18T10:32:52</time>
      </trkpt>
      <trkpt lat="45.382" lon="6.10479">
        <ele>668.52045</ele>
        <time>2021-07-18T10:32:54</time>
      </trkpt>
      <trkpt lat="45.38199" lon="6.10479">
        <ele>668.52045</ele>
        <time>2021-07-18T10:32:56</time>
      </trkpt>
      <trkpt lat="45.38198" lon="6.10478">
        <ele>668.52045</ele>
        <time>2021-07-18T10:32:57</time>
      </trkpt>
      <trkpt lat="45.38197" lon="6.10479">
        <ele>671.6204</ele>
        <time>2021-07-18T10:33:01</time>
      </trkpt>
      <trkpt lat="45.38195" lon="6.10479">
        <ele>671.6204</ele>
        <time>2021-07-18T10:33:02</time>
      </trkpt>
      <trkpt lat="45.38193" lon="6.1048">
        <ele>671.6204</ele>
        <time>2021-07-18T10:33:03</time>
      </trkpt>
      <trkpt lat="45.38188" lon="6.10489">
        <ele>671.6204</ele>
        <time>2021-07-18T10:33:09</time>
      </trkpt>
      <trkpt lat="45.38188" lon="6.10493">
        <ele>670.72046</ele>
        <time>2021-07-18T10:33:11</time>
      </trkpt>
      <trkpt lat="45.38184" lon="6.10503">
        <ele>670.72046</ele>
        <time>2021-07-18T10:33:18</time>
      </trkpt>
      <trkpt lat="45.38179" lon="6.10509">
        <ele>672.6204</ele>
        <time>2021-07-18T10:33:23</time>
      </trkpt>
      <trkpt lat="45.38177" lon="6.10511">
        <ele>672.6204</ele>
        <time>2021-07-18T10:33:27</time>
      </trkpt>
      <trkpt lat="45.38177" lon="6.10512">
        <ele>672.6204</ele>
        <time>2021-07-18T10:33:28</time>
      </trkpt>
      <trkpt lat="45.38167" lon="6.10515">
        <ele>676.02045</ele>
        <time>2021-07-18T10:33:35</time>
      </trkpt>
      <trkpt lat="45.38157" lon="6.10515">
        <ele>678.9204</ele>
        <time>2021-07-18T10:33:42</time>
      </trkpt>
      <trkpt lat="45.38149" lon="6.1052">
        <ele>678.9204</ele>
        <time>2021-07-18T10:33:49</time>
      </trkpt>
      <trkpt lat="45.38145" lon="6.10524">
        <ele>675.72046</ele>
        <time>2021-07-18T10:33:53</time>
      </trkpt>
      <trkpt lat="45.38141" lon="6.10524">
        <ele>675.72046</ele>
        <time>2021-07-18T10:33:56</time>
      </trkpt>
      <trkpt lat="45.38139" lon="6.10524">
        <ele>675.72046</ele>
        <time>2021-07-18T10:33:57</time>
      </trkpt>
      <trkpt lat="45.38136" lon="6.10524">
        <ele>675.72046</ele>
        <time>2021-07-18T10:33:59</time>
      </trkpt>
      <trkpt lat="45.38134" lon="6.10524">
        <ele>675.72046</ele>
        <time>2021-07-18T10:34:00</time>
      </trkpt>
      <trkpt lat="45.38133" lon="6.10524">
        <ele>672.4204</ele>
        <time>2021-07-18T10:34:01</time>
      </trkpt>
      <trkpt lat="45.38132" lon="6.10524">
        <ele>672.4204</ele>
        <time>2021-07-18T10:34:02</time>
      </trkpt>
      <trkpt lat="45.38131" lon="6.10525">
        <ele>672.4204</ele>
        <time>2021-07-18T10:34:03</time>
      </trkpt>
      <trkpt lat="45.38131" lon="6.10526">
        <ele>672.4204</ele>
        <time>2021-07-18T10:34:04</time>
      </trkpt>
      <trkpt lat="45.38126" lon="6.10528">
        <ele>672.4204</ele>
        <time>2021-07-18T10:34:08</time>
      </trkpt>
      <trkpt lat="45.38126" lon="6.1053">
        <ele>672.4204</ele>
        <time>2021-07-18T10:34:09</time>
      </trkpt>
      <trkpt lat="45.38126" lon="6.10531">
        <ele>672.4204</ele>
        <time>2021-07-18T10:34:10</time>
      </trkpt>
      <trkpt lat="45.38126" lon="6.10533">
        <ele>672.0538</ele>
        <time>2021-07-18T10:34:11</time>
      </trkpt>
      <trkpt lat="45.38126" lon="6.10536">
        <ele>672.0538</ele>
        <time>2021-07-18T10:34:13</time>
      </trkpt>
      <trkpt lat="45.38126" lon="6.10538">
        <ele>672.0538</ele>
        <time>2021-07-18T10:34:14</time>
      </trkpt>
      <trkpt lat="45.38126" lon="6.10539">
        <ele>672.0538</ele>
        <time>2021-07-18T10:34:15</time>
      </trkpt>
      <trkpt lat="45.38126" lon="6.10542">
        <ele>672.0538</ele>
        <time>2021-07-18T10:34:17</time>
      </trkpt>
      <trkpt lat="45.38124" lon="6.10544">
        <ele>672.0538</ele>
        <time>2021-07-18T10:34:20</time>
      </trkpt>
      <trkpt lat="45.38124" lon="6.10544">
        <ele>676.4204</ele>
        <time>2021-07-18T10:34:21</time>
      </trkpt>
      <trkpt lat="45.38124" lon="6.10545">
        <ele>676.4204</ele>
        <time>2021-07-18T10:34:22</time>
      </trkpt>
      <trkpt lat="45.38125" lon="6.10547">
        <ele>676.4204</ele>
        <time>2021-07-18T10:34:23</time>
      </trkpt>
      <trkpt lat="45.38126" lon="6.1055">
        <ele>676.4204</ele>
        <time>2021-07-18T10:34:25</time>
      </trkpt>
      <trkpt lat="45.38126" lon="6.10551">
        <ele>676.4204</ele>
        <time>2021-07-18T10:34:26</time>
      </trkpt>
      <trkpt lat="45.38127" lon="6.10552">
        <ele>676.4204</ele>
        <time>2021-07-18T10:34:27</time>
      </trkpt>
      <trkpt lat="45.38127" lon="6.10553">
        <ele>676.4204</ele>
        <time>2021-07-18T10:34:28</time>
      </trkpt>
      <trkpt lat="45.38128" lon="6.10554">
        <ele>676.4204</ele>
        <time>2021-07-18T10:34:29</time>
      </trkpt>
      <trkpt lat="45.38128" lon="6.10555">
        <ele>676.4204</ele>
        <time>2021-07-18T10:34:30</time>
      </trkpt>
      <trkpt lat="45.38128" lon="6.10557">
        <ele>678.4204</ele>
        <time>2021-07-18T10:34:31</time>
      </trkpt>
      <trkpt lat="45.38128" lon="6.10559">
        <ele>678.4204</ele>
        <time>2021-07-18T10:34:32</time>
      </trkpt>
      <trkpt lat="45.38128" lon="6.10561">
        <ele>678.4204</ele>
        <time>2021-07-18T10:34:33</time>
      </trkpt>
      <trkpt lat="45.38128" lon="6.10564">
        <ele>678.4204</ele>
        <time>2021-07-18T10:34:35</time>
      </trkpt>
      <trkpt lat="45.38126" lon="6.10565">
        <ele>678.4204</ele>
        <time>2021-07-18T10:34:36</time>
      </trkpt>
      <trkpt lat="45.38126" lon="6.10566">
        <ele>678.4204</ele>
        <time>2021-07-18T10:34:37</time>
      </trkpt>
      <trkpt lat="45.38125" lon="6.10569">
        <ele>678.4204</ele>
        <time>2021-07-18T10:34:39</time>
      </trkpt>
      <trkpt lat="45.38124" lon="6.10571">
        <ele>678.4204</ele>
        <time>2021-07-18T10:34:40</time>
      </trkpt>
      <trkpt lat="45.38124" lon="6.10572">
        <ele>672.6871</ele>
        <time>2021-07-18T10:34:41</time>
      </trkpt>
      <trkpt lat="45.38124" lon="6.10575">
        <ele>672.6871</ele>
        <time>2021-07-18T10:34:43</time>
      </trkpt>
      <trkpt lat="45.38123" lon="6.10576">
        <ele>672.6871</ele>
        <time>2021-07-18T10:34:44</time>
      </trkpt>
      <trkpt lat="45.38116" lon="6.10586">
        <ele>671.72046</ele>
        <time>2021-07-18T10:34:53</time>
      </trkpt>
      <trkpt lat="45.38114" lon="6.10587">
        <ele>671.72046</ele>
        <time>2021-07-18T10:34:54</time>
      </trkpt>
      <trkpt lat="45.38105" lon="6.10593">
        <ele>677.4204</ele>
        <time>2021-07-18T10:35:01</time>
      </trkpt>
      <trkpt lat="45.38103" lon="6.10594">
        <ele>677.4204</ele>
        <time>2021-07-18T10:35:02</time>
      </trkpt>
      <trkpt lat="45.38102" lon="6.10596">
        <ele>677.4204</ele>
        <time>2021-07-18T10:35:04</time>
      </trkpt>
      <trkpt lat="45.38101" lon="6.10597">
        <ele>677.4204</ele>
        <time>2021-07-18T10:35:05</time>
      </trkpt>
      <trkpt lat="45.38102" lon="6.10599">
        <ele>677.4204</ele>
        <time>2021-07-18T10:35:06</time>
      </trkpt>
      <trkpt lat="45.38103" lon="6.10601">
        <ele>677.4204</ele>
        <time>2021-07-18T10:35:09</time>
      </trkpt>
      <trkpt lat="45.38103" lon="6.10603">
        <ele>677.4204</ele>
        <time>2021-07-18T10:35:10</time>
      </trkpt>
      <trkpt lat="45.38103" lon="6.10604">
        <ele>672.52045</ele>
        <time>2021-07-18T10:35:11</time>
      </trkpt>
      <trkpt lat="45.38097" lon="6.1061">
        <ele>672.52045</ele>
        <time>2021-07-18T10:35:19</time>
      </trkpt>
      <trkpt lat="45.38096" lon="6.10611">
        <ele>678.22046</ele>
        <time>2021-07-18T10:35:21</time>
      </trkpt>
      <trkpt lat="45.38095" lon="6.10612">
        <ele>678.22046</ele>
        <time>2021-07-18T10:35:22</time>
      </trkpt>
      <trkpt lat="45.38095" lon="6.10615">
        <ele>678.22046</ele>
        <time>2021-07-18T10:35:24</time>
      </trkpt>
      <trkpt lat="45.38094" lon="6.10618">
        <ele>678.22046</ele>
        <time>2021-07-18T10:35:25</time>
      </trkpt>
      <trkpt lat="45.38093" lon="6.10624">
        <ele>678.22046</ele>
        <time>2021-07-18T10:35:28</time>
      </trkpt>
      <trkpt lat="45.38091" lon="6.1064">
        <ele>679.72046</ele>
        <time>2021-07-18T10:35:38</time>
      </trkpt>
      <trkpt lat="45.38091" lon="6.1064">
        <ele>679.72046</ele>
        <time>2021-07-18T10:35:39</time>
      </trkpt>
      <trkpt lat="45.38091" lon="6.10642">
        <ele>679.72046</ele>
        <time>2021-07-18T10:35:40</time>
      </trkpt>
      <trkpt lat="45.3809" lon="6.10649">
        <ele>677.52045</ele>
        <time>2021-07-18T10:35:45</time>
      </trkpt>
      <trkpt lat="45.38088" lon="6.10661">
        <ele>678.52045</ele>
        <time>2021-07-18T10:35:53</time>
      </trkpt>
      <trkpt lat="45.38088" lon="6.10663">
        <ele>678.52045</ele>
        <time>2021-07-18T10:35:54</time>
      </trkpt>
      <trkpt lat="45.38088" lon="6.10666">
        <ele>678.52045</ele>
        <time>2021-07-18T10:35:56</time>
      </trkpt>
      <trkpt lat="45.38087" lon="6.10668">
        <ele>678.52045</ele>
        <time>2021-07-18T10:35:57</time>
      </trkpt>
      <trkpt lat="45.38083" lon="6.10675">
        <ele>682.72046</ele>
        <time>2021-07-18T10:36:02</time>
      </trkpt>
      <trkpt lat="45.38083" lon="6.10676">
        <ele>682.72046</ele>
        <time>2021-07-18T10:36:03</time>
      </trkpt>
      <trkpt lat="45.38083" lon="6.1068">
        <ele>682.72046</ele>
        <time>2021-07-18T10:36:05</time>
      </trkpt>
      <trkpt lat="45.38081" lon="6.10688">
        <ele>682.72046</ele>
        <time>2021-07-18T10:36:10</time>
      </trkpt>
      <trkpt lat="45.38082" lon="6.10689">
        <ele>684.02045</ele>
        <time>2021-07-18T10:36:11</time>
      </trkpt>
      <trkpt lat="45.38083" lon="6.1069">
        <ele>684.02045</ele>
        <time>2021-07-18T10:36:12</time>
      </trkpt>
      <trkpt lat="45.38083" lon="6.10691">
        <ele>684.02045</ele>
        <time>2021-07-18T10:36:13</time>
      </trkpt>
      <trkpt lat="45.38083" lon="6.10692">
        <ele>684.02045</ele>
        <time>2021-07-18T10:36:14</time>
      </trkpt>
      <trkpt lat="45.38083" lon="6.10692">
        <ele>684.02045</ele>
        <time>2021-07-18T10:36:15</time>
      </trkpt>
      <trkpt lat="45.38084" lon="6.10692">
        <ele>684.02045</ele>
        <time>2021-07-18T10:36:17</time>
      </trkpt>
      <trkpt lat="45.38083" lon="6.10694">
        <ele>684.02045</ele>
        <time>2021-07-18T10:36:18</time>
      </trkpt>
      <trkpt lat="45.38084" lon="6.10696">
        <ele>684.02045</ele>
        <time>2021-07-18T10:36:19</time>
      </trkpt>
      <trkpt lat="45.38085" lon="6.107">
        <ele>687.4204</ele>
        <time>2021-07-18T10:36:21</time>
      </trkpt>
      <trkpt lat="45.38087" lon="6.10706">
        <ele>687.4204</ele>
        <time>2021-07-18T10:36:24</time>
      </trkpt>
      <trkpt lat="45.38088" lon="6.10708">
        <ele>687.4204</ele>
        <time>2021-07-18T10:36:25</time>
      </trkpt>
      <trkpt lat="45.38089" lon="6.10712">
        <ele>687.4204</ele>
        <time>2021-07-18T10:36:28</time>
      </trkpt>
      <trkpt lat="45.38088" lon="6.10713">
        <ele>687.4204</ele>
        <time>2021-07-18T10:36:29</time>
      </trkpt>
      <trkpt lat="45.38088" lon="6.10718">
        <ele>687.72046</ele>
        <time>2021-07-18T10:36:32</time>
      </trkpt>
      <trkpt lat="45.38089" lon="6.10721">
        <ele>687.72046</ele>
        <time>2021-07-18T10:36:33</time>
      </trkpt>
      <trkpt lat="45.38089" lon="6.10723">
        <ele>687.72046</ele>
        <time>2021-07-18T10:36:34</time>
      </trkpt>
      <trkpt lat="45.3809" lon="6.10728">
        <ele>687.72046</ele>
        <time>2021-07-18T10:36:37</time>
      </trkpt>
      <trkpt lat="45.38091" lon="6.10729">
        <ele>687.72046</ele>
        <time>2021-07-18T10:36:38</time>
      </trkpt>
      <trkpt lat="45.38093" lon="6.10734">
        <ele>688.82043</ele>
        <time>2021-07-18T10:36:41</time>
      </trkpt>
      <trkpt lat="45.38097" lon="6.10743">
        <ele>688.82043</ele>
        <time>2021-07-18T10:36:46</time>
      </trkpt>
      <trkpt lat="45.38101" lon="6.10748">
        <ele>688.82043</ele>
        <time>2021-07-18T10:36:50</time>
      </trkpt>
      <trkpt lat="45.38101" lon="6.10748">
        <ele>685.32043</ele>
        <time>2021-07-18T10:36:51</time>
      </trkpt>
      <trkpt lat="45.38102" lon="6.10749">
        <ele>685.32043</ele>
        <time>2021-07-18T10:36:53</time>
      </trkpt>
      <trkpt lat="45.38103" lon="6.10752">
        <ele>685.32043</ele>
        <time>2021-07-18T10:36:57</time>
      </trkpt>
      <trkpt lat="45.38103" lon="6.10755">
        <ele>685.32043</ele>
        <time>2021-07-18T10:37:00</time>
      </trkpt>
      <trkpt lat="45.38104" lon="6.10756">
        <ele>688.22046</ele>
        <time>2021-07-18T10:37:01</time>
      </trkpt>
      <trkpt lat="45.38104" lon="6.10759">
        <ele>688.22046</ele>
        <time>2021-07-18T10:37:04</time>
      </trkpt>
      <trkpt lat="45.38103" lon="6.1076">
        <ele>688.22046</ele>
        <time>2021-07-18T10:37:05</time>
      </trkpt>
      <trkpt lat="45.38103" lon="6.10761">
        <ele>688.22046</ele>
        <time>2021-07-18T10:37:06</time>
      </trkpt>
      <trkpt lat="45.38104" lon="6.10764">
        <ele>688.22046</ele>
        <time>2021-07-18T10:37:08</time>
      </trkpt>
      <trkpt lat="45.38106" lon="6.10774">
        <ele>686.9204</ele>
        <time>2021-07-18T10:37:17</time>
      </trkpt>
      <trkpt lat="45.38106" lon="6.10775">
        <ele>686.9204</ele>
        <time>2021-07-18T10:37:18</time>
      </trkpt>
      <trkpt lat="45.38106" lon="6.10777">
        <ele>686.9204</ele>
        <time>2021-07-18T10:37:19</time>
      </trkpt>
      <trkpt lat="45.38107" lon="6.10779">
        <ele>686.9204</ele>
        <time>2021-07-18T10:37:20</time>
      </trkpt>
      <trkpt lat="45.38108" lon="6.1078">
        <ele>684.4204</ele>
        <time>2021-07-18T10:37:23</time>
      </trkpt>
      <trkpt lat="45.38108" lon="6.1078">
        <ele>684.4204</ele>
        <time>2021-07-18T10:37:26</time>
      </trkpt>
      <trkpt lat="45.38108" lon="6.10782">
        <ele>684.4204</ele>
        <time>2021-07-18T10:37:27</time>
      </trkpt>
      <trkpt lat="45.38107" lon="6.10785">
        <ele>684.4204</ele>
        <time>2021-07-18T10:37:30</time>
      </trkpt>
      <trkpt lat="45.38107" lon="6.10786">
        <ele>689.1204</ele>
        <time>2021-07-18T10:37:31</time>
      </trkpt>
      <trkpt lat="45.38108" lon="6.10788">
        <ele>689.1204</ele>
        <time>2021-07-18T10:37:33</time>
      </trkpt>
      <trkpt lat="45.38108" lon="6.10789">
        <ele>689.1204</ele>
        <time>2021-07-18T10:37:34</time>
      </trkpt>
      <trkpt lat="45.38108" lon="6.1079">
        <ele>689.1204</ele>
        <time>2021-07-18T10:37:35</time>
      </trkpt>
      <trkpt lat="45.38108" lon="6.10791">
        <ele>689.1204</ele>
        <time>2021-07-18T10:37:36</time>
      </trkpt>
      <trkpt lat="45.38108" lon="6.10793">
        <ele>689.1204</ele>
        <time>2021-07-18T10:37:37</time>
      </trkpt>
      <trkpt lat="45.38108" lon="6.10794">
        <ele>689.1204</ele>
        <time>2021-07-18T10:37:38</time>
      </trkpt>
      <trkpt lat="45.3811" lon="6.10799">
        <ele>695.02045</ele>
        <time>2021-07-18T10:37:41</time>
      </trkpt>
      <trkpt lat="45.38111" lon="6.10806">
        <ele>695.02045</ele>
        <time>2021-07-18T10:37:45</time>
      </trkpt>
      <trkpt lat="45.38111" lon="6.10808">
        <ele>695.02045</ele>
        <time>2021-07-18T10:37:46</time>
      </trkpt>
      <trkpt lat="45.38108" lon="6.10821">
        <ele>699.82043</ele>
        <time>2021-07-18T10:37:58</time>
      </trkpt>
      <trkpt lat="45.38107" lon="6.10822">
        <ele>699.82043</ele>
        <time>2021-07-18T10:37:59</time>
      </trkpt>
      <trkpt lat="45.38106" lon="6.10824">
        <ele>701.1204</ele>
        <time>2021-07-18T10:38:01</time>
      </trkpt>
      <trkpt lat="45.38105" lon="6.10826">
        <ele>701.1204</ele>
        <time>2021-07-18T10:38:02</time>
      </trkpt>
      <trkpt lat="45.38105" lon="6.10827">
        <ele>701.1204</ele>
        <time>2021-07-18T10:38:03</time>
      </trkpt>
      <trkpt lat="45.38104" lon="6.10829">
        <ele>701.1204</ele>
        <time>2021-07-18T10:38:05</time>
      </trkpt>
      <trkpt lat="45.38099" lon="6.10837">
        <ele>703.9204</ele>
        <time>2021-07-18T10:38:12</time>
      </trkpt>
      <trkpt lat="45.38098" lon="6.10838">
        <ele>703.9204</ele>
        <time>2021-07-18T10:38:13</time>
      </trkpt>
      <trkpt lat="45.38098" lon="6.10841">
        <ele>703.9204</ele>
        <time>2021-07-18T10:38:15</time>
      </trkpt>
      <trkpt lat="45.38097" lon="6.10842">
        <ele>703.9204</ele>
        <time>2021-07-18T10:38:16</time>
      </trkpt>
      <trkpt lat="45.38097" lon="6.10844">
        <ele>703.9204</ele>
        <time>2021-07-18T10:38:17</time>
      </trkpt>
      <trkpt lat="45.38097" lon="6.10845">
        <ele>703.9204</ele>
        <time>2021-07-18T10:38:18</time>
      </trkpt>
      <trkpt lat="45.38096" lon="6.10847">
        <ele>703.9204</ele>
        <time>2021-07-18T10:38:19</time>
      </trkpt>
      <trkpt lat="45.38096" lon="6.10848">
        <ele>703.9204</ele>
        <time>2021-07-18T10:38:20</time>
      </trkpt>
      <trkpt lat="45.38097" lon="6.1085">
        <ele>706.32043</ele>
        <time>2021-07-18T10:38:21</time>
      </trkpt>
      <trkpt lat="45.38097" lon="6.10853">
        <ele>706.32043</ele>
        <time>2021-07-18T10:38:23</time>
      </trkpt>
      <trkpt lat="45.38097" lon="6.10854">
        <ele>706.32043</ele>
        <time>2021-07-18T10:38:24</time>
      </trkpt>
      <trkpt lat="45.38097" lon="6.10856">
        <ele>706.32043</ele>
        <time>2021-07-18T10:38:26</time>
      </trkpt>
      <trkpt lat="45.38096" lon="6.10856">
        <ele>706.32043</ele>
        <time>2021-07-18T10:38:30</time>
      </trkpt>
      <trkpt lat="45.38094" lon="6.10858">
        <ele>707.4204</ele>
        <time>2021-07-18T10:38:32</time>
      </trkpt>
      <trkpt lat="45.38094" lon="6.10859">
        <ele>707.4204</ele>
        <time>2021-07-18T10:38:33</time>
      </trkpt>
      <trkpt lat="45.38092" lon="6.10862">
        <ele>707.4204</ele>
        <time>2021-07-18T10:38:36</time>
      </trkpt>
      <trkpt lat="45.38091" lon="6.10865">
        <ele>710.1204</ele>
        <time>2021-07-18T10:38:41</time>
      </trkpt>
      <trkpt lat="45.3809" lon="6.10867">
        <ele>710.1204</ele>
        <time>2021-07-18T10:38:42</time>
      </trkpt>
      <trkpt lat="45.3809" lon="6.10868">
        <ele>710.1204</ele>
        <time>2021-07-18T10:38:43</time>
      </trkpt>
      <trkpt lat="45.3809" lon="6.10869">
        <ele>710.1204</ele>
        <time>2021-07-18T10:38:44</time>
      </trkpt>
      <trkpt lat="45.38089" lon="6.1087">
        <ele>710.1204</ele>
        <time>2021-07-18T10:38:45</time>
      </trkpt>
      <trkpt lat="45.38089" lon="6.10872">
        <ele>710.1204</ele>
        <time>2021-07-18T10:38:46</time>
      </trkpt>
      <trkpt lat="45.38089" lon="6.10876">
        <ele>710.1204</ele>
        <time>2021-07-18T10:38:48</time>
      </trkpt>
      <trkpt lat="45.38088" lon="6.10878">
        <ele>710.1204</ele>
        <time>2021-07-18T10:38:49</time>
      </trkpt>
      <trkpt lat="45.38087" lon="6.1088">
        <ele>710.1204</ele>
        <time>2021-07-18T10:38:50</time>
      </trkpt>
      <trkpt lat="45.38086" lon="6.10881">
        <ele>707.6204</ele>
        <time>2021-07-18T10:38:51</time>
      </trkpt>
      <trkpt lat="45.38086" lon="6.10883">
        <ele>707.6204</ele>
        <time>2021-07-18T10:38:53</time>
      </trkpt>
      <trkpt lat="45.38086" lon="6.10885">
        <ele>707.6204</ele>
        <time>2021-07-18T10:38:55</time>
      </trkpt>
      <trkpt lat="45.38086" lon="6.10888">
        <ele>707.6204</ele>
        <time>2021-07-18T10:39:00</time>
      </trkpt>
      <trkpt lat="45.38084" lon="6.10892">
        <ele>709.82043</ele>
        <time>2021-07-18T10:39:03</time>
      </trkpt>
      <trkpt lat="45.38081" lon="6.10898">
        <ele>709.82043</ele>
        <time>2021-07-18T10:39:09</time>
      </trkpt>
      <trkpt lat="45.38081" lon="6.109">
        <ele>709.82043</ele>
        <time>2021-07-18T10:39:10</time>
      </trkpt>
      <trkpt lat="45.3808" lon="6.10903">
        <ele>709.6204</ele>
        <time>2021-07-18T10:39:12</time>
      </trkpt>
      <trkpt lat="45.38074" lon="6.10917">
        <ele>712.52045</ele>
        <time>2021-07-18T10:39:22</time>
      </trkpt>
      <trkpt lat="45.38074" lon="6.10919">
        <ele>712.52045</ele>
        <time>2021-07-18T10:39:23</time>
      </trkpt>
      <trkpt lat="45.38074" lon="6.10924">
        <ele>712.52045</ele>
        <time>2021-07-18T10:39:26</time>
      </trkpt>
      <trkpt lat="45.38074" lon="6.10926">
        <ele>712.52045</ele>
        <time>2021-07-18T10:39:27</time>
      </trkpt>
      <trkpt lat="45.38075" lon="6.10927">
        <ele>712.52045</ele>
        <time>2021-07-18T10:39:28</time>
      </trkpt>
      <trkpt lat="45.38075" lon="6.10929">
        <ele>712.52045</ele>
        <time>2021-07-18T10:39:29</time>
      </trkpt>
      <trkpt lat="45.38075" lon="6.10932">
        <ele>717.6204</ele>
        <time>2021-07-18T10:39:31</time>
      </trkpt>
      <trkpt lat="45.38075" lon="6.10934">
        <ele>717.6204</ele>
        <time>2021-07-18T10:39:32</time>
      </trkpt>
      <trkpt lat="45.38074" lon="6.10936">
        <ele>717.6204</ele>
        <time>2021-07-18T10:39:33</time>
      </trkpt>
      <trkpt lat="45.38074" lon="6.10937">
        <ele>717.6204</ele>
        <time>2021-07-18T10:39:34</time>
      </trkpt>
      <trkpt lat="45.38069" lon="6.1094">
        <ele>717.6204</ele>
        <time>2021-07-18T10:39:39</time>
      </trkpt>
      <trkpt lat="45.38069" lon="6.10942">
        <ele>717.6204</ele>
        <time>2021-07-18T10:39:40</time>
      </trkpt>
      <trkpt lat="45.38068" lon="6.10943">
        <ele>717.02045</ele>
        <time>2021-07-18T10:39:41</time>
      </trkpt>
      <trkpt lat="45.38062" lon="6.10956">
        <ele>718.22046</ele>
        <time>2021-07-18T10:39:51</time>
      </trkpt>
      <trkpt lat="45.38057" lon="6.10968">
        <ele>718.22046</ele>
        <time>2021-07-18T10:40:00</time>
      </trkpt>
      <trkpt lat="45.38057" lon="6.10969">
        <ele>719.6204</ele>
        <time>2021-07-18T10:40:01</time>
      </trkpt>
      <trkpt lat="45.38056" lon="6.10971">
        <ele>719.6204</ele>
        <time>2021-07-18T10:40:02</time>
      </trkpt>
      <trkpt lat="45.38056" lon="6.10973">
        <ele>719.6204</ele>
        <time>2021-07-18T10:40:03</time>
      </trkpt>
      <trkpt lat="45.38055" lon="6.10975">
        <ele>719.6204</ele>
        <time>2021-07-18T10:40:04</time>
      </trkpt>
      <trkpt lat="45.38054" lon="6.10975">
        <ele>719.6204</ele>
        <time>2021-07-18T10:40:05</time>
      </trkpt>
      <trkpt lat="45.38054" lon="6.10978">
        <ele>719.6204</ele>
        <time>2021-07-18T10:40:07</time>
      </trkpt>
      <trkpt lat="45.38052" lon="6.10981">
        <ele>719.6204</ele>
        <time>2021-07-18T10:40:09</time>
      </trkpt>
      <trkpt lat="45.38052" lon="6.10983">
        <ele>719.6204</ele>
        <time>2021-07-18T10:40:10</time>
      </trkpt>
      <trkpt lat="45.38052" lon="6.10985">
        <ele>721.02045</ele>
        <time>2021-07-18T10:40:11</time>
      </trkpt>
      <trkpt lat="45.38052" lon="6.10986">
        <ele>721.02045</ele>
        <time>2021-07-18T10:40:12</time>
      </trkpt>
      <trkpt lat="45.38052" lon="6.10991">
        <ele>721.02045</ele>
        <time>2021-07-18T10:40:14</time>
      </trkpt>
      <trkpt lat="45.38051" lon="6.10994">
        <ele>721.02045</ele>
        <time>2021-07-18T10:40:16</time>
      </trkpt>
      <trkpt lat="45.38051" lon="6.10995">
        <ele>721.02045</ele>
        <time>2021-07-18T10:40:17</time>
      </trkpt>
      <trkpt lat="45.3805" lon="6.10997">
        <ele>721.02045</ele>
        <time>2021-07-18T10:40:19</time>
      </trkpt>
      <trkpt lat="45.3805" lon="6.10998">
        <ele>721.02045</ele>
        <time>2021-07-18T10:40:20</time>
      </trkpt>
      <trkpt lat="45.38049" lon="6.10999">
        <ele>716.9204</ele>
        <time>2021-07-18T10:40:21</time>
      </trkpt>
      <trkpt lat="45.38049" lon="6.11001">
        <ele>716.9204</ele>
        <time>2021-07-18T10:40:22</time>
      </trkpt>
      <trkpt lat="45.38049" lon="6.11002">
        <ele>716.9204</ele>
        <time>2021-07-18T10:40:23</time>
      </trkpt>
      <trkpt lat="45.38049" lon="6.11003">
        <ele>716.9204</ele>
        <time>2021-07-18T10:40:24</time>
      </trkpt>
      <trkpt lat="45.38048" lon="6.11004">
        <ele>716.9204</ele>
        <time>2021-07-18T10:40:25</time>
      </trkpt>
      <trkpt lat="45.38048" lon="6.11004">
        <ele>716.9204</ele>
        <time>2021-07-18T10:40:26</time>
      </trkpt>
      <trkpt lat="45.38048" lon="6.11005">
        <ele>716.9204</ele>
        <time>2021-07-18T10:40:27</time>
      </trkpt>
      <trkpt lat="45.38048" lon="6.11006">
        <ele>716.9204</ele>
        <time>2021-07-18T10:40:28</time>
      </trkpt>
      <trkpt lat="45.38048" lon="6.11008">
        <ele>716.9204</ele>
        <time>2021-07-18T10:40:30</time>
      </trkpt>
      <trkpt lat="45.38047" lon="6.1101">
        <ele>719.22046</ele>
        <time>2021-07-18T10:40:32</time>
      </trkpt>
      <trkpt lat="45.38046" lon="6.11011">
        <ele>719.22046</ele>
        <time>2021-07-18T10:40:33</time>
      </trkpt>
      <trkpt lat="45.38042" lon="6.11019">
        <ele>719.22046</ele>
        <time>2021-07-18T10:40:38</time>
      </trkpt>
      <trkpt lat="45.38042" lon="6.11022">
        <ele>719.22046</ele>
        <time>2021-07-18T10:40:40</time>
      </trkpt>
      <trkpt lat="45.38043" lon="6.11026">
        <ele>722.72046</ele>
        <time>2021-07-18T10:40:42</time>
      </trkpt>
      <trkpt lat="45.38043" lon="6.11029">
        <ele>722.72046</ele>
        <time>2021-07-18T10:40:44</time>
      </trkpt>
      <trkpt lat="45.38044" lon="6.11044">
        <ele>722.72046</ele>
        <time>2021-07-18T10:40:57</time>
      </trkpt>
      <trkpt lat="45.38044" lon="6.11044">
        <ele>722.72046</ele>
        <time>2021-07-18T10:40:58</time>
      </trkpt>
      <trkpt lat="45.38044" lon="6.11044">
        <ele>722.72046</ele>
        <time>2021-07-18T10:40:59</time>
      </trkpt>
      <trkpt lat="45.38044" lon="6.11045">
        <ele>722.72046</ele>
        <time>2021-07-18T10:41:00</time>
      </trkpt>
      <trkpt lat="45.38042" lon="6.11045">
        <ele>725.22046</ele>
        <time>2021-07-18T10:41:01</time>
      </trkpt>
      <trkpt lat="45.3804" lon="6.11045">
        <ele>725.22046</ele>
        <time>2021-07-18T10:41:02</time>
      </trkpt>
      <trkpt lat="45.38039" lon="6.11047">
        <ele>725.22046</ele>
        <time>2021-07-18T10:41:03</time>
      </trkpt>
      <trkpt lat="45.38038" lon="6.11049">
        <ele>725.22046</ele>
        <time>2021-07-18T10:41:05</time>
      </trkpt>
      <trkpt lat="45.38037" lon="6.1105">
        <ele>725.22046</ele>
        <time>2021-07-18T10:41:06</time>
      </trkpt>
      <trkpt lat="45.38037" lon="6.11055">
        <ele>725.22046</ele>
        <time>2021-07-18T10:41:09</time>
      </trkpt>
      <trkpt lat="45.38037" lon="6.11057">
        <ele>722.9204</ele>
        <time>2021-07-18T10:41:11</time>
      </trkpt>
      <trkpt lat="45.38036" lon="6.11058">
        <ele>722.9204</ele>
        <time>2021-07-18T10:41:12</time>
      </trkpt>
      <trkpt lat="45.38036" lon="6.11059">
        <ele>722.9204</ele>
        <time>2021-07-18T10:41:20</time>
      </trkpt>
      <trkpt lat="45.38036" lon="6.1106">
        <ele>720.4204</ele>
        <time>2021-07-18T10:41:21</time>
      </trkpt>
      <trkpt lat="45.38036" lon="6.11062">
        <ele>720.4204</ele>
        <time>2021-07-18T10:41:23</time>
      </trkpt>
      <trkpt lat="45.38036" lon="6.11063">
        <ele>720.4204</ele>
        <time>2021-07-18T10:41:25</time>
      </trkpt>
      <trkpt lat="45.38036" lon="6.11064">
        <ele>720.4204</ele>
        <time>2021-07-18T10:41:26</time>
      </trkpt>
      <trkpt lat="45.38035" lon="6.11065">
        <ele>720.4204</ele>
        <time>2021-07-18T10:41:27</time>
      </trkpt>
      <trkpt lat="45.38034" lon="6.11066">
        <ele>720.4204</ele>
        <time>2021-07-18T10:41:28</time>
      </trkpt>
      <trkpt lat="45.38033" lon="6.11067">
        <ele>720.4204</ele>
        <time>2021-07-18T10:41:29</time>
      </trkpt>
      <trkpt lat="45.38032" lon="6.11068">
        <ele>720.4204</ele>
        <time>2021-07-18T10:41:30</time>
      </trkpt>
      <trkpt lat="45.38032" lon="6.11069">
        <ele>726.4204</ele>
        <time>2021-07-18T10:41:31</time>
      </trkpt>
      <trkpt lat="45.3803" lon="6.11072">
        <ele>726.4204</ele>
        <time>2021-07-18T10:41:33</time>
      </trkpt>
      <trkpt lat="45.38028" lon="6.11074">
        <ele>726.4204</ele>
        <time>2021-07-18T10:41:35</time>
      </trkpt>
      <trkpt lat="45.38028" lon="6.11076">
        <ele>726.4204</ele>
        <time>2021-07-18T10:41:37</time>
      </trkpt>
      <trkpt lat="45.38027" lon="6.11078">
        <ele>726.4204</ele>
        <time>2021-07-18T10:41:39</time>
      </trkpt>
      <trkpt lat="45.38027" lon="6.1108">
        <ele>726.4204</ele>
        <time>2021-07-18T10:41:40</time>
      </trkpt>
      <trkpt lat="45.38026" lon="6.11081">
        <ele>724.32043</ele>
        <time>2021-07-18T10:41:41</time>
      </trkpt>
      <trkpt lat="45.38026" lon="6.11086">
        <ele>724.32043</ele>
        <time>2021-07-18T10:41:44</time>
      </trkpt>
      <trkpt lat="45.38024" lon="6.111">
        <ele>723.4204</ele>
        <time>2021-07-18T10:41:53</time>
      </trkpt>
      <trkpt lat="45.38024" lon="6.11101">
        <ele>723.4204</ele>
        <time>2021-07-18T10:41:54</time>
      </trkpt>
      <trkpt lat="45.38022" lon="6.11106">
        <ele>723.4204</ele>
        <time>2021-07-18T10:41:59</time>
      </trkpt>
      <trkpt lat="45.38021" lon="6.1111">
        <ele>727.1204</ele>
        <time>2021-07-18T10:42:02</time>
      </trkpt>
      <trkpt lat="45.38021" lon="6.11111">
        <ele>727.1204</ele>
        <time>2021-07-18T10:42:03</time>
      </trkpt>
      <trkpt lat="45.3802" lon="6.11112">
        <ele>727.1204</ele>
        <time>2021-07-18T10:42:04</time>
      </trkpt>
      <trkpt lat="45.38019" lon="6.11113">
        <ele>727.1204</ele>
        <time>2021-07-18T10:42:05</time>
      </trkpt>
      <trkpt lat="45.38017" lon="6.11115">
        <ele>727.1204</ele>
        <time>2021-07-18T10:42:07</time>
      </trkpt>
      <trkpt lat="45.38017" lon="6.11116">
        <ele>727.1204</ele>
        <time>2021-07-18T10:42:08</time>
      </trkpt>
      <trkpt lat="45.38016" lon="6.11119">
        <ele>727.1204</ele>
        <time>2021-07-18T10:42:10</time>
      </trkpt>
      <trkpt lat="45.38016" lon="6.11121">
        <ele>727.72046</ele>
        <time>2021-07-18T10:42:12</time>
      </trkpt>
      <trkpt lat="45.38014" lon="6.11124">
        <ele>727.72046</ele>
        <time>2021-07-18T10:42:15</time>
      </trkpt>
      <trkpt lat="45.38014" lon="6.11125">
        <ele>727.72046</ele>
        <time>2021-07-18T10:42:16</time>
      </trkpt>
      <trkpt lat="45.38014" lon="6.11128">
        <ele>727.72046</ele>
        <time>2021-07-18T10:42:18</time>
      </trkpt>
      <trkpt lat="45.38014" lon="6.1113">
        <ele>727.72046</ele>
        <time>2021-07-18T10:42:19</time>
      </trkpt>
      <trkpt lat="45.38015" lon="6.11134">
        <ele>728.82043</ele>
        <time>2021-07-18T10:42:21</time>
      </trkpt>
      <trkpt lat="45.38015" lon="6.11135">
        <ele>728.82043</ele>
        <time>2021-07-18T10:42:22</time>
      </trkpt>
      <trkpt lat="45.38013" lon="6.11137">
        <ele>728.82043</ele>
        <time>2021-07-18T10:42:24</time>
      </trkpt>
      <trkpt lat="45.38011" lon="6.11139">
        <ele>728.82043</ele>
        <time>2021-07-18T10:42:26</time>
      </trkpt>
      <trkpt lat="45.38008" lon="6.1115">
        <ele>730.4204</ele>
        <time>2021-07-18T10:42:34</time>
      </trkpt>
      <trkpt lat="45.38008" lon="6.11151">
        <ele>730.4204</ele>
        <time>2021-07-18T10:42:35</time>
      </trkpt>
      <trkpt lat="45.38006" lon="6.11154">
        <ele>730.4204</ele>
        <time>2021-07-18T10:42:38</time>
      </trkpt>
      <trkpt lat="45.38005" lon="6.11156">
        <ele>730.4204</ele>
        <time>2021-07-18T10:42:40</time>
      </trkpt>
      <trkpt lat="45.38004" lon="6.11158">
        <ele>732.9204</ele>
        <time>2021-07-18T10:42:42</time>
      </trkpt>
      <trkpt lat="45.38003" lon="6.11159">
        <ele>732.9204</ele>
        <time>2021-07-18T10:42:43</time>
      </trkpt>
      <trkpt lat="45.38002" lon="6.1116">
        <ele>732.9204</ele>
        <time>2021-07-18T10:42:45</time>
      </trkpt>
      <trkpt lat="45.38" lon="6.11166">
        <ele>732.9204</ele>
        <time>2021-07-18T10:42:49</time>
      </trkpt>
      <trkpt lat="45.38001" lon="6.1117">
        <ele>736.22046</ele>
        <time>2021-07-18T10:42:51</time>
      </trkpt>
      <trkpt lat="45.38001" lon="6.11175">
        <ele>736.22046</ele>
        <time>2021-07-18T10:42:54</time>
      </trkpt>
      <trkpt lat="45.38001" lon="6.1118">
        <ele>736.22046</ele>
        <time>2021-07-18T10:42:57</time>
      </trkpt>
      <trkpt lat="45.38" lon="6.11181">
        <ele>736.22046</ele>
        <time>2021-07-18T10:42:58</time>
      </trkpt>
      <trkpt lat="45.37999" lon="6.11182">
        <ele>736.22046</ele>
        <time>2021-07-18T10:42:59</time>
      </trkpt>
      <trkpt lat="45.37997" lon="6.11183">
        <ele>736.22046</ele>
        <time>2021-07-18T10:43:00</time>
      </trkpt>
      <trkpt lat="45.37994" lon="6.11185">
        <ele>734.32043</ele>
        <time>2021-07-18T10:43:03</time>
      </trkpt>
      <trkpt lat="45.37994" lon="6.11186">
        <ele>734.32043</ele>
        <time>2021-07-18T10:43:04</time>
      </trkpt>
      <trkpt lat="45.37993" lon="6.11187">
        <ele>734.32043</ele>
        <time>2021-07-18T10:43:06</time>
      </trkpt>
      <trkpt lat="45.37992" lon="6.11188">
        <ele>734.32043</ele>
        <time>2021-07-18T10:43:07</time>
      </trkpt>
      <trkpt lat="45.37988" lon="6.11194">
        <ele>733.72046</ele>
        <time>2021-07-18T10:43:12</time>
      </trkpt>
      <trkpt lat="45.37986" lon="6.11203">
        <ele>733.72046</ele>
        <time>2021-07-18T10:43:20</time>
      </trkpt>
      <trkpt lat="45.37986" lon="6.11204">
        <ele>731.1204</ele>
        <time>2021-07-18T10:43:21</time>
      </trkpt>
      <trkpt lat="45.37987" lon="6.11204">
        <ele>731.1204</ele>
        <time>2021-07-18T10:43:22</time>
      </trkpt>
      <trkpt lat="45.37986" lon="6.11205">
        <ele>731.1204</ele>
        <time>2021-07-18T10:43:25</time>
      </trkpt>
      <trkpt lat="45.37986" lon="6.11207">
        <ele>731.1204</ele>
        <time>2021-07-18T10:43:26</time>
      </trkpt>
      <trkpt lat="45.37986" lon="6.11211">
        <ele>731.1204</ele>
        <time>2021-07-18T10:43:28</time>
      </trkpt>
      <trkpt lat="45.37986" lon="6.11211">
        <ele>731.1204</ele>
        <time>2021-07-18T10:43:29</time>
      </trkpt>
      <trkpt lat="45.37985" lon="6.11213">
        <ele>731.1204</ele>
        <time>2021-07-18T10:43:30</time>
      </trkpt>
      <trkpt lat="45.37986" lon="6.11216">
        <ele>739.32043</ele>
        <time>2021-07-18T10:43:32</time>
      </trkpt>
      <trkpt lat="45.37985" lon="6.1122">
        <ele>739.32043</ele>
        <time>2021-07-18T10:43:34</time>
      </trkpt>
      <trkpt lat="45.37987" lon="6.11225">
        <ele>739.32043</ele>
        <time>2021-07-18T10:43:36</time>
      </trkpt>
      <trkpt lat="45.37988" lon="6.11228">
        <ele>739.32043</ele>
        <time>2021-07-18T10:43:37</time>
      </trkpt>
      <trkpt lat="45.37989" lon="6.11232">
        <ele>739.32043</ele>
        <time>2021-07-18T10:43:39</time>
      </trkpt>
      <trkpt lat="45.37989" lon="6.11233">
        <ele>739.32043</ele>
        <time>2021-07-18T10:43:40</time>
      </trkpt>
      <trkpt lat="45.37987" lon="6.11234">
        <ele>742.32043</ele>
        <time>2021-07-18T10:43:41</time>
      </trkpt>
      <trkpt lat="45.37986" lon="6.11235">
        <ele>742.32043</ele>
        <time>2021-07-18T10:43:42</time>
      </trkpt>
      <trkpt lat="45.37981" lon="6.11238">
        <ele>742.32043</ele>
        <time>2021-07-18T10:43:45</time>
      </trkpt>
      <trkpt lat="45.3798" lon="6.11239">
        <ele>742.32043</ele>
        <time>2021-07-18T10:43:46</time>
      </trkpt>
      <trkpt lat="45.3798" lon="6.11241">
        <ele>742.32043</ele>
        <time>2021-07-18T10:43:47</time>
      </trkpt>
      <trkpt lat="45.37979" lon="6.11243">
        <ele>742.32043</ele>
        <time>2021-07-18T10:43:48</time>
      </trkpt>
      <trkpt lat="45.37974" lon="6.11249">
        <ele>739.32043</ele>
        <time>2021-07-18T10:43:54</time>
      </trkpt>
      <trkpt lat="45.37973" lon="6.1125">
        <ele>739.32043</ele>
        <time>2021-07-18T10:43:55</time>
      </trkpt>
      <trkpt lat="45.37973" lon="6.11251">
        <ele>739.32043</ele>
        <time>2021-07-18T10:43:56</time>
      </trkpt>
      <trkpt lat="45.3797" lon="6.11255">
        <ele>739.32043</ele>
        <time>2021-07-18T10:43:59</time>
      </trkpt>
      <trkpt lat="45.3797" lon="6.11257">
        <ele>739.32043</ele>
        <time>2021-07-18T10:44:01</time>
      </trkpt>
      <trkpt lat="45.3797" lon="6.1126">
        <ele>740.4204</ele>
        <time>2021-07-18T10:44:03</time>
      </trkpt>
      <trkpt lat="45.37969" lon="6.11261">
        <ele>740.4204</ele>
        <time>2021-07-18T10:44:04</time>
      </trkpt>
      <trkpt lat="45.37968" lon="6.11264">
        <ele>740.4204</ele>
        <time>2021-07-18T10:44:06</time>
      </trkpt>
      <trkpt lat="45.37968" lon="6.11266">
        <ele>740.4204</ele>
        <time>2021-07-18T10:44:07</time>
      </trkpt>
      <trkpt lat="45.37962" lon="6.11283">
        <ele>743.82043</ele>
        <time>2021-07-18T10:44:21</time>
      </trkpt>
      <trkpt lat="45.37961" lon="6.11288">
        <ele>749.1204</ele>
        <time>2021-07-18T10:44:24</time>
      </trkpt>
      <trkpt lat="45.37961" lon="6.11293">
        <ele>749.1204</ele>
        <time>2021-07-18T10:44:27</time>
      </trkpt>
      <trkpt lat="45.3796" lon="6.11294">
        <ele>749.1204</ele>
        <time>2021-07-18T10:44:28</time>
      </trkpt>
      <trkpt lat="45.3796" lon="6.113">
        <ele>755.52045</ele>
        <time>2021-07-18T10:44:32</time>
      </trkpt>
      <trkpt lat="45.37961" lon="6.11301">
        <ele>755.52045</ele>
        <time>2021-07-18T10:44:33</time>
      </trkpt>
      <trkpt lat="45.37961" lon="6.11305">
        <ele>755.52045</ele>
        <time>2021-07-18T10:44:35</time>
      </trkpt>
      <trkpt lat="45.37961" lon="6.11306">
        <ele>755.52045</ele>
        <time>2021-07-18T10:44:36</time>
      </trkpt>
      <trkpt lat="45.37962" lon="6.11309">
        <ele>755.52045</ele>
        <time>2021-07-18T10:44:38</time>
      </trkpt>
      <trkpt lat="45.37963" lon="6.11311">
        <ele>755.52045</ele>
        <time>2021-07-18T10:44:39</time>
      </trkpt>
      <trkpt lat="45.37963" lon="6.11312">
        <ele>755.52045</ele>
        <time>2021-07-18T10:44:40</time>
      </trkpt>
      <trkpt lat="45.37963" lon="6.11312">
        <ele>755.52045</ele>
        <time>2021-07-18T10:44:41</time>
      </trkpt>
      <trkpt lat="45.37962" lon="6.11313">
        <ele>755.52045</ele>
        <time>2021-07-18T10:44:42</time>
      </trkpt>
      <trkpt lat="45.37962" lon="6.11314">
        <ele>755.52045</ele>
        <time>2021-07-18T10:44:43</time>
      </trkpt>
      <trkpt lat="45.37962" lon="6.11315">
        <ele>755.52045</ele>
        <time>2021-07-18T10:44:44</time>
      </trkpt>
      <trkpt lat="45.37958" lon="6.11328">
        <ele>758.22046</ele>
        <time>2021-07-18T10:44:54</time>
      </trkpt>
      <trkpt lat="45.37957" lon="6.11329">
        <ele>758.22046</ele>
        <time>2021-07-18T10:44:55</time>
      </trkpt>
      <trkpt lat="45.37957" lon="6.1133">
        <ele>758.22046</ele>
        <time>2021-07-18T10:44:56</time>
      </trkpt>
      <trkpt lat="45.37957" lon="6.11331">
        <ele>758.22046</ele>
        <time>2021-07-18T10:44:57</time>
      </trkpt>
      <trkpt lat="45.37956" lon="6.11332">
        <ele>758.22046</ele>
        <time>2021-07-18T10:44:58</time>
      </trkpt>
      <trkpt lat="45.37956" lon="6.11333">
        <ele>758.22046</ele>
        <time>2021-07-18T10:44:59</time>
      </trkpt>
      <trkpt lat="45.37955" lon="6.11335">
        <ele>758.22046</ele>
        <time>2021-07-18T10:45:00</time>
      </trkpt>
      <trkpt lat="45.37955" lon="6.11337">
        <ele>758.22046</ele>
        <time>2021-07-18T10:45:01</time>
      </trkpt>
      <trkpt lat="45.37954" lon="6.11339">
        <ele>758.22046</ele>
        <time>2021-07-18T10:45:02</time>
      </trkpt>
      <trkpt lat="45.37953" lon="6.11343">
        <ele>758.22046</ele>
        <time>2021-07-18T10:45:04</time>
      </trkpt>
      <trkpt lat="45.37952" lon="6.11346">
        <ele>758.22046</ele>
        <time>2021-07-18T10:45:06</time>
      </trkpt>
      <trkpt lat="45.37951" lon="6.11347">
        <ele>758.22046</ele>
        <time>2021-07-18T10:45:07</time>
      </trkpt>
      <trkpt lat="45.37951" lon="6.11349">
        <ele>758.22046</ele>
        <time>2021-07-18T10:45:08</time>
      </trkpt>
      <trkpt lat="45.37951" lon="6.11352">
        <ele>758.22046</ele>
        <time>2021-07-18T10:45:10</time>
      </trkpt>
      <trkpt lat="45.37951" lon="6.11353">
        <ele>758.22046</ele>
        <time>2021-07-18T10:45:11</time>
      </trkpt>
      <trkpt lat="45.37952" lon="6.11356">
        <ele>757.9204</ele>
        <time>2021-07-18T10:45:12</time>
      </trkpt>
      <trkpt lat="45.37954" lon="6.11358">
        <ele>757.9204</ele>
        <time>2021-07-18T10:45:13</time>
      </trkpt>
      <trkpt lat="45.37954" lon="6.11361">
        <ele>757.9204</ele>
        <time>2021-07-18T10:45:15</time>
      </trkpt>
      <trkpt lat="45.37954" lon="6.11363">
        <ele>757.9204</ele>
        <time>2021-07-18T10:45:16</time>
      </trkpt>
      <trkpt lat="45.37953" lon="6.11365">
        <ele>757.9204</ele>
        <time>2021-07-18T10:45:17</time>
      </trkpt>
      <trkpt lat="45.37951" lon="6.11366">
        <ele>757.9204</ele>
        <time>2021-07-18T10:45:18</time>
      </trkpt>
      <trkpt lat="45.37948" lon="6.11371">
        <ele>757.9204</ele>
        <time>2021-07-18T10:45:21</time>
      </trkpt>
      <trkpt lat="45.37948" lon="6.11379">
        <ele>762.6204</ele>
        <time>2021-07-18T10:45:25</time>
      </trkpt>
      <trkpt lat="45.37949" lon="6.1138">
        <ele>762.6204</ele>
        <time>2021-07-18T10:45:26</time>
      </trkpt>
      <trkpt lat="45.37949" lon="6.11381">
        <ele>762.6204</ele>
        <time>2021-07-18T10:45:27</time>
      </trkpt>
      <trkpt lat="45.3795" lon="6.11384">
        <ele>762.6204</ele>
        <time>2021-07-18T10:45:29</time>
      </trkpt>
      <trkpt lat="45.3795" lon="6.11386">
        <ele>762.6204</ele>
        <time>2021-07-18T10:45:30</time>
      </trkpt>
      <trkpt lat="45.37949" lon="6.11387">
        <ele>762.6204</ele>
        <time>2021-07-18T10:45:31</time>
      </trkpt>
      <trkpt lat="45.37949" lon="6.1139">
        <ele>762.6204</ele>
        <time>2021-07-18T10:45:33</time>
      </trkpt>
      <trkpt lat="45.3795" lon="6.1139">
        <ele>762.6204</ele>
        <time>2021-07-18T10:45:34</time>
      </trkpt>
      <trkpt lat="45.3795" lon="6.11391">
        <ele>762.6204</ele>
        <time>2021-07-18T10:45:36</time>
      </trkpt>
      <trkpt lat="45.37949" lon="6.11391">
        <ele>762.6204</ele>
        <time>2021-07-18T10:45:37</time>
      </trkpt>
      <trkpt lat="45.37949" lon="6.11392">
        <ele>762.6204</ele>
        <time>2021-07-18T10:45:38</time>
      </trkpt>
      <trkpt lat="45.37948" lon="6.11393">
        <ele>762.6204</ele>
        <time>2021-07-18T10:45:39</time>
      </trkpt>
      <trkpt lat="45.37946" lon="6.11394">
        <ele>762.6204</ele>
        <time>2021-07-18T10:45:41</time>
      </trkpt>
      <trkpt lat="45.37945" lon="6.11396">
        <ele>762.6204</ele>
        <time>2021-07-18T10:45:42</time>
      </trkpt>
      <trkpt lat="45.37943" lon="6.11401">
        <ele>762.6204</ele>
        <time>2021-07-18T10:45:45</time>
      </trkpt>
      <trkpt lat="45.37943" lon="6.11403">
        <ele>762.6204</ele>
        <time>2021-07-18T10:45:46</time>
      </trkpt>
      <trkpt lat="45.37943" lon="6.11404">
        <ele>762.6204</ele>
        <time>2021-07-18T10:45:47</time>
      </trkpt>
      <trkpt lat="45.37942" lon="6.11405">
        <ele>762.6204</ele>
        <time>2021-07-18T10:45:48</time>
      </trkpt>
      <trkpt lat="45.37939" lon="6.11417">
        <ele>762.6204</ele>
        <time>2021-07-18T10:45:56</time>
      </trkpt>
      <trkpt lat="45.3794" lon="6.11419">
        <ele>762.6204</ele>
        <time>2021-07-18T10:45:57</time>
      </trkpt>
      <trkpt lat="45.3794" lon="6.11421">
        <ele>762.6204</ele>
        <time>2021-07-18T10:45:58</time>
      </trkpt>
      <trkpt lat="45.37939" lon="6.11425">
        <ele>762.6204</ele>
        <time>2021-07-18T10:46:01</time>
      </trkpt>
      <trkpt lat="45.37939" lon="6.11426">
        <ele>762.6204</ele>
        <time>2021-07-18T10:46:02</time>
      </trkpt>
      <trkpt lat="45.3794" lon="6.11428">
        <ele>762.6204</ele>
        <time>2021-07-18T10:46:03</time>
      </trkpt>
      <trkpt lat="45.37941" lon="6.1143">
        <ele>762.6204</ele>
        <time>2021-07-18T10:46:04</time>
      </trkpt>
      <trkpt lat="45.37942" lon="6.11436">
        <ele>762.6204</ele>
        <time>2021-07-18T10:46:07</time>
      </trkpt>
      <trkpt lat="45.37942" lon="6.11438">
        <ele>762.6204</ele>
        <time>2021-07-18T10:46:08</time>
      </trkpt>
      <trkpt lat="45.3794" lon="6.11446">
        <ele>762.9204</ele>
        <time>2021-07-18T10:46:13</time>
      </trkpt>
      <trkpt lat="45.37939" lon="6.11448">
        <ele>762.9204</ele>
        <time>2021-07-18T10:46:14</time>
      </trkpt>
      <trkpt lat="45.37938" lon="6.11449">
        <ele>762.9204</ele>
        <time>2021-07-18T10:46:15</time>
      </trkpt>
      <trkpt lat="45.37937" lon="6.1145">
        <ele>762.9204</ele>
        <time>2021-07-18T10:46:16</time>
      </trkpt>
      <trkpt lat="45.37935" lon="6.11453">
        <ele>762.9204</ele>
        <time>2021-07-18T10:46:18</time>
      </trkpt>
      <trkpt lat="45.37935" lon="6.11454">
        <ele>762.9204</ele>
        <time>2021-07-18T10:46:19</time>
      </trkpt>
      <trkpt lat="45.37935" lon="6.11455">
        <ele>762.9204</ele>
        <time>2021-07-18T10:46:20</time>
      </trkpt>
      <trkpt lat="45.37935" lon="6.11456">
        <ele>762.9204</ele>
        <time>2021-07-18T10:46:21</time>
      </trkpt>
      <trkpt lat="45.37935" lon="6.11457">
        <ele>755.22046</ele>
        <time>2021-07-18T10:46:22</time>
      </trkpt>
      <trkpt lat="45.37932" lon="6.11458">
        <ele>755.22046</ele>
        <time>2021-07-18T10:46:24</time>
      </trkpt>
      <trkpt lat="45.37931" lon="6.11459">
        <ele>755.22046</ele>
        <time>2021-07-18T10:46:25</time>
      </trkpt>
      <trkpt lat="45.3793" lon="6.1146">
        <ele>755.22046</ele>
        <time>2021-07-18T10:46:26</time>
      </trkpt>
      <trkpt lat="45.37928" lon="6.11463">
        <ele>755.22046</ele>
        <time>2021-07-18T10:46:29</time>
      </trkpt>
      <trkpt lat="45.37928" lon="6.11464">
        <ele>755.22046</ele>
        <time>2021-07-18T10:46:30</time>
      </trkpt>
      <trkpt lat="45.37927" lon="6.11465">
        <ele>755.22046</ele>
        <time>2021-07-18T10:46:31</time>
      </trkpt>
      <trkpt lat="45.37927" lon="6.11467">
        <ele>755.22046</ele>
        <time>2021-07-18T10:46:32</time>
      </trkpt>
      <trkpt lat="45.37927" lon="6.11468">
        <ele>755.22046</ele>
        <time>2021-07-18T10:46:33</time>
      </trkpt>
      <trkpt lat="45.37922" lon="6.11482">
        <ele>755.22046</ele>
        <time>2021-07-18T10:46:45</time>
      </trkpt>
      <trkpt lat="45.37922" lon="6.11483">
        <ele>755.22046</ele>
        <time>2021-07-18T10:46:46</time>
      </trkpt>
      <trkpt lat="45.37922" lon="6.11485">
        <ele>755.22046</ele>
        <time>2021-07-18T10:46:47</time>
      </trkpt>
      <trkpt lat="45.3792" lon="6.11491">
        <ele>755.22046</ele>
        <time>2021-07-18T10:46:52</time>
      </trkpt>
      <trkpt lat="45.3792" lon="6.11492">
        <ele>755.22046</ele>
        <time>2021-07-18T10:46:53</time>
      </trkpt>
      <trkpt lat="45.3792" lon="6.11494">
        <ele>755.22046</ele>
        <time>2021-07-18T10:46:54</time>
      </trkpt>
      <trkpt lat="45.3792" lon="6.11497">
        <ele>755.22046</ele>
        <time>2021-07-18T10:46:56</time>
      </trkpt>
      <trkpt lat="45.37916" lon="6.1151">
        <ele>755.22046</ele>
        <time>2021-07-18T10:47:06</time>
      </trkpt>
      <trkpt lat="45.37916" lon="6.11511">
        <ele>755.22046</ele>
        <time>2021-07-18T10:47:07</time>
      </trkpt>
      <trkpt lat="45.37913" lon="6.11515">
        <ele>755.22046</ele>
        <time>2021-07-18T10:47:10</time>
      </trkpt>
      <trkpt lat="45.37913" lon="6.11516">
        <ele>755.22046</ele>
        <time>2021-07-18T10:47:11</time>
      </trkpt>
      <trkpt lat="45.37912" lon="6.11517">
        <ele>755.22046</ele>
        <time>2021-07-18T10:47:12</time>
      </trkpt>
      <trkpt lat="45.37911" lon="6.11518">
        <ele>755.22046</ele>
        <time>2021-07-18T10:47:13</time>
      </trkpt>
      <trkpt lat="45.37911" lon="6.11519">
        <ele>755.22046</ele>
        <time>2021-07-18T10:47:14</time>
      </trkpt>
      <trkpt lat="45.37909" lon="6.11525">
        <ele>755.22046</ele>
        <time>2021-07-18T10:47:18</time>
      </trkpt>
      <trkpt lat="45.37911" lon="6.11534">
        <ele>755.22046</ele>
        <time>2021-07-18T10:47:24</time>
      </trkpt>
      <trkpt lat="45.37911" lon="6.11537">
        <ele>755.22046</ele>
        <time>2021-07-18T10:47:28</time>
      </trkpt>
      <trkpt lat="45.37911" lon="6.11538">
        <ele>755.22046</ele>
        <time>2021-07-18T10:47:31</time>
      </trkpt>
      <trkpt lat="45.37912" lon="6.11543">
        <ele>755.22046</ele>
        <time>2021-07-18T10:47:35</time>
      </trkpt>
      <trkpt lat="45.37912" lon="6.11545">
        <ele>755.22046</ele>
        <time>2021-07-18T10:47:36</time>
      </trkpt>
      <trkpt lat="45.37912" lon="6.11546">
        <ele>755.22046</ele>
        <time>2021-07-18T10:47:37</time>
      </trkpt>
      <trkpt lat="45.37912" lon="6.11548">
        <ele>755.22046</ele>
        <time>2021-07-18T10:47:39</time>
      </trkpt>
      <trkpt lat="45.37912" lon="6.11554">
        <ele>755.22046</ele>
        <time>2021-07-18T10:47:45</time>
      </trkpt>
      <trkpt lat="45.37911" lon="6.11556">
        <ele>755.22046</ele>
        <time>2021-07-18T10:47:46</time>
      </trkpt>
      <trkpt lat="45.37911" lon="6.11558">
        <ele>755.22046</ele>
        <time>2021-07-18T10:47:48</time>
      </trkpt>
      <trkpt lat="45.37911" lon="6.11561">
        <ele>755.22046</ele>
        <time>2021-07-18T10:47:50</time>
      </trkpt>
      <trkpt lat="45.37911" lon="6.11562">
        <ele>755.22046</ele>
        <time>2021-07-18T10:47:51</time>
      </trkpt>
      <trkpt lat="45.37911" lon="6.11563">
        <ele>755.22046</ele>
        <time>2021-07-18T10:47:52</time>
      </trkpt>
      <trkpt lat="45.37912" lon="6.11565">
        <ele>755.22046</ele>
        <time>2021-07-18T10:47:53</time>
      </trkpt>
      <trkpt lat="45.3791" lon="6.11569">
        <ele>755.22046</ele>
        <time>2021-07-18T10:47:56</time>
      </trkpt>
      <trkpt lat="45.3791" lon="6.11572">
        <ele>755.22046</ele>
        <time>2021-07-18T10:47:58</time>
      </trkpt>
      <trkpt lat="45.37909" lon="6.11574">
        <ele>755.22046</ele>
        <time>2021-07-18T10:48:00</time>
      </trkpt>
      <trkpt lat="45.37909" lon="6.11575">
        <ele>755.22046</ele>
        <time>2021-07-18T10:48:01</time>
      </trkpt>
      <trkpt lat="45.37908" lon="6.11579">
        <ele>755.22046</ele>
        <time>2021-07-18T10:48:04</time>
      </trkpt>
      <trkpt lat="45.37906" lon="6.11581">
        <ele>755.22046</ele>
        <time>2021-07-18T10:48:06</time>
      </trkpt>
      <trkpt lat="45.37905" lon="6.11582">
        <ele>755.22046</ele>
        <time>2021-07-18T10:48:08</time>
      </trkpt>
      <trkpt lat="45.37898" lon="6.11593">
        <ele>755.22046</ele>
        <time>2021-07-18T10:48:20</time>
      </trkpt>
      <trkpt lat="45.37897" lon="6.11595">
        <ele>755.22046</ele>
        <time>2021-07-18T10:48:21</time>
      </trkpt>
      <trkpt lat="45.37897" lon="6.11596">
        <ele>755.22046</ele>
        <time>2021-07-18T10:48:22</time>
      </trkpt>
      <trkpt lat="45.37896" lon="6.11598">
        <ele>755.22046</ele>
        <time>2021-07-18T10:48:24</time>
      </trkpt>
      <trkpt lat="45.37896" lon="6.11602">
        <ele>755.22046</ele>
        <time>2021-07-18T10:48:26</time>
      </trkpt>
      <trkpt lat="45.37895" lon="6.11605">
        <ele>755.22046</ele>
        <time>2021-07-18T10:48:28</time>
      </trkpt>
      <trkpt lat="45.37894" lon="6.11606">
        <ele>755.22046</ele>
        <time>2021-07-18T10:48:29</time>
      </trkpt>
      <trkpt lat="45.37895" lon="6.11611">
        <ele>755.22046</ele>
        <time>2021-07-18T10:48:33</time>
      </trkpt>
      <trkpt lat="45.37895" lon="6.11612">
        <ele>755.22046</ele>
        <time>2021-07-18T10:48:34</time>
      </trkpt>
      <trkpt lat="45.37893" lon="6.11616">
        <ele>755.22046</ele>
        <time>2021-07-18T10:48:37</time>
      </trkpt>
      <trkpt lat="45.37893" lon="6.11618">
        <ele>755.22046</ele>
        <time>2021-07-18T10:48:38</time>
      </trkpt>
      <trkpt lat="45.37892" lon="6.11622">
        <ele>755.22046</ele>
        <time>2021-07-18T10:48:41</time>
      </trkpt>
      <trkpt lat="45.37892" lon="6.11623">
        <ele>755.22046</ele>
        <time>2021-07-18T10:48:43</time>
      </trkpt>
      <trkpt lat="45.37889" lon="6.11634">
        <ele>755.22046</ele>
        <time>2021-07-18T10:48:52</time>
      </trkpt>
      <trkpt lat="45.37884" lon="6.11658">
        <ele>755.22046</ele>
        <time>2021-07-18T10:49:08</time>
      </trkpt>
      <trkpt lat="45.37883" lon="6.11659">
        <ele>755.22046</ele>
        <time>2021-07-18T10:49:09</time>
      </trkpt>
      <trkpt lat="45.37882" lon="6.1166">
        <ele>755.22046</ele>
        <time>2021-07-18T10:49:10</time>
      </trkpt>
      <trkpt lat="45.37882" lon="6.11661">
        <ele>755.22046</ele>
        <time>2021-07-18T10:49:11</time>
      </trkpt>
      <trkpt lat="45.37881" lon="6.11663">
        <ele>755.22046</ele>
        <time>2021-07-18T10:49:12</time>
      </trkpt>
      <trkpt lat="45.3788" lon="6.11665">
        <ele>755.22046</ele>
        <time>2021-07-18T10:49:14</time>
      </trkpt>
      <trkpt lat="45.3788" lon="6.11666">
        <ele>755.22046</ele>
        <time>2021-07-18T10:49:15</time>
      </trkpt>
      <trkpt lat="45.37879" lon="6.11669">
        <ele>755.22046</ele>
        <time>2021-07-18T10:49:17</time>
      </trkpt>
      <trkpt lat="45.37878" lon="6.11672">
        <ele>755.22046</ele>
        <time>2021-07-18T10:49:20</time>
      </trkpt>
      <trkpt lat="45.37878" lon="6.11673">
        <ele>755.22046</ele>
        <time>2021-07-18T10:49:21</time>
      </trkpt>
      <trkpt lat="45.37877" lon="6.11674">
        <ele>755.22046</ele>
        <time>2021-07-18T10:49:22</time>
      </trkpt>
      <trkpt lat="45.37877" lon="6.11676">
        <ele>755.22046</ele>
        <time>2021-07-18T10:49:23</time>
      </trkpt>
      <trkpt lat="45.37876" lon="6.11679">
        <ele>755.22046</ele>
        <time>2021-07-18T10:49:26</time>
      </trkpt>
      <trkpt lat="45.37876" lon="6.1168">
        <ele>755.22046</ele>
        <time>2021-07-18T10:49:27</time>
      </trkpt>
      <trkpt lat="45.37875" lon="6.11682">
        <ele>755.22046</ele>
        <time>2021-07-18T10:49:28</time>
      </trkpt>
      <trkpt lat="45.37873" lon="6.11684">
        <ele>755.22046</ele>
        <time>2021-07-18T10:49:30</time>
      </trkpt>
      <trkpt lat="45.3787" lon="6.11688">
        <ele>755.22046</ele>
        <time>2021-07-18T10:49:35</time>
      </trkpt>
      <trkpt lat="45.37869" lon="6.11688">
        <ele>755.22046</ele>
        <time>2021-07-18T10:49:36</time>
      </trkpt>
      <trkpt lat="45.37867" lon="6.11691">
        <ele>755.22046</ele>
        <time>2021-07-18T10:49:41</time>
      </trkpt>
      <trkpt lat="45.37866" lon="6.11692">
        <ele>755.22046</ele>
        <time>2021-07-18T10:49:43</time>
      </trkpt>
      <trkpt lat="45.37864" lon="6.11696">
        <ele>755.22046</ele>
        <time>2021-07-18T10:49:46</time>
      </trkpt>
      <trkpt lat="45.37863" lon="6.11698">
        <ele>755.22046</ele>
        <time>2021-07-18T10:49:48</time>
      </trkpt>
      <trkpt lat="45.37863" lon="6.11699">
        <ele>755.22046</ele>
        <time>2021-07-18T10:49:49</time>
      </trkpt>
      <trkpt lat="45.37862" lon="6.11699">
        <ele>755.22046</ele>
        <time>2021-07-18T10:49:50</time>
      </trkpt>
      <trkpt lat="45.37861" lon="6.117">
        <ele>755.22046</ele>
        <time>2021-07-18T10:49:51</time>
      </trkpt>
      <trkpt lat="45.37854" lon="6.1171">
        <ele>755.22046</ele>
        <time>2021-07-18T10:50:02</time>
      </trkpt>
      <trkpt lat="45.37853" lon="6.11711">
        <ele>755.22046</ele>
        <time>2021-07-18T10:50:03</time>
      </trkpt>
      <trkpt lat="45.37852" lon="6.11712">
        <ele>755.22046</ele>
        <time>2021-07-18T10:50:04</time>
      </trkpt>
      <trkpt lat="45.37852" lon="6.11714">
        <ele>755.22046</ele>
        <time>2021-07-18T10:50:05</time>
      </trkpt>
      <trkpt lat="45.3785" lon="6.11716">
        <ele>755.22046</ele>
        <time>2021-07-18T10:50:07</time>
      </trkpt>
      <trkpt lat="45.37847" lon="6.11719">
        <ele>755.22046</ele>
        <time>2021-07-18T10:50:11</time>
      </trkpt>
      <trkpt lat="45.37846" lon="6.11722">
        <ele>755.22046</ele>
        <time>2021-07-18T10:50:13</time>
      </trkpt>
      <trkpt lat="45.37845" lon="6.11726">
        <ele>755.22046</ele>
        <time>2021-07-18T10:50:16</time>
      </trkpt>
      <trkpt lat="45.37845" lon="6.11727">
        <ele>755.22046</ele>
        <time>2021-07-18T10:50:17</time>
      </trkpt>
      <trkpt lat="45.37843" lon="6.1173">
        <ele>755.22046</ele>
        <time>2021-07-18T10:50:20</time>
      </trkpt>
      <trkpt lat="45.37842" lon="6.11732">
        <ele>755.22046</ele>
        <time>2021-07-18T10:50:22</time>
      </trkpt>
      <trkpt lat="45.3784" lon="6.11734">
        <ele>755.22046</ele>
        <time>2021-07-18T10:50:24</time>
      </trkpt>
      <trkpt lat="45.37838" lon="6.11735">
        <ele>755.22046</ele>
        <time>2021-07-18T10:50:26</time>
      </trkpt>
      <trkpt lat="45.37838" lon="6.11736">
        <ele>755.22046</ele>
        <time>2021-07-18T10:50:27</time>
      </trkpt>
      <trkpt lat="45.37837" lon="6.11736">
        <ele>755.22046</ele>
        <time>2021-07-18T10:50:28</time>
      </trkpt>
      <trkpt lat="45.37835" lon="6.11739">
        <ele>755.22046</ele>
        <time>2021-07-18T10:50:30</time>
      </trkpt>
      <trkpt lat="45.37834" lon="6.1174">
        <ele>755.22046</ele>
        <time>2021-07-18T10:50:31</time>
      </trkpt>
      <trkpt lat="45.37833" lon="6.11743">
        <ele>755.22046</ele>
        <time>2021-07-18T10:50:33</time>
      </trkpt>
      <trkpt lat="45.37833" lon="6.11744">
        <ele>755.22046</ele>
        <time>2021-07-18T10:50:34</time>
      </trkpt>
      <trkpt lat="45.37831" lon="6.11746">
        <ele>755.22046</ele>
        <time>2021-07-18T10:50:36</time>
      </trkpt>
      <trkpt lat="45.37831" lon="6.11747">
        <ele>755.22046</ele>
        <time>2021-07-18T10:50:37</time>
      </trkpt>
      <trkpt lat="45.37828" lon="6.11751">
        <ele>755.22046</ele>
        <time>2021-07-18T10:50:42</time>
      </trkpt>
      <trkpt lat="45.37827" lon="6.11752">
        <ele>755.22046</ele>
        <time>2021-07-18T10:50:44</time>
      </trkpt>
      <trkpt lat="45.37825" lon="6.11757">
        <ele>755.22046</ele>
        <time>2021-07-18T10:50:49</time>
      </trkpt>
      <trkpt lat="45.37824" lon="6.11758">
        <ele>755.22046</ele>
        <time>2021-07-18T10:50:50</time>
      </trkpt>
      <trkpt lat="45.37824" lon="6.11759">
        <ele>755.22046</ele>
        <time>2021-07-18T10:50:51</time>
      </trkpt>
      <trkpt lat="45.37823" lon="6.11762">
        <ele>755.22046</ele>
        <time>2021-07-18T10:50:53</time>
      </trkpt>
      <trkpt lat="45.37822" lon="6.11764">
        <ele>755.22046</ele>
        <time>2021-07-18T10:50:55</time>
      </trkpt>
      <trkpt lat="45.37822" lon="6.11765">
        <ele>755.22046</ele>
        <time>2021-07-18T10:50:56</time>
      </trkpt>
      <trkpt lat="45.37823" lon="6.11766">
        <ele>755.22046</ele>
        <time>2021-07-18T10:50:57</time>
      </trkpt>
      <trkpt lat="45.37825" lon="6.11774">
        <ele>755.22046</ele>
        <time>2021-07-18T10:51:03</time>
      </trkpt>
      <trkpt lat="45.37825" lon="6.11777">
        <ele>755.22046</ele>
        <time>2021-07-18T10:51:05</time>
      </trkpt>
      <trkpt lat="45.37826" lon="6.11779">
        <ele>755.22046</ele>
        <time>2021-07-18T10:51:06</time>
      </trkpt>
      <trkpt lat="45.37823" lon="6.11788">
        <ele>755.22046</ele>
        <time>2021-07-18T10:51:14</time>
      </trkpt>
      <trkpt lat="45.37823" lon="6.11795">
        <ele>755.22046</ele>
        <time>2021-07-18T10:51:21</time>
      </trkpt>
      <trkpt lat="45.37819" lon="6.11799">
        <ele>755.22046</ele>
        <time>2021-07-18T10:51:25</time>
      </trkpt>
      <trkpt lat="45.37815" lon="6.11806">
        <ele>755.22046</ele>
        <time>2021-07-18T10:51:32</time>
      </trkpt>
      <trkpt lat="45.37813" lon="6.11815">
        <ele>755.22046</ele>
        <time>2021-07-18T10:51:45</time>
      </trkpt>
      <trkpt lat="45.37813" lon="6.11816">
        <ele>755.22046</ele>
        <time>2021-07-18T10:51:46</time>
      </trkpt>
      <trkpt lat="45.37811" lon="6.11817">
        <ele>755.22046</ele>
        <time>2021-07-18T10:51:48</time>
      </trkpt>
      <trkpt lat="45.37809" lon="6.1182">
        <ele>755.22046</ele>
        <time>2021-07-18T10:51:51</time>
      </trkpt>
      <trkpt lat="45.37809" lon="6.11823">
        <ele>755.22046</ele>
        <time>2021-07-18T10:51:54</time>
      </trkpt>
      <trkpt lat="45.37809" lon="6.11824">
        <ele>755.22046</ele>
        <time>2021-07-18T10:51:55</time>
      </trkpt>
      <trkpt lat="45.37809" lon="6.11825">
        <ele>755.22046</ele>
        <time>2021-07-18T10:51:56</time>
      </trkpt>
      <trkpt lat="45.37808" lon="6.11826">
        <ele>755.22046</ele>
        <time>2021-07-18T10:51:57</time>
      </trkpt>
      <trkpt lat="45.37807" lon="6.11827">
        <ele>755.22046</ele>
        <time>2021-07-18T10:51:58</time>
      </trkpt>
      <trkpt lat="45.37807" lon="6.11829">
        <ele>755.22046</ele>
        <time>2021-07-18T10:51:59</time>
      </trkpt>
      <trkpt lat="45.37806" lon="6.1183">
        <ele>755.22046</ele>
        <time>2021-07-18T10:52:00</time>
      </trkpt>
      <trkpt lat="45.37804" lon="6.11834">
        <ele>755.22046</ele>
        <time>2021-07-18T10:52:03</time>
      </trkpt>
      <trkpt lat="45.37803" lon="6.11835">
        <ele>755.22046</ele>
        <time>2021-07-18T10:52:04</time>
      </trkpt>
      <trkpt lat="45.37804" lon="6.11838">
        <ele>755.22046</ele>
        <time>2021-07-18T10:52:05</time>
      </trkpt>
      <trkpt lat="45.37805" lon="6.1184">
        <ele>755.22046</ele>
        <time>2021-07-18T10:52:06</time>
      </trkpt>
      <trkpt lat="45.37805" lon="6.11843">
        <ele>755.22046</ele>
        <time>2021-07-18T10:52:08</time>
      </trkpt>
      <trkpt lat="45.37797" lon="6.11848">
        <ele>755.22046</ele>
        <time>2021-07-18T10:52:18</time>
      </trkpt>
      <trkpt lat="45.37797" lon="6.11849">
        <ele>755.22046</ele>
        <time>2021-07-18T10:52:19</time>
      </trkpt>
      <trkpt lat="45.37795" lon="6.11853">
        <ele>755.22046</ele>
        <time>2021-07-18T10:52:23</time>
      </trkpt>
      <trkpt lat="45.37794" lon="6.11856">
        <ele>755.22046</ele>
        <time>2021-07-18T10:52:25</time>
      </trkpt>
      <trkpt lat="45.37794" lon="6.11857">
        <ele>755.22046</ele>
        <time>2021-07-18T10:52:26</time>
      </trkpt>
      <trkpt lat="45.37792" lon="6.11858">
        <ele>755.22046</ele>
        <time>2021-07-18T10:52:28</time>
      </trkpt>
      <trkpt lat="45.3779" lon="6.11859">
        <ele>755.22046</ele>
        <time>2021-07-18T10:52:30</time>
      </trkpt>
      <trkpt lat="45.37789" lon="6.1186">
        <ele>755.22046</ele>
        <time>2021-07-18T10:52:31</time>
      </trkpt>
      <trkpt lat="45.37789" lon="6.11861">
        <ele>755.22046</ele>
        <time>2021-07-18T10:52:32</time>
      </trkpt>
      <trkpt lat="45.37789" lon="6.11863">
        <ele>755.22046</ele>
        <time>2021-07-18T10:52:33</time>
      </trkpt>
      <trkpt lat="45.37789" lon="6.11865">
        <ele>755.22046</ele>
        <time>2021-07-18T10:52:34</time>
      </trkpt>
      <trkpt lat="45.37789" lon="6.11866">
        <ele>755.22046</ele>
        <time>2021-07-18T10:52:35</time>
      </trkpt>
      <trkpt lat="45.3779" lon="6.11867">
        <ele>755.22046</ele>
        <time>2021-07-18T10:52:36</time>
      </trkpt>
      <trkpt lat="45.3779" lon="6.11868">
        <ele>755.22046</ele>
        <time>2021-07-18T10:52:37</time>
      </trkpt>
      <trkpt lat="45.3779" lon="6.11869">
        <ele>755.22046</ele>
        <time>2021-07-18T10:52:38</time>
      </trkpt>
      <trkpt lat="45.37789" lon="6.11871">
        <ele>755.22046</ele>
        <time>2021-07-18T10:52:39</time>
      </trkpt>
      <trkpt lat="45.37789" lon="6.11872">
        <ele>755.22046</ele>
        <time>2021-07-18T10:52:40</time>
      </trkpt>
      <trkpt lat="45.37788" lon="6.11875">
        <ele>755.22046</ele>
        <time>2021-07-18T10:52:42</time>
      </trkpt>
      <trkpt lat="45.37787" lon="6.11876">
        <ele>755.22046</ele>
        <time>2021-07-18T10:52:43</time>
      </trkpt>
      <trkpt lat="45.37787" lon="6.11877">
        <ele>755.22046</ele>
        <time>2021-07-18T10:52:44</time>
      </trkpt>
      <trkpt lat="45.37786" lon="6.11878">
        <ele>755.22046</ele>
        <time>2021-07-18T10:52:45</time>
      </trkpt>
      <trkpt lat="45.37786" lon="6.11879">
        <ele>755.22046</ele>
        <time>2021-07-18T10:52:46</time>
      </trkpt>
      <trkpt lat="45.37786" lon="6.1188">
        <ele>755.22046</ele>
        <time>2021-07-18T10:52:47</time>
      </trkpt>
      <trkpt lat="45.37786" lon="6.11881">
        <ele>755.22046</ele>
        <time>2021-07-18T10:52:48</time>
      </trkpt>
      <trkpt lat="45.37787" lon="6.11882">
        <ele>755.22046</ele>
        <time>2021-07-18T10:52:49</time>
      </trkpt>
      <trkpt lat="45.37787" lon="6.11884">
        <ele>755.22046</ele>
        <time>2021-07-18T10:52:50</time>
      </trkpt>
      <trkpt lat="45.37787" lon="6.11886">
        <ele>755.22046</ele>
        <time>2021-07-18T10:52:51</time>
      </trkpt>
      <trkpt lat="45.37787" lon="6.11887">
        <ele>755.22046</ele>
        <time>2021-07-18T10:52:52</time>
      </trkpt>
      <trkpt lat="45.37786" lon="6.11888">
        <ele>755.22046</ele>
        <time>2021-07-18T10:52:53</time>
      </trkpt>
      <trkpt lat="45.37779" lon="6.11903">
        <ele>755.22046</ele>
        <time>2021-07-18T10:53:04</time>
      </trkpt>
      <trkpt lat="45.37779" lon="6.11904">
        <ele>755.22046</ele>
        <time>2021-07-18T10:53:05</time>
      </trkpt>
      <trkpt lat="45.37776" lon="6.11907">
        <ele>755.22046</ele>
        <time>2021-07-18T10:53:09</time>
      </trkpt>
      <trkpt lat="45.37775" lon="6.11908">
        <ele>755.22046</ele>
        <time>2021-07-18T10:53:10</time>
      </trkpt>
      <trkpt lat="45.37775" lon="6.11909">
        <ele>755.22046</ele>
        <time>2021-07-18T10:53:11</time>
      </trkpt>
      <trkpt lat="45.37775" lon="6.11911">
        <ele>755.22046</ele>
        <time>2021-07-18T10:53:12</time>
      </trkpt>
      <trkpt lat="45.37774" lon="6.11912">
        <ele>755.22046</ele>
        <time>2021-07-18T10:53:13</time>
      </trkpt>
      <trkpt lat="45.37774" lon="6.11913">
        <ele>755.22046</ele>
        <time>2021-07-18T10:53:14</time>
      </trkpt>
      <trkpt lat="45.37774" lon="6.11915">
        <ele>755.22046</ele>
        <time>2021-07-18T10:53:16</time>
      </trkpt>
      <trkpt lat="45.37771" lon="6.11918">
        <ele>755.22046</ele>
        <time>2021-07-18T10:53:22</time>
      </trkpt>
      <trkpt lat="45.3777" lon="6.11919">
        <ele>755.22046</ele>
        <time>2021-07-18T10:53:23</time>
      </trkpt>
      <trkpt lat="45.3777" lon="6.1192">
        <ele>755.22046</ele>
        <time>2021-07-18T10:53:24</time>
      </trkpt>
      <trkpt lat="45.3777" lon="6.11921">
        <ele>755.22046</ele>
        <time>2021-07-18T10:53:25</time>
      </trkpt>
      <trkpt lat="45.3777" lon="6.11922">
        <ele>755.22046</ele>
        <time>2021-07-18T10:53:26</time>
      </trkpt>
      <trkpt lat="45.37769" lon="6.11924">
        <ele>755.22046</ele>
        <time>2021-07-18T10:53:28</time>
      </trkpt>
      <trkpt lat="45.37768" lon="6.11925">
        <ele>755.22046</ele>
        <time>2021-07-18T10:53:29</time>
      </trkpt>
      <trkpt lat="45.37768" lon="6.11928">
        <ele>755.22046</ele>
        <time>2021-07-18T10:53:31</time>
      </trkpt>
      <trkpt lat="45.37767" lon="6.11929">
        <ele>755.22046</ele>
        <time>2021-07-18T10:53:32</time>
      </trkpt>
      <trkpt lat="45.37768" lon="6.1193">
        <ele>755.22046</ele>
        <time>2021-07-18T10:53:33</time>
      </trkpt>
      <trkpt lat="45.37769" lon="6.11934">
        <ele>755.22046</ele>
        <time>2021-07-18T10:53:36</time>
      </trkpt>
      <trkpt lat="45.37768" lon="6.11935">
        <ele>755.22046</ele>
        <time>2021-07-18T10:53:37</time>
      </trkpt>
      <trkpt lat="45.37768" lon="6.11938">
        <ele>755.22046</ele>
        <time>2021-07-18T10:53:39</time>
      </trkpt>
      <trkpt lat="45.37767" lon="6.1194">
        <ele>755.22046</ele>
        <time>2021-07-18T10:53:41</time>
      </trkpt>
      <trkpt lat="45.37766" lon="6.11945">
        <ele>755.22046</ele>
        <time>2021-07-18T10:53:45</time>
      </trkpt>
      <trkpt lat="45.37765" lon="6.11946">
        <ele>755.22046</ele>
        <time>2021-07-18T10:53:47</time>
      </trkpt>
      <trkpt lat="45.37764" lon="6.11948">
        <ele>755.22046</ele>
        <time>2021-07-18T10:53:48</time>
      </trkpt>
      <trkpt lat="45.37762" lon="6.11951">
        <ele>755.22046</ele>
        <time>2021-07-18T10:53:51</time>
      </trkpt>
      <trkpt lat="45.37762" lon="6.11951">
        <ele>755.22046</ele>
        <time>2021-07-18T10:53:52</time>
      </trkpt>
      <trkpt lat="45.37761" lon="6.11955">
        <ele>755.22046</ele>
        <time>2021-07-18T10:53:55</time>
      </trkpt>
      <trkpt lat="45.37761" lon="6.11956">
        <ele>755.22046</ele>
        <time>2021-07-18T10:53:56</time>
      </trkpt>
      <trkpt lat="45.37762" lon="6.11957">
        <ele>755.22046</ele>
        <time>2021-07-18T10:53:57</time>
      </trkpt>
      <trkpt lat="45.37763" lon="6.11958">
        <ele>755.22046</ele>
        <time>2021-07-18T10:53:58</time>
      </trkpt>
      <trkpt lat="45.37765" lon="6.11961">
        <ele>755.22046</ele>
        <time>2021-07-18T10:54:00</time>
      </trkpt>
      <trkpt lat="45.37764" lon="6.11962">
        <ele>755.22046</ele>
        <time>2021-07-18T10:54:01</time>
      </trkpt>
      <trkpt lat="45.37763" lon="6.11964">
        <ele>755.22046</ele>
        <time>2021-07-18T10:54:02</time>
      </trkpt>
      <trkpt lat="45.37763" lon="6.11964">
        <ele>755.22046</ele>
        <time>2021-07-18T10:54:03</time>
      </trkpt>
      <trkpt lat="45.37763" lon="6.11965">
        <ele>755.22046</ele>
        <time>2021-07-18T10:54:04</time>
      </trkpt>
      <trkpt lat="45.37763" lon="6.11966">
        <ele>755.22046</ele>
        <time>2021-07-18T10:54:05</time>
      </trkpt>
      <trkpt lat="45.37763" lon="6.11968">
        <ele>755.22046</ele>
        <time>2021-07-18T10:54:06</time>
      </trkpt>
      <trkpt lat="45.37763" lon="6.11973">
        <ele>755.22046</ele>
        <time>2021-07-18T10:54:09</time>
      </trkpt>
      <trkpt lat="45.37763" lon="6.11977">
        <ele>755.22046</ele>
        <time>2021-07-18T10:54:12</time>
      </trkpt>
      <trkpt lat="45.37762" lon="6.11978">
        <ele>755.22046</ele>
        <time>2021-07-18T10:54:13</time>
      </trkpt>
      <trkpt lat="45.37761" lon="6.11979">
        <ele>755.22046</ele>
        <time>2021-07-18T10:54:14</time>
      </trkpt>
      <trkpt lat="45.37759" lon="6.1198">
        <ele>755.22046</ele>
        <time>2021-07-18T10:54:15</time>
      </trkpt>
      <trkpt lat="45.37758" lon="6.11981">
        <ele>755.22046</ele>
        <time>2021-07-18T10:54:16</time>
      </trkpt>
      <trkpt lat="45.37757" lon="6.11981">
        <ele>755.22046</ele>
        <time>2021-07-18T10:54:17</time>
      </trkpt>
      <trkpt lat="45.37757" lon="6.11982">
        <ele>755.22046</ele>
        <time>2021-07-18T10:54:18</time>
      </trkpt>
      <trkpt lat="45.37756" lon="6.1199">
        <ele>755.22046</ele>
        <time>2021-07-18T10:54:25</time>
      </trkpt>
      <trkpt lat="45.37753" lon="6.11999">
        <ele>755.22046</ele>
        <time>2021-07-18T10:54:32</time>
      </trkpt>
      <trkpt lat="45.37753" lon="6.12">
        <ele>755.22046</ele>
        <time>2021-07-18T10:54:33</time>
      </trkpt>
      <trkpt lat="45.37757" lon="6.12007">
        <ele>755.22046</ele>
        <time>2021-07-18T10:54:37</time>
      </trkpt>
      <trkpt lat="45.37758" lon="6.12009">
        <ele>755.22046</ele>
        <time>2021-07-18T10:54:38</time>
      </trkpt>
      <trkpt lat="45.37758" lon="6.12011">
        <ele>755.22046</ele>
        <time>2021-07-18T10:54:40</time>
      </trkpt>
      <trkpt lat="45.37758" lon="6.12012">
        <ele>755.22046</ele>
        <time>2021-07-18T10:54:41</time>
      </trkpt>
      <trkpt lat="45.37759" lon="6.12013">
        <ele>755.22046</ele>
        <time>2021-07-18T10:54:42</time>
      </trkpt>
      <trkpt lat="45.37759" lon="6.12014">
        <ele>755.22046</ele>
        <time>2021-07-18T10:54:43</time>
      </trkpt>
      <trkpt lat="45.37759" lon="6.12015">
        <ele>755.22046</ele>
        <time>2021-07-18T10:54:44</time>
      </trkpt>
      <trkpt lat="45.37759" lon="6.12016">
        <ele>755.22046</ele>
        <time>2021-07-18T10:54:46</time>
      </trkpt>
      <trkpt lat="45.37759" lon="6.12017">
        <ele>755.22046</ele>
        <time>2021-07-18T10:54:47</time>
      </trkpt>
      <trkpt lat="45.37758" lon="6.12018">
        <ele>755.22046</ele>
        <time>2021-07-18T10:54:51</time>
      </trkpt>
      <trkpt lat="45.37758" lon="6.1202">
        <ele>755.22046</ele>
        <time>2021-07-18T10:54:52</time>
      </trkpt>
      <trkpt lat="45.37758" lon="6.12021">
        <ele>755.22046</ele>
        <time>2021-07-18T10:54:53</time>
      </trkpt>
      <trkpt lat="45.37758" lon="6.12022">
        <ele>755.22046</ele>
        <time>2021-07-18T10:54:54</time>
      </trkpt>
      <trkpt lat="45.37758" lon="6.12023">
        <ele>755.22046</ele>
        <time>2021-07-18T10:54:55</time>
      </trkpt>
      <trkpt lat="45.37758" lon="6.12023">
        <ele>755.22046</ele>
        <time>2021-07-18T10:54:56</time>
      </trkpt>
      <trkpt lat="45.37758" lon="6.12023">
        <ele>755.22046</ele>
        <time>2021-07-18T10:54:57</time>
      </trkpt>
      <trkpt lat="45.37758" lon="6.12025">
        <ele>755.22046</ele>
        <time>2021-07-18T10:55:00</time>
      </trkpt>
      <trkpt lat="45.37758" lon="6.12026">
        <ele>755.22046</ele>
        <time>2021-07-18T10:55:01</time>
      </trkpt>
      <trkpt lat="45.37758" lon="6.12028">
        <ele>755.22046</ele>
        <time>2021-07-18T10:55:02</time>
      </trkpt>
      <trkpt lat="45.37757" lon="6.12029">
        <ele>755.22046</ele>
        <time>2021-07-18T10:55:03</time>
      </trkpt>
      <trkpt lat="45.37755" lon="6.12033">
        <ele>755.22046</ele>
        <time>2021-07-18T10:55:05</time>
      </trkpt>
      <trkpt lat="45.37755" lon="6.12034">
        <ele>755.22046</ele>
        <time>2021-07-18T10:55:06</time>
      </trkpt>
      <trkpt lat="45.37754" lon="6.12037">
        <ele>755.22046</ele>
        <time>2021-07-18T10:55:07</time>
      </trkpt>
      <trkpt lat="45.37754" lon="6.12039">
        <ele>755.22046</ele>
        <time>2021-07-18T10:55:08</time>
      </trkpt>
      <trkpt lat="45.3775" lon="6.12048">
        <ele>755.22046</ele>
        <time>2021-07-18T10:55:13</time>
      </trkpt>
      <trkpt lat="45.3775" lon="6.1205">
        <ele>755.22046</ele>
        <time>2021-07-18T10:55:14</time>
      </trkpt>
      <trkpt lat="45.37748" lon="6.12062">
        <ele>755.22046</ele>
        <time>2021-07-18T10:55:22</time>
      </trkpt>
      <trkpt lat="45.37748" lon="6.12063">
        <ele>755.22046</ele>
        <time>2021-07-18T10:55:23</time>
      </trkpt>
      <trkpt lat="45.37749" lon="6.1207">
        <ele>755.22046</ele>
        <time>2021-07-18T10:55:28</time>
      </trkpt>
      <trkpt lat="45.37749" lon="6.1207">
        <ele>755.22046</ele>
        <time>2021-07-18T10:55:29</time>
      </trkpt>
      <trkpt lat="45.37747" lon="6.12073">
        <ele>755.22046</ele>
        <time>2021-07-18T10:55:34</time>
      </trkpt>
      <trkpt lat="45.37746" lon="6.12073">
        <ele>755.22046</ele>
        <time>2021-07-18T10:55:35</time>
      </trkpt>
      <trkpt lat="45.37746" lon="6.12078">
        <ele>755.22046</ele>
        <time>2021-07-18T10:55:39</time>
      </trkpt>
      <trkpt lat="45.37746" lon="6.12083">
        <ele>755.22046</ele>
        <time>2021-07-18T10:55:41</time>
      </trkpt>
      <trkpt lat="45.37746" lon="6.12089">
        <ele>755.22046</ele>
        <time>2021-07-18T10:55:44</time>
      </trkpt>
      <trkpt lat="45.37746" lon="6.1209">
        <ele>755.22046</ele>
        <time>2021-07-18T10:55:45</time>
      </trkpt>
      <trkpt lat="45.37745" lon="6.12092">
        <ele>755.22046</ele>
        <time>2021-07-18T10:55:46</time>
      </trkpt>
      <trkpt lat="45.37746" lon="6.12097">
        <ele>755.22046</ele>
        <time>2021-07-18T10:55:49</time>
      </trkpt>
      <trkpt lat="45.37747" lon="6.12099">
        <ele>755.22046</ele>
        <time>2021-07-18T10:55:50</time>
      </trkpt>
      <trkpt lat="45.37747" lon="6.12103">
        <ele>755.22046</ele>
        <time>2021-07-18T10:55:52</time>
      </trkpt>
      <trkpt lat="45.37747" lon="6.12104">
        <ele>755.22046</ele>
        <time>2021-07-18T10:55:53</time>
      </trkpt>
      <trkpt lat="45.37747" lon="6.12107">
        <ele>755.22046</ele>
        <time>2021-07-18T10:55:54</time>
      </trkpt>
      <trkpt lat="45.37747" lon="6.12111">
        <ele>755.22046</ele>
        <time>2021-07-18T10:55:56</time>
      </trkpt>
      <trkpt lat="45.37748" lon="6.12113">
        <ele>755.22046</ele>
        <time>2021-07-18T10:55:57</time>
      </trkpt>
      <trkpt lat="45.37748" lon="6.12116">
        <ele>755.22046</ele>
        <time>2021-07-18T10:55:58</time>
      </trkpt>
      <trkpt lat="45.37748" lon="6.12141">
        <ele>755.22046</ele>
        <time>2021-07-18T10:56:16</time>
      </trkpt>
      <trkpt lat="45.37747" lon="6.12149">
        <ele>755.22046</ele>
        <time>2021-07-18T10:56:22</time>
      </trkpt>
      <trkpt lat="45.37748" lon="6.12159">
        <ele>755.22046</ele>
        <time>2021-07-18T10:56:29</time>
      </trkpt>
      <trkpt lat="45.37747" lon="6.12177">
        <ele>755.22046</ele>
        <time>2021-07-18T10:56:44</time>
      </trkpt>
      <trkpt lat="45.37747" lon="6.12178">
        <ele>755.22046</ele>
        <time>2021-07-18T10:56:45</time>
      </trkpt>
      <trkpt lat="45.37746" lon="6.12181">
        <ele>755.22046</ele>
        <time>2021-07-18T10:56:47</time>
      </trkpt>
      <trkpt lat="45.37745" lon="6.12183">
        <ele>755.22046</ele>
        <time>2021-07-18T10:56:49</time>
      </trkpt>
      <trkpt lat="45.37744" lon="6.12184">
        <ele>755.22046</ele>
        <time>2021-07-18T10:56:50</time>
      </trkpt>
      <trkpt lat="45.37743" lon="6.12186">
        <ele>755.22046</ele>
        <time>2021-07-18T10:56:53</time>
      </trkpt>
      <trkpt lat="45.37742" lon="6.12187">
        <ele>755.22046</ele>
        <time>2021-07-18T10:56:54</time>
      </trkpt>
      <trkpt lat="45.37742" lon="6.12189">
        <ele>755.22046</ele>
        <time>2021-07-18T10:56:55</time>
      </trkpt>
      <trkpt lat="45.37742" lon="6.1219">
        <ele>755.22046</ele>
        <time>2021-07-18T10:56:56</time>
      </trkpt>
      <trkpt lat="45.37742" lon="6.12196">
        <ele>755.22046</ele>
        <time>2021-07-18T10:57:00</time>
      </trkpt>
      <trkpt lat="45.37741" lon="6.12198">
        <ele>755.22046</ele>
        <time>2021-07-18T10:57:02</time>
      </trkpt>
      <trkpt lat="45.37741" lon="6.12199">
        <ele>755.22046</ele>
        <time>2021-07-18T10:57:03</time>
      </trkpt>
      <trkpt lat="45.3774" lon="6.12201">
        <ele>755.22046</ele>
        <time>2021-07-18T10:57:05</time>
      </trkpt>
      <trkpt lat="45.37738" lon="6.12208">
        <ele>755.22046</ele>
        <time>2021-07-18T10:57:22</time>
      </trkpt>
      <trkpt lat="45.37738" lon="6.12211">
        <ele>755.22046</ele>
        <time>2021-07-18T10:57:23</time>
      </trkpt>
      <trkpt lat="45.37739" lon="6.12214">
        <ele>755.22046</ele>
        <time>2021-07-18T10:57:24</time>
      </trkpt>
      <trkpt lat="45.3774" lon="6.12219">
        <ele>755.22046</ele>
        <time>2021-07-18T10:57:26</time>
      </trkpt>
      <trkpt lat="45.3774" lon="6.12221">
        <ele>755.22046</ele>
        <time>2021-07-18T10:57:27</time>
      </trkpt>
      <trkpt lat="45.3774" lon="6.12224">
        <ele>755.22046</ele>
        <time>2021-07-18T10:57:28</time>
      </trkpt>
      <trkpt lat="45.37739" lon="6.12226">
        <ele>755.22046</ele>
        <time>2021-07-18T10:57:29</time>
      </trkpt>
      <trkpt lat="45.37737" lon="6.12229">
        <ele>755.22046</ele>
        <time>2021-07-18T10:57:31</time>
      </trkpt>
      <trkpt lat="45.37736" lon="6.12231">
        <ele>755.22046</ele>
        <time>2021-07-18T10:57:32</time>
      </trkpt>
      <trkpt lat="45.37735" lon="6.12233">
        <ele>755.22046</ele>
        <time>2021-07-18T10:57:33</time>
      </trkpt>
      <trkpt lat="45.37734" lon="6.12235">
        <ele>755.22046</ele>
        <time>2021-07-18T10:57:34</time>
      </trkpt>
      <trkpt lat="45.37733" lon="6.12237">
        <ele>755.22046</ele>
        <time>2021-07-18T10:57:35</time>
      </trkpt>
      <trkpt lat="45.37733" lon="6.12239">
        <ele>755.22046</ele>
        <time>2021-07-18T10:57:36</time>
      </trkpt>
      <trkpt lat="45.37733" lon="6.12245">
        <ele>755.22046</ele>
        <time>2021-07-18T10:57:38</time>
      </trkpt>
      <trkpt lat="45.37733" lon="6.1225">
        <ele>755.22046</ele>
        <time>2021-07-18T10:57:42</time>
      </trkpt>
      <trkpt lat="45.37731" lon="6.12257">
        <ele>755.22046</ele>
        <time>2021-07-18T10:57:46</time>
      </trkpt>
      <trkpt lat="45.37731" lon="6.12259">
        <ele>755.22046</ele>
        <time>2021-07-18T10:57:47</time>
      </trkpt>
      <trkpt lat="45.3773" lon="6.12262">
        <ele>755.22046</ele>
        <time>2021-07-18T10:57:49</time>
      </trkpt>
      <trkpt lat="45.3773" lon="6.12263">
        <ele>755.22046</ele>
        <time>2021-07-18T10:57:50</time>
      </trkpt>
      <trkpt lat="45.3773" lon="6.12267">
        <ele>755.22046</ele>
        <time>2021-07-18T10:57:52</time>
      </trkpt>
      <trkpt lat="45.3773" lon="6.12269">
        <ele>755.22046</ele>
        <time>2021-07-18T10:57:53</time>
      </trkpt>
      <trkpt lat="45.37729" lon="6.1227">
        <ele>755.22046</ele>
        <time>2021-07-18T10:57:54</time>
      </trkpt>
      <trkpt lat="45.37728" lon="6.12277">
        <ele>755.22046</ele>
        <time>2021-07-18T10:57:58</time>
      </trkpt>
      <trkpt lat="45.37727" lon="6.12279">
        <ele>755.22046</ele>
        <time>2021-07-18T10:57:59</time>
      </trkpt>
      <trkpt lat="45.37726" lon="6.12282">
        <ele>755.22046</ele>
        <time>2021-07-18T10:58:01</time>
      </trkpt>
      <trkpt lat="45.37724" lon="6.12285">
        <ele>755.22046</ele>
        <time>2021-07-18T10:58:03</time>
      </trkpt>
      <trkpt lat="45.37723" lon="6.12286">
        <ele>755.22046</ele>
        <time>2021-07-18T10:58:04</time>
      </trkpt>
      <trkpt lat="45.37723" lon="6.12287">
        <ele>755.22046</ele>
        <time>2021-07-18T10:58:05</time>
      </trkpt>
      <trkpt lat="45.37722" lon="6.12288">
        <ele>755.22046</ele>
        <time>2021-07-18T10:58:07</time>
      </trkpt>
      <trkpt lat="45.37722" lon="6.1229">
        <ele>755.22046</ele>
        <time>2021-07-18T10:58:08</time>
      </trkpt>
      <trkpt lat="45.37722" lon="6.12293">
        <ele>755.22046</ele>
        <time>2021-07-18T10:58:09</time>
      </trkpt>
      <trkpt lat="45.37722" lon="6.12303">
        <ele>755.22046</ele>
        <time>2021-07-18T10:58:14</time>
      </trkpt>
      <trkpt lat="45.3772" lon="6.12306">
        <ele>755.22046</ele>
        <time>2021-07-18T10:58:17</time>
      </trkpt>
      <trkpt lat="45.37719" lon="6.12309">
        <ele>755.22046</ele>
        <time>2021-07-18T10:58:19</time>
      </trkpt>
      <trkpt lat="45.37717" lon="6.12313">
        <ele>755.22046</ele>
        <time>2021-07-18T10:58:23</time>
      </trkpt>
      <trkpt lat="45.37716" lon="6.12317">
        <ele>755.22046</ele>
        <time>2021-07-18T10:58:26</time>
      </trkpt>
      <trkpt lat="45.37717" lon="6.1232">
        <ele>755.22046</ele>
        <time>2021-07-18T10:58:28</time>
      </trkpt>
      <trkpt lat="45.37719" lon="6.12326">
        <ele>755.22046</ele>
        <time>2021-07-18T10:58:31</time>
      </trkpt>
      <trkpt lat="45.3772" lon="6.12327">
        <ele>755.22046</ele>
        <time>2021-07-18T10:58:32</time>
      </trkpt>
      <trkpt lat="45.3772" lon="6.12328">
        <ele>755.22046</ele>
        <time>2021-07-18T10:58:33</time>
      </trkpt>
      <trkpt lat="45.37721" lon="6.12329">
        <ele>755.22046</ele>
        <time>2021-07-18T10:58:34</time>
      </trkpt>
      <trkpt lat="45.37721" lon="6.12331">
        <ele>755.22046</ele>
        <time>2021-07-18T10:58:35</time>
      </trkpt>
      <trkpt lat="45.37721" lon="6.12333">
        <ele>755.22046</ele>
        <time>2021-07-18T10:58:37</time>
      </trkpt>
      <trkpt lat="45.37721" lon="6.12334">
        <ele>755.22046</ele>
        <time>2021-07-18T10:58:38</time>
      </trkpt>
      <trkpt lat="45.37721" lon="6.12335">
        <ele>755.22046</ele>
        <time>2021-07-18T10:58:39</time>
      </trkpt>
      <trkpt lat="45.37721" lon="6.12336">
        <ele>755.22046</ele>
        <time>2021-07-18T10:58:40</time>
      </trkpt>
      <trkpt lat="45.37721" lon="6.12337">
        <ele>755.22046</ele>
        <time>2021-07-18T10:58:41</time>
      </trkpt>
      <trkpt lat="45.3772" lon="6.1234">
        <ele>755.22046</ele>
        <time>2021-07-18T10:58:44</time>
      </trkpt>
      <trkpt lat="45.3772" lon="6.12342">
        <ele>755.22046</ele>
        <time>2021-07-18T10:58:46</time>
      </trkpt>
      <trkpt lat="45.3772" lon="6.12342">
        <ele>755.22046</ele>
        <time>2021-07-18T10:58:47</time>
      </trkpt>
      <trkpt lat="45.37719" lon="6.12343">
        <ele>755.22046</ele>
        <time>2021-07-18T10:58:48</time>
      </trkpt>
      <trkpt lat="45.37718" lon="6.12344">
        <ele>755.22046</ele>
        <time>2021-07-18T10:58:50</time>
      </trkpt>
      <trkpt lat="45.37717" lon="6.12346">
        <ele>755.22046</ele>
        <time>2021-07-18T10:58:52</time>
      </trkpt>
      <trkpt lat="45.37717" lon="6.12348">
        <ele>755.22046</ele>
        <time>2021-07-18T10:58:53</time>
      </trkpt>
      <trkpt lat="45.37717" lon="6.12349">
        <ele>755.22046</ele>
        <time>2021-07-18T10:58:54</time>
      </trkpt>
      <trkpt lat="45.37718" lon="6.12351">
        <ele>755.22046</ele>
        <time>2021-07-18T10:58:55</time>
      </trkpt>
      <trkpt lat="45.37718" lon="6.12353">
        <ele>755.22046</ele>
        <time>2021-07-18T10:58:56</time>
      </trkpt>
      <trkpt lat="45.37719" lon="6.12354">
        <ele>755.22046</ele>
        <time>2021-07-18T10:58:57</time>
      </trkpt>
      <trkpt lat="45.37719" lon="6.12355">
        <ele>755.22046</ele>
        <time>2021-07-18T10:58:58</time>
      </trkpt>
      <trkpt lat="45.3772" lon="6.12357">
        <ele>755.22046</ele>
        <time>2021-07-18T10:58:59</time>
      </trkpt>
      <trkpt lat="45.37721" lon="6.12359">
        <ele>755.22046</ele>
        <time>2021-07-18T10:59:00</time>
      </trkpt>
      <trkpt lat="45.37722" lon="6.12361">
        <ele>755.22046</ele>
        <time>2021-07-18T10:59:01</time>
      </trkpt>
      <trkpt lat="45.37722" lon="6.12365">
        <ele>755.22046</ele>
        <time>2021-07-18T10:59:03</time>
      </trkpt>
      <trkpt lat="45.37723" lon="6.12371">
        <ele>755.22046</ele>
        <time>2021-07-18T10:59:06</time>
      </trkpt>
      <trkpt lat="45.37724" lon="6.12376">
        <ele>755.22046</ele>
        <time>2021-07-18T10:59:09</time>
      </trkpt>
      <trkpt lat="45.37725" lon="6.12378">
        <ele>755.22046</ele>
        <time>2021-07-18T10:59:10</time>
      </trkpt>
      <trkpt lat="45.37726" lon="6.1238">
        <ele>755.22046</ele>
        <time>2021-07-18T10:59:11</time>
      </trkpt>
      <trkpt lat="45.37727" lon="6.12381">
        <ele>755.22046</ele>
        <time>2021-07-18T10:59:12</time>
      </trkpt>
      <trkpt lat="45.37729" lon="6.12384">
        <ele>755.22046</ele>
        <time>2021-07-18T10:59:14</time>
      </trkpt>
      <trkpt lat="45.37729" lon="6.12386">
        <ele>755.22046</ele>
        <time>2021-07-18T10:59:15</time>
      </trkpt>
      <trkpt lat="45.3773" lon="6.12389">
        <ele>755.22046</ele>
        <time>2021-07-18T10:59:17</time>
      </trkpt>
      <trkpt lat="45.3773" lon="6.12391">
        <ele>755.22046</ele>
        <time>2021-07-18T10:59:18</time>
      </trkpt>
      <trkpt lat="45.3773" lon="6.12401">
        <ele>755.22046</ele>
        <time>2021-07-18T10:59:23</time>
      </trkpt>
      <trkpt lat="45.3773" lon="6.12405">
        <ele>755.22046</ele>
        <time>2021-07-18T10:59:26</time>
      </trkpt>
      <trkpt lat="45.37731" lon="6.12407">
        <ele>755.22046</ele>
        <time>2021-07-18T10:59:27</time>
      </trkpt>
      <trkpt lat="45.37732" lon="6.1241">
        <ele>755.22046</ele>
        <time>2021-07-18T10:59:30</time>
      </trkpt>
      <trkpt lat="45.37732" lon="6.12411">
        <ele>755.22046</ele>
        <time>2021-07-18T10:59:31</time>
      </trkpt>
      <trkpt lat="45.37732" lon="6.12414">
        <ele>755.22046</ele>
        <time>2021-07-18T10:59:33</time>
      </trkpt>
      <trkpt lat="45.37733" lon="6.12417">
        <ele>755.22046</ele>
        <time>2021-07-18T10:59:35</time>
      </trkpt>
      <trkpt lat="45.37734" lon="6.12424">
        <ele>755.22046</ele>
        <time>2021-07-18T10:59:40</time>
      </trkpt>
      <trkpt lat="45.37735" lon="6.12426">
        <ele>755.22046</ele>
        <time>2021-07-18T10:59:41</time>
      </trkpt>
      <trkpt lat="45.37737" lon="6.12427">
        <ele>755.22046</ele>
        <time>2021-07-18T10:59:42</time>
      </trkpt>
      <trkpt lat="45.3774" lon="6.12428">
        <ele>755.22046</ele>
        <time>2021-07-18T10:59:44</time>
      </trkpt>
      <trkpt lat="45.37741" lon="6.12429">
        <ele>755.22046</ele>
        <time>2021-07-18T10:59:45</time>
      </trkpt>
      <trkpt lat="45.37742" lon="6.1243">
        <ele>755.22046</ele>
        <time>2021-07-18T10:59:46</time>
      </trkpt>
      <trkpt lat="45.37743" lon="6.12431">
        <ele>755.22046</ele>
        <time>2021-07-18T10:59:47</time>
      </trkpt>
      <trkpt lat="45.37745" lon="6.12433">
        <ele>755.22046</ele>
        <time>2021-07-18T10:59:49</time>
      </trkpt>
      <trkpt lat="45.37745" lon="6.12434">
        <ele>755.22046</ele>
        <time>2021-07-18T10:59:50</time>
      </trkpt>
      <trkpt lat="45.37745" lon="6.12436">
        <ele>755.22046</ele>
        <time>2021-07-18T10:59:51</time>
      </trkpt>
      <trkpt lat="45.37745" lon="6.12441">
        <ele>755.22046</ele>
        <time>2021-07-18T10:59:55</time>
      </trkpt>
      <trkpt lat="45.37745" lon="6.12442">
        <ele>755.22046</ele>
        <time>2021-07-18T10:59:56</time>
      </trkpt>
      <trkpt lat="45.37745" lon="6.12444">
        <ele>755.22046</ele>
        <time>2021-07-18T10:59:57</time>
      </trkpt>
      <trkpt lat="45.37745" lon="6.12446">
        <ele>755.22046</ele>
        <time>2021-07-18T10:59:59</time>
      </trkpt>
      <trkpt lat="45.37745" lon="6.12447">
        <ele>755.22046</ele>
        <time>2021-07-18T11:00:00</time>
      </trkpt>
      <trkpt lat="45.37745" lon="6.12449">
        <ele>755.22046</ele>
        <time>2021-07-18T11:00:02</time>
      </trkpt>
      <trkpt lat="45.37745" lon="6.1245">
        <ele>755.22046</ele>
        <time>2021-07-18T11:00:03</time>
      </trkpt>
      <trkpt lat="45.37745" lon="6.12451">
        <ele>755.22046</ele>
        <time>2021-07-18T11:00:04</time>
      </trkpt>
      <trkpt lat="45.37746" lon="6.12452">
        <ele>755.22046</ele>
        <time>2021-07-18T11:00:05</time>
      </trkpt>
      <trkpt lat="45.37748" lon="6.12455">
        <ele>755.22046</ele>
        <time>2021-07-18T11:00:08</time>
      </trkpt>
      <trkpt lat="45.37749" lon="6.12456">
        <ele>755.22046</ele>
        <time>2021-07-18T11:00:09</time>
      </trkpt>
      <trkpt lat="45.3775" lon="6.12468">
        <ele>755.22046</ele>
        <time>2021-07-18T11:00:17</time>
      </trkpt>
      <trkpt lat="45.3775" lon="6.12469">
        <ele>755.22046</ele>
        <time>2021-07-18T11:00:18</time>
      </trkpt>
      <trkpt lat="45.37751" lon="6.12474">
        <ele>755.22046</ele>
        <time>2021-07-18T11:00:22</time>
      </trkpt>
      <trkpt lat="45.37751" lon="6.12478">
        <ele>755.22046</ele>
        <time>2021-07-18T11:00:25</time>
      </trkpt>
      <trkpt lat="45.37752" lon="6.12478">
        <ele>755.22046</ele>
        <time>2021-07-18T11:00:26</time>
      </trkpt>
      <trkpt lat="45.37751" lon="6.12483">
        <ele>755.22046</ele>
        <time>2021-07-18T11:00:31</time>
      </trkpt>
      <trkpt lat="45.37748" lon="6.12495">
        <ele>755.22046</ele>
        <time>2021-07-18T11:00:41</time>
      </trkpt>
      <trkpt lat="45.37748" lon="6.12496">
        <ele>755.22046</ele>
        <time>2021-07-18T11:00:42</time>
      </trkpt>
      <trkpt lat="45.37746" lon="6.12513">
        <ele>755.22046</ele>
        <time>2021-07-18T11:00:55</time>
      </trkpt>
      <trkpt lat="45.37745" lon="6.12515">
        <ele>755.22046</ele>
        <time>2021-07-18T11:00:56</time>
      </trkpt>
      <trkpt lat="45.37744" lon="6.12516">
        <ele>755.22046</ele>
        <time>2021-07-18T11:00:58</time>
      </trkpt>
      <trkpt lat="45.37744" lon="6.12518">
        <ele>755.22046</ele>
        <time>2021-07-18T11:00:59</time>
      </trkpt>
      <trkpt lat="45.37743" lon="6.12521">
        <ele>755.22046</ele>
        <time>2021-07-18T11:01:01</time>
      </trkpt>
      <trkpt lat="45.37737" lon="6.12536">
        <ele>755.22046</ele>
        <time>2021-07-18T11:01:12</time>
      </trkpt>
      <trkpt lat="45.37736" lon="6.12539">
        <ele>755.22046</ele>
        <time>2021-07-18T11:01:14</time>
      </trkpt>
      <trkpt lat="45.37721" lon="6.12568">
        <ele>755.22046</ele>
        <time>2021-07-18T11:01:42</time>
      </trkpt>
      <trkpt lat="45.37716" lon="6.12578">
        <ele>755.22046</ele>
        <time>2021-07-18T11:01:51</time>
      </trkpt>
      <trkpt lat="45.37711" lon="6.1259">
        <ele>755.22046</ele>
        <time>2021-07-18T11:02:05</time>
      </trkpt>
      <trkpt lat="45.37711" lon="6.12592">
        <ele>755.22046</ele>
        <time>2021-07-18T11:02:06</time>
      </trkpt>
      <trkpt lat="45.37709" lon="6.12595">
        <ele>755.22046</ele>
        <time>2021-07-18T11:02:09</time>
      </trkpt>
      <trkpt lat="45.3771" lon="6.12605">
        <ele>755.22046</ele>
        <time>2021-07-18T11:02:15</time>
      </trkpt>
      <trkpt lat="45.37711" lon="6.12608">
        <ele>755.22046</ele>
        <time>2021-07-18T11:02:17</time>
      </trkpt>
      <trkpt lat="45.37711" lon="6.1261">
        <ele>755.22046</ele>
        <time>2021-07-18T11:02:18</time>
      </trkpt>
      <trkpt lat="45.37711" lon="6.12612">
        <ele>755.22046</ele>
        <time>2021-07-18T11:02:20</time>
      </trkpt>
      <trkpt lat="45.37711" lon="6.12614">
        <ele>755.22046</ele>
        <time>2021-07-18T11:02:21</time>
      </trkpt>
      <trkpt lat="45.37711" lon="6.12614">
        <ele>755.22046</ele>
        <time>2021-07-18T11:02:22</time>
      </trkpt>
      <trkpt lat="45.37711" lon="6.12615">
        <ele>755.22046</ele>
        <time>2021-07-18T11:02:23</time>
      </trkpt>
      <trkpt lat="45.37711" lon="6.12616">
        <ele>755.22046</ele>
        <time>2021-07-18T11:02:24</time>
      </trkpt>
      <trkpt lat="45.37712" lon="6.12622">
        <ele>755.22046</ele>
        <time>2021-07-18T11:02:28</time>
      </trkpt>
      <trkpt lat="45.37712" lon="6.12624">
        <ele>755.22046</ele>
        <time>2021-07-18T11:02:29</time>
      </trkpt>
      <trkpt lat="45.37712" lon="6.12627">
        <ele>755.22046</ele>
        <time>2021-07-18T11:02:31</time>
      </trkpt>
      <trkpt lat="45.37712" lon="6.12632">
        <ele>755.22046</ele>
        <time>2021-07-18T11:02:34</time>
      </trkpt>
      <trkpt lat="45.37712" lon="6.12633">
        <ele>755.22046</ele>
        <time>2021-07-18T11:02:35</time>
      </trkpt>
      <trkpt lat="45.37711" lon="6.12634">
        <ele>755.22046</ele>
        <time>2021-07-18T11:02:36</time>
      </trkpt>
      <trkpt lat="45.3771" lon="6.12635">
        <ele>755.22046</ele>
        <time>2021-07-18T11:02:38</time>
      </trkpt>
      <trkpt lat="45.37708" lon="6.12635">
        <ele>755.22046</ele>
        <time>2021-07-18T11:02:39</time>
      </trkpt>
      <trkpt lat="45.37707" lon="6.12635">
        <ele>755.22046</ele>
        <time>2021-07-18T11:02:40</time>
      </trkpt>
      <trkpt lat="45.37706" lon="6.12636">
        <ele>755.22046</ele>
        <time>2021-07-18T11:02:41</time>
      </trkpt>
      <trkpt lat="45.37705" lon="6.12637">
        <ele>755.22046</ele>
        <time>2021-07-18T11:02:42</time>
      </trkpt>
      <trkpt lat="45.37704" lon="6.12637">
        <ele>755.22046</ele>
        <time>2021-07-18T11:02:43</time>
      </trkpt>
      <trkpt lat="45.37702" lon="6.1264">
        <ele>755.22046</ele>
        <time>2021-07-18T11:02:46</time>
      </trkpt>
      <trkpt lat="45.37703" lon="6.12643">
        <ele>755.22046</ele>
        <time>2021-07-18T11:02:47</time>
      </trkpt>
      <trkpt lat="45.37706" lon="6.1265">
        <ele>755.22046</ele>
        <time>2021-07-18T11:02:51</time>
      </trkpt>
      <trkpt lat="45.37706" lon="6.12652">
        <ele>755.22046</ele>
        <time>2021-07-18T11:02:52</time>
      </trkpt>
      <trkpt lat="45.37707" lon="6.12658">
        <ele>755.22046</ele>
        <time>2021-07-18T11:02:55</time>
      </trkpt>
      <trkpt lat="45.37706" lon="6.1266">
        <ele>755.22046</ele>
        <time>2021-07-18T11:02:56</time>
      </trkpt>
      <trkpt lat="45.37706" lon="6.12661">
        <ele>755.22046</ele>
        <time>2021-07-18T11:02:57</time>
      </trkpt>
      <trkpt lat="45.37705" lon="6.12662">
        <ele>755.22046</ele>
        <time>2021-07-18T11:02:58</time>
      </trkpt>
      <trkpt lat="45.37704" lon="6.12663">
        <ele>755.22046</ele>
        <time>2021-07-18T11:02:59</time>
      </trkpt>
      <trkpt lat="45.37704" lon="6.12664">
        <ele>755.22046</ele>
        <time>2021-07-18T11:03:00</time>
      </trkpt>
      <trkpt lat="45.377" lon="6.12677">
        <ele>755.22046</ele>
        <time>2021-07-18T11:03:09</time>
      </trkpt>
      <trkpt lat="45.37697" lon="6.12686">
        <ele>755.22046</ele>
        <time>2021-07-18T11:03:18</time>
      </trkpt>
      <trkpt lat="45.37695" lon="6.12689">
        <ele>755.22046</ele>
        <time>2021-07-18T11:03:21</time>
      </trkpt>
      <trkpt lat="45.37692" lon="6.12692">
        <ele>755.22046</ele>
        <time>2021-07-18T11:03:26</time>
      </trkpt>
      <trkpt lat="45.37692" lon="6.12693">
        <ele>755.22046</ele>
        <time>2021-07-18T11:03:27</time>
      </trkpt>
      <trkpt lat="45.37689" lon="6.12698">
        <ele>755.22046</ele>
        <time>2021-07-18T11:03:34</time>
      </trkpt>
      <trkpt lat="45.37688" lon="6.12698">
        <ele>755.22046</ele>
        <time>2021-07-18T11:03:35</time>
      </trkpt>
      <trkpt lat="45.37685" lon="6.12699">
        <ele>755.22046</ele>
        <time>2021-07-18T11:03:38</time>
      </trkpt>
      <trkpt lat="45.37681" lon="6.12703">
        <ele>755.22046</ele>
        <time>2021-07-18T11:03:43</time>
      </trkpt>
      <trkpt lat="45.37681" lon="6.12705">
        <ele>755.22046</ele>
        <time>2021-07-18T11:03:44</time>
      </trkpt>
      <trkpt lat="45.3768" lon="6.12706">
        <ele>755.22046</ele>
        <time>2021-07-18T11:03:45</time>
      </trkpt>
      <trkpt lat="45.3768" lon="6.12708">
        <ele>755.22046</ele>
        <time>2021-07-18T11:03:46</time>
      </trkpt>
      <trkpt lat="45.37678" lon="6.12709">
        <ele>755.22046</ele>
        <time>2021-07-18T11:03:49</time>
      </trkpt>
      <trkpt lat="45.37676" lon="6.12709">
        <ele>755.22046</ele>
        <time>2021-07-18T11:03:50</time>
      </trkpt>
      <trkpt lat="45.37676" lon="6.1271">
        <ele>755.22046</ele>
        <time>2021-07-18T11:03:51</time>
      </trkpt>
      <trkpt lat="45.37675" lon="6.12711">
        <ele>755.22046</ele>
        <time>2021-07-18T11:03:52</time>
      </trkpt>
      <trkpt lat="45.37675" lon="6.12712">
        <ele>755.22046</ele>
        <time>2021-07-18T11:03:53</time>
      </trkpt>
      <trkpt lat="45.37674" lon="6.12713">
        <ele>755.22046</ele>
        <time>2021-07-18T11:03:55</time>
      </trkpt>
      <trkpt lat="45.37673" lon="6.12712">
        <ele>755.22046</ele>
        <time>2021-07-18T11:03:56</time>
      </trkpt>
      <trkpt lat="45.37672" lon="6.12712">
        <ele>755.22046</ele>
        <time>2021-07-18T11:03:57</time>
      </trkpt>
      <trkpt lat="45.37673" lon="6.12714">
        <ele>755.22046</ele>
        <time>2021-07-18T11:03:58</time>
      </trkpt>
      <trkpt lat="45.37673" lon="6.12716">
        <ele>755.22046</ele>
        <time>2021-07-18T11:04:01</time>
      </trkpt>
      <trkpt lat="45.37672" lon="6.12718">
        <ele>755.22046</ele>
        <time>2021-07-18T11:04:03</time>
      </trkpt>
      <trkpt lat="45.37671" lon="6.12718">
        <ele>755.22046</ele>
        <time>2021-07-18T11:04:05</time>
      </trkpt>
      <trkpt lat="45.37671" lon="6.1272">
        <ele>755.22046</ele>
        <time>2021-07-18T11:04:06</time>
      </trkpt>
      <trkpt lat="45.37671" lon="6.12724">
        <ele>755.22046</ele>
        <time>2021-07-18T11:04:08</time>
      </trkpt>
      <trkpt lat="45.3767" lon="6.12725">
        <ele>755.22046</ele>
        <time>2021-07-18T11:04:09</time>
      </trkpt>
      <trkpt lat="45.37668" lon="6.12727">
        <ele>755.22046</ele>
        <time>2021-07-18T11:04:11</time>
      </trkpt>
      <trkpt lat="45.37667" lon="6.12728">
        <ele>755.22046</ele>
        <time>2021-07-18T11:04:13</time>
      </trkpt>
      <trkpt lat="45.37667" lon="6.1273">
        <ele>755.22046</ele>
        <time>2021-07-18T11:04:15</time>
      </trkpt>
      <trkpt lat="45.37659" lon="6.12741">
        <ele>755.22046</ele>
        <time>2021-07-18T11:04:29</time>
      </trkpt>
      <trkpt lat="45.37657" lon="6.12745">
        <ele>755.22046</ele>
        <time>2021-07-18T11:04:32</time>
      </trkpt>
      <trkpt lat="45.37657" lon="6.12746">
        <ele>755.22046</ele>
        <time>2021-07-18T11:04:33</time>
      </trkpt>
      <trkpt lat="45.37657" lon="6.12747">
        <ele>755.22046</ele>
        <time>2021-07-18T11:04:34</time>
      </trkpt>
      <trkpt lat="45.37657" lon="6.12748">
        <ele>755.22046</ele>
        <time>2021-07-18T11:04:35</time>
      </trkpt>
      <trkpt lat="45.37656" lon="6.12749">
        <ele>755.22046</ele>
        <time>2021-07-18T11:04:36</time>
      </trkpt>
      <trkpt lat="45.37656" lon="6.1275">
        <ele>755.22046</ele>
        <time>2021-07-18T11:04:37</time>
      </trkpt>
      <trkpt lat="45.37655" lon="6.12751">
        <ele>755.22046</ele>
        <time>2021-07-18T11:04:38</time>
      </trkpt>
      <trkpt lat="45.37653" lon="6.12753">
        <ele>755.22046</ele>
        <time>2021-07-18T11:04:40</time>
      </trkpt>
      <trkpt lat="45.37653" lon="6.12754">
        <ele>755.22046</ele>
        <time>2021-07-18T11:04:41</time>
      </trkpt>
      <trkpt lat="45.37652" lon="6.12755">
        <ele>755.22046</ele>
        <time>2021-07-18T11:04:42</time>
      </trkpt>
      <trkpt lat="45.37651" lon="6.12757">
        <ele>755.22046</ele>
        <time>2021-07-18T11:04:45</time>
      </trkpt>
      <trkpt lat="45.37651" lon="6.12757">
        <ele>755.22046</ele>
        <time>2021-07-18T11:04:46</time>
      </trkpt>
      <trkpt lat="45.3765" lon="6.12759">
        <ele>755.22046</ele>
        <time>2021-07-18T11:04:48</time>
      </trkpt>
      <trkpt lat="45.37648" lon="6.12761">
        <ele>755.22046</ele>
        <time>2021-07-18T11:04:51</time>
      </trkpt>
      <trkpt lat="45.37648" lon="6.12761">
        <ele>755.22046</ele>
        <time>2021-07-18T11:04:52</time>
      </trkpt>
      <trkpt lat="45.37647" lon="6.12761">
        <ele>755.22046</ele>
        <time>2021-07-18T11:04:53</time>
      </trkpt>
      <trkpt lat="45.37645" lon="6.12762">
        <ele>755.22046</ele>
        <time>2021-07-18T11:04:55</time>
      </trkpt>
      <trkpt lat="45.37643" lon="6.12763">
        <ele>755.22046</ele>
        <time>2021-07-18T11:04:57</time>
      </trkpt>
      <trkpt lat="45.37631" lon="6.1277">
        <ele>755.22046</ele>
        <time>2021-07-18T11:05:08</time>
      </trkpt>
      <trkpt lat="45.37631" lon="6.12771">
        <ele>755.22046</ele>
        <time>2021-07-18T11:05:09</time>
      </trkpt>
      <trkpt lat="45.37631" lon="6.12772">
        <ele>755.22046</ele>
        <time>2021-07-18T11:05:12</time>
      </trkpt>
      <trkpt lat="45.37629" lon="6.12772">
        <ele>755.22046</ele>
        <time>2021-07-18T11:05:14</time>
      </trkpt>
      <trkpt lat="45.37626" lon="6.12771">
        <ele>755.22046</ele>
        <time>2021-07-18T11:05:18</time>
      </trkpt>
      <trkpt lat="45.37623" lon="6.12769">
        <ele>755.22046</ele>
        <time>2021-07-18T11:05:22</time>
      </trkpt>
      <trkpt lat="45.37617" lon="6.12768">
        <ele>755.22046</ele>
        <time>2021-07-18T11:05:26</time>
      </trkpt>
      <trkpt lat="45.37616" lon="6.12769">
        <ele>755.22046</ele>
        <time>2021-07-18T11:05:27</time>
      </trkpt>
      <trkpt lat="45.37616" lon="6.1277">
        <ele>755.22046</ele>
        <time>2021-07-18T11:05:28</time>
      </trkpt>
      <trkpt lat="45.37615" lon="6.12772">
        <ele>755.22046</ele>
        <time>2021-07-18T11:05:30</time>
      </trkpt>
      <trkpt lat="45.37614" lon="6.12772">
        <ele>755.22046</ele>
        <time>2021-07-18T11:05:31</time>
      </trkpt>
      <trkpt lat="45.37612" lon="6.12772">
        <ele>755.22046</ele>
        <time>2021-07-18T11:05:32</time>
      </trkpt>
      <trkpt lat="45.37609" lon="6.1277">
        <ele>755.22046</ele>
        <time>2021-07-18T11:05:34</time>
      </trkpt>
      <trkpt lat="45.37608" lon="6.12769">
        <ele>917.32043</ele>
        <time>2021-07-18T11:05:35</time>
      </trkpt>
      <trkpt lat="45.37607" lon="6.12769">
        <ele>917.32043</ele>
        <time>2021-07-18T11:05:36</time>
      </trkpt>
      <trkpt lat="45.37606" lon="6.1277">
        <ele>917.32043</ele>
        <time>2021-07-18T11:05:37</time>
      </trkpt>
      <trkpt lat="45.37605" lon="6.1277">
        <ele>917.32043</ele>
        <time>2021-07-18T11:05:38</time>
      </trkpt>
      <trkpt lat="45.37602" lon="6.1277">
        <ele>917.32043</ele>
        <time>2021-07-18T11:05:40</time>
      </trkpt>
      <trkpt lat="45.37596" lon="6.12773">
        <ele>917.32043</ele>
        <time>2021-07-18T11:05:47</time>
      </trkpt>
      <trkpt lat="45.37596" lon="6.12774">
        <ele>917.32043</ele>
        <time>2021-07-18T11:05:48</time>
      </trkpt>
      <trkpt lat="45.37595" lon="6.12775">
        <ele>917.32043</ele>
        <time>2021-07-18T11:05:49</time>
      </trkpt>
      <trkpt lat="45.37595" lon="6.12777">
        <ele>917.32043</ele>
        <time>2021-07-18T11:05:50</time>
      </trkpt>
      <trkpt lat="45.37595" lon="6.12778">
        <ele>917.32043</ele>
        <time>2021-07-18T11:05:51</time>
      </trkpt>
      <trkpt lat="45.37594" lon="6.12777">
        <ele>917.32043</ele>
        <time>2021-07-18T11:05:52</time>
      </trkpt>
      <trkpt lat="45.37592" lon="6.12776">
        <ele>917.32043</ele>
        <time>2021-07-18T11:05:53</time>
      </trkpt>
      <trkpt lat="45.37591" lon="6.12776">
        <ele>912.82043</ele>
        <time>2021-07-18T11:05:55</time>
      </trkpt>
      <trkpt lat="45.3759" lon="6.12777">
        <ele>912.82043</ele>
        <time>2021-07-18T11:05:58</time>
      </trkpt>
      <trkpt lat="45.37589" lon="6.12778">
        <ele>912.82043</ele>
        <time>2021-07-18T11:05:59</time>
      </trkpt>
      <trkpt lat="45.37588" lon="6.12779">
        <ele>912.82043</ele>
        <time>2021-07-18T11:06:00</time>
      </trkpt>
      <trkpt lat="45.37588" lon="6.1278">
        <ele>912.82043</ele>
        <time>2021-07-18T11:06:01</time>
      </trkpt>
      <trkpt lat="45.37587" lon="6.12781">
        <ele>912.82043</ele>
        <time>2021-07-18T11:06:02</time>
      </trkpt>
      <trkpt lat="45.37586" lon="6.12782">
        <ele>912.82043</ele>
        <time>2021-07-18T11:06:03</time>
      </trkpt>
      <trkpt lat="45.37585" lon="6.12786">
        <ele>912.02045</ele>
        <time>2021-07-18T11:06:07</time>
      </trkpt>
      <trkpt lat="45.37585" lon="6.12789">
        <ele>912.02045</ele>
        <time>2021-07-18T11:06:09</time>
      </trkpt>
      <trkpt lat="45.37585" lon="6.12792">
        <ele>912.02045</ele>
        <time>2021-07-18T11:06:11</time>
      </trkpt>
      <trkpt lat="45.37583" lon="6.12795">
        <ele>912.02045</ele>
        <time>2021-07-18T11:06:13</time>
      </trkpt>
      <trkpt lat="45.37582" lon="6.12795">
        <ele>912.02045</ele>
        <time>2021-07-18T11:06:15</time>
      </trkpt>
      <trkpt lat="45.37581" lon="6.12796">
        <ele>912.02045</ele>
        <time>2021-07-18T11:06:19</time>
      </trkpt>
      <trkpt lat="45.3758" lon="6.12797">
        <ele>912.02045</ele>
        <time>2021-07-18T11:06:20</time>
      </trkpt>
      <trkpt lat="45.37579" lon="6.12797">
        <ele>912.02045</ele>
        <time>2021-07-18T11:06:21</time>
      </trkpt>
      <trkpt lat="45.37577" lon="6.12797">
        <ele>912.02045</ele>
        <time>2021-07-18T11:06:22</time>
      </trkpt>
      <trkpt lat="45.37576" lon="6.12797">
        <ele>912.02045</ele>
        <time>2021-07-18T11:06:23</time>
      </trkpt>
      <trkpt lat="45.37574" lon="6.12796">
        <ele>912.02045</ele>
        <time>2021-07-18T11:06:24</time>
      </trkpt>
      <trkpt lat="45.37572" lon="6.12797">
        <ele>912.02045</ele>
        <time>2021-07-18T11:06:26</time>
      </trkpt>
      <trkpt lat="45.37571" lon="6.12798">
        <ele>912.02045</ele>
        <time>2021-07-18T11:06:27</time>
      </trkpt>
      <trkpt lat="45.37571" lon="6.12799">
        <ele>912.02045</ele>
        <time>2021-07-18T11:06:28</time>
      </trkpt>
      <trkpt lat="45.3757" lon="6.128">
        <ele>912.02045</ele>
        <time>2021-07-18T11:06:29</time>
      </trkpt>
      <trkpt lat="45.37566" lon="6.12802">
        <ele>912.02045</ele>
        <time>2021-07-18T11:06:33</time>
      </trkpt>
      <trkpt lat="45.37566" lon="6.12803">
        <ele>912.02045</ele>
        <time>2021-07-18T11:06:34</time>
      </trkpt>
      <trkpt lat="45.37565" lon="6.12804">
        <ele>912.02045</ele>
        <time>2021-07-18T11:06:35</time>
      </trkpt>
      <trkpt lat="45.37564" lon="6.12805">
        <ele>912.02045</ele>
        <time>2021-07-18T11:06:36</time>
      </trkpt>
      <trkpt lat="45.37562" lon="6.12807">
        <ele>912.02045</ele>
        <time>2021-07-18T11:06:37</time>
      </trkpt>
      <trkpt lat="45.37561" lon="6.12808">
        <ele>912.02045</ele>
        <time>2021-07-18T11:06:38</time>
      </trkpt>
      <trkpt lat="45.3756" lon="6.1281">
        <ele>912.02045</ele>
        <time>2021-07-18T11:06:40</time>
      </trkpt>
      <trkpt lat="45.37559" lon="6.12811">
        <ele>912.02045</ele>
        <time>2021-07-18T11:06:41</time>
      </trkpt>
      <trkpt lat="45.37559" lon="6.12812">
        <ele>912.02045</ele>
        <time>2021-07-18T11:06:42</time>
      </trkpt>
      <trkpt lat="45.37558" lon="6.12813">
        <ele>912.02045</ele>
        <time>2021-07-18T11:06:43</time>
      </trkpt>
      <trkpt lat="45.37558" lon="6.12814">
        <ele>912.02045</ele>
        <time>2021-07-18T11:06:44</time>
      </trkpt>
      <trkpt lat="45.37557" lon="6.12814">
        <ele>912.02045</ele>
        <time>2021-07-18T11:06:54</time>
      </trkpt>
      <trkpt lat="45.37557" lon="6.12814">
        <ele>912.02045</ele>
        <time>2021-07-18T11:06:55</time>
      </trkpt>
      <trkpt lat="45.37556" lon="6.12814">
        <ele>912.02045</ele>
        <time>2021-07-18T11:06:57</time>
      </trkpt>
      <trkpt lat="45.37554" lon="6.12814">
        <ele>912.02045</ele>
        <time>2021-07-18T11:06:58</time>
      </trkpt>
      <trkpt lat="45.37553" lon="6.12814">
        <ele>912.02045</ele>
        <time>2021-07-18T11:06:59</time>
      </trkpt>
      <trkpt lat="45.37552" lon="6.12814">
        <ele>912.02045</ele>
        <time>2021-07-18T11:07:00</time>
      </trkpt>
      <trkpt lat="45.37552" lon="6.12822">
        <ele>912.02045</ele>
        <time>2021-07-18T11:07:03</time>
      </trkpt>
      <trkpt lat="45.37551" lon="6.12823">
        <ele>912.02045</ele>
        <time>2021-07-18T11:07:04</time>
      </trkpt>
      <trkpt lat="45.3754" lon="6.12837">
        <ele>912.02045</ele>
        <time>2021-07-18T11:07:16</time>
      </trkpt>
      <trkpt lat="45.37532" lon="6.12838">
        <ele>912.02045</ele>
        <time>2021-07-18T11:07:24</time>
      </trkpt>
      <trkpt lat="45.37531" lon="6.12839">
        <ele>912.02045</ele>
        <time>2021-07-18T11:07:25</time>
      </trkpt>
      <trkpt lat="45.37528" lon="6.12844">
        <ele>912.02045</ele>
        <time>2021-07-18T11:07:29</time>
      </trkpt>
      <trkpt lat="45.37526" lon="6.12846">
        <ele>912.02045</ele>
        <time>2021-07-18T11:07:32</time>
      </trkpt>
      <trkpt lat="45.37525" lon="6.12846">
        <ele>912.02045</ele>
        <time>2021-07-18T11:07:33</time>
      </trkpt>
      <trkpt lat="45.37523" lon="6.12847">
        <ele>912.02045</ele>
        <time>2021-07-18T11:07:35</time>
      </trkpt>
      <trkpt lat="45.37522" lon="6.12847">
        <ele>912.02045</ele>
        <time>2021-07-18T11:07:37</time>
      </trkpt>
      <trkpt lat="45.37517" lon="6.12847">
        <ele>912.02045</ele>
        <time>2021-07-18T11:07:42</time>
      </trkpt>
      <trkpt lat="45.37509" lon="6.12843">
        <ele>912.02045</ele>
        <time>2021-07-18T11:07:50</time>
      </trkpt>
      <trkpt lat="45.37508" lon="6.12842">
        <ele>912.02045</ele>
        <time>2021-07-18T11:07:52</time>
      </trkpt>
      <trkpt lat="45.37507" lon="6.12841">
        <ele>912.02045</ele>
        <time>2021-07-18T11:07:54</time>
      </trkpt>
      <trkpt lat="45.37505" lon="6.1284">
        <ele>912.02045</ele>
        <time>2021-07-18T11:07:56</time>
      </trkpt>
      <trkpt lat="45.37499" lon="6.12837">
        <ele>912.02045</ele>
        <time>2021-07-18T11:08:04</time>
      </trkpt>
      <trkpt lat="45.37498" lon="6.12838">
        <ele>912.02045</ele>
        <time>2021-07-18T11:08:05</time>
      </trkpt>
      <trkpt lat="45.37497" lon="6.12839">
        <ele>912.02045</ele>
        <time>2021-07-18T11:08:06</time>
      </trkpt>
      <trkpt lat="45.37496" lon="6.12841">
        <ele>912.02045</ele>
        <time>2021-07-18T11:08:07</time>
      </trkpt>
      <trkpt lat="45.37493" lon="6.12843">
        <ele>912.02045</ele>
        <time>2021-07-18T11:08:12</time>
      </trkpt>
      <trkpt lat="45.37493" lon="6.12845">
        <ele>912.02045</ele>
        <time>2021-07-18T11:08:14</time>
      </trkpt>
      <trkpt lat="45.37493" lon="6.12846">
        <ele>912.02045</ele>
        <time>2021-07-18T11:08:15</time>
      </trkpt>
      <trkpt lat="45.37493" lon="6.12847">
        <ele>912.02045</ele>
        <time>2021-07-18T11:08:16</time>
      </trkpt>
      <trkpt lat="45.37492" lon="6.12849">
        <ele>912.02045</ele>
        <time>2021-07-18T11:08:17</time>
      </trkpt>
      <trkpt lat="45.37492" lon="6.1285">
        <ele>912.02045</ele>
        <time>2021-07-18T11:08:18</time>
      </trkpt>
      <trkpt lat="45.37491" lon="6.12855">
        <ele>912.02045</ele>
        <time>2021-07-18T11:08:24</time>
      </trkpt>
      <trkpt lat="45.37491" lon="6.12855">
        <ele>912.02045</ele>
        <time>2021-07-18T11:08:25</time>
      </trkpt>
      <trkpt lat="45.37491" lon="6.12858">
        <ele>912.02045</ele>
        <time>2021-07-18T11:08:30</time>
      </trkpt>
      <trkpt lat="45.37492" lon="6.12859">
        <ele>912.02045</ele>
        <time>2021-07-18T11:08:31</time>
      </trkpt>
      <trkpt lat="45.37494" lon="6.12862">
        <ele>912.02045</ele>
        <time>2021-07-18T11:08:33</time>
      </trkpt>
      <trkpt lat="45.37495" lon="6.12862">
        <ele>912.02045</ele>
        <time>2021-07-18T11:08:34</time>
      </trkpt>
      <trkpt lat="45.37496" lon="6.12863">
        <ele>912.02045</ele>
        <time>2021-07-18T11:08:35</time>
      </trkpt>
      <trkpt lat="45.37497" lon="6.12863">
        <ele>912.02045</ele>
        <time>2021-07-18T11:08:36</time>
      </trkpt>
      <trkpt lat="45.37498" lon="6.12864">
        <ele>912.02045</ele>
        <time>2021-07-18T11:08:38</time>
      </trkpt>
      <trkpt lat="45.37508" lon="6.1287">
        <ele>935.52045</ele>
        <time>2021-07-18T11:08:53</time>
      </trkpt>
      <trkpt lat="45.37511" lon="6.12872">
        <ele>936.22046</ele>
        <time>2021-07-18T11:08:55</time>
      </trkpt>
      <trkpt lat="45.37513" lon="6.12874">
        <ele>936.22046</ele>
        <time>2021-07-18T11:08:58</time>
      </trkpt>
      <trkpt lat="45.37514" lon="6.12874">
        <ele>936.22046</ele>
        <time>2021-07-18T11:08:59</time>
      </trkpt>
      <trkpt lat="45.37516" lon="6.12875">
        <ele>936.22046</ele>
        <time>2021-07-18T11:09:01</time>
      </trkpt>
      <trkpt lat="45.37518" lon="6.12875">
        <ele>936.22046</ele>
        <time>2021-07-18T11:09:03</time>
      </trkpt>
      <trkpt lat="45.37523" lon="6.12878">
        <ele>932.6204</ele>
        <time>2021-07-18T11:09:07</time>
      </trkpt>
      <trkpt lat="45.37527" lon="6.12884">
        <ele>932.6204</ele>
        <time>2021-07-18T11:09:12</time>
      </trkpt>
      <trkpt lat="45.37527" lon="6.12884">
        <ele>932.6204</ele>
        <time>2021-07-18T11:09:13</time>
      </trkpt>
      <trkpt lat="45.37528" lon="6.12885">
        <ele>932.6204</ele>
        <time>2021-07-18T11:09:14</time>
      </trkpt>
      <trkpt lat="45.37528" lon="6.12886">
        <ele>932.6204</ele>
        <time>2021-07-18T11:09:15</time>
      </trkpt>
      <trkpt lat="45.3753" lon="6.12889">
        <ele>932.6204</ele>
        <time>2021-07-18T11:09:19</time>
      </trkpt>
      <trkpt lat="45.37531" lon="6.12891">
        <ele>932.6204</ele>
        <time>2021-07-18T11:09:20</time>
      </trkpt>
      <trkpt lat="45.37532" lon="6.12893">
        <ele>932.6204</ele>
        <time>2021-07-18T11:09:22</time>
      </trkpt>
      <trkpt lat="45.37534" lon="6.12896">
        <ele>932.6204</ele>
        <time>2021-07-18T11:09:25</time>
      </trkpt>
      <trkpt lat="45.37534" lon="6.12896">
        <ele>932.6204</ele>
        <time>2021-07-18T11:09:26</time>
      </trkpt>
      <trkpt lat="45.37533" lon="6.12899">
        <ele>932.6204</ele>
        <time>2021-07-18T11:09:29</time>
      </trkpt>
      <trkpt lat="45.37533" lon="6.129">
        <ele>932.6204</ele>
        <time>2021-07-18T11:09:30</time>
      </trkpt>
      <trkpt lat="45.37532" lon="6.12904">
        <ele>932.6204</ele>
        <time>2021-07-18T11:09:32</time>
      </trkpt>
      <trkpt lat="45.37532" lon="6.12906">
        <ele>932.6204</ele>
        <time>2021-07-18T11:09:33</time>
      </trkpt>
      <trkpt lat="45.37531" lon="6.12907">
        <ele>932.6204</ele>
        <time>2021-07-18T11:09:34</time>
      </trkpt>
      <trkpt lat="45.3753" lon="6.12908">
        <ele>932.6204</ele>
        <time>2021-07-18T11:09:36</time>
      </trkpt>
      <trkpt lat="45.37529" lon="6.12909">
        <ele>932.6204</ele>
        <time>2021-07-18T11:09:37</time>
      </trkpt>
      <trkpt lat="45.37529" lon="6.1291">
        <ele>932.6204</ele>
        <time>2021-07-18T11:09:38</time>
      </trkpt>
      <trkpt lat="45.37527" lon="6.12911">
        <ele>932.6204</ele>
        <time>2021-07-18T11:09:40</time>
      </trkpt>
      <trkpt lat="45.37525" lon="6.12911">
        <ele>932.6204</ele>
        <time>2021-07-18T11:09:42</time>
      </trkpt>
      <trkpt lat="45.37524" lon="6.1291">
        <ele>932.6204</ele>
        <time>2021-07-18T11:09:44</time>
      </trkpt>
      <trkpt lat="45.37523" lon="6.12911">
        <ele>932.6204</ele>
        <time>2021-07-18T11:09:45</time>
      </trkpt>
      <trkpt lat="45.37522" lon="6.12911">
        <ele>932.6204</ele>
        <time>2021-07-18T11:09:46</time>
      </trkpt>
      <trkpt lat="45.37515" lon="6.12912">
        <ele>932.6204</ele>
        <time>2021-07-18T11:09:54</time>
      </trkpt>
      <trkpt lat="45.37513" lon="6.12912">
        <ele>932.6204</ele>
        <time>2021-07-18T11:09:55</time>
      </trkpt>
      <trkpt lat="45.37508" lon="6.12912">
        <ele>932.6204</ele>
        <time>2021-07-18T11:10:04</time>
      </trkpt>
      <trkpt lat="45.37508" lon="6.12911">
        <ele>932.6204</ele>
        <time>2021-07-18T11:10:08</time>
      </trkpt>
      <trkpt lat="45.37506" lon="6.12913">
        <ele>932.6204</ele>
        <time>2021-07-18T11:10:11</time>
      </trkpt>
      <trkpt lat="45.37503" lon="6.12914">
        <ele>932.6204</ele>
        <time>2021-07-18T11:10:14</time>
      </trkpt>
      <trkpt lat="45.37501" lon="6.12915">
        <ele>949.7538</ele>
        <time>2021-07-18T11:10:17</time>
      </trkpt>
      <trkpt lat="45.375" lon="6.12915">
        <ele>949.7538</ele>
        <time>2021-07-18T11:10:18</time>
      </trkpt>
      <trkpt lat="45.37499" lon="6.12915">
        <ele>949.7538</ele>
        <time>2021-07-18T11:10:19</time>
      </trkpt>
      <trkpt lat="45.37498" lon="6.12916">
        <ele>949.7538</ele>
        <time>2021-07-18T11:10:20</time>
      </trkpt>
      <trkpt lat="45.37498" lon="6.12915">
        <ele>949.7538</ele>
        <time>2021-07-18T11:10:21</time>
      </trkpt>
      <trkpt lat="45.37496" lon="6.12914">
        <ele>949.1204</ele>
        <time>2021-07-18T11:10:25</time>
      </trkpt>
      <trkpt lat="45.37495" lon="6.12914">
        <ele>949.1204</ele>
        <time>2021-07-18T11:10:26</time>
      </trkpt>
      <trkpt lat="45.37493" lon="6.12914">
        <ele>949.1204</ele>
        <time>2021-07-18T11:10:30</time>
      </trkpt>
      <trkpt lat="45.37484" lon="6.12922">
        <ele>954.6204</ele>
        <time>2021-07-18T11:10:43</time>
      </trkpt>
      <trkpt lat="45.37484" lon="6.12922">
        <ele>954.6204</ele>
        <time>2021-07-18T11:10:44</time>
      </trkpt>
      <trkpt lat="45.37484" lon="6.12923">
        <ele>954.6204</ele>
        <time>2021-07-18T11:10:46</time>
      </trkpt>
      <trkpt lat="45.37484" lon="6.12923">
        <ele>954.6204</ele>
        <time>2021-07-18T11:10:47</time>
      </trkpt>
      <trkpt lat="45.37483" lon="6.12923">
        <ele>954.52045</ele>
        <time>2021-07-18T11:10:49</time>
      </trkpt>
      <trkpt lat="45.37483" lon="6.12923">
        <ele>954.52045</ele>
        <time>2021-07-18T11:10:50</time>
      </trkpt>
      <trkpt lat="45.37482" lon="6.12923">
        <ele>954.52045</ele>
        <time>2021-07-18T11:10:52</time>
      </trkpt>
      <trkpt lat="45.37483" lon="6.12924">
        <ele>954.52045</ele>
        <time>2021-07-18T11:10:53</time>
      </trkpt>
      <trkpt lat="45.37483" lon="6.12924">
        <ele>954.52045</ele>
        <time>2021-07-18T11:10:54</time>
      </trkpt>
      <trkpt lat="45.37485" lon="6.12926">
        <ele>950.82043</ele>
        <time>2021-07-18T11:10:58</time>
      </trkpt>
      <trkpt lat="45.37485" lon="6.12925">
        <ele>950.82043</ele>
        <time>2021-07-18T11:11:02</time>
      </trkpt>
      <trkpt lat="45.37485" lon="6.12924">
        <ele>950.82043</ele>
        <time>2021-07-18T11:11:03</time>
      </trkpt>
      <trkpt lat="45.37486" lon="6.12924">
        <ele>950.82043</ele>
        <time>2021-07-18T11:11:04</time>
      </trkpt>
      <trkpt lat="45.37487" lon="6.12923">
        <ele>950.82043</ele>
        <time>2021-07-18T11:11:05</time>
      </trkpt>
      <trkpt lat="45.37488" lon="6.12923">
        <ele>950.82043</ele>
        <time>2021-07-18T11:11:06</time>
      </trkpt>
      <trkpt lat="45.37493" lon="6.12924">
        <ele>952.6204</ele>
        <time>2021-07-18T11:11:10</time>
      </trkpt>
      <trkpt lat="45.37496" lon="6.12925">
        <ele>952.6204</ele>
        <time>2021-07-18T11:11:13</time>
      </trkpt>
      <trkpt lat="45.37496" lon="6.12925">
        <ele>952.6204</ele>
        <time>2021-07-18T11:11:14</time>
      </trkpt>
      <trkpt lat="45.37497" lon="6.12924">
        <ele>952.6204</ele>
        <time>2021-07-18T11:11:15</time>
      </trkpt>
      <trkpt lat="45.37498" lon="6.12923">
        <ele>952.6204</ele>
        <time>2021-07-18T11:11:17</time>
      </trkpt>
      <trkpt lat="45.37499" lon="6.12923">
        <ele>955.4204</ele>
        <time>2021-07-18T11:11:18</time>
      </trkpt>
      <trkpt lat="45.375" lon="6.12924">
        <ele>955.4204</ele>
        <time>2021-07-18T11:11:19</time>
      </trkpt>
      <trkpt lat="45.375" lon="6.12924">
        <ele>955.4204</ele>
        <time>2021-07-18T11:11:20</time>
      </trkpt>
      <trkpt lat="45.375" lon="6.12925">
        <ele>955.4204</ele>
        <time>2021-07-18T11:11:21</time>
      </trkpt>
      <trkpt lat="45.37501" lon="6.12926">
        <ele>955.4204</ele>
        <time>2021-07-18T11:11:22</time>
      </trkpt>
      <trkpt lat="45.37505" lon="6.12926">
        <ele>955.4204</ele>
        <time>2021-07-18T11:11:25</time>
      </trkpt>
      <trkpt lat="45.37506" lon="6.12926">
        <ele>955.4204</ele>
        <time>2021-07-18T11:11:26</time>
      </trkpt>
      <trkpt lat="45.37507" lon="6.12927">
        <ele>955.4204</ele>
        <time>2021-07-18T11:11:27</time>
      </trkpt>
      <trkpt lat="45.37511" lon="6.12928">
        <ele>955.4204</ele>
        <time>2021-07-18T11:11:32</time>
      </trkpt>
      <trkpt lat="45.37512" lon="6.12928">
        <ele>955.4204</ele>
        <time>2021-07-18T11:11:33</time>
      </trkpt>
      <trkpt lat="45.37513" lon="6.12927">
        <ele>955.4204</ele>
        <time>2021-07-18T11:11:34</time>
      </trkpt>
      <trkpt lat="45.37514" lon="6.12927">
        <ele>955.4204</ele>
        <time>2021-07-18T11:11:35</time>
      </trkpt>
      <trkpt lat="45.37515" lon="6.12927">
        <ele>955.4204</ele>
        <time>2021-07-18T11:11:36</time>
      </trkpt>
      <trkpt lat="45.3752" lon="6.1293">
        <ele>956.4204</ele>
        <time>2021-07-18T11:11:41</time>
      </trkpt>
      <trkpt lat="45.37523" lon="6.12932">
        <ele>956.4204</ele>
        <time>2021-07-18T11:11:44</time>
      </trkpt>
      <trkpt lat="45.37527" lon="6.12932">
        <ele>955.6204</ele>
        <time>2021-07-18T11:11:48</time>
      </trkpt>
      <trkpt lat="45.37529" lon="6.1293">
        <ele>955.6204</ele>
        <time>2021-07-18T11:11:52</time>
      </trkpt>
      <trkpt lat="45.3753" lon="6.1293">
        <ele>955.6204</ele>
        <time>2021-07-18T11:11:53</time>
      </trkpt>
      <trkpt lat="45.37531" lon="6.1293">
        <ele>955.6204</ele>
        <time>2021-07-18T11:11:54</time>
      </trkpt>
      <trkpt lat="45.37533" lon="6.1293">
        <ele>955.6204</ele>
        <time>2021-07-18T11:11:55</time>
      </trkpt>
      <trkpt lat="45.37535" lon="6.12931">
        <ele>955.6204</ele>
        <time>2021-07-18T11:11:56</time>
      </trkpt>
      <trkpt lat="45.37541" lon="6.12935">
        <ele>956.52045</ele>
        <time>2021-07-18T11:12:01</time>
      </trkpt>
      <trkpt lat="45.37543" lon="6.12935">
        <ele>956.52045</ele>
        <time>2021-07-18T11:12:03</time>
      </trkpt>
      <trkpt lat="45.37544" lon="6.12934">
        <ele>956.52045</ele>
        <time>2021-07-18T11:12:04</time>
      </trkpt>
      <trkpt lat="45.37547" lon="6.12933">
        <ele>956.52045</ele>
        <time>2021-07-18T11:12:06</time>
      </trkpt>
      <trkpt lat="45.37549" lon="6.12933">
        <ele>956.52045</ele>
        <time>2021-07-18T11:12:07</time>
      </trkpt>
      <trkpt lat="45.37551" lon="6.12934">
        <ele>955.9204</ele>
        <time>2021-07-18T11:12:08</time>
      </trkpt>
      <trkpt lat="45.37553" lon="6.12935">
        <ele>955.9204</ele>
        <time>2021-07-18T11:12:10</time>
      </trkpt>
      <trkpt lat="45.37554" lon="6.12935">
        <ele>955.9204</ele>
        <time>2021-07-18T11:12:11</time>
      </trkpt>
      <trkpt lat="45.37558" lon="6.12932">
        <ele>955.9204</ele>
        <time>2021-07-18T11:12:15</time>
      </trkpt>
      <trkpt lat="45.37559" lon="6.12927">
        <ele>953.72046</ele>
        <time>2021-07-18T11:12:19</time>
      </trkpt>
      <trkpt lat="45.37559" lon="6.12925">
        <ele>953.72046</ele>
        <time>2021-07-18T11:12:20</time>
      </trkpt>
      <trkpt lat="45.37559" lon="6.12922">
        <ele>953.72046</ele>
        <time>2021-07-18T11:12:22</time>
      </trkpt>
      <trkpt lat="45.37559" lon="6.1292">
        <ele>953.72046</ele>
        <time>2021-07-18T11:12:24</time>
      </trkpt>
      <trkpt lat="45.37559" lon="6.12918">
        <ele>953.72046</ele>
        <time>2021-07-18T11:12:25</time>
      </trkpt>
      <trkpt lat="45.37559" lon="6.12914">
        <ele>953.9204</ele>
        <time>2021-07-18T11:12:28</time>
      </trkpt>
      <trkpt lat="45.37559" lon="6.12913">
        <ele>953.9204</ele>
        <time>2021-07-18T11:12:29</time>
      </trkpt>
      <trkpt lat="45.3756" lon="6.12912">
        <ele>953.9204</ele>
        <time>2021-07-18T11:12:30</time>
      </trkpt>
      <trkpt lat="45.37561" lon="6.12912">
        <ele>953.9204</ele>
        <time>2021-07-18T11:12:31</time>
      </trkpt>
      <trkpt lat="45.37562" lon="6.12912">
        <ele>953.9204</ele>
        <time>2021-07-18T11:12:32</time>
      </trkpt>
      <trkpt lat="45.37567" lon="6.12912">
        <ele>953.9204</ele>
        <time>2021-07-18T11:12:36</time>
      </trkpt>
      <trkpt lat="45.37568" lon="6.12911">
        <ele>953.9204</ele>
        <time>2021-07-18T11:12:37</time>
      </trkpt>
      <trkpt lat="45.37568" lon="6.1291">
        <ele>957.0871</ele>
        <time>2021-07-18T11:12:38</time>
      </trkpt>
      <trkpt lat="45.37569" lon="6.1291">
        <ele>957.0871</ele>
        <time>2021-07-18T11:12:39</time>
      </trkpt>
      <trkpt lat="45.3757" lon="6.1291">
        <ele>957.0871</ele>
        <time>2021-07-18T11:12:40</time>
      </trkpt>
      <trkpt lat="45.37572" lon="6.12912">
        <ele>957.0871</ele>
        <time>2021-07-18T11:12:41</time>
      </trkpt>
      <trkpt lat="45.3758" lon="6.12917">
        <ele>957.0871</ele>
        <time>2021-07-18T11:12:45</time>
      </trkpt>
      <trkpt lat="45.37581" lon="6.12917">
        <ele>957.0871</ele>
        <time>2021-07-18T11:12:46</time>
      </trkpt>
      <trkpt lat="45.37582" lon="6.12917">
        <ele>957.0871</ele>
        <time>2021-07-18T11:12:47</time>
      </trkpt>
      <trkpt lat="45.37585" lon="6.12916">
        <ele>954.72046</ele>
        <time>2021-07-18T11:12:50</time>
      </trkpt>
      <trkpt lat="45.37586" lon="6.12916">
        <ele>954.72046</ele>
        <time>2021-07-18T11:12:51</time>
      </trkpt>
      <trkpt lat="45.37588" lon="6.12915">
        <ele>954.72046</ele>
        <time>2021-07-18T11:12:53</time>
      </trkpt>
      <trkpt lat="45.37588" lon="6.12914">
        <ele>954.72046</ele>
        <time>2021-07-18T11:12:54</time>
      </trkpt>
      <trkpt lat="45.37588" lon="6.12913">
        <ele>954.72046</ele>
        <time>2021-07-18T11:12:55</time>
      </trkpt>
      <trkpt lat="45.37589" lon="6.12912">
        <ele>954.72046</ele>
        <time>2021-07-18T11:12:56</time>
      </trkpt>
      <trkpt lat="45.37589" lon="6.12911">
        <ele>954.82043</ele>
        <time>2021-07-18T11:12:58</time>
      </trkpt>
      <trkpt lat="45.37592" lon="6.12911">
        <ele>954.82043</ele>
        <time>2021-07-18T11:13:02</time>
      </trkpt>
      <trkpt lat="45.37593" lon="6.12911">
        <ele>954.82043</ele>
        <time>2021-07-18T11:13:03</time>
      </trkpt>
      <trkpt lat="45.37595" lon="6.12912">
        <ele>954.82043</ele>
        <time>2021-07-18T11:13:05</time>
      </trkpt>
      <trkpt lat="45.37596" lon="6.12913">
        <ele>954.82043</ele>
        <time>2021-07-18T11:13:06</time>
      </trkpt>
      <trkpt lat="45.37601" lon="6.12914">
        <ele>961.9204</ele>
        <time>2021-07-18T11:13:11</time>
      </trkpt>
      <trkpt lat="45.37602" lon="6.12914">
        <ele>961.9204</ele>
        <time>2021-07-18T11:13:12</time>
      </trkpt>
      <trkpt lat="45.37607" lon="6.12916">
        <ele>961.9204</ele>
        <time>2021-07-18T11:13:15</time>
      </trkpt>
      <trkpt lat="45.37611" lon="6.12917">
        <ele>961.72046</ele>
        <time>2021-07-18T11:13:18</time>
      </trkpt>
      <trkpt lat="45.37612" lon="6.12917">
        <ele>961.72046</ele>
        <time>2021-07-18T11:13:19</time>
      </trkpt>
      <trkpt lat="45.37613" lon="6.12917">
        <ele>961.72046</ele>
        <time>2021-07-18T11:13:20</time>
      </trkpt>
      <trkpt lat="45.37613" lon="6.12916">
        <ele>961.72046</ele>
        <time>2021-07-18T11:13:21</time>
      </trkpt>
      <trkpt lat="45.37614" lon="6.12915">
        <ele>961.72046</ele>
        <time>2021-07-18T11:13:22</time>
      </trkpt>
      <trkpt lat="45.37614" lon="6.12915">
        <ele>961.72046</ele>
        <time>2021-07-18T11:13:23</time>
      </trkpt>
      <trkpt lat="45.37615" lon="6.12915">
        <ele>961.72046</ele>
        <time>2021-07-18T11:13:24</time>
      </trkpt>
      <trkpt lat="45.37616" lon="6.12915">
        <ele>961.72046</ele>
        <time>2021-07-18T11:13:25</time>
      </trkpt>
      <trkpt lat="45.37616" lon="6.12915">
        <ele>961.72046</ele>
        <time>2021-07-18T11:13:26</time>
      </trkpt>
      <trkpt lat="45.37617" lon="6.12912">
        <ele>965.6204</ele>
        <time>2021-07-18T11:13:28</time>
      </trkpt>
      <trkpt lat="45.3762" lon="6.12913">
        <ele>965.6204</ele>
        <time>2021-07-18T11:13:30</time>
      </trkpt>
      <trkpt lat="45.37621" lon="6.12913">
        <ele>965.6204</ele>
        <time>2021-07-18T11:13:31</time>
      </trkpt>
      <trkpt lat="45.37622" lon="6.12913">
        <ele>965.6204</ele>
        <time>2021-07-18T11:13:32</time>
      </trkpt>
      <trkpt lat="45.37626" lon="6.12915">
        <ele>965.6204</ele>
        <time>2021-07-18T11:13:35</time>
      </trkpt>
      <trkpt lat="45.37627" lon="6.12915">
        <ele>965.6204</ele>
        <time>2021-07-18T11:13:36</time>
      </trkpt>
      <trkpt lat="45.37638" lon="6.12914">
        <ele>964.2538</ele>
        <time>2021-07-18T11:13:52</time>
      </trkpt>
      <trkpt lat="45.37639" lon="6.12914">
        <ele>964.2538</ele>
        <time>2021-07-18T11:13:53</time>
      </trkpt>
      <trkpt lat="45.3764" lon="6.12915">
        <ele>964.2538</ele>
        <time>2021-07-18T11:13:54</time>
      </trkpt>
      <trkpt lat="45.37642" lon="6.12916">
        <ele>964.2538</ele>
        <time>2021-07-18T11:13:56</time>
      </trkpt>
      <trkpt lat="45.37645" lon="6.12916">
        <ele>967.02045</ele>
        <time>2021-07-18T11:14:00</time>
      </trkpt>
      <trkpt lat="45.37645" lon="6.12916">
        <ele>967.02045</ele>
        <time>2021-07-18T11:14:01</time>
      </trkpt>
      <trkpt lat="45.37646" lon="6.12915">
        <ele>967.02045</ele>
        <time>2021-07-18T11:14:03</time>
      </trkpt>
      <trkpt lat="45.37649" lon="6.12912">
        <ele>967.02045</ele>
        <time>2021-07-18T11:14:06</time>
      </trkpt>
      <trkpt lat="45.37649" lon="6.12912">
        <ele>967.02045</ele>
        <time>2021-07-18T11:14:07</time>
      </trkpt>
      <trkpt lat="45.37651" lon="6.12911">
        <ele>968.4204</ele>
        <time>2021-07-18T11:14:09</time>
      </trkpt>
      <trkpt lat="45.37651" lon="6.12909">
        <ele>968.4204</ele>
        <time>2021-07-18T11:14:10</time>
      </trkpt>
      <trkpt lat="45.37653" lon="6.12909">
        <ele>968.4204</ele>
        <time>2021-07-18T11:14:12</time>
      </trkpt>
      <trkpt lat="45.37655" lon="6.12908">
        <ele>968.4204</ele>
        <time>2021-07-18T11:14:14</time>
      </trkpt>
      <trkpt lat="45.37656" lon="6.12908">
        <ele>968.4204</ele>
        <time>2021-07-18T11:14:15</time>
      </trkpt>
      <trkpt lat="45.37657" lon="6.12907">
        <ele>968.4204</ele>
        <time>2021-07-18T11:14:16</time>
      </trkpt>
      <trkpt lat="45.37658" lon="6.12908">
        <ele>968.4204</ele>
        <time>2021-07-18T11:14:17</time>
      </trkpt>
      <trkpt lat="45.3766" lon="6.12909">
        <ele>973.0204</ele>
        <time>2021-07-18T11:14:19</time>
      </trkpt>
      <trkpt lat="45.37664" lon="6.12909">
        <ele>973.0204</ele>
        <time>2021-07-18T11:14:23</time>
      </trkpt>
      <trkpt lat="45.37665" lon="6.12909">
        <ele>973.0204</ele>
        <time>2021-07-18T11:14:25</time>
      </trkpt>
      <trkpt lat="45.37665" lon="6.12909">
        <ele>973.0204</ele>
        <time>2021-07-18T11:14:26</time>
      </trkpt>
      <trkpt lat="45.37666" lon="6.1291">
        <ele>973.0204</ele>
        <time>2021-07-18T11:14:27</time>
      </trkpt>
      <trkpt lat="45.37668" lon="6.12911">
        <ele>974.32043</ele>
        <time>2021-07-18T11:14:28</time>
      </trkpt>
      <trkpt lat="45.37669" lon="6.12912">
        <ele>974.32043</ele>
        <time>2021-07-18T11:14:29</time>
      </trkpt>
      <trkpt lat="45.37675" lon="6.12916">
        <ele>974.32043</ele>
        <time>2021-07-18T11:14:34</time>
      </trkpt>
      <trkpt lat="45.37678" lon="6.12929">
        <ele>974.0204</ele>
        <time>2021-07-18T11:14:42</time>
      </trkpt>
      <trkpt lat="45.37677" lon="6.1293">
        <ele>974.0204</ele>
        <time>2021-07-18T11:14:43</time>
      </trkpt>
      <trkpt lat="45.37677" lon="6.12932">
        <ele>974.0204</ele>
        <time>2021-07-18T11:14:44</time>
      </trkpt>
      <trkpt lat="45.37676" lon="6.12933">
        <ele>974.0204</ele>
        <time>2021-07-18T11:14:45</time>
      </trkpt>
      <trkpt lat="45.37673" lon="6.12935">
        <ele>976.5204</ele>
        <time>2021-07-18T11:14:49</time>
      </trkpt>
      <trkpt lat="45.3767" lon="6.12937">
        <ele>976.5204</ele>
        <time>2021-07-18T11:14:53</time>
      </trkpt>
      <trkpt lat="45.37669" lon="6.12937">
        <ele>976.5204</ele>
        <time>2021-07-18T11:14:54</time>
      </trkpt>
      <trkpt lat="45.37668" lon="6.12937">
        <ele>976.5204</ele>
        <time>2021-07-18T11:14:55</time>
      </trkpt>
      <trkpt lat="45.37668" lon="6.12937">
        <ele>976.5204</ele>
        <time>2021-07-18T11:14:57</time>
      </trkpt>
      <trkpt lat="45.37667" lon="6.12937">
        <ele>979.1538</ele>
        <time>2021-07-18T11:14:59</time>
      </trkpt>
      <trkpt lat="45.37666" lon="6.12936">
        <ele>979.1538</ele>
        <time>2021-07-18T11:15:00</time>
      </trkpt>
      <trkpt lat="45.37666" lon="6.12936">
        <ele>979.1538</ele>
        <time>2021-07-18T11:15:01</time>
      </trkpt>
      <trkpt lat="45.37664" lon="6.12934">
        <ele>979.1538</ele>
        <time>2021-07-18T11:15:05</time>
      </trkpt>
      <trkpt lat="45.37663" lon="6.12935">
        <ele>979.5204</ele>
        <time>2021-07-18T11:15:08</time>
      </trkpt>
      <trkpt lat="45.37661" lon="6.12935">
        <ele>979.5204</ele>
        <time>2021-07-18T11:15:10</time>
      </trkpt>
      <trkpt lat="45.3766" lon="6.12935">
        <ele>979.5204</ele>
        <time>2021-07-18T11:15:11</time>
      </trkpt>
      <trkpt lat="45.3766" lon="6.12936">
        <ele>979.5204</ele>
        <time>2021-07-18T11:15:12</time>
      </trkpt>
      <trkpt lat="45.3766" lon="6.12935">
        <ele>979.5204</ele>
        <time>2021-07-18T11:15:13</time>
      </trkpt>
      <trkpt lat="45.37658" lon="6.12936">
        <ele>979.5204</ele>
        <time>2021-07-18T11:15:20</time>
      </trkpt>
      <trkpt lat="45.37657" lon="6.12936">
        <ele>979.5204</ele>
        <time>2021-07-18T11:15:21</time>
      </trkpt>
      <trkpt lat="45.37656" lon="6.12936">
        <ele>979.5204</ele>
        <time>2021-07-18T11:15:22</time>
      </trkpt>
      <trkpt lat="45.37655" lon="6.12937">
        <ele>979.5204</ele>
        <time>2021-07-18T11:15:23</time>
      </trkpt>
      <trkpt lat="45.37654" lon="6.12938">
        <ele>979.5204</ele>
        <time>2021-07-18T11:15:24</time>
      </trkpt>
      <trkpt lat="45.37653" lon="6.12938">
        <ele>979.5204</ele>
        <time>2021-07-18T11:15:25</time>
      </trkpt>
      <trkpt lat="45.37652" lon="6.12938">
        <ele>979.5204</ele>
        <time>2021-07-18T11:15:26</time>
      </trkpt>
      <trkpt lat="45.37651" lon="6.12938">
        <ele>979.5204</ele>
        <time>2021-07-18T11:15:27</time>
      </trkpt>
      <trkpt lat="45.3765" lon="6.12937">
        <ele>990.1205</ele>
        <time>2021-07-18T11:15:28</time>
      </trkpt>
      <trkpt lat="45.37649" lon="6.12936">
        <ele>990.1205</ele>
        <time>2021-07-18T11:15:29</time>
      </trkpt>
      <trkpt lat="45.37643" lon="6.12933">
        <ele>990.1205</ele>
        <time>2021-07-18T11:15:33</time>
      </trkpt>
      <trkpt lat="45.37642" lon="6.12932">
        <ele>990.1205</ele>
        <time>2021-07-18T11:15:34</time>
      </trkpt>
      <trkpt lat="45.37638" lon="6.12932">
        <ele>990.1205</ele>
        <time>2021-07-18T11:15:37</time>
      </trkpt>
      <trkpt lat="45.37636" lon="6.12933">
        <ele>992.4204</ele>
        <time>2021-07-18T11:15:39</time>
      </trkpt>
      <trkpt lat="45.37635" lon="6.12934">
        <ele>992.4204</ele>
        <time>2021-07-18T11:15:40</time>
      </trkpt>
      <trkpt lat="45.37634" lon="6.12935">
        <ele>992.4204</ele>
        <time>2021-07-18T11:15:41</time>
      </trkpt>
      <trkpt lat="45.37632" lon="6.12938">
        <ele>992.4204</ele>
        <time>2021-07-18T11:15:43</time>
      </trkpt>
      <trkpt lat="45.3763" lon="6.1294">
        <ele>992.4204</ele>
        <time>2021-07-18T11:15:45</time>
      </trkpt>
      <trkpt lat="45.37629" lon="6.1294">
        <ele>992.4204</ele>
        <time>2021-07-18T11:15:47</time>
      </trkpt>
      <trkpt lat="45.37627" lon="6.1294">
        <ele>986.22046</ele>
        <time>2021-07-18T11:15:48</time>
      </trkpt>
      <trkpt lat="45.37625" lon="6.12941">
        <ele>986.22046</ele>
        <time>2021-07-18T11:15:50</time>
      </trkpt>
      <trkpt lat="45.37624" lon="6.12942">
        <ele>986.22046</ele>
        <time>2021-07-18T11:15:51</time>
      </trkpt>
      <trkpt lat="45.37622" lon="6.12943">
        <ele>986.22046</ele>
        <time>2021-07-18T11:15:53</time>
      </trkpt>
      <trkpt lat="45.37621" lon="6.12943">
        <ele>986.22046</ele>
        <time>2021-07-18T11:15:54</time>
      </trkpt>
      <trkpt lat="45.3762" lon="6.12943">
        <ele>986.22046</ele>
        <time>2021-07-18T11:15:55</time>
      </trkpt>
      <trkpt lat="45.3762" lon="6.12944">
        <ele>986.22046</ele>
        <time>2021-07-18T11:15:56</time>
      </trkpt>
      <trkpt lat="45.37619" lon="6.12945">
        <ele>986.22046</ele>
        <time>2021-07-18T11:15:57</time>
      </trkpt>
      <trkpt lat="45.37618" lon="6.12947">
        <ele>987.0204</ele>
        <time>2021-07-18T11:15:59</time>
      </trkpt>
      <trkpt lat="45.37617" lon="6.12949">
        <ele>987.0204</ele>
        <time>2021-07-18T11:16:01</time>
      </trkpt>
      <trkpt lat="45.37617" lon="6.1295">
        <ele>987.0204</ele>
        <time>2021-07-18T11:16:02</time>
      </trkpt>
      <trkpt lat="45.37617" lon="6.12951">
        <ele>987.0204</ele>
        <time>2021-07-18T11:16:03</time>
      </trkpt>
      <trkpt lat="45.37616" lon="6.12952">
        <ele>987.0204</ele>
        <time>2021-07-18T11:16:05</time>
      </trkpt>
      <trkpt lat="45.37615" lon="6.12953">
        <ele>987.0204</ele>
        <time>2021-07-18T11:16:06</time>
      </trkpt>
      <trkpt lat="45.37613" lon="6.12955">
        <ele>988.82043</ele>
        <time>2021-07-18T11:16:08</time>
      </trkpt>
      <trkpt lat="45.3761" lon="6.12957">
        <ele>988.82043</ele>
        <time>2021-07-18T11:16:11</time>
      </trkpt>
      <trkpt lat="45.37609" lon="6.12958">
        <ele>988.82043</ele>
        <time>2021-07-18T11:16:12</time>
      </trkpt>
      <trkpt lat="45.37609" lon="6.12959">
        <ele>988.82043</ele>
        <time>2021-07-18T11:16:13</time>
      </trkpt>
      <trkpt lat="45.37605" lon="6.12963">
        <ele>991.72046</ele>
        <time>2021-07-18T11:16:18</time>
      </trkpt>
      <trkpt lat="45.37604" lon="6.12964">
        <ele>991.72046</ele>
        <time>2021-07-18T11:16:19</time>
      </trkpt>
      <trkpt lat="45.37604" lon="6.12965">
        <ele>991.72046</ele>
        <time>2021-07-18T11:16:20</time>
      </trkpt>
      <trkpt lat="45.37605" lon="6.12967">
        <ele>991.72046</ele>
        <time>2021-07-18T11:16:21</time>
      </trkpt>
      <trkpt lat="45.37605" lon="6.1297">
        <ele>991.72046</ele>
        <time>2021-07-18T11:16:23</time>
      </trkpt>
      <trkpt lat="45.37604" lon="6.12971">
        <ele>991.72046</ele>
        <time>2021-07-18T11:16:24</time>
      </trkpt>
      <trkpt lat="45.37604" lon="6.12971">
        <ele>991.72046</ele>
        <time>2021-07-18T11:16:25</time>
      </trkpt>
      <trkpt lat="45.37603" lon="6.12972">
        <ele>991.72046</ele>
        <time>2021-07-18T11:16:27</time>
      </trkpt>
      <trkpt lat="45.37602" lon="6.12972">
        <ele>991.72046</ele>
        <time>2021-07-18T11:16:29</time>
      </trkpt>
      <trkpt lat="45.376" lon="6.12973">
        <ele>991.72046</ele>
        <time>2021-07-18T11:16:32</time>
      </trkpt>
      <trkpt lat="45.37599" lon="6.12975">
        <ele>991.72046</ele>
        <time>2021-07-18T11:16:34</time>
      </trkpt>
      <trkpt lat="45.37599" lon="6.12976">
        <ele>991.72046</ele>
        <time>2021-07-18T11:16:35</time>
      </trkpt>
      <trkpt lat="45.37598" lon="6.12976">
        <ele>991.72046</ele>
        <time>2021-07-18T11:16:36</time>
      </trkpt>
      <trkpt lat="45.37597" lon="6.12976">
        <ele>991.72046</ele>
        <time>2021-07-18T11:16:37</time>
      </trkpt>
      <trkpt lat="45.37596" lon="6.12976">
        <ele>991.72046</ele>
        <time>2021-07-18T11:16:38</time>
      </trkpt>
      <trkpt lat="45.37594" lon="6.12976">
        <ele>991.72046</ele>
        <time>2021-07-18T11:16:41</time>
      </trkpt>
      <trkpt lat="45.37593" lon="6.12977">
        <ele>991.72046</ele>
        <time>2021-07-18T11:16:42</time>
      </trkpt>
      <trkpt lat="45.37593" lon="6.12979">
        <ele>991.72046</ele>
        <time>2021-07-18T11:16:43</time>
      </trkpt>
      <trkpt lat="45.37593" lon="6.12983">
        <ele>991.72046</ele>
        <time>2021-07-18T11:16:45</time>
      </trkpt>
      <trkpt lat="45.37595" lon="6.12988">
        <ele>991.72046</ele>
        <time>2021-07-18T11:16:46</time>
      </trkpt>
      <trkpt lat="45.37595" lon="6.1299">
        <ele>991.72046</ele>
        <time>2021-07-18T11:16:47</time>
      </trkpt>
      <trkpt lat="45.37595" lon="6.12991">
        <ele>1006.22046</ele>
        <time>2021-07-18T11:16:48</time>
      </trkpt>
      <trkpt lat="45.37595" lon="6.12992">
        <ele>1006.22046</ele>
        <time>2021-07-18T11:16:49</time>
      </trkpt>
      <trkpt lat="45.37595" lon="6.12993">
        <ele>1006.22046</ele>
        <time>2021-07-18T11:16:50</time>
      </trkpt>
      <trkpt lat="45.37594" lon="6.12993">
        <ele>1006.22046</ele>
        <time>2021-07-18T11:16:51</time>
      </trkpt>
      <trkpt lat="45.37594" lon="6.12994">
        <ele>1006.22046</ele>
        <time>2021-07-18T11:16:52</time>
      </trkpt>
      <trkpt lat="45.37593" lon="6.12995">
        <ele>1006.22046</ele>
        <time>2021-07-18T11:16:53</time>
      </trkpt>
      <trkpt lat="45.37593" lon="6.12997">
        <ele>1006.22046</ele>
        <time>2021-07-18T11:16:54</time>
      </trkpt>
      <trkpt lat="45.37592" lon="6.12999">
        <ele>1006.22046</ele>
        <time>2021-07-18T11:16:56</time>
      </trkpt>
      <trkpt lat="45.37591" lon="6.13">
        <ele>1006.22046</ele>
        <time>2021-07-18T11:16:57</time>
      </trkpt>
      <trkpt lat="45.37591" lon="6.13001">
        <ele>1000.4204</ele>
        <time>2021-07-18T11:16:58</time>
      </trkpt>
      <trkpt lat="45.37589" lon="6.13">
        <ele>1000.4204</ele>
        <time>2021-07-18T11:16:59</time>
      </trkpt>
      <trkpt lat="45.37588" lon="6.13">
        <ele>1000.4204</ele>
        <time>2021-07-18T11:17:00</time>
      </trkpt>
      <trkpt lat="45.37587" lon="6.12999">
        <ele>1000.4204</ele>
        <time>2021-07-18T11:17:01</time>
      </trkpt>
      <trkpt lat="45.37584" lon="6.12999">
        <ele>1000.4204</ele>
        <time>2021-07-18T11:17:03</time>
      </trkpt>
      <trkpt lat="45.37583" lon="6.12999">
        <ele>1000.4204</ele>
        <time>2021-07-18T11:17:04</time>
      </trkpt>
      <trkpt lat="45.37582" lon="6.12999">
        <ele>1000.4204</ele>
        <time>2021-07-18T11:17:05</time>
      </trkpt>
      <trkpt lat="45.37579" lon="6.13">
        <ele>998.4204</ele>
        <time>2021-07-18T11:17:08</time>
      </trkpt>
      <trkpt lat="45.37573" lon="6.12999">
        <ele>998.4204</ele>
        <time>2021-07-18T11:17:12</time>
      </trkpt>
      <trkpt lat="45.37572" lon="6.12999">
        <ele>998.4204</ele>
        <time>2021-07-18T11:17:13</time>
      </trkpt>
      <trkpt lat="45.37571" lon="6.12999">
        <ele>998.4204</ele>
        <time>2021-07-18T11:17:14</time>
      </trkpt>
      <trkpt lat="45.3757" lon="6.13001">
        <ele>998.4204</ele>
        <time>2021-07-18T11:17:16</time>
      </trkpt>
      <trkpt lat="45.37569" lon="6.13001">
        <ele>998.4204</ele>
        <time>2021-07-18T11:17:17</time>
      </trkpt>
      <trkpt lat="45.37567" lon="6.13">
        <ele>1007.32043</ele>
        <time>2021-07-18T11:17:18</time>
      </trkpt>
      <trkpt lat="45.37566" lon="6.13001">
        <ele>1007.32043</ele>
        <time>2021-07-18T11:17:20</time>
      </trkpt>
      <trkpt lat="45.37565" lon="6.13005">
        <ele>1007.32043</ele>
        <time>2021-07-18T11:17:23</time>
      </trkpt>
      <trkpt lat="45.37565" lon="6.13012">
        <ele>1007.32043</ele>
        <time>2021-07-18T11:17:26</time>
      </trkpt>
      <trkpt lat="45.37563" lon="6.13014">
        <ele>1007.32043</ele>
        <time>2021-07-18T11:17:29</time>
      </trkpt>
      <trkpt lat="45.37562" lon="6.13016">
        <ele>1007.32043</ele>
        <time>2021-07-18T11:17:30</time>
      </trkpt>
      <trkpt lat="45.37561" lon="6.13016">
        <ele>1007.32043</ele>
        <time>2021-07-18T11:17:31</time>
      </trkpt>
      <trkpt lat="45.37561" lon="6.13016">
        <ele>1007.32043</ele>
        <time>2021-07-18T11:17:32</time>
      </trkpt>
      <trkpt lat="45.3756" lon="6.13021">
        <ele>1007.32043</ele>
        <time>2021-07-18T11:17:35</time>
      </trkpt>
      <trkpt lat="45.37559" lon="6.13025">
        <ele>1007.32043</ele>
        <time>2021-07-18T11:17:39</time>
      </trkpt>
      <trkpt lat="45.37559" lon="6.13031">
        <ele>1007.32043</ele>
        <time>2021-07-18T11:17:41</time>
      </trkpt>
      <trkpt lat="45.37559" lon="6.13035">
        <ele>1007.32043</ele>
        <time>2021-07-18T11:17:44</time>
      </trkpt>
      <trkpt lat="45.37558" lon="6.13035">
        <ele>1007.32043</ele>
        <time>2021-07-18T11:17:45</time>
      </trkpt>
      <trkpt lat="45.37556" lon="6.13035">
        <ele>1007.32043</ele>
        <time>2021-07-18T11:17:47</time>
      </trkpt>
      <trkpt lat="45.37555" lon="6.13035">
        <ele>1015.6205</ele>
        <time>2021-07-18T11:17:48</time>
      </trkpt>
      <trkpt lat="45.37555" lon="6.13035">
        <ele>1015.6205</ele>
        <time>2021-07-18T11:17:49</time>
      </trkpt>
      <trkpt lat="45.37553" lon="6.13036">
        <ele>1015.6205</ele>
        <time>2021-07-18T11:17:51</time>
      </trkpt>
      <trkpt lat="45.37553" lon="6.13039">
        <ele>1015.6205</ele>
        <time>2021-07-18T11:17:54</time>
      </trkpt>
      <trkpt lat="45.37552" lon="6.13039">
        <ele>1015.6205</ele>
        <time>2021-07-18T11:17:55</time>
      </trkpt>
      <trkpt lat="45.37551" lon="6.1304">
        <ele>1015.6205</ele>
        <time>2021-07-18T11:17:56</time>
      </trkpt>
      <trkpt lat="45.37551" lon="6.1304">
        <ele>1015.6205</ele>
        <time>2021-07-18T11:17:57</time>
      </trkpt>
      <trkpt lat="45.37551" lon="6.13041">
        <ele>1019.22046</ele>
        <time>2021-07-18T11:17:58</time>
      </trkpt>
      <trkpt lat="45.37551" lon="6.13041">
        <ele>1019.22046</ele>
        <time>2021-07-18T11:17:59</time>
      </trkpt>
      <trkpt lat="45.3755" lon="6.13042">
        <ele>1019.22046</ele>
        <time>2021-07-18T11:18:00</time>
      </trkpt>
      <trkpt lat="45.3755" lon="6.13042">
        <ele>1019.22046</ele>
        <time>2021-07-18T11:18:01</time>
      </trkpt>
      <trkpt lat="45.37549" lon="6.13042">
        <ele>1019.22046</ele>
        <time>2021-07-18T11:18:02</time>
      </trkpt>
      <trkpt lat="45.37548" lon="6.13042">
        <ele>1019.22046</ele>
        <time>2021-07-18T11:18:04</time>
      </trkpt>
      <trkpt lat="45.37548" lon="6.13042">
        <ele>1019.22046</ele>
        <time>2021-07-18T11:18:05</time>
      </trkpt>
      <trkpt lat="45.37547" lon="6.13041">
        <ele>1019.22046</ele>
        <time>2021-07-18T11:18:06</time>
      </trkpt>
      <trkpt lat="45.37545" lon="6.13039">
        <ele>1020.4204</ele>
        <time>2021-07-18T11:18:08</time>
      </trkpt>
      <trkpt lat="45.37544" lon="6.13036">
        <ele>1020.4204</ele>
        <time>2021-07-18T11:18:10</time>
      </trkpt>
      <trkpt lat="45.37543" lon="6.13035">
        <ele>1020.4204</ele>
        <time>2021-07-18T11:18:11</time>
      </trkpt>
      <trkpt lat="45.37542" lon="6.13034">
        <ele>1020.4204</ele>
        <time>2021-07-18T11:18:12</time>
      </trkpt>
      <trkpt lat="45.37536" lon="6.13037">
        <ele>1020.4204</ele>
        <time>2021-07-18T11:18:21</time>
      </trkpt>
      <trkpt lat="45.37535" lon="6.13037">
        <ele>1020.4204</ele>
        <time>2021-07-18T11:18:22</time>
      </trkpt>
      <trkpt lat="45.3753" lon="6.13042">
        <ele>1027.9204</ele>
        <time>2021-07-18T11:18:29</time>
      </trkpt>
      <trkpt lat="45.37529" lon="6.13044">
        <ele>1027.9204</ele>
        <time>2021-07-18T11:18:30</time>
      </trkpt>
      <trkpt lat="45.37528" lon="6.13047">
        <ele>1027.9204</ele>
        <time>2021-07-18T11:18:32</time>
      </trkpt>
      <trkpt lat="45.37527" lon="6.13047">
        <ele>1027.9204</ele>
        <time>2021-07-18T11:18:33</time>
      </trkpt>
      <trkpt lat="45.37527" lon="6.13048">
        <ele>1027.9204</ele>
        <time>2021-07-18T11:18:34</time>
      </trkpt>
      <trkpt lat="45.37526" lon="6.13048">
        <ele>1027.9204</ele>
        <time>2021-07-18T11:18:35</time>
      </trkpt>
      <trkpt lat="45.37523" lon="6.13048">
        <ele>1027.9204</ele>
        <time>2021-07-18T11:18:37</time>
      </trkpt>
      <trkpt lat="45.37522" lon="6.13048">
        <ele>1027.9204</ele>
        <time>2021-07-18T11:18:38</time>
      </trkpt>
      <trkpt lat="45.37521" lon="6.13047">
        <ele>1027.9204</ele>
        <time>2021-07-18T11:18:39</time>
      </trkpt>
      <trkpt lat="45.37519" lon="6.13047">
        <ele>1027.9204</ele>
        <time>2021-07-18T11:18:41</time>
      </trkpt>
      <trkpt lat="45.37517" lon="6.13046">
        <ele>1027.9204</ele>
        <time>2021-07-18T11:18:42</time>
      </trkpt>
      <trkpt lat="45.37517" lon="6.13046">
        <ele>1027.9204</ele>
        <time>2021-07-18T11:18:43</time>
      </trkpt>
      <trkpt lat="45.37516" lon="6.13045">
        <ele>1027.9204</ele>
        <time>2021-07-18T11:18:44</time>
      </trkpt>
      <trkpt lat="45.37516" lon="6.13045">
        <ele>1027.9204</ele>
        <time>2021-07-18T11:18:45</time>
      </trkpt>
      <trkpt lat="45.37515" lon="6.13045">
        <ele>1027.9204</ele>
        <time>2021-07-18T11:18:47</time>
      </trkpt>
      <trkpt lat="45.37514" lon="6.13045">
        <ele>1027.9204</ele>
        <time>2021-07-18T11:18:48</time>
      </trkpt>
      <trkpt lat="45.37513" lon="6.13045">
        <ele>1027.9204</ele>
        <time>2021-07-18T11:18:49</time>
      </trkpt>
      <trkpt lat="45.37511" lon="6.13046">
        <ele>1027.9204</ele>
        <time>2021-07-18T11:18:51</time>
      </trkpt>
      <trkpt lat="45.3751" lon="6.13047">
        <ele>1027.9204</ele>
        <time>2021-07-18T11:18:52</time>
      </trkpt>
      <trkpt lat="45.37509" lon="6.13048">
        <ele>1027.9204</ele>
        <time>2021-07-18T11:18:53</time>
      </trkpt>
      <trkpt lat="45.37508" lon="6.13048">
        <ele>1027.9204</ele>
        <time>2021-07-18T11:18:54</time>
      </trkpt>
      <trkpt lat="45.37506" lon="6.13051">
        <ele>1027.9204</ele>
        <time>2021-07-18T11:18:56</time>
      </trkpt>
      <trkpt lat="45.37505" lon="6.13051">
        <ele>1027.9204</ele>
        <time>2021-07-18T11:18:57</time>
      </trkpt>
      <trkpt lat="45.37504" lon="6.13052">
        <ele>1027.9204</ele>
        <time>2021-07-18T11:18:58</time>
      </trkpt>
      <trkpt lat="45.37504" lon="6.13052">
        <ele>1027.9204</ele>
        <time>2021-07-18T11:18:59</time>
      </trkpt>
      <trkpt lat="45.37502" lon="6.13053">
        <ele>1027.9204</ele>
        <time>2021-07-18T11:19:01</time>
      </trkpt>
      <trkpt lat="45.37501" lon="6.13054">
        <ele>1027.9204</ele>
        <time>2021-07-18T11:19:02</time>
      </trkpt>
      <trkpt lat="45.375" lon="6.13056">
        <ele>1027.9204</ele>
        <time>2021-07-18T11:19:04</time>
      </trkpt>
      <trkpt lat="45.37499" lon="6.13056">
        <ele>1027.9204</ele>
        <time>2021-07-18T11:19:05</time>
      </trkpt>
      <trkpt lat="45.37498" lon="6.13056">
        <ele>1027.9204</ele>
        <time>2021-07-18T11:19:06</time>
      </trkpt>
      <trkpt lat="45.37497" lon="6.13056">
        <ele>1027.9204</ele>
        <time>2021-07-18T11:19:07</time>
      </trkpt>
      <trkpt lat="45.37496" lon="6.13056">
        <ele>1027.9204</ele>
        <time>2021-07-18T11:19:08</time>
      </trkpt>
      <trkpt lat="45.37495" lon="6.13056">
        <ele>1027.9204</ele>
        <time>2021-07-18T11:19:09</time>
      </trkpt>
      <trkpt lat="45.37495" lon="6.13056">
        <ele>1027.9204</ele>
        <time>2021-07-18T11:19:10</time>
      </trkpt>
      <trkpt lat="45.37494" lon="6.13057">
        <ele>1027.9204</ele>
        <time>2021-07-18T11:19:11</time>
      </trkpt>
      <trkpt lat="45.37494" lon="6.13058">
        <ele>1027.9204</ele>
        <time>2021-07-18T11:19:12</time>
      </trkpt>
      <trkpt lat="45.37494" lon="6.13059">
        <ele>1027.9204</ele>
        <time>2021-07-18T11:19:13</time>
      </trkpt>
      <trkpt lat="45.37493" lon="6.13059">
        <ele>1027.9204</ele>
        <time>2021-07-18T11:19:14</time>
      </trkpt>
      <trkpt lat="45.37493" lon="6.1306">
        <ele>1027.9204</ele>
        <time>2021-07-18T11:19:15</time>
      </trkpt>
      <trkpt lat="45.37492" lon="6.13061">
        <ele>1027.9204</ele>
        <time>2021-07-18T11:19:16</time>
      </trkpt>
      <trkpt lat="45.3749" lon="6.13061">
        <ele>1027.9204</ele>
        <time>2021-07-18T11:19:17</time>
      </trkpt>
      <trkpt lat="45.37486" lon="6.13061">
        <ele>1027.9204</ele>
        <time>2021-07-18T11:19:20</time>
      </trkpt>
      <trkpt lat="45.37484" lon="6.13061">
        <ele>1027.9204</ele>
        <time>2021-07-18T11:19:22</time>
      </trkpt>
      <trkpt lat="45.37474" lon="6.13064">
        <ele>1027.9204</ele>
        <time>2021-07-18T11:19:31</time>
      </trkpt>
      <trkpt lat="45.37469" lon="6.13061">
        <ele>1027.9204</ele>
        <time>2021-07-18T11:19:38</time>
      </trkpt>
      <trkpt lat="45.37469" lon="6.13062">
        <ele>1027.9204</ele>
        <time>2021-07-18T11:19:40</time>
      </trkpt>
      <trkpt lat="45.37466" lon="6.13063">
        <ele>1027.9204</ele>
        <time>2021-07-18T11:19:43</time>
      </trkpt>
      <trkpt lat="45.37463" lon="6.13063">
        <ele>1027.9204</ele>
        <time>2021-07-18T11:19:47</time>
      </trkpt>
      <trkpt lat="45.37456" lon="6.1306">
        <ele>1027.9204</ele>
        <time>2021-07-18T11:19:57</time>
      </trkpt>
      <trkpt lat="45.37444" lon="6.13063">
        <ele>1027.9204</ele>
        <time>2021-07-18T11:20:11</time>
      </trkpt>
      <trkpt lat="45.37443" lon="6.13063">
        <ele>1027.9204</ele>
        <time>2021-07-18T11:20:12</time>
      </trkpt>
      <trkpt lat="45.37441" lon="6.13062">
        <ele>1027.9204</ele>
        <time>2021-07-18T11:20:13</time>
      </trkpt>
      <trkpt lat="45.37439" lon="6.13061">
        <ele>1027.9204</ele>
        <time>2021-07-18T11:20:16</time>
      </trkpt>
      <trkpt lat="45.37439" lon="6.13062">
        <ele>1027.9204</ele>
        <time>2021-07-18T11:20:17</time>
      </trkpt>
      <trkpt lat="45.37439" lon="6.13063">
        <ele>1027.9204</ele>
        <time>2021-07-18T11:20:18</time>
      </trkpt>
      <trkpt lat="45.37438" lon="6.13064">
        <ele>1027.9204</ele>
        <time>2021-07-18T11:20:19</time>
      </trkpt>
      <trkpt lat="45.37428" lon="6.13066">
        <ele>1027.9204</ele>
        <time>2021-07-18T11:20:29</time>
      </trkpt>
      <trkpt lat="45.37426" lon="6.13066">
        <ele>1027.9204</ele>
        <time>2021-07-18T11:20:31</time>
      </trkpt>
      <trkpt lat="45.37423" lon="6.13068">
        <ele>1027.9204</ele>
        <time>2021-07-18T11:20:35</time>
      </trkpt>
      <trkpt lat="45.37422" lon="6.13068">
        <ele>1027.9204</ele>
        <time>2021-07-18T11:20:36</time>
      </trkpt>
      <trkpt lat="45.37421" lon="6.13069">
        <ele>1027.9204</ele>
        <time>2021-07-18T11:20:37</time>
      </trkpt>
      <trkpt lat="45.3742" lon="6.1307">
        <ele>1027.9204</ele>
        <time>2021-07-18T11:20:38</time>
      </trkpt>
      <trkpt lat="45.37419" lon="6.1307">
        <ele>1027.9204</ele>
        <time>2021-07-18T11:20:40</time>
      </trkpt>
      <trkpt lat="45.37417" lon="6.1307">
        <ele>1027.9204</ele>
        <time>2021-07-18T11:20:41</time>
      </trkpt>
      <trkpt lat="45.37415" lon="6.1307">
        <ele>1027.9204</ele>
        <time>2021-07-18T11:20:43</time>
      </trkpt>
      <trkpt lat="45.37413" lon="6.1307">
        <ele>1027.9204</ele>
        <time>2021-07-18T11:20:45</time>
      </trkpt>
      <trkpt lat="45.37405" lon="6.13078">
        <ele>1027.9204</ele>
        <time>2021-07-18T11:20:55</time>
      </trkpt>
      <trkpt lat="45.37403" lon="6.13088">
        <ele>1027.9204</ele>
        <time>2021-07-18T11:21:00</time>
      </trkpt>
      <trkpt lat="45.37402" lon="6.13089">
        <ele>1027.9204</ele>
        <time>2021-07-18T11:21:01</time>
      </trkpt>
      <trkpt lat="45.37394" lon="6.13092">
        <ele>1027.9204</ele>
        <time>2021-07-18T11:21:11</time>
      </trkpt>
      <trkpt lat="45.37394" lon="6.13092">
        <ele>1027.9204</ele>
        <time>2021-07-18T11:21:12</time>
      </trkpt>
      <trkpt lat="45.37392" lon="6.13095">
        <ele>1027.9204</ele>
        <time>2021-07-18T11:21:15</time>
      </trkpt>
      <trkpt lat="45.3739" lon="6.13099">
        <ele>1027.9204</ele>
        <time>2021-07-18T11:21:18</time>
      </trkpt>
      <trkpt lat="45.3739" lon="6.13102">
        <ele>1027.9204</ele>
        <time>2021-07-18T11:21:20</time>
      </trkpt>
      <trkpt lat="45.3739" lon="6.13104">
        <ele>1027.9204</ele>
        <time>2021-07-18T11:21:22</time>
      </trkpt>
      <trkpt lat="45.3739" lon="6.13105">
        <ele>1027.9204</ele>
        <time>2021-07-18T11:21:23</time>
      </trkpt>
      <trkpt lat="45.37388" lon="6.13111">
        <ele>1027.9204</ele>
        <time>2021-07-18T11:21:27</time>
      </trkpt>
      <trkpt lat="45.37388" lon="6.13122">
        <ele>1027.9204</ele>
        <time>2021-07-18T11:21:37</time>
      </trkpt>
      <trkpt lat="45.37388" lon="6.13122">
        <ele>1027.9204</ele>
        <time>2021-07-18T11:21:38</time>
      </trkpt>
      <trkpt lat="45.37387" lon="6.13124">
        <ele>1027.9204</ele>
        <time>2021-07-18T11:21:40</time>
      </trkpt>
      <trkpt lat="45.37387" lon="6.13127">
        <ele>1027.9204</ele>
        <time>2021-07-18T11:21:42</time>
      </trkpt>
      <trkpt lat="45.37387" lon="6.13129">
        <ele>1027.9204</ele>
        <time>2021-07-18T11:21:43</time>
      </trkpt>
      <trkpt lat="45.37387" lon="6.13133">
        <ele>1027.9204</ele>
        <time>2021-07-18T11:21:46</time>
      </trkpt>
      <trkpt lat="45.37387" lon="6.13135">
        <ele>1027.9204</ele>
        <time>2021-07-18T11:21:48</time>
      </trkpt>
      <trkpt lat="45.37387" lon="6.13136">
        <ele>1027.9204</ele>
        <time>2021-07-18T11:21:49</time>
      </trkpt>
      <trkpt lat="45.37385" lon="6.13137">
        <ele>1027.9204</ele>
        <time>2021-07-18T11:21:50</time>
      </trkpt>
      <trkpt lat="45.37384" lon="6.13136">
        <ele>1027.9204</ele>
        <time>2021-07-18T11:21:51</time>
      </trkpt>
      <trkpt lat="45.37383" lon="6.13136">
        <ele>1027.9204</ele>
        <time>2021-07-18T11:21:52</time>
      </trkpt>
      <trkpt lat="45.37378" lon="6.13135">
        <ele>1027.9204</ele>
        <time>2021-07-18T11:21:55</time>
      </trkpt>
      <trkpt lat="45.37377" lon="6.13136">
        <ele>1027.9204</ele>
        <time>2021-07-18T11:21:56</time>
      </trkpt>
      <trkpt lat="45.37376" lon="6.13137">
        <ele>1027.9204</ele>
        <time>2021-07-18T11:21:57</time>
      </trkpt>
      <trkpt lat="45.37375" lon="6.13138">
        <ele>1040.3204</ele>
        <time>2021-07-18T11:21:58</time>
      </trkpt>
      <trkpt lat="45.37372" lon="6.13141">
        <ele>1040.3204</ele>
        <time>2021-07-18T11:22:00</time>
      </trkpt>
      <trkpt lat="45.37368" lon="6.13145">
        <ele>1040.3204</ele>
        <time>2021-07-18T11:22:04</time>
      </trkpt>
      <trkpt lat="45.37366" lon="6.13146">
        <ele>1040.3204</ele>
        <time>2021-07-18T11:22:05</time>
      </trkpt>
      <trkpt lat="45.37364" lon="6.13146">
        <ele>1040.3204</ele>
        <time>2021-07-18T11:22:07</time>
      </trkpt>
      <trkpt lat="45.37355" lon="6.13157">
        <ele>1040.3204</ele>
        <time>2021-07-18T11:22:16</time>
      </trkpt>
      <trkpt lat="45.37354" lon="6.13157">
        <ele>1040.3204</ele>
        <time>2021-07-18T11:22:17</time>
      </trkpt>
      <trkpt lat="45.37353" lon="6.13157">
        <ele>1040.3204</ele>
        <time>2021-07-18T11:22:18</time>
      </trkpt>
      <trkpt lat="45.37349" lon="6.13161">
        <ele>1040.3204</ele>
        <time>2021-07-18T11:22:23</time>
      </trkpt>
      <trkpt lat="45.37346" lon="6.13163">
        <ele>1040.3204</ele>
        <time>2021-07-18T11:22:25</time>
      </trkpt>
      <trkpt lat="45.37342" lon="6.13163">
        <ele>1040.3204</ele>
        <time>2021-07-18T11:22:28</time>
      </trkpt>
      <trkpt lat="45.37339" lon="6.13163">
        <ele>1040.3204</ele>
        <time>2021-07-18T11:22:30</time>
      </trkpt>
      <trkpt lat="45.37337" lon="6.13163">
        <ele>1040.3204</ele>
        <time>2021-07-18T11:22:32</time>
      </trkpt>
      <trkpt lat="45.37336" lon="6.13164">
        <ele>1040.3204</ele>
        <time>2021-07-18T11:22:33</time>
      </trkpt>
      <trkpt lat="45.37336" lon="6.13166">
        <ele>1040.3204</ele>
        <time>2021-07-18T11:22:34</time>
      </trkpt>
      <trkpt lat="45.37334" lon="6.13168">
        <ele>1040.3204</ele>
        <time>2021-07-18T11:22:36</time>
      </trkpt>
      <trkpt lat="45.37333" lon="6.13169">
        <ele>1038.0204</ele>
        <time>2021-07-18T11:22:38</time>
      </trkpt>
      <trkpt lat="45.37333" lon="6.1317">
        <ele>1038.0204</ele>
        <time>2021-07-18T11:22:39</time>
      </trkpt>
      <trkpt lat="45.37333" lon="6.13171">
        <ele>1038.0204</ele>
        <time>2021-07-18T11:22:40</time>
      </trkpt>
      <trkpt lat="45.37332" lon="6.13172">
        <ele>1038.0204</ele>
        <time>2021-07-18T11:22:41</time>
      </trkpt>
      <trkpt lat="45.37331" lon="6.13172">
        <ele>1038.0204</ele>
        <time>2021-07-18T11:22:42</time>
      </trkpt>
      <trkpt lat="45.3733" lon="6.13172">
        <ele>1038.0204</ele>
        <time>2021-07-18T11:22:43</time>
      </trkpt>
      <trkpt lat="45.3733" lon="6.13172">
        <ele>1038.0204</ele>
        <time>2021-07-18T11:22:44</time>
      </trkpt>
      <trkpt lat="45.3733" lon="6.13173">
        <ele>1038.0204</ele>
        <time>2021-07-18T11:22:45</time>
      </trkpt>
      <trkpt lat="45.37329" lon="6.13173">
        <ele>1038.0204</ele>
        <time>2021-07-18T11:22:46</time>
      </trkpt>
      <trkpt lat="45.37328" lon="6.13174">
        <ele>1038.0204</ele>
        <time>2021-07-18T11:22:47</time>
      </trkpt>
      <trkpt lat="45.37328" lon="6.13174">
        <ele>1040.5204</ele>
        <time>2021-07-18T11:22:48</time>
      </trkpt>
      <trkpt lat="45.37326" lon="6.13171">
        <ele>1048.3204</ele>
        <time>2021-07-18T11:23:21</time>
      </trkpt>
      <trkpt lat="45.37322" lon="6.13171">
        <ele>1048.3204</ele>
        <time>2021-07-18T11:23:23</time>
      </trkpt>
      <trkpt lat="45.37319" lon="6.13172">
        <ele>1048.3204</ele>
        <time>2021-07-18T11:23:26</time>
      </trkpt>
      <trkpt lat="45.37318" lon="6.13173">
        <ele>1048.3204</ele>
        <time>2021-07-18T11:23:27</time>
      </trkpt>
      <trkpt lat="45.37317" lon="6.13174">
        <ele>1048.3204</ele>
        <time>2021-07-18T11:23:28</time>
      </trkpt>
      <trkpt lat="45.37315" lon="6.13175">
        <ele>1048.3204</ele>
        <time>2021-07-18T11:23:30</time>
      </trkpt>
      <trkpt lat="45.37314" lon="6.13175">
        <ele>1048.3204</ele>
        <time>2021-07-18T11:23:31</time>
      </trkpt>
      <trkpt lat="45.37311" lon="6.13175">
        <ele>1048.3204</ele>
        <time>2021-07-18T11:23:33</time>
      </trkpt>
      <trkpt lat="45.37307" lon="6.13175">
        <ele>1048.3204</ele>
        <time>2021-07-18T11:23:36</time>
      </trkpt>
      <trkpt lat="45.37305" lon="6.13176">
        <ele>1048.3204</ele>
        <time>2021-07-18T11:23:37</time>
      </trkpt>
      <trkpt lat="45.37305" lon="6.13178">
        <ele>1051.3204</ele>
        <time>2021-07-18T11:23:38</time>
      </trkpt>
      <trkpt lat="45.37304" lon="6.1318">
        <ele>1051.3204</ele>
        <time>2021-07-18T11:23:39</time>
      </trkpt>
      <trkpt lat="45.37302" lon="6.13184">
        <ele>1051.3204</ele>
        <time>2021-07-18T11:23:41</time>
      </trkpt>
      <trkpt lat="45.373" lon="6.13188">
        <ele>1051.3204</ele>
        <time>2021-07-18T11:23:43</time>
      </trkpt>
      <trkpt lat="45.3729" lon="6.13199">
        <ele>1051.3204</ele>
        <time>2021-07-18T11:23:51</time>
      </trkpt>
      <trkpt lat="45.37287" lon="6.13206">
        <ele>1051.3204</ele>
        <time>2021-07-18T11:23:55</time>
      </trkpt>
      <trkpt lat="45.37283" lon="6.13212">
        <ele>1051.3204</ele>
        <time>2021-07-18T11:23:59</time>
      </trkpt>
      <trkpt lat="45.37278" lon="6.13223">
        <ele>1051.3204</ele>
        <time>2021-07-18T11:24:08</time>
      </trkpt>
      <trkpt lat="45.37269" lon="6.13233">
        <ele>1051.3204</ele>
        <time>2021-07-18T11:24:19</time>
      </trkpt>
      <trkpt lat="45.37268" lon="6.13234">
        <ele>1051.3204</ele>
        <time>2021-07-18T11:24:20</time>
      </trkpt>
      <trkpt lat="45.37262" lon="6.13238">
        <ele>1051.3204</ele>
        <time>2021-07-18T11:24:25</time>
      </trkpt>
      <trkpt lat="45.3726" lon="6.1324">
        <ele>1051.3204</ele>
        <time>2021-07-18T11:24:27</time>
      </trkpt>
      <trkpt lat="45.37251" lon="6.13246">
        <ele>1051.3204</ele>
        <time>2021-07-18T11:24:35</time>
      </trkpt>
      <trkpt lat="45.37245" lon="6.13251">
        <ele>1051.3204</ele>
        <time>2021-07-18T11:24:41</time>
      </trkpt>
      <trkpt lat="45.37243" lon="6.13253">
        <ele>1051.3204</ele>
        <time>2021-07-18T11:24:43</time>
      </trkpt>
      <trkpt lat="45.37236" lon="6.13261">
        <ele>1051.3204</ele>
        <time>2021-07-18T11:24:51</time>
      </trkpt>
      <trkpt lat="45.37235" lon="6.13262">
        <ele>1051.3204</ele>
        <time>2021-07-18T11:24:52</time>
      </trkpt>
      <trkpt lat="45.37225" lon="6.13278">
        <ele>1051.3204</ele>
        <time>2021-07-18T11:25:07</time>
      </trkpt>
      <trkpt lat="45.37224" lon="6.13282">
        <ele>1051.3204</ele>
        <time>2021-07-18T11:25:10</time>
      </trkpt>
      <trkpt lat="45.37223" lon="6.13284">
        <ele>1051.3204</ele>
        <time>2021-07-18T11:25:11</time>
      </trkpt>
      <trkpt lat="45.37223" lon="6.13285">
        <ele>1051.3204</ele>
        <time>2021-07-18T11:25:12</time>
      </trkpt>
      <trkpt lat="45.37223" lon="6.13287">
        <ele>1051.3204</ele>
        <time>2021-07-18T11:25:13</time>
      </trkpt>
      <trkpt lat="45.37223" lon="6.13288">
        <ele>1051.3204</ele>
        <time>2021-07-18T11:25:14</time>
      </trkpt>
      <trkpt lat="45.37223" lon="6.13294">
        <ele>1051.3204</ele>
        <time>2021-07-18T11:25:17</time>
      </trkpt>
      <trkpt lat="45.37222" lon="6.13295">
        <ele>1051.3204</ele>
        <time>2021-07-18T11:25:18</time>
      </trkpt>
      <trkpt lat="45.37221" lon="6.13298">
        <ele>1051.3204</ele>
        <time>2021-07-18T11:25:20</time>
      </trkpt>
      <trkpt lat="45.37219" lon="6.13302">
        <ele>1051.3204</ele>
        <time>2021-07-18T11:25:23</time>
      </trkpt>
      <trkpt lat="45.37219" lon="6.13303">
        <ele>1051.3204</ele>
        <time>2021-07-18T11:25:24</time>
      </trkpt>
      <trkpt lat="45.37218" lon="6.13305">
        <ele>1051.3204</ele>
        <time>2021-07-18T11:25:25</time>
      </trkpt>
      <trkpt lat="45.37218" lon="6.13306">
        <ele>1051.3204</ele>
        <time>2021-07-18T11:25:26</time>
      </trkpt>
      <trkpt lat="45.37216" lon="6.13311">
        <ele>1043.3204</ele>
        <time>2021-07-18T11:25:30</time>
      </trkpt>
      <trkpt lat="45.37216" lon="6.13312">
        <ele>1043.3204</ele>
        <time>2021-07-18T11:25:31</time>
      </trkpt>
      <trkpt lat="45.37216" lon="6.13314">
        <ele>1043.3204</ele>
        <time>2021-07-18T11:25:32</time>
      </trkpt>
      <trkpt lat="45.37216" lon="6.13316">
        <ele>1043.3204</ele>
        <time>2021-07-18T11:25:34</time>
      </trkpt>
      <trkpt lat="45.37215" lon="6.13317">
        <ele>1043.3204</ele>
        <time>2021-07-18T11:25:35</time>
      </trkpt>
      <trkpt lat="45.37213" lon="6.13321">
        <ele>1045.3204</ele>
        <time>2021-07-18T11:25:38</time>
      </trkpt>
      <trkpt lat="45.37213" lon="6.13322">
        <ele>1045.3204</ele>
        <time>2021-07-18T11:25:39</time>
      </trkpt>
      <trkpt lat="45.37211" lon="6.13328">
        <ele>1045.3204</ele>
        <time>2021-07-18T11:25:43</time>
      </trkpt>
      <trkpt lat="45.37205" lon="6.13337">
        <ele>1054.5204</ele>
        <time>2021-07-18T11:25:50</time>
      </trkpt>
      <trkpt lat="45.37205" lon="6.13338">
        <ele>1054.5204</ele>
        <time>2021-07-18T11:25:51</time>
      </trkpt>
      <trkpt lat="45.37205" lon="6.13341">
        <ele>1054.5204</ele>
        <time>2021-07-18T11:25:53</time>
      </trkpt>
      <trkpt lat="45.37204" lon="6.13342">
        <ele>1054.5204</ele>
        <time>2021-07-18T11:25:54</time>
      </trkpt>
      <trkpt lat="45.37204" lon="6.13344">
        <ele>1054.5204</ele>
        <time>2021-07-18T11:25:55</time>
      </trkpt>
      <trkpt lat="45.372" lon="6.1335">
        <ele>1053.0204</ele>
        <time>2021-07-18T11:26:01</time>
      </trkpt>
      <trkpt lat="45.37199" lon="6.13351">
        <ele>1053.0204</ele>
        <time>2021-07-18T11:26:02</time>
      </trkpt>
      <trkpt lat="45.37197" lon="6.13353">
        <ele>1053.0204</ele>
        <time>2021-07-18T11:26:05</time>
      </trkpt>
      <trkpt lat="45.37196" lon="6.13354">
        <ele>1053.0204</ele>
        <time>2021-07-18T11:26:06</time>
      </trkpt>
      <trkpt lat="45.37194" lon="6.13354">
        <ele>1053.0204</ele>
        <time>2021-07-18T11:26:07</time>
      </trkpt>
      <trkpt lat="45.37193" lon="6.13354">
        <ele>1055.1205</ele>
        <time>2021-07-18T11:26:08</time>
      </trkpt>
      <trkpt lat="45.37191" lon="6.13356">
        <ele>1055.1205</ele>
        <time>2021-07-18T11:26:10</time>
      </trkpt>
      <trkpt lat="45.37187" lon="6.13361">
        <ele>1055.1205</ele>
        <time>2021-07-18T11:26:14</time>
      </trkpt>
      <trkpt lat="45.37186" lon="6.13362">
        <ele>1055.1205</ele>
        <time>2021-07-18T11:26:15</time>
      </trkpt>
      <trkpt lat="45.37182" lon="6.13367">
        <ele>1055.9204</ele>
        <time>2021-07-18T11:26:19</time>
      </trkpt>
      <trkpt lat="45.37166" lon="6.13378">
        <ele>1054.5204</ele>
        <time>2021-07-18T11:26:33</time>
      </trkpt>
      <trkpt lat="45.37162" lon="6.13385">
        <ele>1053.2205</ele>
        <time>2021-07-18T11:26:39</time>
      </trkpt>
      <trkpt lat="45.37161" lon="6.13386">
        <ele>1053.2205</ele>
        <time>2021-07-18T11:26:40</time>
      </trkpt>
      <trkpt lat="45.3716" lon="6.13387">
        <ele>1053.2205</ele>
        <time>2021-07-18T11:26:41</time>
      </trkpt>
      <trkpt lat="45.3716" lon="6.13389">
        <ele>1053.2205</ele>
        <time>2021-07-18T11:26:42</time>
      </trkpt>
      <trkpt lat="45.3716" lon="6.1339">
        <ele>1053.2205</ele>
        <time>2021-07-18T11:26:43</time>
      </trkpt>
      <trkpt lat="45.37159" lon="6.13392">
        <ele>1053.2205</ele>
        <time>2021-07-18T11:26:45</time>
      </trkpt>
      <trkpt lat="45.37158" lon="6.13393">
        <ele>1053.2205</ele>
        <time>2021-07-18T11:26:46</time>
      </trkpt>
      <trkpt lat="45.37158" lon="6.13394">
        <ele>1053.2205</ele>
        <time>2021-07-18T11:26:47</time>
      </trkpt>
      <trkpt lat="45.37157" lon="6.13396">
        <ele>1058.7205</ele>
        <time>2021-07-18T11:26:49</time>
      </trkpt>
      <trkpt lat="45.37156" lon="6.13397">
        <ele>1058.7205</ele>
        <time>2021-07-18T11:26:50</time>
      </trkpt>
      <trkpt lat="45.37154" lon="6.13397">
        <ele>1058.7205</ele>
        <time>2021-07-18T11:26:52</time>
      </trkpt>
      <trkpt lat="45.37153" lon="6.13398">
        <ele>1058.7205</ele>
        <time>2021-07-18T11:26:53</time>
      </trkpt>
      <trkpt lat="45.37149" lon="6.13402">
        <ele>1058.7205</ele>
        <time>2021-07-18T11:26:57</time>
      </trkpt>
      <trkpt lat="45.37149" lon="6.13403">
        <ele>1061.0204</ele>
        <time>2021-07-18T11:26:58</time>
      </trkpt>
      <trkpt lat="45.37148" lon="6.13404">
        <ele>1061.0204</ele>
        <time>2021-07-18T11:26:59</time>
      </trkpt>
      <trkpt lat="45.37148" lon="6.13405">
        <ele>1061.0204</ele>
        <time>2021-07-18T11:27:00</time>
      </trkpt>
      <trkpt lat="45.37148" lon="6.13409">
        <ele>1061.0204</ele>
        <time>2021-07-18T11:27:03</time>
      </trkpt>
      <trkpt lat="45.37147" lon="6.13414">
        <ele>1061.0204</ele>
        <time>2021-07-18T11:27:06</time>
      </trkpt>
      <trkpt lat="45.37144" lon="6.13422">
        <ele>1061.6205</ele>
        <time>2021-07-18T11:27:12</time>
      </trkpt>
      <trkpt lat="45.37142" lon="6.1343">
        <ele>1061.6205</ele>
        <time>2021-07-18T11:27:17</time>
      </trkpt>
      <trkpt lat="45.37138" lon="6.13439">
        <ele>1060.4204</ele>
        <time>2021-07-18T11:27:23</time>
      </trkpt>
      <trkpt lat="45.37125" lon="6.1345">
        <ele>1067.7205</ele>
        <time>2021-07-18T11:27:33</time>
      </trkpt>
      <trkpt lat="45.37123" lon="6.13451">
        <ele>1067.7205</ele>
        <time>2021-07-18T11:27:34</time>
      </trkpt>
      <trkpt lat="45.37122" lon="6.13452">
        <ele>1067.7205</ele>
        <time>2021-07-18T11:27:35</time>
      </trkpt>
      <trkpt lat="45.37119" lon="6.13453">
        <ele>1067.7205</ele>
        <time>2021-07-18T11:27:37</time>
      </trkpt>
      <trkpt lat="45.37113" lon="6.13457">
        <ele>1070.5204</ele>
        <time>2021-07-18T11:27:41</time>
      </trkpt>
      <trkpt lat="45.37101" lon="6.13461">
        <ele>1063.7205</ele>
        <time>2021-07-18T11:27:53</time>
      </trkpt>
      <trkpt lat="45.37099" lon="6.13462">
        <ele>1063.7205</ele>
        <time>2021-07-18T11:27:54</time>
      </trkpt>
      <trkpt lat="45.37098" lon="6.13462">
        <ele>1063.7205</ele>
        <time>2021-07-18T11:27:55</time>
      </trkpt>
      <trkpt lat="45.37088" lon="6.13469">
        <ele>1055.9204</ele>
        <time>2021-07-18T11:28:03</time>
      </trkpt>
      <trkpt lat="45.37087" lon="6.1347">
        <ele>1055.9204</ele>
        <time>2021-07-18T11:28:04</time>
      </trkpt>
      <trkpt lat="45.37086" lon="6.13471">
        <ele>1055.9204</ele>
        <time>2021-07-18T11:28:05</time>
      </trkpt>
      <trkpt lat="45.37081" lon="6.13474">
        <ele>1049.4204</ele>
        <time>2021-07-18T11:28:09</time>
      </trkpt>
      <trkpt lat="45.3708" lon="6.13475">
        <ele>1049.4204</ele>
        <time>2021-07-18T11:28:10</time>
      </trkpt>
      <trkpt lat="45.37076" lon="6.13477">
        <ele>1049.4204</ele>
        <time>2021-07-18T11:28:14</time>
      </trkpt>
      <trkpt lat="45.37074" lon="6.13477">
        <ele>1049.4204</ele>
        <time>2021-07-18T11:28:15</time>
      </trkpt>
      <trkpt lat="45.37069" lon="6.13478">
        <ele>1047.8204</ele>
        <time>2021-07-18T11:28:21</time>
      </trkpt>
      <trkpt lat="45.37065" lon="6.13479">
        <ele>1047.8204</ele>
        <time>2021-07-18T11:28:25</time>
      </trkpt>
      <trkpt lat="45.37062" lon="6.13479">
        <ele>1040.2205</ele>
        <time>2021-07-18T11:28:31</time>
      </trkpt>
      <trkpt lat="45.37062" lon="6.13479">
        <ele>1040.2205</ele>
        <time>2021-07-18T11:28:34</time>
      </trkpt>
      <trkpt lat="45.37058" lon="6.13486">
        <ele>1039.8204</ele>
        <time>2021-07-18T11:28:42</time>
      </trkpt>
      <trkpt lat="45.37056" lon="6.13487">
        <ele>1039.8204</ele>
        <time>2021-07-18T11:28:44</time>
      </trkpt>
      <trkpt lat="45.37048" lon="6.13492">
        <ele>1045.7205</ele>
        <time>2021-07-18T11:28:51</time>
      </trkpt>
      <trkpt lat="45.37046" lon="6.13491">
        <ele>1045.7205</ele>
        <time>2021-07-18T11:28:53</time>
      </trkpt>
      <trkpt lat="45.37041" lon="6.1349">
        <ele>1048.7205</ele>
        <time>2021-07-18T11:29:48</time>
      </trkpt>
      <trkpt lat="45.3704" lon="6.1349">
        <ele>1048.7205</ele>
        <time>2021-07-18T11:29:49</time>
      </trkpt>
      <trkpt lat="45.37039" lon="6.13491">
        <ele>1048.7205</ele>
        <time>2021-07-18T11:29:50</time>
      </trkpt>
      <trkpt lat="45.37036" lon="6.13494">
        <ele>1048.7205</ele>
        <time>2021-07-18T11:29:53</time>
      </trkpt>
      <trkpt lat="45.3703" lon="6.13499">
        <ele>1048.7205</ele>
        <time>2021-07-18T11:30:03</time>
      </trkpt>
      <trkpt lat="45.37029" lon="6.135">
        <ele>1048.7205</ele>
        <time>2021-07-18T11:30:04</time>
      </trkpt>
      <trkpt lat="45.37028" lon="6.135">
        <ele>1048.7205</ele>
        <time>2021-07-18T11:30:05</time>
      </trkpt>
      <trkpt lat="45.37028" lon="6.135">
        <ele>1048.7205</ele>
        <time>2021-07-18T11:30:06</time>
      </trkpt>
      <trkpt lat="45.37029" lon="6.135">
        <ele>1048.7205</ele>
        <time>2021-07-18T11:30:08</time>
      </trkpt>
      <trkpt lat="45.37029" lon="6.135">
        <ele>1048.7205</ele>
        <time>2021-07-18T11:30:09</time>
      </trkpt>
      <trkpt lat="45.37028" lon="6.135">
        <ele>1048.7205</ele>
        <time>2021-07-18T11:30:11</time>
      </trkpt>
      <trkpt lat="45.37028" lon="6.135">
        <ele>1048.7205</ele>
        <time>2021-07-18T11:30:12</time>
      </trkpt>
      <trkpt lat="45.37027" lon="6.13499">
        <ele>1054.0204</ele>
        <time>2021-07-18T11:30:28</time>
      </trkpt>
      <trkpt lat="45.37023" lon="6.135">
        <ele>1054.0204</ele>
        <time>2021-07-18T11:30:32</time>
      </trkpt>
      <trkpt lat="45.37015" lon="6.13507">
        <ele>1058.0204</ele>
        <time>2021-07-18T11:30:41</time>
      </trkpt>
      <trkpt lat="45.37005" lon="6.13513">
        <ele>1059.2205</ele>
        <time>2021-07-18T11:30:51</time>
      </trkpt>
      <trkpt lat="45.37003" lon="6.13514">
        <ele>1059.2205</ele>
        <time>2021-07-18T11:30:55</time>
      </trkpt>
      <trkpt lat="45.37001" lon="6.13515">
        <ele>1059.2205</ele>
        <time>2021-07-18T11:30:57</time>
      </trkpt>
      <trkpt lat="45.36995" lon="6.13517">
        <ele>1068.8204</ele>
        <time>2021-07-18T11:31:03</time>
      </trkpt>
      <trkpt lat="45.36993" lon="6.13518">
        <ele>1068.8204</ele>
        <time>2021-07-18T11:31:05</time>
      </trkpt>
      <trkpt lat="45.3699" lon="6.13523">
        <ele>1056.8204</ele>
        <time>2021-07-18T11:31:10</time>
      </trkpt>
      <trkpt lat="45.36991" lon="6.13524">
        <ele>1056.8204</ele>
        <time>2021-07-18T11:31:11</time>
      </trkpt>
      <trkpt lat="45.36991" lon="6.13525">
        <ele>1056.8204</ele>
        <time>2021-07-18T11:31:12</time>
      </trkpt>
      <trkpt lat="45.36988" lon="6.1353">
        <ele>1059.1871</ele>
        <time>2021-07-18T11:31:19</time>
      </trkpt>
      <trkpt lat="45.36988" lon="6.13531">
        <ele>1059.1871</ele>
        <time>2021-07-18T11:31:20</time>
      </trkpt>
      <trkpt lat="45.36988" lon="6.13532">
        <ele>1059.1871</ele>
        <time>2021-07-18T11:31:21</time>
      </trkpt>
      <trkpt lat="45.36981" lon="6.13556">
        <ele>1067.1205</ele>
        <time>2021-07-18T11:31:38</time>
      </trkpt>
      <trkpt lat="45.36981" lon="6.13558">
        <ele>1067.1205</ele>
        <time>2021-07-18T11:31:40</time>
      </trkpt>
      <trkpt lat="45.3698" lon="6.13559">
        <ele>1067.1205</ele>
        <time>2021-07-18T11:31:41</time>
      </trkpt>
      <trkpt lat="45.3698" lon="6.1356">
        <ele>1067.1205</ele>
        <time>2021-07-18T11:31:43</time>
      </trkpt>
      <trkpt lat="45.3698" lon="6.13562">
        <ele>1067.1205</ele>
        <time>2021-07-18T11:31:44</time>
      </trkpt>
      <trkpt lat="45.3698" lon="6.13565">
        <ele>1067.1205</ele>
        <time>2021-07-18T11:31:46</time>
      </trkpt>
      <trkpt lat="45.36979" lon="6.13566">
        <ele>1067.1205</ele>
        <time>2021-07-18T11:31:47</time>
      </trkpt>
      <trkpt lat="45.36979" lon="6.13567">
        <ele>1067.1205</ele>
        <time>2021-07-18T11:31:48</time>
      </trkpt>
      <trkpt lat="45.36978" lon="6.13568">
        <ele>1067.1205</ele>
        <time>2021-07-18T11:31:49</time>
      </trkpt>
      <trkpt lat="45.36977" lon="6.1357">
        <ele>1067.1205</ele>
        <time>2021-07-18T11:31:50</time>
      </trkpt>
      <trkpt lat="45.36977" lon="6.13571">
        <ele>1067.1205</ele>
        <time>2021-07-18T11:31:51</time>
      </trkpt>
      <trkpt lat="45.36975" lon="6.13581">
        <ele>1067.1205</ele>
        <time>2021-07-18T11:31:56</time>
      </trkpt>
      <trkpt lat="45.36972" lon="6.1359">
        <ele>1067.1205</ele>
        <time>2021-07-18T11:32:02</time>
      </trkpt>
      <trkpt lat="45.36968" lon="6.13596">
        <ele>1067.1205</ele>
        <time>2021-07-18T11:32:06</time>
      </trkpt>
      <trkpt lat="45.36968" lon="6.13598">
        <ele>1067.1205</ele>
        <time>2021-07-18T11:32:07</time>
      </trkpt>
      <trkpt lat="45.36966" lon="6.13601">
        <ele>1061.1205</ele>
        <time>2021-07-18T11:32:09</time>
      </trkpt>
      <trkpt lat="45.36965" lon="6.13611">
        <ele>1061.1205</ele>
        <time>2021-07-18T11:32:15</time>
      </trkpt>
      <trkpt lat="45.36965" lon="6.13619">
        <ele>1059.2205</ele>
        <time>2021-07-18T11:32:21</time>
      </trkpt>
      <trkpt lat="45.36965" lon="6.13621">
        <ele>1059.2205</ele>
        <time>2021-07-18T11:32:22</time>
      </trkpt>
      <trkpt lat="45.36965" lon="6.13622">
        <ele>1059.2205</ele>
        <time>2021-07-18T11:32:23</time>
      </trkpt>
      <trkpt lat="45.36965" lon="6.13628">
        <ele>1059.2205</ele>
        <time>2021-07-18T11:32:27</time>
      </trkpt>
      <trkpt lat="45.36964" lon="6.13633">
        <ele>1060.4204</ele>
        <time>2021-07-18T11:32:30</time>
      </trkpt>
      <trkpt lat="45.36964" lon="6.13634">
        <ele>1060.4204</ele>
        <time>2021-07-18T11:32:31</time>
      </trkpt>
      <trkpt lat="45.36964" lon="6.13637">
        <ele>1060.4204</ele>
        <time>2021-07-18T11:32:33</time>
      </trkpt>
      <trkpt lat="45.36964" lon="6.1365">
        <ele>1055.3204</ele>
        <time>2021-07-18T11:32:41</time>
      </trkpt>
      <trkpt lat="45.36965" lon="6.13658">
        <ele>1055.3204</ele>
        <time>2021-07-18T11:32:46</time>
      </trkpt>
      <trkpt lat="45.36966" lon="6.13676">
        <ele>1061.2205</ele>
        <time>2021-07-18T11:32:57</time>
      </trkpt>
      <trkpt lat="45.36966" lon="6.1368">
        <ele>1070.1205</ele>
        <time>2021-07-18T11:32:59</time>
      </trkpt>
      <trkpt lat="45.36964" lon="6.1369">
        <ele>1070.1205</ele>
        <time>2021-07-18T11:33:05</time>
      </trkpt>
      <trkpt lat="45.36964" lon="6.13692">
        <ele>1070.1205</ele>
        <time>2021-07-18T11:33:06</time>
      </trkpt>
      <trkpt lat="45.36964" lon="6.13693">
        <ele>1070.1205</ele>
        <time>2021-07-18T11:33:07</time>
      </trkpt>
      <trkpt lat="45.36963" lon="6.13696">
        <ele>1067.7205</ele>
        <time>2021-07-18T11:33:09</time>
      </trkpt>
      <trkpt lat="45.36957" lon="6.13711">
        <ele>1063.6205</ele>
        <time>2021-07-18T11:33:19</time>
      </trkpt>
      <trkpt lat="45.36959" lon="6.13717">
        <ele>1063.6205</ele>
        <time>2021-07-18T11:33:25</time>
      </trkpt>
      <trkpt lat="45.36959" lon="6.13721">
        <ele>1063.1205</ele>
        <time>2021-07-18T11:33:28</time>
      </trkpt>
      <trkpt lat="45.36959" lon="6.13735">
        <ele>1068.7205</ele>
        <time>2021-07-18T11:33:41</time>
      </trkpt>
      <trkpt lat="45.36959" lon="6.13736">
        <ele>1068.7205</ele>
        <time>2021-07-18T11:33:44</time>
      </trkpt>
      <trkpt lat="45.36957" lon="6.13735">
        <ele>1070.0204</ele>
        <time>2021-07-18T11:33:53</time>
      </trkpt>
      <trkpt lat="45.36957" lon="6.13735">
        <ele>1070.0204</ele>
        <time>2021-07-18T11:33:54</time>
      </trkpt>
      <trkpt lat="45.36957" lon="6.13735">
        <ele>1064.8204</ele>
        <time>2021-07-18T11:33:59</time>
      </trkpt>
      <trkpt lat="45.36957" lon="6.13736">
        <ele>1064.8204</ele>
        <time>2021-07-18T11:34:02</time>
      </trkpt>
      <trkpt lat="45.36959" lon="6.13738">
        <ele>1055.6205</ele>
        <time>2021-07-18T11:34:42</time>
      </trkpt>
      <trkpt lat="45.36959" lon="6.1374">
        <ele>1055.6205</ele>
        <time>2021-07-18T11:34:58</time>
      </trkpt>
      <trkpt lat="45.36959" lon="6.1374">
        <ele>1055.6205</ele>
        <time>2021-07-18T11:34:59</time>
      </trkpt>
      <trkpt lat="45.36958" lon="6.13741">
        <ele>1055.6205</ele>
        <time>2021-07-18T11:35:05</time>
      </trkpt>
      <trkpt lat="45.36959" lon="6.13741">
        <ele>1058.7205</ele>
        <time>2021-07-18T11:35:09</time>
      </trkpt>
      <trkpt lat="45.3696" lon="6.13741">
        <ele>1058.7205</ele>
        <time>2021-07-18T11:35:11</time>
      </trkpt>
      <trkpt lat="45.36966" lon="6.13747">
        <ele>1058.4204</ele>
        <time>2021-07-18T11:35:21</time>
      </trkpt>
      <trkpt lat="45.36974" lon="6.13756">
        <ele>1060.4204</ele>
        <time>2021-07-18T11:35:30</time>
      </trkpt>
      <trkpt lat="45.36983" lon="6.13765">
        <ele>1062.0204</ele>
        <time>2021-07-18T11:35:43</time>
      </trkpt>
      <trkpt lat="45.36983" lon="6.13766">
        <ele>1062.0204</ele>
        <time>2021-07-18T11:35:44</time>
      </trkpt>
      <trkpt lat="45.36992" lon="6.1378">
        <ele>1064.7205</ele>
        <time>2021-07-18T11:35:54</time>
      </trkpt>
      <trkpt lat="45.36993" lon="6.13781">
        <ele>1064.7205</ele>
        <time>2021-07-18T11:35:55</time>
      </trkpt>
      <trkpt lat="45.36994" lon="6.13783">
        <ele>1064.7205</ele>
        <time>2021-07-18T11:35:57</time>
      </trkpt>
      <trkpt lat="45.36994" lon="6.13784">
        <ele>1064.7205</ele>
        <time>2021-07-18T11:35:58</time>
      </trkpt>
      <trkpt lat="45.36996" lon="6.13794">
        <ele>1064.7205</ele>
        <time>2021-07-18T11:36:04</time>
      </trkpt>
      <trkpt lat="45.36996" lon="6.13804">
        <ele>1064.7205</ele>
        <time>2021-07-18T11:36:09</time>
      </trkpt>
      <trkpt lat="45.36997" lon="6.13808">
        <ele>1064.7205</ele>
        <time>2021-07-18T11:36:11</time>
      </trkpt>
      <trkpt lat="45.36997" lon="6.13809">
        <ele>1064.7205</ele>
        <time>2021-07-18T11:36:12</time>
      </trkpt>
      <trkpt lat="45.36997" lon="6.13815">
        <ele>1064.7205</ele>
        <time>2021-07-18T11:36:15</time>
      </trkpt>
      <trkpt lat="45.3699" lon="6.13842">
        <ele>1064.7205</ele>
        <time>2021-07-18T11:36:33</time>
      </trkpt>
      <trkpt lat="45.36989" lon="6.13844">
        <ele>1064.7205</ele>
        <time>2021-07-18T11:36:34</time>
      </trkpt>
      <trkpt lat="45.36989" lon="6.13845">
        <ele>1064.7205</ele>
        <time>2021-07-18T11:36:35</time>
      </trkpt>
      <trkpt lat="45.36989" lon="6.13847">
        <ele>1064.7205</ele>
        <time>2021-07-18T11:36:36</time>
      </trkpt>
      <trkpt lat="45.36989" lon="6.13848">
        <ele>1064.7205</ele>
        <time>2021-07-18T11:36:37</time>
      </trkpt>
      <trkpt lat="45.36989" lon="6.13849">
        <ele>1064.7205</ele>
        <time>2021-07-18T11:36:38</time>
      </trkpt>
      <trkpt lat="45.36988" lon="6.1385">
        <ele>1064.7205</ele>
        <time>2021-07-18T11:36:39</time>
      </trkpt>
      <trkpt lat="45.36985" lon="6.13853">
        <ele>1064.7205</ele>
        <time>2021-07-18T11:36:43</time>
      </trkpt>
      <trkpt lat="45.36984" lon="6.13854">
        <ele>1064.7205</ele>
        <time>2021-07-18T11:36:44</time>
      </trkpt>
      <trkpt lat="45.36984" lon="6.13857">
        <ele>1064.7205</ele>
        <time>2021-07-18T11:36:47</time>
      </trkpt>
      <trkpt lat="45.36983" lon="6.13859">
        <ele>1079.3204</ele>
        <time>2021-07-18T11:36:50</time>
      </trkpt>
      <trkpt lat="45.36982" lon="6.13859">
        <ele>1079.3204</ele>
        <time>2021-07-18T11:36:51</time>
      </trkpt>
      <trkpt lat="45.36981" lon="6.13859">
        <ele>1079.3204</ele>
        <time>2021-07-18T11:36:52</time>
      </trkpt>
      <trkpt lat="45.3698" lon="6.13859">
        <ele>1079.3204</ele>
        <time>2021-07-18T11:36:53</time>
      </trkpt>
      <trkpt lat="45.36979" lon="6.1386">
        <ele>1079.3204</ele>
        <time>2021-07-18T11:36:54</time>
      </trkpt>
      <trkpt lat="45.36979" lon="6.13861">
        <ele>1079.3204</ele>
        <time>2021-07-18T11:36:55</time>
      </trkpt>
      <trkpt lat="45.36977" lon="6.13864">
        <ele>1081.7205</ele>
        <time>2021-07-18T11:36:58</time>
      </trkpt>
      <trkpt lat="45.36975" lon="6.13866">
        <ele>1081.7205</ele>
        <time>2021-07-18T11:37:01</time>
      </trkpt>
      <trkpt lat="45.36974" lon="6.13866">
        <ele>1081.7205</ele>
        <time>2021-07-18T11:37:02</time>
      </trkpt>
      <trkpt lat="45.36973" lon="6.13868">
        <ele>1081.7205</ele>
        <time>2021-07-18T11:37:04</time>
      </trkpt>
      <trkpt lat="45.36973" lon="6.1387">
        <ele>1081.7205</ele>
        <time>2021-07-18T11:37:05</time>
      </trkpt>
      <trkpt lat="45.36974" lon="6.13874">
        <ele>1081.7205</ele>
        <time>2021-07-18T11:37:07</time>
      </trkpt>
      <trkpt lat="45.36973" lon="6.13875">
        <ele>1084.1205</ele>
        <time>2021-07-18T11:37:08</time>
      </trkpt>
      <trkpt lat="45.36972" lon="6.13879">
        <ele>1084.1205</ele>
        <time>2021-07-18T11:37:10</time>
      </trkpt>
      <trkpt lat="45.36972" lon="6.13882">
        <ele>1084.1205</ele>
        <time>2021-07-18T11:37:11</time>
      </trkpt>
      <trkpt lat="45.36971" lon="6.13884">
        <ele>1084.1205</ele>
        <time>2021-07-18T11:37:13</time>
      </trkpt>
      <trkpt lat="45.36969" lon="6.13885">
        <ele>1084.1205</ele>
        <time>2021-07-18T11:37:14</time>
      </trkpt>
      <trkpt lat="45.36969" lon="6.13886">
        <ele>1084.1205</ele>
        <time>2021-07-18T11:37:16</time>
      </trkpt>
      <trkpt lat="45.36968" lon="6.13886">
        <ele>1084.1205</ele>
        <time>2021-07-18T11:37:17</time>
      </trkpt>
      <trkpt lat="45.36966" lon="6.1389">
        <ele>1078.4204</ele>
        <time>2021-07-18T11:37:19</time>
      </trkpt>
      <trkpt lat="45.36964" lon="6.13893">
        <ele>1078.4204</ele>
        <time>2021-07-18T11:37:21</time>
      </trkpt>
      <trkpt lat="45.36959" lon="6.13902">
        <ele>1079.7205</ele>
        <time>2021-07-18T11:37:28</time>
      </trkpt>
      <trkpt lat="45.36958" lon="6.13903">
        <ele>1079.7205</ele>
        <time>2021-07-18T11:37:29</time>
      </trkpt>
      <trkpt lat="45.36958" lon="6.1391">
        <ele>1079.7205</ele>
        <time>2021-07-18T11:37:33</time>
      </trkpt>
      <trkpt lat="45.36957" lon="6.13911">
        <ele>1079.7205</ele>
        <time>2021-07-18T11:37:34</time>
      </trkpt>
      <trkpt lat="45.36955" lon="6.13912">
        <ele>1079.7205</ele>
        <time>2021-07-18T11:37:35</time>
      </trkpt>
      <trkpt lat="45.36951" lon="6.13915">
        <ele>1076.7205</ele>
        <time>2021-07-18T11:37:39</time>
      </trkpt>
      <trkpt lat="45.36949" lon="6.13917">
        <ele>1076.7205</ele>
        <time>2021-07-18T11:37:41</time>
      </trkpt>
      <trkpt lat="45.36948" lon="6.13917">
        <ele>1076.7205</ele>
        <time>2021-07-18T11:37:42</time>
      </trkpt>
      <trkpt lat="45.36948" lon="6.13918">
        <ele>1076.7205</ele>
        <time>2021-07-18T11:37:43</time>
      </trkpt>
      <trkpt lat="45.36947" lon="6.13918">
        <ele>1076.7205</ele>
        <time>2021-07-18T11:37:44</time>
      </trkpt>
      <trkpt lat="45.36946" lon="6.13919">
        <ele>1076.7205</ele>
        <time>2021-07-18T11:37:45</time>
      </trkpt>
      <trkpt lat="45.36945" lon="6.13919">
        <ele>1076.7205</ele>
        <time>2021-07-18T11:37:46</time>
      </trkpt>
      <trkpt lat="45.36943" lon="6.1392">
        <ele>1079.4204</ele>
        <time>2021-07-18T11:37:48</time>
      </trkpt>
      <trkpt lat="45.36942" lon="6.1392">
        <ele>1079.4204</ele>
        <time>2021-07-18T11:37:49</time>
      </trkpt>
      <trkpt lat="45.36941" lon="6.13919">
        <ele>1079.4204</ele>
        <time>2021-07-18T11:37:50</time>
      </trkpt>
      <trkpt lat="45.36939" lon="6.13916">
        <ele>1079.4204</ele>
        <time>2021-07-18T11:37:51</time>
      </trkpt>
      <trkpt lat="45.36938" lon="6.13915">
        <ele>1079.4204</ele>
        <time>2021-07-18T11:37:52</time>
      </trkpt>
      <trkpt lat="45.36937" lon="6.13914">
        <ele>1079.4204</ele>
        <time>2021-07-18T11:37:53</time>
      </trkpt>
      <trkpt lat="45.36935" lon="6.13915">
        <ele>1079.4204</ele>
        <time>2021-07-18T11:37:55</time>
      </trkpt>
      <trkpt lat="45.36935" lon="6.13916">
        <ele>1079.4204</ele>
        <time>2021-07-18T11:37:56</time>
      </trkpt>
      <trkpt lat="45.36933" lon="6.13918">
        <ele>1080.3204</ele>
        <time>2021-07-18T11:37:58</time>
      </trkpt>
      <trkpt lat="45.36931" lon="6.13918">
        <ele>1080.3204</ele>
        <time>2021-07-18T11:37:59</time>
      </trkpt>
      <trkpt lat="45.36928" lon="6.13918">
        <ele>1080.3204</ele>
        <time>2021-07-18T11:38:02</time>
      </trkpt>
      <trkpt lat="45.36927" lon="6.13918">
        <ele>1080.3204</ele>
        <time>2021-07-18T11:38:03</time>
      </trkpt>
      <trkpt lat="45.36925" lon="6.13917">
        <ele>1080.3204</ele>
        <time>2021-07-18T11:38:04</time>
      </trkpt>
      <trkpt lat="45.36923" lon="6.13915">
        <ele>1080.3204</ele>
        <time>2021-07-18T11:38:05</time>
      </trkpt>
      <trkpt lat="45.36921" lon="6.13915">
        <ele>1080.3204</ele>
        <time>2021-07-18T11:38:06</time>
      </trkpt>
      <trkpt lat="45.36919" lon="6.13915">
        <ele>1080.3204</ele>
        <time>2021-07-18T11:38:07</time>
      </trkpt>
      <trkpt lat="45.36918" lon="6.13917">
        <ele>1078.7205</ele>
        <time>2021-07-18T11:38:08</time>
      </trkpt>
      <trkpt lat="45.36917" lon="6.13919">
        <ele>1078.7205</ele>
        <time>2021-07-18T11:38:09</time>
      </trkpt>
      <trkpt lat="45.36916" lon="6.13921">
        <ele>1078.7205</ele>
        <time>2021-07-18T11:38:10</time>
      </trkpt>
      <trkpt lat="45.36915" lon="6.13922">
        <ele>1078.7205</ele>
        <time>2021-07-18T11:38:11</time>
      </trkpt>
      <trkpt lat="45.36914" lon="6.13925">
        <ele>1078.7205</ele>
        <time>2021-07-18T11:38:12</time>
      </trkpt>
      <trkpt lat="45.36912" lon="6.13928">
        <ele>1078.7205</ele>
        <time>2021-07-18T11:38:14</time>
      </trkpt>
      <trkpt lat="45.36911" lon="6.13929">
        <ele>1078.7205</ele>
        <time>2021-07-18T11:38:15</time>
      </trkpt>
      <trkpt lat="45.36909" lon="6.1393">
        <ele>1078.7205</ele>
        <time>2021-07-18T11:38:16</time>
      </trkpt>
      <trkpt lat="45.36906" lon="6.13931">
        <ele>1083.487</ele>
        <time>2021-07-18T11:38:18</time>
      </trkpt>
      <trkpt lat="45.36902" lon="6.13936">
        <ele>1083.487</ele>
        <time>2021-07-18T11:38:22</time>
      </trkpt>
      <trkpt lat="45.369" lon="6.13941">
        <ele>1083.487</ele>
        <time>2021-07-18T11:38:25</time>
      </trkpt>
      <trkpt lat="45.36899" lon="6.13942">
        <ele>1083.487</ele>
        <time>2021-07-18T11:38:26</time>
      </trkpt>
      <trkpt lat="45.36891" lon="6.13949">
        <ele>1083.487</ele>
        <time>2021-07-18T11:38:34</time>
      </trkpt>
      <trkpt lat="45.3689" lon="6.13959">
        <ele>1083.2205</ele>
        <time>2021-07-18T11:38:40</time>
      </trkpt>
      <trkpt lat="45.3689" lon="6.13961">
        <ele>1083.2205</ele>
        <time>2021-07-18T11:38:41</time>
      </trkpt>
      <trkpt lat="45.36888" lon="6.13963">
        <ele>1083.2205</ele>
        <time>2021-07-18T11:38:44</time>
      </trkpt>
      <trkpt lat="45.36886" lon="6.13963">
        <ele>1083.2205</ele>
        <time>2021-07-18T11:38:46</time>
      </trkpt>
      <trkpt lat="45.36884" lon="6.13962">
        <ele>1083.2205</ele>
        <time>2021-07-18T11:38:47</time>
      </trkpt>
      <trkpt lat="45.36877" lon="6.1396">
        <ele>1081.3204</ele>
        <time>2021-07-18T11:38:52</time>
      </trkpt>
      <trkpt lat="45.36876" lon="6.1396">
        <ele>1081.3204</ele>
        <time>2021-07-18T11:38:53</time>
      </trkpt>
      <trkpt lat="45.36875" lon="6.13963">
        <ele>1081.3204</ele>
        <time>2021-07-18T11:38:57</time>
      </trkpt>
      <trkpt lat="45.36874" lon="6.13964">
        <ele>1085.4204</ele>
        <time>2021-07-18T11:38:58</time>
      </trkpt>
      <trkpt lat="45.36874" lon="6.13964">
        <ele>1085.4204</ele>
        <time>2021-07-18T11:38:59</time>
      </trkpt>
      <trkpt lat="45.36871" lon="6.13967">
        <ele>1085.4204</ele>
        <time>2021-07-18T11:39:02</time>
      </trkpt>
      <trkpt lat="45.36869" lon="6.13969">
        <ele>1085.4204</ele>
        <time>2021-07-18T11:39:04</time>
      </trkpt>
      <trkpt lat="45.36867" lon="6.13971">
        <ele>1085.4204</ele>
        <time>2021-07-18T11:39:06</time>
      </trkpt>
      <trkpt lat="45.36866" lon="6.13972">
        <ele>1085.4204</ele>
        <time>2021-07-18T11:39:07</time>
      </trkpt>
      <trkpt lat="45.36865" lon="6.13976">
        <ele>1088.9204</ele>
        <time>2021-07-18T11:39:10</time>
      </trkpt>
      <trkpt lat="45.36861" lon="6.13981">
        <ele>1088.9204</ele>
        <time>2021-07-18T11:39:15</time>
      </trkpt>
      <trkpt lat="45.36861" lon="6.13983">
        <ele>1088.9204</ele>
        <time>2021-07-18T11:39:16</time>
      </trkpt>
      <trkpt lat="45.36861" lon="6.13987">
        <ele>1087.2205</ele>
        <time>2021-07-18T11:39:18</time>
      </trkpt>
      <trkpt lat="45.3686" lon="6.13988">
        <ele>1087.2205</ele>
        <time>2021-07-18T11:39:19</time>
      </trkpt>
      <trkpt lat="45.36857" lon="6.1399">
        <ele>1087.2205</ele>
        <time>2021-07-18T11:39:22</time>
      </trkpt>
      <trkpt lat="45.36856" lon="6.13991">
        <ele>1087.2205</ele>
        <time>2021-07-18T11:39:23</time>
      </trkpt>
      <trkpt lat="45.36855" lon="6.13991">
        <ele>1087.2205</ele>
        <time>2021-07-18T11:39:24</time>
      </trkpt>
      <trkpt lat="45.36855" lon="6.13992">
        <ele>1087.2205</ele>
        <time>2021-07-18T11:39:25</time>
      </trkpt>
      <trkpt lat="45.36854" lon="6.13992">
        <ele>1087.2205</ele>
        <time>2021-07-18T11:39:26</time>
      </trkpt>
      <trkpt lat="45.36847" lon="6.14001">
        <ele>1085.4204</ele>
        <time>2021-07-18T11:39:36</time>
      </trkpt>
      <trkpt lat="45.36846" lon="6.14003">
        <ele>1086.2205</ele>
        <time>2021-07-18T11:39:38</time>
      </trkpt>
      <trkpt lat="45.36843" lon="6.14003">
        <ele>1086.2205</ele>
        <time>2021-07-18T11:39:42</time>
      </trkpt>
      <trkpt lat="45.36842" lon="6.14003">
        <ele>1086.2205</ele>
        <time>2021-07-18T11:39:44</time>
      </trkpt>
      <trkpt lat="45.36841" lon="6.14003">
        <ele>1086.2205</ele>
        <time>2021-07-18T11:39:45</time>
      </trkpt>
      <trkpt lat="45.36832" lon="6.14003">
        <ele>1087.3204</ele>
        <time>2021-07-18T11:39:54</time>
      </trkpt>
      <trkpt lat="45.36831" lon="6.14003">
        <ele>1087.3204</ele>
        <time>2021-07-18T11:39:55</time>
      </trkpt>
      <trkpt lat="45.3683" lon="6.14003">
        <ele>1087.3204</ele>
        <time>2021-07-18T11:39:56</time>
      </trkpt>
      <trkpt lat="45.36819" lon="6.14015">
        <ele>1091.5204</ele>
        <time>2021-07-18T11:40:14</time>
      </trkpt>
      <trkpt lat="45.36815" lon="6.14017">
        <ele>1094.3204</ele>
        <time>2021-07-18T11:40:18</time>
      </trkpt>
      <trkpt lat="45.36813" lon="6.14022">
        <ele>1094.3204</ele>
        <time>2021-07-18T11:40:23</time>
      </trkpt>
      <trkpt lat="45.36802" lon="6.14026">
        <ele>1096.8204</ele>
        <time>2021-07-18T11:40:35</time>
      </trkpt>
      <trkpt lat="45.3679" lon="6.14027">
        <ele>1094.6205</ele>
        <time>2021-07-18T11:40:49</time>
      </trkpt>
      <trkpt lat="45.36789" lon="6.14027">
        <ele>1094.6205</ele>
        <time>2021-07-18T11:40:50</time>
      </trkpt>
      <trkpt lat="45.36784" lon="6.14028">
        <ele>1094.6205</ele>
        <time>2021-07-18T11:40:56</time>
      </trkpt>
      <trkpt lat="45.36783" lon="6.14029">
        <ele>1094.6205</ele>
        <time>2021-07-18T11:40:57</time>
      </trkpt>
      <trkpt lat="45.3678" lon="6.1403">
        <ele>1098.8204</ele>
        <time>2021-07-18T11:41:01</time>
      </trkpt>
      <trkpt lat="45.36779" lon="6.1403">
        <ele>1098.8204</ele>
        <time>2021-07-18T11:41:02</time>
      </trkpt>
      <trkpt lat="45.36777" lon="6.1403">
        <ele>1098.8204</ele>
        <time>2021-07-18T11:41:04</time>
      </trkpt>
      <trkpt lat="45.36776" lon="6.1403">
        <ele>1098.8204</ele>
        <time>2021-07-18T11:41:05</time>
      </trkpt>
      <trkpt lat="45.36762" lon="6.14031">
        <ele>1097.1205</ele>
        <time>2021-07-18T11:41:19</time>
      </trkpt>
      <trkpt lat="45.36762" lon="6.14032">
        <ele>1097.1205</ele>
        <time>2021-07-18T11:41:20</time>
      </trkpt>
      <trkpt lat="45.36761" lon="6.14034">
        <ele>1097.1205</ele>
        <time>2021-07-18T11:41:22</time>
      </trkpt>
      <trkpt lat="45.36759" lon="6.14035">
        <ele>1097.1205</ele>
        <time>2021-07-18T11:41:24</time>
      </trkpt>
      <trkpt lat="45.36759" lon="6.14036">
        <ele>1097.1205</ele>
        <time>2021-07-18T11:41:25</time>
      </trkpt>
      <trkpt lat="45.36742" lon="6.14041">
        <ele>1097.8204</ele>
        <time>2021-07-18T11:41:43</time>
      </trkpt>
      <trkpt lat="45.36736" lon="6.14042">
        <ele>1095.4204</ele>
        <time>2021-07-18T11:41:48</time>
      </trkpt>
      <trkpt lat="45.36734" lon="6.14042">
        <ele>1095.4204</ele>
        <time>2021-07-18T11:41:50</time>
      </trkpt>
      <trkpt lat="45.36733" lon="6.14042">
        <ele>1095.4204</ele>
        <time>2021-07-18T11:41:51</time>
      </trkpt>
      <trkpt lat="45.36729" lon="6.14045">
        <ele>1095.4204</ele>
        <time>2021-07-18T11:41:57</time>
      </trkpt>
      <trkpt lat="45.36728" lon="6.14045">
        <ele>1099.8204</ele>
        <time>2021-07-18T11:41:58</time>
      </trkpt>
      <trkpt lat="45.36725" lon="6.14045">
        <ele>1099.8204</ele>
        <time>2021-07-18T11:42:01</time>
      </trkpt>
      <trkpt lat="45.36719" lon="6.14045">
        <ele>1099.8204</ele>
        <time>2021-07-18T11:42:07</time>
      </trkpt>
      <trkpt lat="45.36718" lon="6.14045">
        <ele>1099.8204</ele>
        <time>2021-07-18T11:42:08</time>
      </trkpt>
      <trkpt lat="45.36717" lon="6.14045">
        <ele>1099.8204</ele>
        <time>2021-07-18T11:42:09</time>
      </trkpt>
      <trkpt lat="45.36716" lon="6.14045">
        <ele>1099.8204</ele>
        <time>2021-07-18T11:42:10</time>
      </trkpt>
      <trkpt lat="45.36714" lon="6.14045">
        <ele>1099.8204</ele>
        <time>2021-07-18T11:42:12</time>
      </trkpt>
      <trkpt lat="45.36711" lon="6.14045">
        <ele>1099.8204</ele>
        <time>2021-07-18T11:42:15</time>
      </trkpt>
      <trkpt lat="45.36709" lon="6.14046">
        <ele>1102.5204</ele>
        <time>2021-07-18T11:42:18</time>
      </trkpt>
      <trkpt lat="45.36706" lon="6.1405">
        <ele>1102.5204</ele>
        <time>2021-07-18T11:42:22</time>
      </trkpt>
      <trkpt lat="45.36705" lon="6.14052">
        <ele>1102.5204</ele>
        <time>2021-07-18T11:42:24</time>
      </trkpt>
      <trkpt lat="45.36704" lon="6.14052">
        <ele>1102.5204</ele>
        <time>2021-07-18T11:42:25</time>
      </trkpt>
      <trkpt lat="45.36703" lon="6.14052">
        <ele>1102.5204</ele>
        <time>2021-07-18T11:42:26</time>
      </trkpt>
      <trkpt lat="45.36702" lon="6.14051">
        <ele>1102.5204</ele>
        <time>2021-07-18T11:42:27</time>
      </trkpt>
      <trkpt lat="45.36701" lon="6.14051">
        <ele>1107.7205</ele>
        <time>2021-07-18T11:42:28</time>
      </trkpt>
      <trkpt lat="45.36701" lon="6.1405">
        <ele>1107.7205</ele>
        <time>2021-07-18T11:42:29</time>
      </trkpt>
      <trkpt lat="45.367" lon="6.14051">
        <ele>1107.7205</ele>
        <time>2021-07-18T11:42:30</time>
      </trkpt>
      <trkpt lat="45.367" lon="6.14053">
        <ele>1107.7205</ele>
        <time>2021-07-18T11:42:31</time>
      </trkpt>
      <trkpt lat="45.367" lon="6.14055">
        <ele>1107.7205</ele>
        <time>2021-07-18T11:42:32</time>
      </trkpt>
      <trkpt lat="45.367" lon="6.14057">
        <ele>1107.7205</ele>
        <time>2021-07-18T11:42:33</time>
      </trkpt>
      <trkpt lat="45.367" lon="6.14058">
        <ele>1107.7205</ele>
        <time>2021-07-18T11:42:34</time>
      </trkpt>
      <trkpt lat="45.36698" lon="6.14057">
        <ele>1107.7205</ele>
        <time>2021-07-18T11:42:35</time>
      </trkpt>
      <trkpt lat="45.36697" lon="6.14056">
        <ele>1107.7205</ele>
        <time>2021-07-18T11:42:36</time>
      </trkpt>
      <trkpt lat="45.36696" lon="6.14056">
        <ele>1107.7205</ele>
        <time>2021-07-18T11:42:37</time>
      </trkpt>
      <trkpt lat="45.36696" lon="6.14055">
        <ele>1107.2205</ele>
        <time>2021-07-18T11:42:38</time>
      </trkpt>
      <trkpt lat="45.36695" lon="6.14055">
        <ele>1107.2205</ele>
        <time>2021-07-18T11:42:39</time>
      </trkpt>
      <trkpt lat="45.36693" lon="6.14055">
        <ele>1107.2205</ele>
        <time>2021-07-18T11:42:41</time>
      </trkpt>
      <trkpt lat="45.36693" lon="6.14056">
        <ele>1107.2205</ele>
        <time>2021-07-18T11:42:42</time>
      </trkpt>
      <trkpt lat="45.36692" lon="6.14058">
        <ele>1107.2205</ele>
        <time>2021-07-18T11:42:43</time>
      </trkpt>
      <trkpt lat="45.36693" lon="6.1406">
        <ele>1107.2205</ele>
        <time>2021-07-18T11:42:44</time>
      </trkpt>
      <trkpt lat="45.36693" lon="6.14063">
        <ele>1107.2205</ele>
        <time>2021-07-18T11:42:46</time>
      </trkpt>
      <trkpt lat="45.36693" lon="6.14065">
        <ele>1107.2205</ele>
        <time>2021-07-18T11:42:47</time>
      </trkpt>
      <trkpt lat="45.36692" lon="6.14071">
        <ele>1107.2205</ele>
        <time>2021-07-18T11:42:51</time>
      </trkpt>
      <trkpt lat="45.3669" lon="6.14072">
        <ele>1107.2205</ele>
        <time>2021-07-18T11:42:53</time>
      </trkpt>
      <trkpt lat="45.36684" lon="6.14076">
        <ele>1111.3204</ele>
        <time>2021-07-18T11:42:58</time>
      </trkpt>
      <trkpt lat="45.36682" lon="6.14077">
        <ele>1111.3204</ele>
        <time>2021-07-18T11:43:00</time>
      </trkpt>
      <trkpt lat="45.3668" lon="6.14078">
        <ele>1111.3204</ele>
        <time>2021-07-18T11:43:02</time>
      </trkpt>
      <trkpt lat="45.36679" lon="6.14079">
        <ele>1111.3204</ele>
        <time>2021-07-18T11:43:03</time>
      </trkpt>
      <trkpt lat="45.36678" lon="6.1408">
        <ele>1111.3204</ele>
        <time>2021-07-18T11:43:05</time>
      </trkpt>
      <trkpt lat="45.36678" lon="6.1408">
        <ele>1111.3204</ele>
        <time>2021-07-18T11:43:06</time>
      </trkpt>
      <trkpt lat="45.36664" lon="6.1408">
        <ele>1112.0204</ele>
        <time>2021-07-18T11:43:19</time>
      </trkpt>
      <trkpt lat="45.36658" lon="6.14087">
        <ele>1110.8204</ele>
        <time>2021-07-18T11:43:28</time>
      </trkpt>
      <trkpt lat="45.36653" lon="6.14094">
        <ele>1114.9204</ele>
        <time>2021-07-18T11:43:39</time>
      </trkpt>
      <trkpt lat="45.36652" lon="6.14095">
        <ele>1114.9204</ele>
        <time>2021-07-18T11:43:40</time>
      </trkpt>
      <trkpt lat="45.36651" lon="6.14097">
        <ele>1114.9204</ele>
        <time>2021-07-18T11:43:42</time>
      </trkpt>
      <trkpt lat="45.36649" lon="6.14103">
        <ele>1114.9204</ele>
        <time>2021-07-18T11:43:46</time>
      </trkpt>
      <trkpt lat="45.36643" lon="6.14119">
        <ele>1115.5204</ele>
        <time>2021-07-18T11:43:59</time>
      </trkpt>
      <trkpt lat="45.3664" lon="6.14127">
        <ele>1115.5204</ele>
        <time>2021-07-18T11:44:06</time>
      </trkpt>
      <trkpt lat="45.36639" lon="6.14131">
        <ele>1114.9204</ele>
        <time>2021-07-18T11:44:09</time>
      </trkpt>
      <trkpt lat="45.36638" lon="6.14138">
        <ele>1114.9204</ele>
        <time>2021-07-18T11:44:13</time>
      </trkpt>
      <trkpt lat="45.36637" lon="6.14139">
        <ele>1114.9204</ele>
        <time>2021-07-18T11:44:14</time>
      </trkpt>
      <trkpt lat="45.36635" lon="6.14143">
        <ele>1111.8204</ele>
        <time>2021-07-18T11:44:19</time>
      </trkpt>
      <trkpt lat="45.36629" lon="6.14145">
        <ele>1111.8204</ele>
        <time>2021-07-18T11:44:26</time>
      </trkpt>
      <trkpt lat="45.36628" lon="6.14146">
        <ele>1111.8204</ele>
        <time>2021-07-18T11:44:27</time>
      </trkpt>
      <trkpt lat="45.36627" lon="6.14146">
        <ele>1114.5204</ele>
        <time>2021-07-18T11:44:28</time>
      </trkpt>
      <trkpt lat="45.36621" lon="6.14147">
        <ele>1114.5204</ele>
        <time>2021-07-18T11:44:33</time>
      </trkpt>
      <trkpt lat="45.36621" lon="6.14148">
        <ele>1114.5204</ele>
        <time>2021-07-18T11:44:34</time>
      </trkpt>
      <trkpt lat="45.3662" lon="6.1415">
        <ele>1114.5204</ele>
        <time>2021-07-18T11:44:35</time>
      </trkpt>
      <trkpt lat="45.3662" lon="6.14153">
        <ele>1114.5204</ele>
        <time>2021-07-18T11:44:37</time>
      </trkpt>
      <trkpt lat="45.36618" lon="6.1416">
        <ele>1117.2205</ele>
        <time>2021-07-18T11:44:42</time>
      </trkpt>
      <trkpt lat="45.36614" lon="6.14165">
        <ele>1117.2205</ele>
        <time>2021-07-18T11:44:47</time>
      </trkpt>
      <trkpt lat="45.36609" lon="6.14173">
        <ele>1116.1205</ele>
        <time>2021-07-18T11:44:55</time>
      </trkpt>
      <trkpt lat="45.36608" lon="6.14174">
        <ele>1116.1205</ele>
        <time>2021-07-18T11:44:56</time>
      </trkpt>
      <trkpt lat="45.36608" lon="6.14175">
        <ele>1116.1205</ele>
        <time>2021-07-18T11:44:57</time>
      </trkpt>
      <trkpt lat="45.36603" lon="6.14188">
        <ele>1119.6205</ele>
        <time>2021-07-18T11:45:08</time>
      </trkpt>
      <trkpt lat="45.36601" lon="6.14189">
        <ele>1119.6205</ele>
        <time>2021-07-18T11:45:10</time>
      </trkpt>
      <trkpt lat="45.366" lon="6.1419">
        <ele>1119.6205</ele>
        <time>2021-07-18T11:45:11</time>
      </trkpt>
      <trkpt lat="45.36597" lon="6.14193">
        <ele>1119.6205</ele>
        <time>2021-07-18T11:45:14</time>
      </trkpt>
      <trkpt lat="45.36597" lon="6.14194">
        <ele>1119.6205</ele>
        <time>2021-07-18T11:45:15</time>
      </trkpt>
      <trkpt lat="45.36596" lon="6.14194">
        <ele>1119.6205</ele>
        <time>2021-07-18T11:45:16</time>
      </trkpt>
      <trkpt lat="45.36595" lon="6.14193">
        <ele>1119.6205</ele>
        <time>2021-07-18T11:45:17</time>
      </trkpt>
      <trkpt lat="45.36594" lon="6.14193">
        <ele>1119.4204</ele>
        <time>2021-07-18T11:45:18</time>
      </trkpt>
      <trkpt lat="45.36593" lon="6.14193">
        <ele>1119.4204</ele>
        <time>2021-07-18T11:45:19</time>
      </trkpt>
      <trkpt lat="45.36593" lon="6.14194">
        <ele>1119.4204</ele>
        <time>2021-07-18T11:45:20</time>
      </trkpt>
      <trkpt lat="45.36592" lon="6.14194">
        <ele>1119.4204</ele>
        <time>2021-07-18T11:45:21</time>
      </trkpt>
      <trkpt lat="45.36592" lon="6.14196">
        <ele>1119.4204</ele>
        <time>2021-07-18T11:45:23</time>
      </trkpt>
      <trkpt lat="45.36592" lon="6.14196">
        <ele>1119.4204</ele>
        <time>2021-07-18T11:45:24</time>
      </trkpt>
      <trkpt lat="45.36592" lon="6.14197">
        <ele>1119.4204</ele>
        <time>2021-07-18T11:45:25</time>
      </trkpt>
      <trkpt lat="45.36591" lon="6.14198">
        <ele>1119.4204</ele>
        <time>2021-07-18T11:45:27</time>
      </trkpt>
      <trkpt lat="45.36589" lon="6.14199">
        <ele>1120.6205</ele>
        <time>2021-07-18T11:45:30</time>
      </trkpt>
      <trkpt lat="45.36586" lon="6.14201">
        <ele>1120.6205</ele>
        <time>2021-07-18T11:45:34</time>
      </trkpt>
      <trkpt lat="45.36585" lon="6.14202">
        <ele>1120.6205</ele>
        <time>2021-07-18T11:45:35</time>
      </trkpt>
      <trkpt lat="45.36581" lon="6.14205">
        <ele>1125.7205</ele>
        <time>2021-07-18T11:45:39</time>
      </trkpt>
      <trkpt lat="45.36581" lon="6.14206">
        <ele>1125.7205</ele>
        <time>2021-07-18T11:45:40</time>
      </trkpt>
      <trkpt lat="45.36581" lon="6.14207">
        <ele>1125.7205</ele>
        <time>2021-07-18T11:45:41</time>
      </trkpt>
      <trkpt lat="45.3658" lon="6.14208">
        <ele>1125.7205</ele>
        <time>2021-07-18T11:45:42</time>
      </trkpt>
      <trkpt lat="45.36579" lon="6.14209">
        <ele>1125.7205</ele>
        <time>2021-07-18T11:45:44</time>
      </trkpt>
      <trkpt lat="45.36577" lon="6.1421">
        <ele>1125.7205</ele>
        <time>2021-07-18T11:45:46</time>
      </trkpt>
      <trkpt lat="45.36576" lon="6.1421">
        <ele>1125.7205</ele>
        <time>2021-07-18T11:45:47</time>
      </trkpt>
      <trkpt lat="45.36575" lon="6.14211">
        <ele>1125.5204</ele>
        <time>2021-07-18T11:45:49</time>
      </trkpt>
      <trkpt lat="45.36573" lon="6.14211">
        <ele>1125.5204</ele>
        <time>2021-07-18T11:45:52</time>
      </trkpt>
      <trkpt lat="45.36571" lon="6.14211">
        <ele>1125.5204</ele>
        <time>2021-07-18T11:45:55</time>
      </trkpt>
      <trkpt lat="45.36569" lon="6.1421">
        <ele>1125.5204</ele>
        <time>2021-07-18T11:45:57</time>
      </trkpt>
      <trkpt lat="45.36568" lon="6.1421">
        <ele>1124.7205</ele>
        <time>2021-07-18T11:45:58</time>
      </trkpt>
      <trkpt lat="45.36565" lon="6.14211">
        <ele>1124.7205</ele>
        <time>2021-07-18T11:46:01</time>
      </trkpt>
      <trkpt lat="45.36564" lon="6.14211">
        <ele>1124.7205</ele>
        <time>2021-07-18T11:46:02</time>
      </trkpt>
      <trkpt lat="45.3656" lon="6.14212">
        <ele>1124.7205</ele>
        <time>2021-07-18T11:46:06</time>
      </trkpt>
      <trkpt lat="45.36559" lon="6.14212">
        <ele>1124.7205</ele>
        <time>2021-07-18T11:46:07</time>
      </trkpt>
      <trkpt lat="45.36558" lon="6.14213">
        <ele>1126.1205</ele>
        <time>2021-07-18T11:46:08</time>
      </trkpt>
      <trkpt lat="45.36556" lon="6.14213">
        <ele>1126.1205</ele>
        <time>2021-07-18T11:46:10</time>
      </trkpt>
      <trkpt lat="45.36556" lon="6.14213">
        <ele>1126.1205</ele>
        <time>2021-07-18T11:46:11</time>
      </trkpt>
      <trkpt lat="45.36555" lon="6.14213">
        <ele>1126.1205</ele>
        <time>2021-07-18T11:46:12</time>
      </trkpt>
      <trkpt lat="45.36553" lon="6.14213">
        <ele>1126.1205</ele>
        <time>2021-07-18T11:46:13</time>
      </trkpt>
      <trkpt lat="45.3655" lon="6.14214">
        <ele>1126.1205</ele>
        <time>2021-07-18T11:46:16</time>
      </trkpt>
      <trkpt lat="45.36547" lon="6.14215">
        <ele>1124.9537</ele>
        <time>2021-07-18T11:46:19</time>
      </trkpt>
      <trkpt lat="45.36541" lon="6.14217">
        <ele>1124.9537</ele>
        <time>2021-07-18T11:46:25</time>
      </trkpt>
      <trkpt lat="45.36539" lon="6.14218">
        <ele>1124.9537</ele>
        <time>2021-07-18T11:46:27</time>
      </trkpt>
      <trkpt lat="45.36533" lon="6.1422">
        <ele>1126.1205</ele>
        <time>2021-07-18T11:46:36</time>
      </trkpt>
      <trkpt lat="45.36527" lon="6.14231">
        <ele>1129.3204</ele>
        <time>2021-07-18T11:46:45</time>
      </trkpt>
      <trkpt lat="45.36527" lon="6.14231">
        <ele>1129.3204</ele>
        <time>2021-07-18T11:46:46</time>
      </trkpt>
      <trkpt lat="45.36526" lon="6.14232">
        <ele>1129.3204</ele>
        <time>2021-07-18T11:46:47</time>
      </trkpt>
      <trkpt lat="45.36523" lon="6.14232">
        <ele>1128.7205</ele>
        <time>2021-07-18T11:46:49</time>
      </trkpt>
      <trkpt lat="45.36514" lon="6.14236">
        <ele>1128.7205</ele>
        <time>2021-07-18T11:46:58</time>
      </trkpt>
      <trkpt lat="45.3651" lon="6.14244">
        <ele>1131.3204</ele>
        <time>2021-07-18T11:47:07</time>
      </trkpt>
      <trkpt lat="45.3651" lon="6.14246">
        <ele>1131.3204</ele>
        <time>2021-07-18T11:47:08</time>
      </trkpt>
      <trkpt lat="45.36508" lon="6.14247">
        <ele>1132.2205</ele>
        <time>2021-07-18T11:47:10</time>
      </trkpt>
      <trkpt lat="45.36504" lon="6.14248">
        <ele>1132.2205</ele>
        <time>2021-07-18T11:47:13</time>
      </trkpt>
      <trkpt lat="45.36499" lon="6.14251">
        <ele>1133.4204</ele>
        <time>2021-07-18T11:47:20</time>
      </trkpt>
      <trkpt lat="45.36497" lon="6.14251">
        <ele>1133.4204</ele>
        <time>2021-07-18T11:47:21</time>
      </trkpt>
      <trkpt lat="45.36496" lon="6.14251">
        <ele>1133.4204</ele>
        <time>2021-07-18T11:47:22</time>
      </trkpt>
      <trkpt lat="45.36494" lon="6.14251">
        <ele>1133.4204</ele>
        <time>2021-07-18T11:47:24</time>
      </trkpt>
      <trkpt lat="45.3649" lon="6.14251">
        <ele>1133.4204</ele>
        <time>2021-07-18T11:47:28</time>
      </trkpt>
      <trkpt lat="45.36487" lon="6.14252">
        <ele>1131.7205</ele>
        <time>2021-07-18T11:47:31</time>
      </trkpt>
      <trkpt lat="45.36487" lon="6.14253">
        <ele>1131.7205</ele>
        <time>2021-07-18T11:47:32</time>
      </trkpt>
      <trkpt lat="45.36486" lon="6.14254">
        <ele>1131.7205</ele>
        <time>2021-07-18T11:47:35</time>
      </trkpt>
      <trkpt lat="45.36486" lon="6.14254">
        <ele>1131.7205</ele>
        <time>2021-07-18T11:47:36</time>
      </trkpt>
      <trkpt lat="45.36485" lon="6.14255">
        <ele>1131.7205</ele>
        <time>2021-07-18T11:47:37</time>
      </trkpt>
      <trkpt lat="45.36484" lon="6.14255">
        <ele>1131.7205</ele>
        <time>2021-07-18T11:47:38</time>
      </trkpt>
      <trkpt lat="45.36482" lon="6.14258">
        <ele>1134.6205</ele>
        <time>2021-07-18T11:47:41</time>
      </trkpt>
      <trkpt lat="45.36483" lon="6.14259">
        <ele>1134.6205</ele>
        <time>2021-07-18T11:47:42</time>
      </trkpt>
      <trkpt lat="45.36483" lon="6.1426">
        <ele>1134.6205</ele>
        <time>2021-07-18T11:47:43</time>
      </trkpt>
      <trkpt lat="45.36482" lon="6.1426">
        <ele>1134.6205</ele>
        <time>2021-07-18T11:47:44</time>
      </trkpt>
      <trkpt lat="45.36481" lon="6.14261">
        <ele>1134.6205</ele>
        <time>2021-07-18T11:47:45</time>
      </trkpt>
      <trkpt lat="45.36479" lon="6.1426">
        <ele>1134.6205</ele>
        <time>2021-07-18T11:47:47</time>
      </trkpt>
      <trkpt lat="45.36477" lon="6.14259">
        <ele>1137.0204</ele>
        <time>2021-07-18T11:47:51</time>
      </trkpt>
      <trkpt lat="45.36474" lon="6.1426">
        <ele>1137.0204</ele>
        <time>2021-07-18T11:47:54</time>
      </trkpt>
      <trkpt lat="45.36473" lon="6.14261">
        <ele>1137.0204</ele>
        <time>2021-07-18T11:47:56</time>
      </trkpt>
      <trkpt lat="45.36473" lon="6.14263">
        <ele>1137.0204</ele>
        <time>2021-07-18T11:47:57</time>
      </trkpt>
      <trkpt lat="45.36472" lon="6.14264">
        <ele>1137.0204</ele>
        <time>2021-07-18T11:47:58</time>
      </trkpt>
      <trkpt lat="45.3647" lon="6.14266">
        <ele>1136.0204</ele>
        <time>2021-07-18T11:48:03</time>
      </trkpt>
      <trkpt lat="45.36465" lon="6.14271">
        <ele>1135.5204</ele>
        <time>2021-07-18T11:48:12</time>
      </trkpt>
      <trkpt lat="45.36459" lon="6.14272">
        <ele>1135.5204</ele>
        <time>2021-07-18T11:48:16</time>
      </trkpt>
      <trkpt lat="45.36458" lon="6.14272">
        <ele>1135.5204</ele>
        <time>2021-07-18T11:48:17</time>
      </trkpt>
      <trkpt lat="45.36457" lon="6.14272">
        <ele>1135.5204</ele>
        <time>2021-07-18T11:48:18</time>
      </trkpt>
      <trkpt lat="45.36456" lon="6.14271">
        <ele>1138.7205</ele>
        <time>2021-07-18T11:48:20</time>
      </trkpt>
      <trkpt lat="45.36455" lon="6.14271">
        <ele>1138.7205</ele>
        <time>2021-07-18T11:48:21</time>
      </trkpt>
      <trkpt lat="45.36454" lon="6.14272">
        <ele>1138.7205</ele>
        <time>2021-07-18T11:48:22</time>
      </trkpt>
      <trkpt lat="45.36453" lon="6.14272">
        <ele>1138.7205</ele>
        <time>2021-07-18T11:48:23</time>
      </trkpt>
      <trkpt lat="45.36451" lon="6.14272">
        <ele>1138.7205</ele>
        <time>2021-07-18T11:48:26</time>
      </trkpt>
      <trkpt lat="45.3645" lon="6.14274">
        <ele>1138.7205</ele>
        <time>2021-07-18T11:48:29</time>
      </trkpt>
      <trkpt lat="45.3645" lon="6.14274">
        <ele>1141.9204</ele>
        <time>2021-07-18T11:48:30</time>
      </trkpt>
      <trkpt lat="45.36449" lon="6.14274">
        <ele>1141.9204</ele>
        <time>2021-07-18T11:48:32</time>
      </trkpt>
      <trkpt lat="45.36449" lon="6.14275">
        <ele>1141.9204</ele>
        <time>2021-07-18T11:48:33</time>
      </trkpt>
      <trkpt lat="45.36449" lon="6.14275">
        <ele>1141.9204</ele>
        <time>2021-07-18T11:48:34</time>
      </trkpt>
      <trkpt lat="45.36448" lon="6.14275">
        <ele>1141.9204</ele>
        <time>2021-07-18T11:48:35</time>
      </trkpt>
      <trkpt lat="45.36447" lon="6.14276">
        <ele>1141.9204</ele>
        <time>2021-07-18T11:48:36</time>
      </trkpt>
      <trkpt lat="45.36447" lon="6.14276">
        <ele>1141.9204</ele>
        <time>2021-07-18T11:48:37</time>
      </trkpt>
      <trkpt lat="45.36446" lon="6.14276">
        <ele>1141.9204</ele>
        <time>2021-07-18T11:48:38</time>
      </trkpt>
      <trkpt lat="45.36445" lon="6.14276">
        <ele>1141.9204</ele>
        <time>2021-07-18T11:48:39</time>
      </trkpt>
      <trkpt lat="45.36444" lon="6.14277">
        <ele>1138.6205</ele>
        <time>2021-07-18T11:48:40</time>
      </trkpt>
      <trkpt lat="45.36443" lon="6.14277">
        <ele>1138.6205</ele>
        <time>2021-07-18T11:48:41</time>
      </trkpt>
      <trkpt lat="45.36442" lon="6.14277">
        <ele>1138.6205</ele>
        <time>2021-07-18T11:48:42</time>
      </trkpt>
      <trkpt lat="45.36434" lon="6.14277">
        <ele>1138.6205</ele>
        <time>2021-07-18T11:48:49</time>
      </trkpt>
      <trkpt lat="45.36432" lon="6.14276">
        <ele>1139.3204</ele>
        <time>2021-07-18T11:48:50</time>
      </trkpt>
      <trkpt lat="45.36422" lon="6.14278">
        <ele>1142.1205</ele>
        <time>2021-07-18T11:49:01</time>
      </trkpt>
      <trkpt lat="45.36421" lon="6.14278">
        <ele>1142.1205</ele>
        <time>2021-07-18T11:49:02</time>
      </trkpt>
      <trkpt lat="45.36419" lon="6.14279">
        <ele>1142.1205</ele>
        <time>2021-07-18T11:49:04</time>
      </trkpt>
      <trkpt lat="45.36418" lon="6.1428">
        <ele>1142.1205</ele>
        <time>2021-07-18T11:49:06</time>
      </trkpt>
      <trkpt lat="45.36417" lon="6.14281">
        <ele>1142.1205</ele>
        <time>2021-07-18T11:49:07</time>
      </trkpt>
      <trkpt lat="45.36416" lon="6.14281">
        <ele>1142.1205</ele>
        <time>2021-07-18T11:49:08</time>
      </trkpt>
      <trkpt lat="45.36416" lon="6.14281">
        <ele>1142.1205</ele>
        <time>2021-07-18T11:49:09</time>
      </trkpt>
      <trkpt lat="45.36411" lon="6.1428">
        <ele>1143.5204</ele>
        <time>2021-07-18T11:49:13</time>
      </trkpt>
      <trkpt lat="45.3641" lon="6.1428">
        <ele>1143.5204</ele>
        <time>2021-07-18T11:49:14</time>
      </trkpt>
      <trkpt lat="45.36407" lon="6.14282">
        <ele>1143.5204</ele>
        <time>2021-07-18T11:49:18</time>
      </trkpt>
      <trkpt lat="45.36405" lon="6.14283">
        <ele>1143.5204</ele>
        <time>2021-07-18T11:49:20</time>
      </trkpt>
      <trkpt lat="45.36404" lon="6.14285">
        <ele>1143.5204</ele>
        <time>2021-07-18T11:49:22</time>
      </trkpt>
      <trkpt lat="45.36401" lon="6.1429">
        <ele>1143.5204</ele>
        <time>2021-07-18T11:49:28</time>
      </trkpt>
      <trkpt lat="45.36389" lon="6.14294">
        <ele>1142.3204</ele>
        <time>2021-07-18T11:49:40</time>
      </trkpt>
      <trkpt lat="45.36378" lon="6.14301">
        <ele>1140.7205</ele>
        <time>2021-07-18T11:49:53</time>
      </trkpt>
      <trkpt lat="45.36376" lon="6.14307">
        <ele>1140.7205</ele>
        <time>2021-07-18T11:49:59</time>
      </trkpt>
      <trkpt lat="45.36376" lon="6.14312">
        <ele>1140.1205</ele>
        <time>2021-07-18T11:50:03</time>
      </trkpt>
      <trkpt lat="45.36376" lon="6.14318">
        <ele>1140.1205</ele>
        <time>2021-07-18T11:50:08</time>
      </trkpt>
      <trkpt lat="45.3638" lon="6.14321">
        <ele>1149.4204</ele>
        <time>2021-07-18T11:50:15</time>
      </trkpt>
      <trkpt lat="45.36381" lon="6.14322">
        <ele>1149.4204</ele>
        <time>2021-07-18T11:50:17</time>
      </trkpt>
      <trkpt lat="45.36381" lon="6.14322">
        <ele>1149.4204</ele>
        <time>2021-07-18T11:50:18</time>
      </trkpt>
      <trkpt lat="45.36386" lon="6.14322">
        <ele>1147.7205</ele>
        <time>2021-07-18T11:50:25</time>
      </trkpt>
      <trkpt lat="45.36387" lon="6.14322">
        <ele>1147.7205</ele>
        <time>2021-07-18T11:50:26</time>
      </trkpt>
      <trkpt lat="45.3639" lon="6.14322">
        <ele>1147.7205</ele>
        <time>2021-07-18T11:50:29</time>
      </trkpt>
      <trkpt lat="45.36391" lon="6.14321">
        <ele>1151.6205</ele>
        <time>2021-07-18T11:50:30</time>
      </trkpt>
      <trkpt lat="45.36394" lon="6.14322">
        <ele>1151.6205</ele>
        <time>2021-07-18T11:50:34</time>
      </trkpt>
      <trkpt lat="45.36403" lon="6.14321">
        <ele>1153.4204</ele>
        <time>2021-07-18T11:50:45</time>
      </trkpt>
      <trkpt lat="45.36404" lon="6.14321">
        <ele>1153.4204</ele>
        <time>2021-07-18T11:50:46</time>
      </trkpt>
      <trkpt lat="45.36408" lon="6.14321">
        <ele>1155.0204</ele>
        <time>2021-07-18T11:50:51</time>
      </trkpt>
      <trkpt lat="45.36409" lon="6.14321">
        <ele>1155.0204</ele>
        <time>2021-07-18T11:50:52</time>
      </trkpt>
      <trkpt lat="45.36411" lon="6.1432">
        <ele>1155.0204</ele>
        <time>2021-07-18T11:50:54</time>
      </trkpt>
      <trkpt lat="45.36412" lon="6.14321">
        <ele>1155.0204</ele>
        <time>2021-07-18T11:50:55</time>
      </trkpt>
      <trkpt lat="45.36413" lon="6.14322">
        <ele>1155.0204</ele>
        <time>2021-07-18T11:50:56</time>
      </trkpt>
      <trkpt lat="45.36414" lon="6.14322">
        <ele>1155.0204</ele>
        <time>2021-07-18T11:50:57</time>
      </trkpt>
      <trkpt lat="45.36423" lon="6.14321">
        <ele>1155.1205</ele>
        <time>2021-07-18T11:51:06</time>
      </trkpt>
      <trkpt lat="45.36424" lon="6.14321">
        <ele>1155.1205</ele>
        <time>2021-07-18T11:51:07</time>
      </trkpt>
      <trkpt lat="45.36428" lon="6.1432">
        <ele>1153.4204</ele>
        <time>2021-07-18T11:51:11</time>
      </trkpt>
      <trkpt lat="45.36429" lon="6.14321">
        <ele>1153.4204</ele>
        <time>2021-07-18T11:51:12</time>
      </trkpt>
      <trkpt lat="45.36432" lon="6.14322">
        <ele>1153.4204</ele>
        <time>2021-07-18T11:51:15</time>
      </trkpt>
      <trkpt lat="45.3644" lon="6.14325">
        <ele>1154.9204</ele>
        <time>2021-07-18T11:51:24</time>
      </trkpt>
      <trkpt lat="45.36443" lon="6.14326">
        <ele>1154.9204</ele>
        <time>2021-07-18T11:51:27</time>
      </trkpt>
      <trkpt lat="45.36444" lon="6.14326">
        <ele>1154.9204</ele>
        <time>2021-07-18T11:51:28</time>
      </trkpt>
      <trkpt lat="45.36445" lon="6.14325">
        <ele>1154.9204</ele>
        <time>2021-07-18T11:51:29</time>
      </trkpt>
      <trkpt lat="45.36448" lon="6.14326">
        <ele>1149.4204</ele>
        <time>2021-07-18T11:51:32</time>
      </trkpt>
      <trkpt lat="45.36449" lon="6.14326">
        <ele>1149.4204</ele>
        <time>2021-07-18T11:51:33</time>
      </trkpt>
      <trkpt lat="45.36451" lon="6.14324">
        <ele>1149.4204</ele>
        <time>2021-07-18T11:51:37</time>
      </trkpt>
      <trkpt lat="45.36452" lon="6.14323">
        <ele>1149.4204</ele>
        <time>2021-07-18T11:51:38</time>
      </trkpt>
      <trkpt lat="45.36456" lon="6.14322">
        <ele>1150.0204</ele>
        <time>2021-07-18T11:51:43</time>
      </trkpt>
      <trkpt lat="45.36456" lon="6.14322">
        <ele>1150.0204</ele>
        <time>2021-07-18T11:51:45</time>
      </trkpt>
      <trkpt lat="45.36465" lon="6.14323">
        <ele>1151.1205</ele>
        <time>2021-07-18T11:51:51</time>
      </trkpt>
      <trkpt lat="45.36467" lon="6.14325">
        <ele>1151.1205</ele>
        <time>2021-07-18T11:51:53</time>
      </trkpt>
      <trkpt lat="45.36469" lon="6.14325">
        <ele>1151.1205</ele>
        <time>2021-07-18T11:51:54</time>
      </trkpt>
      <trkpt lat="45.36471" lon="6.14325">
        <ele>1151.1205</ele>
        <time>2021-07-18T11:51:55</time>
      </trkpt>
      <trkpt lat="45.36477" lon="6.14328">
        <ele>1147.8204</ele>
        <time>2021-07-18T11:52:00</time>
      </trkpt>
      <trkpt lat="45.36484" lon="6.14327">
        <ele>1147.8204</ele>
        <time>2021-07-18T11:52:07</time>
      </trkpt>
      <trkpt lat="45.36486" lon="6.14325">
        <ele>1148.9204</ele>
        <time>2021-07-18T11:52:10</time>
      </trkpt>
      <trkpt lat="45.36491" lon="6.14325">
        <ele>1148.9204</ele>
        <time>2021-07-18T11:52:15</time>
      </trkpt>
      <trkpt lat="45.36492" lon="6.14326">
        <ele>1148.9204</ele>
        <time>2021-07-18T11:52:16</time>
      </trkpt>
      <trkpt lat="45.36496" lon="6.14326">
        <ele>1153.7205</ele>
        <time>2021-07-18T11:52:20</time>
      </trkpt>
      <trkpt lat="45.365" lon="6.14326">
        <ele>1153.7205</ele>
        <time>2021-07-18T11:52:23</time>
      </trkpt>
      <trkpt lat="45.36505" lon="6.14325">
        <ele>1153.7205</ele>
        <time>2021-07-18T11:52:28</time>
      </trkpt>
      <trkpt lat="45.36509" lon="6.14325">
        <ele>1153.2205</ele>
        <time>2021-07-18T11:52:32</time>
      </trkpt>
      <trkpt lat="45.36512" lon="6.14322">
        <ele>1153.2205</ele>
        <time>2021-07-18T11:52:37</time>
      </trkpt>
      <trkpt lat="45.36514" lon="6.1432">
        <ele>1152.9204</ele>
        <time>2021-07-18T11:52:40</time>
      </trkpt>
      <trkpt lat="45.36524" lon="6.14318">
        <ele>1152.9204</ele>
        <time>2021-07-18T11:52:50</time>
      </trkpt>
      <trkpt lat="45.36534" lon="6.14314">
        <ele>1154.6205</ele>
        <time>2021-07-18T11:53:02</time>
      </trkpt>
      <trkpt lat="45.36535" lon="6.14313">
        <ele>1154.6205</ele>
        <time>2021-07-18T11:53:03</time>
      </trkpt>
      <trkpt lat="45.36536" lon="6.14313">
        <ele>1154.6205</ele>
        <time>2021-07-18T11:53:04</time>
      </trkpt>
      <trkpt lat="45.36538" lon="6.14311">
        <ele>1154.6205</ele>
        <time>2021-07-18T11:53:07</time>
      </trkpt>
      <trkpt lat="45.3654" lon="6.1431">
        <ele>1154.6205</ele>
        <time>2021-07-18T11:53:09</time>
      </trkpt>
      <trkpt lat="45.36541" lon="6.14313">
        <ele>1160.0204</ele>
        <time>2021-07-18T11:53:39</time>
      </trkpt>
      <trkpt lat="45.3654" lon="6.14312">
        <ele>1159.6205</ele>
        <time>2021-07-18T11:54:42</time>
      </trkpt>
      <trkpt lat="45.36541" lon="6.14312">
        <ele>1159.6205</ele>
        <time>2021-07-18T11:54:44</time>
      </trkpt>
      <trkpt lat="45.36541" lon="6.14311">
        <ele>1159.6205</ele>
        <time>2021-07-18T11:54:45</time>
      </trkpt>
      <trkpt lat="45.36541" lon="6.14311">
        <ele>1159.6205</ele>
        <time>2021-07-18T11:54:46</time>
      </trkpt>
      <trkpt lat="45.36541" lon="6.14311">
        <ele>1159.6205</ele>
        <time>2021-07-18T11:54:47</time>
      </trkpt>
      <trkpt lat="45.36542" lon="6.1431">
        <ele>1159.6205</ele>
        <time>2021-07-18T11:54:48</time>
      </trkpt>
      <trkpt lat="45.36542" lon="6.14309">
        <ele>1159.6205</ele>
        <time>2021-07-18T11:54:49</time>
      </trkpt>
      <trkpt lat="45.36543" lon="6.14307">
        <ele>1159.4204</ele>
        <time>2021-07-18T11:54:51</time>
      </trkpt>
      <trkpt lat="45.36562" lon="6.14301">
        <ele>1170.7205</ele>
        <time>2021-07-18T11:55:10</time>
      </trkpt>
      <trkpt lat="45.36563" lon="6.14301">
        <ele>1170.7205</ele>
        <time>2021-07-18T11:55:11</time>
      </trkpt>
      <trkpt lat="45.36566" lon="6.14295">
        <ele>1170.7205</ele>
        <time>2021-07-18T11:55:17</time>
      </trkpt>
      <trkpt lat="45.36567" lon="6.14294">
        <ele>1170.7205</ele>
        <time>2021-07-18T11:55:18</time>
      </trkpt>
      <trkpt lat="45.36568" lon="6.14294">
        <ele>1170.7205</ele>
        <time>2021-07-18T11:55:19</time>
      </trkpt>
      <trkpt lat="45.36569" lon="6.14293">
        <ele>1165.1205</ele>
        <time>2021-07-18T11:55:21</time>
      </trkpt>
      <trkpt lat="45.3658" lon="6.14294">
        <ele>1163.9204</ele>
        <time>2021-07-18T11:55:32</time>
      </trkpt>
      <trkpt lat="45.36582" lon="6.14292">
        <ele>1163.9204</ele>
        <time>2021-07-18T11:55:35</time>
      </trkpt>
      <trkpt lat="45.36587" lon="6.14287">
        <ele>1164.2205</ele>
        <time>2021-07-18T11:55:41</time>
      </trkpt>
      <trkpt lat="45.36595" lon="6.14289">
        <ele>1164.2205</ele>
        <time>2021-07-18T11:55:49</time>
      </trkpt>
      <trkpt lat="45.36597" lon="6.14293">
        <ele>1171.9204</ele>
        <time>2021-07-18T11:55:52</time>
      </trkpt>
      <trkpt lat="45.36598" lon="6.14295">
        <ele>1171.9204</ele>
        <time>2021-07-18T11:55:53</time>
      </trkpt>
      <trkpt lat="45.36598" lon="6.14297">
        <ele>1171.9204</ele>
        <time>2021-07-18T11:55:55</time>
      </trkpt>
      <trkpt lat="45.36598" lon="6.14298">
        <ele>1171.9204</ele>
        <time>2021-07-18T11:55:57</time>
      </trkpt>
      <trkpt lat="45.36598" lon="6.143">
        <ele>1171.9204</ele>
        <time>2021-07-18T11:55:58</time>
      </trkpt>
      <trkpt lat="45.36601" lon="6.14304">
        <ele>1169.4204</ele>
        <time>2021-07-18T11:56:02</time>
      </trkpt>
      <trkpt lat="45.36601" lon="6.14304">
        <ele>1169.4204</ele>
        <time>2021-07-18T11:56:03</time>
      </trkpt>
      <trkpt lat="45.36601" lon="6.14306">
        <ele>1169.4204</ele>
        <time>2021-07-18T11:56:04</time>
      </trkpt>
      <trkpt lat="45.36601" lon="6.14307">
        <ele>1169.4204</ele>
        <time>2021-07-18T11:56:05</time>
      </trkpt>
      <trkpt lat="45.366" lon="6.1431">
        <ele>1169.4204</ele>
        <time>2021-07-18T11:56:07</time>
      </trkpt>
      <trkpt lat="45.36597" lon="6.14318">
        <ele>1173.2205</ele>
        <time>2021-07-18T11:56:14</time>
      </trkpt>
      <trkpt lat="45.36596" lon="6.14319">
        <ele>1173.2205</ele>
        <time>2021-07-18T11:56:15</time>
      </trkpt>
      <trkpt lat="45.36596" lon="6.14319">
        <ele>1173.2205</ele>
        <time>2021-07-18T11:56:17</time>
      </trkpt>
      <trkpt lat="45.36595" lon="6.14321">
        <ele>1173.2205</ele>
        <time>2021-07-18T11:56:18</time>
      </trkpt>
      <trkpt lat="45.36595" lon="6.14322">
        <ele>1173.2205</ele>
        <time>2021-07-18T11:56:19</time>
      </trkpt>
      <trkpt lat="45.36594" lon="6.14322">
        <ele>1174.1205</ele>
        <time>2021-07-18T11:56:20</time>
      </trkpt>
      <trkpt lat="45.36594" lon="6.14323">
        <ele>1174.1205</ele>
        <time>2021-07-18T11:56:21</time>
      </trkpt>
      <trkpt lat="45.36593" lon="6.14323">
        <ele>1174.1205</ele>
        <time>2021-07-18T11:56:22</time>
      </trkpt>
      <trkpt lat="45.36589" lon="6.14325">
        <ele>1174.1205</ele>
        <time>2021-07-18T11:56:26</time>
      </trkpt>
      <trkpt lat="45.36589" lon="6.14326">
        <ele>1174.1205</ele>
        <time>2021-07-18T11:56:27</time>
      </trkpt>
      <trkpt lat="45.36586" lon="6.14336">
        <ele>1175.0204</ele>
        <time>2021-07-18T11:56:33</time>
      </trkpt>
      <trkpt lat="45.36586" lon="6.14337">
        <ele>1175.0204</ele>
        <time>2021-07-18T11:56:34</time>
      </trkpt>
      <trkpt lat="45.36585" lon="6.1434">
        <ele>1175.0204</ele>
        <time>2021-07-18T11:56:36</time>
      </trkpt>
      <trkpt lat="45.36584" lon="6.14343">
        <ele>1175.0204</ele>
        <time>2021-07-18T11:56:39</time>
      </trkpt>
      <trkpt lat="45.36584" lon="6.14344">
        <ele>1174.0204</ele>
        <time>2021-07-18T11:56:40</time>
      </trkpt>
      <trkpt lat="45.36581" lon="6.14349">
        <ele>1174.0204</ele>
        <time>2021-07-18T11:56:44</time>
      </trkpt>
      <trkpt lat="45.36579" lon="6.14352">
        <ele>1174.0204</ele>
        <time>2021-07-18T11:56:47</time>
      </trkpt>
      <trkpt lat="45.36576" lon="6.14355">
        <ele>1176.6205</ele>
        <time>2021-07-18T11:56:52</time>
      </trkpt>
      <trkpt lat="45.36574" lon="6.14356">
        <ele>1176.6205</ele>
        <time>2021-07-18T11:56:55</time>
      </trkpt>
      <trkpt lat="45.36572" lon="6.14357">
        <ele>1176.6205</ele>
        <time>2021-07-18T11:56:57</time>
      </trkpt>
      <trkpt lat="45.36572" lon="6.14358">
        <ele>1176.6205</ele>
        <time>2021-07-18T11:56:58</time>
      </trkpt>
      <trkpt lat="45.36564" lon="6.14366">
        <ele>1174.5204</ele>
        <time>2021-07-18T11:57:06</time>
      </trkpt>
      <trkpt lat="45.36563" lon="6.14366">
        <ele>1174.5204</ele>
        <time>2021-07-18T11:57:07</time>
      </trkpt>
      <trkpt lat="45.36562" lon="6.14367">
        <ele>1174.5204</ele>
        <time>2021-07-18T11:57:09</time>
      </trkpt>
      <trkpt lat="45.36562" lon="6.14369">
        <ele>1177.4204</ele>
        <time>2021-07-18T11:57:10</time>
      </trkpt>
      <trkpt lat="45.36561" lon="6.14372">
        <ele>1177.4204</ele>
        <time>2021-07-18T11:57:13</time>
      </trkpt>
      <trkpt lat="45.36561" lon="6.14374">
        <ele>1177.4204</ele>
        <time>2021-07-18T11:57:14</time>
      </trkpt>
      <trkpt lat="45.36558" lon="6.14384">
        <ele>1178.9204</ele>
        <time>2021-07-18T11:57:25</time>
      </trkpt>
      <trkpt lat="45.36556" lon="6.14384">
        <ele>1177.8204</ele>
        <time>2021-07-18T11:57:30</time>
      </trkpt>
      <trkpt lat="45.36549" lon="6.14384">
        <ele>1177.8204</ele>
        <time>2021-07-18T11:57:35</time>
      </trkpt>
      <trkpt lat="45.36548" lon="6.14385">
        <ele>1177.8204</ele>
        <time>2021-07-18T11:57:36</time>
      </trkpt>
      <trkpt lat="45.36547" lon="6.14386">
        <ele>1177.8204</ele>
        <time>2021-07-18T11:57:37</time>
      </trkpt>
      <trkpt lat="45.36547" lon="6.14388">
        <ele>1177.8204</ele>
        <time>2021-07-18T11:57:38</time>
      </trkpt>
      <trkpt lat="45.36546" lon="6.1439">
        <ele>1177.8204</ele>
        <time>2021-07-18T11:57:39</time>
      </trkpt>
      <trkpt lat="45.36546" lon="6.14401">
        <ele>1182.1205</ele>
        <time>2021-07-18T11:57:44</time>
      </trkpt>
      <trkpt lat="45.36546" lon="6.14406">
        <ele>1182.1205</ele>
        <time>2021-07-18T11:57:47</time>
      </trkpt>
      <trkpt lat="45.36544" lon="6.14409">
        <ele>1182.1205</ele>
        <time>2021-07-18T11:57:49</time>
      </trkpt>
      <trkpt lat="45.36542" lon="6.14413">
        <ele>1179.0204</ele>
        <time>2021-07-18T11:57:53</time>
      </trkpt>
      <trkpt lat="45.36542" lon="6.14417">
        <ele>1179.0204</ele>
        <time>2021-07-18T11:57:55</time>
      </trkpt>
      <trkpt lat="45.36541" lon="6.14419">
        <ele>1179.0204</ele>
        <time>2021-07-18T11:57:56</time>
      </trkpt>
      <trkpt lat="45.3654" lon="6.14427">
        <ele>1179.7205</ele>
        <time>2021-07-18T11:58:02</time>
      </trkpt>
      <trkpt lat="45.36536" lon="6.1444">
        <ele>1179.3204</ele>
        <time>2021-07-18T11:58:11</time>
      </trkpt>
      <trkpt lat="45.36536" lon="6.1444">
        <ele>1179.3204</ele>
        <time>2021-07-18T11:58:12</time>
      </trkpt>
      <trkpt lat="45.36535" lon="6.14443">
        <ele>1179.3204</ele>
        <time>2021-07-18T11:58:14</time>
      </trkpt>
      <trkpt lat="45.36534" lon="6.14446">
        <ele>1179.3204</ele>
        <time>2021-07-18T11:58:16</time>
      </trkpt>
      <trkpt lat="45.36533" lon="6.14449">
        <ele>1179.3204</ele>
        <time>2021-07-18T11:58:18</time>
      </trkpt>
      <trkpt lat="45.3653" lon="6.14452">
        <ele>1178.2205</ele>
        <time>2021-07-18T11:58:21</time>
      </trkpt>
      <trkpt lat="45.3653" lon="6.14452">
        <ele>1178.2205</ele>
        <time>2021-07-18T11:58:22</time>
      </trkpt>
      <trkpt lat="45.36528" lon="6.14451">
        <ele>1178.2205</ele>
        <time>2021-07-18T11:58:24</time>
      </trkpt>
      <trkpt lat="45.36527" lon="6.14451">
        <ele>1178.2205</ele>
        <time>2021-07-18T11:58:27</time>
      </trkpt>
      <trkpt lat="45.36526" lon="6.14452">
        <ele>1178.2205</ele>
        <time>2021-07-18T11:58:28</time>
      </trkpt>
      <trkpt lat="45.36525" lon="6.14453">
        <ele>1178.2205</ele>
        <time>2021-07-18T11:58:29</time>
      </trkpt>
      <trkpt lat="45.36524" lon="6.14454">
        <ele>1179.0204</ele>
        <time>2021-07-18T11:58:30</time>
      </trkpt>
      <trkpt lat="45.36523" lon="6.14457">
        <ele>1179.0204</ele>
        <time>2021-07-18T11:58:32</time>
      </trkpt>
      <trkpt lat="45.36522" lon="6.14461">
        <ele>1179.0204</ele>
        <time>2021-07-18T11:58:34</time>
      </trkpt>
      <trkpt lat="45.3652" lon="6.14469">
        <ele>1176.7205</ele>
        <time>2021-07-18T11:58:41</time>
      </trkpt>
      <trkpt lat="45.36516" lon="6.14479">
        <ele>1176.7205</ele>
        <time>2021-07-18T11:58:49</time>
      </trkpt>
      <trkpt lat="45.36512" lon="6.14486">
        <ele>1170.9204</ele>
        <time>2021-07-18T11:58:55</time>
      </trkpt>
      <trkpt lat="45.36508" lon="6.14494">
        <ele>1177.2205</ele>
        <time>2021-07-18T11:59:02</time>
      </trkpt>
      <trkpt lat="45.36507" lon="6.14497">
        <ele>1177.2205</ele>
        <time>2021-07-18T11:59:04</time>
      </trkpt>
      <trkpt lat="45.36503" lon="6.14508">
        <ele>1181.2205</ele>
        <time>2021-07-18T11:59:13</time>
      </trkpt>
      <trkpt lat="45.36503" lon="6.1451">
        <ele>1181.2205</ele>
        <time>2021-07-18T11:59:14</time>
      </trkpt>
      <trkpt lat="45.36494" lon="6.1452">
        <ele>1182.4204</ele>
        <time>2021-07-18T11:59:24</time>
      </trkpt>
      <trkpt lat="45.3649" lon="6.14529">
        <ele>1188.5204</ele>
        <time>2021-07-18T11:59:31</time>
      </trkpt>
      <trkpt lat="45.3649" lon="6.14531">
        <ele>1188.5204</ele>
        <time>2021-07-18T11:59:32</time>
      </trkpt>
      <trkpt lat="45.3649" lon="6.14532">
        <ele>1188.5204</ele>
        <time>2021-07-18T11:59:33</time>
      </trkpt>
      <trkpt lat="45.3649" lon="6.14533">
        <ele>1188.5204</ele>
        <time>2021-07-18T11:59:34</time>
      </trkpt>
      <trkpt lat="45.36489" lon="6.14536">
        <ele>1188.5204</ele>
        <time>2021-07-18T11:59:36</time>
      </trkpt>
      <trkpt lat="45.36489" lon="6.14537">
        <ele>1188.5204</ele>
        <time>2021-07-18T11:59:37</time>
      </trkpt>
      <trkpt lat="45.36484" lon="6.14541">
        <ele>1194.4204</ele>
        <time>2021-07-18T11:59:44</time>
      </trkpt>
      <trkpt lat="45.36479" lon="6.14544">
        <ele>1194.4204</ele>
        <time>2021-07-18T11:59:48</time>
      </trkpt>
      <trkpt lat="45.36468" lon="6.14546">
        <ele>1196.3204</ele>
        <time>2021-07-18T11:59:57</time>
      </trkpt>
      <trkpt lat="45.36464" lon="6.14548">
        <ele>1198.7205</ele>
        <time>2021-07-18T12:00:01</time>
      </trkpt>
      <trkpt lat="45.3646" lon="6.14552">
        <ele>1198.7205</ele>
        <time>2021-07-18T12:00:09</time>
      </trkpt>
      <trkpt lat="45.36461" lon="6.14552">
        <ele>1203.5204</ele>
        <time>2021-07-18T12:00:10</time>
      </trkpt>
      <trkpt lat="45.36462" lon="6.14552">
        <ele>1203.5204</ele>
        <time>2021-07-18T12:00:13</time>
      </trkpt>
      <trkpt lat="45.36461" lon="6.14553">
        <ele>1203.5204</ele>
        <time>2021-07-18T12:00:14</time>
      </trkpt>
      <trkpt lat="45.36461" lon="6.14558">
        <ele>1203.5204</ele>
        <time>2021-07-18T12:00:18</time>
      </trkpt>
      <trkpt lat="45.3646" lon="6.14558">
        <ele>1205.6205</ele>
        <time>2021-07-18T12:00:41</time>
      </trkpt>
      <trkpt lat="45.36459" lon="6.14557">
        <ele>1205.6205</ele>
        <time>2021-07-18T12:00:43</time>
      </trkpt>
      <trkpt lat="45.36445" lon="6.14555">
        <ele>1205.5204</ele>
        <time>2021-07-18T12:00:58</time>
      </trkpt>
      <trkpt lat="45.3644" lon="6.14555">
        <ele>1206.4204</ele>
        <time>2021-07-18T12:01:02</time>
      </trkpt>
      <trkpt lat="45.36429" lon="6.14559">
        <ele>1206.8204</ele>
        <time>2021-07-18T12:01:14</time>
      </trkpt>
      <trkpt lat="45.3641" lon="6.14574">
        <ele>1214.8204</ele>
        <time>2021-07-18T12:01:43</time>
      </trkpt>
      <trkpt lat="45.36407" lon="6.14578">
        <ele>1214.8204</ele>
        <time>2021-07-18T12:01:48</time>
      </trkpt>
      <trkpt lat="45.36402" lon="6.14581">
        <ele>1215.5204</ele>
        <time>2021-07-18T12:01:54</time>
      </trkpt>
      <trkpt lat="45.36399" lon="6.14582">
        <ele>1215.5204</ele>
        <time>2021-07-18T12:01:57</time>
      </trkpt>
      <trkpt lat="45.36393" lon="6.14584">
        <ele>1214.5204</ele>
        <time>2021-07-18T12:02:03</time>
      </trkpt>
      <trkpt lat="45.36387" lon="6.14586">
        <ele>1214.5204</ele>
        <time>2021-07-18T12:02:09</time>
      </trkpt>
      <trkpt lat="45.36386" lon="6.14587">
        <ele>1208.4204</ele>
        <time>2021-07-18T12:02:11</time>
      </trkpt>
      <trkpt lat="45.36384" lon="6.14587">
        <ele>1208.4204</ele>
        <time>2021-07-18T12:02:13</time>
      </trkpt>
      <trkpt lat="45.36383" lon="6.14588">
        <ele>1208.4204</ele>
        <time>2021-07-18T12:02:15</time>
      </trkpt>
      <trkpt lat="45.36379" lon="6.14589">
        <ele>1206.7205</ele>
        <time>2021-07-18T12:02:20</time>
      </trkpt>
      <trkpt lat="45.36376" lon="6.1459">
        <ele>1206.7205</ele>
        <time>2021-07-18T12:02:23</time>
      </trkpt>
      <trkpt lat="45.36371" lon="6.14589">
        <ele>1206.7205</ele>
        <time>2021-07-18T12:02:28</time>
      </trkpt>
      <trkpt lat="45.36367" lon="6.14588">
        <ele>1204.4204</ele>
        <time>2021-07-18T12:02:32</time>
      </trkpt>
      <trkpt lat="45.36367" lon="6.14588">
        <ele>1204.4204</ele>
        <time>2021-07-18T12:02:33</time>
      </trkpt>
      <trkpt lat="45.36367" lon="6.14588">
        <ele>1204.4204</ele>
        <time>2021-07-18T12:02:34</time>
      </trkpt>
      <trkpt lat="45.36366" lon="6.14589">
        <ele>1204.4204</ele>
        <time>2021-07-18T12:02:38</time>
      </trkpt>
      <trkpt lat="45.36363" lon="6.14587">
        <ele>1204.0204</ele>
        <time>2021-07-18T12:02:40</time>
      </trkpt>
      <trkpt lat="45.36356" lon="6.14586">
        <ele>1204.0204</ele>
        <time>2021-07-18T12:02:46</time>
      </trkpt>
      <trkpt lat="45.36355" lon="6.14585">
        <ele>1204.0204</ele>
        <time>2021-07-18T12:02:47</time>
      </trkpt>
      <trkpt lat="45.36353" lon="6.14583">
        <ele>1204.0204</ele>
        <time>2021-07-18T12:02:49</time>
      </trkpt>
      <trkpt lat="45.36352" lon="6.14582">
        <ele>1209.9204</ele>
        <time>2021-07-18T12:02:51</time>
      </trkpt>
      <trkpt lat="45.3635" lon="6.14582">
        <ele>1209.9204</ele>
        <time>2021-07-18T12:02:52</time>
      </trkpt>
      <trkpt lat="45.36349" lon="6.14583">
        <ele>1209.9204</ele>
        <time>2021-07-18T12:02:53</time>
      </trkpt>
      <trkpt lat="45.36346" lon="6.14582">
        <ele>1209.9204</ele>
        <time>2021-07-18T12:02:57</time>
      </trkpt>
      <trkpt lat="45.36335" lon="6.14578">
        <ele>1207.3204</ele>
        <time>2021-07-18T12:03:05</time>
      </trkpt>
      <trkpt lat="45.36334" lon="6.14578">
        <ele>1205.5204</ele>
        <time>2021-07-18T12:03:10</time>
      </trkpt>
      <trkpt lat="45.36333" lon="6.14577">
        <ele>1205.5204</ele>
        <time>2021-07-18T12:03:11</time>
      </trkpt>
      <trkpt lat="45.36329" lon="6.14576">
        <ele>1206.0204</ele>
        <time>2021-07-18T12:03:21</time>
      </trkpt>
      <trkpt lat="45.36328" lon="6.14575">
        <ele>1206.0204</ele>
        <time>2021-07-18T12:03:22</time>
      </trkpt>
      <trkpt lat="45.36325" lon="6.14572">
        <ele>1206.0204</ele>
        <time>2021-07-18T12:03:24</time>
      </trkpt>
      <trkpt lat="45.36324" lon="6.14573">
        <ele>1206.0204</ele>
        <time>2021-07-18T12:03:25</time>
      </trkpt>
      <trkpt lat="45.36323" lon="6.14572">
        <ele>1206.0204</ele>
        <time>2021-07-18T12:03:26</time>
      </trkpt>
      <trkpt lat="45.36322" lon="6.1457">
        <ele>1206.0204</ele>
        <time>2021-07-18T12:03:27</time>
      </trkpt>
      <trkpt lat="45.36321" lon="6.14569">
        <ele>1206.0204</ele>
        <time>2021-07-18T12:03:28</time>
      </trkpt>
      <trkpt lat="45.36321" lon="6.14569">
        <ele>1206.0204</ele>
        <time>2021-07-18T12:03:29</time>
      </trkpt>
      <trkpt lat="45.3632" lon="6.14567">
        <ele>1207.0204</ele>
        <time>2021-07-18T12:03:30</time>
      </trkpt>
      <trkpt lat="45.36311" lon="6.14561">
        <ele>1207.0204</ele>
        <time>2021-07-18T12:03:34</time>
      </trkpt>
      <trkpt lat="45.36306" lon="6.14554">
        <ele>1207.0204</ele>
        <time>2021-07-18T12:03:37</time>
      </trkpt>
      <trkpt lat="45.36306" lon="6.14553">
        <ele>1207.0204</ele>
        <time>2021-07-18T12:03:38</time>
      </trkpt>
      <trkpt lat="45.36302" lon="6.14552">
        <ele>1203.7205</ele>
        <time>2021-07-18T12:03:41</time>
      </trkpt>
      <trkpt lat="45.363" lon="6.14554">
        <ele>1203.7205</ele>
        <time>2021-07-18T12:03:45</time>
      </trkpt>
      <trkpt lat="45.36299" lon="6.14553">
        <ele>1203.7205</ele>
        <time>2021-07-18T12:03:49</time>
      </trkpt>
      <trkpt lat="45.36296" lon="6.14549">
        <ele>1205.0204</ele>
        <time>2021-07-18T12:03:51</time>
      </trkpt>
      <trkpt lat="45.36292" lon="6.14545">
        <ele>1205.0204</ele>
        <time>2021-07-18T12:03:53</time>
      </trkpt>
      <trkpt lat="45.3629" lon="6.14541">
        <ele>1205.0204</ele>
        <time>2021-07-18T12:03:55</time>
      </trkpt>
      <trkpt lat="45.36289" lon="6.14539">
        <ele>1205.0204</ele>
        <time>2021-07-18T12:03:57</time>
      </trkpt>
      <trkpt lat="45.36288" lon="6.14537">
        <ele>1205.0204</ele>
        <time>2021-07-18T12:03:59</time>
      </trkpt>
      <trkpt lat="45.36286" lon="6.14536">
        <ele>1203.5204</ele>
        <time>2021-07-18T12:04:02</time>
      </trkpt>
      <trkpt lat="45.36285" lon="6.14536">
        <ele>1203.5204</ele>
        <time>2021-07-18T12:04:03</time>
      </trkpt>
      <trkpt lat="45.36284" lon="6.14537">
        <ele>1203.5204</ele>
        <time>2021-07-18T12:04:05</time>
      </trkpt>
      <trkpt lat="45.36283" lon="6.14536">
        <ele>1203.5204</ele>
        <time>2021-07-18T12:04:06</time>
      </trkpt>
      <trkpt lat="45.3628" lon="6.14533">
        <ele>1203.5204</ele>
        <time>2021-07-18T12:04:08</time>
      </trkpt>
      <trkpt lat="45.36279" lon="6.14533">
        <ele>1203.5204</ele>
        <time>2021-07-18T12:04:09</time>
      </trkpt>
      <trkpt lat="45.36278" lon="6.14532">
        <ele>1204.0204</ele>
        <time>2021-07-18T12:04:10</time>
      </trkpt>
      <trkpt lat="45.36277" lon="6.14532">
        <ele>1204.0204</ele>
        <time>2021-07-18T12:04:11</time>
      </trkpt>
      <trkpt lat="45.36273" lon="6.1453">
        <ele>1204.0204</ele>
        <time>2021-07-18T12:04:14</time>
      </trkpt>
      <trkpt lat="45.36272" lon="6.14529">
        <ele>1204.0204</ele>
        <time>2021-07-18T12:04:15</time>
      </trkpt>
      <trkpt lat="45.36269" lon="6.14529">
        <ele>1202.6205</ele>
        <time>2021-07-18T12:04:20</time>
      </trkpt>
      <trkpt lat="45.36269" lon="6.14528">
        <ele>1202.6205</ele>
        <time>2021-07-18T12:04:22</time>
      </trkpt>
      <trkpt lat="45.36268" lon="6.14528">
        <ele>1202.6205</ele>
        <time>2021-07-18T12:04:25</time>
      </trkpt>
      <trkpt lat="45.36267" lon="6.14528">
        <ele>1202.6205</ele>
        <time>2021-07-18T12:04:26</time>
      </trkpt>
      <trkpt lat="45.36267" lon="6.14528">
        <ele>1202.6205</ele>
        <time>2021-07-18T12:04:27</time>
      </trkpt>
      <trkpt lat="45.36266" lon="6.14528">
        <ele>1202.6205</ele>
        <time>2021-07-18T12:04:28</time>
      </trkpt>
      <trkpt lat="45.36265" lon="6.14528">
        <ele>1202.6205</ele>
        <time>2021-07-18T12:04:29</time>
      </trkpt>
      <trkpt lat="45.36264" lon="6.14528">
        <ele>1209.9204</ele>
        <time>2021-07-18T12:04:30</time>
      </trkpt>
      <trkpt lat="45.36262" lon="6.14527">
        <ele>1209.9204</ele>
        <time>2021-07-18T12:04:32</time>
      </trkpt>
      <trkpt lat="45.36261" lon="6.14526">
        <ele>1209.9204</ele>
        <time>2021-07-18T12:04:33</time>
      </trkpt>
      <trkpt lat="45.3626" lon="6.14526">
        <ele>1209.9204</ele>
        <time>2021-07-18T12:04:35</time>
      </trkpt>
      <trkpt lat="45.36256" lon="6.14525">
        <ele>1209.9204</ele>
        <time>2021-07-18T12:04:38</time>
      </trkpt>
      <trkpt lat="45.36254" lon="6.14524">
        <ele>1211.5204</ele>
        <time>2021-07-18T12:04:41</time>
      </trkpt>
      <trkpt lat="45.36249" lon="6.14521">
        <ele>1211.5204</ele>
        <time>2021-07-18T12:04:45</time>
      </trkpt>
      <trkpt lat="45.36246" lon="6.14518">
        <ele>1211.5204</ele>
        <time>2021-07-18T12:04:47</time>
      </trkpt>
      <trkpt lat="45.36244" lon="6.14517">
        <ele>1211.5204</ele>
        <time>2021-07-18T12:04:49</time>
      </trkpt>
      <trkpt lat="45.36243" lon="6.14516">
        <ele>1212.2205</ele>
        <time>2021-07-18T12:04:50</time>
      </trkpt>
      <trkpt lat="45.36243" lon="6.14516">
        <ele>1212.2205</ele>
        <time>2021-07-18T12:04:51</time>
      </trkpt>
      <trkpt lat="45.36242" lon="6.14516">
        <ele>1212.2205</ele>
        <time>2021-07-18T12:04:52</time>
      </trkpt>
      <trkpt lat="45.3624" lon="6.14515">
        <ele>1212.2205</ele>
        <time>2021-07-18T12:04:53</time>
      </trkpt>
      <trkpt lat="45.36234" lon="6.14506">
        <ele>1212.2205</ele>
        <time>2021-07-18T12:04:57</time>
      </trkpt>
      <trkpt lat="45.36233" lon="6.14504">
        <ele>1213.3871</ele>
        <time>2021-07-18T12:05:03</time>
      </trkpt>
      <trkpt lat="45.36232" lon="6.14504">
        <ele>1213.3871</ele>
        <time>2021-07-18T12:05:05</time>
      </trkpt>
      <trkpt lat="45.36231" lon="6.14503">
        <ele>1213.3871</ele>
        <time>2021-07-18T12:05:06</time>
      </trkpt>
      <trkpt lat="45.36228" lon="6.14502">
        <ele>1213.3871</ele>
        <time>2021-07-18T12:05:09</time>
      </trkpt>
      <trkpt lat="45.36227" lon="6.14502">
        <ele>1213.1205</ele>
        <time>2021-07-18T12:05:10</time>
      </trkpt>
      <trkpt lat="45.36222" lon="6.14503">
        <ele>1213.1205</ele>
        <time>2021-07-18T12:05:15</time>
      </trkpt>
      <trkpt lat="45.36221" lon="6.14502">
        <ele>1213.1205</ele>
        <time>2021-07-18T12:05:16</time>
      </trkpt>
      <trkpt lat="45.36218" lon="6.14502">
        <ele>1213.1205</ele>
        <time>2021-07-18T12:05:19</time>
      </trkpt>
      <trkpt lat="45.36217" lon="6.14502">
        <ele>1213.7205</ele>
        <time>2021-07-18T12:05:20</time>
      </trkpt>
      <trkpt lat="45.36217" lon="6.14502">
        <ele>1213.7205</ele>
        <time>2021-07-18T12:05:21</time>
      </trkpt>
      <trkpt lat="45.36216" lon="6.14502">
        <ele>1213.7205</ele>
        <time>2021-07-18T12:05:22</time>
      </trkpt>
      <trkpt lat="45.36215" lon="6.14503">
        <ele>1213.7205</ele>
        <time>2021-07-18T12:05:24</time>
      </trkpt>
      <trkpt lat="45.36214" lon="6.14502">
        <ele>1213.7205</ele>
        <time>2021-07-18T12:05:27</time>
      </trkpt>
      <trkpt lat="45.36213" lon="6.14502">
        <ele>1213.7205</ele>
        <time>2021-07-18T12:05:29</time>
      </trkpt>
      <trkpt lat="45.36213" lon="6.14502">
        <ele>1212.5204</ele>
        <time>2021-07-18T12:05:30</time>
      </trkpt>
      <trkpt lat="45.36211" lon="6.14502">
        <ele>1212.5204</ele>
        <time>2021-07-18T12:05:31</time>
      </trkpt>
      <trkpt lat="45.36208" lon="6.14499">
        <ele>1212.5204</ele>
        <time>2021-07-18T12:05:33</time>
      </trkpt>
      <trkpt lat="45.36204" lon="6.14494">
        <ele>1212.5204</ele>
        <time>2021-07-18T12:05:39</time>
      </trkpt>
      <trkpt lat="45.36203" lon="6.14493">
        <ele>1212.9204</ele>
        <time>2021-07-18T12:05:40</time>
      </trkpt>
      <trkpt lat="45.36201" lon="6.14492">
        <ele>1212.9204</ele>
        <time>2021-07-18T12:05:41</time>
      </trkpt>
      <trkpt lat="45.36199" lon="6.14491">
        <ele>1212.9204</ele>
        <time>2021-07-18T12:05:42</time>
      </trkpt>
      <trkpt lat="45.36195" lon="6.14488">
        <ele>1212.9204</ele>
        <time>2021-07-18T12:05:44</time>
      </trkpt>
      <trkpt lat="45.36192" lon="6.14486">
        <ele>1212.9204</ele>
        <time>2021-07-18T12:05:46</time>
      </trkpt>
      <trkpt lat="45.36189" lon="6.14484">
        <ele>1212.9204</ele>
        <time>2021-07-18T12:05:48</time>
      </trkpt>
      <trkpt lat="45.36179" lon="6.1448">
        <ele>1214.0204</ele>
        <time>2021-07-18T12:05:55</time>
      </trkpt>
      <trkpt lat="45.36178" lon="6.14481">
        <ele>1214.0204</ele>
        <time>2021-07-18T12:05:56</time>
      </trkpt>
      <trkpt lat="45.36177" lon="6.14482">
        <ele>1214.0204</ele>
        <time>2021-07-18T12:05:57</time>
      </trkpt>
      <trkpt lat="45.36175" lon="6.14482">
        <ele>1218.1205</ele>
        <time>2021-07-18T12:06:02</time>
      </trkpt>
      <trkpt lat="45.36169" lon="6.14484">
        <ele>1218.1205</ele>
        <time>2021-07-18T12:06:06</time>
      </trkpt>
      <trkpt lat="45.36167" lon="6.14485">
        <ele>1218.1205</ele>
        <time>2021-07-18T12:06:08</time>
      </trkpt>
      <trkpt lat="45.36166" lon="6.14486">
        <ele>1218.1205</ele>
        <time>2021-07-18T12:06:09</time>
      </trkpt>
      <trkpt lat="45.36165" lon="6.14487">
        <ele>1218.1538</ele>
        <time>2021-07-18T12:06:10</time>
      </trkpt>
      <trkpt lat="45.36164" lon="6.14489">
        <ele>1218.1538</ele>
        <time>2021-07-18T12:06:12</time>
      </trkpt>
      <trkpt lat="45.36163" lon="6.14489">
        <ele>1218.1538</ele>
        <time>2021-07-18T12:06:13</time>
      </trkpt>
      <trkpt lat="45.36162" lon="6.1449">
        <ele>1218.1538</ele>
        <time>2021-07-18T12:06:14</time>
      </trkpt>
      <trkpt lat="45.36162" lon="6.14491">
        <ele>1218.1538</ele>
        <time>2021-07-18T12:06:15</time>
      </trkpt>
      <trkpt lat="45.3616" lon="6.14494">
        <ele>1218.1538</ele>
        <time>2021-07-18T12:06:17</time>
      </trkpt>
      <trkpt lat="45.36159" lon="6.14494">
        <ele>1218.1538</ele>
        <time>2021-07-18T12:06:18</time>
      </trkpt>
      <trkpt lat="45.36158" lon="6.14494">
        <ele>1218.1538</ele>
        <time>2021-07-18T12:06:19</time>
      </trkpt>
      <trkpt lat="45.36156" lon="6.14494">
        <ele>1211.8204</ele>
        <time>2021-07-18T12:06:20</time>
      </trkpt>
      <trkpt lat="45.36153" lon="6.14492">
        <ele>1211.8204</ele>
        <time>2021-07-18T12:06:22</time>
      </trkpt>
      <trkpt lat="45.36151" lon="6.14491">
        <ele>1211.8204</ele>
        <time>2021-07-18T12:06:23</time>
      </trkpt>
      <trkpt lat="45.36134" lon="6.14479">
        <ele>1212.4204</ele>
        <time>2021-07-18T12:06:34</time>
      </trkpt>
      <trkpt lat="45.36133" lon="6.14478">
        <ele>1212.4204</ele>
        <time>2021-07-18T12:06:35</time>
      </trkpt>
      <trkpt lat="45.3613" lon="6.14476">
        <ele>1212.4204</ele>
        <time>2021-07-18T12:06:37</time>
      </trkpt>
      <trkpt lat="45.36129" lon="6.14476">
        <ele>1212.4204</ele>
        <time>2021-07-18T12:06:38</time>
      </trkpt>
      <trkpt lat="45.36128" lon="6.14476">
        <ele>1212.4204</ele>
        <time>2021-07-18T12:06:39</time>
      </trkpt>
      <trkpt lat="45.36127" lon="6.14477">
        <ele>1221.8204</ele>
        <time>2021-07-18T12:06:40</time>
      </trkpt>
      <trkpt lat="45.36125" lon="6.14477">
        <ele>1221.8204</ele>
        <time>2021-07-18T12:06:42</time>
      </trkpt>
      <trkpt lat="45.36124" lon="6.14477">
        <ele>1221.8204</ele>
        <time>2021-07-18T12:06:43</time>
      </trkpt>
      <trkpt lat="45.36122" lon="6.14479">
        <ele>1221.8204</ele>
        <time>2021-07-18T12:06:47</time>
      </trkpt>
      <trkpt lat="45.36118" lon="6.14484">
        <ele>1224.3204</ele>
        <time>2021-07-18T12:06:52</time>
      </trkpt>
      <trkpt lat="45.36117" lon="6.14485">
        <ele>1224.3204</ele>
        <time>2021-07-18T12:06:53</time>
      </trkpt>
      <trkpt lat="45.36116" lon="6.14486">
        <ele>1224.3204</ele>
        <time>2021-07-18T12:06:55</time>
      </trkpt>
      <trkpt lat="45.36115" lon="6.14487">
        <ele>1224.3204</ele>
        <time>2021-07-18T12:06:56</time>
      </trkpt>
      <trkpt lat="45.36113" lon="6.14487">
        <ele>1224.3204</ele>
        <time>2021-07-18T12:06:58</time>
      </trkpt>
      <trkpt lat="45.36112" lon="6.14487">
        <ele>1224.3204</ele>
        <time>2021-07-18T12:06:59</time>
      </trkpt>
      <trkpt lat="45.36109" lon="6.14488">
        <ele>1222.1205</ele>
        <time>2021-07-18T12:07:01</time>
      </trkpt>
      <trkpt lat="45.36106" lon="6.14489">
        <ele>1222.1205</ele>
        <time>2021-07-18T12:07:03</time>
      </trkpt>
      <trkpt lat="45.36104" lon="6.14489">
        <ele>1222.1205</ele>
        <time>2021-07-18T12:07:04</time>
      </trkpt>
      <trkpt lat="45.36101" lon="6.14489">
        <ele>1222.1205</ele>
        <time>2021-07-18T12:07:07</time>
      </trkpt>
      <trkpt lat="45.36096" lon="6.1449">
        <ele>1219.2205</ele>
        <time>2021-07-18T12:07:12</time>
      </trkpt>
      <trkpt lat="45.36095" lon="6.14492">
        <ele>1219.2205</ele>
        <time>2021-07-18T12:07:14</time>
      </trkpt>
      <trkpt lat="45.36095" lon="6.14492">
        <ele>1219.2205</ele>
        <time>2021-07-18T12:07:15</time>
      </trkpt>
      <trkpt lat="45.36092" lon="6.14495">
        <ele>1219.2205</ele>
        <time>2021-07-18T12:07:19</time>
      </trkpt>
      <trkpt lat="45.36087" lon="6.14498">
        <ele>1219.3204</ele>
        <time>2021-07-18T12:07:23</time>
      </trkpt>
      <trkpt lat="45.36085" lon="6.14502">
        <ele>1219.3204</ele>
        <time>2021-07-18T12:07:26</time>
      </trkpt>
      <trkpt lat="45.36084" lon="6.14503">
        <ele>1219.3204</ele>
        <time>2021-07-18T12:07:27</time>
      </trkpt>
      <trkpt lat="45.36074" lon="6.14508">
        <ele>1218.5204</ele>
        <time>2021-07-18T12:07:39</time>
      </trkpt>
      <trkpt lat="45.36072" lon="6.14508">
        <ele>1220.6205</ele>
        <time>2021-07-18T12:07:40</time>
      </trkpt>
      <trkpt lat="45.36071" lon="6.14507">
        <ele>1220.6205</ele>
        <time>2021-07-18T12:07:41</time>
      </trkpt>
      <trkpt lat="45.3607" lon="6.14506">
        <ele>1220.6205</ele>
        <time>2021-07-18T12:07:42</time>
      </trkpt>
      <trkpt lat="45.36067" lon="6.14505">
        <ele>1220.6205</ele>
        <time>2021-07-18T12:07:44</time>
      </trkpt>
      <trkpt lat="45.36064" lon="6.14504">
        <ele>1220.6205</ele>
        <time>2021-07-18T12:07:46</time>
      </trkpt>
      <trkpt lat="45.36057" lon="6.14508">
        <ele>1228.0204</ele>
        <time>2021-07-18T12:07:55</time>
      </trkpt>
      <trkpt lat="45.36053" lon="6.14508">
        <ele>1228.0204</ele>
        <time>2021-07-18T12:07:59</time>
      </trkpt>
      <trkpt lat="45.36052" lon="6.14508">
        <ele>1224.2205</ele>
        <time>2021-07-18T12:08:00</time>
      </trkpt>
      <trkpt lat="45.36051" lon="6.14507">
        <ele>1224.2205</ele>
        <time>2021-07-18T12:08:01</time>
      </trkpt>
      <trkpt lat="45.36051" lon="6.14507">
        <ele>1224.2205</ele>
        <time>2021-07-18T12:08:03</time>
      </trkpt>
      <trkpt lat="45.36052" lon="6.14508">
        <ele>1224.2205</ele>
        <time>2021-07-18T12:08:09</time>
      </trkpt>
      <trkpt lat="45.36052" lon="6.14506">
        <ele>1220.9204</ele>
        <time>2021-07-18T12:08:11</time>
      </trkpt>
      <trkpt lat="45.3605" lon="6.14504">
        <ele>1220.9204</ele>
        <time>2021-07-18T12:08:13</time>
      </trkpt>
      <trkpt lat="45.36048" lon="6.14502">
        <ele>1220.9204</ele>
        <time>2021-07-18T12:08:15</time>
      </trkpt>
      <trkpt lat="45.36048" lon="6.14503">
        <ele>1220.9204</ele>
        <time>2021-07-18T12:08:16</time>
      </trkpt>
      <trkpt lat="45.36047" lon="6.14503">
        <ele>1220.9204</ele>
        <time>2021-07-18T12:08:17</time>
      </trkpt>
      <trkpt lat="45.36046" lon="6.14502">
        <ele>1220.9204</ele>
        <time>2021-07-18T12:08:18</time>
      </trkpt>
      <trkpt lat="45.36041" lon="6.145">
        <ele>1222.3204</ele>
        <time>2021-07-18T12:08:28</time>
      </trkpt>
      <trkpt lat="45.36037" lon="6.14498">
        <ele>1225.5204</ele>
        <time>2021-07-18T12:08:30</time>
      </trkpt>
      <trkpt lat="45.36035" lon="6.14497">
        <ele>1225.5204</ele>
        <time>2021-07-18T12:08:31</time>
      </trkpt>
      <trkpt lat="45.36031" lon="6.14494">
        <ele>1225.5204</ele>
        <time>2021-07-18T12:08:34</time>
      </trkpt>
      <trkpt lat="45.36029" lon="6.14495">
        <ele>1225.5204</ele>
        <time>2021-07-18T12:08:35</time>
      </trkpt>
      <trkpt lat="45.36028" lon="6.14495">
        <ele>1225.5204</ele>
        <time>2021-07-18T12:08:36</time>
      </trkpt>
      <trkpt lat="45.36026" lon="6.14494">
        <ele>1225.5204</ele>
        <time>2021-07-18T12:08:38</time>
      </trkpt>
      <trkpt lat="45.36023" lon="6.14493">
        <ele>1223.1205</ele>
        <time>2021-07-18T12:08:40</time>
      </trkpt>
      <trkpt lat="45.36022" lon="6.14493">
        <ele>1223.1205</ele>
        <time>2021-07-18T12:08:43</time>
      </trkpt>
      <trkpt lat="45.36018" lon="6.14496">
        <ele>1223.1205</ele>
        <time>2021-07-18T12:08:48</time>
      </trkpt>
      <trkpt lat="45.36016" lon="6.14498">
        <ele>1223.4204</ele>
        <time>2021-07-18T12:08:52</time>
      </trkpt>
      <trkpt lat="45.36015" lon="6.14499">
        <ele>1223.4204</ele>
        <time>2021-07-18T12:08:53</time>
      </trkpt>
      <trkpt lat="45.36011" lon="6.14498">
        <ele>1223.4204</ele>
        <time>2021-07-18T12:08:58</time>
      </trkpt>
      <trkpt lat="45.36008" lon="6.14496">
        <ele>1220.8204</ele>
        <time>2021-07-18T12:09:01</time>
      </trkpt>
      <trkpt lat="45.36007" lon="6.14496">
        <ele>1220.8204</ele>
        <time>2021-07-18T12:09:02</time>
      </trkpt>
      <trkpt lat="45.35996" lon="6.14498">
        <ele>1223.9204</ele>
        <time>2021-07-18T12:09:16</time>
      </trkpt>
      <trkpt lat="45.35995" lon="6.14499">
        <ele>1223.9204</ele>
        <time>2021-07-18T12:09:17</time>
      </trkpt>
      <trkpt lat="45.35994" lon="6.14499">
        <ele>1223.9204</ele>
        <time>2021-07-18T12:09:18</time>
      </trkpt>
      <trkpt lat="45.35993" lon="6.145">
        <ele>1223.9204</ele>
        <time>2021-07-18T12:09:19</time>
      </trkpt>
      <trkpt lat="45.35992" lon="6.14501">
        <ele>1225.6205</ele>
        <time>2021-07-18T12:09:20</time>
      </trkpt>
      <trkpt lat="45.35991" lon="6.14502">
        <ele>1225.6205</ele>
        <time>2021-07-18T12:09:21</time>
      </trkpt>
      <trkpt lat="45.35991" lon="6.14502">
        <ele>1225.6205</ele>
        <time>2021-07-18T12:09:22</time>
      </trkpt>
      <trkpt lat="45.3599" lon="6.14503">
        <ele>1225.6205</ele>
        <time>2021-07-18T12:09:23</time>
      </trkpt>
      <trkpt lat="45.3599" lon="6.14504">
        <ele>1225.6205</ele>
        <time>2021-07-18T12:09:24</time>
      </trkpt>
      <trkpt lat="45.3599" lon="6.14504">
        <ele>1225.6205</ele>
        <time>2021-07-18T12:09:25</time>
      </trkpt>
      <trkpt lat="45.35991" lon="6.14504">
        <ele>1225.6205</ele>
        <time>2021-07-18T12:09:26</time>
      </trkpt>
      <trkpt lat="45.3599" lon="6.14504">
        <ele>1225.6205</ele>
        <time>2021-07-18T12:09:27</time>
      </trkpt>
      <trkpt lat="45.35989" lon="6.14504">
        <ele>1225.6205</ele>
        <time>2021-07-18T12:09:28</time>
      </trkpt>
      <trkpt lat="45.35988" lon="6.14503">
        <ele>1225.6205</ele>
        <time>2021-07-18T12:09:29</time>
      </trkpt>
      <trkpt lat="45.35986" lon="6.14502">
        <ele>1228.6205</ele>
        <time>2021-07-18T12:09:31</time>
      </trkpt>
      <trkpt lat="45.35984" lon="6.14502">
        <ele>1228.6205</ele>
        <time>2021-07-18T12:09:33</time>
      </trkpt>
      <trkpt lat="45.35983" lon="6.14503">
        <ele>1228.6205</ele>
        <time>2021-07-18T12:09:34</time>
      </trkpt>
      <trkpt lat="45.35981" lon="6.14507">
        <ele>1228.6205</ele>
        <time>2021-07-18T12:09:37</time>
      </trkpt>
      <trkpt lat="45.35979" lon="6.14509">
        <ele>1228.6205</ele>
        <time>2021-07-18T12:09:39</time>
      </trkpt>
      <trkpt lat="45.35976" lon="6.14511">
        <ele>1227.2205</ele>
        <time>2021-07-18T12:09:43</time>
      </trkpt>
      <trkpt lat="45.35975" lon="6.14512">
        <ele>1227.2205</ele>
        <time>2021-07-18T12:09:44</time>
      </trkpt>
      <trkpt lat="45.35974" lon="6.14513">
        <ele>1227.2205</ele>
        <time>2021-07-18T12:09:45</time>
      </trkpt>
      <trkpt lat="45.3597" lon="6.14517">
        <ele>1221.8204</ele>
        <time>2021-07-18T12:09:51</time>
      </trkpt>
      <trkpt lat="45.35968" lon="6.14518">
        <ele>1221.8204</ele>
        <time>2021-07-18T12:09:52</time>
      </trkpt>
      <trkpt lat="45.35967" lon="6.14518">
        <ele>1221.8204</ele>
        <time>2021-07-18T12:09:53</time>
      </trkpt>
      <trkpt lat="45.35965" lon="6.14518">
        <ele>1221.8204</ele>
        <time>2021-07-18T12:09:54</time>
      </trkpt>
      <trkpt lat="45.35963" lon="6.1452">
        <ele>1221.8204</ele>
        <time>2021-07-18T12:09:57</time>
      </trkpt>
      <trkpt lat="45.35961" lon="6.14522">
        <ele>1221.8204</ele>
        <time>2021-07-18T12:09:59</time>
      </trkpt>
      <trkpt lat="45.35954" lon="6.14525">
        <ele>1221.0204</ele>
        <time>2021-07-18T12:10:05</time>
      </trkpt>
      <trkpt lat="45.3595" lon="6.14526">
        <ele>1221.0204</ele>
        <time>2021-07-18T12:10:08</time>
      </trkpt>
      <trkpt lat="45.35941" lon="6.14534">
        <ele>1219.5204</ele>
        <time>2021-07-18T12:10:19</time>
      </trkpt>
      <trkpt lat="45.35939" lon="6.14536">
        <ele>1220.2205</ele>
        <time>2021-07-18T12:10:21</time>
      </trkpt>
      <trkpt lat="45.35937" lon="6.1454">
        <ele>1220.2205</ele>
        <time>2021-07-18T12:10:24</time>
      </trkpt>
      <trkpt lat="45.35932" lon="6.14543">
        <ele>1220.2205</ele>
        <time>2021-07-18T12:10:28</time>
      </trkpt>
      <trkpt lat="45.35928" lon="6.14544">
        <ele>1223.7205</ele>
        <time>2021-07-18T12:10:31</time>
      </trkpt>
      <trkpt lat="45.35926" lon="6.14543">
        <ele>1223.7205</ele>
        <time>2021-07-18T12:10:34</time>
      </trkpt>
      <trkpt lat="45.35923" lon="6.14545">
        <ele>1223.7205</ele>
        <time>2021-07-18T12:10:36</time>
      </trkpt>
      <trkpt lat="45.35919" lon="6.14546">
        <ele>1226.2205</ele>
        <time>2021-07-18T12:10:40</time>
      </trkpt>
      <trkpt lat="45.35917" lon="6.14546">
        <ele>1226.2205</ele>
        <time>2021-07-18T12:10:49</time>
      </trkpt>
      <trkpt lat="45.35915" lon="6.14547">
        <ele>1225.8204</ele>
        <time>2021-07-18T12:10:51</time>
      </trkpt>
      <trkpt lat="45.35914" lon="6.14548">
        <ele>1225.8204</ele>
        <time>2021-07-18T12:10:52</time>
      </trkpt>
      <trkpt lat="45.35912" lon="6.14549">
        <ele>1225.8204</ele>
        <time>2021-07-18T12:10:56</time>
      </trkpt>
      <trkpt lat="45.35902" lon="6.14555">
        <ele>1222.4204</ele>
        <time>2021-07-18T12:11:07</time>
      </trkpt>
      <trkpt lat="45.35899" lon="6.14555">
        <ele>1222.4204</ele>
        <time>2021-07-18T12:11:10</time>
      </trkpt>
      <trkpt lat="45.35896" lon="6.14557">
        <ele>1224.0204</ele>
        <time>2021-07-18T12:11:13</time>
      </trkpt>
      <trkpt lat="45.35893" lon="6.14559">
        <ele>1224.0204</ele>
        <time>2021-07-18T12:11:16</time>
      </trkpt>
      <trkpt lat="45.3588" lon="6.14576">
        <ele>1229.7205</ele>
        <time>2021-07-18T12:11:32</time>
      </trkpt>
      <trkpt lat="45.35868" lon="6.14584">
        <ele>1232.8204</ele>
        <time>2021-07-18T12:11:44</time>
      </trkpt>
      <trkpt lat="45.35853" lon="6.14594">
        <ele>1234.0204</ele>
        <time>2021-07-18T12:11:56</time>
      </trkpt>
      <trkpt lat="45.35848" lon="6.14603">
        <ele>1236.9204</ele>
        <time>2021-07-18T12:12:04</time>
      </trkpt>
      <trkpt lat="45.35846" lon="6.14608">
        <ele>1236.9204</ele>
        <time>2021-07-18T12:12:07</time>
      </trkpt>
      <trkpt lat="45.35843" lon="6.14615">
        <ele>1238.8204</ele>
        <time>2021-07-18T12:12:12</time>
      </trkpt>
      <trkpt lat="45.35841" lon="6.14618">
        <ele>1238.8204</ele>
        <time>2021-07-18T12:12:15</time>
      </trkpt>
      <trkpt lat="45.35841" lon="6.1462">
        <ele>1238.8204</ele>
        <time>2021-07-18T12:12:16</time>
      </trkpt>
      <trkpt lat="45.35841" lon="6.14621">
        <ele>1238.8204</ele>
        <time>2021-07-18T12:12:17</time>
      </trkpt>
      <trkpt lat="45.35841" lon="6.14623">
        <ele>1238.8204</ele>
        <time>2021-07-18T12:12:18</time>
      </trkpt>
      <trkpt lat="45.35841" lon="6.14631">
        <ele>1240.5204</ele>
        <time>2021-07-18T12:12:24</time>
      </trkpt>
      <trkpt lat="45.3584" lon="6.14633">
        <ele>1240.5204</ele>
        <time>2021-07-18T12:12:25</time>
      </trkpt>
      <trkpt lat="45.35838" lon="6.14637">
        <ele>1240.5204</ele>
        <time>2021-07-18T12:12:28</time>
      </trkpt>
      <trkpt lat="45.35836" lon="6.14644">
        <ele>1242.7205</ele>
        <time>2021-07-18T12:12:33</time>
      </trkpt>
      <trkpt lat="45.35831" lon="6.14652">
        <ele>1242.5204</ele>
        <time>2021-07-18T12:12:41</time>
      </trkpt>
      <trkpt lat="45.3583" lon="6.14653">
        <ele>1242.5204</ele>
        <time>2021-07-18T12:12:42</time>
      </trkpt>
      <trkpt lat="45.35827" lon="6.14657">
        <ele>1242.5204</ele>
        <time>2021-07-18T12:12:49</time>
      </trkpt>
      <trkpt lat="45.35827" lon="6.14658">
        <ele>1242.1205</ele>
        <time>2021-07-18T12:12:57</time>
      </trkpt>
      <trkpt lat="45.35826" lon="6.14659">
        <ele>1242.1205</ele>
        <time>2021-07-18T12:12:58</time>
      </trkpt>
      <trkpt lat="45.35825" lon="6.14659">
        <ele>1242.1205</ele>
        <time>2021-07-18T12:12:59</time>
      </trkpt>
      <trkpt lat="45.35824" lon="6.14659">
        <ele>1242.1205</ele>
        <time>2021-07-18T12:13:00</time>
      </trkpt>
      <trkpt lat="45.35821" lon="6.14659">
        <ele>1243.2205</ele>
        <time>2021-07-18T12:13:02</time>
      </trkpt>
      <trkpt lat="45.35818" lon="6.1466">
        <ele>1243.2205</ele>
        <time>2021-07-18T12:13:04</time>
      </trkpt>
      <trkpt lat="45.35816" lon="6.14659">
        <ele>1243.2205</ele>
        <time>2021-07-18T12:13:05</time>
      </trkpt>
      <trkpt lat="45.35814" lon="6.1466">
        <ele>1243.2205</ele>
        <time>2021-07-18T12:13:07</time>
      </trkpt>
      <trkpt lat="45.35813" lon="6.14661">
        <ele>1243.2205</ele>
        <time>2021-07-18T12:13:08</time>
      </trkpt>
      <trkpt lat="45.35812" lon="6.14662">
        <ele>1243.2205</ele>
        <time>2021-07-18T12:13:09</time>
      </trkpt>
      <trkpt lat="45.35812" lon="6.14663">
        <ele>1243.2205</ele>
        <time>2021-07-18T12:13:10</time>
      </trkpt>
      <trkpt lat="45.35811" lon="6.14665">
        <ele>1245.9204</ele>
        <time>2021-07-18T12:13:11</time>
      </trkpt>
      <trkpt lat="45.3581" lon="6.14665">
        <ele>1245.9204</ele>
        <time>2021-07-18T12:13:12</time>
      </trkpt>
      <trkpt lat="45.35807" lon="6.14667">
        <ele>1245.9204</ele>
        <time>2021-07-18T12:13:15</time>
      </trkpt>
      <trkpt lat="45.35807" lon="6.14668">
        <ele>1245.9204</ele>
        <time>2021-07-18T12:13:16</time>
      </trkpt>
      <trkpt lat="45.35791" lon="6.14686">
        <ele>1241.7205</ele>
        <time>2021-07-18T12:13:35</time>
      </trkpt>
      <trkpt lat="45.35788" lon="6.14689">
        <ele>1238.0204</ele>
        <time>2021-07-18T12:13:43</time>
      </trkpt>
      <trkpt lat="45.35789" lon="6.1469">
        <ele>1239.0204</ele>
        <time>2021-07-18T12:13:57</time>
      </trkpt>
      <trkpt lat="45.35789" lon="6.1469">
        <ele>1239.0204</ele>
        <time>2021-07-18T12:13:58</time>
      </trkpt>
      <trkpt lat="45.35786" lon="6.14689">
        <ele>1241.1205</ele>
        <time>2021-07-18T12:14:15</time>
      </trkpt>
      <trkpt lat="45.35786" lon="6.14689">
        <ele>1241.1205</ele>
        <time>2021-07-18T12:14:16</time>
      </trkpt>
      <trkpt lat="45.35785" lon="6.14689">
        <ele>1241.1205</ele>
        <time>2021-07-18T12:14:18</time>
      </trkpt>
      <trkpt lat="45.35784" lon="6.14691">
        <ele>1238.8204</ele>
        <time>2021-07-18T12:14:21</time>
      </trkpt>
      <trkpt lat="45.35783" lon="6.14694">
        <ele>1235.8204</ele>
        <time>2021-07-18T12:15:56</time>
      </trkpt>
      <trkpt lat="45.35783" lon="6.14694">
        <ele>1235.8204</ele>
        <time>2021-07-18T12:16:00</time>
      </trkpt>
      <trkpt lat="45.35783" lon="6.14694">
        <ele>1238.3204</ele>
        <time>2021-07-18T12:16:01</time>
      </trkpt>
      <trkpt lat="45.35783" lon="6.14694">
        <ele>1238.3204</ele>
        <time>2021-07-18T12:16:04</time>
      </trkpt>
      <trkpt lat="45.35783" lon="6.14694">
        <ele>1238.3204</ele>
        <time>2021-07-18T12:16:05</time>
      </trkpt>
      <trkpt lat="45.35782" lon="6.14694">
        <ele>1238.3204</ele>
        <time>2021-07-18T12:16:06</time>
      </trkpt>
      <trkpt lat="45.35782" lon="6.14695">
        <ele>1238.3204</ele>
        <time>2021-07-18T12:16:07</time>
      </trkpt>
      <trkpt lat="45.35782" lon="6.14695">
        <ele>1238.3204</ele>
        <time>2021-07-18T12:16:08</time>
      </trkpt>
      <trkpt lat="45.35782" lon="6.14695">
        <ele>1238.3204</ele>
        <time>2021-07-18T12:16:09</time>
      </trkpt>
      <trkpt lat="45.35782" lon="6.14696">
        <ele>1238.3204</ele>
        <time>2021-07-18T12:16:10</time>
      </trkpt>
      <trkpt lat="45.35782" lon="6.14696">
        <ele>1237.2205</ele>
        <time>2021-07-18T12:16:11</time>
      </trkpt>
      <trkpt lat="45.35783" lon="6.14699">
        <ele>1239.4204</ele>
        <time>2021-07-18T12:16:51</time>
      </trkpt>
      <trkpt lat="45.35781" lon="6.14706">
        <ele>1239.4204</ele>
        <time>2021-07-18T12:17:28</time>
      </trkpt>
      <trkpt lat="45.35781" lon="6.14707">
        <ele>1240.9204</ele>
        <time>2021-07-18T12:17:31</time>
      </trkpt>
      <trkpt lat="45.35781" lon="6.14707">
        <ele>1240.9204</ele>
        <time>2021-07-18T12:17:32</time>
      </trkpt>
      <trkpt lat="45.35782" lon="6.14707">
        <ele>1240.9204</ele>
        <time>2021-07-18T12:17:34</time>
      </trkpt>
      <trkpt lat="45.35782" lon="6.14707">
        <ele>1240.9204</ele>
        <time>2021-07-18T12:17:35</time>
      </trkpt>
      <trkpt lat="45.35782" lon="6.14707">
        <ele>1240.9204</ele>
        <time>2021-07-18T12:17:36</time>
      </trkpt>
      <trkpt lat="45.35783" lon="6.14706">
        <ele>1241.8204</ele>
        <time>2021-07-18T12:17:44</time>
      </trkpt>
      <trkpt lat="45.35783" lon="6.14706">
        <ele>1241.8204</ele>
        <time>2021-07-18T12:17:45</time>
      </trkpt>
      <trkpt lat="45.35783" lon="6.14707">
        <ele>1241.8204</ele>
        <time>2021-07-18T12:17:46</time>
      </trkpt>
      <trkpt lat="45.35783" lon="6.14707">
        <ele>1241.8204</ele>
        <time>2021-07-18T12:17:50</time>
      </trkpt>
      <trkpt lat="45.35784" lon="6.14707">
        <ele>1245.2871</ele>
        <time>2021-07-18T12:17:51</time>
      </trkpt>
      <trkpt lat="45.35785" lon="6.14708">
        <ele>1245.2871</ele>
        <time>2021-07-18T12:17:55</time>
      </trkpt>
      <trkpt lat="45.35785" lon="6.1471">
        <ele>1245.2871</ele>
        <time>2021-07-18T12:17:56</time>
      </trkpt>
      <trkpt lat="45.35786" lon="6.14711">
        <ele>1245.2871</ele>
        <time>2021-07-18T12:17:57</time>
      </trkpt>
      <trkpt lat="45.35787" lon="6.14712">
        <ele>1245.2871</ele>
        <time>2021-07-18T12:17:58</time>
      </trkpt>
      <trkpt lat="45.35788" lon="6.14712">
        <ele>1248.0204</ele>
        <time>2021-07-18T12:18:03</time>
      </trkpt>
      <trkpt lat="45.35791" lon="6.14716">
        <ele>1248.0204</ele>
        <time>2021-07-18T12:18:05</time>
      </trkpt>
      <trkpt lat="45.35793" lon="6.14721">
        <ele>1248.0204</ele>
        <time>2021-07-18T12:18:07</time>
      </trkpt>
      <trkpt lat="45.35794" lon="6.14723">
        <ele>1248.0204</ele>
        <time>2021-07-18T12:18:09</time>
      </trkpt>
      <trkpt lat="45.35794" lon="6.14725">
        <ele>1247.6205</ele>
        <time>2021-07-18T12:18:11</time>
      </trkpt>
      <trkpt lat="45.35794" lon="6.14727">
        <ele>1247.6205</ele>
        <time>2021-07-18T12:18:16</time>
      </trkpt>
      <trkpt lat="45.35794" lon="6.14728">
        <ele>1247.6205</ele>
        <time>2021-07-18T12:18:17</time>
      </trkpt>
      <trkpt lat="45.35795" lon="6.14729">
        <ele>1247.6205</ele>
        <time>2021-07-18T12:18:18</time>
      </trkpt>
      <trkpt lat="45.35794" lon="6.14729">
        <ele>1247.6205</ele>
        <time>2021-07-18T12:18:19</time>
      </trkpt>
      <trkpt lat="45.35794" lon="6.1473">
        <ele>1247.6205</ele>
        <time>2021-07-18T12:18:20</time>
      </trkpt>
      <trkpt lat="45.35794" lon="6.1473">
        <ele>1250.5204</ele>
        <time>2021-07-18T12:18:21</time>
      </trkpt>
      <trkpt lat="45.35794" lon="6.14731">
        <ele>1250.5204</ele>
        <time>2021-07-18T12:18:22</time>
      </trkpt>
      <trkpt lat="45.35793" lon="6.14733">
        <ele>1254.4204</ele>
        <time>2021-07-18T12:18:34</time>
      </trkpt>
      <trkpt lat="45.35793" lon="6.14734">
        <ele>1254.4204</ele>
        <time>2021-07-18T12:18:35</time>
      </trkpt>
      <trkpt lat="45.35793" lon="6.14735">
        <ele>1254.4204</ele>
        <time>2021-07-18T12:18:37</time>
      </trkpt>
      <trkpt lat="45.35797" lon="6.14744">
        <ele>1257.2205</ele>
        <time>2021-07-18T12:18:46</time>
      </trkpt>
      <trkpt lat="45.35798" lon="6.14745">
        <ele>1257.2205</ele>
        <time>2021-07-18T12:18:47</time>
      </trkpt>
      <trkpt lat="45.35798" lon="6.14756">
        <ele>1250.4204</ele>
        <time>2021-07-18T12:18:57</time>
      </trkpt>
      <trkpt lat="45.35798" lon="6.14758">
        <ele>1250.4204</ele>
        <time>2021-07-18T12:19:00</time>
      </trkpt>
      <trkpt lat="45.35798" lon="6.14758">
        <ele>1254.9204</ele>
        <time>2021-07-18T12:19:01</time>
      </trkpt>
      <trkpt lat="45.35799" lon="6.14759">
        <ele>1254.9204</ele>
        <time>2021-07-18T12:19:02</time>
      </trkpt>
      <trkpt lat="45.358" lon="6.1476">
        <ele>1254.9204</ele>
        <time>2021-07-18T12:19:03</time>
      </trkpt>
      <trkpt lat="45.35801" lon="6.14762">
        <ele>1254.9204</ele>
        <time>2021-07-18T12:19:05</time>
      </trkpt>
      <trkpt lat="45.35801" lon="6.14763">
        <ele>1254.9204</ele>
        <time>2021-07-18T12:19:06</time>
      </trkpt>
      <trkpt lat="45.35801" lon="6.14765">
        <ele>1254.9204</ele>
        <time>2021-07-18T12:19:07</time>
      </trkpt>
      <trkpt lat="45.35801" lon="6.14766">
        <ele>1254.9204</ele>
        <time>2021-07-18T12:19:08</time>
      </trkpt>
      <trkpt lat="45.35802" lon="6.14767">
        <ele>1256.5204</ele>
        <time>2021-07-18T12:19:11</time>
      </trkpt>
      <trkpt lat="45.35802" lon="6.14768">
        <ele>1256.5204</ele>
        <time>2021-07-18T12:19:13</time>
      </trkpt>
      <trkpt lat="45.35802" lon="6.14769">
        <ele>1256.5204</ele>
        <time>2021-07-18T12:19:14</time>
      </trkpt>
      <trkpt lat="45.35803" lon="6.14769">
        <ele>1256.5204</ele>
        <time>2021-07-18T12:19:15</time>
      </trkpt>
      <trkpt lat="45.35803" lon="6.1477">
        <ele>1256.5204</ele>
        <time>2021-07-18T12:19:18</time>
      </trkpt>
      <trkpt lat="45.35804" lon="6.14771">
        <ele>1256.5204</ele>
        <time>2021-07-18T12:19:19</time>
      </trkpt>
      <trkpt lat="45.35804" lon="6.14772">
        <ele>1256.5204</ele>
        <time>2021-07-18T12:19:20</time>
      </trkpt>
      <trkpt lat="45.35804" lon="6.14772">
        <ele>1259.1205</ele>
        <time>2021-07-18T12:19:21</time>
      </trkpt>
      <trkpt lat="45.35804" lon="6.14775">
        <ele>1260.4204</ele>
        <time>2021-07-18T12:19:33</time>
      </trkpt>
      <trkpt lat="45.35804" lon="6.14775">
        <ele>1260.4204</ele>
        <time>2021-07-18T12:19:34</time>
      </trkpt>
      <trkpt lat="45.35804" lon="6.14775">
        <ele>1260.4204</ele>
        <time>2021-07-18T12:19:35</time>
      </trkpt>
      <trkpt lat="45.35803" lon="6.14775">
        <ele>1260.4204</ele>
        <time>2021-07-18T12:19:36</time>
      </trkpt>
      <trkpt lat="45.35799" lon="6.14778">
        <ele>1263.0204</ele>
        <time>2021-07-18T12:19:57</time>
      </trkpt>
      <trkpt lat="45.35799" lon="6.1478">
        <ele>1263.0204</ele>
        <time>2021-07-18T12:19:58</time>
      </trkpt>
      <trkpt lat="45.358" lon="6.14782">
        <ele>1263.0204</ele>
        <time>2021-07-18T12:19:59</time>
      </trkpt>
      <trkpt lat="45.35799" lon="6.14784">
        <ele>1263.9204</ele>
        <time>2021-07-18T12:20:05</time>
      </trkpt>
      <trkpt lat="45.35799" lon="6.14786">
        <ele>1263.9204</ele>
        <time>2021-07-18T12:20:06</time>
      </trkpt>
      <trkpt lat="45.35799" lon="6.14787">
        <ele>1263.9204</ele>
        <time>2021-07-18T12:20:07</time>
      </trkpt>
      <trkpt lat="45.35799" lon="6.14789">
        <ele>1263.9204</ele>
        <time>2021-07-18T12:20:09</time>
      </trkpt>
      <trkpt lat="45.35799" lon="6.1479">
        <ele>1263.9204</ele>
        <time>2021-07-18T12:20:10</time>
      </trkpt>
      <trkpt lat="45.35799" lon="6.14791">
        <ele>1263.9204</ele>
        <time>2021-07-18T12:20:11</time>
      </trkpt>
      <trkpt lat="45.358" lon="6.14793">
        <ele>1263.9204</ele>
        <time>2021-07-18T12:20:12</time>
      </trkpt>
      <trkpt lat="45.35803" lon="6.14797">
        <ele>1261.6205</ele>
        <time>2021-07-18T12:20:24</time>
      </trkpt>
      <trkpt lat="45.35802" lon="6.14797">
        <ele>1261.6205</ele>
        <time>2021-07-18T12:20:25</time>
      </trkpt>
      <trkpt lat="45.35804" lon="6.14803">
        <ele>1266.9204</ele>
        <time>2021-07-18T12:20:35</time>
      </trkpt>
      <trkpt lat="45.35805" lon="6.14805">
        <ele>1266.9204</ele>
        <time>2021-07-18T12:20:36</time>
      </trkpt>
      <trkpt lat="45.35808" lon="6.14812">
        <ele>1261.2205</ele>
        <time>2021-07-18T12:20:52</time>
      </trkpt>
      <trkpt lat="45.35808" lon="6.14812">
        <ele>1261.2205</ele>
        <time>2021-07-18T12:20:53</time>
      </trkpt>
      <trkpt lat="45.35813" lon="6.14819">
        <ele>1261.8204</ele>
        <time>2021-07-18T12:21:08</time>
      </trkpt>
      <trkpt lat="45.35815" lon="6.14822">
        <ele>1261.8204</ele>
        <time>2021-07-18T12:21:09</time>
      </trkpt>
      <trkpt lat="45.35816" lon="6.14823">
        <ele>1261.8204</ele>
        <time>2021-07-18T12:21:10</time>
      </trkpt>
      <trkpt lat="45.35818" lon="6.14826">
        <ele>1261.7205</ele>
        <time>2021-07-18T12:21:13</time>
      </trkpt>
      <trkpt lat="45.3582" lon="6.14828">
        <ele>1261.7205</ele>
        <time>2021-07-18T12:21:14</time>
      </trkpt>
      <trkpt lat="45.35821" lon="6.14828">
        <ele>1261.7205</ele>
        <time>2021-07-18T12:21:16</time>
      </trkpt>
      <trkpt lat="45.3582" lon="6.14828">
        <ele>1261.7205</ele>
        <time>2021-07-18T12:21:17</time>
      </trkpt>
      <trkpt lat="45.3582" lon="6.14829">
        <ele>1261.7205</ele>
        <time>2021-07-18T12:21:18</time>
      </trkpt>
      <trkpt lat="45.3582" lon="6.14831">
        <ele>1261.7205</ele>
        <time>2021-07-18T12:21:20</time>
      </trkpt>
      <trkpt lat="45.3582" lon="6.14832">
        <ele>1262.3204</ele>
        <time>2021-07-18T12:21:21</time>
      </trkpt>
      <trkpt lat="45.3582" lon="6.14833">
        <ele>1262.3204</ele>
        <time>2021-07-18T12:21:22</time>
      </trkpt>
      <trkpt lat="45.35821" lon="6.14834">
        <ele>1262.3204</ele>
        <time>2021-07-18T12:21:23</time>
      </trkpt>
      <trkpt lat="45.35821" lon="6.14835">
        <ele>1262.3204</ele>
        <time>2021-07-18T12:21:24</time>
      </trkpt>
      <trkpt lat="45.35821" lon="6.14837">
        <ele>1262.3204</ele>
        <time>2021-07-18T12:21:26</time>
      </trkpt>
      <trkpt lat="45.35821" lon="6.14837">
        <ele>1262.3204</ele>
        <time>2021-07-18T12:21:27</time>
      </trkpt>
      <trkpt lat="45.35822" lon="6.14838">
        <ele>1262.3204</ele>
        <time>2021-07-18T12:21:28</time>
      </trkpt>
      <trkpt lat="45.35822" lon="6.14838">
        <ele>1264.3204</ele>
        <time>2021-07-18T12:21:34</time>
      </trkpt>
      <trkpt lat="45.35822" lon="6.14838">
        <ele>1264.3204</ele>
        <time>2021-07-18T12:21:35</time>
      </trkpt>
      <trkpt lat="45.35825" lon="6.14841">
        <ele>1269.9204</ele>
        <time>2021-07-18T12:21:43</time>
      </trkpt>
      <trkpt lat="45.35823" lon="6.14843">
        <ele>1269.9204</ele>
        <time>2021-07-18T12:21:45</time>
      </trkpt>
      <trkpt lat="45.35823" lon="6.14843">
        <ele>1269.9204</ele>
        <time>2021-07-18T12:21:46</time>
      </trkpt>
      <trkpt lat="45.35823" lon="6.14844">
        <ele>1269.9204</ele>
        <time>2021-07-18T12:21:48</time>
      </trkpt>
      <trkpt lat="45.35823" lon="6.14844">
        <ele>1269.9204</ele>
        <time>2021-07-18T12:21:49</time>
      </trkpt>
      <trkpt lat="45.35823" lon="6.14845">
        <ele>1269.9204</ele>
        <time>2021-07-18T12:21:50</time>
      </trkpt>
      <trkpt lat="45.35823" lon="6.14847">
        <ele>1271.9204</ele>
        <time>2021-07-18T12:21:52</time>
      </trkpt>
      <trkpt lat="45.35823" lon="6.1485">
        <ele>1271.9204</ele>
        <time>2021-07-18T12:21:56</time>
      </trkpt>
      <trkpt lat="45.35823" lon="6.14851">
        <ele>1271.9204</ele>
        <time>2021-07-18T12:21:57</time>
      </trkpt>
      <trkpt lat="45.35825" lon="6.14854">
        <ele>1271.9204</ele>
        <time>2021-07-18T12:21:59</time>
      </trkpt>
      <trkpt lat="45.35825" lon="6.14857">
        <ele>1271.3204</ele>
        <time>2021-07-18T12:22:04</time>
      </trkpt>
      <trkpt lat="45.35825" lon="6.14858">
        <ele>1271.3204</ele>
        <time>2021-07-18T12:22:05</time>
      </trkpt>
      <trkpt lat="45.35824" lon="6.14859">
        <ele>1271.3204</ele>
        <time>2021-07-18T12:22:07</time>
      </trkpt>
      <trkpt lat="45.35823" lon="6.1486">
        <ele>1271.3204</ele>
        <time>2021-07-18T12:22:08</time>
      </trkpt>
      <trkpt lat="45.35822" lon="6.1486">
        <ele>1271.3204</ele>
        <time>2021-07-18T12:22:09</time>
      </trkpt>
      <trkpt lat="45.35822" lon="6.14861">
        <ele>1274.4204</ele>
        <time>2021-07-18T12:22:11</time>
      </trkpt>
      <trkpt lat="45.35821" lon="6.14863">
        <ele>1274.4204</ele>
        <time>2021-07-18T12:22:17</time>
      </trkpt>
      <trkpt lat="45.35821" lon="6.14864">
        <ele>1274.4204</ele>
        <time>2021-07-18T12:22:18</time>
      </trkpt>
      <trkpt lat="45.3582" lon="6.14864">
        <ele>1274.4204</ele>
        <time>2021-07-18T12:22:19</time>
      </trkpt>
      <trkpt lat="45.35819" lon="6.14866">
        <ele>1276.2205</ele>
        <time>2021-07-18T12:22:21</time>
      </trkpt>
      <trkpt lat="45.35819" lon="6.14867">
        <ele>1276.2205</ele>
        <time>2021-07-18T12:22:23</time>
      </trkpt>
      <trkpt lat="45.35818" lon="6.14868">
        <ele>1276.2205</ele>
        <time>2021-07-18T12:22:24</time>
      </trkpt>
      <trkpt lat="45.35818" lon="6.14868">
        <ele>1276.2205</ele>
        <time>2021-07-18T12:22:25</time>
      </trkpt>
      <trkpt lat="45.35818" lon="6.14868">
        <ele>1276.2205</ele>
        <time>2021-07-18T12:22:26</time>
      </trkpt>
      <trkpt lat="45.35818" lon="6.14868">
        <ele>1276.2205</ele>
        <time>2021-07-18T12:22:27</time>
      </trkpt>
      <trkpt lat="45.35818" lon="6.14869">
        <ele>1276.2205</ele>
        <time>2021-07-18T12:22:28</time>
      </trkpt>
      <trkpt lat="45.35818" lon="6.14872">
        <ele>1281.8204</ele>
        <time>2021-07-18T12:22:31</time>
      </trkpt>
      <trkpt lat="45.35818" lon="6.14873">
        <ele>1281.8204</ele>
        <time>2021-07-18T12:22:32</time>
      </trkpt>
      <trkpt lat="45.35818" lon="6.14874">
        <ele>1281.8204</ele>
        <time>2021-07-18T12:22:33</time>
      </trkpt>
      <trkpt lat="45.35815" lon="6.14875">
        <ele>1283.0204</ele>
        <time>2021-07-18T12:22:42</time>
      </trkpt>
      <trkpt lat="45.35814" lon="6.14875">
        <ele>1283.0204</ele>
        <time>2021-07-18T12:22:43</time>
      </trkpt>
      <trkpt lat="45.35811" lon="6.14874">
        <ele>1283.0204</ele>
        <time>2021-07-18T12:22:45</time>
      </trkpt>
      <trkpt lat="45.35809" lon="6.14874">
        <ele>1283.0204</ele>
        <time>2021-07-18T12:22:48</time>
      </trkpt>
      <trkpt lat="45.35807" lon="6.14878">
        <ele>1284.3204</ele>
        <time>2021-07-18T12:22:53</time>
      </trkpt>
      <trkpt lat="45.35806" lon="6.1488">
        <ele>1284.3204</ele>
        <time>2021-07-18T12:22:58</time>
      </trkpt>
      <trkpt lat="45.35805" lon="6.1488">
        <ele>1281.4204</ele>
        <time>2021-07-18T12:23:01</time>
      </trkpt>
      <trkpt lat="45.35803" lon="6.1488">
        <ele>1281.4204</ele>
        <time>2021-07-18T12:23:04</time>
      </trkpt>
      <trkpt lat="45.35802" lon="6.1488">
        <ele>1281.4204</ele>
        <time>2021-07-18T12:23:05</time>
      </trkpt>
      <trkpt lat="45.35801" lon="6.14881">
        <ele>1281.4204</ele>
        <time>2021-07-18T12:23:06</time>
      </trkpt>
      <trkpt lat="45.358" lon="6.14882">
        <ele>1281.4204</ele>
        <time>2021-07-18T12:23:08</time>
      </trkpt>
      <trkpt lat="45.35799" lon="6.14883">
        <ele>1281.4204</ele>
        <time>2021-07-18T12:23:09</time>
      </trkpt>
      <trkpt lat="45.35799" lon="6.14883">
        <ele>1281.4204</ele>
        <time>2021-07-18T12:23:10</time>
      </trkpt>
      <trkpt lat="45.35799" lon="6.14884">
        <ele>1281.4204</ele>
        <time>2021-07-18T12:23:11</time>
      </trkpt>
      <trkpt lat="45.35798" lon="6.14884">
        <ele>1281.4204</ele>
        <time>2021-07-18T12:23:12</time>
      </trkpt>
      <trkpt lat="45.35798" lon="6.14884">
        <ele>1281.4204</ele>
        <time>2021-07-18T12:23:13</time>
      </trkpt>
      <trkpt lat="45.35798" lon="6.14885">
        <ele>1281.4204</ele>
        <time>2021-07-18T12:23:15</time>
      </trkpt>
      <trkpt lat="45.35794" lon="6.14886">
        <ele>1281.4204</ele>
        <time>2021-07-18T12:23:26</time>
      </trkpt>
      <trkpt lat="45.35793" lon="6.14886">
        <ele>1281.4204</ele>
        <time>2021-07-18T12:23:27</time>
      </trkpt>
      <trkpt lat="45.35792" lon="6.14886">
        <ele>1281.4204</ele>
        <time>2021-07-18T12:23:28</time>
      </trkpt>
      <trkpt lat="45.35792" lon="6.14887">
        <ele>1281.4204</ele>
        <time>2021-07-18T12:23:29</time>
      </trkpt>
      <trkpt lat="45.35791" lon="6.14888">
        <ele>1281.4204</ele>
        <time>2021-07-18T12:23:30</time>
      </trkpt>
      <trkpt lat="45.3579" lon="6.14889">
        <ele>1286.1205</ele>
        <time>2021-07-18T12:23:32</time>
      </trkpt>
      <trkpt lat="45.35789" lon="6.14889">
        <ele>1286.1205</ele>
        <time>2021-07-18T12:23:33</time>
      </trkpt>
      <trkpt lat="45.35789" lon="6.14889">
        <ele>1286.1205</ele>
        <time>2021-07-18T12:23:34</time>
      </trkpt>
      <trkpt lat="45.35786" lon="6.14887">
        <ele>1286.1205</ele>
        <time>2021-07-18T12:23:36</time>
      </trkpt>
      <trkpt lat="45.35785" lon="6.14888">
        <ele>1286.1205</ele>
        <time>2021-07-18T12:23:37</time>
      </trkpt>
      <trkpt lat="45.35785" lon="6.14889">
        <ele>1286.1205</ele>
        <time>2021-07-18T12:23:38</time>
      </trkpt>
      <trkpt lat="45.35785" lon="6.14892">
        <ele>1286.1205</ele>
        <time>2021-07-18T12:23:40</time>
      </trkpt>
      <trkpt lat="45.35784" lon="6.14893">
        <ele>1289.9204</ele>
        <time>2021-07-18T12:23:41</time>
      </trkpt>
      <trkpt lat="45.35784" lon="6.14893">
        <ele>1289.9204</ele>
        <time>2021-07-18T12:23:42</time>
      </trkpt>
      <trkpt lat="45.35783" lon="6.14894">
        <ele>1289.9204</ele>
        <time>2021-07-18T12:23:43</time>
      </trkpt>
      <trkpt lat="45.35781" lon="6.14896">
        <ele>1289.9204</ele>
        <time>2021-07-18T12:23:47</time>
      </trkpt>
      <trkpt lat="45.35781" lon="6.14897">
        <ele>1289.9204</ele>
        <time>2021-07-18T12:23:48</time>
      </trkpt>
      <trkpt lat="45.3578" lon="6.14898">
        <ele>1289.9204</ele>
        <time>2021-07-18T12:23:49</time>
      </trkpt>
      <trkpt lat="45.3578" lon="6.14899">
        <ele>1289.9204</ele>
        <time>2021-07-18T12:23:50</time>
      </trkpt>
      <trkpt lat="45.3578" lon="6.14899">
        <ele>1287.0204</ele>
        <time>2021-07-18T12:23:51</time>
      </trkpt>
      <trkpt lat="45.3578" lon="6.149">
        <ele>1287.0204</ele>
        <time>2021-07-18T12:23:52</time>
      </trkpt>
      <trkpt lat="45.3578" lon="6.14901">
        <ele>1287.0204</ele>
        <time>2021-07-18T12:23:54</time>
      </trkpt>
      <trkpt lat="45.3578" lon="6.14902">
        <ele>1287.0204</ele>
        <time>2021-07-18T12:23:55</time>
      </trkpt>
      <trkpt lat="45.3578" lon="6.14903">
        <ele>1287.0204</ele>
        <time>2021-07-18T12:23:56</time>
      </trkpt>
      <trkpt lat="45.3578" lon="6.14902">
        <ele>1287.0204</ele>
        <time>2021-07-18T12:23:57</time>
      </trkpt>
      <trkpt lat="45.3578" lon="6.14903">
        <ele>1287.0204</ele>
        <time>2021-07-18T12:23:58</time>
      </trkpt>
      <trkpt lat="45.35779" lon="6.14903">
        <ele>1287.0204</ele>
        <time>2021-07-18T12:23:59</time>
      </trkpt>
      <trkpt lat="45.35778" lon="6.14903">
        <ele>1287.0204</ele>
        <time>2021-07-18T12:24:00</time>
      </trkpt>
      <trkpt lat="45.35778" lon="6.14903">
        <ele>1289.3204</ele>
        <time>2021-07-18T12:24:01</time>
      </trkpt>
      <trkpt lat="45.35777" lon="6.14903">
        <ele>1289.3204</ele>
        <time>2021-07-18T12:24:02</time>
      </trkpt>
      <trkpt lat="45.35774" lon="6.14902">
        <ele>1289.3204</ele>
        <time>2021-07-18T12:24:05</time>
      </trkpt>
      <trkpt lat="45.35771" lon="6.14903">
        <ele>1295.7205</ele>
        <time>2021-07-18T12:24:12</time>
      </trkpt>
      <trkpt lat="45.35771" lon="6.14904">
        <ele>1295.7205</ele>
        <time>2021-07-18T12:24:13</time>
      </trkpt>
      <trkpt lat="45.35771" lon="6.14905">
        <ele>1295.7205</ele>
        <time>2021-07-18T12:24:14</time>
      </trkpt>
      <trkpt lat="45.3577" lon="6.14907">
        <ele>1295.7205</ele>
        <time>2021-07-18T12:24:17</time>
      </trkpt>
      <trkpt lat="45.35769" lon="6.14908">
        <ele>1295.7205</ele>
        <time>2021-07-18T12:24:18</time>
      </trkpt>
      <trkpt lat="45.35768" lon="6.14908">
        <ele>1295.7205</ele>
        <time>2021-07-18T12:24:19</time>
      </trkpt>
      <trkpt lat="45.35766" lon="6.14907">
        <ele>1293.3204</ele>
        <time>2021-07-18T12:24:21</time>
      </trkpt>
      <trkpt lat="45.35765" lon="6.14907">
        <ele>1293.3204</ele>
        <time>2021-07-18T12:24:22</time>
      </trkpt>
      <trkpt lat="45.35764" lon="6.14907">
        <ele>1293.3204</ele>
        <time>2021-07-18T12:24:23</time>
      </trkpt>
      <trkpt lat="45.35761" lon="6.14908">
        <ele>1293.3204</ele>
        <time>2021-07-18T12:24:29</time>
      </trkpt>
      <trkpt lat="45.3576" lon="6.14909">
        <ele>1294.3204</ele>
        <time>2021-07-18T12:24:31</time>
      </trkpt>
      <trkpt lat="45.35759" lon="6.14909">
        <ele>1294.3204</ele>
        <time>2021-07-18T12:24:32</time>
      </trkpt>
      <trkpt lat="45.35759" lon="6.14909">
        <ele>1294.3204</ele>
        <time>2021-07-18T12:24:33</time>
      </trkpt>
      <trkpt lat="45.35758" lon="6.14909">
        <ele>1294.3204</ele>
        <time>2021-07-18T12:24:34</time>
      </trkpt>
      <trkpt lat="45.35758" lon="6.14909">
        <ele>1294.3204</ele>
        <time>2021-07-18T12:24:35</time>
      </trkpt>
      <trkpt lat="45.35757" lon="6.14909">
        <ele>1294.3204</ele>
        <time>2021-07-18T12:24:36</time>
      </trkpt>
      <trkpt lat="45.35757" lon="6.14909">
        <ele>1294.3204</ele>
        <time>2021-07-18T12:24:37</time>
      </trkpt>
      <trkpt lat="45.35757" lon="6.14909">
        <ele>1294.3204</ele>
        <time>2021-07-18T12:24:38</time>
      </trkpt>
      <trkpt lat="45.35756" lon="6.14909">
        <ele>1294.3204</ele>
        <time>2021-07-18T12:24:40</time>
      </trkpt>
      <trkpt lat="45.35756" lon="6.1491">
        <ele>1295.2205</ele>
        <time>2021-07-18T12:24:41</time>
      </trkpt>
      <trkpt lat="45.35756" lon="6.1491">
        <ele>1295.2205</ele>
        <time>2021-07-18T12:24:42</time>
      </trkpt>
      <trkpt lat="45.35756" lon="6.14911">
        <ele>1295.2205</ele>
        <time>2021-07-18T12:24:43</time>
      </trkpt>
      <trkpt lat="45.35756" lon="6.14912">
        <ele>1295.2205</ele>
        <time>2021-07-18T12:24:44</time>
      </trkpt>
      <trkpt lat="45.35756" lon="6.14913">
        <ele>1295.2205</ele>
        <time>2021-07-18T12:24:45</time>
      </trkpt>
      <trkpt lat="45.35756" lon="6.14913">
        <ele>1295.2205</ele>
        <time>2021-07-18T12:24:46</time>
      </trkpt>
      <trkpt lat="45.35755" lon="6.14914">
        <ele>1295.2205</ele>
        <time>2021-07-18T12:24:47</time>
      </trkpt>
      <trkpt lat="45.35755" lon="6.14914">
        <ele>1295.2205</ele>
        <time>2021-07-18T12:24:48</time>
      </trkpt>
      <trkpt lat="45.35753" lon="6.14916">
        <ele>1298.1205</ele>
        <time>2021-07-18T12:24:51</time>
      </trkpt>
      <trkpt lat="45.35753" lon="6.14916">
        <ele>1298.1205</ele>
        <time>2021-07-18T12:24:52</time>
      </trkpt>
      <trkpt lat="45.35752" lon="6.14916">
        <ele>1298.1205</ele>
        <time>2021-07-18T12:24:53</time>
      </trkpt>
      <trkpt lat="45.35752" lon="6.14916">
        <ele>1298.1205</ele>
        <time>2021-07-18T12:24:54</time>
      </trkpt>
      <trkpt lat="45.3575" lon="6.14916">
        <ele>1298.1205</ele>
        <time>2021-07-18T12:24:59</time>
      </trkpt>
      <trkpt lat="45.3575" lon="6.14917">
        <ele>1298.1205</ele>
        <time>2021-07-18T12:25:00</time>
      </trkpt>
      <trkpt lat="45.3575" lon="6.14917">
        <ele>1303.5204</ele>
        <time>2021-07-18T12:25:06</time>
      </trkpt>
      <trkpt lat="45.3575" lon="6.14917">
        <ele>1303.5204</ele>
        <time>2021-07-18T12:25:07</time>
      </trkpt>
      <trkpt lat="45.3575" lon="6.14917">
        <ele>1303.5204</ele>
        <time>2021-07-18T12:25:08</time>
      </trkpt>
      <trkpt lat="45.3575" lon="6.14917">
        <ele>1303.5204</ele>
        <time>2021-07-18T12:25:09</time>
      </trkpt>
      <trkpt lat="45.3575" lon="6.14917">
        <ele>1303.5204</ele>
        <time>2021-07-18T12:25:10</time>
      </trkpt>
      <trkpt lat="45.3575" lon="6.14917">
        <ele>1304.0204</ele>
        <time>2021-07-18T12:25:11</time>
      </trkpt>
      <trkpt lat="45.35751" lon="6.14917">
        <ele>1304.0204</ele>
        <time>2021-07-18T12:25:12</time>
      </trkpt>
      <trkpt lat="45.35752" lon="6.14917">
        <ele>1304.0204</ele>
        <time>2021-07-18T12:25:13</time>
      </trkpt>
      <trkpt lat="45.35752" lon="6.14918">
        <ele>1304.0204</ele>
        <time>2021-07-18T12:25:14</time>
      </trkpt>
      <trkpt lat="45.35753" lon="6.14922">
        <ele>1308.3204</ele>
        <time>2021-07-18T12:25:23</time>
      </trkpt>
      <trkpt lat="45.35753" lon="6.14923">
        <ele>1308.3204</ele>
        <time>2021-07-18T12:25:24</time>
      </trkpt>
      <trkpt lat="45.35753" lon="6.14924">
        <ele>1308.3204</ele>
        <time>2021-07-18T12:25:25</time>
      </trkpt>
      <trkpt lat="45.35754" lon="6.14924">
        <ele>1308.3204</ele>
        <time>2021-07-18T12:25:26</time>
      </trkpt>
      <trkpt lat="45.35754" lon="6.14927">
        <ele>1306.8204</ele>
        <time>2021-07-18T12:25:40</time>
      </trkpt>
      <trkpt lat="45.35754" lon="6.14927">
        <ele>1307.9204</ele>
        <time>2021-07-18T12:25:41</time>
      </trkpt>
      <trkpt lat="45.35753" lon="6.14928">
        <ele>1307.9204</ele>
        <time>2021-07-18T12:25:42</time>
      </trkpt>
      <trkpt lat="45.35753" lon="6.14929">
        <ele>1307.9204</ele>
        <time>2021-07-18T12:25:43</time>
      </trkpt>
      <trkpt lat="45.35753" lon="6.14931">
        <ele>1307.9204</ele>
        <time>2021-07-18T12:25:44</time>
      </trkpt>
      <trkpt lat="45.35751" lon="6.14936">
        <ele>1306.5204</ele>
        <time>2021-07-18T12:25:53</time>
      </trkpt>
      <trkpt lat="45.35751" lon="6.14936">
        <ele>1306.5204</ele>
        <time>2021-07-18T12:25:54</time>
      </trkpt>
      <trkpt lat="45.35751" lon="6.14936">
        <ele>1306.5204</ele>
        <time>2021-07-18T12:25:55</time>
      </trkpt>
      <trkpt lat="45.3575" lon="6.14939">
        <ele>1305.9204</ele>
        <time>2021-07-18T12:26:22</time>
      </trkpt>
      <trkpt lat="45.3575" lon="6.14939">
        <ele>1305.9204</ele>
        <time>2021-07-18T12:26:23</time>
      </trkpt>
      <trkpt lat="45.35748" lon="6.14944">
        <ele>1306.1205</ele>
        <time>2021-07-18T12:26:33</time>
      </trkpt>
      <trkpt lat="45.35748" lon="6.14946">
        <ele>1306.1205</ele>
        <time>2021-07-18T12:26:34</time>
      </trkpt>
      <trkpt lat="45.35748" lon="6.14947">
        <ele>1306.1205</ele>
        <time>2021-07-18T12:26:35</time>
      </trkpt>
      <trkpt lat="45.35748" lon="6.14948">
        <ele>1306.1205</ele>
        <time>2021-07-18T12:26:36</time>
      </trkpt>
      <trkpt lat="45.35747" lon="6.14953">
        <ele>1303.2205</ele>
        <time>2021-07-18T12:26:47</time>
      </trkpt>
      <trkpt lat="45.35747" lon="6.14954">
        <ele>1303.2205</ele>
        <time>2021-07-18T12:26:48</time>
      </trkpt>
      <trkpt lat="45.35747" lon="6.14957">
        <ele>1303.2205</ele>
        <time>2021-07-18T12:26:50</time>
      </trkpt>
      <trkpt lat="45.35744" lon="6.14958">
        <ele>1307.0204</ele>
        <time>2021-07-18T12:27:00</time>
      </trkpt>
      <trkpt lat="45.35744" lon="6.1496">
        <ele>1311.7205</ele>
        <time>2021-07-18T12:27:04</time>
      </trkpt>
      <trkpt lat="45.35743" lon="6.1496">
        <ele>1311.7205</ele>
        <time>2021-07-18T12:27:08</time>
      </trkpt>
      <trkpt lat="45.35741" lon="6.14964">
        <ele>1314.5204</ele>
        <time>2021-07-18T12:27:13</time>
      </trkpt>
      <trkpt lat="45.3574" lon="6.14965">
        <ele>1314.5204</ele>
        <time>2021-07-18T12:27:14</time>
      </trkpt>
      <trkpt lat="45.35737" lon="6.14967">
        <ele>1314.5204</ele>
        <time>2021-07-18T12:27:18</time>
      </trkpt>
      <trkpt lat="45.35736" lon="6.14967">
        <ele>1314.5204</ele>
        <time>2021-07-18T12:27:19</time>
      </trkpt>
      <trkpt lat="45.35736" lon="6.14968">
        <ele>1314.5204</ele>
        <time>2021-07-18T12:27:20</time>
      </trkpt>
      <trkpt lat="45.35735" lon="6.14969">
        <ele>1318.9204</ele>
        <time>2021-07-18T12:27:21</time>
      </trkpt>
      <trkpt lat="45.35734" lon="6.1497">
        <ele>1318.9204</ele>
        <time>2021-07-18T12:27:25</time>
      </trkpt>
      <trkpt lat="45.35734" lon="6.1497">
        <ele>1318.9204</ele>
        <time>2021-07-18T12:27:28</time>
      </trkpt>
      <trkpt lat="45.35733" lon="6.1497">
        <ele>1318.9204</ele>
        <time>2021-07-18T12:27:29</time>
      </trkpt>
      <trkpt lat="45.35734" lon="6.14973">
        <ele>1317.5204</ele>
        <time>2021-07-18T12:27:40</time>
      </trkpt>
      <trkpt lat="45.35734" lon="6.14974">
        <ele>1321.3204</ele>
        <time>2021-07-18T12:27:41</time>
      </trkpt>
      <trkpt lat="45.35734" lon="6.14977">
        <ele>1320.7205</ele>
        <time>2021-07-18T12:27:56</time>
      </trkpt>
      <trkpt lat="45.35734" lon="6.14976">
        <ele>1320.7205</ele>
        <time>2021-07-18T12:27:57</time>
      </trkpt>
      <trkpt lat="45.35734" lon="6.14977">
        <ele>1320.7205</ele>
        <time>2021-07-18T12:27:59</time>
      </trkpt>
      <trkpt lat="45.35734" lon="6.14978">
        <ele>1320.7205</ele>
        <time>2021-07-18T12:28:00</time>
      </trkpt>
      <trkpt lat="45.35734" lon="6.14978">
        <ele>1323.2205</ele>
        <time>2021-07-18T12:28:02</time>
      </trkpt>
      <trkpt lat="45.35734" lon="6.14979">
        <ele>1323.2205</ele>
        <time>2021-07-18T12:28:03</time>
      </trkpt>
      <trkpt lat="45.35734" lon="6.14979">
        <ele>1323.2205</ele>
        <time>2021-07-18T12:28:05</time>
      </trkpt>
      <trkpt lat="45.35733" lon="6.1498">
        <ele>1323.2205</ele>
        <time>2021-07-18T12:28:07</time>
      </trkpt>
      <trkpt lat="45.35732" lon="6.14981">
        <ele>1325.2205</ele>
        <time>2021-07-18T12:28:13</time>
      </trkpt>
      <trkpt lat="45.35731" lon="6.14981">
        <ele>1325.2205</ele>
        <time>2021-07-18T12:28:14</time>
      </trkpt>
      <trkpt lat="45.3573" lon="6.14982">
        <ele>1325.2205</ele>
        <time>2021-07-18T12:28:16</time>
      </trkpt>
      <trkpt lat="45.3573" lon="6.14983">
        <ele>1325.2205</ele>
        <time>2021-07-18T12:28:17</time>
      </trkpt>
      <trkpt lat="45.35729" lon="6.14984">
        <ele>1325.2205</ele>
        <time>2021-07-18T12:28:18</time>
      </trkpt>
      <trkpt lat="45.35729" lon="6.14985">
        <ele>1325.2205</ele>
        <time>2021-07-18T12:28:19</time>
      </trkpt>
      <trkpt lat="45.35728" lon="6.14985">
        <ele>1325.2205</ele>
        <time>2021-07-18T12:28:20</time>
      </trkpt>
      <trkpt lat="45.35727" lon="6.14987">
        <ele>1331.9204</ele>
        <time>2021-07-18T12:28:21</time>
      </trkpt>
      <trkpt lat="45.35723" lon="6.14992">
        <ele>1331.9204</ele>
        <time>2021-07-18T12:28:28</time>
      </trkpt>
      <trkpt lat="45.35723" lon="6.14993">
        <ele>1333.4204</ele>
        <time>2021-07-18T12:28:35</time>
      </trkpt>
      <trkpt lat="45.3572" lon="6.14996">
        <ele>1333.4204</ele>
        <time>2021-07-18T12:28:40</time>
      </trkpt>
      <trkpt lat="45.35716" lon="6.14997">
        <ele>1334.4204</ele>
        <time>2021-07-18T12:28:51</time>
      </trkpt>
      <trkpt lat="45.35716" lon="6.14998">
        <ele>1334.4204</ele>
        <time>2021-07-18T12:28:52</time>
      </trkpt>
      <trkpt lat="45.35714" lon="6.14997">
        <ele>1334.4204</ele>
        <time>2021-07-18T12:28:53</time>
      </trkpt>
      <trkpt lat="45.35712" lon="6.14996">
        <ele>1334.4204</ele>
        <time>2021-07-18T12:28:56</time>
      </trkpt>
      <trkpt lat="45.35711" lon="6.14996">
        <ele>1334.4204</ele>
        <time>2021-07-18T12:28:57</time>
      </trkpt>
      <trkpt lat="45.35711" lon="6.14997">
        <ele>1334.4204</ele>
        <time>2021-07-18T12:28:58</time>
      </trkpt>
      <trkpt lat="45.3571" lon="6.15">
        <ele>1336.0204</ele>
        <time>2021-07-18T12:29:06</time>
      </trkpt>
      <trkpt lat="45.3571" lon="6.15">
        <ele>1336.0204</ele>
        <time>2021-07-18T12:29:07</time>
      </trkpt>
      <trkpt lat="45.35708" lon="6.15001">
        <ele>1336.0204</ele>
        <time>2021-07-18T12:29:10</time>
      </trkpt>
      <trkpt lat="45.35708" lon="6.15002">
        <ele>1339.2205</ele>
        <time>2021-07-18T12:29:11</time>
      </trkpt>
      <trkpt lat="45.35708" lon="6.15002">
        <ele>1339.2205</ele>
        <time>2021-07-18T12:29:12</time>
      </trkpt>
      <trkpt lat="45.35705" lon="6.15001">
        <ele>1339.3204</ele>
        <time>2021-07-18T12:29:27</time>
      </trkpt>
      <trkpt lat="45.35704" lon="6.15001">
        <ele>1339.3204</ele>
        <time>2021-07-18T12:29:28</time>
      </trkpt>
      <trkpt lat="45.35704" lon="6.15002">
        <ele>1339.3204</ele>
        <time>2021-07-18T12:29:30</time>
      </trkpt>
      <trkpt lat="45.35703" lon="6.15002">
        <ele>1340.8204</ele>
        <time>2021-07-18T12:29:31</time>
      </trkpt>
      <trkpt lat="45.35702" lon="6.15002">
        <ele>1340.8204</ele>
        <time>2021-07-18T12:29:32</time>
      </trkpt>
      <trkpt lat="45.357" lon="6.15006">
        <ele>1340.8204</ele>
        <time>2021-07-18T12:29:40</time>
      </trkpt>
      <trkpt lat="45.357" lon="6.15006">
        <ele>1340.8204</ele>
        <time>2021-07-18T12:29:41</time>
      </trkpt>
      <trkpt lat="45.35699" lon="6.15005">
        <ele>1340.8204</ele>
        <time>2021-07-18T12:29:42</time>
      </trkpt>
      <trkpt lat="45.35698" lon="6.15005">
        <ele>1340.8204</ele>
        <time>2021-07-18T12:29:43</time>
      </trkpt>
      <trkpt lat="45.35697" lon="6.15006">
        <ele>1340.8204</ele>
        <time>2021-07-18T12:29:44</time>
      </trkpt>
      <trkpt lat="45.35696" lon="6.15006">
        <ele>1340.8204</ele>
        <time>2021-07-18T12:29:45</time>
      </trkpt>
      <trkpt lat="45.35693" lon="6.15008">
        <ele>1340.8204</ele>
        <time>2021-07-18T12:29:48</time>
      </trkpt>
      <trkpt lat="45.35691" lon="6.15009">
        <ele>1340.8204</ele>
        <time>2021-07-18T12:29:51</time>
      </trkpt>
      <trkpt lat="45.35691" lon="6.1501">
        <ele>1340.8204</ele>
        <time>2021-07-18T12:29:53</time>
      </trkpt>
      <trkpt lat="45.3569" lon="6.15012">
        <ele>1340.8204</ele>
        <time>2021-07-18T12:29:56</time>
      </trkpt>
      <trkpt lat="45.35689" lon="6.15014">
        <ele>1340.8204</ele>
        <time>2021-07-18T12:30:00</time>
      </trkpt>
      <trkpt lat="45.35686" lon="6.1502">
        <ele>1338.9204</ele>
        <time>2021-07-18T12:30:13</time>
      </trkpt>
      <trkpt lat="45.35686" lon="6.15021">
        <ele>1338.9204</ele>
        <time>2021-07-18T12:30:15</time>
      </trkpt>
      <trkpt lat="45.35688" lon="6.15021">
        <ele>1338.9204</ele>
        <time>2021-07-18T12:30:30</time>
      </trkpt>
      <trkpt lat="45.35689" lon="6.15021">
        <ele>1338.9204</ele>
        <time>2021-07-18T12:30:31</time>
      </trkpt>
      <trkpt lat="45.35689" lon="6.1502">
        <ele>1338.9204</ele>
        <time>2021-07-18T12:30:32</time>
      </trkpt>
      <trkpt lat="45.3569" lon="6.15019">
        <ele>1338.9204</ele>
        <time>2021-07-18T12:30:33</time>
      </trkpt>
      <trkpt lat="45.35689" lon="6.15019">
        <ele>1338.9204</ele>
        <time>2021-07-18T12:30:34</time>
      </trkpt>
      <trkpt lat="45.3569" lon="6.1502">
        <ele>1338.9204</ele>
        <time>2021-07-18T12:30:37</time>
      </trkpt>
      <trkpt lat="45.35691" lon="6.1502">
        <ele>1338.9204</ele>
        <time>2021-07-18T12:30:38</time>
      </trkpt>
      <trkpt lat="45.35691" lon="6.15021">
        <ele>1338.9204</ele>
        <time>2021-07-18T12:30:39</time>
      </trkpt>
      <trkpt lat="45.35694" lon="6.15024">
        <ele>1338.9204</ele>
        <time>2021-07-18T12:30:42</time>
      </trkpt>
      <trkpt lat="45.35696" lon="6.15024">
        <ele>1338.9204</ele>
        <time>2021-07-18T12:30:46</time>
      </trkpt>
      <trkpt lat="45.35698" lon="6.15028">
        <ele>1338.9204</ele>
        <time>2021-07-18T12:30:50</time>
      </trkpt>
      <trkpt lat="45.35699" lon="6.15029">
        <ele>1345.4204</ele>
        <time>2021-07-18T12:30:51</time>
      </trkpt>
      <trkpt lat="45.357" lon="6.15032">
        <ele>1344.6205</ele>
        <time>2021-07-18T12:31:02</time>
      </trkpt>
      <trkpt lat="45.357" lon="6.15033">
        <ele>1344.6205</ele>
        <time>2021-07-18T12:31:03</time>
      </trkpt>
      <trkpt lat="45.35699" lon="6.15033">
        <ele>1344.6205</ele>
        <time>2021-07-18T12:31:05</time>
      </trkpt>
      <trkpt lat="45.35699" lon="6.15034">
        <ele>1344.6205</ele>
        <time>2021-07-18T12:31:06</time>
      </trkpt>
      <trkpt lat="45.35698" lon="6.15036">
        <ele>1344.6205</ele>
        <time>2021-07-18T12:31:08</time>
      </trkpt>
      <trkpt lat="45.35698" lon="6.15038">
        <ele>1343.9204</ele>
        <time>2021-07-18T12:31:13</time>
      </trkpt>
      <trkpt lat="45.35697" lon="6.15039">
        <ele>1343.9204</ele>
        <time>2021-07-18T12:31:15</time>
      </trkpt>
      <trkpt lat="45.35697" lon="6.1504">
        <ele>1343.9204</ele>
        <time>2021-07-18T12:31:20</time>
      </trkpt>
      <trkpt lat="45.35696" lon="6.15041">
        <ele>1343.9204</ele>
        <time>2021-07-18T12:31:21</time>
      </trkpt>
      <trkpt lat="45.35695" lon="6.15042">
        <ele>1343.9204</ele>
        <time>2021-07-18T12:31:23</time>
      </trkpt>
      <trkpt lat="45.35691" lon="6.15042">
        <ele>1343.9204</ele>
        <time>2021-07-18T12:31:27</time>
      </trkpt>
      <trkpt lat="45.3569" lon="6.15043">
        <ele>1343.9204</ele>
        <time>2021-07-18T12:31:29</time>
      </trkpt>
      <trkpt lat="45.3569" lon="6.15044">
        <ele>1343.9204</ele>
        <time>2021-07-18T12:31:30</time>
      </trkpt>
      <trkpt lat="45.3569" lon="6.15044">
        <ele>1349.1205</ele>
        <time>2021-07-18T12:31:31</time>
      </trkpt>
      <trkpt lat="45.35687" lon="6.15047">
        <ele>1349.1205</ele>
        <time>2021-07-18T12:31:36</time>
      </trkpt>
      <trkpt lat="45.35686" lon="6.15047">
        <ele>1349.1205</ele>
        <time>2021-07-18T12:31:38</time>
      </trkpt>
      <trkpt lat="45.35682" lon="6.1505">
        <ele>1349.1205</ele>
        <time>2021-07-18T12:31:43</time>
      </trkpt>
      <trkpt lat="45.35682" lon="6.15053">
        <ele>1349.1205</ele>
        <time>2021-07-18T12:31:49</time>
      </trkpt>
      <trkpt lat="45.3568" lon="6.15055">
        <ele>1349.1205</ele>
        <time>2021-07-18T12:31:52</time>
      </trkpt>
      <trkpt lat="45.35679" lon="6.15055">
        <ele>1349.1205</ele>
        <time>2021-07-18T12:31:53</time>
      </trkpt>
      <trkpt lat="45.35678" lon="6.15057">
        <ele>1349.1205</ele>
        <time>2021-07-18T12:31:54</time>
      </trkpt>
      <trkpt lat="45.35676" lon="6.15058">
        <ele>1349.1205</ele>
        <time>2021-07-18T12:31:56</time>
      </trkpt>
      <trkpt lat="45.35676" lon="6.15059">
        <ele>1349.1205</ele>
        <time>2021-07-18T12:31:57</time>
      </trkpt>
      <trkpt lat="45.35672" lon="6.15061">
        <ele>1349.1205</ele>
        <time>2021-07-18T12:32:00</time>
      </trkpt>
      <trkpt lat="45.35672" lon="6.15063">
        <ele>1349.1205</ele>
        <time>2021-07-18T12:32:02</time>
      </trkpt>
      <trkpt lat="45.35672" lon="6.15064">
        <ele>1349.1205</ele>
        <time>2021-07-18T12:32:03</time>
      </trkpt>
      <trkpt lat="45.35672" lon="6.15065">
        <ele>1349.1205</ele>
        <time>2021-07-18T12:32:04</time>
      </trkpt>
      <trkpt lat="45.35671" lon="6.15066">
        <ele>1349.1205</ele>
        <time>2021-07-18T12:32:05</time>
      </trkpt>
      <trkpt lat="45.3567" lon="6.15067">
        <ele>1349.1205</ele>
        <time>2021-07-18T12:32:06</time>
      </trkpt>
      <trkpt lat="45.35668" lon="6.15067">
        <ele>1349.1205</ele>
        <time>2021-07-18T12:32:09</time>
      </trkpt>
      <trkpt lat="45.35667" lon="6.15068">
        <ele>1349.1205</ele>
        <time>2021-07-18T12:32:10</time>
      </trkpt>
      <trkpt lat="45.35661" lon="6.15074">
        <ele>1349.1205</ele>
        <time>2021-07-18T12:32:18</time>
      </trkpt>
      <trkpt lat="45.35656" lon="6.15076">
        <ele>1349.1205</ele>
        <time>2021-07-18T12:32:25</time>
      </trkpt>
      <trkpt lat="45.35655" lon="6.15076">
        <ele>1349.1205</ele>
        <time>2021-07-18T12:32:28</time>
      </trkpt>
      <trkpt lat="45.35652" lon="6.15075">
        <ele>1349.1205</ele>
        <time>2021-07-18T12:32:31</time>
      </trkpt>
      <trkpt lat="45.35651" lon="6.15075">
        <ele>1349.1205</ele>
        <time>2021-07-18T12:32:33</time>
      </trkpt>
      <trkpt lat="45.35649" lon="6.15076">
        <ele>1349.1205</ele>
        <time>2021-07-18T12:32:35</time>
      </trkpt>
      <trkpt lat="45.35647" lon="6.15081">
        <ele>1349.1205</ele>
        <time>2021-07-18T12:32:39</time>
      </trkpt>
      <trkpt lat="45.35642" lon="6.15086">
        <ele>1349.1205</ele>
        <time>2021-07-18T12:32:47</time>
      </trkpt>
      <trkpt lat="45.35641" lon="6.15085">
        <ele>1349.1205</ele>
        <time>2021-07-18T12:32:51</time>
      </trkpt>
      <trkpt lat="45.35636" lon="6.15089">
        <ele>1349.1205</ele>
        <time>2021-07-18T12:32:57</time>
      </trkpt>
      <trkpt lat="45.35633" lon="6.15092">
        <ele>1365.6205</ele>
        <time>2021-07-18T12:33:02</time>
      </trkpt>
      <trkpt lat="45.35632" lon="6.15093">
        <ele>1365.6205</ele>
        <time>2021-07-18T12:33:04</time>
      </trkpt>
      <trkpt lat="45.35632" lon="6.15094">
        <ele>1365.6205</ele>
        <time>2021-07-18T12:33:05</time>
      </trkpt>
      <trkpt lat="45.35632" lon="6.15094">
        <ele>1365.6205</ele>
        <time>2021-07-18T12:33:06</time>
      </trkpt>
      <trkpt lat="45.35632" lon="6.15095">
        <ele>1365.6205</ele>
        <time>2021-07-18T12:33:07</time>
      </trkpt>
      <trkpt lat="45.35631" lon="6.15096">
        <ele>1365.6205</ele>
        <time>2021-07-18T12:33:09</time>
      </trkpt>
      <trkpt lat="45.3563" lon="6.151">
        <ele>1365.6205</ele>
        <time>2021-07-18T12:33:15</time>
      </trkpt>
      <trkpt lat="45.3563" lon="6.151">
        <ele>1365.6205</ele>
        <time>2021-07-18T12:33:16</time>
      </trkpt>
      <trkpt lat="45.3563" lon="6.15102">
        <ele>1365.6205</ele>
        <time>2021-07-18T12:33:18</time>
      </trkpt>
      <trkpt lat="45.35628" lon="6.15104">
        <ele>1365.6205</ele>
        <time>2021-07-18T12:33:22</time>
      </trkpt>
      <trkpt lat="45.35628" lon="6.15104">
        <ele>1365.6205</ele>
        <time>2021-07-18T12:33:23</time>
      </trkpt>
      <trkpt lat="45.35624" lon="6.15106">
        <ele>1365.6205</ele>
        <time>2021-07-18T12:33:28</time>
      </trkpt>
      <trkpt lat="45.35624" lon="6.15106">
        <ele>1365.6205</ele>
        <time>2021-07-18T12:33:29</time>
      </trkpt>
      <trkpt lat="45.35623" lon="6.15107">
        <ele>1365.6205</ele>
        <time>2021-07-18T12:33:30</time>
      </trkpt>
      <trkpt lat="45.35623" lon="6.15109">
        <ele>1365.6205</ele>
        <time>2021-07-18T12:33:37</time>
      </trkpt>
      <trkpt lat="45.35622" lon="6.15111">
        <ele>1373.5204</ele>
        <time>2021-07-18T12:33:41</time>
      </trkpt>
      <trkpt lat="45.35622" lon="6.15112">
        <ele>1373.5204</ele>
        <time>2021-07-18T12:33:43</time>
      </trkpt>
      <trkpt lat="45.35622" lon="6.15113">
        <ele>1373.5204</ele>
        <time>2021-07-18T12:33:44</time>
      </trkpt>
      <trkpt lat="45.35621" lon="6.15114">
        <ele>1373.5204</ele>
        <time>2021-07-18T12:33:47</time>
      </trkpt>
      <trkpt lat="45.3562" lon="6.15115">
        <ele>1373.5204</ele>
        <time>2021-07-18T12:33:50</time>
      </trkpt>
      <trkpt lat="45.3562" lon="6.15115">
        <ele>1373.7205</ele>
        <time>2021-07-18T12:33:51</time>
      </trkpt>
      <trkpt lat="45.35617" lon="6.15124">
        <ele>1377.6205</ele>
        <time>2021-07-18T12:34:02</time>
      </trkpt>
      <trkpt lat="45.35617" lon="6.15125">
        <ele>1377.6205</ele>
        <time>2021-07-18T12:34:03</time>
      </trkpt>
      <trkpt lat="45.35616" lon="6.15126">
        <ele>1377.6205</ele>
        <time>2021-07-18T12:34:05</time>
      </trkpt>
      <trkpt lat="45.35614" lon="6.15126">
        <ele>1375.7205</ele>
        <time>2021-07-18T12:34:12</time>
      </trkpt>
      <trkpt lat="45.35613" lon="6.15125">
        <ele>1375.7205</ele>
        <time>2021-07-18T12:34:13</time>
      </trkpt>
      <trkpt lat="45.35613" lon="6.15125">
        <ele>1375.7205</ele>
        <time>2021-07-18T12:34:15</time>
      </trkpt>
      <trkpt lat="45.35613" lon="6.15126">
        <ele>1375.7205</ele>
        <time>2021-07-18T12:34:16</time>
      </trkpt>
      <trkpt lat="45.35614" lon="6.15126">
        <ele>1381.3204</ele>
        <time>2021-07-18T12:34:31</time>
      </trkpt>
      <trkpt lat="45.35613" lon="6.15128">
        <ele>1381.3204</ele>
        <time>2021-07-18T12:34:33</time>
      </trkpt>
      <trkpt lat="45.35613" lon="6.1513">
        <ele>1381.3204</ele>
        <time>2021-07-18T12:34:34</time>
      </trkpt>
      <trkpt lat="45.35609" lon="6.15141">
        <ele>1381.3204</ele>
        <time>2021-07-18T12:34:42</time>
      </trkpt>
      <trkpt lat="45.35607" lon="6.15143">
        <ele>1381.3204</ele>
        <time>2021-07-18T12:34:49</time>
      </trkpt>
      <trkpt lat="45.35606" lon="6.15143">
        <ele>1381.3204</ele>
        <time>2021-07-18T12:34:50</time>
      </trkpt>
      <trkpt lat="45.35603" lon="6.1514">
        <ele>1385.3204</ele>
        <time>2021-07-18T12:35:05</time>
      </trkpt>
      <trkpt lat="45.35602" lon="6.15139">
        <ele>1385.3204</ele>
        <time>2021-07-18T12:35:06</time>
      </trkpt>
      <trkpt lat="45.35601" lon="6.15139">
        <ele>1385.3204</ele>
        <time>2021-07-18T12:35:07</time>
      </trkpt>
      <trkpt lat="45.35601" lon="6.15138">
        <ele>1385.3204</ele>
        <time>2021-07-18T12:35:08</time>
      </trkpt>
      <trkpt lat="45.356" lon="6.15138">
        <ele>1385.3204</ele>
        <time>2021-07-18T12:35:09</time>
      </trkpt>
      <trkpt lat="45.35598" lon="6.15137">
        <ele>1385.3204</ele>
        <time>2021-07-18T12:35:11</time>
      </trkpt>
      <trkpt lat="45.35598" lon="6.15137">
        <ele>1385.3204</ele>
        <time>2021-07-18T12:35:12</time>
      </trkpt>
      <trkpt lat="45.35597" lon="6.15138">
        <ele>1385.3204</ele>
        <time>2021-07-18T12:35:13</time>
      </trkpt>
      <trkpt lat="45.35595" lon="6.15138">
        <ele>1385.3204</ele>
        <time>2021-07-18T12:35:14</time>
      </trkpt>
      <trkpt lat="45.35594" lon="6.15139">
        <ele>1385.3204</ele>
        <time>2021-07-18T12:35:18</time>
      </trkpt>
      <trkpt lat="45.35594" lon="6.15139">
        <ele>1385.3204</ele>
        <time>2021-07-18T12:35:19</time>
      </trkpt>
      <trkpt lat="45.35593" lon="6.15139">
        <ele>1385.8204</ele>
        <time>2021-07-18T12:35:22</time>
      </trkpt>
      <trkpt lat="45.35594" lon="6.1514">
        <ele>1385.8204</ele>
        <time>2021-07-18T12:35:23</time>
      </trkpt>
      <trkpt lat="45.35594" lon="6.1514">
        <ele>1385.8204</ele>
        <time>2021-07-18T12:35:24</time>
      </trkpt>
      <trkpt lat="45.35594" lon="6.15139">
        <ele>1385.8204</ele>
        <time>2021-07-18T12:35:25</time>
      </trkpt>
      <trkpt lat="45.35593" lon="6.15139">
        <ele>1385.8204</ele>
        <time>2021-07-18T12:35:29</time>
      </trkpt>
      <trkpt lat="45.35594" lon="6.1514">
        <ele>1385.8204</ele>
        <time>2021-07-18T12:35:30</time>
      </trkpt>
      <trkpt lat="45.35592" lon="6.15142">
        <ele>1388.0204</ele>
        <time>2021-07-18T12:35:33</time>
      </trkpt>
      <trkpt lat="45.35591" lon="6.15141">
        <ele>1388.0204</ele>
        <time>2021-07-18T12:35:34</time>
      </trkpt>
      <trkpt lat="45.35591" lon="6.15142">
        <ele>1388.0204</ele>
        <time>2021-07-18T12:35:35</time>
      </trkpt>
      <trkpt lat="45.3559" lon="6.15142">
        <ele>1388.0204</ele>
        <time>2021-07-18T12:35:36</time>
      </trkpt>
      <trkpt lat="45.35588" lon="6.15142">
        <ele>1385.4204</ele>
        <time>2021-07-18T12:35:43</time>
      </trkpt>
      <trkpt lat="45.35587" lon="6.15142">
        <ele>1385.4204</ele>
        <time>2021-07-18T12:35:44</time>
      </trkpt>
      <trkpt lat="45.35586" lon="6.15143">
        <ele>1390.7205</ele>
        <time>2021-07-18T12:35:54</time>
      </trkpt>
      <trkpt lat="45.35586" lon="6.15145">
        <ele>1390.7205</ele>
        <time>2021-07-18T12:35:56</time>
      </trkpt>
      <trkpt lat="45.35586" lon="6.15148">
        <ele>1391.7205</ele>
        <time>2021-07-18T12:36:05</time>
      </trkpt>
      <trkpt lat="45.35586" lon="6.15149">
        <ele>1391.7205</ele>
        <time>2021-07-18T12:36:06</time>
      </trkpt>
      <trkpt lat="45.35585" lon="6.1515">
        <ele>1391.7205</ele>
        <time>2021-07-18T12:36:09</time>
      </trkpt>
      <trkpt lat="45.35583" lon="6.1515">
        <ele>1391.7205</ele>
        <time>2021-07-18T12:36:11</time>
      </trkpt>
      <trkpt lat="45.35581" lon="6.15149">
        <ele>1391.7205</ele>
        <time>2021-07-18T12:36:13</time>
      </trkpt>
      <trkpt lat="45.35577" lon="6.15147">
        <ele>1395.4204</ele>
        <time>2021-07-18T12:36:27</time>
      </trkpt>
      <trkpt lat="45.35577" lon="6.15148">
        <ele>1395.4204</ele>
        <time>2021-07-18T12:36:29</time>
      </trkpt>
      <trkpt lat="45.35576" lon="6.1515">
        <ele>1399.9204</ele>
        <time>2021-07-18T12:36:36</time>
      </trkpt>
      <trkpt lat="45.35575" lon="6.1515">
        <ele>1399.9204</ele>
        <time>2021-07-18T12:36:37</time>
      </trkpt>
      <trkpt lat="45.35575" lon="6.1515">
        <ele>1399.9204</ele>
        <time>2021-07-18T12:36:38</time>
      </trkpt>
      <trkpt lat="45.35574" lon="6.1515">
        <ele>1399.9204</ele>
        <time>2021-07-18T12:36:39</time>
      </trkpt>
      <trkpt lat="45.35573" lon="6.1515">
        <ele>1399.9204</ele>
        <time>2021-07-18T12:36:40</time>
      </trkpt>
      <trkpt lat="45.35573" lon="6.15151">
        <ele>1400.8204</ele>
        <time>2021-07-18T12:36:41</time>
      </trkpt>
      <trkpt lat="45.35571" lon="6.15151">
        <ele>1400.8204</ele>
        <time>2021-07-18T12:36:42</time>
      </trkpt>
      <trkpt lat="45.35571" lon="6.15151">
        <ele>1400.8204</ele>
        <time>2021-07-18T12:36:43</time>
      </trkpt>
      <trkpt lat="45.3557" lon="6.15152">
        <ele>1400.8204</ele>
        <time>2021-07-18T12:36:44</time>
      </trkpt>
      <trkpt lat="45.3557" lon="6.15152">
        <ele>1400.8204</ele>
        <time>2021-07-18T12:36:45</time>
      </trkpt>
      <trkpt lat="45.35569" lon="6.15152">
        <ele>1400.8204</ele>
        <time>2021-07-18T12:36:46</time>
      </trkpt>
      <trkpt lat="45.35569" lon="6.15153">
        <ele>1400.8204</ele>
        <time>2021-07-18T12:36:47</time>
      </trkpt>
      <trkpt lat="45.35569" lon="6.15153">
        <ele>1400.8204</ele>
        <time>2021-07-18T12:36:48</time>
      </trkpt>
      <trkpt lat="45.35569" lon="6.15154">
        <ele>1400.8204</ele>
        <time>2021-07-18T12:36:49</time>
      </trkpt>
      <trkpt lat="45.35569" lon="6.15154">
        <ele>1400.8204</ele>
        <time>2021-07-18T12:36:50</time>
      </trkpt>
      <trkpt lat="45.35568" lon="6.15155">
        <ele>1400.8204</ele>
        <time>2021-07-18T12:36:51</time>
      </trkpt>
      <trkpt lat="45.35567" lon="6.15155">
        <ele>1400.8204</ele>
        <time>2021-07-18T12:36:53</time>
      </trkpt>
      <trkpt lat="45.35567" lon="6.15155">
        <ele>1400.8204</ele>
        <time>2021-07-18T12:36:54</time>
      </trkpt>
      <trkpt lat="45.35567" lon="6.15156">
        <ele>1400.8204</ele>
        <time>2021-07-18T12:36:57</time>
      </trkpt>
      <trkpt lat="45.35566" lon="6.15156">
        <ele>1400.8204</ele>
        <time>2021-07-18T12:36:58</time>
      </trkpt>
      <trkpt lat="45.35565" lon="6.15156">
        <ele>1400.8204</ele>
        <time>2021-07-18T12:36:59</time>
      </trkpt>
      <trkpt lat="45.35562" lon="6.15156">
        <ele>1400.8204</ele>
        <time>2021-07-18T12:37:02</time>
      </trkpt>
      <trkpt lat="45.35561" lon="6.15156">
        <ele>1400.8204</ele>
        <time>2021-07-18T12:37:03</time>
      </trkpt>
      <trkpt lat="45.35561" lon="6.15155">
        <ele>1400.8204</ele>
        <time>2021-07-18T12:37:04</time>
      </trkpt>
      <trkpt lat="45.3556" lon="6.15155">
        <ele>1400.8204</ele>
        <time>2021-07-18T12:37:05</time>
      </trkpt>
      <trkpt lat="45.35558" lon="6.15154">
        <ele>1400.8204</ele>
        <time>2021-07-18T12:37:08</time>
      </trkpt>
      <trkpt lat="45.35558" lon="6.15154">
        <ele>1400.8204</ele>
        <time>2021-07-18T12:37:09</time>
      </trkpt>
      <trkpt lat="45.35557" lon="6.15154">
        <ele>1400.8204</ele>
        <time>2021-07-18T12:37:10</time>
      </trkpt>
      <trkpt lat="45.35555" lon="6.15154">
        <ele>1400.2205</ele>
        <time>2021-07-18T12:37:14</time>
      </trkpt>
      <trkpt lat="45.35555" lon="6.15153">
        <ele>1400.2205</ele>
        <time>2021-07-18T12:37:18</time>
      </trkpt>
      <trkpt lat="45.35555" lon="6.15152">
        <ele>1400.2205</ele>
        <time>2021-07-18T12:37:20</time>
      </trkpt>
      <trkpt lat="45.35555" lon="6.15151">
        <ele>1402.1205</ele>
        <time>2021-07-18T12:37:21</time>
      </trkpt>
      <trkpt lat="45.35554" lon="6.15151">
        <ele>1402.1205</ele>
        <time>2021-07-18T12:37:23</time>
      </trkpt>
      <trkpt lat="45.35553" lon="6.15151">
        <ele>1405.7205</ele>
        <time>2021-07-18T12:37:43</time>
      </trkpt>
      <trkpt lat="45.35552" lon="6.15152">
        <ele>1405.7205</ele>
        <time>2021-07-18T12:37:44</time>
      </trkpt>
      <trkpt lat="45.35551" lon="6.15152">
        <ele>1405.7205</ele>
        <time>2021-07-18T12:37:45</time>
      </trkpt>
      <trkpt lat="45.3555" lon="6.15152">
        <ele>1405.7205</ele>
        <time>2021-07-18T12:37:46</time>
      </trkpt>
      <trkpt lat="45.35549" lon="6.15153">
        <ele>1405.7205</ele>
        <time>2021-07-18T12:37:47</time>
      </trkpt>
      <trkpt lat="45.35549" lon="6.15153">
        <ele>1405.7205</ele>
        <time>2021-07-18T12:37:48</time>
      </trkpt>
      <trkpt lat="45.35548" lon="6.15153">
        <ele>1406.4204</ele>
        <time>2021-07-18T12:37:55</time>
      </trkpt>
      <trkpt lat="45.35548" lon="6.15153">
        <ele>1406.4204</ele>
        <time>2021-07-18T12:37:56</time>
      </trkpt>
      <trkpt lat="45.35544" lon="6.15153">
        <ele>1406.4204</ele>
        <time>2021-07-18T12:38:00</time>
      </trkpt>
      <trkpt lat="45.35543" lon="6.15153">
        <ele>1410.7205</ele>
        <time>2021-07-18T12:38:01</time>
      </trkpt>
      <trkpt lat="45.35543" lon="6.15153">
        <ele>1410.7205</ele>
        <time>2021-07-18T12:38:02</time>
      </trkpt>
      <trkpt lat="45.35542" lon="6.15151">
        <ele>1410.7205</ele>
        <time>2021-07-18T12:38:04</time>
      </trkpt>
      <trkpt lat="45.3554" lon="6.15149">
        <ele>1410.7205</ele>
        <time>2021-07-18T12:38:08</time>
      </trkpt>
      <trkpt lat="45.35538" lon="6.15148">
        <ele>1410.7205</ele>
        <time>2021-07-18T12:38:10</time>
      </trkpt>
      <trkpt lat="45.35534" lon="6.15145">
        <ele>1412.1205</ele>
        <time>2021-07-18T12:38:16</time>
      </trkpt>
      <trkpt lat="45.35534" lon="6.15145">
        <ele>1412.1205</ele>
        <time>2021-07-18T12:38:17</time>
      </trkpt>
      <trkpt lat="45.35532" lon="6.15146">
        <ele>1412.1205</ele>
        <time>2021-07-18T12:38:20</time>
      </trkpt>
      <trkpt lat="45.35531" lon="6.15146">
        <ele>1412.5204</ele>
        <time>2021-07-18T12:38:21</time>
      </trkpt>
      <trkpt lat="45.35531" lon="6.15147">
        <ele>1412.5204</ele>
        <time>2021-07-18T12:38:22</time>
      </trkpt>
      <trkpt lat="45.3553" lon="6.15146">
        <ele>1412.5204</ele>
        <time>2021-07-18T12:38:23</time>
      </trkpt>
      <trkpt lat="45.35529" lon="6.15148">
        <ele>1412.5204</ele>
        <time>2021-07-18T12:38:29</time>
      </trkpt>
      <trkpt lat="45.35528" lon="6.15148">
        <ele>1412.5204</ele>
        <time>2021-07-18T12:38:30</time>
      </trkpt>
      <trkpt lat="45.35528" lon="6.15149">
        <ele>1413.3204</ele>
        <time>2021-07-18T12:38:32</time>
      </trkpt>
      <trkpt lat="45.35527" lon="6.1515">
        <ele>1413.3204</ele>
        <time>2021-07-18T12:38:38</time>
      </trkpt>
      <trkpt lat="45.35527" lon="6.15151">
        <ele>1413.3204</ele>
        <time>2021-07-18T12:38:39</time>
      </trkpt>
      <trkpt lat="45.35532" lon="6.15154">
        <ele>1412.9204</ele>
        <time>2021-07-18T12:38:49</time>
      </trkpt>
      <trkpt lat="45.35533" lon="6.15155">
        <ele>1417.3204</ele>
        <time>2021-07-18T12:38:53</time>
      </trkpt>
      <trkpt lat="45.35533" lon="6.15158">
        <ele>1418.8204</ele>
        <time>2021-07-18T12:39:07</time>
      </trkpt>
      <trkpt lat="45.35533" lon="6.15159">
        <ele>1418.8204</ele>
        <time>2021-07-18T12:39:08</time>
      </trkpt>
      <trkpt lat="45.35533" lon="6.15161">
        <ele>1418.8204</ele>
        <time>2021-07-18T12:39:10</time>
      </trkpt>
      <trkpt lat="45.35534" lon="6.15162">
        <ele>1418.9204</ele>
        <time>2021-07-18T12:39:11</time>
      </trkpt>
      <trkpt lat="45.35533" lon="6.15166">
        <ele>1418.9204</ele>
        <time>2021-07-18T12:39:22</time>
      </trkpt>
      <trkpt lat="45.35532" lon="6.15166">
        <ele>1418.9204</ele>
        <time>2021-07-18T12:39:23</time>
      </trkpt>
      <trkpt lat="45.35531" lon="6.15168">
        <ele>1418.9204</ele>
        <time>2021-07-18T12:39:25</time>
      </trkpt>
      <trkpt lat="45.3553" lon="6.15168">
        <ele>1418.9204</ele>
        <time>2021-07-18T12:39:26</time>
      </trkpt>
      <trkpt lat="45.35528" lon="6.15168">
        <ele>1418.9204</ele>
        <time>2021-07-18T12:39:29</time>
      </trkpt>
      <trkpt lat="45.35527" lon="6.15168">
        <ele>1418.9204</ele>
        <time>2021-07-18T12:39:30</time>
      </trkpt>
      <trkpt lat="45.35526" lon="6.15168">
        <ele>1418.5204</ele>
        <time>2021-07-18T12:39:37</time>
      </trkpt>
      <trkpt lat="45.35525" lon="6.1517">
        <ele>1418.5204</ele>
        <time>2021-07-18T12:39:39</time>
      </trkpt>
      <trkpt lat="45.35524" lon="6.15171">
        <ele>1418.5204</ele>
        <time>2021-07-18T12:39:41</time>
      </trkpt>
      <trkpt lat="45.35523" lon="6.15171">
        <ele>1418.5204</ele>
        <time>2021-07-18T12:39:42</time>
      </trkpt>
      <trkpt lat="45.35524" lon="6.15172">
        <ele>1418.5204</ele>
        <time>2021-07-18T12:39:45</time>
      </trkpt>
      <trkpt lat="45.35523" lon="6.15172">
        <ele>1418.5204</ele>
        <time>2021-07-18T12:39:46</time>
      </trkpt>
      <trkpt lat="45.35524" lon="6.15173">
        <ele>1418.5204</ele>
        <time>2021-07-18T12:39:47</time>
      </trkpt>
      <trkpt lat="45.35524" lon="6.15173">
        <ele>1418.5204</ele>
        <time>2021-07-18T12:39:48</time>
      </trkpt>
      <trkpt lat="45.35524" lon="6.15173">
        <ele>1418.5204</ele>
        <time>2021-07-18T12:39:51</time>
      </trkpt>
      <trkpt lat="45.35523" lon="6.15173">
        <ele>1418.5204</ele>
        <time>2021-07-18T12:39:54</time>
      </trkpt>
      <trkpt lat="45.35524" lon="6.15174">
        <ele>1418.5204</ele>
        <time>2021-07-18T12:39:58</time>
      </trkpt>
      <trkpt lat="45.35524" lon="6.15174">
        <ele>1418.5204</ele>
        <time>2021-07-18T12:40:07</time>
      </trkpt>
      <trkpt lat="45.35525" lon="6.15175">
        <ele>1418.5204</ele>
        <time>2021-07-18T12:40:09</time>
      </trkpt>
      <trkpt lat="45.35526" lon="6.15176">
        <ele>1418.5204</ele>
        <time>2021-07-18T12:40:10</time>
      </trkpt>
      <trkpt lat="45.35527" lon="6.1518">
        <ele>1427.8204</ele>
        <time>2021-07-18T12:40:16</time>
      </trkpt>
      <trkpt lat="45.35529" lon="6.1518">
        <ele>1428.0204</ele>
        <time>2021-07-18T12:40:23</time>
      </trkpt>
      <trkpt lat="45.35529" lon="6.1518">
        <ele>1428.0204</ele>
        <time>2021-07-18T12:40:24</time>
      </trkpt>
      <trkpt lat="45.35531" lon="6.15186">
        <ele>1428.2205</ele>
        <time>2021-07-18T12:40:35</time>
      </trkpt>
      <trkpt lat="45.3553" lon="6.15186">
        <ele>1428.2205</ele>
        <time>2021-07-18T12:40:36</time>
      </trkpt>
      <trkpt lat="45.3553" lon="6.15186">
        <ele>1428.2205</ele>
        <time>2021-07-18T12:40:37</time>
      </trkpt>
      <trkpt lat="45.35529" lon="6.15187">
        <ele>1428.2205</ele>
        <time>2021-07-18T12:40:38</time>
      </trkpt>
      <trkpt lat="45.35529" lon="6.15189">
        <ele>1429.2205</ele>
        <time>2021-07-18T12:40:42</time>
      </trkpt>
      <trkpt lat="45.35528" lon="6.1519">
        <ele>1429.2205</ele>
        <time>2021-07-18T12:40:43</time>
      </trkpt>
      <trkpt lat="45.35528" lon="6.15191">
        <ele>1429.2205</ele>
        <time>2021-07-18T12:40:48</time>
      </trkpt>
      <trkpt lat="45.35526" lon="6.15192">
        <ele>1426.3204</ele>
        <time>2021-07-18T12:40:51</time>
      </trkpt>
      <trkpt lat="45.35525" lon="6.15192">
        <ele>1426.3204</ele>
        <time>2021-07-18T12:40:52</time>
      </trkpt>
      <trkpt lat="45.35524" lon="6.15191">
        <ele>1426.3204</ele>
        <time>2021-07-18T12:40:53</time>
      </trkpt>
      <trkpt lat="45.35523" lon="6.15192">
        <ele>1426.3204</ele>
        <time>2021-07-18T12:40:58</time>
      </trkpt>
      <trkpt lat="45.35523" lon="6.15193">
        <ele>1426.3204</ele>
        <time>2021-07-18T12:40:59</time>
      </trkpt>
      <trkpt lat="45.3552" lon="6.15192">
        <ele>1431.9204</ele>
        <time>2021-07-18T12:41:12</time>
      </trkpt>
      <trkpt lat="45.3552" lon="6.15192">
        <ele>1431.9204</ele>
        <time>2021-07-18T12:41:13</time>
      </trkpt>
      <trkpt lat="45.3552" lon="6.15192">
        <ele>1431.9204</ele>
        <time>2021-07-18T12:41:14</time>
      </trkpt>
      <trkpt lat="45.3552" lon="6.15191">
        <ele>1431.9204</ele>
        <time>2021-07-18T12:41:15</time>
      </trkpt>
      <trkpt lat="45.3552" lon="6.15191">
        <ele>1431.9204</ele>
        <time>2021-07-18T12:41:16</time>
      </trkpt>
      <trkpt lat="45.35521" lon="6.15191">
        <ele>1431.9204</ele>
        <time>2021-07-18T12:41:19</time>
      </trkpt>
      <trkpt lat="45.35521" lon="6.15193">
        <ele>1434.1205</ele>
        <time>2021-07-18T12:41:21</time>
      </trkpt>
      <trkpt lat="45.35522" lon="6.15194">
        <ele>1434.1205</ele>
        <time>2021-07-18T12:41:24</time>
      </trkpt>
      <trkpt lat="45.35523" lon="6.15194">
        <ele>1437.2205</ele>
        <time>2021-07-18T12:41:33</time>
      </trkpt>
      <trkpt lat="45.35523" lon="6.15195">
        <ele>1437.2205</ele>
        <time>2021-07-18T12:41:34</time>
      </trkpt>
      <trkpt lat="45.35523" lon="6.15197">
        <ele>1437.2205</ele>
        <time>2021-07-18T12:41:36</time>
      </trkpt>
      <trkpt lat="45.35523" lon="6.15199">
        <ele>1437.2205</ele>
        <time>2021-07-18T12:41:37</time>
      </trkpt>
      <trkpt lat="45.35521" lon="6.15203">
        <ele>1438.4204</ele>
        <time>2021-07-18T12:41:57</time>
      </trkpt>
      <trkpt lat="45.35521" lon="6.15204">
        <ele>1438.4204</ele>
        <time>2021-07-18T12:41:58</time>
      </trkpt>
      <trkpt lat="45.35521" lon="6.15205">
        <ele>1438.4204</ele>
        <time>2021-07-18T12:41:59</time>
      </trkpt>
      <trkpt lat="45.35521" lon="6.15205">
        <ele>1438.4204</ele>
        <time>2021-07-18T12:42:00</time>
      </trkpt>
      <trkpt lat="45.35521" lon="6.15207">
        <ele>1438.2205</ele>
        <time>2021-07-18T12:42:01</time>
      </trkpt>
      <trkpt lat="45.35519" lon="6.15211">
        <ele>1438.2205</ele>
        <time>2021-07-18T12:42:07</time>
      </trkpt>
      <trkpt lat="45.35519" lon="6.15212">
        <ele>1438.2205</ele>
        <time>2021-07-18T12:42:08</time>
      </trkpt>
      <trkpt lat="45.35518" lon="6.15213">
        <ele>1438.2205</ele>
        <time>2021-07-18T12:42:10</time>
      </trkpt>
      <trkpt lat="45.35518" lon="6.15213">
        <ele>1435.7205</ele>
        <time>2021-07-18T12:42:11</time>
      </trkpt>
      <trkpt lat="45.35517" lon="6.15213">
        <ele>1435.7205</ele>
        <time>2021-07-18T12:42:12</time>
      </trkpt>
      <trkpt lat="45.35516" lon="6.15213">
        <ele>1435.7205</ele>
        <time>2021-07-18T12:42:13</time>
      </trkpt>
      <trkpt lat="45.35515" lon="6.15213">
        <ele>1435.7205</ele>
        <time>2021-07-18T12:42:14</time>
      </trkpt>
      <trkpt lat="45.35515" lon="6.15214">
        <ele>1435.7205</ele>
        <time>2021-07-18T12:42:15</time>
      </trkpt>
      <trkpt lat="45.35515" lon="6.15214">
        <ele>1435.7205</ele>
        <time>2021-07-18T12:42:16</time>
      </trkpt>
      <trkpt lat="45.35515" lon="6.15214">
        <ele>1438.1205</ele>
        <time>2021-07-18T12:42:24</time>
      </trkpt>
      <trkpt lat="45.35515" lon="6.15215">
        <ele>1438.1205</ele>
        <time>2021-07-18T12:42:25</time>
      </trkpt>
      <trkpt lat="45.35516" lon="6.15215">
        <ele>1438.1205</ele>
        <time>2021-07-18T12:42:26</time>
      </trkpt>
      <trkpt lat="45.35516" lon="6.15216">
        <ele>1438.1205</ele>
        <time>2021-07-18T12:42:27</time>
      </trkpt>
      <trkpt lat="45.35516" lon="6.15216">
        <ele>1438.1205</ele>
        <time>2021-07-18T12:42:28</time>
      </trkpt>
      <trkpt lat="45.35516" lon="6.15217">
        <ele>1438.1205</ele>
        <time>2021-07-18T12:42:29</time>
      </trkpt>
      <trkpt lat="45.35516" lon="6.15217">
        <ele>1438.1205</ele>
        <time>2021-07-18T12:42:30</time>
      </trkpt>
      <trkpt lat="45.35516" lon="6.15216">
        <ele>1439.9204</ele>
        <time>2021-07-18T12:42:31</time>
      </trkpt>
      <trkpt lat="45.35515" lon="6.15215">
        <ele>1439.9204</ele>
        <time>2021-07-18T12:42:34</time>
      </trkpt>
      <trkpt lat="45.35515" lon="6.15216">
        <ele>1439.9204</ele>
        <time>2021-07-18T12:42:35</time>
      </trkpt>
      <trkpt lat="45.35514" lon="6.15217">
        <ele>1444.9204</ele>
        <time>2021-07-18T12:42:41</time>
      </trkpt>
      <trkpt lat="45.35514" lon="6.15218">
        <ele>1444.9204</ele>
        <time>2021-07-18T12:42:42</time>
      </trkpt>
      <trkpt lat="45.35513" lon="6.15219">
        <ele>1444.9204</ele>
        <time>2021-07-18T12:42:44</time>
      </trkpt>
      <trkpt lat="45.35512" lon="6.15221">
        <ele>1444.9204</ele>
        <time>2021-07-18T12:42:46</time>
      </trkpt>
      <trkpt lat="45.35511" lon="6.15222">
        <ele>1446.1205</ele>
        <time>2021-07-18T12:42:52</time>
      </trkpt>
      <trkpt lat="45.35512" lon="6.15223">
        <ele>1446.1205</ele>
        <time>2021-07-18T12:42:54</time>
      </trkpt>
      <trkpt lat="45.35512" lon="6.15224">
        <ele>1446.1205</ele>
        <time>2021-07-18T12:42:55</time>
      </trkpt>
      <trkpt lat="45.35514" lon="6.15224">
        <ele>1446.1205</ele>
        <time>2021-07-18T12:42:59</time>
      </trkpt>
      <trkpt lat="45.35513" lon="6.15224">
        <ele>1446.8204</ele>
        <time>2021-07-18T12:43:03</time>
      </trkpt>
      <trkpt lat="45.35513" lon="6.15224">
        <ele>1446.8204</ele>
        <time>2021-07-18T12:43:04</time>
      </trkpt>
      <trkpt lat="45.35513" lon="6.15224">
        <ele>1446.8204</ele>
        <time>2021-07-18T12:43:05</time>
      </trkpt>
      <trkpt lat="45.35513" lon="6.15223">
        <ele>1446.8204</ele>
        <time>2021-07-18T12:43:06</time>
      </trkpt>
      <trkpt lat="45.35513" lon="6.15224">
        <ele>1446.8204</ele>
        <time>2021-07-18T12:43:10</time>
      </trkpt>
      <trkpt lat="45.35511" lon="6.15227">
        <ele>1449.7205</ele>
        <time>2021-07-18T12:43:16</time>
      </trkpt>
      <trkpt lat="45.35511" lon="6.15228">
        <ele>1449.7205</ele>
        <time>2021-07-18T12:43:17</time>
      </trkpt>
      <trkpt lat="45.3551" lon="6.15228">
        <ele>1449.7205</ele>
        <time>2021-07-18T12:43:18</time>
      </trkpt>
      <trkpt lat="45.35509" lon="6.15229">
        <ele>1449.7205</ele>
        <time>2021-07-18T12:43:19</time>
      </trkpt>
      <trkpt lat="45.35508" lon="6.15228">
        <ele>1455.4204</ele>
        <time>2021-07-18T12:43:22</time>
      </trkpt>
      <trkpt lat="45.35508" lon="6.15229">
        <ele>1455.4204</ele>
        <time>2021-07-18T12:43:23</time>
      </trkpt>
      <trkpt lat="45.35507" lon="6.15229">
        <ele>1455.4204</ele>
        <time>2021-07-18T12:43:24</time>
      </trkpt>
      <trkpt lat="45.35507" lon="6.15229">
        <ele>1455.4204</ele>
        <time>2021-07-18T12:43:25</time>
      </trkpt>
      <trkpt lat="45.35507" lon="6.15229">
        <ele>1455.4204</ele>
        <time>2021-07-18T12:43:26</time>
      </trkpt>
      <trkpt lat="45.35506" lon="6.1523">
        <ele>1455.4204</ele>
        <time>2021-07-18T12:43:30</time>
      </trkpt>
      <trkpt lat="45.35506" lon="6.15231">
        <ele>1456.2205</ele>
        <time>2021-07-18T12:43:32</time>
      </trkpt>
      <trkpt lat="45.35506" lon="6.15231">
        <ele>1456.2205</ele>
        <time>2021-07-18T12:43:34</time>
      </trkpt>
      <trkpt lat="45.35505" lon="6.15231">
        <ele>1456.2205</ele>
        <time>2021-07-18T12:43:35</time>
      </trkpt>
      <trkpt lat="45.35504" lon="6.15231">
        <ele>1456.2205</ele>
        <time>2021-07-18T12:43:36</time>
      </trkpt>
      <trkpt lat="45.35503" lon="6.15231">
        <ele>1456.2205</ele>
        <time>2021-07-18T12:43:37</time>
      </trkpt>
      <trkpt lat="45.35503" lon="6.15231">
        <ele>1456.2205</ele>
        <time>2021-07-18T12:43:38</time>
      </trkpt>
      <trkpt lat="45.35502" lon="6.15231">
        <ele>1455.2205</ele>
        <time>2021-07-18T12:43:42</time>
      </trkpt>
      <trkpt lat="45.35501" lon="6.15231">
        <ele>1455.2205</ele>
        <time>2021-07-18T12:43:44</time>
      </trkpt>
      <trkpt lat="45.355" lon="6.1523">
        <ele>1455.2205</ele>
        <time>2021-07-18T12:43:45</time>
      </trkpt>
      <trkpt lat="45.35498" lon="6.1523">
        <ele>1455.2205</ele>
        <time>2021-07-18T12:43:50</time>
      </trkpt>
      <trkpt lat="45.35497" lon="6.1523">
        <ele>1458.6205</ele>
        <time>2021-07-18T12:43:54</time>
      </trkpt>
      <trkpt lat="45.35497" lon="6.15231">
        <ele>1458.6205</ele>
        <time>2021-07-18T12:43:56</time>
      </trkpt>
      <trkpt lat="45.35496" lon="6.15232">
        <ele>1458.4204</ele>
        <time>2021-07-18T12:44:04</time>
      </trkpt>
      <trkpt lat="45.35497" lon="6.15234">
        <ele>1458.4204</ele>
        <time>2021-07-18T12:44:07</time>
      </trkpt>
      <trkpt lat="45.35498" lon="6.15234">
        <ele>1458.4204</ele>
        <time>2021-07-18T12:44:08</time>
      </trkpt>
      <trkpt lat="45.35499" lon="6.15234">
        <ele>1458.4204</ele>
        <time>2021-07-18T12:44:10</time>
      </trkpt>
      <trkpt lat="45.355" lon="6.15234">
        <ele>1461.0204</ele>
        <time>2021-07-18T12:44:11</time>
      </trkpt>
      <trkpt lat="45.35501" lon="6.15236">
        <ele>1461.0204</ele>
        <time>2021-07-18T12:44:13</time>
      </trkpt>
      <trkpt lat="45.35502" lon="6.15237">
        <ele>1461.0204</ele>
        <time>2021-07-18T12:44:14</time>
      </trkpt>
      <trkpt lat="45.35502" lon="6.15237">
        <ele>1461.0204</ele>
        <time>2021-07-18T12:44:15</time>
      </trkpt>
      <trkpt lat="45.35503" lon="6.15237">
        <ele>1461.0204</ele>
        <time>2021-07-18T12:44:16</time>
      </trkpt>
      <trkpt lat="45.35503" lon="6.15237">
        <ele>1461.0204</ele>
        <time>2021-07-18T12:44:17</time>
      </trkpt>
      <trkpt lat="45.35514" lon="6.15242">
        <ele>1467.8204</ele>
        <time>2021-07-18T12:44:47</time>
      </trkpt>
      <trkpt lat="45.35514" lon="6.15243">
        <ele>1472.7205</ele>
        <time>2021-07-18T12:44:51</time>
      </trkpt>
      <trkpt lat="45.35514" lon="6.15243">
        <ele>1472.7205</ele>
        <time>2021-07-18T12:44:52</time>
      </trkpt>
      <trkpt lat="45.35513" lon="6.15243">
        <ele>1472.7205</ele>
        <time>2021-07-18T12:44:54</time>
      </trkpt>
      <trkpt lat="45.35513" lon="6.15244">
        <ele>1472.7205</ele>
        <time>2021-07-18T12:44:55</time>
      </trkpt>
      <trkpt lat="45.35513" lon="6.15244">
        <ele>1472.7205</ele>
        <time>2021-07-18T12:44:57</time>
      </trkpt>
      <trkpt lat="45.35513" lon="6.15244">
        <ele>1472.7205</ele>
        <time>2021-07-18T12:44:59</time>
      </trkpt>
      <trkpt lat="45.35513" lon="6.15245">
        <ele>1472.7205</ele>
        <time>2021-07-18T12:45:00</time>
      </trkpt>
      <trkpt lat="45.35513" lon="6.15246">
        <ele>1472.8538</ele>
        <time>2021-07-18T12:45:02</time>
      </trkpt>
      <trkpt lat="45.35512" lon="6.15247">
        <ele>1472.8538</ele>
        <time>2021-07-18T12:45:03</time>
      </trkpt>
      <trkpt lat="45.35511" lon="6.1525">
        <ele>1472.8538</ele>
        <time>2021-07-18T12:45:05</time>
      </trkpt>
      <trkpt lat="45.35511" lon="6.1525">
        <ele>1472.5204</ele>
        <time>2021-07-18T12:45:16</time>
      </trkpt>
      <trkpt lat="45.3551" lon="6.1525">
        <ele>1473.1205</ele>
        <time>2021-07-18T12:45:21</time>
      </trkpt>
      <trkpt lat="45.3551" lon="6.1525">
        <ele>1473.1205</ele>
        <time>2021-07-18T12:45:24</time>
      </trkpt>
      <trkpt lat="45.3551" lon="6.1525">
        <ele>1473.1205</ele>
        <time>2021-07-18T12:45:25</time>
      </trkpt>
      <trkpt lat="45.3551" lon="6.15251">
        <ele>1473.1205</ele>
        <time>2021-07-18T12:45:26</time>
      </trkpt>
      <trkpt lat="45.35509" lon="6.15251">
        <ele>1473.1205</ele>
        <time>2021-07-18T12:45:27</time>
      </trkpt>
      <trkpt lat="45.35509" lon="6.15252">
        <ele>1473.1205</ele>
        <time>2021-07-18T12:45:28</time>
      </trkpt>
      <trkpt lat="45.35509" lon="6.15253">
        <ele>1473.1205</ele>
        <time>2021-07-18T12:45:29</time>
      </trkpt>
      <trkpt lat="45.35509" lon="6.15254">
        <ele>1477.1205</ele>
        <time>2021-07-18T12:45:32</time>
      </trkpt>
      <trkpt lat="45.35507" lon="6.15255">
        <ele>1477.1205</ele>
        <time>2021-07-18T12:45:35</time>
      </trkpt>
      <trkpt lat="45.35506" lon="6.15256">
        <ele>1477.1205</ele>
        <time>2021-07-18T12:45:39</time>
      </trkpt>
      <trkpt lat="45.35507" lon="6.15255">
        <ele>1479.5204</ele>
        <time>2021-07-18T12:45:41</time>
      </trkpt>
      <trkpt lat="45.35507" lon="6.15255">
        <ele>1479.5204</ele>
        <time>2021-07-18T12:45:43</time>
      </trkpt>
      <trkpt lat="45.35506" lon="6.15256">
        <ele>1479.5204</ele>
        <time>2021-07-18T12:45:44</time>
      </trkpt>
      <trkpt lat="45.35505" lon="6.15258">
        <ele>1479.5204</ele>
        <time>2021-07-18T12:45:49</time>
      </trkpt>
      <trkpt lat="45.35504" lon="6.15259">
        <ele>1479.5204</ele>
        <time>2021-07-18T12:45:50</time>
      </trkpt>
      <trkpt lat="45.35502" lon="6.15259">
        <ele>1478.9204</ele>
        <time>2021-07-18T12:45:56</time>
      </trkpt>
      <trkpt lat="45.35501" lon="6.15258">
        <ele>1478.9204</ele>
        <time>2021-07-18T12:45:57</time>
      </trkpt>
      <trkpt lat="45.355" lon="6.15257">
        <ele>1478.9204</ele>
        <time>2021-07-18T12:45:59</time>
      </trkpt>
      <trkpt lat="45.35498" lon="6.15255">
        <ele>1478.8204</ele>
        <time>2021-07-18T12:46:01</time>
      </trkpt>
      <trkpt lat="45.35498" lon="6.15254">
        <ele>1478.8204</ele>
        <time>2021-07-18T12:46:03</time>
      </trkpt>
      <trkpt lat="45.35497" lon="6.15253">
        <ele>1478.8204</ele>
        <time>2021-07-18T12:46:05</time>
      </trkpt>
      <trkpt lat="45.35497" lon="6.15253">
        <ele>1480.1205</ele>
        <time>2021-07-18T12:46:12</time>
      </trkpt>
      <trkpt lat="45.35497" lon="6.15253">
        <ele>1480.1205</ele>
        <time>2021-07-18T12:46:13</time>
      </trkpt>
      <trkpt lat="45.35494" lon="6.15252">
        <ele>1480.1205</ele>
        <time>2021-07-18T12:46:17</time>
      </trkpt>
      <trkpt lat="45.35492" lon="6.15251">
        <ele>1480.1205</ele>
        <time>2021-07-18T12:46:18</time>
      </trkpt>
      <trkpt lat="45.3549" lon="6.1525">
        <ele>1480.1205</ele>
        <time>2021-07-18T12:46:20</time>
      </trkpt>
      <trkpt lat="45.3549" lon="6.15252">
        <ele>1480.4204</ele>
        <time>2021-07-18T12:46:22</time>
      </trkpt>
      <trkpt lat="45.3549" lon="6.15254">
        <ele>1480.4204</ele>
        <time>2021-07-18T12:46:25</time>
      </trkpt>
      <trkpt lat="45.35488" lon="6.15255">
        <ele>1480.4204</ele>
        <time>2021-07-18T12:46:27</time>
      </trkpt>
      <trkpt lat="45.35488" lon="6.15256">
        <ele>1480.4204</ele>
        <time>2021-07-18T12:46:29</time>
      </trkpt>
      <trkpt lat="45.35488" lon="6.15257">
        <ele>1480.4204</ele>
        <time>2021-07-18T12:46:32</time>
      </trkpt>
      <trkpt lat="45.35488" lon="6.15257">
        <ele>1480.4204</ele>
        <time>2021-07-18T12:46:33</time>
      </trkpt>
      <trkpt lat="45.35487" lon="6.15256">
        <ele>1480.4204</ele>
        <time>2021-07-18T12:46:34</time>
      </trkpt>
      <trkpt lat="45.35485" lon="6.15254">
        <ele>1479.2205</ele>
        <time>2021-07-18T12:46:43</time>
      </trkpt>
      <trkpt lat="45.35485" lon="6.15255">
        <ele>1479.2205</ele>
        <time>2021-07-18T12:46:44</time>
      </trkpt>
      <trkpt lat="45.35484" lon="6.15256">
        <ele>1479.2205</ele>
        <time>2021-07-18T12:46:45</time>
      </trkpt>
      <trkpt lat="45.35483" lon="6.15257">
        <ele>1479.2205</ele>
        <time>2021-07-18T12:46:47</time>
      </trkpt>
      <trkpt lat="45.35482" lon="6.15259">
        <ele>1479.7205</ele>
        <time>2021-07-18T12:47:00</time>
      </trkpt>
      <trkpt lat="45.35482" lon="6.15259">
        <ele>1480.487</ele>
        <time>2021-07-18T12:47:01</time>
      </trkpt>
      <trkpt lat="45.35482" lon="6.15258">
        <ele>1480.487</ele>
        <time>2021-07-18T12:47:02</time>
      </trkpt>
      <trkpt lat="45.3548" lon="6.15254">
        <ele>1480.6205</ele>
        <time>2021-07-18T12:47:12</time>
      </trkpt>
      <trkpt lat="45.35478" lon="6.15251">
        <ele>1480.6205</ele>
        <time>2021-07-18T12:47:15</time>
      </trkpt>
      <trkpt lat="45.35477" lon="6.1525">
        <ele>1480.6205</ele>
        <time>2021-07-18T12:47:16</time>
      </trkpt>
      <trkpt lat="45.35476" lon="6.1525">
        <ele>1480.6205</ele>
        <time>2021-07-18T12:47:17</time>
      </trkpt>
      <trkpt lat="45.35475" lon="6.15249">
        <ele>1480.6205</ele>
        <time>2021-07-18T12:47:18</time>
      </trkpt>
      <trkpt lat="45.35474" lon="6.15249">
        <ele>1480.6205</ele>
        <time>2021-07-18T12:47:20</time>
      </trkpt>
      <trkpt lat="45.35471" lon="6.15246">
        <ele>1483.0204</ele>
        <time>2021-07-18T12:47:26</time>
      </trkpt>
      <trkpt lat="45.35469" lon="6.15245">
        <ele>1483.0204</ele>
        <time>2021-07-18T12:47:27</time>
      </trkpt>
      <trkpt lat="45.35468" lon="6.15243">
        <ele>1483.0204</ele>
        <time>2021-07-18T12:47:29</time>
      </trkpt>
      <trkpt lat="45.35465" lon="6.15242">
        <ele>1483.1205</ele>
        <time>2021-07-18T12:47:32</time>
      </trkpt>
      <trkpt lat="45.35465" lon="6.15242">
        <ele>1483.1205</ele>
        <time>2021-07-18T12:47:35</time>
      </trkpt>
      <trkpt lat="45.35463" lon="6.1524">
        <ele>1483.2205</ele>
        <time>2021-07-18T12:47:56</time>
      </trkpt>
      <trkpt lat="45.35462" lon="6.15239">
        <ele>1483.2205</ele>
        <time>2021-07-18T12:47:59</time>
      </trkpt>
      <trkpt lat="45.35453" lon="6.15235">
        <ele>1483.4204</ele>
        <time>2021-07-18T12:48:05</time>
      </trkpt>
      <trkpt lat="45.35451" lon="6.15234">
        <ele>1483.4204</ele>
        <time>2021-07-18T12:48:07</time>
      </trkpt>
      <trkpt lat="45.3545" lon="6.15233">
        <ele>1483.4204</ele>
        <time>2021-07-18T12:48:08</time>
      </trkpt>
      <trkpt lat="45.3545" lon="6.15233">
        <ele>1483.4204</ele>
        <time>2021-07-18T12:48:09</time>
      </trkpt>
      <trkpt lat="45.3545" lon="6.15233">
        <ele>1483.4204</ele>
        <time>2021-07-18T12:48:10</time>
      </trkpt>
      <trkpt lat="45.35449" lon="6.15232">
        <ele>1485.3204</ele>
        <time>2021-07-18T12:48:12</time>
      </trkpt>
      <trkpt lat="45.35449" lon="6.15231">
        <ele>1485.3204</ele>
        <time>2021-07-18T12:48:13</time>
      </trkpt>
      <trkpt lat="45.35448" lon="6.1523">
        <ele>1485.3204</ele>
        <time>2021-07-18T12:48:14</time>
      </trkpt>
      <trkpt lat="45.35448" lon="6.1523">
        <ele>1485.3204</ele>
        <time>2021-07-18T12:48:15</time>
      </trkpt>
      <trkpt lat="45.35448" lon="6.15229">
        <ele>1485.3204</ele>
        <time>2021-07-18T12:48:16</time>
      </trkpt>
      <trkpt lat="45.35446" lon="6.15227">
        <ele>1485.3204</ele>
        <time>2021-07-18T12:48:18</time>
      </trkpt>
      <trkpt lat="45.35445" lon="6.15226">
        <ele>1485.3204</ele>
        <time>2021-07-18T12:48:19</time>
      </trkpt>
      <trkpt lat="45.35445" lon="6.15223">
        <ele>1485.3204</ele>
        <time>2021-07-18T12:48:20</time>
      </trkpt>
      <trkpt lat="45.35445" lon="6.1522">
        <ele>1487.1538</ele>
        <time>2021-07-18T12:48:59</time>
      </trkpt>
      <trkpt lat="45.35445" lon="6.15219">
        <ele>1489.5204</ele>
        <time>2021-07-18T12:50:54</time>
      </trkpt>
      <trkpt lat="45.35445" lon="6.15219">
        <ele>1489.5204</ele>
        <time>2021-07-18T12:51:07</time>
      </trkpt>
      <trkpt lat="45.35445" lon="6.15218">
        <ele>1489.5204</ele>
        <time>2021-07-18T12:51:08</time>
      </trkpt>
      <trkpt lat="45.35446" lon="6.15218">
        <ele>1489.5204</ele>
        <time>2021-07-18T12:51:09</time>
      </trkpt>
      <trkpt lat="45.35446" lon="6.15214">
        <ele>1495.1205</ele>
        <time>2021-07-18T12:51:57</time>
      </trkpt>
      <trkpt lat="45.35445" lon="6.15214">
        <ele>1495.1205</ele>
        <time>2021-07-18T12:51:58</time>
      </trkpt>
      <trkpt lat="45.35444" lon="6.15214">
        <ele>1495.1205</ele>
        <time>2021-07-18T12:51:59</time>
      </trkpt>
      <trkpt lat="45.35439" lon="6.15213">
        <ele>1495.1205</ele>
        <time>2021-07-18T12:52:05</time>
      </trkpt>
      <trkpt lat="45.35438" lon="6.15214">
        <ele>1495.1205</ele>
        <time>2021-07-18T12:52:06</time>
      </trkpt>
      <trkpt lat="45.35434" lon="6.15216">
        <ele>1494.4204</ele>
        <time>2021-07-18T12:52:14</time>
      </trkpt>
      <trkpt lat="45.35434" lon="6.15216">
        <ele>1494.4204</ele>
        <time>2021-07-18T12:52:20</time>
      </trkpt>
      <trkpt lat="45.35433" lon="6.15215">
        <ele>1489.8204</ele>
        <time>2021-07-18T12:52:21</time>
      </trkpt>
      <trkpt lat="45.3543" lon="6.15214">
        <ele>1489.8204</ele>
        <time>2021-07-18T12:52:24</time>
      </trkpt>
      <trkpt lat="45.35429" lon="6.15213">
        <ele>1489.8204</ele>
        <time>2021-07-18T12:52:25</time>
      </trkpt>
      <trkpt lat="45.35428" lon="6.15212">
        <ele>1489.8204</ele>
        <time>2021-07-18T12:52:26</time>
      </trkpt>
      <trkpt lat="45.35427" lon="6.15211">
        <ele>1489.8204</ele>
        <time>2021-07-18T12:52:27</time>
      </trkpt>
      <trkpt lat="45.35426" lon="6.1521">
        <ele>1489.8204</ele>
        <time>2021-07-18T12:52:28</time>
      </trkpt>
      <trkpt lat="45.35425" lon="6.1521">
        <ele>1489.8204</ele>
        <time>2021-07-18T12:52:29</time>
      </trkpt>
      <trkpt lat="45.35422" lon="6.1521">
        <ele>1491.0204</ele>
        <time>2021-07-18T12:52:31</time>
      </trkpt>
      <trkpt lat="45.35421" lon="6.15209">
        <ele>1491.0204</ele>
        <time>2021-07-18T12:52:33</time>
      </trkpt>
      <trkpt lat="45.3542" lon="6.15209">
        <ele>1491.0204</ele>
        <time>2021-07-18T12:52:36</time>
      </trkpt>
      <trkpt lat="45.35419" lon="6.1521">
        <ele>1491.0204</ele>
        <time>2021-07-18T12:52:37</time>
      </trkpt>
      <trkpt lat="45.35417" lon="6.15211">
        <ele>1491.0204</ele>
        <time>2021-07-18T12:52:39</time>
      </trkpt>
      <trkpt lat="45.35416" lon="6.15211">
        <ele>1493.3204</ele>
        <time>2021-07-18T12:52:41</time>
      </trkpt>
      <trkpt lat="45.35415" lon="6.15212">
        <ele>1493.3204</ele>
        <time>2021-07-18T12:52:43</time>
      </trkpt>
      <trkpt lat="45.35406" lon="6.15223">
        <ele>1491.3204</ele>
        <time>2021-07-18T12:52:56</time>
      </trkpt>
      <trkpt lat="45.35405" lon="6.15224">
        <ele>1491.3204</ele>
        <time>2021-07-18T12:52:58</time>
      </trkpt>
      <trkpt lat="45.35404" lon="6.15224">
        <ele>1488.4204</ele>
        <time>2021-07-18T12:53:02</time>
      </trkpt>
      <trkpt lat="45.35403" lon="6.15225">
        <ele>1488.4204</ele>
        <time>2021-07-18T12:53:08</time>
      </trkpt>
      <trkpt lat="45.35403" lon="6.15228">
        <ele>1488.4204</ele>
        <time>2021-07-18T12:53:10</time>
      </trkpt>
      <trkpt lat="45.35404" lon="6.1523">
        <ele>1491.8538</ele>
        <time>2021-07-18T12:53:12</time>
      </trkpt>
      <trkpt lat="45.35403" lon="6.15231">
        <ele>1491.8538</ele>
        <time>2021-07-18T12:53:14</time>
      </trkpt>
      <trkpt lat="45.35403" lon="6.15232">
        <ele>1491.8538</ele>
        <time>2021-07-18T12:53:16</time>
      </trkpt>
      <trkpt lat="45.35402" lon="6.15232">
        <ele>1491.8538</ele>
        <time>2021-07-18T12:53:17</time>
      </trkpt>
      <trkpt lat="45.354" lon="6.15232">
        <ele>1491.8538</ele>
        <time>2021-07-18T12:53:19</time>
      </trkpt>
      <trkpt lat="45.35396" lon="6.15232">
        <ele>1495.7205</ele>
        <time>2021-07-18T12:53:34</time>
      </trkpt>
      <trkpt lat="45.35394" lon="6.15235">
        <ele>1495.7205</ele>
        <time>2021-07-18T12:53:38</time>
      </trkpt>
      <trkpt lat="45.35394" lon="6.15237">
        <ele>1495.7205</ele>
        <time>2021-07-18T12:53:39</time>
      </trkpt>
      <trkpt lat="45.35394" lon="6.15239">
        <ele>1495.7205</ele>
        <time>2021-07-18T12:53:40</time>
      </trkpt>
      <trkpt lat="45.35394" lon="6.15241">
        <ele>1496.1205</ele>
        <time>2021-07-18T12:53:41</time>
      </trkpt>
      <trkpt lat="45.35395" lon="6.15244">
        <ele>1496.1205</ele>
        <time>2021-07-18T12:53:42</time>
      </trkpt>
      <trkpt lat="45.35396" lon="6.15247">
        <ele>1496.1205</ele>
        <time>2021-07-18T12:53:44</time>
      </trkpt>
      <trkpt lat="45.35395" lon="6.15249">
        <ele>1496.1205</ele>
        <time>2021-07-18T12:53:45</time>
      </trkpt>
      <trkpt lat="45.35395" lon="6.1525">
        <ele>1496.1205</ele>
        <time>2021-07-18T12:53:46</time>
      </trkpt>
      <trkpt lat="45.35394" lon="6.15251">
        <ele>1496.1205</ele>
        <time>2021-07-18T12:53:47</time>
      </trkpt>
      <trkpt lat="45.35394" lon="6.15252">
        <ele>1496.1205</ele>
        <time>2021-07-18T12:53:48</time>
      </trkpt>
      <trkpt lat="45.35393" lon="6.15252">
        <ele>1496.1205</ele>
        <time>2021-07-18T12:53:49</time>
      </trkpt>
      <trkpt lat="45.35392" lon="6.15253">
        <ele>1496.1205</ele>
        <time>2021-07-18T12:53:50</time>
      </trkpt>
      <trkpt lat="45.35383" lon="6.15259">
        <ele>1487.9204</ele>
        <time>2021-07-18T12:54:01</time>
      </trkpt>
      <trkpt lat="45.35382" lon="6.15259">
        <ele>1487.9204</ele>
        <time>2021-07-18T12:54:02</time>
      </trkpt>
      <trkpt lat="45.35382" lon="6.1526">
        <ele>1487.9204</ele>
        <time>2021-07-18T12:54:04</time>
      </trkpt>
      <trkpt lat="45.3538" lon="6.15261">
        <ele>1487.9204</ele>
        <time>2021-07-18T12:54:09</time>
      </trkpt>
      <trkpt lat="45.3538" lon="6.15261">
        <ele>1487.9204</ele>
        <time>2021-07-18T12:54:10</time>
      </trkpt>
      <trkpt lat="45.35377" lon="6.15262">
        <ele>1486.2205</ele>
        <time>2021-07-18T12:54:15</time>
      </trkpt>
      <trkpt lat="45.35376" lon="6.15262">
        <ele>1486.2205</ele>
        <time>2021-07-18T12:54:17</time>
      </trkpt>
      <trkpt lat="45.35374" lon="6.15262">
        <ele>1486.2205</ele>
        <time>2021-07-18T12:54:20</time>
      </trkpt>
      <trkpt lat="45.35373" lon="6.15262">
        <ele>1490.1205</ele>
        <time>2021-07-18T12:54:24</time>
      </trkpt>
      <trkpt lat="45.35373" lon="6.15263">
        <ele>1490.1205</ele>
        <time>2021-07-18T12:54:25</time>
      </trkpt>
      <trkpt lat="45.35373" lon="6.15264">
        <ele>1490.1205</ele>
        <time>2021-07-18T12:54:26</time>
      </trkpt>
      <trkpt lat="45.35372" lon="6.15265">
        <ele>1490.1205</ele>
        <time>2021-07-18T12:54:27</time>
      </trkpt>
      <trkpt lat="45.3537" lon="6.15265">
        <ele>1490.1205</ele>
        <time>2021-07-18T12:54:29</time>
      </trkpt>
      <trkpt lat="45.35369" lon="6.15264">
        <ele>1494.7205</ele>
        <time>2021-07-18T12:54:42</time>
      </trkpt>
      <trkpt lat="45.35369" lon="6.15263">
        <ele>1494.7205</ele>
        <time>2021-07-18T12:54:43</time>
      </trkpt>
      <trkpt lat="45.35369" lon="6.15264">
        <ele>1494.7205</ele>
        <time>2021-07-18T12:54:44</time>
      </trkpt>
      <trkpt lat="45.3537" lon="6.15264">
        <ele>1494.7205</ele>
        <time>2021-07-18T12:54:45</time>
      </trkpt>
      <trkpt lat="45.3537" lon="6.15264">
        <ele>1494.7205</ele>
        <time>2021-07-18T12:54:48</time>
      </trkpt>
      <trkpt lat="45.3537" lon="6.15265">
        <ele>1494.7205</ele>
        <time>2021-07-18T12:54:49</time>
      </trkpt>
      <trkpt lat="45.35371" lon="6.15268">
        <ele>1502.1205</ele>
        <time>2021-07-18T12:55:10</time>
      </trkpt>
      <trkpt lat="45.35372" lon="6.1527">
        <ele>1503.8204</ele>
        <time>2021-07-18T12:55:12</time>
      </trkpt>
      <trkpt lat="45.3537" lon="6.1527">
        <ele>1503.8204</ele>
        <time>2021-07-18T12:55:16</time>
      </trkpt>
      <trkpt lat="45.3537" lon="6.1527">
        <ele>1503.8204</ele>
        <time>2021-07-18T12:55:17</time>
      </trkpt>
      <trkpt lat="45.3537" lon="6.15272">
        <ele>1502.9204</ele>
        <time>2021-07-18T12:55:23</time>
      </trkpt>
      <trkpt lat="45.35371" lon="6.15273">
        <ele>1502.9204</ele>
        <time>2021-07-18T12:55:27</time>
      </trkpt>
      <trkpt lat="45.3537" lon="6.15274">
        <ele>1502.9204</ele>
        <time>2021-07-18T12:55:28</time>
      </trkpt>
      <trkpt lat="45.3537" lon="6.15274">
        <ele>1502.9204</ele>
        <time>2021-07-18T12:55:29</time>
      </trkpt>
      <trkpt lat="45.3537" lon="6.15275">
        <ele>1502.3204</ele>
        <time>2021-07-18T12:55:36</time>
      </trkpt>
      <trkpt lat="45.35369" lon="6.15276">
        <ele>1502.3204</ele>
        <time>2021-07-18T12:55:37</time>
      </trkpt>
      <trkpt lat="45.35369" lon="6.15276">
        <ele>1502.3204</ele>
        <time>2021-07-18T12:55:38</time>
      </trkpt>
      <trkpt lat="45.35369" lon="6.15277">
        <ele>1502.3204</ele>
        <time>2021-07-18T12:55:39</time>
      </trkpt>
      <trkpt lat="45.35368" lon="6.15277">
        <ele>1502.3204</ele>
        <time>2021-07-18T12:55:40</time>
      </trkpt>
      <trkpt lat="45.35368" lon="6.15279">
        <ele>1503.7205</ele>
        <time>2021-07-18T12:55:46</time>
      </trkpt>
      <trkpt lat="45.35367" lon="6.15279">
        <ele>1503.7205</ele>
        <time>2021-07-18T12:55:47</time>
      </trkpt>
      <trkpt lat="45.35367" lon="6.1528">
        <ele>1503.7205</ele>
        <time>2021-07-18T12:55:48</time>
      </trkpt>
      <trkpt lat="45.35367" lon="6.15283">
        <ele>1503.9204</ele>
        <time>2021-07-18T12:55:52</time>
      </trkpt>
      <trkpt lat="45.35367" lon="6.15283">
        <ele>1503.9204</ele>
        <time>2021-07-18T12:55:53</time>
      </trkpt>
      <trkpt lat="45.35366" lon="6.15284">
        <ele>1503.9204</ele>
        <time>2021-07-18T12:55:54</time>
      </trkpt>
      <trkpt lat="45.35365" lon="6.15286">
        <ele>1503.9204</ele>
        <time>2021-07-18T12:55:57</time>
      </trkpt>
      <trkpt lat="45.35364" lon="6.15287">
        <ele>1503.9204</ele>
        <time>2021-07-18T12:56:04</time>
      </trkpt>
      <trkpt lat="45.35363" lon="6.15287">
        <ele>1503.9204</ele>
        <time>2021-07-18T12:56:05</time>
      </trkpt>
      <trkpt lat="45.35359" lon="6.15287">
        <ele>1503.9204</ele>
        <time>2021-07-18T12:56:09</time>
      </trkpt>
      <trkpt lat="45.35359" lon="6.15288">
        <ele>1506.6205</ele>
        <time>2021-07-18T12:56:11</time>
      </trkpt>
      <trkpt lat="45.35356" lon="6.15288">
        <ele>1506.6205</ele>
        <time>2021-07-18T12:56:14</time>
      </trkpt>
      <trkpt lat="45.35354" lon="6.15289">
        <ele>1506.6205</ele>
        <time>2021-07-18T12:56:18</time>
      </trkpt>
      <trkpt lat="45.35352" lon="6.15292">
        <ele>1508.9204</ele>
        <time>2021-07-18T12:56:23</time>
      </trkpt>
      <trkpt lat="45.35351" lon="6.15293">
        <ele>1508.9204</ele>
        <time>2021-07-18T12:56:24</time>
      </trkpt>
      <trkpt lat="45.3535" lon="6.15293">
        <ele>1508.9204</ele>
        <time>2021-07-18T12:56:25</time>
      </trkpt>
      <trkpt lat="45.35347" lon="6.15295">
        <ele>1512.2205</ele>
        <time>2021-07-18T12:56:31</time>
      </trkpt>
      <trkpt lat="45.35347" lon="6.15296">
        <ele>1512.2205</ele>
        <time>2021-07-18T12:56:33</time>
      </trkpt>
      <trkpt lat="45.35346" lon="6.15296">
        <ele>1512.2205</ele>
        <time>2021-07-18T12:56:34</time>
      </trkpt>
      <trkpt lat="45.3534" lon="6.153">
        <ele>1512.2205</ele>
        <time>2021-07-18T12:56:44</time>
      </trkpt>
      <trkpt lat="45.35339" lon="6.153">
        <ele>1512.2205</ele>
        <time>2021-07-18T12:56:45</time>
      </trkpt>
      <trkpt lat="45.35339" lon="6.153">
        <ele>1512.2205</ele>
        <time>2021-07-18T12:56:46</time>
      </trkpt>
      <trkpt lat="45.35338" lon="6.153">
        <ele>1512.2205</ele>
        <time>2021-07-18T12:56:47</time>
      </trkpt>
      <trkpt lat="45.35338" lon="6.15299">
        <ele>1512.2205</ele>
        <time>2021-07-18T12:56:49</time>
      </trkpt>
      <trkpt lat="45.35336" lon="6.15297">
        <ele>1507.2205</ele>
        <time>2021-07-18T12:56:59</time>
      </trkpt>
      <trkpt lat="45.35332" lon="6.15298">
        <ele>1510.1205</ele>
        <time>2021-07-18T12:57:02</time>
      </trkpt>
      <trkpt lat="45.35332" lon="6.15298">
        <ele>1510.1205</ele>
        <time>2021-07-18T12:57:03</time>
      </trkpt>
      <trkpt lat="45.3533" lon="6.15299">
        <ele>1510.1205</ele>
        <time>2021-07-18T12:57:06</time>
      </trkpt>
      <trkpt lat="45.35329" lon="6.15299">
        <ele>1510.1205</ele>
        <time>2021-07-18T12:57:07</time>
      </trkpt>
      <trkpt lat="45.35327" lon="6.153">
        <ele>1510.1205</ele>
        <time>2021-07-18T12:57:09</time>
      </trkpt>
      <trkpt lat="45.35326" lon="6.153">
        <ele>1510.1205</ele>
        <time>2021-07-18T12:57:10</time>
      </trkpt>
      <trkpt lat="45.35323" lon="6.15302">
        <ele>1507.8204</ele>
        <time>2021-07-18T12:57:18</time>
      </trkpt>
      <trkpt lat="45.35322" lon="6.15303">
        <ele>1507.8204</ele>
        <time>2021-07-18T12:57:20</time>
      </trkpt>
      <trkpt lat="45.35321" lon="6.15303">
        <ele>1506.8204</ele>
        <time>2021-07-18T12:57:21</time>
      </trkpt>
      <trkpt lat="45.3532" lon="6.15303">
        <ele>1506.8204</ele>
        <time>2021-07-18T12:57:23</time>
      </trkpt>
      <trkpt lat="45.3532" lon="6.15303">
        <ele>1506.8204</ele>
        <time>2021-07-18T12:57:24</time>
      </trkpt>
      <trkpt lat="45.35319" lon="6.15303">
        <ele>1506.8204</ele>
        <time>2021-07-18T12:57:25</time>
      </trkpt>
      <trkpt lat="45.35316" lon="6.15303">
        <ele>1506.8204</ele>
        <time>2021-07-18T12:57:27</time>
      </trkpt>
      <trkpt lat="45.35312" lon="6.15303">
        <ele>1506.8204</ele>
        <time>2021-07-18T12:57:29</time>
      </trkpt>
      <trkpt lat="45.35311" lon="6.15305">
        <ele>1506.8204</ele>
        <time>2021-07-18T12:57:31</time>
      </trkpt>
      <trkpt lat="45.3531" lon="6.15306">
        <ele>1506.8204</ele>
        <time>2021-07-18T12:57:32</time>
      </trkpt>
      <trkpt lat="45.35309" lon="6.15306">
        <ele>1506.8204</ele>
        <time>2021-07-18T12:57:33</time>
      </trkpt>
      <trkpt lat="45.35309" lon="6.15307">
        <ele>1506.8204</ele>
        <time>2021-07-18T12:57:34</time>
      </trkpt>
      <trkpt lat="45.35307" lon="6.15306">
        <ele>1506.8204</ele>
        <time>2021-07-18T12:57:38</time>
      </trkpt>
      <trkpt lat="45.35306" lon="6.15307">
        <ele>1506.8204</ele>
        <time>2021-07-18T12:57:39</time>
      </trkpt>
      <trkpt lat="45.35305" lon="6.15307">
        <ele>1506.8204</ele>
        <time>2021-07-18T12:57:40</time>
      </trkpt>
      <trkpt lat="45.35304" lon="6.15306">
        <ele>1519.2205</ele>
        <time>2021-07-18T12:57:41</time>
      </trkpt>
      <trkpt lat="45.35304" lon="6.15306">
        <ele>1519.2205</ele>
        <time>2021-07-18T12:57:42</time>
      </trkpt>
      <trkpt lat="45.35304" lon="6.15307">
        <ele>1519.2205</ele>
        <time>2021-07-18T12:57:43</time>
      </trkpt>
      <trkpt lat="45.35303" lon="6.15307">
        <ele>1519.2205</ele>
        <time>2021-07-18T12:57:44</time>
      </trkpt>
      <trkpt lat="45.35304" lon="6.15309">
        <ele>1519.2205</ele>
        <time>2021-07-18T12:57:45</time>
      </trkpt>
      <trkpt lat="45.35303" lon="6.1531">
        <ele>1519.2205</ele>
        <time>2021-07-18T12:57:49</time>
      </trkpt>
      <trkpt lat="45.35297" lon="6.15313">
        <ele>1520.6871</ele>
        <time>2021-07-18T12:58:00</time>
      </trkpt>
      <trkpt lat="45.35293" lon="6.15314">
        <ele>1520.1205</ele>
        <time>2021-07-18T12:58:06</time>
      </trkpt>
      <trkpt lat="45.35292" lon="6.15315">
        <ele>1520.1205</ele>
        <time>2021-07-18T12:58:09</time>
      </trkpt>
      <trkpt lat="45.35291" lon="6.15315">
        <ele>1520.1205</ele>
        <time>2021-07-18T12:58:10</time>
      </trkpt>
      <trkpt lat="45.35289" lon="6.15317">
        <ele>1514.9204</ele>
        <time>2021-07-18T12:58:29</time>
      </trkpt>
      <trkpt lat="45.35288" lon="6.15318">
        <ele>1514.9204</ele>
        <time>2021-07-18T12:58:30</time>
      </trkpt>
      <trkpt lat="45.35287" lon="6.1532">
        <ele>1519.0204</ele>
        <time>2021-07-18T12:58:31</time>
      </trkpt>
      <trkpt lat="45.35286" lon="6.15321">
        <ele>1519.0204</ele>
        <time>2021-07-18T12:58:32</time>
      </trkpt>
      <trkpt lat="45.35286" lon="6.15322">
        <ele>1519.0204</ele>
        <time>2021-07-18T12:58:33</time>
      </trkpt>
      <trkpt lat="45.35285" lon="6.15323">
        <ele>1519.0204</ele>
        <time>2021-07-18T12:58:34</time>
      </trkpt>
      <trkpt lat="45.35284" lon="6.15324">
        <ele>1519.0204</ele>
        <time>2021-07-18T12:58:35</time>
      </trkpt>
      <trkpt lat="45.35283" lon="6.15324">
        <ele>1519.0204</ele>
        <time>2021-07-18T12:58:36</time>
      </trkpt>
      <trkpt lat="45.35281" lon="6.15325">
        <ele>1519.0204</ele>
        <time>2021-07-18T12:58:37</time>
      </trkpt>
      <trkpt lat="45.35279" lon="6.15326">
        <ele>1519.0204</ele>
        <time>2021-07-18T12:58:39</time>
      </trkpt>
      <trkpt lat="45.35279" lon="6.15326">
        <ele>1519.0204</ele>
        <time>2021-07-18T12:58:40</time>
      </trkpt>
      <trkpt lat="45.35278" lon="6.15327">
        <ele>1513.3204</ele>
        <time>2021-07-18T12:58:41</time>
      </trkpt>
      <trkpt lat="45.35274" lon="6.15329">
        <ele>1513.3204</ele>
        <time>2021-07-18T12:58:46</time>
      </trkpt>
      <trkpt lat="45.35273" lon="6.15329">
        <ele>1513.3204</ele>
        <time>2021-07-18T12:58:47</time>
      </trkpt>
      <trkpt lat="45.35271" lon="6.15331">
        <ele>1513.3204</ele>
        <time>2021-07-18T12:58:49</time>
      </trkpt>
      <trkpt lat="45.35268" lon="6.15332">
        <ele>1514.1205</ele>
        <time>2021-07-18T12:58:58</time>
      </trkpt>
      <trkpt lat="45.35268" lon="6.15333">
        <ele>1514.1205</ele>
        <time>2021-07-18T12:58:59</time>
      </trkpt>
      <trkpt lat="45.35268" lon="6.15333">
        <ele>1514.1205</ele>
        <time>2021-07-18T12:59:00</time>
      </trkpt>
      <trkpt lat="45.35267" lon="6.15334">
        <ele>1522.1205</ele>
        <time>2021-07-18T12:59:01</time>
      </trkpt>
      <trkpt lat="45.35267" lon="6.15335">
        <ele>1522.1205</ele>
        <time>2021-07-18T12:59:02</time>
      </trkpt>
      <trkpt lat="45.35262" lon="6.1534">
        <ele>1522.1205</ele>
        <time>2021-07-18T12:59:08</time>
      </trkpt>
      <trkpt lat="45.35262" lon="6.1534">
        <ele>1522.1205</ele>
        <time>2021-07-18T12:59:10</time>
      </trkpt>
      <trkpt lat="45.3526" lon="6.15343">
        <ele>1521.0204</ele>
        <time>2021-07-18T12:59:15</time>
      </trkpt>
      <trkpt lat="45.35259" lon="6.15344">
        <ele>1521.0204</ele>
        <time>2021-07-18T12:59:16</time>
      </trkpt>
      <trkpt lat="45.35259" lon="6.15344">
        <ele>1521.0204</ele>
        <time>2021-07-18T12:59:17</time>
      </trkpt>
      <trkpt lat="45.35258" lon="6.15345">
        <ele>1521.0204</ele>
        <time>2021-07-18T12:59:20</time>
      </trkpt>
      <trkpt lat="45.35257" lon="6.15345">
        <ele>1522.8204</ele>
        <time>2021-07-18T12:59:23</time>
      </trkpt>
      <trkpt lat="45.35257" lon="6.15346">
        <ele>1522.8204</ele>
        <time>2021-07-18T12:59:25</time>
      </trkpt>
      <trkpt lat="45.35257" lon="6.15345">
        <ele>1522.8204</ele>
        <time>2021-07-18T12:59:28</time>
      </trkpt>
      <trkpt lat="45.35257" lon="6.15347">
        <ele>1522.8204</ele>
        <time>2021-07-18T12:59:30</time>
      </trkpt>
      <trkpt lat="45.35257" lon="6.15348">
        <ele>1525.4204</ele>
        <time>2021-07-18T12:59:33</time>
      </trkpt>
      <trkpt lat="45.35256" lon="6.15349">
        <ele>1525.4204</ele>
        <time>2021-07-18T12:59:34</time>
      </trkpt>
      <trkpt lat="45.35255" lon="6.15351">
        <ele>1525.4204</ele>
        <time>2021-07-18T12:59:36</time>
      </trkpt>
      <trkpt lat="45.35253" lon="6.15351">
        <ele>1525.4204</ele>
        <time>2021-07-18T12:59:39</time>
      </trkpt>
      <trkpt lat="45.35252" lon="6.1535">
        <ele>1530.3871</ele>
        <time>2021-07-18T12:59:41</time>
      </trkpt>
      <trkpt lat="45.35252" lon="6.15351">
        <ele>1530.3871</ele>
        <time>2021-07-18T12:59:42</time>
      </trkpt>
      <trkpt lat="45.35251" lon="6.15351">
        <ele>1530.3871</ele>
        <time>2021-07-18T12:59:44</time>
      </trkpt>
      <trkpt lat="45.3525" lon="6.15351">
        <ele>1530.3871</ele>
        <time>2021-07-18T12:59:46</time>
      </trkpt>
      <trkpt lat="45.35249" lon="6.15351">
        <ele>1530.3871</ele>
        <time>2021-07-18T12:59:47</time>
      </trkpt>
      <trkpt lat="45.35249" lon="6.15351">
        <ele>1530.3871</ele>
        <time>2021-07-18T12:59:48</time>
      </trkpt>
      <trkpt lat="45.35248" lon="6.15352">
        <ele>1530.3871</ele>
        <time>2021-07-18T12:59:50</time>
      </trkpt>
      <trkpt lat="45.35247" lon="6.15353">
        <ele>1531.7205</ele>
        <time>2021-07-18T12:59:51</time>
      </trkpt>
      <trkpt lat="45.35245" lon="6.15355">
        <ele>1531.7205</ele>
        <time>2021-07-18T12:59:56</time>
      </trkpt>
      <trkpt lat="45.35243" lon="6.15356">
        <ele>1531.7205</ele>
        <time>2021-07-18T12:59:57</time>
      </trkpt>
      <trkpt lat="45.35243" lon="6.15357">
        <ele>1529.5204</ele>
        <time>2021-07-18T13:00:01</time>
      </trkpt>
      <trkpt lat="45.35242" lon="6.15358">
        <ele>1529.5204</ele>
        <time>2021-07-18T13:00:03</time>
      </trkpt>
      <trkpt lat="45.35238" lon="6.15362">
        <ele>1529.5204</ele>
        <time>2021-07-18T13:00:07</time>
      </trkpt>
      <trkpt lat="45.35234" lon="6.1537">
        <ele>1529.5204</ele>
        <time>2021-07-18T13:00:15</time>
      </trkpt>
      <trkpt lat="45.35233" lon="6.15371">
        <ele>1529.5204</ele>
        <time>2021-07-18T13:00:16</time>
      </trkpt>
      <trkpt lat="45.35232" lon="6.15372">
        <ele>1529.5204</ele>
        <time>2021-07-18T13:00:17</time>
      </trkpt>
      <trkpt lat="45.35228" lon="6.15375">
        <ele>1525.0204</ele>
        <time>2021-07-18T13:00:21</time>
      </trkpt>
      <trkpt lat="45.35227" lon="6.15376">
        <ele>1525.0204</ele>
        <time>2021-07-18T13:00:22</time>
      </trkpt>
      <trkpt lat="45.35226" lon="6.15377">
        <ele>1525.0204</ele>
        <time>2021-07-18T13:00:23</time>
      </trkpt>
      <trkpt lat="45.35225" lon="6.15378">
        <ele>1525.0204</ele>
        <time>2021-07-18T13:00:24</time>
      </trkpt>
      <trkpt lat="45.35224" lon="6.15378">
        <ele>1525.0204</ele>
        <time>2021-07-18T13:00:25</time>
      </trkpt>
      <trkpt lat="45.35222" lon="6.1538">
        <ele>1525.0204</ele>
        <time>2021-07-18T13:00:27</time>
      </trkpt>
      <trkpt lat="45.3522" lon="6.15381">
        <ele>1525.0204</ele>
        <time>2021-07-18T13:00:29</time>
      </trkpt>
      <trkpt lat="45.35218" lon="6.15384">
        <ele>1523.3204</ele>
        <time>2021-07-18T13:00:32</time>
      </trkpt>
      <trkpt lat="45.35218" lon="6.15387">
        <ele>1523.3204</ele>
        <time>2021-07-18T13:00:34</time>
      </trkpt>
      <trkpt lat="45.35216" lon="6.15388">
        <ele>1523.3204</ele>
        <time>2021-07-18T13:00:35</time>
      </trkpt>
      <trkpt lat="45.35214" lon="6.1539">
        <ele>1523.3204</ele>
        <time>2021-07-18T13:00:37</time>
      </trkpt>
      <trkpt lat="45.35214" lon="6.15391">
        <ele>1523.3204</ele>
        <time>2021-07-18T13:00:38</time>
      </trkpt>
      <trkpt lat="45.35213" lon="6.15393">
        <ele>1523.3204</ele>
        <time>2021-07-18T13:00:39</time>
      </trkpt>
      <trkpt lat="45.35213" lon="6.15393">
        <ele>1523.3204</ele>
        <time>2021-07-18T13:00:40</time>
      </trkpt>
      <trkpt lat="45.35213" lon="6.15394">
        <ele>1521.0204</ele>
        <time>2021-07-18T13:00:41</time>
      </trkpt>
      <trkpt lat="45.35209" lon="6.15397">
        <ele>1521.0204</ele>
        <time>2021-07-18T13:00:45</time>
      </trkpt>
      <trkpt lat="45.35206" lon="6.15399">
        <ele>1521.0204</ele>
        <time>2021-07-18T13:00:48</time>
      </trkpt>
      <trkpt lat="45.35204" lon="6.154">
        <ele>1520.987</ele>
        <time>2021-07-18T13:00:51</time>
      </trkpt>
      <trkpt lat="45.35204" lon="6.15402">
        <ele>1520.987</ele>
        <time>2021-07-18T13:00:52</time>
      </trkpt>
      <trkpt lat="45.35203" lon="6.15402">
        <ele>1520.987</ele>
        <time>2021-07-18T13:00:53</time>
      </trkpt>
      <trkpt lat="45.35204" lon="6.15403">
        <ele>1520.987</ele>
        <time>2021-07-18T13:00:54</time>
      </trkpt>
      <trkpt lat="45.35204" lon="6.15403">
        <ele>1520.987</ele>
        <time>2021-07-18T13:00:55</time>
      </trkpt>
      <trkpt lat="45.35204" lon="6.15404">
        <ele>1520.987</ele>
        <time>2021-07-18T13:00:56</time>
      </trkpt>
      <trkpt lat="45.35204" lon="6.15404">
        <ele>1520.987</ele>
        <time>2021-07-18T13:00:57</time>
      </trkpt>
      <trkpt lat="45.35204" lon="6.15405">
        <ele>1520.987</ele>
        <time>2021-07-18T13:00:58</time>
      </trkpt>
      <trkpt lat="45.35203" lon="6.15406">
        <ele>1520.987</ele>
        <time>2021-07-18T13:00:59</time>
      </trkpt>
      <trkpt lat="45.35203" lon="6.15407">
        <ele>1520.987</ele>
        <time>2021-07-18T13:01:00</time>
      </trkpt>
      <trkpt lat="45.35201" lon="6.15408">
        <ele>1520.987</ele>
        <time>2021-07-18T13:01:01</time>
      </trkpt>
      <trkpt lat="45.35199" lon="6.15409">
        <ele>1520.987</ele>
        <time>2021-07-18T13:01:04</time>
      </trkpt>
      <trkpt lat="45.35199" lon="6.1541">
        <ele>1520.987</ele>
        <time>2021-07-18T13:01:05</time>
      </trkpt>
      <trkpt lat="45.35199" lon="6.1541">
        <ele>1520.987</ele>
        <time>2021-07-18T13:01:06</time>
      </trkpt>
      <trkpt lat="45.35198" lon="6.15413">
        <ele>1520.987</ele>
        <time>2021-07-18T13:01:08</time>
      </trkpt>
      <trkpt lat="45.35197" lon="6.15413">
        <ele>1520.987</ele>
        <time>2021-07-18T13:01:10</time>
      </trkpt>
      <trkpt lat="45.35197" lon="6.15413">
        <ele>1519.8204</ele>
        <time>2021-07-18T13:01:11</time>
      </trkpt>
      <trkpt lat="45.35193" lon="6.15413">
        <ele>1519.8204</ele>
        <time>2021-07-18T13:01:19</time>
      </trkpt>
      <trkpt lat="45.35192" lon="6.15413">
        <ele>1519.8204</ele>
        <time>2021-07-18T13:01:20</time>
      </trkpt>
      <trkpt lat="45.35187" lon="6.15416">
        <ele>1519.8204</ele>
        <time>2021-07-18T13:01:24</time>
      </trkpt>
      <trkpt lat="45.35186" lon="6.15417">
        <ele>1519.8204</ele>
        <time>2021-07-18T13:01:25</time>
      </trkpt>
      <trkpt lat="45.35181" lon="6.15424">
        <ele>1518.4204</ele>
        <time>2021-07-18T13:01:32</time>
      </trkpt>
      <trkpt lat="45.3518" lon="6.15428">
        <ele>1518.4204</ele>
        <time>2021-07-18T13:01:35</time>
      </trkpt>
      <trkpt lat="45.35178" lon="6.15427">
        <ele>1515.8204</ele>
        <time>2021-07-18T13:02:21</time>
      </trkpt>
      <trkpt lat="45.35178" lon="6.15429">
        <ele>1515.8204</ele>
        <time>2021-07-18T13:02:23</time>
      </trkpt>
      <trkpt lat="45.35178" lon="6.1543">
        <ele>1515.8204</ele>
        <time>2021-07-18T13:02:24</time>
      </trkpt>
      <trkpt lat="45.35178" lon="6.15431">
        <ele>1515.8204</ele>
        <time>2021-07-18T13:02:25</time>
      </trkpt>
      <trkpt lat="45.35179" lon="6.15432">
        <ele>1515.8204</ele>
        <time>2021-07-18T13:02:27</time>
      </trkpt>
      <trkpt lat="45.35179" lon="6.15433">
        <ele>1515.8204</ele>
        <time>2021-07-18T13:02:30</time>
      </trkpt>
      <trkpt lat="45.35176" lon="6.15438">
        <ele>1516.3204</ele>
        <time>2021-07-18T13:02:36</time>
      </trkpt>
      <trkpt lat="45.35175" lon="6.15438">
        <ele>1516.3204</ele>
        <time>2021-07-18T13:02:37</time>
      </trkpt>
      <trkpt lat="45.35173" lon="6.1544">
        <ele>1516.3204</ele>
        <time>2021-07-18T13:02:40</time>
      </trkpt>
      <trkpt lat="45.35172" lon="6.15441">
        <ele>1513.9204</ele>
        <time>2021-07-18T13:02:41</time>
      </trkpt>
      <trkpt lat="45.35171" lon="6.15442">
        <ele>1513.9204</ele>
        <time>2021-07-18T13:02:42</time>
      </trkpt>
      <trkpt lat="45.35171" lon="6.15443">
        <ele>1513.9204</ele>
        <time>2021-07-18T13:02:43</time>
      </trkpt>
      <trkpt lat="45.3517" lon="6.15445">
        <ele>1513.9204</ele>
        <time>2021-07-18T13:02:44</time>
      </trkpt>
      <trkpt lat="45.35169" lon="6.15448">
        <ele>1513.9204</ele>
        <time>2021-07-18T13:02:46</time>
      </trkpt>
      <trkpt lat="45.35158" lon="6.15464">
        <ele>1507.1205</ele>
        <time>2021-07-18T13:03:03</time>
      </trkpt>
      <trkpt lat="45.35156" lon="6.15468">
        <ele>1507.1205</ele>
        <time>2021-07-18T13:03:07</time>
      </trkpt>
      <trkpt lat="45.35153" lon="6.15471">
        <ele>1511.1205</ele>
        <time>2021-07-18T13:03:15</time>
      </trkpt>
      <trkpt lat="45.35151" lon="6.15474">
        <ele>1511.1205</ele>
        <time>2021-07-18T13:03:19</time>
      </trkpt>
      <trkpt lat="45.3515" lon="6.15474">
        <ele>1519.7205</ele>
        <time>2021-07-18T13:03:21</time>
      </trkpt>
      <trkpt lat="45.35149" lon="6.15474">
        <ele>1519.7205</ele>
        <time>2021-07-18T13:03:22</time>
      </trkpt>
      <trkpt lat="45.35147" lon="6.15478">
        <ele>1519.7205</ele>
        <time>2021-07-18T13:03:26</time>
      </trkpt>
      <trkpt lat="45.35142" lon="6.15481">
        <ele>1519.7205</ele>
        <time>2021-07-18T13:03:30</time>
      </trkpt>
      <trkpt lat="45.35136" lon="6.15491">
        <ele>1526.1205</ele>
        <time>2021-07-18T13:03:41</time>
      </trkpt>
      <trkpt lat="45.35135" lon="6.15492">
        <ele>1526.1205</ele>
        <time>2021-07-18T13:03:42</time>
      </trkpt>
      <trkpt lat="45.35131" lon="6.15506">
        <ele>1529.0204</ele>
        <time>2021-07-18T13:03:57</time>
      </trkpt>
      <trkpt lat="45.35126" lon="6.1551">
        <ele>1531.9204</ele>
        <time>2021-07-18T13:04:02</time>
      </trkpt>
      <trkpt lat="45.35125" lon="6.15511">
        <ele>1531.9204</ele>
        <time>2021-07-18T13:04:04</time>
      </trkpt>
      <trkpt lat="45.35124" lon="6.15511">
        <ele>1531.9204</ele>
        <time>2021-07-18T13:04:06</time>
      </trkpt>
      <trkpt lat="45.35123" lon="6.15511">
        <ele>1531.9204</ele>
        <time>2021-07-18T13:04:09</time>
      </trkpt>
      <trkpt lat="45.35123" lon="6.15511">
        <ele>1531.9204</ele>
        <time>2021-07-18T13:04:10</time>
      </trkpt>
      <trkpt lat="45.35123" lon="6.1551">
        <ele>1533.0204</ele>
        <time>2021-07-18T13:04:18</time>
      </trkpt>
      <trkpt lat="45.35122" lon="6.15511">
        <ele>1533.0204</ele>
        <time>2021-07-18T13:04:19</time>
      </trkpt>
      <trkpt lat="45.35122" lon="6.15512">
        <ele>1535.9204</ele>
        <time>2021-07-18T13:04:21</time>
      </trkpt>
      <trkpt lat="45.35121" lon="6.15513">
        <ele>1535.9204</ele>
        <time>2021-07-18T13:04:22</time>
      </trkpt>
      <trkpt lat="45.35121" lon="6.15515">
        <ele>1535.9204</ele>
        <time>2021-07-18T13:04:23</time>
      </trkpt>
      <trkpt lat="45.35121" lon="6.15516">
        <ele>1535.9204</ele>
        <time>2021-07-18T13:04:24</time>
      </trkpt>
      <trkpt lat="45.35115" lon="6.15532">
        <ele>1534.7205</ele>
        <time>2021-07-18T13:04:39</time>
      </trkpt>
      <trkpt lat="45.35114" lon="6.15535">
        <ele>1529.7205</ele>
        <time>2021-07-18T13:04:41</time>
      </trkpt>
      <trkpt lat="45.35114" lon="6.15541">
        <ele>1529.7205</ele>
        <time>2021-07-18T13:04:45</time>
      </trkpt>
      <trkpt lat="45.35114" lon="6.15541">
        <ele>1529.7205</ele>
        <time>2021-07-18T13:04:46</time>
      </trkpt>
      <trkpt lat="45.35114" lon="6.15547">
        <ele>1528.7205</ele>
        <time>2021-07-18T13:04:52</time>
      </trkpt>
      <trkpt lat="45.35113" lon="6.15549">
        <ele>1529.5204</ele>
        <time>2021-07-18T13:05:01</time>
      </trkpt>
      <trkpt lat="45.35112" lon="6.15549">
        <ele>1529.5204</ele>
        <time>2021-07-18T13:05:04</time>
      </trkpt>
      <trkpt lat="45.35112" lon="6.1555">
        <ele>1529.5204</ele>
        <time>2021-07-18T13:05:05</time>
      </trkpt>
      <trkpt lat="45.3511" lon="6.15552">
        <ele>1529.5204</ele>
        <time>2021-07-18T13:05:09</time>
      </trkpt>
      <trkpt lat="45.35109" lon="6.15555">
        <ele>1528.6205</ele>
        <time>2021-07-18T13:05:13</time>
      </trkpt>
      <trkpt lat="45.35109" lon="6.15555">
        <ele>1528.6205</ele>
        <time>2021-07-18T13:05:14</time>
      </trkpt>
      <trkpt lat="45.35107" lon="6.15561">
        <ele>1528.6205</ele>
        <time>2021-07-18T13:05:20</time>
      </trkpt>
      <trkpt lat="45.35103" lon="6.1557">
        <ele>1530.1205</ele>
        <time>2021-07-18T13:05:30</time>
      </trkpt>
      <trkpt lat="45.35103" lon="6.15572">
        <ele>1526.1205</ele>
        <time>2021-07-18T13:05:38</time>
      </trkpt>
      <trkpt lat="45.35101" lon="6.15574">
        <ele>1526.1205</ele>
        <time>2021-07-18T13:05:40</time>
      </trkpt>
      <trkpt lat="45.351" lon="6.15575">
        <ele>1528.6205</ele>
        <time>2021-07-18T13:05:41</time>
      </trkpt>
      <trkpt lat="45.35099" lon="6.15575">
        <ele>1528.6205</ele>
        <time>2021-07-18T13:05:42</time>
      </trkpt>
      <trkpt lat="45.35099" lon="6.15574">
        <ele>1528.6205</ele>
        <time>2021-07-18T13:05:43</time>
      </trkpt>
      <trkpt lat="45.35097" lon="6.15573">
        <ele>1528.6205</ele>
        <time>2021-07-18T13:05:45</time>
      </trkpt>
      <trkpt lat="45.35097" lon="6.15573">
        <ele>1528.6205</ele>
        <time>2021-07-18T13:05:46</time>
      </trkpt>
      <trkpt lat="45.35097" lon="6.15572">
        <ele>1528.6205</ele>
        <time>2021-07-18T13:05:47</time>
      </trkpt>
      <trkpt lat="45.35096" lon="6.15571">
        <ele>1528.6205</ele>
        <time>2021-07-18T13:05:49</time>
      </trkpt>
      <trkpt lat="45.35095" lon="6.15571">
        <ele>1528.6205</ele>
        <time>2021-07-18T13:05:50</time>
      </trkpt>
      <trkpt lat="45.35094" lon="6.1557">
        <ele>1529.4204</ele>
        <time>2021-07-18T13:05:52</time>
      </trkpt>
      <trkpt lat="45.35093" lon="6.1557">
        <ele>1529.4204</ele>
        <time>2021-07-18T13:05:54</time>
      </trkpt>
      <trkpt lat="45.35092" lon="6.1557">
        <ele>1529.4204</ele>
        <time>2021-07-18T13:05:56</time>
      </trkpt>
      <trkpt lat="45.35091" lon="6.1557">
        <ele>1529.4204</ele>
        <time>2021-07-18T13:05:57</time>
      </trkpt>
      <trkpt lat="45.3509" lon="6.1557">
        <ele>1529.4204</ele>
        <time>2021-07-18T13:05:58</time>
      </trkpt>
      <trkpt lat="45.3509" lon="6.15569">
        <ele>1529.4204</ele>
        <time>2021-07-18T13:06:00</time>
      </trkpt>
      <trkpt lat="45.35089" lon="6.15569">
        <ele>1529.1205</ele>
        <time>2021-07-18T13:06:01</time>
      </trkpt>
      <trkpt lat="45.35088" lon="6.15568">
        <ele>1529.1205</ele>
        <time>2021-07-18T13:06:02</time>
      </trkpt>
      <trkpt lat="45.35087" lon="6.15564">
        <ele>1529.1205</ele>
        <time>2021-07-18T13:06:05</time>
      </trkpt>
      <trkpt lat="45.35086" lon="6.15563">
        <ele>1529.1205</ele>
        <time>2021-07-18T13:06:10</time>
      </trkpt>
      <trkpt lat="45.35085" lon="6.15563">
        <ele>1530.4204</ele>
        <time>2021-07-18T13:06:11</time>
      </trkpt>
      <trkpt lat="45.35084" lon="6.15564">
        <ele>1530.4204</ele>
        <time>2021-07-18T13:06:19</time>
      </trkpt>
      <trkpt lat="45.35084" lon="6.15565">
        <ele>1530.4204</ele>
        <time>2021-07-18T13:06:20</time>
      </trkpt>
      <trkpt lat="45.35083" lon="6.15565">
        <ele>1534.1538</ele>
        <time>2021-07-18T13:06:21</time>
      </trkpt>
      <trkpt lat="45.35082" lon="6.15565">
        <ele>1534.1538</ele>
        <time>2021-07-18T13:06:22</time>
      </trkpt>
      <trkpt lat="45.35081" lon="6.15565">
        <ele>1534.1538</ele>
        <time>2021-07-18T13:06:27</time>
      </trkpt>
      <trkpt lat="45.3508" lon="6.15568">
        <ele>1534.1538</ele>
        <time>2021-07-18T13:06:29</time>
      </trkpt>
      <trkpt lat="45.35079" lon="6.15572">
        <ele>1533.8204</ele>
        <time>2021-07-18T13:06:32</time>
      </trkpt>
      <trkpt lat="45.35077" lon="6.15573">
        <ele>1533.8204</ele>
        <time>2021-07-18T13:06:36</time>
      </trkpt>
      <trkpt lat="45.35076" lon="6.15572">
        <ele>1534.6205</ele>
        <time>2021-07-18T13:06:46</time>
      </trkpt>
      <trkpt lat="45.35076" lon="6.15572">
        <ele>1534.6205</ele>
        <time>2021-07-18T13:06:47</time>
      </trkpt>
      <trkpt lat="45.35075" lon="6.15573">
        <ele>1537.8204</ele>
        <time>2021-07-18T13:06:51</time>
      </trkpt>
      <trkpt lat="45.35076" lon="6.15575">
        <ele>1537.8204</ele>
        <time>2021-07-18T13:06:54</time>
      </trkpt>
      <trkpt lat="45.35076" lon="6.15576">
        <ele>1537.8204</ele>
        <time>2021-07-18T13:06:55</time>
      </trkpt>
      <trkpt lat="45.35076" lon="6.15589">
        <ele>1537.4204</ele>
        <time>2021-07-18T13:07:05</time>
      </trkpt>
      <trkpt lat="45.35076" lon="6.15593">
        <ele>1537.4204</ele>
        <time>2021-07-18T13:07:08</time>
      </trkpt>
      <trkpt lat="45.35076" lon="6.15594">
        <ele>1537.4204</ele>
        <time>2021-07-18T13:07:11</time>
      </trkpt>
      <trkpt lat="45.35076" lon="6.15594">
        <ele>1537.4204</ele>
        <time>2021-07-18T13:07:13</time>
      </trkpt>
      <trkpt lat="45.35074" lon="6.15596">
        <ele>1537.4204</ele>
        <time>2021-07-18T13:07:16</time>
      </trkpt>
      <trkpt lat="45.35071" lon="6.15602">
        <ele>1533.3204</ele>
        <time>2021-07-18T13:07:24</time>
      </trkpt>
      <trkpt lat="45.35069" lon="6.15605">
        <ele>1533.3204</ele>
        <time>2021-07-18T13:07:30</time>
      </trkpt>
      <trkpt lat="45.35069" lon="6.15606">
        <ele>1533.2205</ele>
        <time>2021-07-18T13:07:32</time>
      </trkpt>
      <trkpt lat="45.35066" lon="6.15609">
        <ele>1533.2205</ele>
        <time>2021-07-18T13:07:38</time>
      </trkpt>
      <trkpt lat="45.35067" lon="6.1561">
        <ele>1529.8204</ele>
        <time>2021-07-18T13:07:43</time>
      </trkpt>
      <trkpt lat="45.35066" lon="6.15611">
        <ele>1529.8204</ele>
        <time>2021-07-18T13:07:45</time>
      </trkpt>
      <trkpt lat="45.35064" lon="6.15615">
        <ele>1529.8204</ele>
        <time>2021-07-18T13:07:49</time>
      </trkpt>
      <trkpt lat="45.35064" lon="6.15616">
        <ele>1529.8204</ele>
        <time>2021-07-18T13:07:50</time>
      </trkpt>
      <trkpt lat="45.35064" lon="6.1562">
        <ele>1537.2205</ele>
        <time>2021-07-18T13:07:53</time>
      </trkpt>
      <trkpt lat="45.35063" lon="6.15623">
        <ele>1537.2205</ele>
        <time>2021-07-18T13:07:56</time>
      </trkpt>
      <trkpt lat="45.35063" lon="6.15623">
        <ele>1537.2205</ele>
        <time>2021-07-18T13:07:59</time>
      </trkpt>
      <trkpt lat="45.35061" lon="6.15624">
        <ele>1537.2205</ele>
        <time>2021-07-18T13:08:00</time>
      </trkpt>
      <trkpt lat="45.35059" lon="6.15629">
        <ele>1533.7205</ele>
        <time>2021-07-18T13:08:04</time>
      </trkpt>
      <trkpt lat="45.35052" lon="6.15631">
        <ele>1531.0204</ele>
        <time>2021-07-18T13:08:12</time>
      </trkpt>
      <trkpt lat="45.3505" lon="6.15632">
        <ele>1531.0204</ele>
        <time>2021-07-18T13:08:13</time>
      </trkpt>
      <trkpt lat="45.35047" lon="6.15633">
        <ele>1531.0204</ele>
        <time>2021-07-18T13:08:18</time>
      </trkpt>
      <trkpt lat="45.35047" lon="6.15633">
        <ele>1531.0204</ele>
        <time>2021-07-18T13:08:19</time>
      </trkpt>
      <trkpt lat="45.35047" lon="6.15633">
        <ele>1531.0204</ele>
        <time>2021-07-18T13:08:20</time>
      </trkpt>
      <trkpt lat="45.35047" lon="6.15633">
        <ele>1531.6205</ele>
        <time>2021-07-18T13:08:22</time>
      </trkpt>
      <trkpt lat="45.35047" lon="6.15633">
        <ele>1531.6205</ele>
        <time>2021-07-18T13:08:24</time>
      </trkpt>
      <trkpt lat="45.35048" lon="6.15632">
        <ele>1531.6205</ele>
        <time>2021-07-18T13:08:25</time>
      </trkpt>
      <trkpt lat="45.35047" lon="6.15632">
        <ele>1531.6205</ele>
        <time>2021-07-18T13:08:26</time>
      </trkpt>
      <trkpt lat="45.35044" lon="6.15632">
        <ele>1531.6205</ele>
        <time>2021-07-18T13:08:29</time>
      </trkpt>
      <trkpt lat="45.35039" lon="6.15633">
        <ele>1525.4204</ele>
        <time>2021-07-18T13:08:34</time>
      </trkpt>
      <trkpt lat="45.35038" lon="6.15633">
        <ele>1525.4204</ele>
        <time>2021-07-18T13:08:38</time>
      </trkpt>
      <trkpt lat="45.35031" lon="6.15637">
        <ele>1523.5204</ele>
        <time>2021-07-18T13:08:44</time>
      </trkpt>
      <trkpt lat="45.35025" lon="6.15643">
        <ele>1524.7205</ele>
        <time>2021-07-18T13:08:55</time>
      </trkpt>
      <trkpt lat="45.35026" lon="6.15642">
        <ele>1524.7205</ele>
        <time>2021-07-18T13:08:59</time>
      </trkpt>
      <trkpt lat="45.35024" lon="6.15642">
        <ele>1524.7205</ele>
        <time>2021-07-18T13:09:00</time>
      </trkpt>
      <trkpt lat="45.35024" lon="6.15642">
        <ele>1525.4204</ele>
        <time>2021-07-18T13:09:01</time>
      </trkpt>
      <trkpt lat="45.35023" lon="6.15642">
        <ele>1525.4204</ele>
        <time>2021-07-18T13:09:02</time>
      </trkpt>
      <trkpt lat="45.35023" lon="6.15642">
        <ele>1525.4204</ele>
        <time>2021-07-18T13:09:03</time>
      </trkpt>
      <trkpt lat="45.35023" lon="6.15642">
        <ele>1525.4204</ele>
        <time>2021-07-18T13:09:06</time>
      </trkpt>
      <trkpt lat="45.35019" lon="6.15644">
        <ele>1525.4204</ele>
        <time>2021-07-18T13:09:10</time>
      </trkpt>
      <trkpt lat="45.3502" lon="6.15645">
        <ele>1523.5204</ele>
        <time>2021-07-18T13:09:11</time>
      </trkpt>
      <trkpt lat="45.3502" lon="6.15646">
        <ele>1523.5204</ele>
        <time>2021-07-18T13:09:13</time>
      </trkpt>
      <trkpt lat="45.35018" lon="6.15647">
        <ele>1523.5204</ele>
        <time>2021-07-18T13:09:16</time>
      </trkpt>
      <trkpt lat="45.35017" lon="6.15647">
        <ele>1523.5204</ele>
        <time>2021-07-18T13:09:17</time>
      </trkpt>
      <trkpt lat="45.35016" lon="6.15647">
        <ele>1523.5204</ele>
        <time>2021-07-18T13:09:19</time>
      </trkpt>
      <trkpt lat="45.35014" lon="6.15647">
        <ele>1523.3204</ele>
        <time>2021-07-18T13:09:22</time>
      </trkpt>
      <trkpt lat="45.35012" lon="6.15647">
        <ele>1523.3204</ele>
        <time>2021-07-18T13:09:25</time>
      </trkpt>
      <trkpt lat="45.35007" lon="6.15653">
        <ele>1523.1205</ele>
        <time>2021-07-18T13:09:31</time>
      </trkpt>
      <trkpt lat="45.35002" lon="6.15662">
        <ele>1523.1205</ele>
        <time>2021-07-18T13:09:38</time>
      </trkpt>
      <trkpt lat="45.35001" lon="6.15665">
        <ele>1524.8204</ele>
        <time>2021-07-18T13:09:41</time>
      </trkpt>
      <trkpt lat="45.34998" lon="6.1567">
        <ele>1524.8204</ele>
        <time>2021-07-18T13:09:45</time>
      </trkpt>
      <trkpt lat="45.34996" lon="6.15674">
        <ele>1524.8204</ele>
        <time>2021-07-18T13:09:48</time>
      </trkpt>
      <trkpt lat="45.34992" lon="6.15685">
        <ele>1521.0204</ele>
        <time>2021-07-18T13:10:00</time>
      </trkpt>
      <trkpt lat="45.34989" lon="6.15686">
        <ele>1524.0204</ele>
        <time>2021-07-18T13:10:03</time>
      </trkpt>
      <trkpt lat="45.34988" lon="6.15687">
        <ele>1524.0204</ele>
        <time>2021-07-18T13:10:04</time>
      </trkpt>
      <trkpt lat="45.34987" lon="6.15687">
        <ele>1524.0204</ele>
        <time>2021-07-18T13:10:06</time>
      </trkpt>
      <trkpt lat="45.34986" lon="6.15687">
        <ele>1524.0204</ele>
        <time>2021-07-18T13:10:08</time>
      </trkpt>
      <trkpt lat="45.34983" lon="6.1569">
        <ele>1525.8204</ele>
        <time>2021-07-18T13:10:12</time>
      </trkpt>
      <trkpt lat="45.3498" lon="6.15695">
        <ele>1525.8204</ele>
        <time>2021-07-18T13:10:19</time>
      </trkpt>
      <trkpt lat="45.34979" lon="6.15697">
        <ele>1525.4204</ele>
        <time>2021-07-18T13:10:22</time>
      </trkpt>
      <trkpt lat="45.34977" lon="6.157">
        <ele>1525.4204</ele>
        <time>2021-07-18T13:10:25</time>
      </trkpt>
      <trkpt lat="45.34975" lon="6.15701">
        <ele>1525.4204</ele>
        <time>2021-07-18T13:10:29</time>
      </trkpt>
      <trkpt lat="45.34974" lon="6.15705">
        <ele>1526.2205</ele>
        <time>2021-07-18T13:10:33</time>
      </trkpt>
      <trkpt lat="45.34972" lon="6.15711">
        <ele>1526.2205</ele>
        <time>2021-07-18T13:10:38</time>
      </trkpt>
      <trkpt lat="45.34961" lon="6.15721">
        <ele>1521.3204</ele>
        <time>2021-07-18T13:10:54</time>
      </trkpt>
      <trkpt lat="45.34961" lon="6.15721">
        <ele>1521.3204</ele>
        <time>2021-07-18T13:10:55</time>
      </trkpt>
      <trkpt lat="45.3496" lon="6.15722">
        <ele>1521.3204</ele>
        <time>2021-07-18T13:10:57</time>
      </trkpt>
      <trkpt lat="45.34959" lon="6.15723">
        <ele>1521.3204</ele>
        <time>2021-07-18T13:10:58</time>
      </trkpt>
      <trkpt lat="45.34958" lon="6.15723">
        <ele>1521.3204</ele>
        <time>2021-07-18T13:10:59</time>
      </trkpt>
      <trkpt lat="45.34957" lon="6.15723">
        <ele>1521.3204</ele>
        <time>2021-07-18T13:11:00</time>
      </trkpt>
      <trkpt lat="45.34957" lon="6.15723">
        <ele>1521.3204</ele>
        <time>2021-07-18T13:11:01</time>
      </trkpt>
      <trkpt lat="45.34954" lon="6.15724">
        <ele>1518.5204</ele>
        <time>2021-07-18T13:11:06</time>
      </trkpt>
      <trkpt lat="45.34953" lon="6.15725">
        <ele>1518.5204</ele>
        <time>2021-07-18T13:11:08</time>
      </trkpt>
      <trkpt lat="45.34953" lon="6.15726">
        <ele>1518.5204</ele>
        <time>2021-07-18T13:11:09</time>
      </trkpt>
      <trkpt lat="45.34955" lon="6.15726">
        <ele>1518.5204</ele>
        <time>2021-07-18T13:11:11</time>
      </trkpt>
      <trkpt lat="45.34955" lon="6.15728">
        <ele>1521.9204</ele>
        <time>2021-07-18T13:11:20</time>
      </trkpt>
      <trkpt lat="45.34954" lon="6.15729">
        <ele>1521.9204</ele>
        <time>2021-07-18T13:11:21</time>
      </trkpt>
      <trkpt lat="45.34951" lon="6.1573">
        <ele>1518.1205</ele>
        <time>2021-07-18T13:11:31</time>
      </trkpt>
      <trkpt lat="45.3495" lon="6.1573">
        <ele>1518.1205</ele>
        <time>2021-07-18T13:11:32</time>
      </trkpt>
      <trkpt lat="45.34949" lon="6.15731">
        <ele>1520.9204</ele>
        <time>2021-07-18T13:11:34</time>
      </trkpt>
      <trkpt lat="45.3494" lon="6.15732">
        <ele>1520.9204</ele>
        <time>2021-07-18T13:11:40</time>
      </trkpt>
      <trkpt lat="45.34938" lon="6.15732">
        <ele>1520.9204</ele>
        <time>2021-07-18T13:11:42</time>
      </trkpt>
      <trkpt lat="45.34934" lon="6.15732">
        <ele>1521.8204</ele>
        <time>2021-07-18T13:11:45</time>
      </trkpt>
      <trkpt lat="45.3493" lon="6.15732">
        <ele>1521.8204</ele>
        <time>2021-07-18T13:11:49</time>
      </trkpt>
      <trkpt lat="45.34927" lon="6.15731">
        <ele>1521.8204</ele>
        <time>2021-07-18T13:11:52</time>
      </trkpt>
      <trkpt lat="45.34925" lon="6.15731">
        <ele>1523.7205</ele>
        <time>2021-07-18T13:11:56</time>
      </trkpt>
      <trkpt lat="45.34923" lon="6.15731">
        <ele>1523.7205</ele>
        <time>2021-07-18T13:11:57</time>
      </trkpt>
      <trkpt lat="45.34922" lon="6.15731">
        <ele>1523.7205</ele>
        <time>2021-07-18T13:11:58</time>
      </trkpt>
      <trkpt lat="45.34922" lon="6.15731">
        <ele>1523.7205</ele>
        <time>2021-07-18T13:11:59</time>
      </trkpt>
      <trkpt lat="45.3492" lon="6.15732">
        <ele>1521.9204</ele>
        <time>2021-07-18T13:12:03</time>
      </trkpt>
      <trkpt lat="45.34919" lon="6.15733">
        <ele>1521.9204</ele>
        <time>2021-07-18T13:12:05</time>
      </trkpt>
      <trkpt lat="45.34918" lon="6.15733">
        <ele>1521.9204</ele>
        <time>2021-07-18T13:12:06</time>
      </trkpt>
      <trkpt lat="45.34916" lon="6.15733">
        <ele>1521.9204</ele>
        <time>2021-07-18T13:12:08</time>
      </trkpt>
      <trkpt lat="45.34914" lon="6.15732">
        <ele>1521.9204</ele>
        <time>2021-07-18T13:12:11</time>
      </trkpt>
      <trkpt lat="45.34913" lon="6.15732">
        <ele>1521.9204</ele>
        <time>2021-07-18T13:12:12</time>
      </trkpt>
      <trkpt lat="45.34913" lon="6.15732">
        <ele>1524.3204</ele>
        <time>2021-07-18T13:12:13</time>
      </trkpt>
      <trkpt lat="45.34912" lon="6.15732">
        <ele>1524.3204</ele>
        <time>2021-07-18T13:12:14</time>
      </trkpt>
      <trkpt lat="45.34911" lon="6.15733">
        <ele>1527.7871</ele>
        <time>2021-07-18T13:12:48</time>
      </trkpt>
      <trkpt lat="45.34904" lon="6.15734">
        <ele>1530.5204</ele>
        <time>2021-07-18T13:27:31</time>
      </trkpt>
      <trkpt lat="45.34904" lon="6.15733">
        <ele>1541.9204</ele>
        <time>2021-07-18T13:27:36</time>
      </trkpt>
      <trkpt lat="45.34905" lon="6.15733">
        <ele>1541.9204</ele>
        <time>2021-07-18T13:27:37</time>
      </trkpt>
      <trkpt lat="45.34905" lon="6.15732">
        <ele>1541.9204</ele>
        <time>2021-07-18T13:27:38</time>
      </trkpt>
      <trkpt lat="45.34905" lon="6.15729">
        <ele>1543.9204</ele>
        <time>2021-07-18T13:28:08</time>
      </trkpt>
      <trkpt lat="45.34905" lon="6.1573">
        <ele>1543.8204</ele>
        <time>2021-07-18T13:28:38</time>
      </trkpt>
      <trkpt lat="45.34905" lon="6.1573">
        <ele>1543.8204</ele>
        <time>2021-07-18T13:28:53</time>
      </trkpt>
      <trkpt lat="45.34906" lon="6.1573">
        <ele>1543.8204</ele>
        <time>2021-07-18T13:28:54</time>
      </trkpt>
      <trkpt lat="45.34906" lon="6.15731">
        <ele>1544.7205</ele>
        <time>2021-07-18T13:29:37</time>
      </trkpt>
      <trkpt lat="45.34906" lon="6.15731">
        <ele>1544.7205</ele>
        <time>2021-07-18T13:29:38</time>
      </trkpt>
      <trkpt lat="45.34906" lon="6.15731">
        <ele>1544.7205</ele>
        <time>2021-07-18T13:29:39</time>
      </trkpt>
      <trkpt lat="45.34905" lon="6.15731">
        <ele>1544.7205</ele>
        <time>2021-07-18T13:29:40</time>
      </trkpt>
      <trkpt lat="45.34905" lon="6.15732">
        <ele>1541.4204</ele>
        <time>2021-07-18T13:29:56</time>
      </trkpt>
      <trkpt lat="45.34903" lon="6.15733">
        <ele>1541.4204</ele>
        <time>2021-07-18T13:29:58</time>
      </trkpt>
      <trkpt lat="45.349" lon="6.15733">
        <ele>1540.1205</ele>
        <time>2021-07-18T13:30:19</time>
      </trkpt>
      <trkpt lat="45.349" lon="6.15733">
        <ele>1540.1205</ele>
        <time>2021-07-18T13:30:20</time>
      </trkpt>
      <trkpt lat="45.34899" lon="6.15732">
        <ele>1540.1205</ele>
        <time>2021-07-18T13:30:21</time>
      </trkpt>
      <trkpt lat="45.34898" lon="6.15732">
        <ele>1540.1205</ele>
        <time>2021-07-18T13:30:22</time>
      </trkpt>
      <trkpt lat="45.34896" lon="6.15732">
        <ele>1541.5204</ele>
        <time>2021-07-18T13:30:24</time>
      </trkpt>
      <trkpt lat="45.34895" lon="6.15732">
        <ele>1541.5204</ele>
        <time>2021-07-18T13:30:25</time>
      </trkpt>
      <trkpt lat="45.34894" lon="6.15732">
        <ele>1541.5204</ele>
        <time>2021-07-18T13:30:26</time>
      </trkpt>
      <trkpt lat="45.34894" lon="6.15733">
        <ele>1541.5204</ele>
        <time>2021-07-18T13:30:27</time>
      </trkpt>
      <trkpt lat="45.3489" lon="6.15735">
        <ele>1540.8204</ele>
        <time>2021-07-18T13:30:49</time>
      </trkpt>
      <trkpt lat="45.34888" lon="6.15736">
        <ele>1540.8204</ele>
        <time>2021-07-18T13:30:50</time>
      </trkpt>
      <trkpt lat="45.34887" lon="6.15737">
        <ele>1540.2205</ele>
        <time>2021-07-18T13:30:56</time>
      </trkpt>
      <trkpt lat="45.34887" lon="6.15737">
        <ele>1540.2205</ele>
        <time>2021-07-18T13:30:57</time>
      </trkpt>
      <trkpt lat="45.34886" lon="6.15736">
        <ele>1540.2205</ele>
        <time>2021-07-18T13:30:58</time>
      </trkpt>
      <trkpt lat="45.34884" lon="6.15736">
        <ele>1540.2205</ele>
        <time>2021-07-18T13:30:59</time>
      </trkpt>
      <trkpt lat="45.34882" lon="6.15737">
        <ele>1540.2205</ele>
        <time>2021-07-18T13:31:01</time>
      </trkpt>
      <trkpt lat="45.34879" lon="6.15737">
        <ele>1538.5872</ele>
        <time>2021-07-18T13:31:06</time>
      </trkpt>
      <trkpt lat="45.34879" lon="6.15738">
        <ele>1538.5872</ele>
        <time>2021-07-18T13:31:09</time>
      </trkpt>
      <trkpt lat="45.34876" lon="6.15739">
        <ele>1536.4204</ele>
        <time>2021-07-18T13:31:13</time>
      </trkpt>
      <trkpt lat="45.34876" lon="6.15739">
        <ele>1536.4204</ele>
        <time>2021-07-18T13:31:15</time>
      </trkpt>
      <trkpt lat="45.34875" lon="6.15739">
        <ele>1536.4204</ele>
        <time>2021-07-18T13:31:16</time>
      </trkpt>
      <trkpt lat="45.34873" lon="6.15739">
        <ele>1536.4204</ele>
        <time>2021-07-18T13:31:18</time>
      </trkpt>
      <trkpt lat="45.34871" lon="6.1574">
        <ele>1536.4204</ele>
        <time>2021-07-18T13:31:22</time>
      </trkpt>
      <trkpt lat="45.34869" lon="6.15741">
        <ele>1539.1205</ele>
        <time>2021-07-18T13:31:25</time>
      </trkpt>
      <trkpt lat="45.34866" lon="6.15744">
        <ele>1541.1205</ele>
        <time>2021-07-18T13:31:55</time>
      </trkpt>
      <trkpt lat="45.3486" lon="6.15745">
        <ele>1541.1205</ele>
        <time>2021-07-18T13:31:59</time>
      </trkpt>
      <trkpt lat="45.34858" lon="6.15745">
        <ele>1541.1205</ele>
        <time>2021-07-18T13:32:02</time>
      </trkpt>
      <trkpt lat="45.34854" lon="6.15747">
        <ele>1541.1205</ele>
        <time>2021-07-18T13:32:09</time>
      </trkpt>
      <trkpt lat="45.34853" lon="6.15747">
        <ele>1541.1205</ele>
        <time>2021-07-18T13:32:10</time>
      </trkpt>
      <trkpt lat="45.34853" lon="6.15748">
        <ele>1541.1205</ele>
        <time>2021-07-18T13:32:11</time>
      </trkpt>
      <trkpt lat="45.34852" lon="6.15749">
        <ele>1541.1205</ele>
        <time>2021-07-18T13:32:12</time>
      </trkpt>
      <trkpt lat="45.34851" lon="6.15749">
        <ele>1536.8204</ele>
        <time>2021-07-18T13:32:13</time>
      </trkpt>
      <trkpt lat="45.34849" lon="6.1575">
        <ele>1536.8204</ele>
        <time>2021-07-18T13:32:15</time>
      </trkpt>
      <trkpt lat="45.34847" lon="6.15751">
        <ele>1536.8204</ele>
        <time>2021-07-18T13:32:19</time>
      </trkpt>
      <trkpt lat="45.34847" lon="6.15752">
        <ele>1536.8204</ele>
        <time>2021-07-18T13:32:20</time>
      </trkpt>
      <trkpt lat="45.34846" lon="6.15753">
        <ele>1536.8204</ele>
        <time>2021-07-18T13:32:22</time>
      </trkpt>
      <trkpt lat="45.34843" lon="6.15754">
        <ele>1537.5204</ele>
        <time>2021-07-18T13:32:24</time>
      </trkpt>
      <trkpt lat="45.34842" lon="6.15755">
        <ele>1537.5204</ele>
        <time>2021-07-18T13:32:25</time>
      </trkpt>
      <trkpt lat="45.34841" lon="6.15755">
        <ele>1537.5204</ele>
        <time>2021-07-18T13:32:28</time>
      </trkpt>
      <trkpt lat="45.3484" lon="6.15756">
        <ele>1537.5204</ele>
        <time>2021-07-18T13:32:30</time>
      </trkpt>
      <trkpt lat="45.34839" lon="6.15757">
        <ele>1537.5204</ele>
        <time>2021-07-18T13:32:31</time>
      </trkpt>
      <trkpt lat="45.34837" lon="6.15758">
        <ele>1539.3204</ele>
        <time>2021-07-18T13:33:01</time>
      </trkpt>
      <trkpt lat="45.34836" lon="6.1576">
        <ele>1539.3204</ele>
        <time>2021-07-18T13:33:02</time>
      </trkpt>
      <trkpt lat="45.34835" lon="6.15762">
        <ele>1539.4204</ele>
        <time>2021-07-18T13:33:04</time>
      </trkpt>
      <trkpt lat="45.34835" lon="6.15763">
        <ele>1539.4204</ele>
        <time>2021-07-18T13:33:05</time>
      </trkpt>
      <trkpt lat="45.34835" lon="6.15763">
        <ele>1539.4204</ele>
        <time>2021-07-18T13:33:06</time>
      </trkpt>
      <trkpt lat="45.34835" lon="6.15765">
        <ele>1539.4204</ele>
        <time>2021-07-18T13:33:08</time>
      </trkpt>
      <trkpt lat="45.34835" lon="6.15766">
        <ele>1539.4204</ele>
        <time>2021-07-18T13:33:09</time>
      </trkpt>
      <trkpt lat="45.34834" lon="6.15766">
        <ele>1539.4204</ele>
        <time>2021-07-18T13:33:10</time>
      </trkpt>
      <trkpt lat="45.34834" lon="6.15767">
        <ele>1539.4204</ele>
        <time>2021-07-18T13:33:11</time>
      </trkpt>
      <trkpt lat="45.34833" lon="6.1577">
        <ele>1542.3204</ele>
        <time>2021-07-18T13:33:13</time>
      </trkpt>
      <trkpt lat="45.34832" lon="6.15771">
        <ele>1542.3204</ele>
        <time>2021-07-18T13:33:18</time>
      </trkpt>
      <trkpt lat="45.34831" lon="6.15771">
        <ele>1542.3204</ele>
        <time>2021-07-18T13:33:19</time>
      </trkpt>
      <trkpt lat="45.34831" lon="6.15771">
        <ele>1542.3204</ele>
        <time>2021-07-18T13:33:20</time>
      </trkpt>
      <trkpt lat="45.34831" lon="6.15771">
        <ele>1542.3204</ele>
        <time>2021-07-18T13:33:21</time>
      </trkpt>
      <trkpt lat="45.34831" lon="6.15771">
        <ele>1542.3204</ele>
        <time>2021-07-18T13:33:22</time>
      </trkpt>
      <trkpt lat="45.34832" lon="6.15772">
        <ele>1545.7205</ele>
        <time>2021-07-18T13:33:38</time>
      </trkpt>
      <trkpt lat="45.34831" lon="6.15772">
        <ele>1545.7205</ele>
        <time>2021-07-18T13:33:40</time>
      </trkpt>
      <trkpt lat="45.3483" lon="6.15774">
        <ele>1542.2205</ele>
        <time>2021-07-18T13:33:44</time>
      </trkpt>
      <trkpt lat="45.34829" lon="6.15776">
        <ele>1542.2205</ele>
        <time>2021-07-18T13:33:46</time>
      </trkpt>
      <trkpt lat="45.34829" lon="6.15776">
        <ele>1542.2205</ele>
        <time>2021-07-18T13:33:47</time>
      </trkpt>
      <trkpt lat="45.34828" lon="6.15777">
        <ele>1542.2205</ele>
        <time>2021-07-18T13:33:48</time>
      </trkpt>
      <trkpt lat="45.34827" lon="6.1578">
        <ele>1542.2205</ele>
        <time>2021-07-18T13:33:52</time>
      </trkpt>
      <trkpt lat="45.34826" lon="6.1578">
        <ele>1543.9204</ele>
        <time>2021-07-18T13:33:53</time>
      </trkpt>
      <trkpt lat="45.34826" lon="6.15781">
        <ele>1543.9204</ele>
        <time>2021-07-18T13:33:54</time>
      </trkpt>
      <trkpt lat="45.34825" lon="6.15782">
        <ele>1543.9204</ele>
        <time>2021-07-18T13:33:55</time>
      </trkpt>
      <trkpt lat="45.34824" lon="6.15782">
        <ele>1543.9204</ele>
        <time>2021-07-18T13:33:56</time>
      </trkpt>
      <trkpt lat="45.34822" lon="6.15783">
        <ele>1543.9204</ele>
        <time>2021-07-18T13:34:00</time>
      </trkpt>
      <trkpt lat="45.34822" lon="6.15784">
        <ele>1543.9204</ele>
        <time>2021-07-18T13:34:01</time>
      </trkpt>
      <trkpt lat="45.34821" lon="6.15785">
        <ele>1543.4204</ele>
        <time>2021-07-18T13:34:03</time>
      </trkpt>
      <trkpt lat="45.3482" lon="6.15786">
        <ele>1543.4204</ele>
        <time>2021-07-18T13:34:06</time>
      </trkpt>
      <trkpt lat="45.34814" lon="6.15791">
        <ele>1545.3204</ele>
        <time>2021-07-18T13:34:16</time>
      </trkpt>
      <trkpt lat="45.34815" lon="6.15792">
        <ele>1545.3204</ele>
        <time>2021-07-18T13:34:19</time>
      </trkpt>
      <trkpt lat="45.34813" lon="6.15793">
        <ele>1545.3204</ele>
        <time>2021-07-18T13:34:20</time>
      </trkpt>
      <trkpt lat="45.34812" lon="6.15794">
        <ele>1545.3204</ele>
        <time>2021-07-18T13:34:22</time>
      </trkpt>
      <trkpt lat="45.34811" lon="6.15795">
        <ele>1544.1205</ele>
        <time>2021-07-18T13:34:32</time>
      </trkpt>
      <trkpt lat="45.34809" lon="6.15797">
        <ele>1546.7205</ele>
        <time>2021-07-18T13:34:34</time>
      </trkpt>
      <trkpt lat="45.34808" lon="6.15798">
        <ele>1546.7205</ele>
        <time>2021-07-18T13:34:35</time>
      </trkpt>
      <trkpt lat="45.34806" lon="6.15802">
        <ele>1548.1205</ele>
        <time>2021-07-18T13:34:43</time>
      </trkpt>
      <trkpt lat="45.34806" lon="6.15803">
        <ele>1548.1205</ele>
        <time>2021-07-18T13:34:44</time>
      </trkpt>
      <trkpt lat="45.34806" lon="6.15803">
        <ele>1548.1205</ele>
        <time>2021-07-18T13:34:45</time>
      </trkpt>
      <trkpt lat="45.34806" lon="6.15804">
        <ele>1548.1205</ele>
        <time>2021-07-18T13:34:47</time>
      </trkpt>
      <trkpt lat="45.34805" lon="6.15805">
        <ele>1548.1205</ele>
        <time>2021-07-18T13:34:51</time>
      </trkpt>
      <trkpt lat="45.34804" lon="6.15806">
        <ele>1545.1205</ele>
        <time>2021-07-18T13:34:53</time>
      </trkpt>
      <trkpt lat="45.34802" lon="6.15805">
        <ele>1545.1205</ele>
        <time>2021-07-18T13:34:59</time>
      </trkpt>
      <trkpt lat="45.34799" lon="6.15808">
        <ele>1545.1205</ele>
        <time>2021-07-18T13:35:02</time>
      </trkpt>
      <trkpt lat="45.34798" lon="6.15809">
        <ele>1539.5204</ele>
        <time>2021-07-18T13:35:04</time>
      </trkpt>
      <trkpt lat="45.34797" lon="6.15808">
        <ele>1539.5204</ele>
        <time>2021-07-18T13:35:07</time>
      </trkpt>
      <trkpt lat="45.34795" lon="6.15811">
        <ele>1539.5204</ele>
        <time>2021-07-18T13:35:11</time>
      </trkpt>
      <trkpt lat="45.34795" lon="6.15812">
        <ele>1544.0204</ele>
        <time>2021-07-18T13:35:15</time>
      </trkpt>
      <trkpt lat="45.34795" lon="6.15815">
        <ele>1544.0204</ele>
        <time>2021-07-18T13:35:19</time>
      </trkpt>
      <trkpt lat="45.34795" lon="6.15816">
        <ele>1544.0204</ele>
        <time>2021-07-18T13:35:20</time>
      </trkpt>
      <trkpt lat="45.34795" lon="6.15818">
        <ele>1544.0204</ele>
        <time>2021-07-18T13:35:21</time>
      </trkpt>
      <trkpt lat="45.34796" lon="6.15819">
        <ele>1539.1205</ele>
        <time>2021-07-18T13:35:32</time>
      </trkpt>
      <trkpt lat="45.34795" lon="6.1582">
        <ele>1539.8204</ele>
        <time>2021-07-18T13:35:33</time>
      </trkpt>
      <trkpt lat="45.34794" lon="6.15821">
        <ele>1539.8204</ele>
        <time>2021-07-18T13:35:34</time>
      </trkpt>
      <trkpt lat="45.34792" lon="6.15823">
        <ele>1539.8204</ele>
        <time>2021-07-18T13:35:36</time>
      </trkpt>
      <trkpt lat="45.34784" lon="6.15822">
        <ele>1535.3204</ele>
        <time>2021-07-18T13:35:44</time>
      </trkpt>
      <trkpt lat="45.34784" lon="6.15822">
        <ele>1535.3204</ele>
        <time>2021-07-18T13:35:45</time>
      </trkpt>
      <trkpt lat="45.34783" lon="6.15822">
        <ele>1535.3204</ele>
        <time>2021-07-18T13:35:46</time>
      </trkpt>
      <trkpt lat="45.34783" lon="6.15823">
        <ele>1535.3204</ele>
        <time>2021-07-18T13:35:48</time>
      </trkpt>
      <trkpt lat="45.34783" lon="6.15823">
        <ele>1535.3204</ele>
        <time>2021-07-18T13:35:49</time>
      </trkpt>
      <trkpt lat="45.34784" lon="6.15823">
        <ele>1535.3204</ele>
        <time>2021-07-18T13:35:50</time>
      </trkpt>
      <trkpt lat="45.34784" lon="6.15825">
        <ele>1534.9204</ele>
        <time>2021-07-18T13:35:53</time>
      </trkpt>
      <trkpt lat="45.34783" lon="6.15825">
        <ele>1534.9204</ele>
        <time>2021-07-18T13:35:54</time>
      </trkpt>
      <trkpt lat="45.3478" lon="6.15828">
        <ele>1534.9204</ele>
        <time>2021-07-18T13:35:58</time>
      </trkpt>
      <trkpt lat="45.34779" lon="6.15827">
        <ele>1534.9204</ele>
        <time>2021-07-18T13:36:01</time>
      </trkpt>
      <trkpt lat="45.34779" lon="6.15827">
        <ele>1534.9204</ele>
        <time>2021-07-18T13:36:02</time>
      </trkpt>
      <trkpt lat="45.34776" lon="6.15827">
        <ele>1538.8204</ele>
        <time>2021-07-18T13:36:12</time>
      </trkpt>
      <trkpt lat="45.34768" lon="6.1583">
        <ele>1538.9204</ele>
        <time>2021-07-18T13:36:17</time>
      </trkpt>
      <trkpt lat="45.34757" lon="6.15826">
        <ele>1542.2205</ele>
        <time>2021-07-18T13:36:32</time>
      </trkpt>
      <trkpt lat="45.34756" lon="6.15825">
        <ele>1546.3204</ele>
        <time>2021-07-18T13:36:33</time>
      </trkpt>
      <trkpt lat="45.34755" lon="6.15825">
        <ele>1546.3204</ele>
        <time>2021-07-18T13:36:34</time>
      </trkpt>
      <trkpt lat="45.34754" lon="6.15825">
        <ele>1546.3204</ele>
        <time>2021-07-18T13:36:35</time>
      </trkpt>
      <trkpt lat="45.34753" lon="6.15825">
        <ele>1546.3204</ele>
        <time>2021-07-18T13:36:37</time>
      </trkpt>
      <trkpt lat="45.34752" lon="6.15825">
        <ele>1546.3204</ele>
        <time>2021-07-18T13:36:38</time>
      </trkpt>
      <trkpt lat="45.34751" lon="6.15824">
        <ele>1546.3204</ele>
        <time>2021-07-18T13:36:39</time>
      </trkpt>
      <trkpt lat="45.34749" lon="6.15821">
        <ele>1544.1205</ele>
        <time>2021-07-18T13:36:43</time>
      </trkpt>
      <trkpt lat="45.34748" lon="6.15819">
        <ele>1544.1205</ele>
        <time>2021-07-18T13:36:45</time>
      </trkpt>
      <trkpt lat="45.34748" lon="6.15819">
        <ele>1544.1205</ele>
        <time>2021-07-18T13:36:46</time>
      </trkpt>
      <trkpt lat="45.34747" lon="6.15819">
        <ele>1544.1205</ele>
        <time>2021-07-18T13:36:47</time>
      </trkpt>
      <trkpt lat="45.34741" lon="6.15818">
        <ele>1547.3204</ele>
        <time>2021-07-18T13:36:55</time>
      </trkpt>
      <trkpt lat="45.3474" lon="6.15818">
        <ele>1547.3204</ele>
        <time>2021-07-18T13:36:56</time>
      </trkpt>
      <trkpt lat="45.3474" lon="6.15817">
        <ele>1547.3204</ele>
        <time>2021-07-18T13:36:57</time>
      </trkpt>
      <trkpt lat="45.34738" lon="6.15817">
        <ele>1547.3204</ele>
        <time>2021-07-18T13:36:59</time>
      </trkpt>
      <trkpt lat="45.34736" lon="6.15816">
        <ele>1547.3204</ele>
        <time>2021-07-18T13:37:01</time>
      </trkpt>
      <trkpt lat="45.34736" lon="6.15815">
        <ele>1547.3204</ele>
        <time>2021-07-18T13:37:02</time>
      </trkpt>
      <trkpt lat="45.34735" lon="6.15815">
        <ele>1549.7205</ele>
        <time>2021-07-18T13:37:03</time>
      </trkpt>
      <trkpt lat="45.34734" lon="6.15814">
        <ele>1549.7205</ele>
        <time>2021-07-18T13:37:06</time>
      </trkpt>
      <trkpt lat="45.34734" lon="6.15813">
        <ele>1549.7205</ele>
        <time>2021-07-18T13:37:09</time>
      </trkpt>
      <trkpt lat="45.34732" lon="6.15813">
        <ele>1549.7205</ele>
        <time>2021-07-18T13:37:10</time>
      </trkpt>
      <trkpt lat="45.34729" lon="6.15807">
        <ele>1553.0204</ele>
        <time>2021-07-18T13:37:18</time>
      </trkpt>
      <trkpt lat="45.34729" lon="6.15807">
        <ele>1547.8204</ele>
        <time>2021-07-18T13:37:25</time>
      </trkpt>
      <trkpt lat="45.3473" lon="6.15808">
        <ele>1547.8204</ele>
        <time>2021-07-18T13:37:26</time>
      </trkpt>
      <trkpt lat="45.3473" lon="6.15809">
        <ele>1547.8204</ele>
        <time>2021-07-18T13:37:27</time>
      </trkpt>
      <trkpt lat="45.3473" lon="6.15809">
        <ele>1547.8204</ele>
        <time>2021-07-18T13:37:28</time>
      </trkpt>
      <trkpt lat="45.34729" lon="6.15809">
        <ele>1547.8204</ele>
        <time>2021-07-18T13:37:29</time>
      </trkpt>
      <trkpt lat="45.34728" lon="6.15809">
        <ele>1547.8204</ele>
        <time>2021-07-18T13:37:30</time>
      </trkpt>
      <trkpt lat="45.34727" lon="6.15808">
        <ele>1547.8204</ele>
        <time>2021-07-18T13:37:31</time>
      </trkpt>
      <trkpt lat="45.34726" lon="6.15807">
        <ele>1546.4204</ele>
        <time>2021-07-18T13:37:33</time>
      </trkpt>
      <trkpt lat="45.34726" lon="6.15807">
        <ele>1546.4204</ele>
        <time>2021-07-18T13:37:34</time>
      </trkpt>
      <trkpt lat="45.34727" lon="6.15806">
        <ele>1546.4204</ele>
        <time>2021-07-18T13:37:36</time>
      </trkpt>
      <trkpt lat="45.34727" lon="6.15805">
        <ele>1546.4204</ele>
        <time>2021-07-18T13:37:39</time>
      </trkpt>
      <trkpt lat="45.34726" lon="6.15804">
        <ele>1546.4204</ele>
        <time>2021-07-18T13:37:40</time>
      </trkpt>
      <trkpt lat="45.34726" lon="6.15803">
        <ele>1546.4204</ele>
        <time>2021-07-18T13:37:41</time>
      </trkpt>
      <trkpt lat="45.34725" lon="6.15802">
        <ele>1546.4204</ele>
        <time>2021-07-18T13:37:42</time>
      </trkpt>
      <trkpt lat="45.3472" lon="6.15797">
        <ele>1551.8204</ele>
        <time>2021-07-18T13:37:49</time>
      </trkpt>
      <trkpt lat="45.3472" lon="6.15797">
        <ele>1551.8204</ele>
        <time>2021-07-18T13:37:50</time>
      </trkpt>
      <trkpt lat="45.34718" lon="6.15794">
        <ele>1551.8204</ele>
        <time>2021-07-18T13:37:56</time>
      </trkpt>
      <trkpt lat="45.34717" lon="6.15794">
        <ele>1551.8204</ele>
        <time>2021-07-18T13:37:59</time>
      </trkpt>
      <trkpt lat="45.34716" lon="6.15795">
        <ele>1551.8204</ele>
        <time>2021-07-18T13:38:03</time>
      </trkpt>
      <trkpt lat="45.34715" lon="6.15796">
        <ele>1551.8204</ele>
        <time>2021-07-18T13:38:06</time>
      </trkpt>
      <trkpt lat="45.34714" lon="6.15797">
        <ele>1551.8204</ele>
        <time>2021-07-18T13:38:09</time>
      </trkpt>
      <trkpt lat="45.34712" lon="6.15797">
        <ele>1551.8204</ele>
        <time>2021-07-18T13:38:12</time>
      </trkpt>
      <trkpt lat="45.34708" lon="6.15795">
        <ele>1543.8204</ele>
        <time>2021-07-18T13:38:22</time>
      </trkpt>
      <trkpt lat="45.34708" lon="6.15795">
        <ele>1548.3204</ele>
        <time>2021-07-18T13:38:25</time>
      </trkpt>
      <trkpt lat="45.34709" lon="6.15794">
        <ele>1548.3204</ele>
        <time>2021-07-18T13:38:28</time>
      </trkpt>
      <trkpt lat="45.34706" lon="6.15785">
        <ele>1548.3204</ele>
        <time>2021-07-18T13:38:37</time>
      </trkpt>
      <trkpt lat="45.34705" lon="6.15785">
        <ele>1548.3204</ele>
        <time>2021-07-18T13:38:39</time>
      </trkpt>
      <trkpt lat="45.34703" lon="6.15784">
        <ele>1553.0204</ele>
        <time>2021-07-18T13:38:43</time>
      </trkpt>
      <trkpt lat="45.34697" lon="6.15778">
        <ele>1555.4204</ele>
        <time>2021-07-18T13:38:53</time>
      </trkpt>
      <trkpt lat="45.34692" lon="6.15776">
        <ele>1551.4204</ele>
        <time>2021-07-18T13:39:03</time>
      </trkpt>
      <trkpt lat="45.34692" lon="6.15777">
        <ele>1551.4204</ele>
        <time>2021-07-18T13:39:06</time>
      </trkpt>
      <trkpt lat="45.34691" lon="6.15777">
        <ele>1551.4204</ele>
        <time>2021-07-18T13:39:07</time>
      </trkpt>
      <trkpt lat="45.34689" lon="6.15774">
        <ele>1551.4204</ele>
        <time>2021-07-18T13:39:12</time>
      </trkpt>
      <trkpt lat="45.34687" lon="6.15773">
        <ele>1553.0204</ele>
        <time>2021-07-18T13:39:18</time>
      </trkpt>
      <trkpt lat="45.34686" lon="6.15772">
        <ele>1553.0204</ele>
        <time>2021-07-18T13:39:20</time>
      </trkpt>
      <trkpt lat="45.34684" lon="6.15772">
        <ele>1556.4204</ele>
        <time>2021-07-18T13:39:23</time>
      </trkpt>
      <trkpt lat="45.34683" lon="6.15772">
        <ele>1556.4204</ele>
        <time>2021-07-18T13:39:26</time>
      </trkpt>
      <trkpt lat="45.34682" lon="6.15774">
        <ele>1556.4204</ele>
        <time>2021-07-18T13:39:28</time>
      </trkpt>
      <trkpt lat="45.34679" lon="6.15775">
        <ele>1552.6205</ele>
        <time>2021-07-18T13:39:33</time>
      </trkpt>
      <trkpt lat="45.34678" lon="6.15774">
        <ele>1552.6205</ele>
        <time>2021-07-18T13:39:36</time>
      </trkpt>
      <trkpt lat="45.34676" lon="6.15774">
        <ele>1552.6205</ele>
        <time>2021-07-18T13:39:39</time>
      </trkpt>
      <trkpt lat="45.34676" lon="6.15774">
        <ele>1552.6205</ele>
        <time>2021-07-18T13:39:41</time>
      </trkpt>
      <trkpt lat="45.34673" lon="6.15774">
        <ele>1553.0204</ele>
        <time>2021-07-18T13:39:43</time>
      </trkpt>
      <trkpt lat="45.34672" lon="6.15774">
        <ele>1552.8204</ele>
        <time>2021-07-18T13:39:53</time>
      </trkpt>
      <trkpt lat="45.34672" lon="6.15775">
        <ele>1552.8204</ele>
        <time>2021-07-18T13:39:54</time>
      </trkpt>
      <trkpt lat="45.34671" lon="6.15775">
        <ele>1552.8204</ele>
        <time>2021-07-18T13:39:55</time>
      </trkpt>
      <trkpt lat="45.34669" lon="6.15777">
        <ele>1552.8204</ele>
        <time>2021-07-18T13:39:58</time>
      </trkpt>
      <trkpt lat="45.34669" lon="6.15778">
        <ele>1552.8204</ele>
        <time>2021-07-18T13:39:59</time>
      </trkpt>
      <trkpt lat="45.34669" lon="6.15779">
        <ele>1552.8204</ele>
        <time>2021-07-18T13:40:00</time>
      </trkpt>
      <trkpt lat="45.34668" lon="6.1578">
        <ele>1552.8204</ele>
        <time>2021-07-18T13:40:01</time>
      </trkpt>
      <trkpt lat="45.34666" lon="6.15781">
        <ele>1554.6205</ele>
        <time>2021-07-18T13:40:03</time>
      </trkpt>
      <trkpt lat="45.34665" lon="6.15783">
        <ele>1554.6205</ele>
        <time>2021-07-18T13:40:05</time>
      </trkpt>
      <trkpt lat="45.34664" lon="6.15784">
        <ele>1554.6205</ele>
        <time>2021-07-18T13:40:07</time>
      </trkpt>
      <trkpt lat="45.34664" lon="6.15785">
        <ele>1554.6205</ele>
        <time>2021-07-18T13:40:09</time>
      </trkpt>
      <trkpt lat="45.34664" lon="6.15785">
        <ele>1556.2205</ele>
        <time>2021-07-18T13:40:13</time>
      </trkpt>
      <trkpt lat="45.3466" lon="6.15787">
        <ele>1556.2205</ele>
        <time>2021-07-18T13:40:17</time>
      </trkpt>
      <trkpt lat="45.3466" lon="6.15787">
        <ele>1556.2205</ele>
        <time>2021-07-18T13:40:19</time>
      </trkpt>
      <trkpt lat="45.34658" lon="6.15789">
        <ele>1558.7205</ele>
        <time>2021-07-18T13:40:23</time>
      </trkpt>
      <trkpt lat="45.34658" lon="6.15789">
        <ele>1558.7205</ele>
        <time>2021-07-18T13:40:24</time>
      </trkpt>
      <trkpt lat="45.34657" lon="6.1579">
        <ele>1558.7205</ele>
        <time>2021-07-18T13:40:25</time>
      </trkpt>
      <trkpt lat="45.34657" lon="6.1579">
        <ele>1558.7205</ele>
        <time>2021-07-18T13:40:26</time>
      </trkpt>
      <trkpt lat="45.34657" lon="6.15791">
        <ele>1557.4204</ele>
        <time>2021-07-18T13:40:37</time>
      </trkpt>
      <trkpt lat="45.34657" lon="6.15792">
        <ele>1557.4204</ele>
        <time>2021-07-18T13:40:38</time>
      </trkpt>
      <trkpt lat="45.34656" lon="6.15793">
        <ele>1557.4204</ele>
        <time>2021-07-18T13:40:39</time>
      </trkpt>
      <trkpt lat="45.34654" lon="6.15794">
        <ele>1563.2205</ele>
        <time>2021-07-18T13:40:43</time>
      </trkpt>
      <trkpt lat="45.34654" lon="6.15795">
        <ele>1563.2205</ele>
        <time>2021-07-18T13:40:44</time>
      </trkpt>
      <trkpt lat="45.34654" lon="6.15795">
        <ele>1563.2205</ele>
        <time>2021-07-18T13:40:45</time>
      </trkpt>
      <trkpt lat="45.34654" lon="6.15795">
        <ele>1563.2205</ele>
        <time>2021-07-18T13:40:46</time>
      </trkpt>
      <trkpt lat="45.34653" lon="6.15796">
        <ele>1563.2205</ele>
        <time>2021-07-18T13:40:47</time>
      </trkpt>
      <trkpt lat="45.34654" lon="6.15797">
        <ele>1563.2205</ele>
        <time>2021-07-18T13:40:48</time>
      </trkpt>
      <trkpt lat="45.34654" lon="6.15798">
        <ele>1563.2205</ele>
        <time>2021-07-18T13:40:49</time>
      </trkpt>
      <trkpt lat="45.34654" lon="6.15799">
        <ele>1563.2205</ele>
        <time>2021-07-18T13:40:50</time>
      </trkpt>
      <trkpt lat="45.34654" lon="6.15799">
        <ele>1563.2205</ele>
        <time>2021-07-18T13:40:51</time>
      </trkpt>
      <trkpt lat="45.34653" lon="6.158">
        <ele>1563.2205</ele>
        <time>2021-07-18T13:40:52</time>
      </trkpt>
      <trkpt lat="45.34652" lon="6.158">
        <ele>1564.6205</ele>
        <time>2021-07-18T13:40:53</time>
      </trkpt>
      <trkpt lat="45.3465" lon="6.158">
        <ele>1564.6205</ele>
        <time>2021-07-18T13:40:55</time>
      </trkpt>
      <trkpt lat="45.3465" lon="6.158">
        <ele>1564.6205</ele>
        <time>2021-07-18T13:40:56</time>
      </trkpt>
      <trkpt lat="45.34649" lon="6.158">
        <ele>1564.6205</ele>
        <time>2021-07-18T13:40:57</time>
      </trkpt>
      <trkpt lat="45.34649" lon="6.158">
        <ele>1564.6205</ele>
        <time>2021-07-18T13:40:58</time>
      </trkpt>
      <trkpt lat="45.34648" lon="6.158">
        <ele>1564.6205</ele>
        <time>2021-07-18T13:41:01</time>
      </trkpt>
      <trkpt lat="45.34648" lon="6.158">
        <ele>1564.6205</ele>
        <time>2021-07-18T13:41:02</time>
      </trkpt>
      <trkpt lat="45.34647" lon="6.158">
        <ele>1572.6205</ele>
        <time>2021-07-18T13:41:03</time>
      </trkpt>
      <trkpt lat="45.34647" lon="6.158">
        <ele>1572.6205</ele>
        <time>2021-07-18T13:41:04</time>
      </trkpt>
      <trkpt lat="45.34647" lon="6.158">
        <ele>1572.6205</ele>
        <time>2021-07-18T13:41:06</time>
      </trkpt>
      <trkpt lat="45.34647" lon="6.158">
        <ele>1572.6205</ele>
        <time>2021-07-18T13:41:07</time>
      </trkpt>
      <trkpt lat="45.34647" lon="6.158">
        <ele>1572.6205</ele>
        <time>2021-07-18T13:41:09</time>
      </trkpt>
      <trkpt lat="45.34646" lon="6.158">
        <ele>1572.6205</ele>
        <time>2021-07-18T13:41:10</time>
      </trkpt>
      <trkpt lat="45.34645" lon="6.15799">
        <ele>1572.6205</ele>
        <time>2021-07-18T13:41:12</time>
      </trkpt>
      <trkpt lat="45.34645" lon="6.158">
        <ele>1577.7205</ele>
        <time>2021-07-18T13:41:13</time>
      </trkpt>
      <trkpt lat="45.34644" lon="6.158">
        <ele>1577.7205</ele>
        <time>2021-07-18T13:41:15</time>
      </trkpt>
      <trkpt lat="45.3464" lon="6.15797">
        <ele>1577.7205</ele>
        <time>2021-07-18T13:41:21</time>
      </trkpt>
      <trkpt lat="45.34639" lon="6.15796">
        <ele>1577.7205</ele>
        <time>2021-07-18T13:41:22</time>
      </trkpt>
      <trkpt lat="45.34638" lon="6.15795">
        <ele>1575.5204</ele>
        <time>2021-07-18T13:41:23</time>
      </trkpt>
      <trkpt lat="45.34636" lon="6.15796">
        <ele>1575.5204</ele>
        <time>2021-07-18T13:41:25</time>
      </trkpt>
      <trkpt lat="45.34635" lon="6.15796">
        <ele>1575.5204</ele>
        <time>2021-07-18T13:41:26</time>
      </trkpt>
      <trkpt lat="45.34633" lon="6.15796">
        <ele>1575.5204</ele>
        <time>2021-07-18T13:41:28</time>
      </trkpt>
      <trkpt lat="45.3463" lon="6.15796">
        <ele>1575.5204</ele>
        <time>2021-07-18T13:41:31</time>
      </trkpt>
      <trkpt lat="45.3463" lon="6.15797">
        <ele>1575.5204</ele>
        <time>2021-07-18T13:41:32</time>
      </trkpt>
      <trkpt lat="45.34629" lon="6.15797">
        <ele>1575.5204</ele>
        <time>2021-07-18T13:41:34</time>
      </trkpt>
      <trkpt lat="45.34629" lon="6.15797">
        <ele>1575.5204</ele>
        <time>2021-07-18T13:41:35</time>
      </trkpt>
      <trkpt lat="45.34629" lon="6.15798">
        <ele>1575.5204</ele>
        <time>2021-07-18T13:41:39</time>
      </trkpt>
      <trkpt lat="45.34627" lon="6.15798">
        <ele>1575.5204</ele>
        <time>2021-07-18T13:41:43</time>
      </trkpt>
      <trkpt lat="45.34627" lon="6.15798">
        <ele>1575.5204</ele>
        <time>2021-07-18T13:41:51</time>
      </trkpt>
      <trkpt lat="45.34626" lon="6.15799">
        <ele>1567.4204</ele>
        <time>2021-07-18T13:41:54</time>
      </trkpt>
      <trkpt lat="45.34626" lon="6.158">
        <ele>1567.4204</ele>
        <time>2021-07-18T13:41:55</time>
      </trkpt>
      <trkpt lat="45.34625" lon="6.158">
        <ele>1567.4204</ele>
        <time>2021-07-18T13:41:56</time>
      </trkpt>
      <trkpt lat="45.34624" lon="6.15802">
        <ele>1567.4204</ele>
        <time>2021-07-18T13:41:58</time>
      </trkpt>
      <trkpt lat="45.34624" lon="6.15802">
        <ele>1567.4204</ele>
        <time>2021-07-18T13:41:59</time>
      </trkpt>
      <trkpt lat="45.34623" lon="6.15802">
        <ele>1567.4204</ele>
        <time>2021-07-18T13:42:01</time>
      </trkpt>
      <trkpt lat="45.34622" lon="6.15802">
        <ele>1567.4204</ele>
        <time>2021-07-18T13:42:02</time>
      </trkpt>
      <trkpt lat="45.3462" lon="6.15802">
        <ele>1569.1205</ele>
        <time>2021-07-18T13:42:03</time>
      </trkpt>
      <trkpt lat="45.34619" lon="6.15802">
        <ele>1569.1205</ele>
        <time>2021-07-18T13:42:05</time>
      </trkpt>
      <trkpt lat="45.34614" lon="6.15799">
        <ele>1569.1205</ele>
        <time>2021-07-18T13:42:10</time>
      </trkpt>
      <trkpt lat="45.34613" lon="6.15798">
        <ele>1569.1205</ele>
        <time>2021-07-18T13:42:11</time>
      </trkpt>
      <trkpt lat="45.34613" lon="6.15797">
        <ele>1569.5204</ele>
        <time>2021-07-18T13:42:14</time>
      </trkpt>
      <trkpt lat="45.34612" lon="6.15797">
        <ele>1569.5204</ele>
        <time>2021-07-18T13:42:16</time>
      </trkpt>
      <trkpt lat="45.346" lon="6.15793">
        <ele>1566.8204</ele>
        <time>2021-07-18T13:42:31</time>
      </trkpt>
      <trkpt lat="45.34599" lon="6.15793">
        <ele>1571.5204</ele>
        <time>2021-07-18T13:42:33</time>
      </trkpt>
      <trkpt lat="45.34599" lon="6.15793">
        <ele>1571.5204</ele>
        <time>2021-07-18T13:42:34</time>
      </trkpt>
      <trkpt lat="45.34599" lon="6.15793">
        <ele>1571.5204</ele>
        <time>2021-07-18T13:42:37</time>
      </trkpt>
      <trkpt lat="45.34599" lon="6.15793">
        <ele>1571.5204</ele>
        <time>2021-07-18T13:42:38</time>
      </trkpt>
      <trkpt lat="45.34599" lon="6.15792">
        <ele>1571.5204</ele>
        <time>2021-07-18T13:42:39</time>
      </trkpt>
      <trkpt lat="45.34598" lon="6.15791">
        <ele>1571.5204</ele>
        <time>2021-07-18T13:42:40</time>
      </trkpt>
      <trkpt lat="45.34599" lon="6.1579">
        <ele>1569.0204</ele>
        <time>2021-07-18T13:42:49</time>
      </trkpt>
      <trkpt lat="45.34599" lon="6.1579">
        <ele>1569.0204</ele>
        <time>2021-07-18T13:42:50</time>
      </trkpt>
      <trkpt lat="45.34599" lon="6.15789">
        <ele>1574.0204</ele>
        <time>2021-07-18T13:42:53</time>
      </trkpt>
      <trkpt lat="45.34599" lon="6.1579">
        <ele>1574.0204</ele>
        <time>2021-07-18T13:42:55</time>
      </trkpt>
      <trkpt lat="45.34598" lon="6.15791">
        <ele>1577.5204</ele>
        <time>2021-07-18T13:43:12</time>
      </trkpt>
      <trkpt lat="45.34597" lon="6.15791">
        <ele>1581.3204</ele>
        <time>2021-07-18T13:43:13</time>
      </trkpt>
      <trkpt lat="45.34596" lon="6.15791">
        <ele>1581.3204</ele>
        <time>2021-07-18T13:43:14</time>
      </trkpt>
      <trkpt lat="45.34595" lon="6.15792">
        <ele>1581.3204</ele>
        <time>2021-07-18T13:43:16</time>
      </trkpt>
      <trkpt lat="45.34594" lon="6.15791">
        <ele>1581.3204</ele>
        <time>2021-07-18T13:43:17</time>
      </trkpt>
      <trkpt lat="45.34594" lon="6.15791">
        <ele>1581.3204</ele>
        <time>2021-07-18T13:43:18</time>
      </trkpt>
      <trkpt lat="45.34593" lon="6.1579">
        <ele>1581.3204</ele>
        <time>2021-07-18T13:43:19</time>
      </trkpt>
      <trkpt lat="45.34592" lon="6.1579">
        <ele>1581.3204</ele>
        <time>2021-07-18T13:43:20</time>
      </trkpt>
      <trkpt lat="45.3459" lon="6.1579">
        <ele>1581.3204</ele>
        <time>2021-07-18T13:43:22</time>
      </trkpt>
      <trkpt lat="45.34588" lon="6.15789">
        <ele>1582.7205</ele>
        <time>2021-07-18T13:43:24</time>
      </trkpt>
      <trkpt lat="45.34587" lon="6.15789">
        <ele>1582.7205</ele>
        <time>2021-07-18T13:43:25</time>
      </trkpt>
      <trkpt lat="45.34584" lon="6.15788">
        <ele>1582.7205</ele>
        <time>2021-07-18T13:43:27</time>
      </trkpt>
      <trkpt lat="45.34577" lon="6.15786">
        <ele>1584.3204</ele>
        <time>2021-07-18T13:43:36</time>
      </trkpt>
      <trkpt lat="45.34576" lon="6.15786">
        <ele>1584.3204</ele>
        <time>2021-07-18T13:43:39</time>
      </trkpt>
      <trkpt lat="45.34566" lon="6.15783">
        <ele>1584.3204</ele>
        <time>2021-07-18T13:43:52</time>
      </trkpt>
      <trkpt lat="45.34565" lon="6.15783">
        <ele>1584.3204</ele>
        <time>2021-07-18T13:43:53</time>
      </trkpt>
      <trkpt lat="45.34563" lon="6.15783">
        <ele>1584.3204</ele>
        <time>2021-07-18T13:43:55</time>
      </trkpt>
      <trkpt lat="45.34555" lon="6.15782">
        <ele>1581.9204</ele>
        <time>2021-07-18T13:44:06</time>
      </trkpt>
      <trkpt lat="45.3455" lon="6.15784">
        <ele>1582.6871</ele>
        <time>2021-07-18T13:44:19</time>
      </trkpt>
      <trkpt lat="45.3455" lon="6.15783">
        <ele>1582.6871</ele>
        <time>2021-07-18T13:44:20</time>
      </trkpt>
      <trkpt lat="45.34549" lon="6.15783">
        <ele>1582.6871</ele>
        <time>2021-07-18T13:44:22</time>
      </trkpt>
      <trkpt lat="45.34549" lon="6.1578">
        <ele>1583.7205</ele>
        <time>2021-07-18T13:44:24</time>
      </trkpt>
      <trkpt lat="45.34547" lon="6.15774">
        <ele>1583.7205</ele>
        <time>2021-07-18T13:44:31</time>
      </trkpt>
      <trkpt lat="45.34547" lon="6.15774">
        <ele>1583.7205</ele>
        <time>2021-07-18T13:44:32</time>
      </trkpt>
      <trkpt lat="45.34545" lon="6.15771">
        <ele>1586.0204</ele>
        <time>2021-07-18T13:44:37</time>
      </trkpt>
      <trkpt lat="45.34543" lon="6.1577">
        <ele>1586.0204</ele>
        <time>2021-07-18T13:44:39</time>
      </trkpt>
      <trkpt lat="45.34543" lon="6.15769">
        <ele>1586.0204</ele>
        <time>2021-07-18T13:44:40</time>
      </trkpt>
      <trkpt lat="45.34543" lon="6.15769">
        <ele>1586.0204</ele>
        <time>2021-07-18T13:44:41</time>
      </trkpt>
      <trkpt lat="45.34541" lon="6.15768">
        <ele>1587.9204</ele>
        <time>2021-07-18T13:44:44</time>
      </trkpt>
      <trkpt lat="45.34542" lon="6.15767">
        <ele>1587.9204</ele>
        <time>2021-07-18T13:44:45</time>
      </trkpt>
      <trkpt lat="45.34542" lon="6.15767">
        <ele>1587.9204</ele>
        <time>2021-07-18T13:44:46</time>
      </trkpt>
      <trkpt lat="45.34543" lon="6.15767">
        <ele>1587.9204</ele>
        <time>2021-07-18T13:44:47</time>
      </trkpt>
      <trkpt lat="45.34542" lon="6.15766">
        <ele>1587.9204</ele>
        <time>2021-07-18T13:44:48</time>
      </trkpt>
      <trkpt lat="45.34542" lon="6.15765">
        <ele>1587.9204</ele>
        <time>2021-07-18T13:44:49</time>
      </trkpt>
      <trkpt lat="45.34542" lon="6.15764">
        <ele>1587.9204</ele>
        <time>2021-07-18T13:44:50</time>
      </trkpt>
      <trkpt lat="45.34543" lon="6.15763">
        <ele>1587.9204</ele>
        <time>2021-07-18T13:44:51</time>
      </trkpt>
      <trkpt lat="45.34545" lon="6.15763">
        <ele>1588.7205</ele>
        <time>2021-07-18T13:44:54</time>
      </trkpt>
      <trkpt lat="45.34544" lon="6.15763">
        <ele>1588.7205</ele>
        <time>2021-07-18T13:44:55</time>
      </trkpt>
      <trkpt lat="45.34544" lon="6.15771">
        <ele>1588.7205</ele>
        <time>2021-07-18T13:45:05</time>
      </trkpt>
      <trkpt lat="45.34541" lon="6.1578">
        <ele>1593.0204</ele>
        <time>2021-07-18T13:45:15</time>
      </trkpt>
      <trkpt lat="45.34538" lon="6.1578">
        <ele>1593.0204</ele>
        <time>2021-07-18T13:45:18</time>
      </trkpt>
      <trkpt lat="45.34536" lon="6.15778">
        <ele>1593.0204</ele>
        <time>2021-07-18T13:45:22</time>
      </trkpt>
      <trkpt lat="45.34534" lon="6.15774">
        <ele>1594.8538</ele>
        <time>2021-07-18T13:45:28</time>
      </trkpt>
      <trkpt lat="45.34532" lon="6.15775">
        <ele>1595.1205</ele>
        <time>2021-07-18T13:45:34</time>
      </trkpt>
      <trkpt lat="45.34531" lon="6.15775">
        <ele>1595.1205</ele>
        <time>2021-07-18T13:45:35</time>
      </trkpt>
      <trkpt lat="45.34531" lon="6.15776">
        <ele>1595.1205</ele>
        <time>2021-07-18T13:45:37</time>
      </trkpt>
      <trkpt lat="45.34529" lon="6.15779">
        <ele>1598.0204</ele>
        <time>2021-07-18T13:45:43</time>
      </trkpt>
      <trkpt lat="45.34527" lon="6.15777">
        <ele>1598.0204</ele>
        <time>2021-07-18T13:45:47</time>
      </trkpt>
      <trkpt lat="45.34525" lon="6.15775">
        <ele>1598.0204</ele>
        <time>2021-07-18T13:45:51</time>
      </trkpt>
      <trkpt lat="45.3452" lon="6.15772">
        <ele>1599.2205</ele>
        <time>2021-07-18T13:46:02</time>
      </trkpt>
      <trkpt lat="45.34518" lon="6.15773">
        <ele>1599.3204</ele>
        <time>2021-07-18T13:46:07</time>
      </trkpt>
      <trkpt lat="45.34518" lon="6.15773">
        <ele>1599.3204</ele>
        <time>2021-07-18T13:46:08</time>
      </trkpt>
      <trkpt lat="45.34521" lon="6.15768">
        <ele>1600.9204</ele>
        <time>2021-07-18T13:46:26</time>
      </trkpt>
      <trkpt lat="45.34518" lon="6.15772">
        <ele>1605.9204</ele>
        <time>2021-07-18T13:46:33</time>
      </trkpt>
      <trkpt lat="45.34518" lon="6.15772">
        <ele>1605.9204</ele>
        <time>2021-07-18T13:46:34</time>
      </trkpt>
      <trkpt lat="45.34515" lon="6.15769">
        <ele>1606.3204</ele>
        <time>2021-07-18T13:46:43</time>
      </trkpt>
      <trkpt lat="45.34512" lon="6.1577">
        <ele>1606.3204</ele>
        <time>2021-07-18T13:46:49</time>
      </trkpt>
      <trkpt lat="45.34509" lon="6.15768">
        <ele>1607.9204</ele>
        <time>2021-07-18T13:46:55</time>
      </trkpt>
      <trkpt lat="45.34505" lon="6.15767">
        <ele>1607.9204</ele>
        <time>2021-07-18T13:47:02</time>
      </trkpt>
      <trkpt lat="45.34505" lon="6.15766">
        <ele>1608.2205</ele>
        <time>2021-07-18T13:47:03</time>
      </trkpt>
      <trkpt lat="45.34503" lon="6.15765">
        <ele>1608.2205</ele>
        <time>2021-07-18T13:47:08</time>
      </trkpt>
      <trkpt lat="45.34503" lon="6.15764">
        <ele>1608.2205</ele>
        <time>2021-07-18T13:47:10</time>
      </trkpt>
      <trkpt lat="45.34503" lon="6.15764">
        <ele>1608.2205</ele>
        <time>2021-07-18T13:47:11</time>
      </trkpt>
      <trkpt lat="45.34501" lon="6.15764">
        <ele>1608.9204</ele>
        <time>2021-07-18T13:47:14</time>
      </trkpt>
      <trkpt lat="45.34498" lon="6.15765">
        <ele>1608.9204</ele>
        <time>2021-07-18T13:47:22</time>
      </trkpt>
      <trkpt lat="45.34498" lon="6.15766">
        <ele>1610.8204</ele>
        <time>2021-07-18T13:47:24</time>
      </trkpt>
      <trkpt lat="45.34498" lon="6.15766">
        <ele>1610.8204</ele>
        <time>2021-07-18T13:47:25</time>
      </trkpt>
      <trkpt lat="45.34498" lon="6.15767">
        <ele>1610.8204</ele>
        <time>2021-07-18T13:47:26</time>
      </trkpt>
      <trkpt lat="45.34498" lon="6.15768">
        <ele>1610.8204</ele>
        <time>2021-07-18T13:47:27</time>
      </trkpt>
      <trkpt lat="45.34497" lon="6.15769">
        <ele>1610.8204</ele>
        <time>2021-07-18T13:47:29</time>
      </trkpt>
      <trkpt lat="45.34497" lon="6.15769">
        <ele>1610.8204</ele>
        <time>2021-07-18T13:47:30</time>
      </trkpt>
      <trkpt lat="45.34497" lon="6.1577">
        <ele>1610.8204</ele>
        <time>2021-07-18T13:47:31</time>
      </trkpt>
      <trkpt lat="45.34496" lon="6.1577">
        <ele>1610.8204</ele>
        <time>2021-07-18T13:47:32</time>
      </trkpt>
      <trkpt lat="45.34495" lon="6.15773">
        <ele>1611.8204</ele>
        <time>2021-07-18T13:47:37</time>
      </trkpt>
      <trkpt lat="45.34491" lon="6.15778">
        <ele>1613.7205</ele>
        <time>2021-07-18T13:47:45</time>
      </trkpt>
      <trkpt lat="45.34487" lon="6.15777">
        <ele>1617.3204</ele>
        <time>2021-07-18T13:47:54</time>
      </trkpt>
      <trkpt lat="45.34485" lon="6.15774">
        <ele>1617.3204</ele>
        <time>2021-07-18T13:47:58</time>
      </trkpt>
      <trkpt lat="45.34484" lon="6.15769">
        <ele>1619.0204</ele>
        <time>2021-07-18T13:48:04</time>
      </trkpt>
      <trkpt lat="45.34483" lon="6.15768">
        <ele>1619.0204</ele>
        <time>2021-07-18T13:48:08</time>
      </trkpt>
      <trkpt lat="45.34483" lon="6.15768">
        <ele>1618.6205</ele>
        <time>2021-07-18T13:48:15</time>
      </trkpt>
      <trkpt lat="45.34483" lon="6.15768">
        <ele>1618.6205</ele>
        <time>2021-07-18T13:48:16</time>
      </trkpt>
      <trkpt lat="45.34478" lon="6.15771">
        <ele>1620.8204</ele>
        <time>2021-07-18T13:48:26</time>
      </trkpt>
      <trkpt lat="45.34476" lon="6.15773">
        <ele>1620.8204</ele>
        <time>2021-07-18T13:48:31</time>
      </trkpt>
      <trkpt lat="45.34474" lon="6.1578">
        <ele>1622.8204</ele>
        <time>2021-07-18T13:48:41</time>
      </trkpt>
      <trkpt lat="45.34472" lon="6.15781">
        <ele>1626.2205</ele>
        <time>2021-07-18T13:48:48</time>
      </trkpt>
      <trkpt lat="45.3447" lon="6.15782">
        <ele>1626.3204</ele>
        <time>2021-07-18T13:48:53</time>
      </trkpt>
      <trkpt lat="45.3447" lon="6.15782">
        <ele>1626.3204</ele>
        <time>2021-07-18T13:48:54</time>
      </trkpt>
      <trkpt lat="45.3447" lon="6.15783">
        <ele>1626.3204</ele>
        <time>2021-07-18T13:48:55</time>
      </trkpt>
      <trkpt lat="45.34467" lon="6.15786">
        <ele>1626.3204</ele>
        <time>2021-07-18T13:49:00</time>
      </trkpt>
      <trkpt lat="45.34465" lon="6.15788">
        <ele>1628.3204</ele>
        <time>2021-07-18T13:49:04</time>
      </trkpt>
      <trkpt lat="45.34464" lon="6.15791">
        <ele>1628.3204</ele>
        <time>2021-07-18T13:49:09</time>
      </trkpt>
      <trkpt lat="45.34455" lon="6.15796">
        <ele>1629.6205</ele>
        <time>2021-07-18T13:49:27</time>
      </trkpt>
      <trkpt lat="45.34454" lon="6.15797">
        <ele>1629.6205</ele>
        <time>2021-07-18T13:49:31</time>
      </trkpt>
      <trkpt lat="45.34454" lon="6.15798">
        <ele>1629.6205</ele>
        <time>2021-07-18T13:49:32</time>
      </trkpt>
      <trkpt lat="45.34455" lon="6.15801">
        <ele>1630.1205</ele>
        <time>2021-07-18T13:49:36</time>
      </trkpt>
      <trkpt lat="45.34455" lon="6.15802">
        <ele>1630.1205</ele>
        <time>2021-07-18T13:49:39</time>
      </trkpt>
      <trkpt lat="45.34456" lon="6.15802">
        <ele>1630.1205</ele>
        <time>2021-07-18T13:49:41</time>
      </trkpt>
      <trkpt lat="45.34456" lon="6.15805">
        <ele>1631.9204</ele>
        <time>2021-07-18T13:49:44</time>
      </trkpt>
      <trkpt lat="45.34454" lon="6.15807">
        <ele>1631.9204</ele>
        <time>2021-07-18T13:49:47</time>
      </trkpt>
      <trkpt lat="45.3445" lon="6.15807">
        <ele>1632.7205</ele>
        <time>2021-07-18T13:49:53</time>
      </trkpt>
      <trkpt lat="45.34448" lon="6.15812">
        <ele>1632.7205</ele>
        <time>2021-07-18T13:50:00</time>
      </trkpt>
      <trkpt lat="45.34447" lon="6.15814">
        <ele>1632.0204</ele>
        <time>2021-07-18T13:50:04</time>
      </trkpt>
      <trkpt lat="45.34443" lon="6.15813">
        <ele>1632.0204</ele>
        <time>2021-07-18T13:50:10</time>
      </trkpt>
      <trkpt lat="45.3444" lon="6.15812">
        <ele>1633.3204</ele>
        <time>2021-07-18T13:50:14</time>
      </trkpt>
      <trkpt lat="45.34437" lon="6.15809">
        <ele>1633.3204</ele>
        <time>2021-07-18T13:50:19</time>
      </trkpt>
      <trkpt lat="45.34435" lon="6.15807">
        <ele>1633.0204</ele>
        <time>2021-07-18T13:50:23</time>
      </trkpt>
      <trkpt lat="45.34434" lon="6.15806">
        <ele>1633.0204</ele>
        <time>2021-07-18T13:50:26</time>
      </trkpt>
      <trkpt lat="45.34431" lon="6.15806">
        <ele>1633.0204</ele>
        <time>2021-07-18T13:50:33</time>
      </trkpt>
      <trkpt lat="45.3443" lon="6.15808">
        <ele>1633.0204</ele>
        <time>2021-07-18T13:50:39</time>
      </trkpt>
      <trkpt lat="45.3443" lon="6.15808">
        <ele>1633.0204</ele>
        <time>2021-07-18T13:50:42</time>
      </trkpt>
      <trkpt lat="45.3443" lon="6.15809">
        <ele>1635.0204</ele>
        <time>2021-07-18T13:50:43</time>
      </trkpt>
      <trkpt lat="45.3443" lon="6.15813">
        <ele>1635.0204</ele>
        <time>2021-07-18T13:50:50</time>
      </trkpt>
      <trkpt lat="45.34428" lon="6.15814">
        <ele>1636.3204</ele>
        <time>2021-07-18T13:50:54</time>
      </trkpt>
      <trkpt lat="45.34428" lon="6.15815">
        <ele>1636.3204</ele>
        <time>2021-07-18T13:50:55</time>
      </trkpt>
      <trkpt lat="45.34428" lon="6.15816">
        <ele>1636.3204</ele>
        <time>2021-07-18T13:50:57</time>
      </trkpt>
      <trkpt lat="45.34431" lon="6.15823">
        <ele>1639.1205</ele>
        <time>2021-07-18T13:51:07</time>
      </trkpt>
      <trkpt lat="45.34431" lon="6.15823">
        <ele>1639.1205</ele>
        <time>2021-07-18T13:51:08</time>
      </trkpt>
      <trkpt lat="45.34431" lon="6.15825">
        <ele>1639.1205</ele>
        <time>2021-07-18T13:51:11</time>
      </trkpt>
      <trkpt lat="45.34429" lon="6.15826">
        <ele>1641.1205</ele>
        <time>2021-07-18T13:51:16</time>
      </trkpt>
      <trkpt lat="45.34429" lon="6.15827">
        <ele>1641.1205</ele>
        <time>2021-07-18T13:51:17</time>
      </trkpt>
      <trkpt lat="45.34429" lon="6.15828">
        <ele>1641.1205</ele>
        <time>2021-07-18T13:51:19</time>
      </trkpt>
      <trkpt lat="45.34429" lon="6.15828">
        <ele>1641.1205</ele>
        <time>2021-07-18T13:51:20</time>
      </trkpt>
      <trkpt lat="45.34429" lon="6.15829">
        <ele>1641.1205</ele>
        <time>2021-07-18T13:51:22</time>
      </trkpt>
      <trkpt lat="45.34429" lon="6.15829">
        <ele>1642.5204</ele>
        <time>2021-07-18T13:51:25</time>
      </trkpt>
      <trkpt lat="45.3443" lon="6.15829">
        <ele>1642.5204</ele>
        <time>2021-07-18T13:51:26</time>
      </trkpt>
      <trkpt lat="45.3443" lon="6.1583">
        <ele>1642.5204</ele>
        <time>2021-07-18T13:51:27</time>
      </trkpt>
      <trkpt lat="45.3443" lon="6.15831">
        <ele>1642.5204</ele>
        <time>2021-07-18T13:51:29</time>
      </trkpt>
      <trkpt lat="45.3443" lon="6.15841">
        <ele>1642.6205</ele>
        <time>2021-07-18T13:51:42</time>
      </trkpt>
      <trkpt lat="45.3443" lon="6.15843">
        <ele>1646.4204</ele>
        <time>2021-07-18T13:51:46</time>
      </trkpt>
      <trkpt lat="45.34429" lon="6.15846">
        <ele>1648.1205</ele>
        <time>2021-07-18T13:51:53</time>
      </trkpt>
      <trkpt lat="45.34429" lon="6.15846">
        <ele>1648.1205</ele>
        <time>2021-07-18T13:51:55</time>
      </trkpt>
      <trkpt lat="45.34428" lon="6.15846">
        <ele>1648.1205</ele>
        <time>2021-07-18T13:51:56</time>
      </trkpt>
      <trkpt lat="45.3442" lon="6.15847">
        <ele>1652.3204</ele>
        <time>2021-07-18T13:52:13</time>
      </trkpt>
      <trkpt lat="45.34418" lon="6.15848">
        <ele>1652.3204</ele>
        <time>2021-07-18T13:52:17</time>
      </trkpt>
      <trkpt lat="45.34413" lon="6.15848">
        <ele>1652.7205</ele>
        <time>2021-07-18T13:52:25</time>
      </trkpt>
      <trkpt lat="45.3441" lon="6.15849">
        <ele>1652.7205</ele>
        <time>2021-07-18T13:52:29</time>
      </trkpt>
      <trkpt lat="45.34407" lon="6.15849">
        <ele>1653.8204</ele>
        <time>2021-07-18T13:52:33</time>
      </trkpt>
      <trkpt lat="45.34402" lon="6.15852">
        <ele>1653.8204</ele>
        <time>2021-07-18T13:52:42</time>
      </trkpt>
      <trkpt lat="45.344" lon="6.15854">
        <ele>1652.8204</ele>
        <time>2021-07-18T13:52:46</time>
      </trkpt>
      <trkpt lat="45.344" lon="6.15855">
        <ele>1652.8204</ele>
        <time>2021-07-18T13:52:47</time>
      </trkpt>
      <trkpt lat="45.34401" lon="6.15857">
        <ele>1652.8204</ele>
        <time>2021-07-18T13:52:51</time>
      </trkpt>
      <trkpt lat="45.34401" lon="6.1586">
        <ele>1654.8204</ele>
        <time>2021-07-18T13:52:54</time>
      </trkpt>
      <trkpt lat="45.34401" lon="6.1586">
        <ele>1654.8204</ele>
        <time>2021-07-18T13:52:55</time>
      </trkpt>
      <trkpt lat="45.34401" lon="6.15861">
        <ele>1654.8204</ele>
        <time>2021-07-18T13:52:56</time>
      </trkpt>
      <trkpt lat="45.34401" lon="6.15862">
        <ele>1654.8204</ele>
        <time>2021-07-18T13:52:57</time>
      </trkpt>
      <trkpt lat="45.34401" lon="6.15862">
        <ele>1654.8204</ele>
        <time>2021-07-18T13:52:58</time>
      </trkpt>
      <trkpt lat="45.34401" lon="6.15863">
        <ele>1654.8204</ele>
        <time>2021-07-18T13:52:59</time>
      </trkpt>
      <trkpt lat="45.344" lon="6.15864">
        <ele>1654.8204</ele>
        <time>2021-07-18T13:53:02</time>
      </trkpt>
      <trkpt lat="45.344" lon="6.15864">
        <ele>1655.0204</ele>
        <time>2021-07-18T13:53:03</time>
      </trkpt>
      <trkpt lat="45.34399" lon="6.15867">
        <ele>1655.0204</ele>
        <time>2021-07-18T13:53:06</time>
      </trkpt>
      <trkpt lat="45.34397" lon="6.15868">
        <ele>1655.0204</ele>
        <time>2021-07-18T13:53:09</time>
      </trkpt>
      <trkpt lat="45.34393" lon="6.15869">
        <ele>1658.0204</ele>
        <time>2021-07-18T13:53:16</time>
      </trkpt>
      <trkpt lat="45.34395" lon="6.15873">
        <ele>1659.4204</ele>
        <time>2021-07-18T13:53:23</time>
      </trkpt>
      <trkpt lat="45.34396" lon="6.15875">
        <ele>1659.4204</ele>
        <time>2021-07-18T13:53:29</time>
      </trkpt>
      <trkpt lat="45.34396" lon="6.15878">
        <ele>1659.4204</ele>
        <time>2021-07-18T13:53:32</time>
      </trkpt>
      <trkpt lat="45.34396" lon="6.1588">
        <ele>1659.3204</ele>
        <time>2021-07-18T13:53:35</time>
      </trkpt>
      <trkpt lat="45.34396" lon="6.1588">
        <ele>1659.3204</ele>
        <time>2021-07-18T13:53:36</time>
      </trkpt>
      <trkpt lat="45.34396" lon="6.15881">
        <ele>1659.3204</ele>
        <time>2021-07-18T13:53:38</time>
      </trkpt>
      <trkpt lat="45.34395" lon="6.15882">
        <ele>1659.3204</ele>
        <time>2021-07-18T13:53:40</time>
      </trkpt>
      <trkpt lat="45.34395" lon="6.15883">
        <ele>1659.3204</ele>
        <time>2021-07-18T13:53:41</time>
      </trkpt>
      <trkpt lat="45.3439" lon="6.1589">
        <ele>1660.1205</ele>
        <time>2021-07-18T13:53:51</time>
      </trkpt>
      <trkpt lat="45.34388" lon="6.15897">
        <ele>1661.2205</ele>
        <time>2021-07-18T13:53:59</time>
      </trkpt>
      <trkpt lat="45.34386" lon="6.15902">
        <ele>1661.8204</ele>
        <time>2021-07-18T13:54:05</time>
      </trkpt>
      <trkpt lat="45.34386" lon="6.15907">
        <ele>1661.8204</ele>
        <time>2021-07-18T13:54:09</time>
      </trkpt>
      <trkpt lat="45.34373" lon="6.15926">
        <ele>1663.7205</ele>
        <time>2021-07-18T13:54:35</time>
      </trkpt>
      <trkpt lat="45.34372" lon="6.15926">
        <ele>1663.7205</ele>
        <time>2021-07-18T13:54:36</time>
      </trkpt>
      <trkpt lat="45.34372" lon="6.15927">
        <ele>1663.7205</ele>
        <time>2021-07-18T13:54:37</time>
      </trkpt>
      <trkpt lat="45.34372" lon="6.15927">
        <ele>1663.7205</ele>
        <time>2021-07-18T13:54:38</time>
      </trkpt>
      <trkpt lat="45.34373" lon="6.1593">
        <ele>1663.7205</ele>
        <time>2021-07-18T13:54:41</time>
      </trkpt>
      <trkpt lat="45.34373" lon="6.15933">
        <ele>1665.7205</ele>
        <time>2021-07-18T13:54:46</time>
      </trkpt>
      <trkpt lat="45.34369" lon="6.15935">
        <ele>1667.3204</ele>
        <time>2021-07-18T13:54:53</time>
      </trkpt>
      <trkpt lat="45.34365" lon="6.1594">
        <ele>1668.8204</ele>
        <time>2021-07-18T13:55:05</time>
      </trkpt>
      <trkpt lat="45.34362" lon="6.15941">
        <ele>1668.8204</ele>
        <time>2021-07-18T13:55:11</time>
      </trkpt>
      <trkpt lat="45.34361" lon="6.15941">
        <ele>1669.7205</ele>
        <time>2021-07-18T13:55:14</time>
      </trkpt>
      <trkpt lat="45.34361" lon="6.15942">
        <ele>1669.7205</ele>
        <time>2021-07-18T13:55:15</time>
      </trkpt>
      <trkpt lat="45.3436" lon="6.15943">
        <ele>1669.7205</ele>
        <time>2021-07-18T13:55:17</time>
      </trkpt>
      <trkpt lat="45.3436" lon="6.15943">
        <ele>1669.7205</ele>
        <time>2021-07-18T13:55:18</time>
      </trkpt>
      <trkpt lat="45.34357" lon="6.15949">
        <ele>1671.2205</ele>
        <time>2021-07-18T13:55:26</time>
      </trkpt>
      <trkpt lat="45.34354" lon="6.15953">
        <ele>1671.2205</ele>
        <time>2021-07-18T13:55:31</time>
      </trkpt>
      <trkpt lat="45.34354" lon="6.15956">
        <ele>1671.3204</ele>
        <time>2021-07-18T13:55:35</time>
      </trkpt>
      <trkpt lat="45.34351" lon="6.1596">
        <ele>1671.3204</ele>
        <time>2021-07-18T13:55:41</time>
      </trkpt>
      <trkpt lat="45.34346" lon="6.15961">
        <ele>1671.5204</ele>
        <time>2021-07-18T13:55:49</time>
      </trkpt>
      <trkpt lat="45.34343" lon="6.15964">
        <ele>1674.8204</ele>
        <time>2021-07-18T13:55:57</time>
      </trkpt>
      <trkpt lat="45.3434" lon="6.15966">
        <ele>1674.8204</ele>
        <time>2021-07-18T13:56:01</time>
      </trkpt>
      <trkpt lat="45.34339" lon="6.15967">
        <ele>1676.5204</ele>
        <time>2021-07-18T13:56:05</time>
      </trkpt>
      <trkpt lat="45.34339" lon="6.15968">
        <ele>1676.5204</ele>
        <time>2021-07-18T13:56:07</time>
      </trkpt>
      <trkpt lat="45.34338" lon="6.15968">
        <ele>1676.5204</ele>
        <time>2021-07-18T13:56:08</time>
      </trkpt>
      <trkpt lat="45.34334" lon="6.1597">
        <ele>1677.2205</ele>
        <time>2021-07-18T13:56:15</time>
      </trkpt>
      <trkpt lat="45.34329" lon="6.15973">
        <ele>1677.3204</ele>
        <time>2021-07-18T13:56:24</time>
      </trkpt>
      <trkpt lat="45.34324" lon="6.15976">
        <ele>1679.1871</ele>
        <time>2021-07-18T13:56:35</time>
      </trkpt>
      <trkpt lat="45.34323" lon="6.15977">
        <ele>1679.1871</ele>
        <time>2021-07-18T13:56:37</time>
      </trkpt>
      <trkpt lat="45.34322" lon="6.15977">
        <ele>1679.1871</ele>
        <time>2021-07-18T13:56:38</time>
      </trkpt>
      <trkpt lat="45.34321" lon="6.1598">
        <ele>1679.1871</ele>
        <time>2021-07-18T13:56:42</time>
      </trkpt>
      <trkpt lat="45.34318" lon="6.15983">
        <ele>1678.8204</ele>
        <time>2021-07-18T13:56:49</time>
      </trkpt>
      <trkpt lat="45.34314" lon="6.15986">
        <ele>1679.8204</ele>
        <time>2021-07-18T13:56:57</time>
      </trkpt>
      <trkpt lat="45.34313" lon="6.15988">
        <ele>1679.8204</ele>
        <time>2021-07-18T13:57:02</time>
      </trkpt>
      <trkpt lat="45.34313" lon="6.15988">
        <ele>1680.9204</ele>
        <time>2021-07-18T13:57:04</time>
      </trkpt>
      <trkpt lat="45.34312" lon="6.15989">
        <ele>1680.9204</ele>
        <time>2021-07-18T13:57:06</time>
      </trkpt>
      <trkpt lat="45.34312" lon="6.1599">
        <ele>1680.9204</ele>
        <time>2021-07-18T13:57:07</time>
      </trkpt>
      <trkpt lat="45.3431" lon="6.15994">
        <ele>1681.9204</ele>
        <time>2021-07-18T13:57:13</time>
      </trkpt>
      <trkpt lat="45.34307" lon="6.15996">
        <ele>1681.9204</ele>
        <time>2021-07-18T13:57:20</time>
      </trkpt>
      <trkpt lat="45.34304" lon="6.15998">
        <ele>1684.9204</ele>
        <time>2021-07-18T13:57:24</time>
      </trkpt>
      <trkpt lat="45.34304" lon="6.15998">
        <ele>1684.9204</ele>
        <time>2021-07-18T13:57:27</time>
      </trkpt>
      <trkpt lat="45.34304" lon="6.15999">
        <ele>1684.9204</ele>
        <time>2021-07-18T13:57:28</time>
      </trkpt>
      <trkpt lat="45.34304" lon="6.15999">
        <ele>1684.9204</ele>
        <time>2021-07-18T13:57:29</time>
      </trkpt>
      <trkpt lat="45.34303" lon="6.16001">
        <ele>1686.7205</ele>
        <time>2021-07-18T13:57:33</time>
      </trkpt>
      <trkpt lat="45.34302" lon="6.16001">
        <ele>1686.7205</ele>
        <time>2021-07-18T13:57:35</time>
      </trkpt>
      <trkpt lat="45.34302" lon="6.16003">
        <ele>1686.7205</ele>
        <time>2021-07-18T13:57:38</time>
      </trkpt>
      <trkpt lat="45.34302" lon="6.16003">
        <ele>1686.7205</ele>
        <time>2021-07-18T13:57:41</time>
      </trkpt>
      <trkpt lat="45.34303" lon="6.16002">
        <ele>1686.7205</ele>
        <time>2021-07-18T13:57:42</time>
      </trkpt>
      <trkpt lat="45.34303" lon="6.16001">
        <ele>1687.0204</ele>
        <time>2021-07-18T13:58:01</time>
      </trkpt>
      <trkpt lat="45.34302" lon="6.16002">
        <ele>1687.0204</ele>
        <time>2021-07-18T13:58:03</time>
      </trkpt>
      <trkpt lat="45.34302" lon="6.16002">
        <ele>1687.0204</ele>
        <time>2021-07-18T13:58:04</time>
      </trkpt>
      <trkpt lat="45.34301" lon="6.16003">
        <ele>1687.0204</ele>
        <time>2021-07-18T13:58:05</time>
      </trkpt>
      <trkpt lat="45.34299" lon="6.16007">
        <ele>1687.0204</ele>
        <time>2021-07-18T13:58:12</time>
      </trkpt>
      <trkpt lat="45.34298" lon="6.16007">
        <ele>1688.8204</ele>
        <time>2021-07-18T13:58:13</time>
      </trkpt>
      <trkpt lat="45.34296" lon="6.1601">
        <ele>1688.8204</ele>
        <time>2021-07-18T13:58:20</time>
      </trkpt>
      <trkpt lat="45.34296" lon="6.1601">
        <ele>1689.0204</ele>
        <time>2021-07-18T13:58:25</time>
      </trkpt>
      <trkpt lat="45.34295" lon="6.1601">
        <ele>1689.0204</ele>
        <time>2021-07-18T13:58:26</time>
      </trkpt>
      <trkpt lat="45.34292" lon="6.16013">
        <ele>1689.0204</ele>
        <time>2021-07-18T13:58:32</time>
      </trkpt>
      <trkpt lat="45.34288" lon="6.16015">
        <ele>1689.1205</ele>
        <time>2021-07-18T13:58:38</time>
      </trkpt>
      <trkpt lat="45.34286" lon="6.16016">
        <ele>1690.1205</ele>
        <time>2021-07-18T13:58:43</time>
      </trkpt>
      <trkpt lat="45.34286" lon="6.16016">
        <ele>1691.1205</ele>
        <time>2021-07-18T13:59:20</time>
      </trkpt>
      <trkpt lat="45.34287" lon="6.16016">
        <ele>1691.1205</ele>
        <time>2021-07-18T13:59:22</time>
      </trkpt>
      <trkpt lat="45.34287" lon="6.16016">
        <ele>1691.1205</ele>
        <time>2021-07-18T13:59:25</time>
      </trkpt>
      <trkpt lat="45.34287" lon="6.16015">
        <ele>1691.1205</ele>
        <time>2021-07-18T13:59:27</time>
      </trkpt>
      <trkpt lat="45.34287" lon="6.16015">
        <ele>1691.1205</ele>
        <time>2021-07-18T13:59:28</time>
      </trkpt>
      <trkpt lat="45.34289" lon="6.16016">
        <ele>1692.2538</ele>
        <time>2021-07-18T13:59:37</time>
      </trkpt>
      <trkpt lat="45.34289" lon="6.16016">
        <ele>1692.2538</ele>
        <time>2021-07-18T13:59:38</time>
      </trkpt>
      <trkpt lat="45.34289" lon="6.16018">
        <ele>1692.2538</ele>
        <time>2021-07-18T13:59:42</time>
      </trkpt>
      <trkpt lat="45.34288" lon="6.16017">
        <ele>1693.8204</ele>
        <time>2021-07-18T14:00:09</time>
      </trkpt>
      <trkpt lat="45.34289" lon="6.16017">
        <ele>1693.8204</ele>
        <time>2021-07-18T14:00:11</time>
      </trkpt>
      <trkpt lat="45.34289" lon="6.16018">
        <ele>1693.8204</ele>
        <time>2021-07-18T14:00:15</time>
      </trkpt>
      <trkpt lat="45.34289" lon="6.16019">
        <ele>1694.9204</ele>
        <time>2021-07-18T14:00:24</time>
      </trkpt>
      <trkpt lat="45.34289" lon="6.16019">
        <ele>1694.9204</ele>
        <time>2021-07-18T14:00:25</time>
      </trkpt>
      <trkpt lat="45.34287" lon="6.16022">
        <ele>1694.9204</ele>
        <time>2021-07-18T14:00:29</time>
      </trkpt>
      <trkpt lat="45.34282" lon="6.16024">
        <ele>1696.1205</ele>
        <time>2021-07-18T14:00:37</time>
      </trkpt>
      <trkpt lat="45.34278" lon="6.16027">
        <ele>1695.3204</ele>
        <time>2021-07-18T14:00:43</time>
      </trkpt>
      <trkpt lat="45.34276" lon="6.16029">
        <ele>1695.3204</ele>
        <time>2021-07-18T14:00:47</time>
      </trkpt>
      <trkpt lat="45.34265" lon="6.16037">
        <ele>1692.4204</ele>
        <time>2021-07-18T14:01:07</time>
      </trkpt>
      <trkpt lat="45.34262" lon="6.16039">
        <ele>1693.9204</ele>
        <time>2021-07-18T14:01:14</time>
      </trkpt>
      <trkpt lat="45.34252" lon="6.16044">
        <ele>1692.5204</ele>
        <time>2021-07-18T14:01:32</time>
      </trkpt>
      <trkpt lat="45.3425" lon="6.16046">
        <ele>1691.8204</ele>
        <time>2021-07-18T14:01:40</time>
      </trkpt>
      <trkpt lat="45.3425" lon="6.16046">
        <ele>1690.9204</ele>
        <time>2021-07-18T14:01:46</time>
      </trkpt>
      <trkpt lat="45.3425" lon="6.16047">
        <ele>1690.9204</ele>
        <time>2021-07-18T14:01:47</time>
      </trkpt>
      <trkpt lat="45.3425" lon="6.16047">
        <ele>1690.9204</ele>
        <time>2021-07-18T14:01:51</time>
      </trkpt>
      <trkpt lat="45.3425" lon="6.16047">
        <ele>1690.9204</ele>
        <time>2021-07-18T14:01:52</time>
      </trkpt>
      <trkpt lat="45.34251" lon="6.16046">
        <ele>1691.5204</ele>
        <time>2021-07-18T14:02:32</time>
      </trkpt>
      <trkpt lat="45.3425" lon="6.16046">
        <ele>1694.2205</ele>
        <time>2021-07-18T14:02:33</time>
      </trkpt>
      <trkpt lat="45.3425" lon="6.16046">
        <ele>1694.2205</ele>
        <time>2021-07-18T14:02:56</time>
      </trkpt>
      <trkpt lat="45.34251" lon="6.16046">
        <ele>1694.2205</ele>
        <time>2021-07-18T14:02:58</time>
      </trkpt>
      <trkpt lat="45.3425" lon="6.16046">
        <ele>1694.2205</ele>
        <time>2021-07-18T14:03:02</time>
      </trkpt>
      <trkpt lat="45.34243" lon="6.16049">
        <ele>1695.9204</ele>
        <time>2021-07-18T14:03:13</time>
      </trkpt>
      <trkpt lat="45.34231" lon="6.16053">
        <ele>1694.5204</ele>
        <time>2021-07-18T14:03:27</time>
      </trkpt>
      <trkpt lat="45.34225" lon="6.16054">
        <ele>1694.8204</ele>
        <time>2021-07-18T14:03:35</time>
      </trkpt>
      <trkpt lat="45.34216" lon="6.16054">
        <ele>1695.1205</ele>
        <time>2021-07-18T14:03:47</time>
      </trkpt>
      <trkpt lat="45.34211" lon="6.16054">
        <ele>1695.1205</ele>
        <time>2021-07-18T14:03:52</time>
      </trkpt>
      <trkpt lat="45.34206" lon="6.16054">
        <ele>1695.3204</ele>
        <time>2021-07-18T14:03:58</time>
      </trkpt>
      <trkpt lat="45.34203" lon="6.16054">
        <ele>1695.3204</ele>
        <time>2021-07-18T14:04:02</time>
      </trkpt>
      <trkpt lat="45.34197" lon="6.16055">
        <ele>1694.3204</ele>
        <time>2021-07-18T14:04:09</time>
      </trkpt>
      <trkpt lat="45.34194" lon="6.16056">
        <ele>1693.3204</ele>
        <time>2021-07-18T14:04:13</time>
      </trkpt>
      <trkpt lat="45.34191" lon="6.16055">
        <ele>1693.3204</ele>
        <time>2021-07-18T14:04:17</time>
      </trkpt>
      <trkpt lat="45.34188" lon="6.16057">
        <ele>1693.3204</ele>
        <time>2021-07-18T14:04:21</time>
      </trkpt>
      <trkpt lat="45.34185" lon="6.16058">
        <ele>1693.6205</ele>
        <time>2021-07-18T14:04:24</time>
      </trkpt>
      <trkpt lat="45.34181" lon="6.1606">
        <ele>1693.6205</ele>
        <time>2021-07-18T14:04:30</time>
      </trkpt>
      <trkpt lat="45.34179" lon="6.1606">
        <ele>1692.3204</ele>
        <time>2021-07-18T14:04:34</time>
      </trkpt>
      <trkpt lat="45.34175" lon="6.16061">
        <ele>1692.3204</ele>
        <time>2021-07-18T14:04:39</time>
      </trkpt>
      <trkpt lat="45.34171" lon="6.1606">
        <ele>1693.4204</ele>
        <time>2021-07-18T14:04:45</time>
      </trkpt>
      <trkpt lat="45.34164" lon="6.16054">
        <ele>1693.9204</ele>
        <time>2021-07-18T14:04:55</time>
      </trkpt>
      <trkpt lat="45.34164" lon="6.16054">
        <ele>1693.9204</ele>
        <time>2021-07-18T14:04:56</time>
      </trkpt>
      <trkpt lat="45.34163" lon="6.16055">
        <ele>1693.9204</ele>
        <time>2021-07-18T14:04:59</time>
      </trkpt>
      <trkpt lat="45.34162" lon="6.16058">
        <ele>1693.9204</ele>
        <time>2021-07-18T14:05:02</time>
      </trkpt>
      <trkpt lat="45.34162" lon="6.16059">
        <ele>1693.3204</ele>
        <time>2021-07-18T14:05:05</time>
      </trkpt>
      <trkpt lat="45.34161" lon="6.16059">
        <ele>1693.3204</ele>
        <time>2021-07-18T14:05:08</time>
      </trkpt>
      <trkpt lat="45.3416" lon="6.16062">
        <ele>1693.3204</ele>
        <time>2021-07-18T14:05:11</time>
      </trkpt>
      <trkpt lat="45.3416" lon="6.16062">
        <ele>1693.3204</ele>
        <time>2021-07-18T14:05:12</time>
      </trkpt>
      <trkpt lat="45.34159" lon="6.16063">
        <ele>1694.0204</ele>
        <time>2021-07-18T14:05:14</time>
      </trkpt>
      <trkpt lat="45.34152" lon="6.16069">
        <ele>1694.9204</ele>
        <time>2021-07-18T14:05:25</time>
      </trkpt>
      <trkpt lat="45.34142" lon="6.16073">
        <ele>1695.7205</ele>
        <time>2021-07-18T14:05:37</time>
      </trkpt>
      <trkpt lat="45.3414" lon="6.16073">
        <ele>1695.7205</ele>
        <time>2021-07-18T14:05:42</time>
      </trkpt>
      <trkpt lat="45.34136" lon="6.16074">
        <ele>1694.2205</ele>
        <time>2021-07-18T14:05:46</time>
      </trkpt>
      <trkpt lat="45.3413" lon="6.16078">
        <ele>1695.4204</ele>
        <time>2021-07-18T14:05:54</time>
      </trkpt>
      <trkpt lat="45.34127" lon="6.16078">
        <ele>1695.4204</ele>
        <time>2021-07-18T14:05:57</time>
      </trkpt>
      <trkpt lat="45.34112" lon="6.16077">
        <ele>1696.1205</ele>
        <time>2021-07-18T14:06:14</time>
      </trkpt>
      <trkpt lat="45.34105" lon="6.16074">
        <ele>1696.8204</ele>
        <time>2021-07-18T14:06:23</time>
      </trkpt>
      <trkpt lat="45.34102" lon="6.16072">
        <ele>1696.8204</ele>
        <time>2021-07-18T14:06:26</time>
      </trkpt>
      <trkpt lat="45.34098" lon="6.16071">
        <ele>1696.8204</ele>
        <time>2021-07-18T14:06:30</time>
      </trkpt>
      <trkpt lat="45.3409" lon="6.16068">
        <ele>1697.8204</ele>
        <time>2021-07-18T14:06:39</time>
      </trkpt>
      <trkpt lat="45.34087" lon="6.16068">
        <ele>1697.8204</ele>
        <time>2021-07-18T14:06:42</time>
      </trkpt>
      <trkpt lat="45.34079" lon="6.16067">
        <ele>1699.6205</ele>
        <time>2021-07-18T14:06:53</time>
      </trkpt>
      <trkpt lat="45.3408" lon="6.16068">
        <ele>1699.6205</ele>
        <time>2021-07-18T14:06:59</time>
      </trkpt>
      <trkpt lat="45.34076" lon="6.16068">
        <ele>1698.5204</ele>
        <time>2021-07-18T14:07:04</time>
      </trkpt>
      <trkpt lat="45.34072" lon="6.16069">
        <ele>1698.5204</ele>
        <time>2021-07-18T14:07:08</time>
      </trkpt>
      <trkpt lat="45.34067" lon="6.1607">
        <ele>1698.1205</ele>
        <time>2021-07-18T14:07:16</time>
      </trkpt>
      <trkpt lat="45.34062" lon="6.16072">
        <ele>1700.7205</ele>
        <time>2021-07-18T14:07:25</time>
      </trkpt>
      <trkpt lat="45.34062" lon="6.16074">
        <ele>1700.7205</ele>
        <time>2021-07-18T14:07:32</time>
      </trkpt>
      <trkpt lat="45.34062" lon="6.16075">
        <ele>1702.0204</ele>
        <time>2021-07-18T14:07:33</time>
      </trkpt>
      <trkpt lat="45.34061" lon="6.16078">
        <ele>1702.0204</ele>
        <time>2021-07-18T14:07:38</time>
      </trkpt>
      <trkpt lat="45.34061" lon="6.16078">
        <ele>1702.0204</ele>
        <time>2021-07-18T14:07:39</time>
      </trkpt>
      <trkpt lat="45.34059" lon="6.16083">
        <ele>1703.0204</ele>
        <time>2021-07-18T14:07:48</time>
      </trkpt>
      <trkpt lat="45.34059" lon="6.16084">
        <ele>1703.0204</ele>
        <time>2021-07-18T14:07:50</time>
      </trkpt>
      <trkpt lat="45.34055" lon="6.16087">
        <ele>1704.1205</ele>
        <time>2021-07-18T14:07:59</time>
      </trkpt>
      <trkpt lat="45.34054" lon="6.16087">
        <ele>1704.1205</ele>
        <time>2021-07-18T14:08:00</time>
      </trkpt>
      <trkpt lat="45.34052" lon="6.16089">
        <ele>1705.7205</ele>
        <time>2021-07-18T14:08:04</time>
      </trkpt>
      <trkpt lat="45.34052" lon="6.1609">
        <ele>1705.7205</ele>
        <time>2021-07-18T14:08:05</time>
      </trkpt>
      <trkpt lat="45.34051" lon="6.16091">
        <ele>1705.7205</ele>
        <time>2021-07-18T14:08:07</time>
      </trkpt>
      <trkpt lat="45.34051" lon="6.16097">
        <ele>1707.2205</ele>
        <time>2021-07-18T14:08:13</time>
      </trkpt>
      <trkpt lat="45.3405" lon="6.16108">
        <ele>1708.2205</ele>
        <time>2021-07-18T14:08:25</time>
      </trkpt>
      <trkpt lat="45.3405" lon="6.16108">
        <ele>1708.2205</ele>
        <time>2021-07-18T14:08:26</time>
      </trkpt>
      <trkpt lat="45.34049" lon="6.16107">
        <ele>1709.3204</ele>
        <time>2021-07-18T14:08:46</time>
      </trkpt>
      <trkpt lat="45.34048" lon="6.16108">
        <ele>1709.3204</ele>
        <time>2021-07-18T14:08:48</time>
      </trkpt>
      <trkpt lat="45.34045" lon="6.1611">
        <ele>1709.3204</ele>
        <time>2021-07-18T14:08:52</time>
      </trkpt>
      <trkpt lat="45.34026" lon="6.16116">
        <ele>1710.7205</ele>
        <time>2021-07-18T14:09:14</time>
      </trkpt>
      <trkpt lat="45.34024" lon="6.16119">
        <ele>1710.7205</ele>
        <time>2021-07-18T14:09:18</time>
      </trkpt>
      <trkpt lat="45.34004" lon="6.16125">
        <ele>1712.6205</ele>
        <time>2021-07-18T14:09:44</time>
      </trkpt>
      <trkpt lat="45.34001" lon="6.16126">
        <ele>1712.6205</ele>
        <time>2021-07-18T14:09:49</time>
      </trkpt>
      <trkpt lat="45.33989" lon="6.16127">
        <ele>1714.4204</ele>
        <time>2021-07-18T14:10:04</time>
      </trkpt>
      <trkpt lat="45.33986" lon="6.16129">
        <ele>1714.4204</ele>
        <time>2021-07-18T14:10:09</time>
      </trkpt>
      <trkpt lat="45.33982" lon="6.1613">
        <ele>1714.1205</ele>
        <time>2021-07-18T14:10:13</time>
      </trkpt>
      <trkpt lat="45.33978" lon="6.16132">
        <ele>1714.1205</ele>
        <time>2021-07-18T14:10:19</time>
      </trkpt>
      <trkpt lat="45.33967" lon="6.16136">
        <ele>1715.7205</ele>
        <time>2021-07-18T14:10:30</time>
      </trkpt>
      <trkpt lat="45.33964" lon="6.16137">
        <ele>1715.3204</ele>
        <time>2021-07-18T14:10:34</time>
      </trkpt>
      <trkpt lat="45.33948" lon="6.16143">
        <ele>1716.8204</ele>
        <time>2021-07-18T14:10:53</time>
      </trkpt>
      <trkpt lat="45.33946" lon="6.16145">
        <ele>1716.8204</ele>
        <time>2021-07-18T14:10:57</time>
      </trkpt>
      <trkpt lat="45.33937" lon="6.16148">
        <ele>1717.1205</ele>
        <time>2021-07-18T14:11:08</time>
      </trkpt>
      <trkpt lat="45.33935" lon="6.16148">
        <ele>1717.1205</ele>
        <time>2021-07-18T14:11:11</time>
      </trkpt>
      <trkpt lat="45.33932" lon="6.16148">
        <ele>1717.9204</ele>
        <time>2021-07-18T14:11:15</time>
      </trkpt>
      <trkpt lat="45.3392" lon="6.16153">
        <ele>1718.2205</ele>
        <time>2021-07-18T14:11:33</time>
      </trkpt>
      <trkpt lat="45.33915" lon="6.16156">
        <ele>1717.8204</ele>
        <time>2021-07-18T14:11:40</time>
      </trkpt>
      <trkpt lat="45.33915" lon="6.16156">
        <ele>1717.8204</ele>
        <time>2021-07-18T14:11:41</time>
      </trkpt>
      <trkpt lat="45.33911" lon="6.16157">
        <ele>1718.9204</ele>
        <time>2021-07-18T14:11:47</time>
      </trkpt>
      <trkpt lat="45.33908" lon="6.16159">
        <ele>1718.9204</ele>
        <time>2021-07-18T14:11:51</time>
      </trkpt>
      <trkpt lat="45.33897" lon="6.16168">
        <ele>1722.4204</ele>
        <time>2021-07-18T14:12:09</time>
      </trkpt>
      <trkpt lat="45.33896" lon="6.16169">
        <ele>1722.4204</ele>
        <time>2021-07-18T14:12:13</time>
      </trkpt>
      <trkpt lat="45.33896" lon="6.16169">
        <ele>1722.4204</ele>
        <time>2021-07-18T14:12:14</time>
      </trkpt>
      <trkpt lat="45.33892" lon="6.16173">
        <ele>1722.6205</ele>
        <time>2021-07-18T14:12:20</time>
      </trkpt>
      <trkpt lat="45.3389" lon="6.16177">
        <ele>1722.6205</ele>
        <time>2021-07-18T14:12:26</time>
      </trkpt>
      <trkpt lat="45.33888" lon="6.16179">
        <ele>1724.3204</ele>
        <time>2021-07-18T14:12:30</time>
      </trkpt>
      <trkpt lat="45.33883" lon="6.16182">
        <ele>1724.3204</ele>
        <time>2021-07-18T14:12:35</time>
      </trkpt>
      <trkpt lat="45.33881" lon="6.16183">
        <ele>1725.2205</ele>
        <time>2021-07-18T14:12:38</time>
      </trkpt>
      <trkpt lat="45.33878" lon="6.16186">
        <ele>1725.2205</ele>
        <time>2021-07-18T14:12:43</time>
      </trkpt>
      <trkpt lat="45.33875" lon="6.16187">
        <ele>1725.5204</ele>
        <time>2021-07-18T14:12:48</time>
      </trkpt>
      <trkpt lat="45.33868" lon="6.16192">
        <ele>1725.5204</ele>
        <time>2021-07-18T14:12:56</time>
      </trkpt>
      <trkpt lat="45.33861" lon="6.16197">
        <ele>1726.1205</ele>
        <time>2021-07-18T14:13:07</time>
      </trkpt>
      <trkpt lat="45.33859" lon="6.16199">
        <ele>1726.1205</ele>
        <time>2021-07-18T14:13:11</time>
      </trkpt>
      <trkpt lat="45.33858" lon="6.162">
        <ele>1726.1205</ele>
        <time>2021-07-18T14:13:13</time>
      </trkpt>
      <trkpt lat="45.33858" lon="6.162">
        <ele>1726.1205</ele>
        <time>2021-07-18T14:13:14</time>
      </trkpt>
      <trkpt lat="45.33857" lon="6.16202">
        <ele>1726.1205</ele>
        <time>2021-07-18T14:13:16</time>
      </trkpt>
      <trkpt lat="45.33855" lon="6.16204">
        <ele>1727.4204</ele>
        <time>2021-07-18T14:13:20</time>
      </trkpt>
      <trkpt lat="45.33852" lon="6.16209">
        <ele>1727.2205</ele>
        <time>2021-07-18T14:13:27</time>
      </trkpt>
      <trkpt lat="45.33847" lon="6.16214">
        <ele>1729.1205</ele>
        <time>2021-07-18T14:13:37</time>
      </trkpt>
      <trkpt lat="45.33844" lon="6.16217">
        <ele>1729.1205</ele>
        <time>2021-07-18T14:13:42</time>
      </trkpt>
      <trkpt lat="45.33839" lon="6.16227">
        <ele>1729.9204</ele>
        <time>2021-07-18T14:13:54</time>
      </trkpt>
      <trkpt lat="45.33839" lon="6.16231">
        <ele>1731.8204</ele>
        <time>2021-07-18T14:13:58</time>
      </trkpt>
      <trkpt lat="45.33837" lon="6.16234">
        <ele>1731.8204</ele>
        <time>2021-07-18T14:14:03</time>
      </trkpt>
      <trkpt lat="45.33837" lon="6.16238">
        <ele>1731.4204</ele>
        <time>2021-07-18T14:14:09</time>
      </trkpt>
      <trkpt lat="45.33836" lon="6.16243">
        <ele>1732.0204</ele>
        <time>2021-07-18T14:14:17</time>
      </trkpt>
      <trkpt lat="45.33833" lon="6.16244">
        <ele>1732.0204</ele>
        <time>2021-07-18T14:14:23</time>
      </trkpt>
      <trkpt lat="45.33833" lon="6.16244">
        <ele>1732.0204</ele>
        <time>2021-07-18T14:14:24</time>
      </trkpt>
      <trkpt lat="45.33833" lon="6.16249">
        <ele>1735.4537</ele>
        <time>2021-07-18T14:14:30</time>
      </trkpt>
      <trkpt lat="45.33836" lon="6.16253">
        <ele>1735.5204</ele>
        <time>2021-07-18T14:14:37</time>
      </trkpt>
      <trkpt lat="45.33837" lon="6.16257">
        <ele>1735.5204</ele>
        <time>2021-07-18T14:14:44</time>
      </trkpt>
      <trkpt lat="45.33835" lon="6.16261">
        <ele>1735.5204</ele>
        <time>2021-07-18T14:14:52</time>
      </trkpt>
      <trkpt lat="45.33834" lon="6.16262">
        <ele>1735.5204</ele>
        <time>2021-07-18T14:14:55</time>
      </trkpt>
      <trkpt lat="45.33834" lon="6.16262">
        <ele>1735.5204</ele>
        <time>2021-07-18T14:14:56</time>
      </trkpt>
      <trkpt lat="45.33833" lon="6.16264">
        <ele>1736.8204</ele>
        <time>2021-07-18T14:14:59</time>
      </trkpt>
      <trkpt lat="45.33834" lon="6.16264">
        <ele>1736.8204</ele>
        <time>2021-07-18T14:15:01</time>
      </trkpt>
      <trkpt lat="45.33835" lon="6.16264">
        <ele>1736.8204</ele>
        <time>2021-07-18T14:15:03</time>
      </trkpt>
      <trkpt lat="45.33834" lon="6.16269">
        <ele>1740.0204</ele>
        <time>2021-07-18T14:15:12</time>
      </trkpt>
      <trkpt lat="45.33835" lon="6.16274">
        <ele>1741.2205</ele>
        <time>2021-07-18T14:15:23</time>
      </trkpt>
      <trkpt lat="45.33836" lon="6.16279">
        <ele>1743.6205</ele>
        <time>2021-07-18T14:15:35</time>
      </trkpt>
      <trkpt lat="45.33836" lon="6.1628">
        <ele>1743.6205</ele>
        <time>2021-07-18T14:15:36</time>
      </trkpt>
      <trkpt lat="45.33836" lon="6.16281">
        <ele>1745.2205</ele>
        <time>2021-07-18T14:15:38</time>
      </trkpt>
      <trkpt lat="45.33836" lon="6.16282">
        <ele>1745.2205</ele>
        <time>2021-07-18T14:15:41</time>
      </trkpt>
      <trkpt lat="45.33836" lon="6.16283">
        <ele>1745.2205</ele>
        <time>2021-07-18T14:15:45</time>
      </trkpt>
      <trkpt lat="45.33837" lon="6.16283">
        <ele>1745.2205</ele>
        <time>2021-07-18T14:15:46</time>
      </trkpt>
      <trkpt lat="45.33837" lon="6.16283">
        <ele>1746.3204</ele>
        <time>2021-07-18T14:15:48</time>
      </trkpt>
      <trkpt lat="45.33837" lon="6.16292">
        <ele>1747.4204</ele>
        <time>2021-07-18T14:16:03</time>
      </trkpt>
      <trkpt lat="45.33837" lon="6.16292">
        <ele>1747.4204</ele>
        <time>2021-07-18T14:16:04</time>
      </trkpt>
      <trkpt lat="45.33837" lon="6.16295">
        <ele>1748.7205</ele>
        <time>2021-07-18T14:16:08</time>
      </trkpt>
      <trkpt lat="45.33834" lon="6.16299">
        <ele>1750.7205</ele>
        <time>2021-07-18T14:16:19</time>
      </trkpt>
      <trkpt lat="45.33832" lon="6.163">
        <ele>1750.7205</ele>
        <time>2021-07-18T14:16:24</time>
      </trkpt>
      <trkpt lat="45.33832" lon="6.163">
        <ele>1750.7205</ele>
        <time>2021-07-18T14:16:25</time>
      </trkpt>
      <trkpt lat="45.33831" lon="6.16301">
        <ele>1755.3204</ele>
        <time>2021-07-18T14:16:28</time>
      </trkpt>
      <trkpt lat="45.33828" lon="6.16302">
        <ele>1755.3204</ele>
        <time>2021-07-18T14:16:33</time>
      </trkpt>
      <trkpt lat="45.33828" lon="6.16302">
        <ele>1755.3204</ele>
        <time>2021-07-18T14:16:36</time>
      </trkpt>
      <trkpt lat="45.33827" lon="6.16302">
        <ele>1756.0204</ele>
        <time>2021-07-18T14:16:38</time>
      </trkpt>
      <trkpt lat="45.33827" lon="6.16302">
        <ele>1756.0204</ele>
        <time>2021-07-18T14:16:39</time>
      </trkpt>
      <trkpt lat="45.33827" lon="6.16302">
        <ele>1756.0204</ele>
        <time>2021-07-18T14:16:40</time>
      </trkpt>
      <trkpt lat="45.33826" lon="6.16304">
        <ele>1756.0204</ele>
        <time>2021-07-18T14:16:45</time>
      </trkpt>
      <trkpt lat="45.33827" lon="6.16304">
        <ele>1758.9204</ele>
        <time>2021-07-18T14:16:50</time>
      </trkpt>
      <trkpt lat="45.33827" lon="6.16305">
        <ele>1758.9204</ele>
        <time>2021-07-18T14:16:51</time>
      </trkpt>
      <trkpt lat="45.33824" lon="6.1631">
        <ele>1758.9204</ele>
        <time>2021-07-18T14:17:02</time>
      </trkpt>
      <trkpt lat="45.33821" lon="6.16311">
        <ele>1760.6205</ele>
        <time>2021-07-18T14:17:09</time>
      </trkpt>
      <trkpt lat="45.33821" lon="6.16311">
        <ele>1760.6205</ele>
        <time>2021-07-18T14:17:10</time>
      </trkpt>
      <trkpt lat="45.33818" lon="6.1631">
        <ele>1761.6205</ele>
        <time>2021-07-18T14:17:17</time>
      </trkpt>
      <trkpt lat="45.33817" lon="6.1631">
        <ele>1761.6205</ele>
        <time>2021-07-18T14:17:18</time>
      </trkpt>
      <trkpt lat="45.33812" lon="6.16308">
        <ele>1763.3204</ele>
        <time>2021-07-18T14:17:31</time>
      </trkpt>
      <trkpt lat="45.33808" lon="6.16311">
        <ele>1765.7205</ele>
        <time>2021-07-18T14:17:43</time>
      </trkpt>
      <trkpt lat="45.33805" lon="6.16313">
        <ele>1768.9204</ele>
        <time>2021-07-18T14:17:52</time>
      </trkpt>
      <trkpt lat="45.33801" lon="6.16315">
        <ele>1768.6205</ele>
        <time>2021-07-18T14:18:02</time>
      </trkpt>
      <trkpt lat="45.33802" lon="6.16315">
        <ele>1768.6205</ele>
        <time>2021-07-18T14:18:03</time>
      </trkpt>
      <trkpt lat="45.33801" lon="6.16316">
        <ele>1768.6205</ele>
        <time>2021-07-18T14:18:04</time>
      </trkpt>
      <trkpt lat="45.33799" lon="6.16317">
        <ele>1770.5204</ele>
        <time>2021-07-18T14:18:11</time>
      </trkpt>
      <trkpt lat="45.33797" lon="6.16317">
        <ele>1770.5204</ele>
        <time>2021-07-18T14:18:14</time>
      </trkpt>
      <trkpt lat="45.33797" lon="6.16317">
        <ele>1770.5204</ele>
        <time>2021-07-18T14:18:15</time>
      </trkpt>
      <trkpt lat="45.33794" lon="6.16317">
        <ele>1772.7205</ele>
        <time>2021-07-18T14:18:21</time>
      </trkpt>
      <trkpt lat="45.33794" lon="6.16319">
        <ele>1772.7205</ele>
        <time>2021-07-18T14:18:25</time>
      </trkpt>
      <trkpt lat="45.33794" lon="6.16319">
        <ele>1772.7205</ele>
        <time>2021-07-18T14:18:26</time>
      </trkpt>
      <trkpt lat="45.33793" lon="6.16319">
        <ele>1773.2538</ele>
        <time>2021-07-18T14:18:27</time>
      </trkpt>
      <trkpt lat="45.33793" lon="6.1632">
        <ele>1773.2538</ele>
        <time>2021-07-18T14:18:28</time>
      </trkpt>
      <trkpt lat="45.33791" lon="6.16319">
        <ele>1773.2538</ele>
        <time>2021-07-18T14:18:33</time>
      </trkpt>
      <trkpt lat="45.33791" lon="6.16319">
        <ele>1773.2538</ele>
        <time>2021-07-18T14:18:34</time>
      </trkpt>
      <trkpt lat="45.3379" lon="6.16319">
        <ele>1773.2538</ele>
        <time>2021-07-18T14:18:36</time>
      </trkpt>
      <trkpt lat="45.3379" lon="6.1632">
        <ele>1774.3204</ele>
        <time>2021-07-18T14:18:39</time>
      </trkpt>
      <trkpt lat="45.33789" lon="6.1632">
        <ele>1774.3204</ele>
        <time>2021-07-18T14:18:41</time>
      </trkpt>
      <trkpt lat="45.33789" lon="6.1632">
        <ele>1774.3204</ele>
        <time>2021-07-18T14:18:42</time>
      </trkpt>
      <trkpt lat="45.33788" lon="6.1632">
        <ele>1774.3204</ele>
        <time>2021-07-18T14:18:44</time>
      </trkpt>
      <trkpt lat="45.33787" lon="6.16321">
        <ele>1774.9204</ele>
        <time>2021-07-18T14:18:47</time>
      </trkpt>
      <trkpt lat="45.33786" lon="6.16322">
        <ele>1774.9204</ele>
        <time>2021-07-18T14:18:49</time>
      </trkpt>
      <trkpt lat="45.33785" lon="6.16322">
        <ele>1774.9204</ele>
        <time>2021-07-18T14:18:52</time>
      </trkpt>
      <trkpt lat="45.33785" lon="6.16322">
        <ele>1774.9204</ele>
        <time>2021-07-18T14:18:55</time>
      </trkpt>
      <trkpt lat="45.33783" lon="6.16325">
        <ele>1775.2205</ele>
        <time>2021-07-18T14:19:02</time>
      </trkpt>
      <trkpt lat="45.33783" lon="6.16325">
        <ele>1775.2205</ele>
        <time>2021-07-18T14:19:03</time>
      </trkpt>
      <trkpt lat="45.33783" lon="6.16325">
        <ele>1775.2205</ele>
        <time>2021-07-18T14:19:04</time>
      </trkpt>
      <trkpt lat="45.33782" lon="6.16326">
        <ele>1775.2205</ele>
        <time>2021-07-18T14:19:06</time>
      </trkpt>
      <trkpt lat="45.33782" lon="6.16327">
        <ele>1780.3204</ele>
        <time>2021-07-18T14:19:07</time>
      </trkpt>
      <trkpt lat="45.3378" lon="6.16327">
        <ele>1780.3204</ele>
        <time>2021-07-18T14:19:13</time>
      </trkpt>
      <trkpt lat="45.3378" lon="6.16327">
        <ele>1780.3204</ele>
        <time>2021-07-18T14:19:14</time>
      </trkpt>
      <trkpt lat="45.3378" lon="6.16326">
        <ele>1780.3204</ele>
        <time>2021-07-18T14:19:15</time>
      </trkpt>
      <trkpt lat="45.33779" lon="6.16326">
        <ele>1779.7205</ele>
        <time>2021-07-18T14:19:18</time>
      </trkpt>
      <trkpt lat="45.33777" lon="6.16326">
        <ele>1779.7205</ele>
        <time>2021-07-18T14:19:23</time>
      </trkpt>
      <trkpt lat="45.33773" lon="6.16325">
        <ele>1782.1205</ele>
        <time>2021-07-18T14:19:30</time>
      </trkpt>
      <trkpt lat="45.33773" lon="6.16325">
        <ele>1782.1205</ele>
        <time>2021-07-18T14:19:31</time>
      </trkpt>
      <trkpt lat="45.33772" lon="6.16324">
        <ele>1782.1205</ele>
        <time>2021-07-18T14:19:35</time>
      </trkpt>
      <trkpt lat="45.33772" lon="6.16324">
        <ele>1782.1205</ele>
        <time>2021-07-18T14:19:36</time>
      </trkpt>
      <trkpt lat="45.33772" lon="6.16324">
        <ele>1783.2538</ele>
        <time>2021-07-18T14:19:38</time>
      </trkpt>
      <trkpt lat="45.33773" lon="6.16324">
        <ele>1783.2538</ele>
        <time>2021-07-18T14:19:39</time>
      </trkpt>
      <trkpt lat="45.33773" lon="6.16325">
        <ele>1783.2538</ele>
        <time>2021-07-18T14:19:41</time>
      </trkpt>
      <trkpt lat="45.33774" lon="6.16326">
        <ele>1783.2538</ele>
        <time>2021-07-18T14:19:43</time>
      </trkpt>
      <trkpt lat="45.33774" lon="6.16326">
        <ele>1783.2538</ele>
        <time>2021-07-18T14:19:44</time>
      </trkpt>
      <trkpt lat="45.33772" lon="6.16331">
        <ele>1783.6538</ele>
        <time>2021-07-18T14:19:50</time>
      </trkpt>
      <trkpt lat="45.33772" lon="6.16336">
        <ele>1783.6538</ele>
        <time>2021-07-18T14:19:56</time>
      </trkpt>
      <trkpt lat="45.33772" lon="6.16336">
        <ele>1783.1205</ele>
        <time>2021-07-18T14:19:58</time>
      </trkpt>
      <trkpt lat="45.33772" lon="6.16338">
        <ele>1783.1205</ele>
        <time>2021-07-18T14:20:01</time>
      </trkpt>
      <trkpt lat="45.3377" lon="6.16342">
        <ele>1786.2205</ele>
        <time>2021-07-18T14:20:10</time>
      </trkpt>
      <trkpt lat="45.3377" lon="6.16345">
        <ele>1786.2205</ele>
        <time>2021-07-18T14:20:14</time>
      </trkpt>
      <trkpt lat="45.3377" lon="6.16346">
        <ele>1786.2205</ele>
        <time>2021-07-18T14:20:16</time>
      </trkpt>
      <trkpt lat="45.33769" lon="6.16346">
        <ele>1786.0204</ele>
        <time>2021-07-18T14:20:18</time>
      </trkpt>
      <trkpt lat="45.33768" lon="6.16351">
        <ele>1786.0204</ele>
        <time>2021-07-18T14:20:26</time>
      </trkpt>
      <trkpt lat="45.33767" lon="6.16351">
        <ele>1787.9204</ele>
        <time>2021-07-18T14:20:28</time>
      </trkpt>
      <trkpt lat="45.33764" lon="6.16354">
        <ele>1790.8204</ele>
        <time>2021-07-18T14:20:39</time>
      </trkpt>
      <trkpt lat="45.33762" lon="6.16354">
        <ele>1790.8204</ele>
        <time>2021-07-18T14:20:45</time>
      </trkpt>
      <trkpt lat="45.33762" lon="6.16353">
        <ele>1793.7205</ele>
        <time>2021-07-18T14:20:50</time>
      </trkpt>
      <trkpt lat="45.33762" lon="6.16353">
        <ele>1793.7205</ele>
        <time>2021-07-18T14:20:51</time>
      </trkpt>
      <trkpt lat="45.33762" lon="6.16352">
        <ele>1793.7205</ele>
        <time>2021-07-18T14:20:55</time>
      </trkpt>
      <trkpt lat="45.33761" lon="6.16352">
        <ele>1793.7205</ele>
        <time>2021-07-18T14:20:56</time>
      </trkpt>
      <trkpt lat="45.33761" lon="6.16352">
        <ele>1795.5204</ele>
        <time>2021-07-18T14:20:58</time>
      </trkpt>
      <trkpt lat="45.33761" lon="6.16352">
        <ele>1795.5204</ele>
        <time>2021-07-18T14:20:59</time>
      </trkpt>
      <trkpt lat="45.33759" lon="6.16352">
        <ele>1795.5204</ele>
        <time>2021-07-18T14:21:02</time>
      </trkpt>
      <trkpt lat="45.33759" lon="6.16352">
        <ele>1795.5204</ele>
        <time>2021-07-18T14:21:04</time>
      </trkpt>
      <trkpt lat="45.33759" lon="6.16352">
        <ele>1795.5204</ele>
        <time>2021-07-18T14:21:05</time>
      </trkpt>
      <trkpt lat="45.33758" lon="6.16352">
        <ele>1795.5204</ele>
        <time>2021-07-18T14:21:06</time>
      </trkpt>
      <trkpt lat="45.33758" lon="6.16352">
        <ele>1796.8204</ele>
        <time>2021-07-18T14:21:07</time>
      </trkpt>
      <trkpt lat="45.33757" lon="6.16352">
        <ele>1796.8204</ele>
        <time>2021-07-18T14:21:08</time>
      </trkpt>
      <trkpt lat="45.33757" lon="6.16353">
        <ele>1796.8204</ele>
        <time>2021-07-18T14:21:10</time>
      </trkpt>
      <trkpt lat="45.33757" lon="6.16353">
        <ele>1796.8204</ele>
        <time>2021-07-18T14:21:11</time>
      </trkpt>
      <trkpt lat="45.33751" lon="6.16355">
        <ele>1800.4204</ele>
        <time>2021-07-18T14:21:27</time>
      </trkpt>
      <trkpt lat="45.3375" lon="6.16355">
        <ele>1800.4204</ele>
        <time>2021-07-18T14:21:29</time>
      </trkpt>
      <trkpt lat="45.3375" lon="6.16355">
        <ele>1800.4204</ele>
        <time>2021-07-18T14:21:30</time>
      </trkpt>
      <trkpt lat="45.33746" lon="6.16355">
        <ele>1802.5204</ele>
        <time>2021-07-18T14:21:38</time>
      </trkpt>
      <trkpt lat="45.33745" lon="6.16355">
        <ele>1802.5204</ele>
        <time>2021-07-18T14:21:42</time>
      </trkpt>
      <trkpt lat="45.33745" lon="6.16355">
        <ele>1802.5204</ele>
        <time>2021-07-18T14:21:43</time>
      </trkpt>
      <trkpt lat="45.33742" lon="6.16357">
        <ele>1804.3204</ele>
        <time>2021-07-18T14:21:48</time>
      </trkpt>
      <trkpt lat="45.33739" lon="6.16359">
        <ele>1804.3204</ele>
        <time>2021-07-18T14:21:54</time>
      </trkpt>
      <trkpt lat="45.33739" lon="6.16359">
        <ele>1804.3204</ele>
        <time>2021-07-18T14:21:55</time>
      </trkpt>
      <trkpt lat="45.33738" lon="6.16359">
        <ele>1804.3204</ele>
        <time>2021-07-18T14:21:56</time>
      </trkpt>
      <trkpt lat="45.33737" lon="6.1636">
        <ele>1804.6205</ele>
        <time>2021-07-18T14:21:59</time>
      </trkpt>
      <trkpt lat="45.33737" lon="6.1636">
        <ele>1805.3204</ele>
        <time>2021-07-18T14:22:20</time>
      </trkpt>
      <trkpt lat="45.33737" lon="6.1636">
        <ele>1805.3204</ele>
        <time>2021-07-18T14:22:21</time>
      </trkpt>
      <trkpt lat="45.33737" lon="6.16358">
        <ele>1807.2205</ele>
        <time>2021-07-18T14:23:19</time>
      </trkpt>
      <trkpt lat="45.33737" lon="6.16357">
        <ele>1807.2205</ele>
        <time>2021-07-18T14:23:29</time>
      </trkpt>
      <trkpt lat="45.33737" lon="6.16357">
        <ele>1807.2205</ele>
        <time>2021-07-18T14:23:30</time>
      </trkpt>
      <trkpt lat="45.33736" lon="6.16357">
        <ele>1808.0204</ele>
        <time>2021-07-18T14:23:38</time>
      </trkpt>
      <trkpt lat="45.33736" lon="6.16357">
        <ele>1808.0204</ele>
        <time>2021-07-18T14:23:41</time>
      </trkpt>
      <trkpt lat="45.33733" lon="6.16355">
        <ele>1808.0204</ele>
        <time>2021-07-18T14:23:45</time>
      </trkpt>
      <trkpt lat="45.33729" lon="6.16351">
        <ele>1808.1205</ele>
        <time>2021-07-18T14:23:52</time>
      </trkpt>
      <trkpt lat="45.33728" lon="6.16351">
        <ele>1808.1205</ele>
        <time>2021-07-18T14:23:53</time>
      </trkpt>
      <trkpt lat="45.33726" lon="6.16351">
        <ele>1808.6205</ele>
        <time>2021-07-18T14:23:57</time>
      </trkpt>
      <trkpt lat="45.33721" lon="6.16351">
        <ele>1808.6205</ele>
        <time>2021-07-18T14:24:04</time>
      </trkpt>
      <trkpt lat="45.33718" lon="6.16353">
        <ele>1809.6205</ele>
        <time>2021-07-18T14:24:10</time>
      </trkpt>
      <trkpt lat="45.33715" lon="6.16354">
        <ele>1809.6205</ele>
        <time>2021-07-18T14:24:15</time>
      </trkpt>
      <trkpt lat="45.33711" lon="6.16356">
        <ele>1809.5204</ele>
        <time>2021-07-18T14:24:23</time>
      </trkpt>
      <trkpt lat="45.33708" lon="6.16356">
        <ele>1810.1205</ele>
        <time>2021-07-18T14:24:29</time>
      </trkpt>
      <trkpt lat="45.33705" lon="6.16358">
        <ele>1810.3204</ele>
        <time>2021-07-18T14:24:37</time>
      </trkpt>
      <trkpt lat="45.33695" lon="6.16368">
        <ele>1812.4204</ele>
        <time>2021-07-18T14:24:58</time>
      </trkpt>
      <trkpt lat="45.33692" lon="6.16371">
        <ele>1812.4204</ele>
        <time>2021-07-18T14:25:03</time>
      </trkpt>
      <trkpt lat="45.33685" lon="6.16373">
        <ele>1815.1205</ele>
        <time>2021-07-18T14:25:14</time>
      </trkpt>
      <trkpt lat="45.33681" lon="6.16374">
        <ele>1816.1205</ele>
        <time>2021-07-18T14:25:21</time>
      </trkpt>
      <trkpt lat="45.33676" lon="6.16376">
        <ele>1816.6205</ele>
        <time>2021-07-18T14:25:30</time>
      </trkpt>
      <trkpt lat="45.33674" lon="6.16379">
        <ele>1816.6205</ele>
        <time>2021-07-18T14:25:35</time>
      </trkpt>
      <trkpt lat="45.33671" lon="6.16381">
        <ele>1817.4204</ele>
        <time>2021-07-18T14:25:42</time>
      </trkpt>
      <trkpt lat="45.33666" lon="6.16386">
        <ele>1819.0204</ele>
        <time>2021-07-18T14:25:54</time>
      </trkpt>
      <trkpt lat="45.33666" lon="6.16386">
        <ele>1819.0204</ele>
        <time>2021-07-18T14:25:55</time>
      </trkpt>
      <trkpt lat="45.33663" lon="6.16391">
        <ele>1821.9204</ele>
        <time>2021-07-18T14:26:04</time>
      </trkpt>
      <trkpt lat="45.33662" lon="6.16392">
        <ele>1821.8204</ele>
        <time>2021-07-18T14:26:07</time>
      </trkpt>
      <trkpt lat="45.33662" lon="6.16392">
        <ele>1821.8204</ele>
        <time>2021-07-18T14:26:08</time>
      </trkpt>
      <trkpt lat="45.33659" lon="6.16393">
        <ele>1821.8204</ele>
        <time>2021-07-18T14:26:13</time>
      </trkpt>
      <trkpt lat="45.33655" lon="6.16395">
        <ele>1824.1205</ele>
        <time>2021-07-18T14:26:22</time>
      </trkpt>
      <trkpt lat="45.33652" lon="6.16399">
        <ele>1825.9204</ele>
        <time>2021-07-18T14:26:32</time>
      </trkpt>
      <trkpt lat="45.33649" lon="6.164">
        <ele>1826.9204</ele>
        <time>2021-07-18T14:26:39</time>
      </trkpt>
      <trkpt lat="45.33645" lon="6.16401">
        <ele>1826.9204</ele>
        <time>2021-07-18T14:26:46</time>
      </trkpt>
      <trkpt lat="45.33642" lon="6.16405">
        <ele>1830.6205</ele>
        <time>2021-07-18T14:26:55</time>
      </trkpt>
      <trkpt lat="45.33638" lon="6.16407">
        <ele>1832.2205</ele>
        <time>2021-07-18T14:27:04</time>
      </trkpt>
      <trkpt lat="45.33634" lon="6.1641">
        <ele>1832.3204</ele>
        <time>2021-07-18T14:27:15</time>
      </trkpt>
      <trkpt lat="45.33631" lon="6.16413">
        <ele>1834.8204</ele>
        <time>2021-07-18T14:27:24</time>
      </trkpt>
      <trkpt lat="45.3363" lon="6.16417">
        <ele>1836.0204</ele>
        <time>2021-07-18T14:27:31</time>
      </trkpt>
      <trkpt lat="45.33617" lon="6.16426">
        <ele>1840.4204</ele>
        <time>2021-07-18T14:27:58</time>
      </trkpt>
      <trkpt lat="45.33616" lon="6.16429">
        <ele>1840.4204</ele>
        <time>2021-07-18T14:28:06</time>
      </trkpt>
      <trkpt lat="45.33615" lon="6.16433">
        <ele>1842.2205</ele>
        <time>2021-07-18T14:28:14</time>
      </trkpt>
      <trkpt lat="45.33613" lon="6.16439">
        <ele>1845.4204</ele>
        <time>2021-07-18T14:28:27</time>
      </trkpt>
      <trkpt lat="45.33613" lon="6.16439">
        <ele>1845.4204</ele>
        <time>2021-07-18T14:28:28</time>
      </trkpt>
      <trkpt lat="45.33613" lon="6.1644">
        <ele>1845.4204</ele>
        <time>2021-07-18T14:28:29</time>
      </trkpt>
      <trkpt lat="45.33611" lon="6.16443">
        <ele>1845.4204</ele>
        <time>2021-07-18T14:28:34</time>
      </trkpt>
      <trkpt lat="45.33607" lon="6.16448">
        <ele>1847.3204</ele>
        <time>2021-07-18T14:28:41</time>
      </trkpt>
      <trkpt lat="45.33601" lon="6.1646">
        <ele>1848.8204</ele>
        <time>2021-07-18T14:29:01</time>
      </trkpt>
      <trkpt lat="45.336" lon="6.16464">
        <ele>1850.5204</ele>
        <time>2021-07-18T14:29:07</time>
      </trkpt>
      <trkpt lat="45.33598" lon="6.16468">
        <ele>1850.5204</ele>
        <time>2021-07-18T14:29:14</time>
      </trkpt>
      <trkpt lat="45.33597" lon="6.1647">
        <ele>1851.0204</ele>
        <time>2021-07-18T14:29:19</time>
      </trkpt>
      <trkpt lat="45.33597" lon="6.1647">
        <ele>1851.0204</ele>
        <time>2021-07-18T14:29:20</time>
      </trkpt>
      <trkpt lat="45.33595" lon="6.16472">
        <ele>1851.0204</ele>
        <time>2021-07-18T14:29:23</time>
      </trkpt>
      <trkpt lat="45.33591" lon="6.1648">
        <ele>1852.6205</ele>
        <time>2021-07-18T14:29:36</time>
      </trkpt>
      <trkpt lat="45.33587" lon="6.16491">
        <ele>1855.2205</ele>
        <time>2021-07-18T14:29:55</time>
      </trkpt>
      <trkpt lat="45.33585" lon="6.16494">
        <ele>1856.5204</ele>
        <time>2021-07-18T14:30:01</time>
      </trkpt>
      <trkpt lat="45.33584" lon="6.16496">
        <ele>1856.5204</ele>
        <time>2021-07-18T14:30:06</time>
      </trkpt>
      <trkpt lat="45.33584" lon="6.16497">
        <ele>1858.0204</ele>
        <time>2021-07-18T14:30:07</time>
      </trkpt>
      <trkpt lat="45.33583" lon="6.16497">
        <ele>1858.0204</ele>
        <time>2021-07-18T14:30:09</time>
      </trkpt>
      <trkpt lat="45.3358" lon="6.165">
        <ele>1858.0204</ele>
        <time>2021-07-18T14:30:15</time>
      </trkpt>
      <trkpt lat="45.33579" lon="6.16506">
        <ele>1857.6205</ele>
        <time>2021-07-18T14:30:24</time>
      </trkpt>
      <trkpt lat="45.33578" lon="6.16507">
        <ele>1859.0204</ele>
        <time>2021-07-18T14:30:29</time>
      </trkpt>
      <trkpt lat="45.33575" lon="6.16513">
        <ele>1859.8204</ele>
        <time>2021-07-18T14:30:40</time>
      </trkpt>
      <trkpt lat="45.33571" lon="6.16524">
        <ele>1859.5204</ele>
        <time>2021-07-18T14:30:57</time>
      </trkpt>
      <trkpt lat="45.33568" lon="6.16537">
        <ele>1859.4204</ele>
        <time>2021-07-18T14:31:15</time>
      </trkpt>
      <trkpt lat="45.33565" lon="6.16542">
        <ele>1861.3204</ele>
        <time>2021-07-18T14:31:20</time>
      </trkpt>
      <trkpt lat="45.33564" lon="6.16548">
        <ele>1861.3204</ele>
        <time>2021-07-18T14:31:26</time>
      </trkpt>
      <trkpt lat="45.33563" lon="6.16552">
        <ele>1861.7205</ele>
        <time>2021-07-18T14:31:30</time>
      </trkpt>
      <trkpt lat="45.33562" lon="6.16555">
        <ele>1861.7205</ele>
        <time>2021-07-18T14:31:33</time>
      </trkpt>
      <trkpt lat="45.3356" lon="6.16564">
        <ele>1861.5204</ele>
        <time>2021-07-18T14:31:43</time>
      </trkpt>
      <trkpt lat="45.33559" lon="6.16576">
        <ele>1862.8204</ele>
        <time>2021-07-18T14:32:01</time>
      </trkpt>
      <trkpt lat="45.33558" lon="6.16579">
        <ele>1862.8204</ele>
        <time>2021-07-18T14:32:05</time>
      </trkpt>
      <trkpt lat="45.33558" lon="6.16583">
        <ele>1864.3204</ele>
        <time>2021-07-18T14:32:10</time>
      </trkpt>
      <trkpt lat="45.33557" lon="6.16587">
        <ele>1864.3204</ele>
        <time>2021-07-18T14:32:15</time>
      </trkpt>
      <trkpt lat="45.33555" lon="6.16591">
        <ele>1865.4204</ele>
        <time>2021-07-18T14:32:22</time>
      </trkpt>
      <trkpt lat="45.33553" lon="6.16601">
        <ele>1868.7205</ele>
        <time>2021-07-18T14:32:38</time>
      </trkpt>
      <trkpt lat="45.33552" lon="6.16606">
        <ele>1868.7205</ele>
        <time>2021-07-18T14:32:46</time>
      </trkpt>
      <trkpt lat="45.33554" lon="6.16609">
        <ele>1871.4204</ele>
        <time>2021-07-18T14:32:52</time>
      </trkpt>
      <trkpt lat="45.33553" lon="6.16614">
        <ele>1873.2205</ele>
        <time>2021-07-18T14:32:58</time>
      </trkpt>
      <trkpt lat="45.33552" lon="6.16619">
        <ele>1873.7205</ele>
        <time>2021-07-18T14:33:09</time>
      </trkpt>
      <trkpt lat="45.3355" lon="6.16629">
        <ele>1874.8204</ele>
        <time>2021-07-18T14:33:22</time>
      </trkpt>
      <trkpt lat="45.33544" lon="6.16642">
        <ele>1875.1205</ele>
        <time>2021-07-18T14:33:33</time>
      </trkpt>
      <trkpt lat="45.33544" lon="6.16645">
        <ele>1874.8204</ele>
        <time>2021-07-18T14:33:40</time>
      </trkpt>
      <trkpt lat="45.33543" lon="6.16651">
        <ele>1874.7205</ele>
        <time>2021-07-18T14:33:47</time>
      </trkpt>
      <trkpt lat="45.33542" lon="6.16655">
        <ele>1874.7205</ele>
        <time>2021-07-18T14:33:52</time>
      </trkpt>
      <trkpt lat="45.33542" lon="6.16658">
        <ele>1874.7205</ele>
        <time>2021-07-18T14:33:56</time>
      </trkpt>
      <trkpt lat="45.33541" lon="6.16662">
        <ele>1874.8204</ele>
        <time>2021-07-18T14:34:02</time>
      </trkpt>
      <trkpt lat="45.33542" lon="6.16662">
        <ele>1874.8204</ele>
        <time>2021-07-18T14:34:03</time>
      </trkpt>
      <trkpt lat="45.33542" lon="6.16663">
        <ele>1874.8204</ele>
        <time>2021-07-18T14:34:05</time>
      </trkpt>
      <trkpt lat="45.33542" lon="6.16663">
        <ele>1874.8204</ele>
        <time>2021-07-18T14:34:06</time>
      </trkpt>
      <trkpt lat="45.3354" lon="6.16666">
        <ele>1875.3204</ele>
        <time>2021-07-18T14:34:13</time>
      </trkpt>
      <trkpt lat="45.3354" lon="6.16665">
        <ele>1877.0204</ele>
        <time>2021-07-18T14:34:20</time>
      </trkpt>
      <trkpt lat="45.33539" lon="6.16665">
        <ele>1877.0204</ele>
        <time>2021-07-18T14:34:22</time>
      </trkpt>
      <trkpt lat="45.33539" lon="6.16666">
        <ele>1876.6205</ele>
        <time>2021-07-18T14:35:00</time>
      </trkpt>
      <trkpt lat="45.33539" lon="6.16672">
        <ele>1877.2205</ele>
        <time>2021-07-18T14:35:08</time>
      </trkpt>
      <trkpt lat="45.33538" lon="6.16683">
        <ele>1877.6205</ele>
        <time>2021-07-18T14:35:21</time>
      </trkpt>
      <trkpt lat="45.33538" lon="6.16688">
        <ele>1877.6205</ele>
        <time>2021-07-18T14:35:26</time>
      </trkpt>
      <trkpt lat="45.33538" lon="6.16692">
        <ele>1878.2205</ele>
        <time>2021-07-18T14:35:30</time>
      </trkpt>
      <trkpt lat="45.33537" lon="6.16696">
        <ele>1878.2205</ele>
        <time>2021-07-18T14:35:34</time>
      </trkpt>
      <trkpt lat="45.33534" lon="6.16707">
        <ele>1879.2205</ele>
        <time>2021-07-18T14:35:44</time>
      </trkpt>
      <trkpt lat="45.33532" lon="6.1671">
        <ele>1879.6205</ele>
        <time>2021-07-18T14:35:48</time>
      </trkpt>
      <trkpt lat="45.3353" lon="6.16713">
        <ele>1879.6205</ele>
        <time>2021-07-18T14:35:51</time>
      </trkpt>
      <trkpt lat="45.33527" lon="6.16719">
        <ele>1881.7205</ele>
        <time>2021-07-18T14:35:58</time>
      </trkpt>
      <trkpt lat="45.33525" lon="6.16722">
        <ele>1881.7205</ele>
        <time>2021-07-18T14:36:03</time>
      </trkpt>
      <trkpt lat="45.33524" lon="6.16728">
        <ele>1882.2205</ele>
        <time>2021-07-18T14:36:08</time>
      </trkpt>
      <trkpt lat="45.33522" lon="6.16743">
        <ele>1882.2205</ele>
        <time>2021-07-18T14:36:22</time>
      </trkpt>
      <trkpt lat="45.33525" lon="6.16758">
        <ele>1882.6205</ele>
        <time>2021-07-18T14:36:38</time>
      </trkpt>
      <trkpt lat="45.33526" lon="6.16771">
        <ele>1884.1205</ele>
        <time>2021-07-18T14:36:54</time>
      </trkpt>
      <trkpt lat="45.33527" lon="6.16774">
        <ele>1885.3204</ele>
        <time>2021-07-18T14:36:58</time>
      </trkpt>
      <trkpt lat="45.33525" lon="6.1678">
        <ele>1885.3204</ele>
        <time>2021-07-18T14:37:04</time>
      </trkpt>
      <trkpt lat="45.33524" lon="6.16785">
        <ele>1886.8204</ele>
        <time>2021-07-18T14:37:08</time>
      </trkpt>
      <trkpt lat="45.33523" lon="6.1679">
        <ele>1886.8204</ele>
        <time>2021-07-18T14:37:12</time>
      </trkpt>
      <trkpt lat="45.33522" lon="6.16793">
        <ele>1886.8204</ele>
        <time>2021-07-18T14:37:15</time>
      </trkpt>
      <trkpt lat="45.3352" lon="6.168">
        <ele>1888.3204</ele>
        <time>2021-07-18T14:37:21</time>
      </trkpt>
      <trkpt lat="45.33519" lon="6.16804">
        <ele>1888.3204</ele>
        <time>2021-07-18T14:37:25</time>
      </trkpt>
      <trkpt lat="45.33517" lon="6.16808">
        <ele>1887.9204</ele>
        <time>2021-07-18T14:37:29</time>
      </trkpt>
      <trkpt lat="45.33515" lon="6.16812">
        <ele>1887.9204</ele>
        <time>2021-07-18T14:37:32</time>
      </trkpt>
      <trkpt lat="45.33512" lon="6.16821">
        <ele>1887.9204</ele>
        <time>2021-07-18T14:37:41</time>
      </trkpt>
      <trkpt lat="45.33511" lon="6.16827">
        <ele>1887.4204</ele>
        <time>2021-07-18T14:37:49</time>
      </trkpt>
      <trkpt lat="45.3351" lon="6.16832">
        <ele>1887.4204</ele>
        <time>2021-07-18T14:37:55</time>
      </trkpt>
      <trkpt lat="45.3351" lon="6.16837">
        <ele>1888.3204</ele>
        <time>2021-07-18T14:38:00</time>
      </trkpt>
      <trkpt lat="45.33508" lon="6.16842">
        <ele>1888.3204</ele>
        <time>2021-07-18T14:38:06</time>
      </trkpt>
      <trkpt lat="45.33506" lon="6.1685">
        <ele>1889.1205</ele>
        <time>2021-07-18T14:38:14</time>
      </trkpt>
      <trkpt lat="45.33502" lon="6.16862">
        <ele>1889.6205</ele>
        <time>2021-07-18T14:38:24</time>
      </trkpt>
      <trkpt lat="45.335" lon="6.16867">
        <ele>1890.4204</ele>
        <time>2021-07-18T14:38:30</time>
      </trkpt>
      <trkpt lat="45.335" lon="6.16873">
        <ele>1890.4204</ele>
        <time>2021-07-18T14:38:36</time>
      </trkpt>
      <trkpt lat="45.33498" lon="6.16879">
        <ele>1889.2205</ele>
        <time>2021-07-18T14:38:42</time>
      </trkpt>
      <trkpt lat="45.33495" lon="6.16902">
        <ele>1890.2205</ele>
        <time>2021-07-18T14:39:02</time>
      </trkpt>
      <trkpt lat="45.33492" lon="6.16905">
        <ele>1889.3204</ele>
        <time>2021-07-18T14:39:08</time>
      </trkpt>
      <trkpt lat="45.33488" lon="6.16908">
        <ele>1889.3204</ele>
        <time>2021-07-18T14:39:14</time>
      </trkpt>
      <trkpt lat="45.33486" lon="6.16911">
        <ele>1890.7205</ele>
        <time>2021-07-18T14:39:18</time>
      </trkpt>
      <trkpt lat="45.33485" lon="6.16912">
        <ele>1890.7205</ele>
        <time>2021-07-18T14:39:21</time>
      </trkpt>
      <trkpt lat="45.33485" lon="6.16912">
        <ele>1890.7205</ele>
        <time>2021-07-18T14:39:25</time>
      </trkpt>
      <trkpt lat="45.33477" lon="6.16926">
        <ele>1891.4204</ele>
        <time>2021-07-18T14:39:42</time>
      </trkpt>
      <trkpt lat="45.33475" lon="6.16931">
        <ele>1891.4204</ele>
        <time>2021-07-18T14:39:46</time>
      </trkpt>
      <trkpt lat="45.33475" lon="6.16933">
        <ele>1891.4204</ele>
        <time>2021-07-18T14:39:48</time>
      </trkpt>
      <trkpt lat="45.33475" lon="6.16938">
        <ele>1891.4204</ele>
        <time>2021-07-18T14:39:52</time>
      </trkpt>
      <trkpt lat="45.33475" lon="6.16942">
        <ele>1891.4204</ele>
        <time>2021-07-18T14:39:58</time>
      </trkpt>
      <trkpt lat="45.33474" lon="6.16942">
        <ele>1891.4204</ele>
        <time>2021-07-18T14:40:02</time>
      </trkpt>
      <trkpt lat="45.33473" lon="6.16947">
        <ele>1891.4204</ele>
        <time>2021-07-18T14:40:06</time>
      </trkpt>
      <trkpt lat="45.33471" lon="6.16952">
        <ele>1890.7205</ele>
        <time>2021-07-18T14:40:11</time>
      </trkpt>
      <trkpt lat="45.33464" lon="6.16968">
        <ele>1890.5204</ele>
        <time>2021-07-18T14:40:27</time>
      </trkpt>
      <trkpt lat="45.33464" lon="6.16972">
        <ele>1890.5204</ele>
        <time>2021-07-18T14:40:31</time>
      </trkpt>
      <trkpt lat="45.33465" lon="6.16977">
        <ele>1890.5204</ele>
        <time>2021-07-18T14:40:35</time>
      </trkpt>
      <trkpt lat="45.33464" lon="6.16979">
        <ele>1889.0204</ele>
        <time>2021-07-18T14:40:39</time>
      </trkpt>
      <trkpt lat="45.33462" lon="6.16982">
        <ele>1889.0204</ele>
        <time>2021-07-18T14:40:43</time>
      </trkpt>
      <trkpt lat="45.3346" lon="6.16987">
        <ele>1887.8204</ele>
        <time>2021-07-18T14:40:47</time>
      </trkpt>
      <trkpt lat="45.3346" lon="6.16992">
        <ele>1887.8204</ele>
        <time>2021-07-18T14:40:52</time>
      </trkpt>
      <trkpt lat="45.33458" lon="6.16997">
        <ele>1887.3204</ele>
        <time>2021-07-18T14:40:57</time>
      </trkpt>
      <trkpt lat="45.33458" lon="6.17001">
        <ele>1887.3204</ele>
        <time>2021-07-18T14:41:00</time>
      </trkpt>
      <trkpt lat="45.33456" lon="6.17006">
        <ele>1887.3204</ele>
        <time>2021-07-18T14:41:05</time>
      </trkpt>
      <trkpt lat="45.33451" lon="6.17012">
        <ele>1887.4204</ele>
        <time>2021-07-18T14:41:12</time>
      </trkpt>
      <trkpt lat="45.33447" lon="6.17016">
        <ele>1887.2205</ele>
        <time>2021-07-18T14:41:19</time>
      </trkpt>
      <trkpt lat="45.33447" lon="6.17016">
        <ele>1887.2205</ele>
        <time>2021-07-18T14:41:20</time>
      </trkpt>
      <trkpt lat="45.33446" lon="6.17015">
        <ele>1887.2205</ele>
        <time>2021-07-18T14:41:21</time>
      </trkpt>
      <trkpt lat="45.33446" lon="6.17015">
        <ele>1887.2205</ele>
        <time>2021-07-18T14:41:22</time>
      </trkpt>
      <trkpt lat="45.33446" lon="6.17014">
        <ele>1887.2205</ele>
        <time>2021-07-18T14:41:24</time>
      </trkpt>
      <trkpt lat="45.33446" lon="6.17013">
        <ele>1887.2205</ele>
        <time>2021-07-18T14:41:26</time>
      </trkpt>
      <trkpt lat="45.33446" lon="6.17013">
        <ele>1887.1205</ele>
        <time>2021-07-18T14:41:27</time>
      </trkpt>
      <trkpt lat="45.33446" lon="6.17013">
        <ele>1887.1205</ele>
        <time>2021-07-18T14:41:28</time>
      </trkpt>
      <trkpt lat="45.33446" lon="6.17012">
        <ele>1887.1205</ele>
        <time>2021-07-18T14:41:29</time>
      </trkpt>
      <trkpt lat="45.33446" lon="6.17012">
        <ele>1887.1205</ele>
        <time>2021-07-18T14:41:30</time>
      </trkpt>
      <trkpt lat="45.33446" lon="6.17012">
        <ele>1887.8204</ele>
        <time>2021-07-18T14:41:53</time>
      </trkpt>
      <trkpt lat="45.33446" lon="6.17012">
        <ele>1887.8204</ele>
        <time>2021-07-18T14:41:54</time>
      </trkpt>
      <trkpt lat="45.33446" lon="6.17015">
        <ele>1887.8204</ele>
        <time>2021-07-18T14:41:56</time>
      </trkpt>
      <trkpt lat="45.33446" lon="6.17014">
        <ele>1887.8204</ele>
        <time>2021-07-18T14:42:05</time>
      </trkpt>
      <trkpt lat="45.33446" lon="6.17015">
        <ele>1887.8204</ele>
        <time>2021-07-18T14:42:06</time>
      </trkpt>
      <trkpt lat="45.33446" lon="6.17014">
        <ele>1887.8204</ele>
        <time>2021-07-18T14:42:07</time>
      </trkpt>
      <trkpt lat="45.33446" lon="6.17013">
        <ele>1887.8204</ele>
        <time>2021-07-18T14:42:11</time>
      </trkpt>
      <trkpt lat="45.33446" lon="6.17013">
        <ele>1887.8204</ele>
        <time>2021-07-18T14:42:13</time>
      </trkpt>
      <trkpt lat="45.33445" lon="6.17013">
        <ele>1887.8204</ele>
        <time>2021-07-18T14:42:14</time>
      </trkpt>
      <trkpt lat="45.33445" lon="6.17013">
        <ele>1887.8204</ele>
        <time>2021-07-18T14:42:15</time>
      </trkpt>
      <trkpt lat="45.33445" lon="6.17013">
        <ele>1890.3204</ele>
        <time>2021-07-18T14:43:06</time>
      </trkpt>
      <trkpt lat="45.33445" lon="6.17013">
        <ele>1890.3204</ele>
        <time>2021-07-18T14:43:27</time>
      </trkpt>
      <trkpt lat="45.33446" lon="6.17014">
        <ele>1890.3204</ele>
        <time>2021-07-18T14:43:28</time>
      </trkpt>
      <trkpt lat="45.33447" lon="6.17013">
        <ele>1890.3204</ele>
        <time>2021-07-18T14:43:42</time>
      </trkpt>
      <trkpt lat="45.33447" lon="6.17014">
        <ele>1890.3204</ele>
        <time>2021-07-18T14:43:43</time>
      </trkpt>
      <trkpt lat="45.33447" lon="6.17011">
        <ele>1890.3204</ele>
        <time>2021-07-18T14:44:24</time>
      </trkpt>
      <trkpt lat="45.33447" lon="6.17012">
        <ele>1890.3204</ele>
        <time>2021-07-18T14:44:46</time>
      </trkpt>
      <trkpt lat="45.33447" lon="6.17012">
        <ele>1890.3204</ele>
        <time>2021-07-18T14:44:47</time>
      </trkpt>
      <trkpt lat="45.33447" lon="6.17013">
        <ele>1890.3204</ele>
        <time>2021-07-18T14:45:30</time>
      </trkpt>
      <trkpt lat="45.33447" lon="6.17013">
        <ele>1890.3204</ele>
        <time>2021-07-18T14:46:02</time>
      </trkpt>
      <trkpt lat="45.33447" lon="6.17013">
        <ele>1890.3204</ele>
        <time>2021-07-18T14:46:05</time>
      </trkpt>
      <trkpt lat="45.33447" lon="6.17013">
        <ele>1890.3204</ele>
        <time>2021-07-18T14:46:06</time>
      </trkpt>
      <trkpt lat="45.33447" lon="6.17014">
        <ele>1890.3204</ele>
        <time>2021-07-18T14:46:48</time>
      </trkpt>
      <trkpt lat="45.33447" lon="6.17014">
        <ele>1890.3204</ele>
        <time>2021-07-18T14:48:41</time>
      </trkpt>
      <trkpt lat="45.33447" lon="6.17014">
        <ele>1890.3204</ele>
        <time>2021-07-18T14:49:11</time>
      </trkpt>
      <trkpt lat="45.33447" lon="6.17014">
        <ele>1890.3204</ele>
        <time>2021-07-18T14:49:15</time>
      </trkpt>
      <trkpt lat="45.33447" lon="6.17014">
        <ele>1890.3204</ele>
        <time>2021-07-18T14:49:16</time>
      </trkpt>
      <trkpt lat="45.33448" lon="6.17014">
        <ele>1890.3204</ele>
        <time>2021-07-18T14:49:20</time>
      </trkpt>
      <trkpt lat="45.33448" lon="6.17014">
        <ele>1890.3204</ele>
        <time>2021-07-18T14:49:21</time>
      </trkpt>
      <trkpt lat="45.33447" lon="6.17014">
        <ele>1890.3204</ele>
        <time>2021-07-18T14:50:05</time>
      </trkpt>
      <trkpt lat="45.33449" lon="6.1701">
        <ele>1890.3204</ele>
        <time>2021-07-18T14:50:15</time>
      </trkpt>
      <trkpt lat="45.33448" lon="6.1701">
        <ele>1890.3204</ele>
        <time>2021-07-18T14:50:16</time>
      </trkpt>
      <trkpt lat="45.33449" lon="6.1701">
        <ele>1890.3204</ele>
        <time>2021-07-18T14:50:19</time>
      </trkpt>
      <trkpt lat="45.33449" lon="6.17011">
        <ele>1890.3204</ele>
        <time>2021-07-18T14:50:20</time>
      </trkpt>
      <trkpt lat="45.33449" lon="6.17011">
        <ele>1890.3204</ele>
        <time>2021-07-18T14:50:21</time>
      </trkpt>
      <trkpt lat="45.33449" lon="6.17011">
        <ele>1890.3204</ele>
        <time>2021-07-18T14:50:24</time>
      </trkpt>
      <trkpt lat="45.33448" lon="6.17011">
        <ele>1890.3204</ele>
        <time>2021-07-18T14:50:29</time>
      </trkpt>
      <trkpt lat="45.33447" lon="6.17011">
        <ele>1890.3204</ele>
        <time>2021-07-18T14:50:43</time>
      </trkpt>
      <trkpt lat="45.33447" lon="6.17011">
        <ele>1890.3204</ele>
        <time>2021-07-18T14:50:44</time>
      </trkpt>
      <trkpt lat="45.33446" lon="6.1701">
        <ele>1890.3204</ele>
        <time>2021-07-18T14:50:46</time>
      </trkpt>
      <trkpt lat="45.33444" lon="6.1701">
        <ele>1890.3204</ele>
        <time>2021-07-18T14:50:49</time>
      </trkpt>
      <trkpt lat="45.33444" lon="6.1701">
        <ele>1890.3204</ele>
        <time>2021-07-18T14:50:50</time>
      </trkpt>
      <trkpt lat="45.33441" lon="6.17007">
        <ele>1890.3204</ele>
        <time>2021-07-18T14:50:56</time>
      </trkpt>
      <trkpt lat="45.3344" lon="6.17008">
        <ele>1890.3204</ele>
        <time>2021-07-18T14:50:57</time>
      </trkpt>
      <trkpt lat="45.3344" lon="6.17008">
        <ele>1890.3204</ele>
        <time>2021-07-18T14:50:58</time>
      </trkpt>
      <trkpt lat="45.3344" lon="6.17008">
        <ele>1890.3204</ele>
        <time>2021-07-18T14:50:59</time>
      </trkpt>
      <trkpt lat="45.3344" lon="6.17008">
        <ele>1887.2205</ele>
        <time>2021-07-18T14:51:13</time>
      </trkpt>
      <trkpt lat="45.33438" lon="6.17008">
        <ele>1887.2205</ele>
        <time>2021-07-18T14:51:16</time>
      </trkpt>
      <trkpt lat="45.33436" lon="6.17006">
        <ele>1888.5204</ele>
        <time>2021-07-18T14:51:20</time>
      </trkpt>
      <trkpt lat="45.33436" lon="6.17006">
        <ele>1888.5204</ele>
        <time>2021-07-18T14:51:26</time>
      </trkpt>
      <trkpt lat="45.33437" lon="6.17006">
        <ele>1888.3204</ele>
        <time>2021-07-18T14:51:34</time>
      </trkpt>
      <trkpt lat="45.33434" lon="6.17007">
        <ele>1887.9204</ele>
        <time>2021-07-18T14:51:39</time>
      </trkpt>
      <trkpt lat="45.33431" lon="6.17006">
        <ele>1887.9204</ele>
        <time>2021-07-18T14:51:46</time>
      </trkpt>
      <trkpt lat="45.33431" lon="6.17007">
        <ele>1887.7205</ele>
        <time>2021-07-18T14:51:52</time>
      </trkpt>
      <trkpt lat="45.33432" lon="6.17007">
        <ele>1887.7205</ele>
        <time>2021-07-18T14:51:54</time>
      </trkpt>
      <trkpt lat="45.33434" lon="6.17008">
        <ele>1886.8204</ele>
        <time>2021-07-18T14:52:00</time>
      </trkpt>
      <trkpt lat="45.33434" lon="6.17007">
        <ele>1886.8204</ele>
        <time>2021-07-18T14:52:02</time>
      </trkpt>
      <trkpt lat="45.33433" lon="6.17007">
        <ele>1886.8204</ele>
        <time>2021-07-18T14:52:03</time>
      </trkpt>
      <trkpt lat="45.33433" lon="6.17007">
        <ele>1886.8204</ele>
        <time>2021-07-18T14:52:04</time>
      </trkpt>
      <trkpt lat="45.33434" lon="6.17005">
        <ele>1886.6205</ele>
        <time>2021-07-18T14:52:08</time>
      </trkpt>
      <trkpt lat="45.33433" lon="6.17004">
        <ele>1886.6205</ele>
        <time>2021-07-18T14:53:48</time>
      </trkpt>
      <trkpt lat="45.33433" lon="6.17004">
        <ele>1886.6205</ele>
        <time>2021-07-18T14:53:49</time>
      </trkpt>
      <trkpt lat="45.33433" lon="6.17005">
        <ele>1886.6205</ele>
        <time>2021-07-18T14:53:53</time>
      </trkpt>
      <trkpt lat="45.33434" lon="6.17006">
        <ele>1886.6205</ele>
        <time>2021-07-18T14:53:55</time>
      </trkpt>
      <trkpt lat="45.33434" lon="6.17006">
        <ele>1886.6205</ele>
        <time>2021-07-18T14:53:56</time>
      </trkpt>
      <trkpt lat="45.33434" lon="6.17006">
        <ele>1886.4204</ele>
        <time>2021-07-18T14:53:57</time>
      </trkpt>
      <trkpt lat="45.33434" lon="6.17006">
        <ele>1886.4204</ele>
        <time>2021-07-18T14:54:14</time>
      </trkpt>
      <trkpt lat="45.33434" lon="6.17006">
        <ele>1886.4204</ele>
        <time>2021-07-18T14:54:15</time>
      </trkpt>
      <trkpt lat="45.33434" lon="6.17007">
        <ele>1886.4204</ele>
        <time>2021-07-18T14:54:26</time>
      </trkpt>
      <trkpt lat="45.33434" lon="6.17007">
        <ele>1886.4204</ele>
        <time>2021-07-18T14:54:27</time>
      </trkpt>
      <trkpt lat="45.33433" lon="6.17005">
        <ele>1889.0204</ele>
        <time>2021-07-18T15:09:56</time>
      </trkpt>
      <trkpt lat="45.33433" lon="6.17005">
        <ele>1889.0204</ele>
        <time>2021-07-18T15:11:19</time>
      </trkpt>
      <trkpt lat="45.33433" lon="6.17005">
        <ele>1889.0204</ele>
        <time>2021-07-18T15:11:20</time>
      </trkpt>
      <trkpt lat="45.33435" lon="6.17006">
        <ele>1889.0204</ele>
        <time>2021-07-18T15:40:58</time>
      </trkpt>
      <trkpt lat="45.33435" lon="6.17005">
        <ele>1890.7205</ele>
        <time>2021-07-18T15:41:14</time>
      </trkpt>
      <trkpt lat="45.33435" lon="6.17005">
        <ele>1890.7205</ele>
        <time>2021-07-18T15:41:15</time>
      </trkpt>
      <trkpt lat="45.33435" lon="6.17006">
        <ele>1890.7205</ele>
        <time>2021-07-18T15:41:16</time>
      </trkpt>
      <trkpt lat="45.33435" lon="6.17007">
        <ele>1890.7205</ele>
        <time>2021-07-18T15:41:17</time>
      </trkpt>
      <trkpt lat="45.33434" lon="6.17008">
        <ele>1890.7205</ele>
        <time>2021-07-18T15:41:18</time>
      </trkpt>
      <trkpt lat="45.33435" lon="6.17009">
        <ele>1890.7205</ele>
        <time>2021-07-18T15:41:20</time>
      </trkpt>
      <trkpt lat="45.33435" lon="6.17009">
        <ele>1890.7205</ele>
        <time>2021-07-18T15:41:21</time>
      </trkpt>
      <trkpt lat="45.33435" lon="6.17009">
        <ele>1890.7205</ele>
        <time>2021-07-18T15:41:22</time>
      </trkpt>
      <trkpt lat="45.33435" lon="6.17009">
        <ele>1890.7205</ele>
        <time>2021-07-18T15:41:23</time>
      </trkpt>
      <trkpt lat="45.33434" lon="6.17009">
        <ele>1890.7205</ele>
        <time>2021-07-18T15:41:24</time>
      </trkpt>
      <trkpt lat="45.33434" lon="6.17008">
        <ele>1890.7205</ele>
        <time>2021-07-18T15:41:25</time>
      </trkpt>
      <trkpt lat="45.33434" lon="6.17009">
        <ele>1890.7205</ele>
        <time>2021-07-18T15:41:42</time>
      </trkpt>
      <trkpt lat="45.33434" lon="6.17009">
        <ele>1890.7205</ele>
        <time>2021-07-18T15:41:43</time>
      </trkpt>
      <trkpt lat="45.33434" lon="6.17009">
        <ele>1890.7205</ele>
        <time>2021-07-18T15:41:53</time>
      </trkpt>
      <trkpt lat="45.33434" lon="6.17009">
        <ele>1890.7205</ele>
        <time>2021-07-18T15:41:54</time>
      </trkpt>
      <trkpt lat="45.33436" lon="6.17009">
        <ele>1890.7205</ele>
        <time>2021-07-18T15:41:57</time>
      </trkpt>
      <trkpt lat="45.33438" lon="6.17011">
        <ele>1890.7205</ele>
        <time>2021-07-18T15:42:01</time>
      </trkpt>
      <trkpt lat="45.3344" lon="6.17011">
        <ele>1890.7205</ele>
        <time>2021-07-18T15:42:04</time>
      </trkpt>
      <trkpt lat="45.33442" lon="6.17012">
        <ele>1890.7205</ele>
        <time>2021-07-18T15:42:06</time>
      </trkpt>
      <trkpt lat="45.33443" lon="6.17013">
        <ele>1890.7205</ele>
        <time>2021-07-18T15:42:11</time>
      </trkpt>
      <trkpt lat="45.33443" lon="6.17012">
        <ele>1890.7205</ele>
        <time>2021-07-18T15:42:13</time>
      </trkpt>
      <trkpt lat="45.33442" lon="6.17012">
        <ele>1890.7205</ele>
        <time>2021-07-18T15:42:50</time>
      </trkpt>
      <trkpt lat="45.33442" lon="6.17012">
        <ele>1890.6205</ele>
        <time>2021-07-18T15:43:24</time>
      </trkpt>
      <trkpt lat="45.33442" lon="6.17012">
        <ele>1890.6205</ele>
        <time>2021-07-18T15:44:01</time>
      </trkpt>
      <trkpt lat="45.33443" lon="6.17013">
        <ele>1890.6205</ele>
        <time>2021-07-18T15:44:02</time>
      </trkpt>
      <trkpt lat="45.33444" lon="6.17014">
        <ele>1894.4204</ele>
        <time>2021-07-18T15:44:58</time>
      </trkpt>
      <trkpt lat="45.33444" lon="6.17015">
        <ele>1894.4204</ele>
        <time>2021-07-18T15:45:30</time>
      </trkpt>
      <trkpt lat="45.33444" lon="6.17015">
        <ele>1894.4204</ele>
        <time>2021-07-18T15:45:31</time>
      </trkpt>
      <trkpt lat="45.33445" lon="6.17016">
        <ele>1894.4204</ele>
        <time>2021-07-18T15:45:32</time>
      </trkpt>
      <trkpt lat="45.33448" lon="6.17015">
        <ele>1894.5204</ele>
        <time>2021-07-18T15:45:38</time>
      </trkpt>
      <trkpt lat="45.33452" lon="6.17013">
        <ele>1894.5204</ele>
        <time>2021-07-18T15:45:43</time>
      </trkpt>
      <trkpt lat="45.33454" lon="6.1701">
        <ele>1894.1205</ele>
        <time>2021-07-18T15:45:47</time>
      </trkpt>
      <trkpt lat="45.33456" lon="6.17008">
        <ele>1894.1205</ele>
        <time>2021-07-18T15:45:50</time>
      </trkpt>
      <trkpt lat="45.33458" lon="6.17004">
        <ele>1896.0204</ele>
        <time>2021-07-18T15:45:56</time>
      </trkpt>
      <trkpt lat="45.33461" lon="6.17">
        <ele>1896.0204</ele>
        <time>2021-07-18T15:46:02</time>
      </trkpt>
      <trkpt lat="45.33462" lon="6.17">
        <ele>1892.5204</ele>
        <time>2021-07-18T15:46:06</time>
      </trkpt>
      <trkpt lat="45.33464" lon="6.16996">
        <ele>1892.5204</ele>
        <time>2021-07-18T15:46:11</time>
      </trkpt>
      <trkpt lat="45.33465" lon="6.16992">
        <ele>1891.3204</ele>
        <time>2021-07-18T15:46:15</time>
      </trkpt>
      <trkpt lat="45.33466" lon="6.16988">
        <ele>1891.3204</ele>
        <time>2021-07-18T15:46:19</time>
      </trkpt>
      <trkpt lat="45.33468" lon="6.16986">
        <ele>1891.3204</ele>
        <time>2021-07-18T15:46:23</time>
      </trkpt>
      <trkpt lat="45.33469" lon="6.16981">
        <ele>1893.4204</ele>
        <time>2021-07-18T15:46:29</time>
      </trkpt>
      <trkpt lat="45.33469" lon="6.16978">
        <ele>1893.4204</ele>
        <time>2021-07-18T15:46:32</time>
      </trkpt>
      <trkpt lat="45.33467" lon="6.16972">
        <ele>1896.8204</ele>
        <time>2021-07-18T15:46:37</time>
      </trkpt>
      <trkpt lat="45.33466" lon="6.1697">
        <ele>1896.8204</ele>
        <time>2021-07-18T15:46:40</time>
      </trkpt>
      <trkpt lat="45.33465" lon="6.16966">
        <ele>1896.8204</ele>
        <time>2021-07-18T15:46:43</time>
      </trkpt>
      <trkpt lat="45.33462" lon="6.16962">
        <ele>1896.5204</ele>
        <time>2021-07-18T15:46:48</time>
      </trkpt>
      <trkpt lat="45.33461" lon="6.16958">
        <ele>1896.7205</ele>
        <time>2021-07-18T15:46:54</time>
      </trkpt>
      <trkpt lat="45.33461" lon="6.16958">
        <ele>1896.7205</ele>
        <time>2021-07-18T15:46:55</time>
      </trkpt>
      <trkpt lat="45.33461" lon="6.16958">
        <ele>1896.7205</ele>
        <time>2021-07-18T15:46:59</time>
      </trkpt>
      <trkpt lat="45.3346" lon="6.16958">
        <ele>1896.7205</ele>
        <time>2021-07-18T15:47:00</time>
      </trkpt>
      <trkpt lat="45.33457" lon="6.16959">
        <ele>1897.4204</ele>
        <time>2021-07-18T15:47:04</time>
      </trkpt>
      <trkpt lat="45.33456" lon="6.16959">
        <ele>1897.4204</ele>
        <time>2021-07-18T15:47:07</time>
      </trkpt>
      <trkpt lat="45.33455" lon="6.1696">
        <ele>1898.5204</ele>
        <time>2021-07-18T15:47:14</time>
      </trkpt>
      <trkpt lat="45.33454" lon="6.1696">
        <ele>1898.5204</ele>
        <time>2021-07-18T15:47:15</time>
      </trkpt>
      <trkpt lat="45.33454" lon="6.1696">
        <ele>1898.5204</ele>
        <time>2021-07-18T15:47:19</time>
      </trkpt>
      <trkpt lat="45.33454" lon="6.1696">
        <ele>1898.5204</ele>
        <time>2021-07-18T15:47:20</time>
      </trkpt>
      <trkpt lat="45.33454" lon="6.16959">
        <ele>1897.1205</ele>
        <time>2021-07-18T15:47:25</time>
      </trkpt>
      <trkpt lat="45.33454" lon="6.1696">
        <ele>1897.1205</ele>
        <time>2021-07-18T15:47:26</time>
      </trkpt>
      <trkpt lat="45.33455" lon="6.1696">
        <ele>1897.1205</ele>
        <time>2021-07-18T15:47:27</time>
      </trkpt>
      <trkpt lat="45.33455" lon="6.16961">
        <ele>1897.1205</ele>
        <time>2021-07-18T15:47:28</time>
      </trkpt>
      <trkpt lat="45.33455" lon="6.16961">
        <ele>1897.1205</ele>
        <time>2021-07-18T15:47:29</time>
      </trkpt>
      <trkpt lat="45.33455" lon="6.16963">
        <ele>1899.8204</ele>
        <time>2021-07-18T15:47:45</time>
      </trkpt>
      <trkpt lat="45.33457" lon="6.16963">
        <ele>1899.8204</ele>
        <time>2021-07-18T15:47:48</time>
      </trkpt>
      <trkpt lat="45.33458" lon="6.16963">
        <ele>1899.8204</ele>
        <time>2021-07-18T15:47:50</time>
      </trkpt>
      <trkpt lat="45.3346" lon="6.16962">
        <ele>1899.8204</ele>
        <time>2021-07-18T15:47:53</time>
      </trkpt>
      <trkpt lat="45.33462" lon="6.16959">
        <ele>1898.9204</ele>
        <time>2021-07-18T15:47:57</time>
      </trkpt>
      <trkpt lat="45.33464" lon="6.16958">
        <ele>1898.9204</ele>
        <time>2021-07-18T15:48:00</time>
      </trkpt>
      <trkpt lat="45.33469" lon="6.16956">
        <ele>1895.9204</ele>
        <time>2021-07-18T15:48:06</time>
      </trkpt>
      <trkpt lat="45.33471" lon="6.16953">
        <ele>1895.9204</ele>
        <time>2021-07-18T15:48:09</time>
      </trkpt>
      <trkpt lat="45.33473" lon="6.16951">
        <ele>1895.9204</ele>
        <time>2021-07-18T15:48:12</time>
      </trkpt>
      <trkpt lat="45.33476" lon="6.16934">
        <ele>1895.7205</ele>
        <time>2021-07-18T15:48:28</time>
      </trkpt>
      <trkpt lat="45.33478" lon="6.16924">
        <ele>1894.9204</ele>
        <time>2021-07-18T15:48:36</time>
      </trkpt>
      <trkpt lat="45.33481" lon="6.16918">
        <ele>1894.9204</ele>
        <time>2021-07-18T15:48:42</time>
      </trkpt>
      <trkpt lat="45.33482" lon="6.16916">
        <ele>1894.2205</ele>
        <time>2021-07-18T15:48:44</time>
      </trkpt>
      <trkpt lat="45.33485" lon="6.1691">
        <ele>1894.2205</ele>
        <time>2021-07-18T15:48:52</time>
      </trkpt>
      <trkpt lat="45.33489" lon="6.16907">
        <ele>1891.7205</ele>
        <time>2021-07-18T15:48:57</time>
      </trkpt>
      <trkpt lat="45.33494" lon="6.16902">
        <ele>1892.4204</ele>
        <time>2021-07-18T15:49:04</time>
      </trkpt>
      <trkpt lat="45.33497" lon="6.16896">
        <ele>1892.4204</ele>
        <time>2021-07-18T15:49:10</time>
      </trkpt>
      <trkpt lat="45.33498" lon="6.16892">
        <ele>1892.4204</ele>
        <time>2021-07-18T15:49:13</time>
      </trkpt>
      <trkpt lat="45.33499" lon="6.16888">
        <ele>1892.6205</ele>
        <time>2021-07-18T15:49:16</time>
      </trkpt>
      <trkpt lat="45.33499" lon="6.16886">
        <ele>1892.6205</ele>
        <time>2021-07-18T15:49:18</time>
      </trkpt>
      <trkpt lat="45.33499" lon="6.16885">
        <ele>1892.6205</ele>
        <time>2021-07-18T15:49:20</time>
      </trkpt>
      <trkpt lat="45.33499" lon="6.16885">
        <ele>1893.5204</ele>
        <time>2021-07-18T15:49:50</time>
      </trkpt>
      <trkpt lat="45.33499" lon="6.16885">
        <ele>1893.5204</ele>
        <time>2021-07-18T15:50:22</time>
      </trkpt>
      <trkpt lat="45.33499" lon="6.16885">
        <ele>1893.5204</ele>
        <time>2021-07-18T15:50:30</time>
      </trkpt>
      <trkpt lat="45.33499" lon="6.16885">
        <ele>1893.5204</ele>
        <time>2021-07-18T15:50:31</time>
      </trkpt>
      <trkpt lat="45.33499" lon="6.16884">
        <ele>1893.5204</ele>
        <time>2021-07-18T15:50:32</time>
      </trkpt>
      <trkpt lat="45.33499" lon="6.16884">
        <ele>1893.5204</ele>
        <time>2021-07-18T15:50:33</time>
      </trkpt>
      <trkpt lat="45.33498" lon="6.16885">
        <ele>1893.3204</ele>
        <time>2021-07-18T15:50:55</time>
      </trkpt>
      <trkpt lat="45.33498" lon="6.16884">
        <ele>1893.3204</ele>
        <time>2021-07-18T15:50:56</time>
      </trkpt>
      <trkpt lat="45.33499" lon="6.16879">
        <ele>1893.3204</ele>
        <time>2021-07-18T15:51:00</time>
      </trkpt>
      <trkpt lat="45.33499" lon="6.16873">
        <ele>1893.3204</ele>
        <time>2021-07-18T15:51:05</time>
      </trkpt>
      <trkpt lat="45.335" lon="6.1687">
        <ele>1893.3204</ele>
        <time>2021-07-18T15:51:08</time>
      </trkpt>
      <trkpt lat="45.335" lon="6.16867">
        <ele>1893.3204</ele>
        <time>2021-07-18T15:51:11</time>
      </trkpt>
      <trkpt lat="45.33501" lon="6.16863">
        <ele>1889.6205</ele>
        <time>2021-07-18T15:51:16</time>
      </trkpt>
      <trkpt lat="45.33503" lon="6.1686">
        <ele>1889.6205</ele>
        <time>2021-07-18T15:51:20</time>
      </trkpt>
      <trkpt lat="45.33503" lon="6.16856">
        <ele>1890.0204</ele>
        <time>2021-07-18T15:51:24</time>
      </trkpt>
      <trkpt lat="45.33503" lon="6.16851">
        <ele>1890.0204</ele>
        <time>2021-07-18T15:51:29</time>
      </trkpt>
      <trkpt lat="45.33504" lon="6.16848">
        <ele>1890.0204</ele>
        <time>2021-07-18T15:51:33</time>
      </trkpt>
      <trkpt lat="45.33504" lon="6.16848">
        <ele>1891.6205</ele>
        <time>2021-07-18T15:51:34</time>
      </trkpt>
      <trkpt lat="45.33504" lon="6.16848">
        <ele>1891.6205</ele>
        <time>2021-07-18T15:51:35</time>
      </trkpt>
      <trkpt lat="45.33505" lon="6.16847">
        <ele>1891.6205</ele>
        <time>2021-07-18T15:51:43</time>
      </trkpt>
      <trkpt lat="45.33505" lon="6.16845">
        <ele>1892.8204</ele>
        <time>2021-07-18T15:51:45</time>
      </trkpt>
      <trkpt lat="45.33509" lon="6.16838">
        <ele>1892.8204</ele>
        <time>2021-07-18T15:51:52</time>
      </trkpt>
      <trkpt lat="45.3351" lon="6.16834">
        <ele>1891.9204</ele>
        <time>2021-07-18T15:51:55</time>
      </trkpt>
      <trkpt lat="45.3351" lon="6.1683">
        <ele>1891.9204</ele>
        <time>2021-07-18T15:51:58</time>
      </trkpt>
      <trkpt lat="45.33513" lon="6.16816">
        <ele>1892.8204</ele>
        <time>2021-07-18T15:52:11</time>
      </trkpt>
      <trkpt lat="45.33514" lon="6.16812">
        <ele>1891.5204</ele>
        <time>2021-07-18T15:52:14</time>
      </trkpt>
      <trkpt lat="45.33516" lon="6.16808">
        <ele>1891.5204</ele>
        <time>2021-07-18T15:52:17</time>
      </trkpt>
      <trkpt lat="45.33518" lon="6.16805">
        <ele>1891.5204</ele>
        <time>2021-07-18T15:52:21</time>
      </trkpt>
      <trkpt lat="45.33521" lon="6.16798">
        <ele>1891.0204</ele>
        <time>2021-07-18T15:52:28</time>
      </trkpt>
      <trkpt lat="45.33522" lon="6.16793">
        <ele>1891.0204</ele>
        <time>2021-07-18T15:52:33</time>
      </trkpt>
      <trkpt lat="45.33522" lon="6.16793">
        <ele>1891.9204</ele>
        <time>2021-07-18T15:52:34</time>
      </trkpt>
      <trkpt lat="45.3352" lon="6.16792">
        <ele>1890.3204</ele>
        <time>2021-07-18T15:53:02</time>
      </trkpt>
      <trkpt lat="45.33522" lon="6.16788">
        <ele>1889.4204</ele>
        <time>2021-07-18T15:53:07</time>
      </trkpt>
      <trkpt lat="45.33524" lon="6.1678">
        <ele>1889.4204</ele>
        <time>2021-07-18T15:53:13</time>
      </trkpt>
      <trkpt lat="45.33526" lon="6.16774">
        <ele>1889.5204</ele>
        <time>2021-07-18T15:53:20</time>
      </trkpt>
      <trkpt lat="45.33525" lon="6.1677">
        <ele>1889.7205</ele>
        <time>2021-07-18T15:53:24</time>
      </trkpt>
      <trkpt lat="45.33524" lon="6.16751">
        <ele>1888.7205</ele>
        <time>2021-07-18T15:53:42</time>
      </trkpt>
      <trkpt lat="45.33525" lon="6.16747">
        <ele>1887.3204</ele>
        <time>2021-07-18T15:53:45</time>
      </trkpt>
      <trkpt lat="45.33528" lon="6.16742">
        <ele>1887.3204</ele>
        <time>2021-07-18T15:53:50</time>
      </trkpt>
      <trkpt lat="45.33529" lon="6.16737">
        <ele>1887.0204</ele>
        <time>2021-07-18T15:53:54</time>
      </trkpt>
      <trkpt lat="45.3353" lon="6.16732">
        <ele>1887.0204</ele>
        <time>2021-07-18T15:53:58</time>
      </trkpt>
      <trkpt lat="45.3353" lon="6.16728">
        <ele>1887.0204</ele>
        <time>2021-07-18T15:54:02</time>
      </trkpt>
      <trkpt lat="45.33531" lon="6.16725">
        <ele>1886.7205</ele>
        <time>2021-07-18T15:54:06</time>
      </trkpt>
      <trkpt lat="45.33533" lon="6.1672">
        <ele>1886.7205</ele>
        <time>2021-07-18T15:54:12</time>
      </trkpt>
      <trkpt lat="45.33536" lon="6.16714">
        <ele>1885.9204</ele>
        <time>2021-07-18T15:54:20</time>
      </trkpt>
      <trkpt lat="45.33539" lon="6.16712">
        <ele>1882.4204</ele>
        <time>2021-07-18T15:54:25</time>
      </trkpt>
      <trkpt lat="45.33541" lon="6.16709">
        <ele>1882.4204</ele>
        <time>2021-07-18T15:54:29</time>
      </trkpt>
      <trkpt lat="45.33542" lon="6.16706">
        <ele>1882.4204</ele>
        <time>2021-07-18T15:54:32</time>
      </trkpt>
      <trkpt lat="45.33543" lon="6.16694">
        <ele>1882.7205</ele>
        <time>2021-07-18T15:54:44</time>
      </trkpt>
      <trkpt lat="45.33542" lon="6.16689">
        <ele>1882.7205</ele>
        <time>2021-07-18T15:54:49</time>
      </trkpt>
      <trkpt lat="45.33542" lon="6.16688">
        <ele>1882.7205</ele>
        <time>2021-07-18T15:54:50</time>
      </trkpt>
      <trkpt lat="45.33542" lon="6.16688">
        <ele>1882.7205</ele>
        <time>2021-07-18T15:54:51</time>
      </trkpt>
      <trkpt lat="45.33542" lon="6.16687">
        <ele>1883.4204</ele>
        <time>2021-07-18T15:54:54</time>
      </trkpt>
      <trkpt lat="45.33539" lon="6.16682">
        <ele>1883.4204</ele>
        <time>2021-07-18T15:55:02</time>
      </trkpt>
      <trkpt lat="45.33538" lon="6.16681">
        <ele>1883.4204</ele>
        <time>2021-07-18T15:55:03</time>
      </trkpt>
      <trkpt lat="45.33538" lon="6.1668">
        <ele>1884.7205</ele>
        <time>2021-07-18T15:55:04</time>
      </trkpt>
      <trkpt lat="45.33538" lon="6.16679">
        <ele>1884.7205</ele>
        <time>2021-07-18T15:55:05</time>
      </trkpt>
      <trkpt lat="45.33538" lon="6.16675">
        <ele>1884.7205</ele>
        <time>2021-07-18T15:55:08</time>
      </trkpt>
      <trkpt lat="45.33541" lon="6.16669">
        <ele>1882.0204</ele>
        <time>2021-07-18T15:55:15</time>
      </trkpt>
      <trkpt lat="45.33541" lon="6.16666">
        <ele>1882.0204</ele>
        <time>2021-07-18T15:55:19</time>
      </trkpt>
      <trkpt lat="45.33541" lon="6.16664">
        <ele>1882.0204</ele>
        <time>2021-07-18T15:55:23</time>
      </trkpt>
      <trkpt lat="45.33541" lon="6.16664">
        <ele>1883.1205</ele>
        <time>2021-07-18T15:55:25</time>
      </trkpt>
      <trkpt lat="45.33541" lon="6.16662">
        <ele>1883.1205</ele>
        <time>2021-07-18T15:55:27</time>
      </trkpt>
      <trkpt lat="45.3354" lon="6.16659">
        <ele>1883.1205</ele>
        <time>2021-07-18T15:55:30</time>
      </trkpt>
      <trkpt lat="45.33541" lon="6.16656">
        <ele>1883.1205</ele>
        <time>2021-07-18T15:55:33</time>
      </trkpt>
      <trkpt lat="45.33543" lon="6.16654">
        <ele>1882.5204</ele>
        <time>2021-07-18T15:55:36</time>
      </trkpt>
      <trkpt lat="45.33543" lon="6.16653">
        <ele>1882.5204</ele>
        <time>2021-07-18T15:55:41</time>
      </trkpt>
      <trkpt lat="45.33543" lon="6.16652">
        <ele>1882.5204</ele>
        <time>2021-07-18T15:55:42</time>
      </trkpt>
      <trkpt lat="45.33543" lon="6.1665">
        <ele>1883.7205</ele>
        <time>2021-07-18T15:55:44</time>
      </trkpt>
      <trkpt lat="45.33544" lon="6.16646">
        <ele>1883.7205</ele>
        <time>2021-07-18T15:55:49</time>
      </trkpt>
      <trkpt lat="45.33545" lon="6.16645">
        <ele>1883.7205</ele>
        <time>2021-07-18T15:55:52</time>
      </trkpt>
      <trkpt lat="45.33544" lon="6.16644">
        <ele>1883.7205</ele>
        <time>2021-07-18T15:55:53</time>
      </trkpt>
      <trkpt lat="45.33543" lon="6.16644">
        <ele>1884.0204</ele>
        <time>2021-07-18T15:55:56</time>
      </trkpt>
      <trkpt lat="45.33543" lon="6.1664">
        <ele>1884.0204</ele>
        <time>2021-07-18T15:56:01</time>
      </trkpt>
      <trkpt lat="45.33547" lon="6.16631">
        <ele>1881.4204</ele>
        <time>2021-07-18T15:56:11</time>
      </trkpt>
      <trkpt lat="45.33549" lon="6.16623">
        <ele>1878.4204</ele>
        <time>2021-07-18T15:56:21</time>
      </trkpt>
      <trkpt lat="45.33549" lon="6.1662">
        <ele>1878.5204</ele>
        <time>2021-07-18T15:56:25</time>
      </trkpt>
      <trkpt lat="45.33548" lon="6.16619">
        <ele>1878.5204</ele>
        <time>2021-07-18T15:56:29</time>
      </trkpt>
      <trkpt lat="45.33549" lon="6.16618">
        <ele>1878.5204</ele>
        <time>2021-07-18T15:56:33</time>
      </trkpt>
      <trkpt lat="45.3355" lon="6.16618">
        <ele>1874.9204</ele>
        <time>2021-07-18T15:56:36</time>
      </trkpt>
      <trkpt lat="45.3355" lon="6.16615">
        <ele>1874.9204</ele>
        <time>2021-07-18T15:56:41</time>
      </trkpt>
      <trkpt lat="45.33551" lon="6.16614">
        <ele>1874.9204</ele>
        <time>2021-07-18T15:56:42</time>
      </trkpt>
      <trkpt lat="45.33552" lon="6.16613">
        <ele>1873.2205</ele>
        <time>2021-07-18T15:56:47</time>
      </trkpt>
      <trkpt lat="45.33552" lon="6.16613">
        <ele>1873.2205</ele>
        <time>2021-07-18T15:56:49</time>
      </trkpt>
      <trkpt lat="45.33551" lon="6.16612">
        <ele>1873.2205</ele>
        <time>2021-07-18T15:56:50</time>
      </trkpt>
      <trkpt lat="45.33551" lon="6.1661">
        <ele>1873.2205</ele>
        <time>2021-07-18T15:56:51</time>
      </trkpt>
      <trkpt lat="45.33551" lon="6.16609">
        <ele>1873.2205</ele>
        <time>2021-07-18T15:56:52</time>
      </trkpt>
      <trkpt lat="45.33552" lon="6.16609">
        <ele>1873.2205</ele>
        <time>2021-07-18T15:56:53</time>
      </trkpt>
      <trkpt lat="45.33552" lon="6.16607">
        <ele>1870.7205</ele>
        <time>2021-07-18T15:56:55</time>
      </trkpt>
      <trkpt lat="45.33554" lon="6.16598">
        <ele>1870.7205</ele>
        <time>2021-07-18T15:57:03</time>
      </trkpt>
      <trkpt lat="45.33556" lon="6.16593">
        <ele>1867.0204</ele>
        <time>2021-07-18T15:57:08</time>
      </trkpt>
      <trkpt lat="45.33556" lon="6.16593">
        <ele>1867.0204</ele>
        <time>2021-07-18T15:57:11</time>
      </trkpt>
      <trkpt lat="45.33557" lon="6.16589">
        <ele>1865.4204</ele>
        <time>2021-07-18T15:57:17</time>
      </trkpt>
      <trkpt lat="45.33557" lon="6.16589">
        <ele>1865.4204</ele>
        <time>2021-07-18T15:57:18</time>
      </trkpt>
      <trkpt lat="45.33557" lon="6.16588">
        <ele>1865.4204</ele>
        <time>2021-07-18T15:57:19</time>
      </trkpt>
      <trkpt lat="45.33557" lon="6.16584">
        <ele>1862.3204</ele>
        <time>2021-07-18T15:57:24</time>
      </trkpt>
      <trkpt lat="45.33557" lon="6.16583">
        <ele>1862.3204</ele>
        <time>2021-07-18T15:57:27</time>
      </trkpt>
      <trkpt lat="45.33558" lon="6.1658">
        <ele>1862.3204</ele>
        <time>2021-07-18T15:57:29</time>
      </trkpt>
      <trkpt lat="45.33559" lon="6.16572">
        <ele>1859.8204</ele>
        <time>2021-07-18T15:57:36</time>
      </trkpt>
      <trkpt lat="45.33561" lon="6.16564">
        <ele>1859.7205</ele>
        <time>2021-07-18T15:57:44</time>
      </trkpt>
      <trkpt lat="45.33563" lon="6.1656">
        <ele>1859.7205</ele>
        <time>2021-07-18T15:57:47</time>
      </trkpt>
      <trkpt lat="45.33564" lon="6.16558">
        <ele>1859.7205</ele>
        <time>2021-07-18T15:57:50</time>
      </trkpt>
      <trkpt lat="45.33565" lon="6.16554">
        <ele>1859.7205</ele>
        <time>2021-07-18T15:57:53</time>
      </trkpt>
      <trkpt lat="45.33566" lon="6.16552">
        <ele>1860.5204</ele>
        <time>2021-07-18T15:57:55</time>
      </trkpt>
      <trkpt lat="45.33566" lon="6.16552">
        <ele>1860.5204</ele>
        <time>2021-07-18T15:57:56</time>
      </trkpt>
      <trkpt lat="45.33567" lon="6.16551">
        <ele>1859.2205</ele>
        <time>2021-07-18T15:58:15</time>
      </trkpt>
      <trkpt lat="45.33568" lon="6.16548">
        <ele>1859.2205</ele>
        <time>2021-07-18T15:58:17</time>
      </trkpt>
      <trkpt lat="45.33569" lon="6.16543">
        <ele>1859.2205</ele>
        <time>2021-07-18T15:58:21</time>
      </trkpt>
      <trkpt lat="45.33569" lon="6.16537">
        <ele>1859.2205</ele>
        <time>2021-07-18T15:58:27</time>
      </trkpt>
      <trkpt lat="45.33569" lon="6.16534">
        <ele>1859.2205</ele>
        <time>2021-07-18T15:58:31</time>
      </trkpt>
      <trkpt lat="45.3357" lon="6.16533">
        <ele>1859.2205</ele>
        <time>2021-07-18T15:58:32</time>
      </trkpt>
      <trkpt lat="45.3357" lon="6.16527">
        <ele>1861.6205</ele>
        <time>2021-07-18T15:58:40</time>
      </trkpt>
      <trkpt lat="45.3357" lon="6.16527">
        <ele>1858.4204</ele>
        <time>2021-07-18T15:58:44</time>
      </trkpt>
      <trkpt lat="45.33571" lon="6.16526">
        <ele>1858.4204</ele>
        <time>2021-07-18T15:58:45</time>
      </trkpt>
      <trkpt lat="45.33571" lon="6.16526">
        <ele>1858.4204</ele>
        <time>2021-07-18T15:58:46</time>
      </trkpt>
      <trkpt lat="45.33571" lon="6.16524">
        <ele>1858.4204</ele>
        <time>2021-07-18T15:58:47</time>
      </trkpt>
      <trkpt lat="45.33572" lon="6.16523">
        <ele>1858.4204</ele>
        <time>2021-07-18T15:58:48</time>
      </trkpt>
      <trkpt lat="45.33572" lon="6.16522">
        <ele>1858.4204</ele>
        <time>2021-07-18T15:58:50</time>
      </trkpt>
      <trkpt lat="45.33572" lon="6.16518">
        <ele>1858.4204</ele>
        <time>2021-07-18T15:58:53</time>
      </trkpt>
      <trkpt lat="45.33575" lon="6.16514">
        <ele>1856.4204</ele>
        <time>2021-07-18T15:58:58</time>
      </trkpt>
      <trkpt lat="45.33577" lon="6.1651">
        <ele>1856.4204</ele>
        <time>2021-07-18T15:59:02</time>
      </trkpt>
      <trkpt lat="45.33581" lon="6.165">
        <ele>1856.0204</ele>
        <time>2021-07-18T15:59:12</time>
      </trkpt>
      <trkpt lat="45.33582" lon="6.16498">
        <ele>1858.1205</ele>
        <time>2021-07-18T15:59:17</time>
      </trkpt>
      <trkpt lat="45.33583" lon="6.16497">
        <ele>1858.1205</ele>
        <time>2021-07-18T15:59:18</time>
      </trkpt>
      <trkpt lat="45.33583" lon="6.16497">
        <ele>1858.1205</ele>
        <time>2021-07-18T15:59:20</time>
      </trkpt>
      <trkpt lat="45.33583" lon="6.16497">
        <ele>1858.1205</ele>
        <time>2021-07-18T15:59:21</time>
      </trkpt>
      <trkpt lat="45.33586" lon="6.16487">
        <ele>1855.7205</ele>
        <time>2021-07-18T15:59:34</time>
      </trkpt>
      <trkpt lat="45.33586" lon="6.16487">
        <ele>1855.7205</ele>
        <time>2021-07-18T15:59:35</time>
      </trkpt>
      <trkpt lat="45.33586" lon="6.16487">
        <ele>1855.7205</ele>
        <time>2021-07-18T15:59:36</time>
      </trkpt>
      <trkpt lat="45.33586" lon="6.16486">
        <ele>1855.7205</ele>
        <time>2021-07-18T15:59:39</time>
      </trkpt>
      <trkpt lat="45.33587" lon="6.16484">
        <ele>1855.7205</ele>
        <time>2021-07-18T15:59:40</time>
      </trkpt>
      <trkpt lat="45.33588" lon="6.16482">
        <ele>1855.7205</ele>
        <time>2021-07-18T15:59:42</time>
      </trkpt>
      <trkpt lat="45.33592" lon="6.16475">
        <ele>1855.9204</ele>
        <time>2021-07-18T15:59:49</time>
      </trkpt>
      <trkpt lat="45.33593" lon="6.16474">
        <ele>1855.9204</ele>
        <time>2021-07-18T15:59:51</time>
      </trkpt>
      <trkpt lat="45.33595" lon="6.16471">
        <ele>1855.1205</ele>
        <time>2021-07-18T15:59:54</time>
      </trkpt>
      <trkpt lat="45.33595" lon="6.1647">
        <ele>1855.1205</ele>
        <time>2021-07-18T15:59:55</time>
      </trkpt>
      <trkpt lat="45.33596" lon="6.1647">
        <ele>1855.1205</ele>
        <time>2021-07-18T15:59:56</time>
      </trkpt>
      <trkpt lat="45.33597" lon="6.16468">
        <ele>1855.1205</ele>
        <time>2021-07-18T15:59:57</time>
      </trkpt>
      <trkpt lat="45.336" lon="6.16463">
        <ele>1852.3204</ele>
        <time>2021-07-18T16:00:04</time>
      </trkpt>
      <trkpt lat="45.33601" lon="6.16462">
        <ele>1852.3204</ele>
        <time>2021-07-18T16:00:06</time>
      </trkpt>
      <trkpt lat="45.33603" lon="6.16458">
        <ele>1852.3204</ele>
        <time>2021-07-18T16:00:12</time>
      </trkpt>
      <trkpt lat="45.33603" lon="6.16454">
        <ele>1851.5204</ele>
        <time>2021-07-18T16:00:16</time>
      </trkpt>
      <trkpt lat="45.33605" lon="6.16451">
        <ele>1851.5204</ele>
        <time>2021-07-18T16:00:20</time>
      </trkpt>
      <trkpt lat="45.33606" lon="6.16449">
        <ele>1851.5204</ele>
        <time>2021-07-18T16:00:22</time>
      </trkpt>
      <trkpt lat="45.33615" lon="6.16437">
        <ele>1849.5204</ele>
        <time>2021-07-18T16:00:37</time>
      </trkpt>
      <trkpt lat="45.33615" lon="6.16435">
        <ele>1849.5204</ele>
        <time>2021-07-18T16:00:39</time>
      </trkpt>
      <trkpt lat="45.33615" lon="6.16435">
        <ele>1849.5204</ele>
        <time>2021-07-18T16:00:41</time>
      </trkpt>
      <trkpt lat="45.33616" lon="6.16432">
        <ele>1849.7205</ele>
        <time>2021-07-18T16:00:48</time>
      </trkpt>
      <trkpt lat="45.33616" lon="6.16432">
        <ele>1849.7205</ele>
        <time>2021-07-18T16:00:49</time>
      </trkpt>
      <trkpt lat="45.33617" lon="6.16427">
        <ele>1849.7205</ele>
        <time>2021-07-18T16:00:53</time>
      </trkpt>
      <trkpt lat="45.3362" lon="6.16423">
        <ele>1847.5204</ele>
        <time>2021-07-18T16:00:58</time>
      </trkpt>
      <trkpt lat="45.33621" lon="6.16422">
        <ele>1847.5204</ele>
        <time>2021-07-18T16:01:01</time>
      </trkpt>
      <trkpt lat="45.33622" lon="6.1642">
        <ele>1844.3204</ele>
        <time>2021-07-18T16:01:06</time>
      </trkpt>
      <trkpt lat="45.33624" lon="6.16417">
        <ele>1844.3204</ele>
        <time>2021-07-18T16:01:10</time>
      </trkpt>
      <trkpt lat="45.33627" lon="6.16417">
        <ele>1843.0204</ele>
        <time>2021-07-18T16:01:14</time>
      </trkpt>
      <trkpt lat="45.3363" lon="6.16412">
        <ele>1842.9204</ele>
        <time>2021-07-18T16:01:24</time>
      </trkpt>
      <trkpt lat="45.33632" lon="6.16412">
        <ele>1842.9204</ele>
        <time>2021-07-18T16:01:28</time>
      </trkpt>
      <trkpt lat="45.33632" lon="6.16411">
        <ele>1842.9204</ele>
        <time>2021-07-18T16:01:29</time>
      </trkpt>
      <trkpt lat="45.33633" lon="6.16409">
        <ele>1842.9204</ele>
        <time>2021-07-18T16:01:31</time>
      </trkpt>
      <trkpt lat="45.33636" lon="6.16407">
        <ele>1842.9204</ele>
        <time>2021-07-18T16:01:36</time>
      </trkpt>
      <trkpt lat="45.33636" lon="6.16407">
        <ele>1842.9204</ele>
        <time>2021-07-18T16:01:38</time>
      </trkpt>
      <trkpt lat="45.33641" lon="6.16406">
        <ele>1841.2205</ele>
        <time>2021-07-18T16:01:44</time>
      </trkpt>
      <trkpt lat="45.33644" lon="6.16403">
        <ele>1841.2205</ele>
        <time>2021-07-18T16:01:50</time>
      </trkpt>
      <trkpt lat="45.33646" lon="6.164">
        <ele>1838.1205</ele>
        <time>2021-07-18T16:01:54</time>
      </trkpt>
      <trkpt lat="45.33649" lon="6.164">
        <ele>1838.1205</ele>
        <time>2021-07-18T16:01:59</time>
      </trkpt>
      <trkpt lat="45.3365" lon="6.16399">
        <ele>1838.1205</ele>
        <time>2021-07-18T16:02:00</time>
      </trkpt>
      <trkpt lat="45.3365" lon="6.16398">
        <ele>1838.1205</ele>
        <time>2021-07-18T16:02:02</time>
      </trkpt>
      <trkpt lat="45.33652" lon="6.16397">
        <ele>1838.3204</ele>
        <time>2021-07-18T16:02:05</time>
      </trkpt>
      <trkpt lat="45.33653" lon="6.16394">
        <ele>1838.3204</ele>
        <time>2021-07-18T16:02:09</time>
      </trkpt>
      <trkpt lat="45.33655" lon="6.16392">
        <ele>1838.3204</ele>
        <time>2021-07-18T16:02:13</time>
      </trkpt>
      <trkpt lat="45.33656" lon="6.16392">
        <ele>1836.8204</ele>
        <time>2021-07-18T16:02:14</time>
      </trkpt>
      <trkpt lat="45.33657" lon="6.16392">
        <ele>1836.8204</ele>
        <time>2021-07-18T16:02:16</time>
      </trkpt>
      <trkpt lat="45.33657" lon="6.16392">
        <ele>1836.8204</ele>
        <time>2021-07-18T16:02:17</time>
      </trkpt>
      <trkpt lat="45.33659" lon="6.1639">
        <ele>1836.8204</ele>
        <time>2021-07-18T16:02:20</time>
      </trkpt>
      <trkpt lat="45.3366" lon="6.16388">
        <ele>1834.8204</ele>
        <time>2021-07-18T16:02:24</time>
      </trkpt>
      <trkpt lat="45.33663" lon="6.16386">
        <ele>1834.8204</ele>
        <time>2021-07-18T16:02:29</time>
      </trkpt>
      <trkpt lat="45.33663" lon="6.16386">
        <ele>1834.8204</ele>
        <time>2021-07-18T16:02:30</time>
      </trkpt>
      <trkpt lat="45.33663" lon="6.16385">
        <ele>1834.8204</ele>
        <time>2021-07-18T16:02:31</time>
      </trkpt>
      <trkpt lat="45.33665" lon="6.16384">
        <ele>1834.8204</ele>
        <time>2021-07-18T16:02:33</time>
      </trkpt>
      <trkpt lat="45.33666" lon="6.1638">
        <ele>1832.7205</ele>
        <time>2021-07-18T16:02:38</time>
      </trkpt>
      <trkpt lat="45.33667" lon="6.1638">
        <ele>1832.7205</ele>
        <time>2021-07-18T16:02:40</time>
      </trkpt>
      <trkpt lat="45.33668" lon="6.1638">
        <ele>1832.7205</ele>
        <time>2021-07-18T16:02:42</time>
      </trkpt>
      <trkpt lat="45.33669" lon="6.1638">
        <ele>1828.8204</ele>
        <time>2021-07-18T16:02:44</time>
      </trkpt>
      <trkpt lat="45.33671" lon="6.16376">
        <ele>1828.8204</ele>
        <time>2021-07-18T16:02:49</time>
      </trkpt>
      <trkpt lat="45.33674" lon="6.16375">
        <ele>1828.5204</ele>
        <time>2021-07-18T16:02:54</time>
      </trkpt>
      <trkpt lat="45.33674" lon="6.16374">
        <ele>1828.5204</ele>
        <time>2021-07-18T16:02:55</time>
      </trkpt>
      <trkpt lat="45.33675" lon="6.16374">
        <ele>1828.5204</ele>
        <time>2021-07-18T16:02:59</time>
      </trkpt>
      <trkpt lat="45.3368" lon="6.16371">
        <ele>1826.6205</ele>
        <time>2021-07-18T16:03:06</time>
      </trkpt>
      <trkpt lat="45.33684" lon="6.1637">
        <ele>1826.6205</ele>
        <time>2021-07-18T16:03:10</time>
      </trkpt>
      <trkpt lat="45.33691" lon="6.16367">
        <ele>1826.8204</ele>
        <time>2021-07-18T16:03:20</time>
      </trkpt>
      <trkpt lat="45.33694" lon="6.16366">
        <ele>1823.6205</ele>
        <time>2021-07-18T16:03:24</time>
      </trkpt>
      <trkpt lat="45.33697" lon="6.16363">
        <ele>1823.6205</ele>
        <time>2021-07-18T16:03:28</time>
      </trkpt>
      <trkpt lat="45.33703" lon="6.1636">
        <ele>1822.9204</ele>
        <time>2021-07-18T16:03:37</time>
      </trkpt>
      <trkpt lat="45.33703" lon="6.16359">
        <ele>1822.9204</ele>
        <time>2021-07-18T16:03:39</time>
      </trkpt>
      <trkpt lat="45.33705" lon="6.16358">
        <ele>1822.9204</ele>
        <time>2021-07-18T16:03:42</time>
      </trkpt>
      <trkpt lat="45.33705" lon="6.16357">
        <ele>1822.9204</ele>
        <time>2021-07-18T16:03:43</time>
      </trkpt>
      <trkpt lat="45.33707" lon="6.16355">
        <ele>1820.6205</ele>
        <time>2021-07-18T16:03:47</time>
      </trkpt>
      <trkpt lat="45.3371" lon="6.16354">
        <ele>1820.6205</ele>
        <time>2021-07-18T16:03:51</time>
      </trkpt>
      <trkpt lat="45.33714" lon="6.16356">
        <ele>1819.4204</ele>
        <time>2021-07-18T16:03:56</time>
      </trkpt>
      <trkpt lat="45.33714" lon="6.16355">
        <ele>1819.4204</ele>
        <time>2021-07-18T16:03:57</time>
      </trkpt>
      <trkpt lat="45.33715" lon="6.16355">
        <ele>1819.4204</ele>
        <time>2021-07-18T16:04:00</time>
      </trkpt>
      <trkpt lat="45.33716" lon="6.16355">
        <ele>1819.4204</ele>
        <time>2021-07-18T16:04:02</time>
      </trkpt>
      <trkpt lat="45.33718" lon="6.16353">
        <ele>1817.6205</ele>
        <time>2021-07-18T16:04:06</time>
      </trkpt>
      <trkpt lat="45.3372" lon="6.16353">
        <ele>1817.6205</ele>
        <time>2021-07-18T16:04:08</time>
      </trkpt>
      <trkpt lat="45.33722" lon="6.16352">
        <ele>1817.6205</ele>
        <time>2021-07-18T16:04:11</time>
      </trkpt>
      <trkpt lat="45.33722" lon="6.16352">
        <ele>1817.6205</ele>
        <time>2021-07-18T16:04:12</time>
      </trkpt>
      <trkpt lat="45.33729" lon="6.16352">
        <ele>1817.9204</ele>
        <time>2021-07-18T16:04:22</time>
      </trkpt>
      <trkpt lat="45.33735" lon="6.16356">
        <ele>1817.3204</ele>
        <time>2021-07-18T16:04:29</time>
      </trkpt>
      <trkpt lat="45.33737" lon="6.16359">
        <ele>1817.3204</ele>
        <time>2021-07-18T16:04:32</time>
      </trkpt>
      <trkpt lat="45.33737" lon="6.16359">
        <ele>1817.3204</ele>
        <time>2021-07-18T16:04:33</time>
      </trkpt>
      <trkpt lat="45.33737" lon="6.16359">
        <ele>1817.6205</ele>
        <time>2021-07-18T16:04:34</time>
      </trkpt>
      <trkpt lat="45.33742" lon="6.16358">
        <ele>1812.9204</ele>
        <time>2021-07-18T16:04:57</time>
      </trkpt>
      <trkpt lat="45.33742" lon="6.16357">
        <ele>1812.9204</ele>
        <time>2021-07-18T16:04:58</time>
      </trkpt>
      <trkpt lat="45.33743" lon="6.16357">
        <ele>1812.9204</ele>
        <time>2021-07-18T16:04:59</time>
      </trkpt>
      <trkpt lat="45.33743" lon="6.16357">
        <ele>1812.9204</ele>
        <time>2021-07-18T16:05:00</time>
      </trkpt>
      <trkpt lat="45.33746" lon="6.16356">
        <ele>1813.0204</ele>
        <time>2021-07-18T16:05:04</time>
      </trkpt>
      <trkpt lat="45.33752" lon="6.16355">
        <ele>1813.0204</ele>
        <time>2021-07-18T16:05:12</time>
      </trkpt>
      <trkpt lat="45.33752" lon="6.16355">
        <ele>1813.0204</ele>
        <time>2021-07-18T16:05:13</time>
      </trkpt>
      <trkpt lat="45.33752" lon="6.16355">
        <ele>1809.8204</ele>
        <time>2021-07-18T16:05:14</time>
      </trkpt>
      <trkpt lat="45.33753" lon="6.16354">
        <ele>1809.8204</ele>
        <time>2021-07-18T16:05:15</time>
      </trkpt>
      <trkpt lat="45.33755" lon="6.16353">
        <ele>1809.8204</ele>
        <time>2021-07-18T16:05:18</time>
      </trkpt>
      <trkpt lat="45.33757" lon="6.16351">
        <ele>1811.3204</ele>
        <time>2021-07-18T16:05:26</time>
      </trkpt>
      <trkpt lat="45.33758" lon="6.16349">
        <ele>1811.3204</ele>
        <time>2021-07-18T16:05:31</time>
      </trkpt>
      <trkpt lat="45.33759" lon="6.16349">
        <ele>1811.3204</ele>
        <time>2021-07-18T16:05:33</time>
      </trkpt>
      <trkpt lat="45.33759" lon="6.16348">
        <ele>1811.4204</ele>
        <time>2021-07-18T16:05:34</time>
      </trkpt>
      <trkpt lat="45.3376" lon="6.16347">
        <ele>1811.4204</ele>
        <time>2021-07-18T16:05:38</time>
      </trkpt>
      <trkpt lat="45.33762" lon="6.16344">
        <ele>1811.4204</ele>
        <time>2021-07-18T16:05:43</time>
      </trkpt>
      <trkpt lat="45.33762" lon="6.16344">
        <ele>1808.9204</ele>
        <time>2021-07-18T16:05:46</time>
      </trkpt>
      <trkpt lat="45.33762" lon="6.16344">
        <ele>1808.9204</ele>
        <time>2021-07-18T16:05:47</time>
      </trkpt>
      <trkpt lat="45.33762" lon="6.16343">
        <ele>1808.9204</ele>
        <time>2021-07-18T16:05:49</time>
      </trkpt>
      <trkpt lat="45.33763" lon="6.16341">
        <ele>1808.9204</ele>
        <time>2021-07-18T16:05:52</time>
      </trkpt>
      <trkpt lat="45.33763" lon="6.16341">
        <ele>1808.9204</ele>
        <time>2021-07-18T16:05:53</time>
      </trkpt>
      <trkpt lat="45.33763" lon="6.1634">
        <ele>1807.5204</ele>
        <time>2021-07-18T16:05:54</time>
      </trkpt>
      <trkpt lat="45.33763" lon="6.16336">
        <ele>1807.5204</ele>
        <time>2021-07-18T16:05:59</time>
      </trkpt>
      <trkpt lat="45.33764" lon="6.16335">
        <ele>1805.5204</ele>
        <time>2021-07-18T16:06:09</time>
      </trkpt>
      <trkpt lat="45.33765" lon="6.16334">
        <ele>1805.5204</ele>
        <time>2021-07-18T16:06:12</time>
      </trkpt>
      <trkpt lat="45.33766" lon="6.16334">
        <ele>1803.6205</ele>
        <time>2021-07-18T16:06:14</time>
      </trkpt>
      <trkpt lat="45.33766" lon="6.16334">
        <ele>1803.6205</ele>
        <time>2021-07-18T16:06:15</time>
      </trkpt>
      <trkpt lat="45.33767" lon="6.16334">
        <ele>1803.6205</ele>
        <time>2021-07-18T16:06:19</time>
      </trkpt>
      <trkpt lat="45.33767" lon="6.16334">
        <ele>1803.6205</ele>
        <time>2021-07-18T16:06:20</time>
      </trkpt>
      <trkpt lat="45.33767" lon="6.16332">
        <ele>1800.9204</ele>
        <time>2021-07-18T16:06:31</time>
      </trkpt>
      <trkpt lat="45.33768" lon="6.16325">
        <ele>1799.8204</ele>
        <time>2021-07-18T16:06:38</time>
      </trkpt>
      <trkpt lat="45.33768" lon="6.16324">
        <ele>1799.8204</ele>
        <time>2021-07-18T16:06:39</time>
      </trkpt>
      <trkpt lat="45.33768" lon="6.16324">
        <ele>1799.8204</ele>
        <time>2021-07-18T16:06:41</time>
      </trkpt>
      <trkpt lat="45.33767" lon="6.16321">
        <ele>1798.2205</ele>
        <time>2021-07-18T16:06:44</time>
      </trkpt>
      <trkpt lat="45.33766" lon="6.16318">
        <ele>1798.2205</ele>
        <time>2021-07-18T16:06:47</time>
      </trkpt>
      <trkpt lat="45.33767" lon="6.16315">
        <ele>1798.2205</ele>
        <time>2021-07-18T16:06:50</time>
      </trkpt>
      <trkpt lat="45.33768" lon="6.16315">
        <ele>1798.2205</ele>
        <time>2021-07-18T16:06:51</time>
      </trkpt>
      <trkpt lat="45.33778" lon="6.16313">
        <ele>1792.0204</ele>
        <time>2021-07-18T16:07:12</time>
      </trkpt>
      <trkpt lat="45.33784" lon="6.16314">
        <ele>1789.0204</ele>
        <time>2021-07-18T16:07:19</time>
      </trkpt>
      <trkpt lat="45.33785" lon="6.16315">
        <ele>1789.0204</ele>
        <time>2021-07-18T16:07:21</time>
      </trkpt>
      <trkpt lat="45.33788" lon="6.16315">
        <ele>1787.9204</ele>
        <time>2021-07-18T16:07:26</time>
      </trkpt>
      <trkpt lat="45.33789" lon="6.16315">
        <ele>1787.9204</ele>
        <time>2021-07-18T16:07:28</time>
      </trkpt>
      <trkpt lat="45.33792" lon="6.16316">
        <ele>1785.7205</ele>
        <time>2021-07-18T16:07:43</time>
      </trkpt>
      <trkpt lat="45.33792" lon="6.16315">
        <ele>1784.2205</ele>
        <time>2021-07-18T16:07:44</time>
      </trkpt>
      <trkpt lat="45.33794" lon="6.16314">
        <ele>1784.2205</ele>
        <time>2021-07-18T16:07:48</time>
      </trkpt>
      <trkpt lat="45.33796" lon="6.16315">
        <ele>1784.2205</ele>
        <time>2021-07-18T16:07:50</time>
      </trkpt>
      <trkpt lat="45.33799" lon="6.16315">
        <ele>1783.1205</ele>
        <time>2021-07-18T16:07:54</time>
      </trkpt>
      <trkpt lat="45.338" lon="6.16315">
        <ele>1783.1205</ele>
        <time>2021-07-18T16:07:55</time>
      </trkpt>
      <trkpt lat="45.33802" lon="6.16315">
        <ele>1783.1205</ele>
        <time>2021-07-18T16:07:58</time>
      </trkpt>
      <trkpt lat="45.33803" lon="6.16313">
        <ele>1783.1205</ele>
        <time>2021-07-18T16:08:03</time>
      </trkpt>
      <trkpt lat="45.33805" lon="6.16311">
        <ele>1779.9204</ele>
        <time>2021-07-18T16:08:06</time>
      </trkpt>
      <trkpt lat="45.33806" lon="6.1631">
        <ele>1779.9204</ele>
        <time>2021-07-18T16:08:09</time>
      </trkpt>
      <trkpt lat="45.33807" lon="6.1631">
        <ele>1779.9204</ele>
        <time>2021-07-18T16:08:11</time>
      </trkpt>
      <trkpt lat="45.33809" lon="6.1631">
        <ele>1779.9204</ele>
        <time>2021-07-18T16:08:13</time>
      </trkpt>
      <trkpt lat="45.3381" lon="6.16309">
        <ele>1777.4204</ele>
        <time>2021-07-18T16:08:16</time>
      </trkpt>
      <trkpt lat="45.33811" lon="6.16309">
        <ele>1777.4204</ele>
        <time>2021-07-18T16:08:20</time>
      </trkpt>
      <trkpt lat="45.33814" lon="6.1631">
        <ele>1769.0204</ele>
        <time>2021-07-18T16:08:27</time>
      </trkpt>
      <trkpt lat="45.33815" lon="6.16311">
        <ele>1769.0204</ele>
        <time>2021-07-18T16:08:28</time>
      </trkpt>
      <trkpt lat="45.33817" lon="6.16313">
        <ele>1769.0204</ele>
        <time>2021-07-18T16:08:30</time>
      </trkpt>
      <trkpt lat="45.33818" lon="6.16313">
        <ele>1769.0204</ele>
        <time>2021-07-18T16:08:32</time>
      </trkpt>
      <trkpt lat="45.33824" lon="6.16315">
        <ele>1769.2205</ele>
        <time>2021-07-18T16:08:41</time>
      </trkpt>
      <trkpt lat="45.33825" lon="6.16315">
        <ele>1769.2205</ele>
        <time>2021-07-18T16:08:43</time>
      </trkpt>
      <trkpt lat="45.33826" lon="6.16315">
        <ele>1767.1205</ele>
        <time>2021-07-18T16:08:44</time>
      </trkpt>
      <trkpt lat="45.33827" lon="6.16316">
        <ele>1767.1205</ele>
        <time>2021-07-18T16:08:46</time>
      </trkpt>
      <trkpt lat="45.33827" lon="6.16313">
        <ele>1767.1205</ele>
        <time>2021-07-18T16:08:53</time>
      </trkpt>
      <trkpt lat="45.33828" lon="6.16312">
        <ele>1760.3204</ele>
        <time>2021-07-18T16:08:54</time>
      </trkpt>
      <trkpt lat="45.33828" lon="6.1631">
        <ele>1760.3204</ele>
        <time>2021-07-18T16:08:57</time>
      </trkpt>
      <trkpt lat="45.33829" lon="6.16309">
        <ele>1760.3204</ele>
        <time>2021-07-18T16:08:58</time>
      </trkpt>
      <trkpt lat="45.33829" lon="6.16307">
        <ele>1760.3204</ele>
        <time>2021-07-18T16:09:00</time>
      </trkpt>
      <trkpt lat="45.33829" lon="6.16306">
        <ele>1762.2205</ele>
        <time>2021-07-18T16:09:05</time>
      </trkpt>
      <trkpt lat="45.33829" lon="6.16306">
        <ele>1762.2205</ele>
        <time>2021-07-18T16:09:06</time>
      </trkpt>
      <trkpt lat="45.3383" lon="6.16306">
        <ele>1762.2205</ele>
        <time>2021-07-18T16:09:07</time>
      </trkpt>
      <trkpt lat="45.33832" lon="6.16306">
        <ele>1762.2205</ele>
        <time>2021-07-18T16:09:10</time>
      </trkpt>
      <trkpt lat="45.33833" lon="6.16303">
        <ele>1764.6205</ele>
        <time>2021-07-18T16:09:16</time>
      </trkpt>
      <trkpt lat="45.33834" lon="6.16303">
        <ele>1764.6205</ele>
        <time>2021-07-18T16:09:19</time>
      </trkpt>
      <trkpt lat="45.33834" lon="6.16302">
        <ele>1763.3204</ele>
        <time>2021-07-18T16:09:24</time>
      </trkpt>
      <trkpt lat="45.33836" lon="6.16299">
        <ele>1763.3204</ele>
        <time>2021-07-18T16:09:26</time>
      </trkpt>
      <trkpt lat="45.33837" lon="6.16296">
        <ele>1763.3204</ele>
        <time>2021-07-18T16:09:29</time>
      </trkpt>
      <trkpt lat="45.33838" lon="6.16294">
        <ele>1763.3204</ele>
        <time>2021-07-18T16:09:33</time>
      </trkpt>
      <trkpt lat="45.33835" lon="6.16288">
        <ele>1765.4204</ele>
        <time>2021-07-18T16:09:43</time>
      </trkpt>
      <trkpt lat="45.33835" lon="6.16287">
        <ele>1761.3204</ele>
        <time>2021-07-18T16:09:48</time>
      </trkpt>
      <trkpt lat="45.33835" lon="6.16286">
        <ele>1761.3204</ele>
        <time>2021-07-18T16:09:49</time>
      </trkpt>
      <trkpt lat="45.33836" lon="6.16283">
        <ele>1761.3204</ele>
        <time>2021-07-18T16:09:52</time>
      </trkpt>
      <trkpt lat="45.33837" lon="6.16282">
        <ele>1760.0204</ele>
        <time>2021-07-18T16:09:55</time>
      </trkpt>
      <trkpt lat="45.33837" lon="6.16281">
        <ele>1760.0204</ele>
        <time>2021-07-18T16:09:57</time>
      </trkpt>
      <trkpt lat="45.33837" lon="6.1628">
        <ele>1760.0204</ele>
        <time>2021-07-18T16:10:00</time>
      </trkpt>
      <trkpt lat="45.33837" lon="6.16279">
        <ele>1760.0204</ele>
        <time>2021-07-18T16:10:01</time>
      </trkpt>
      <trkpt lat="45.33836" lon="6.16275">
        <ele>1759.5204</ele>
        <time>2021-07-18T16:10:06</time>
      </trkpt>
      <trkpt lat="45.33835" lon="6.16274">
        <ele>1759.5204</ele>
        <time>2021-07-18T16:10:09</time>
      </trkpt>
      <trkpt lat="45.33833" lon="6.16271">
        <ele>1759.5204</ele>
        <time>2021-07-18T16:10:13</time>
      </trkpt>
      <trkpt lat="45.33831" lon="6.16269">
        <ele>1755.487</ele>
        <time>2021-07-18T16:10:17</time>
      </trkpt>
      <trkpt lat="45.33831" lon="6.16268">
        <ele>1755.487</ele>
        <time>2021-07-18T16:10:19</time>
      </trkpt>
      <trkpt lat="45.33831" lon="6.16267">
        <ele>1755.487</ele>
        <time>2021-07-18T16:10:22</time>
      </trkpt>
      <trkpt lat="45.33831" lon="6.16267">
        <ele>1754.5204</ele>
        <time>2021-07-18T16:10:25</time>
      </trkpt>
      <trkpt lat="45.33834" lon="6.16264">
        <ele>1754.5204</ele>
        <time>2021-07-18T16:10:29</time>
      </trkpt>
      <trkpt lat="45.33834" lon="6.16264">
        <ele>1754.5204</ele>
        <time>2021-07-18T16:10:30</time>
      </trkpt>
      <trkpt lat="45.33835" lon="6.16264">
        <ele>1754.5204</ele>
        <time>2021-07-18T16:10:32</time>
      </trkpt>
      <trkpt lat="45.33835" lon="6.16264">
        <ele>1754.5204</ele>
        <time>2021-07-18T16:10:34</time>
      </trkpt>
      <trkpt lat="45.33835" lon="6.16264">
        <ele>1754.5204</ele>
        <time>2021-07-18T16:10:35</time>
      </trkpt>
      <trkpt lat="45.33836" lon="6.16264">
        <ele>1754.5204</ele>
        <time>2021-07-18T16:10:36</time>
      </trkpt>
      <trkpt lat="45.33836" lon="6.16263">
        <ele>1754.5204</ele>
        <time>2021-07-18T16:10:38</time>
      </trkpt>
      <trkpt lat="45.33836" lon="6.16262">
        <ele>1754.5204</ele>
        <time>2021-07-18T16:10:39</time>
      </trkpt>
      <trkpt lat="45.33835" lon="6.16259">
        <ele>1754.5204</ele>
        <time>2021-07-18T16:10:42</time>
      </trkpt>
      <trkpt lat="45.33834" lon="6.16259">
        <ele>1751.9204</ele>
        <time>2021-07-18T16:10:44</time>
      </trkpt>
      <trkpt lat="45.33832" lon="6.16256">
        <ele>1751.9204</ele>
        <time>2021-07-18T16:10:50</time>
      </trkpt>
      <trkpt lat="45.33832" lon="6.16256">
        <ele>1751.9204</ele>
        <time>2021-07-18T16:10:51</time>
      </trkpt>
      <trkpt lat="45.33831" lon="6.16256">
        <ele>1751.9204</ele>
        <time>2021-07-18T16:10:52</time>
      </trkpt>
      <trkpt lat="45.33831" lon="6.16255">
        <ele>1751.2205</ele>
        <time>2021-07-18T16:10:54</time>
      </trkpt>
      <trkpt lat="45.3383" lon="6.16253">
        <ele>1751.2205</ele>
        <time>2021-07-18T16:10:56</time>
      </trkpt>
      <trkpt lat="45.3383" lon="6.16248">
        <ele>1751.2205</ele>
        <time>2021-07-18T16:11:01</time>
      </trkpt>
      <trkpt lat="45.33831" lon="6.16247">
        <ele>1751.2205</ele>
        <time>2021-07-18T16:11:03</time>
      </trkpt>
      <trkpt lat="45.33831" lon="6.16246">
        <ele>1750.7205</ele>
        <time>2021-07-18T16:11:05</time>
      </trkpt>
      <trkpt lat="45.33832" lon="6.16245">
        <ele>1750.7205</ele>
        <time>2021-07-18T16:11:06</time>
      </trkpt>
      <trkpt lat="45.33832" lon="6.16244">
        <ele>1750.7205</ele>
        <time>2021-07-18T16:11:07</time>
      </trkpt>
      <trkpt lat="45.33833" lon="6.16243">
        <ele>1750.7205</ele>
        <time>2021-07-18T16:11:09</time>
      </trkpt>
      <trkpt lat="45.33833" lon="6.16242">
        <ele>1750.7205</ele>
        <time>2021-07-18T16:11:10</time>
      </trkpt>
      <trkpt lat="45.33834" lon="6.16242">
        <ele>1750.7205</ele>
        <time>2021-07-18T16:11:12</time>
      </trkpt>
      <trkpt lat="45.33835" lon="6.1624">
        <ele>1748.6205</ele>
        <time>2021-07-18T16:11:14</time>
      </trkpt>
      <trkpt lat="45.33835" lon="6.16238">
        <ele>1748.6205</ele>
        <time>2021-07-18T16:11:16</time>
      </trkpt>
      <trkpt lat="45.33835" lon="6.16234">
        <ele>1748.6205</ele>
        <time>2021-07-18T16:11:20</time>
      </trkpt>
      <trkpt lat="45.33835" lon="6.16233">
        <ele>1748.6205</ele>
        <time>2021-07-18T16:11:21</time>
      </trkpt>
      <trkpt lat="45.33835" lon="6.16231">
        <ele>1748.4204</ele>
        <time>2021-07-18T16:11:24</time>
      </trkpt>
      <trkpt lat="45.33834" lon="6.16231">
        <ele>1748.4204</ele>
        <time>2021-07-18T16:11:25</time>
      </trkpt>
      <trkpt lat="45.33835" lon="6.1623">
        <ele>1744.7205</ele>
        <time>2021-07-18T16:11:57</time>
      </trkpt>
      <trkpt lat="45.33835" lon="6.16229">
        <ele>1744.7205</ele>
        <time>2021-07-18T16:12:03</time>
      </trkpt>
      <trkpt lat="45.33834" lon="6.16229">
        <ele>1744.7205</ele>
        <time>2021-07-18T16:12:06</time>
      </trkpt>
      <trkpt lat="45.33834" lon="6.1623">
        <ele>1744.7205</ele>
        <time>2021-07-18T16:12:07</time>
      </trkpt>
      <trkpt lat="45.33833" lon="6.16231">
        <ele>1744.7205</ele>
        <time>2021-07-18T16:12:09</time>
      </trkpt>
      <trkpt lat="45.33833" lon="6.16231">
        <ele>1744.7205</ele>
        <time>2021-07-18T16:12:10</time>
      </trkpt>
      <trkpt lat="45.33832" lon="6.16231">
        <ele>1744.7205</ele>
        <time>2021-07-18T16:12:12</time>
      </trkpt>
      <trkpt lat="45.33832" lon="6.16231">
        <ele>1744.7205</ele>
        <time>2021-07-18T16:12:13</time>
      </trkpt>
      <trkpt lat="45.33832" lon="6.16232">
        <ele>1744.7205</ele>
        <time>2021-07-18T16:12:14</time>
      </trkpt>
      <trkpt lat="45.33832" lon="6.16233">
        <ele>1744.1205</ele>
        <time>2021-07-18T16:13:00</time>
      </trkpt>
      <trkpt lat="45.33832" lon="6.16233">
        <ele>1744.2205</ele>
        <time>2021-07-18T16:13:49</time>
      </trkpt>
      <trkpt lat="45.33832" lon="6.16233">
        <ele>1744.3204</ele>
        <time>2021-07-18T16:15:13</time>
      </trkpt>
      <trkpt lat="45.33832" lon="6.16233">
        <ele>1744.4204</ele>
        <time>2021-07-18T16:16:03</time>
      </trkpt>
      <trkpt lat="45.33832" lon="6.16233">
        <ele>1744.4204</ele>
        <time>2021-07-18T16:16:41</time>
      </trkpt>
      <trkpt lat="45.33832" lon="6.16232">
        <ele>1744.4204</ele>
        <time>2021-07-18T16:16:42</time>
      </trkpt>
      <trkpt lat="45.33833" lon="6.16232">
        <ele>1744.4204</ele>
        <time>2021-07-18T16:16:46</time>
      </trkpt>
      <trkpt lat="45.33833" lon="6.16232">
        <ele>1744.4204</ele>
        <time>2021-07-18T16:16:47</time>
      </trkpt>
      <trkpt lat="45.33832" lon="6.16232">
        <ele>1744.4204</ele>
        <time>2021-07-18T16:16:53</time>
      </trkpt>
      <trkpt lat="45.33833" lon="6.16232">
        <ele>1744.4204</ele>
        <time>2021-07-18T16:16:54</time>
      </trkpt>
      <trkpt lat="45.33835" lon="6.16231">
        <ele>1744.1205</ele>
        <time>2021-07-18T16:16:57</time>
      </trkpt>
      <trkpt lat="45.33835" lon="6.16231">
        <ele>1744.1205</ele>
        <time>2021-07-18T16:16:58</time>
      </trkpt>
      <trkpt lat="45.33835" lon="6.16229">
        <ele>1744.1205</ele>
        <time>2021-07-18T16:17:01</time>
      </trkpt>
      <trkpt lat="45.33836" lon="6.16229">
        <ele>1744.0204</ele>
        <time>2021-07-18T16:17:06</time>
      </trkpt>
      <trkpt lat="45.33838" lon="6.16224">
        <ele>1744.0204</ele>
        <time>2021-07-18T16:17:11</time>
      </trkpt>
      <trkpt lat="45.33841" lon="6.16223">
        <ele>1744.0204</ele>
        <time>2021-07-18T16:17:14</time>
      </trkpt>
      <trkpt lat="45.33843" lon="6.16223">
        <ele>1744.6205</ele>
        <time>2021-07-18T16:17:16</time>
      </trkpt>
      <trkpt lat="45.33843" lon="6.16222">
        <ele>1744.6205</ele>
        <time>2021-07-18T16:17:17</time>
      </trkpt>
      <trkpt lat="45.33854" lon="6.16215">
        <ele>1745.6205</ele>
        <time>2021-07-18T16:17:31</time>
      </trkpt>
      <trkpt lat="45.33855" lon="6.16214">
        <ele>1745.6205</ele>
        <time>2021-07-18T16:17:33</time>
      </trkpt>
      <trkpt lat="45.33856" lon="6.16211">
        <ele>1744.2205</ele>
        <time>2021-07-18T16:17:36</time>
      </trkpt>
      <trkpt lat="45.3386" lon="6.1621">
        <ele>1744.2205</ele>
        <time>2021-07-18T16:17:41</time>
      </trkpt>
      <trkpt lat="45.3386" lon="6.1621">
        <ele>1744.2205</ele>
        <time>2021-07-18T16:17:42</time>
      </trkpt>
      <trkpt lat="45.33861" lon="6.1621">
        <ele>1744.2205</ele>
        <time>2021-07-18T16:17:43</time>
      </trkpt>
      <trkpt lat="45.33868" lon="6.16203">
        <ele>1742.3204</ele>
        <time>2021-07-18T16:17:53</time>
      </trkpt>
      <trkpt lat="45.3387" lon="6.16198">
        <ele>1743.5204</ele>
        <time>2021-07-18T16:17:58</time>
      </trkpt>
      <trkpt lat="45.33875" lon="6.16193">
        <ele>1743.5204</ele>
        <time>2021-07-18T16:18:05</time>
      </trkpt>
      <trkpt lat="45.33879" lon="6.16191">
        <ele>1742.4204</ele>
        <time>2021-07-18T16:18:12</time>
      </trkpt>
      <trkpt lat="45.33883" lon="6.16188">
        <ele>1740.4204</ele>
        <time>2021-07-18T16:18:17</time>
      </trkpt>
      <trkpt lat="45.33885" lon="6.16188">
        <ele>1740.4204</ele>
        <time>2021-07-18T16:18:19</time>
      </trkpt>
      <trkpt lat="45.33893" lon="6.16182">
        <ele>1736.6205</ele>
        <time>2021-07-18T16:18:29</time>
      </trkpt>
      <trkpt lat="45.33893" lon="6.16181">
        <ele>1734.4204</ele>
        <time>2021-07-18T16:18:45</time>
      </trkpt>
      <trkpt lat="45.33895" lon="6.16181">
        <ele>1731.7205</ele>
        <time>2021-07-18T16:18:47</time>
      </trkpt>
      <trkpt lat="45.33899" lon="6.16181">
        <ele>1731.7205</ele>
        <time>2021-07-18T16:18:52</time>
      </trkpt>
      <trkpt lat="45.33901" lon="6.16181">
        <ele>1731.7205</ele>
        <time>2021-07-18T16:18:55</time>
      </trkpt>
      <trkpt lat="45.33901" lon="6.16181">
        <ele>1732.2205</ele>
        <time>2021-07-18T16:18:56</time>
      </trkpt>
      <trkpt lat="45.33901" lon="6.16181">
        <ele>1732.2205</ele>
        <time>2021-07-18T16:18:57</time>
      </trkpt>
      <trkpt lat="45.33901" lon="6.16179">
        <ele>1732.2205</ele>
        <time>2021-07-18T16:19:01</time>
      </trkpt>
      <trkpt lat="45.33902" lon="6.16178">
        <ele>1732.2205</ele>
        <time>2021-07-18T16:19:05</time>
      </trkpt>
      <trkpt lat="45.33902" lon="6.16177">
        <ele>1733.3204</ele>
        <time>2021-07-18T16:19:08</time>
      </trkpt>
      <trkpt lat="45.33906" lon="6.16173">
        <ele>1733.3204</ele>
        <time>2021-07-18T16:19:13</time>
      </trkpt>
      <trkpt lat="45.33908" lon="6.16171">
        <ele>1733.7205</ele>
        <time>2021-07-18T16:19:16</time>
      </trkpt>
      <trkpt lat="45.3391" lon="6.16171">
        <ele>1733.7205</ele>
        <time>2021-07-18T16:19:18</time>
      </trkpt>
      <trkpt lat="45.33914" lon="6.16172">
        <ele>1733.7205</ele>
        <time>2021-07-18T16:19:24</time>
      </trkpt>
      <trkpt lat="45.33917" lon="6.1617">
        <ele>1732.3204</ele>
        <time>2021-07-18T16:19:28</time>
      </trkpt>
      <trkpt lat="45.33918" lon="6.16166">
        <ele>1732.3204</ele>
        <time>2021-07-18T16:19:32</time>
      </trkpt>
      <trkpt lat="45.3392" lon="6.16162">
        <ele>1733.2205</ele>
        <time>2021-07-18T16:19:39</time>
      </trkpt>
      <trkpt lat="45.33923" lon="6.1616">
        <ele>1733.2205</ele>
        <time>2021-07-18T16:19:44</time>
      </trkpt>
      <trkpt lat="45.33926" lon="6.16156">
        <ele>1730.8204</ele>
        <time>2021-07-18T16:19:48</time>
      </trkpt>
      <trkpt lat="45.33926" lon="6.16155">
        <ele>1730.8204</ele>
        <time>2021-07-18T16:19:50</time>
      </trkpt>
      <trkpt lat="45.33932" lon="6.16151">
        <ele>1730.3204</ele>
        <time>2021-07-18T16:19:58</time>
      </trkpt>
      <trkpt lat="45.33935" lon="6.16148">
        <ele>1730.3204</ele>
        <time>2021-07-18T16:20:02</time>
      </trkpt>
      <trkpt lat="45.33936" lon="6.16148">
        <ele>1730.3204</ele>
        <time>2021-07-18T16:20:04</time>
      </trkpt>
      <trkpt lat="45.33937" lon="6.16148">
        <ele>1730.4204</ele>
        <time>2021-07-18T16:20:07</time>
      </trkpt>
      <trkpt lat="45.33938" lon="6.16148">
        <ele>1730.2205</ele>
        <time>2021-07-18T16:20:23</time>
      </trkpt>
      <trkpt lat="45.33942" lon="6.16144">
        <ele>1730.3204</ele>
        <time>2021-07-18T16:20:28</time>
      </trkpt>
      <trkpt lat="45.33944" lon="6.16143">
        <ele>1730.3204</ele>
        <time>2021-07-18T16:20:31</time>
      </trkpt>
      <trkpt lat="45.33946" lon="6.16142">
        <ele>1730.3204</ele>
        <time>2021-07-18T16:20:33</time>
      </trkpt>
      <trkpt lat="45.33949" lon="6.1614">
        <ele>1730.8204</ele>
        <time>2021-07-18T16:20:37</time>
      </trkpt>
      <trkpt lat="45.33957" lon="6.16138">
        <ele>1728.1205</ele>
        <time>2021-07-18T16:20:47</time>
      </trkpt>
      <trkpt lat="45.33957" lon="6.16137">
        <ele>1728.1205</ele>
        <time>2021-07-18T16:20:48</time>
      </trkpt>
      <trkpt lat="45.33958" lon="6.16137">
        <ele>1728.1205</ele>
        <time>2021-07-18T16:20:49</time>
      </trkpt>
      <trkpt lat="45.33959" lon="6.16137">
        <ele>1728.1205</ele>
        <time>2021-07-18T16:20:51</time>
      </trkpt>
      <trkpt lat="45.33959" lon="6.16137">
        <ele>1728.1205</ele>
        <time>2021-07-18T16:20:53</time>
      </trkpt>
      <trkpt lat="45.3396" lon="6.16137">
        <ele>1728.1205</ele>
        <time>2021-07-18T16:20:54</time>
      </trkpt>
      <trkpt lat="45.33962" lon="6.16136">
        <ele>1725.5204</ele>
        <time>2021-07-18T16:20:56</time>
      </trkpt>
      <trkpt lat="45.33965" lon="6.16134">
        <ele>1725.5204</ele>
        <time>2021-07-18T16:20:59</time>
      </trkpt>
      <trkpt lat="45.33971" lon="6.16132">
        <ele>1725.2205</ele>
        <time>2021-07-18T16:21:07</time>
      </trkpt>
      <trkpt lat="45.33972" lon="6.16132">
        <ele>1725.2205</ele>
        <time>2021-07-18T16:21:08</time>
      </trkpt>
      <trkpt lat="45.33972" lon="6.16132">
        <ele>1725.2205</ele>
        <time>2021-07-18T16:21:09</time>
      </trkpt>
      <trkpt lat="45.33974" lon="6.1613">
        <ele>1725.2205</ele>
        <time>2021-07-18T16:21:13</time>
      </trkpt>
      <trkpt lat="45.33974" lon="6.16129">
        <ele>1724.3204</ele>
        <time>2021-07-18T16:21:16</time>
      </trkpt>
      <trkpt lat="45.33976" lon="6.1613">
        <ele>1723.1871</ele>
        <time>2021-07-18T16:21:33</time>
      </trkpt>
      <trkpt lat="45.33978" lon="6.1613">
        <ele>1723.9204</ele>
        <time>2021-07-18T16:21:37</time>
      </trkpt>
      <trkpt lat="45.33979" lon="6.16129">
        <ele>1723.9204</ele>
        <time>2021-07-18T16:21:53</time>
      </trkpt>
      <trkpt lat="45.33979" lon="6.16128">
        <ele>1723.9204</ele>
        <time>2021-07-18T16:21:56</time>
      </trkpt>
      <trkpt lat="45.33979" lon="6.16128">
        <ele>1723.9204</ele>
        <time>2021-07-18T16:21:58</time>
      </trkpt>
      <trkpt lat="45.33981" lon="6.16128">
        <ele>1723.9204</ele>
        <time>2021-07-18T16:22:00</time>
      </trkpt>
      <trkpt lat="45.33984" lon="6.16126">
        <ele>1723.9204</ele>
        <time>2021-07-18T16:22:04</time>
      </trkpt>
      <trkpt lat="45.33987" lon="6.16126">
        <ele>1724.6205</ele>
        <time>2021-07-18T16:22:08</time>
      </trkpt>
      <trkpt lat="45.33988" lon="6.16126">
        <ele>1724.6205</ele>
        <time>2021-07-18T16:22:09</time>
      </trkpt>
      <trkpt lat="45.33989" lon="6.16126">
        <ele>1724.6205</ele>
        <time>2021-07-18T16:22:10</time>
      </trkpt>
      <trkpt lat="45.3399" lon="6.16126">
        <ele>1724.6205</ele>
        <time>2021-07-18T16:22:11</time>
      </trkpt>
      <trkpt lat="45.33993" lon="6.16127">
        <ele>1724.6205</ele>
        <time>2021-07-18T16:22:15</time>
      </trkpt>
      <trkpt lat="45.34002" lon="6.16124">
        <ele>1722.4204</ele>
        <time>2021-07-18T16:22:27</time>
      </trkpt>
      <trkpt lat="45.34003" lon="6.16124">
        <ele>1722.4204</ele>
        <time>2021-07-18T16:22:28</time>
      </trkpt>
      <trkpt lat="45.34003" lon="6.16125">
        <ele>1722.4204</ele>
        <time>2021-07-18T16:22:35</time>
      </trkpt>
      <trkpt lat="45.34003" lon="6.16122">
        <ele>1720.7205</ele>
        <time>2021-07-18T16:22:38</time>
      </trkpt>
      <trkpt lat="45.34004" lon="6.16121">
        <ele>1720.7205</ele>
        <time>2021-07-18T16:22:40</time>
      </trkpt>
      <trkpt lat="45.34003" lon="6.16121">
        <ele>1720.1205</ele>
        <time>2021-07-18T16:22:51</time>
      </trkpt>
      <trkpt lat="45.34003" lon="6.16118">
        <ele>1720.1205</ele>
        <time>2021-07-18T16:22:54</time>
      </trkpt>
      <trkpt lat="45.34005" lon="6.16119">
        <ele>1720.7205</ele>
        <time>2021-07-18T16:22:56</time>
      </trkpt>
      <trkpt lat="45.34005" lon="6.16119">
        <ele>1720.7205</ele>
        <time>2021-07-18T16:22:58</time>
      </trkpt>
      <trkpt lat="45.34005" lon="6.16119">
        <ele>1720.7205</ele>
        <time>2021-07-18T16:22:59</time>
      </trkpt>
      <trkpt lat="45.34006" lon="6.16119">
        <ele>1720.7205</ele>
        <time>2021-07-18T16:23:00</time>
      </trkpt>
      <trkpt lat="45.34007" lon="6.1612">
        <ele>1720.7205</ele>
        <time>2021-07-18T16:23:02</time>
      </trkpt>
      <trkpt lat="45.34006" lon="6.16121">
        <ele>1720.7205</ele>
        <time>2021-07-18T16:23:04</time>
      </trkpt>
      <trkpt lat="45.34006" lon="6.16121">
        <ele>1718.6205</ele>
        <time>2021-07-18T16:23:06</time>
      </trkpt>
      <trkpt lat="45.34004" lon="6.16122">
        <ele>1718.6205</ele>
        <time>2021-07-18T16:23:11</time>
      </trkpt>
      <trkpt lat="45.34003" lon="6.16121">
        <ele>1719.5204</ele>
        <time>2021-07-18T16:23:17</time>
      </trkpt>
      <trkpt lat="45.34003" lon="6.16121">
        <ele>1719.5204</ele>
        <time>2021-07-18T16:23:18</time>
      </trkpt>
      <trkpt lat="45.34002" lon="6.1612">
        <ele>1721.3204</ele>
        <time>2021-07-18T16:23:48</time>
      </trkpt>
      <trkpt lat="45.34002" lon="6.1612">
        <ele>1721.3204</ele>
        <time>2021-07-18T16:23:49</time>
      </trkpt>
      <trkpt lat="45.34002" lon="6.16117">
        <ele>1720.1205</ele>
        <time>2021-07-18T16:24:32</time>
      </trkpt>
      <trkpt lat="45.34002" lon="6.16117">
        <ele>1720.1205</ele>
        <time>2021-07-18T16:24:34</time>
      </trkpt>
      <trkpt lat="45.34002" lon="6.16117">
        <ele>1720.1205</ele>
        <time>2021-07-18T16:24:35</time>
      </trkpt>
      <trkpt lat="45.34003" lon="6.16118">
        <ele>1720.2205</ele>
        <time>2021-07-18T16:25:12</time>
      </trkpt>
      <trkpt lat="45.34004" lon="6.16118">
        <ele>1720.2205</ele>
        <time>2021-07-18T16:25:13</time>
      </trkpt>
      <trkpt lat="45.34007" lon="6.16117">
        <ele>1720.2205</ele>
        <time>2021-07-18T16:25:18</time>
      </trkpt>
      <trkpt lat="45.34015" lon="6.16108">
        <ele>1720.4204</ele>
        <time>2021-07-18T16:25:30</time>
      </trkpt>
      <trkpt lat="45.34017" lon="6.16104">
        <ele>1720.4204</ele>
        <time>2021-07-18T16:25:33</time>
      </trkpt>
      <trkpt lat="45.34024" lon="6.161">
        <ele>1717.9204</ele>
        <time>2021-07-18T16:25:41</time>
      </trkpt>
      <trkpt lat="45.34024" lon="6.16101">
        <ele>1717.9204</ele>
        <time>2021-07-18T16:25:42</time>
      </trkpt>
      <trkpt lat="45.34025" lon="6.16101">
        <ele>1717.9204</ele>
        <time>2021-07-18T16:25:44</time>
      </trkpt>
      <trkpt lat="45.34025" lon="6.161">
        <ele>1717.0204</ele>
        <time>2021-07-18T16:25:46</time>
      </trkpt>
      <trkpt lat="45.34025" lon="6.16097">
        <ele>1717.0204</ele>
        <time>2021-07-18T16:25:55</time>
      </trkpt>
      <trkpt lat="45.34026" lon="6.16097">
        <ele>1715.7205</ele>
        <time>2021-07-18T16:25:56</time>
      </trkpt>
      <trkpt lat="45.34029" lon="6.16096">
        <ele>1715.7205</ele>
        <time>2021-07-18T16:26:00</time>
      </trkpt>
      <trkpt lat="45.34032" lon="6.16095">
        <ele>1715.7205</ele>
        <time>2021-07-18T16:26:04</time>
      </trkpt>
      <trkpt lat="45.34032" lon="6.16095">
        <ele>1715.4204</ele>
        <time>2021-07-18T16:26:08</time>
      </trkpt>
      <trkpt lat="45.34032" lon="6.16095">
        <ele>1715.4204</ele>
        <time>2021-07-18T16:26:09</time>
      </trkpt>
      <trkpt lat="45.34034" lon="6.16094">
        <ele>1714.6205</ele>
        <time>2021-07-18T16:26:21</time>
      </trkpt>
      <trkpt lat="45.34038" lon="6.16097">
        <ele>1714.9204</ele>
        <time>2021-07-18T16:26:26</time>
      </trkpt>
      <trkpt lat="45.34041" lon="6.16099">
        <ele>1714.9204</ele>
        <time>2021-07-18T16:26:30</time>
      </trkpt>
      <trkpt lat="45.34044" lon="6.16101">
        <ele>1714.9204</ele>
        <time>2021-07-18T16:26:35</time>
      </trkpt>
      <trkpt lat="45.34045" lon="6.16102">
        <ele>1715.8204</ele>
        <time>2021-07-18T16:26:37</time>
      </trkpt>
      <trkpt lat="45.34044" lon="6.16102">
        <ele>1715.3204</ele>
        <time>2021-07-18T16:26:54</time>
      </trkpt>
      <trkpt lat="45.34043" lon="6.16101">
        <ele>1716.3204</ele>
        <time>2021-07-18T16:26:57</time>
      </trkpt>
      <trkpt lat="45.3404" lon="6.161">
        <ele>1716.3204</ele>
        <time>2021-07-18T16:26:59</time>
      </trkpt>
      <trkpt lat="45.34037" lon="6.16102">
        <ele>1716.3204</ele>
        <time>2021-07-18T16:27:05</time>
      </trkpt>
      <trkpt lat="45.34038" lon="6.16102">
        <ele>1717.0204</ele>
        <time>2021-07-18T16:27:06</time>
      </trkpt>
      <trkpt lat="45.34042" lon="6.16104">
        <ele>1717.0204</ele>
        <time>2021-07-18T16:27:10</time>
      </trkpt>
      <trkpt lat="45.34043" lon="6.16104">
        <ele>1717.9204</ele>
        <time>2021-07-18T16:27:21</time>
      </trkpt>
      <trkpt lat="45.3404" lon="6.16104">
        <ele>1717.9204</ele>
        <time>2021-07-18T16:27:23</time>
      </trkpt>
      <trkpt lat="45.34039" lon="6.16104">
        <ele>1717.9204</ele>
        <time>2021-07-18T16:27:24</time>
      </trkpt>
      <trkpt lat="45.34038" lon="6.16104">
        <ele>1717.9204</ele>
        <time>2021-07-18T16:27:25</time>
      </trkpt>
      <trkpt lat="45.34037" lon="6.16104">
        <ele>1718.2205</ele>
        <time>2021-07-18T16:27:26</time>
      </trkpt>
      <trkpt lat="45.34036" lon="6.16102">
        <ele>1718.2205</ele>
        <time>2021-07-18T16:27:29</time>
      </trkpt>
      <trkpt lat="45.34036" lon="6.16101">
        <ele>1718.2205</ele>
        <time>2021-07-18T16:27:34</time>
      </trkpt>
      <trkpt lat="45.34037" lon="6.16103">
        <ele>1719.1205</ele>
        <time>2021-07-18T16:27:36</time>
      </trkpt>
      <trkpt lat="45.34038" lon="6.16103">
        <ele>1719.1205</ele>
        <time>2021-07-18T16:27:38</time>
      </trkpt>
      <trkpt lat="45.34042" lon="6.16103">
        <ele>1719.1205</ele>
        <time>2021-07-18T16:27:42</time>
      </trkpt>
      <trkpt lat="45.34042" lon="6.16103">
        <ele>1719.1205</ele>
        <time>2021-07-18T16:27:43</time>
      </trkpt>
      <trkpt lat="45.34042" lon="6.16103">
        <ele>1719.1205</ele>
        <time>2021-07-18T16:27:44</time>
      </trkpt>
      <trkpt lat="45.34042" lon="6.16103">
        <ele>1719.1205</ele>
        <time>2021-07-18T16:27:45</time>
      </trkpt>
      <trkpt lat="45.34042" lon="6.16103">
        <ele>1718.3204</ele>
        <time>2021-07-18T16:27:48</time>
      </trkpt>
      <trkpt lat="45.34042" lon="6.16103">
        <ele>1718.3204</ele>
        <time>2021-07-18T16:27:49</time>
      </trkpt>
      <trkpt lat="45.34043" lon="6.16102">
        <ele>1718.3204</ele>
        <time>2021-07-18T16:27:54</time>
      </trkpt>
      <trkpt lat="45.3404" lon="6.16101">
        <ele>1718.3204</ele>
        <time>2021-07-18T16:27:58</time>
      </trkpt>
      <trkpt lat="45.34037" lon="6.161">
        <ele>1718.3204</ele>
        <time>2021-07-18T16:28:02</time>
      </trkpt>
      <trkpt lat="45.34037" lon="6.16098">
        <ele>1718.5204</ele>
        <time>2021-07-18T16:28:23</time>
      </trkpt>
      <trkpt lat="45.34037" lon="6.16098">
        <ele>1718.5204</ele>
        <time>2021-07-18T16:28:24</time>
      </trkpt>
      <trkpt lat="45.34037" lon="6.16099">
        <ele>1718.5204</ele>
        <time>2021-07-18T16:28:30</time>
      </trkpt>
      <trkpt lat="45.34038" lon="6.16098">
        <ele>1718.5204</ele>
        <time>2021-07-18T16:28:32</time>
      </trkpt>
      <trkpt lat="45.34048" lon="6.16091">
        <ele>1718.4204</ele>
        <time>2021-07-18T16:28:45</time>
      </trkpt>
      <trkpt lat="45.34048" lon="6.1609">
        <ele>1715.2205</ele>
        <time>2021-07-18T16:28:47</time>
      </trkpt>
      <trkpt lat="45.34049" lon="6.16088">
        <ele>1715.2205</ele>
        <time>2021-07-18T16:28:54</time>
      </trkpt>
      <trkpt lat="45.3405" lon="6.16086">
        <ele>1713.6205</ele>
        <time>2021-07-18T16:28:57</time>
      </trkpt>
      <trkpt lat="45.34051" lon="6.16085">
        <ele>1713.6205</ele>
        <time>2021-07-18T16:28:59</time>
      </trkpt>
      <trkpt lat="45.34051" lon="6.16085">
        <ele>1713.6205</ele>
        <time>2021-07-18T16:29:00</time>
      </trkpt>
      <trkpt lat="45.34051" lon="6.16084">
        <ele>1713.6205</ele>
        <time>2021-07-18T16:29:01</time>
      </trkpt>
      <trkpt lat="45.34051" lon="6.16083">
        <ele>1711.5204</ele>
        <time>2021-07-18T16:29:42</time>
      </trkpt>
      <trkpt lat="45.34051" lon="6.16083">
        <ele>1711.4204</ele>
        <time>2021-07-18T16:30:20</time>
      </trkpt>
      <trkpt lat="45.34052" lon="6.16083">
        <ele>1711.4204</ele>
        <time>2021-07-18T16:30:57</time>
      </trkpt>
      <trkpt lat="45.34054" lon="6.16081">
        <ele>1711.4204</ele>
        <time>2021-07-18T16:31:01</time>
      </trkpt>
      <trkpt lat="45.34057" lon="6.16079">
        <ele>1711.4204</ele>
        <time>2021-07-18T16:31:05</time>
      </trkpt>
      <trkpt lat="45.34057" lon="6.16078">
        <ele>1711.4204</ele>
        <time>2021-07-18T16:31:07</time>
      </trkpt>
      <trkpt lat="45.34059" lon="6.16075">
        <ele>1711.4204</ele>
        <time>2021-07-18T16:31:14</time>
      </trkpt>
      <trkpt lat="45.34059" lon="6.16075">
        <ele>1709.9204</ele>
        <time>2021-07-18T16:31:20</time>
      </trkpt>
      <trkpt lat="45.3406" lon="6.16075">
        <ele>1709.9204</ele>
        <time>2021-07-18T16:31:21</time>
      </trkpt>
      <trkpt lat="45.34061" lon="6.16074">
        <ele>1709.9204</ele>
        <time>2021-07-18T16:31:23</time>
      </trkpt>
      <trkpt lat="45.34062" lon="6.1607">
        <ele>1708.9204</ele>
        <time>2021-07-18T16:31:27</time>
      </trkpt>
      <trkpt lat="45.34066" lon="6.16065">
        <ele>1708.9204</ele>
        <time>2021-07-18T16:31:32</time>
      </trkpt>
      <trkpt lat="45.34069" lon="6.16061">
        <ele>1708.0204</ele>
        <time>2021-07-18T16:31:37</time>
      </trkpt>
      <trkpt lat="45.34071" lon="6.16058">
        <ele>1708.0204</ele>
        <time>2021-07-18T16:31:41</time>
      </trkpt>
      <trkpt lat="45.34073" lon="6.16057">
        <ele>1708.0204</ele>
        <time>2021-07-18T16:31:44</time>
      </trkpt>
      <trkpt lat="45.34075" lon="6.16055">
        <ele>1706.3204</ele>
        <time>2021-07-18T16:31:46</time>
      </trkpt>
      <trkpt lat="45.34077" lon="6.16053">
        <ele>1706.3204</ele>
        <time>2021-07-18T16:31:50</time>
      </trkpt>
      <trkpt lat="45.34078" lon="6.16055">
        <ele>1705.7205</ele>
        <time>2021-07-18T16:32:02</time>
      </trkpt>
      <trkpt lat="45.34079" lon="6.16054">
        <ele>1705.7205</ele>
        <time>2021-07-18T16:32:04</time>
      </trkpt>
      <trkpt lat="45.3408" lon="6.16053">
        <ele>1705.7205</ele>
        <time>2021-07-18T16:32:05</time>
      </trkpt>
      <trkpt lat="45.3408" lon="6.16053">
        <ele>1705.0204</ele>
        <time>2021-07-18T16:32:06</time>
      </trkpt>
      <trkpt lat="45.34082" lon="6.16053">
        <ele>1705.0204</ele>
        <time>2021-07-18T16:32:20</time>
      </trkpt>
      <trkpt lat="45.34084" lon="6.16052">
        <ele>1705.0204</ele>
        <time>2021-07-18T16:32:23</time>
      </trkpt>
      <trkpt lat="45.34087" lon="6.16051">
        <ele>1703.6205</ele>
        <time>2021-07-18T16:32:27</time>
      </trkpt>
      <trkpt lat="45.34089" lon="6.16051">
        <ele>1703.6205</ele>
        <time>2021-07-18T16:32:29</time>
      </trkpt>
      <trkpt lat="45.34091" lon="6.16052">
        <ele>1703.6205</ele>
        <time>2021-07-18T16:32:33</time>
      </trkpt>
      <trkpt lat="45.34092" lon="6.16052">
        <ele>1703.6205</ele>
        <time>2021-07-18T16:32:34</time>
      </trkpt>
      <trkpt lat="45.34093" lon="6.16052">
        <ele>1703.3204</ele>
        <time>2021-07-18T16:32:36</time>
      </trkpt>
      <trkpt lat="45.34096" lon="6.16054">
        <ele>1703.3204</ele>
        <time>2021-07-18T16:32:40</time>
      </trkpt>
      <trkpt lat="45.34099" lon="6.16055">
        <ele>1703.3204</ele>
        <time>2021-07-18T16:32:43</time>
      </trkpt>
      <trkpt lat="45.34101" lon="6.16056">
        <ele>1703.3204</ele>
        <time>2021-07-18T16:32:45</time>
      </trkpt>
      <trkpt lat="45.34103" lon="6.16057">
        <ele>1703.8204</ele>
        <time>2021-07-18T16:32:48</time>
      </trkpt>
      <trkpt lat="45.34107" lon="6.1606">
        <ele>1703.8204</ele>
        <time>2021-07-18T16:32:53</time>
      </trkpt>
      <trkpt lat="45.34109" lon="6.16061">
        <ele>1702.9204</ele>
        <time>2021-07-18T16:32:56</time>
      </trkpt>
      <trkpt lat="45.34108" lon="6.1606">
        <ele>1702.6205</ele>
        <time>2021-07-18T16:33:27</time>
      </trkpt>
      <trkpt lat="45.34108" lon="6.1606">
        <ele>1702.6205</ele>
        <time>2021-07-18T16:33:28</time>
      </trkpt>
      <trkpt lat="45.34109" lon="6.1606">
        <ele>1702.6205</ele>
        <time>2021-07-18T16:33:32</time>
      </trkpt>
      <trkpt lat="45.34109" lon="6.16059">
        <ele>1702.6205</ele>
        <time>2021-07-18T16:33:33</time>
      </trkpt>
      <trkpt lat="45.3411" lon="6.16059">
        <ele>1702.6205</ele>
        <time>2021-07-18T16:33:34</time>
      </trkpt>
      <trkpt lat="45.34112" lon="6.16058">
        <ele>1702.6205</ele>
        <time>2021-07-18T16:33:37</time>
      </trkpt>
      <trkpt lat="45.34117" lon="6.16058">
        <ele>1703.7205</ele>
        <time>2021-07-18T16:33:49</time>
      </trkpt>
      <trkpt lat="45.34125" lon="6.16056">
        <ele>1703.2205</ele>
        <time>2021-07-18T16:33:58</time>
      </trkpt>
      <trkpt lat="45.34129" lon="6.16058">
        <ele>1703.2205</ele>
        <time>2021-07-18T16:34:01</time>
      </trkpt>
      <trkpt lat="45.34131" lon="6.16059">
        <ele>1703.2205</ele>
        <time>2021-07-18T16:34:03</time>
      </trkpt>
      <trkpt lat="45.34136" lon="6.16059">
        <ele>1702.0204</ele>
        <time>2021-07-18T16:34:08</time>
      </trkpt>
      <trkpt lat="45.34138" lon="6.16061">
        <ele>1702.0204</ele>
        <time>2021-07-18T16:34:10</time>
      </trkpt>
      <trkpt lat="45.34142" lon="6.16063">
        <ele>1702.0204</ele>
        <time>2021-07-18T16:34:14</time>
      </trkpt>
      <trkpt lat="45.34149" lon="6.16065">
        <ele>1699.9204</ele>
        <time>2021-07-18T16:34:21</time>
      </trkpt>
      <trkpt lat="45.3415" lon="6.16066">
        <ele>1699.9204</ele>
        <time>2021-07-18T16:34:22</time>
      </trkpt>
      <trkpt lat="45.3415" lon="6.16065">
        <ele>1699.9204</ele>
        <time>2021-07-18T16:34:25</time>
      </trkpt>
      <trkpt lat="45.3415" lon="6.16064">
        <ele>1696.7205</ele>
        <time>2021-07-18T16:34:28</time>
      </trkpt>
      <trkpt lat="45.34151" lon="6.16063">
        <ele>1696.7205</ele>
        <time>2021-07-18T16:34:29</time>
      </trkpt>
      <trkpt lat="45.34156" lon="6.16061">
        <ele>1696.7205</ele>
        <time>2021-07-18T16:34:35</time>
      </trkpt>
      <trkpt lat="45.34156" lon="6.1606">
        <ele>1695.6205</ele>
        <time>2021-07-18T16:34:36</time>
      </trkpt>
      <trkpt lat="45.34157" lon="6.1606">
        <ele>1695.6205</ele>
        <time>2021-07-18T16:34:37</time>
      </trkpt>
      <trkpt lat="45.34158" lon="6.16059">
        <ele>1695.6205</ele>
        <time>2021-07-18T16:34:40</time>
      </trkpt>
      <trkpt lat="45.34158" lon="6.16057">
        <ele>1695.6205</ele>
        <time>2021-07-18T16:34:45</time>
      </trkpt>
      <trkpt lat="45.34158" lon="6.16056">
        <ele>1696.3204</ele>
        <time>2021-07-18T16:34:47</time>
      </trkpt>
      <trkpt lat="45.34157" lon="6.16055">
        <ele>1696.3204</ele>
        <time>2021-07-18T16:34:49</time>
      </trkpt>
      <trkpt lat="45.34156" lon="6.16054">
        <ele>1696.3204</ele>
        <time>2021-07-18T16:34:51</time>
      </trkpt>
      <trkpt lat="45.34156" lon="6.16052">
        <ele>1696.3204</ele>
        <time>2021-07-18T16:34:55</time>
      </trkpt>
      <trkpt lat="45.34156" lon="6.16054">
        <ele>1696.3204</ele>
        <time>2021-07-18T16:34:57</time>
      </trkpt>
      <trkpt lat="45.34157" lon="6.16055">
        <ele>1697.9204</ele>
        <time>2021-07-18T16:35:27</time>
      </trkpt>
      <trkpt lat="45.34157" lon="6.16055">
        <ele>1697.9204</ele>
        <time>2021-07-18T16:35:36</time>
      </trkpt>
      <trkpt lat="45.34157" lon="6.16055">
        <ele>1697.9204</ele>
        <time>2021-07-18T16:35:37</time>
      </trkpt>
      <trkpt lat="45.34157" lon="6.16053">
        <ele>1698.6205</ele>
        <time>2021-07-18T16:36:08</time>
      </trkpt>
      <trkpt lat="45.34157" lon="6.16053">
        <ele>1698.6205</ele>
        <time>2021-07-18T16:36:20</time>
      </trkpt>
      <trkpt lat="45.34157" lon="6.16053">
        <ele>1698.6205</ele>
        <time>2021-07-18T16:36:21</time>
      </trkpt>
      <trkpt lat="45.34158" lon="6.16057">
        <ele>1695.9204</ele>
        <time>2021-07-18T16:36:54</time>
      </trkpt>
      <trkpt lat="45.34158" lon="6.16057">
        <ele>1695.9204</ele>
        <time>2021-07-18T16:36:55</time>
      </trkpt>
      <trkpt lat="45.34158" lon="6.16056">
        <ele>1696.5204</ele>
        <time>2021-07-18T16:36:57</time>
      </trkpt>
      <trkpt lat="45.34159" lon="6.16057">
        <ele>1696.5204</ele>
        <time>2021-07-18T16:36:58</time>
      </trkpt>
      <trkpt lat="45.34161" lon="6.16058">
        <ele>1696.5204</ele>
        <time>2021-07-18T16:37:00</time>
      </trkpt>
      <trkpt lat="45.34162" lon="6.16058">
        <ele>1696.5204</ele>
        <time>2021-07-18T16:37:01</time>
      </trkpt>
      <trkpt lat="45.34167" lon="6.16057">
        <ele>1695.8204</ele>
        <time>2021-07-18T16:37:06</time>
      </trkpt>
      <trkpt lat="45.34168" lon="6.16057">
        <ele>1695.8204</ele>
        <time>2021-07-18T16:37:07</time>
      </trkpt>
      <trkpt lat="45.3417" lon="6.16056">
        <ele>1695.8204</ele>
        <time>2021-07-18T16:37:09</time>
      </trkpt>
      <trkpt lat="45.3417" lon="6.16055">
        <ele>1695.8204</ele>
        <time>2021-07-18T16:37:10</time>
      </trkpt>
      <trkpt lat="45.34171" lon="6.16054">
        <ele>1695.8204</ele>
        <time>2021-07-18T16:37:11</time>
      </trkpt>
      <trkpt lat="45.34173" lon="6.16053">
        <ele>1695.8204</ele>
        <time>2021-07-18T16:37:13</time>
      </trkpt>
      <trkpt lat="45.34174" lon="6.16053">
        <ele>1696.1871</ele>
        <time>2021-07-18T16:37:19</time>
      </trkpt>
      <trkpt lat="45.34174" lon="6.16054">
        <ele>1696.1871</ele>
        <time>2021-07-18T16:37:20</time>
      </trkpt>
      <trkpt lat="45.34173" lon="6.16055">
        <ele>1696.1871</ele>
        <time>2021-07-18T16:37:22</time>
      </trkpt>
      <trkpt lat="45.34168" lon="6.16059">
        <ele>1696.3204</ele>
        <time>2021-07-18T16:37:28</time>
      </trkpt>
      <trkpt lat="45.34167" lon="6.16059">
        <ele>1696.3204</ele>
        <time>2021-07-18T16:37:29</time>
      </trkpt>
      <trkpt lat="45.34166" lon="6.16059">
        <ele>1696.3204</ele>
        <time>2021-07-18T16:37:32</time>
      </trkpt>
      <trkpt lat="45.34167" lon="6.16059">
        <ele>1692.0204</ele>
        <time>2021-07-18T16:37:55</time>
      </trkpt>
      <trkpt lat="45.34178" lon="6.1606">
        <ele>1692.0204</ele>
        <time>2021-07-18T16:38:05</time>
      </trkpt>
      <trkpt lat="45.3418" lon="6.1606">
        <ele>1691.5204</ele>
        <time>2021-07-18T16:38:06</time>
      </trkpt>
      <trkpt lat="45.34181" lon="6.1606">
        <ele>1691.5204</ele>
        <time>2021-07-18T16:38:08</time>
      </trkpt>
      <trkpt lat="45.34182" lon="6.1606">
        <ele>1688.9204</ele>
        <time>2021-07-18T16:38:31</time>
      </trkpt>
      <trkpt lat="45.34185" lon="6.16059">
        <ele>1688.9204</ele>
        <time>2021-07-18T16:38:34</time>
      </trkpt>
      <trkpt lat="45.34186" lon="6.16059">
        <ele>1688.9204</ele>
        <time>2021-07-18T16:38:35</time>
      </trkpt>
      <trkpt lat="45.34193" lon="6.16054">
        <ele>1689.4204</ele>
        <time>2021-07-18T16:38:44</time>
      </trkpt>
      <trkpt lat="45.34193" lon="6.16053">
        <ele>1689.4204</ele>
        <time>2021-07-18T16:38:45</time>
      </trkpt>
      <trkpt lat="45.34196" lon="6.16051">
        <ele>1691.2205</ele>
        <time>2021-07-18T16:38:48</time>
      </trkpt>
      <trkpt lat="45.34198" lon="6.16049">
        <ele>1691.2205</ele>
        <time>2021-07-18T16:38:50</time>
      </trkpt>
      <trkpt lat="45.34199" lon="6.16049">
        <ele>1691.2205</ele>
        <time>2021-07-18T16:38:51</time>
      </trkpt>
      <trkpt lat="45.342" lon="6.1605">
        <ele>1691.2205</ele>
        <time>2021-07-18T16:38:52</time>
      </trkpt>
      <trkpt lat="45.34201" lon="6.1605">
        <ele>1691.2205</ele>
        <time>2021-07-18T16:38:53</time>
      </trkpt>
      <trkpt lat="45.34202" lon="6.16052">
        <ele>1691.2205</ele>
        <time>2021-07-18T16:38:54</time>
      </trkpt>
      <trkpt lat="45.34202" lon="6.16053">
        <ele>1691.2205</ele>
        <time>2021-07-18T16:38:55</time>
      </trkpt>
      <trkpt lat="45.34203" lon="6.16053">
        <ele>1693.6205</ele>
        <time>2021-07-18T16:39:02</time>
      </trkpt>
      <trkpt lat="45.34204" lon="6.16054">
        <ele>1693.6205</ele>
        <time>2021-07-18T16:39:03</time>
      </trkpt>
      <trkpt lat="45.34205" lon="6.16054">
        <ele>1693.6205</ele>
        <time>2021-07-18T16:39:05</time>
      </trkpt>
      <trkpt lat="45.34205" lon="6.16054">
        <ele>1694.5204</ele>
        <time>2021-07-18T16:39:06</time>
      </trkpt>
      <trkpt lat="45.34207" lon="6.16054">
        <ele>1694.5204</ele>
        <time>2021-07-18T16:39:08</time>
      </trkpt>
      <trkpt lat="45.34207" lon="6.16055">
        <ele>1695.1205</ele>
        <time>2021-07-18T16:39:44</time>
      </trkpt>
      <trkpt lat="45.34209" lon="6.16056">
        <ele>1695.1205</ele>
        <time>2021-07-18T16:39:54</time>
      </trkpt>
      <trkpt lat="45.3421" lon="6.16055">
        <ele>1695.1205</ele>
        <time>2021-07-18T16:39:55</time>
      </trkpt>
      <trkpt lat="45.34216" lon="6.16054">
        <ele>1695.0204</ele>
        <time>2021-07-18T16:40:03</time>
      </trkpt>
      <trkpt lat="45.34217" lon="6.16054">
        <ele>1695.0204</ele>
        <time>2021-07-18T16:40:04</time>
      </trkpt>
      <trkpt lat="45.34217" lon="6.16054">
        <ele>1695.0204</ele>
        <time>2021-07-18T16:40:05</time>
      </trkpt>
      <trkpt lat="45.34224" lon="6.16053">
        <ele>1694.3204</ele>
        <time>2021-07-18T16:40:12</time>
      </trkpt>
      <trkpt lat="45.34233" lon="6.16055">
        <ele>1694.9204</ele>
        <time>2021-07-18T16:40:22</time>
      </trkpt>
      <trkpt lat="45.34235" lon="6.16055">
        <ele>1694.9204</ele>
        <time>2021-07-18T16:40:24</time>
      </trkpt>
      <trkpt lat="45.34236" lon="6.16055">
        <ele>1694.9204</ele>
        <time>2021-07-18T16:40:25</time>
      </trkpt>
      <trkpt lat="45.34238" lon="6.16054">
        <ele>1693.7205</ele>
        <time>2021-07-18T16:40:27</time>
      </trkpt>
      <trkpt lat="45.34239" lon="6.16054">
        <ele>1693.7205</ele>
        <time>2021-07-18T16:40:28</time>
      </trkpt>
      <trkpt lat="45.34242" lon="6.16054">
        <ele>1693.7205</ele>
        <time>2021-07-18T16:40:31</time>
      </trkpt>
      <trkpt lat="45.34246" lon="6.16053">
        <ele>1693.4204</ele>
        <time>2021-07-18T16:40:36</time>
      </trkpt>
      <trkpt lat="45.34247" lon="6.16053">
        <ele>1693.4204</ele>
        <time>2021-07-18T16:40:37</time>
      </trkpt>
      <trkpt lat="45.3425" lon="6.16053">
        <ele>1693.4204</ele>
        <time>2021-07-18T16:40:40</time>
      </trkpt>
      <trkpt lat="45.34252" lon="6.16053">
        <ele>1693.4204</ele>
        <time>2021-07-18T16:40:42</time>
      </trkpt>
      <trkpt lat="45.34253" lon="6.16052">
        <ele>1693.4204</ele>
        <time>2021-07-18T16:40:43</time>
      </trkpt>
      <trkpt lat="45.34253" lon="6.16052">
        <ele>1693.4204</ele>
        <time>2021-07-18T16:40:44</time>
      </trkpt>
      <trkpt lat="45.34254" lon="6.16052">
        <ele>1693.4204</ele>
        <time>2021-07-18T16:40:45</time>
      </trkpt>
      <trkpt lat="45.34256" lon="6.16051">
        <ele>1693.1205</ele>
        <time>2021-07-18T16:40:47</time>
      </trkpt>
      <trkpt lat="45.34259" lon="6.16049">
        <ele>1693.1205</ele>
        <time>2021-07-18T16:40:51</time>
      </trkpt>
      <trkpt lat="45.34264" lon="6.16046">
        <ele>1694.0204</ele>
        <time>2021-07-18T16:40:56</time>
      </trkpt>
      <trkpt lat="45.34265" lon="6.16045">
        <ele>1694.0204</ele>
        <time>2021-07-18T16:40:58</time>
      </trkpt>
      <trkpt lat="45.34265" lon="6.16045">
        <ele>1694.0204</ele>
        <time>2021-07-18T16:40:59</time>
      </trkpt>
      <trkpt lat="45.34265" lon="6.16045">
        <ele>1694.0204</ele>
        <time>2021-07-18T16:41:00</time>
      </trkpt>
      <trkpt lat="45.34266" lon="6.16045">
        <ele>1694.0204</ele>
        <time>2021-07-18T16:41:03</time>
      </trkpt>
      <trkpt lat="45.34266" lon="6.16044">
        <ele>1694.0204</ele>
        <time>2021-07-18T16:41:04</time>
      </trkpt>
      <trkpt lat="45.34267" lon="6.16044">
        <ele>1695.1205</ele>
        <time>2021-07-18T16:41:07</time>
      </trkpt>
      <trkpt lat="45.34268" lon="6.16042">
        <ele>1695.1205</ele>
        <time>2021-07-18T16:41:09</time>
      </trkpt>
      <trkpt lat="45.34269" lon="6.16042">
        <ele>1695.1205</ele>
        <time>2021-07-18T16:41:10</time>
      </trkpt>
      <trkpt lat="45.3427" lon="6.1604">
        <ele>1695.1205</ele>
        <time>2021-07-18T16:41:13</time>
      </trkpt>
      <trkpt lat="45.34271" lon="6.16042">
        <ele>1691.6205</ele>
        <time>2021-07-18T16:41:18</time>
      </trkpt>
      <trkpt lat="45.34272" lon="6.16041">
        <ele>1691.6205</ele>
        <time>2021-07-18T16:41:19</time>
      </trkpt>
      <trkpt lat="45.34273" lon="6.16039">
        <ele>1691.6205</ele>
        <time>2021-07-18T16:41:21</time>
      </trkpt>
      <trkpt lat="45.34274" lon="6.16037">
        <ele>1691.6205</ele>
        <time>2021-07-18T16:41:23</time>
      </trkpt>
      <trkpt lat="45.34276" lon="6.16033">
        <ele>1693.6205</ele>
        <time>2021-07-18T16:41:27</time>
      </trkpt>
      <trkpt lat="45.34277" lon="6.16032">
        <ele>1693.6205</ele>
        <time>2021-07-18T16:41:29</time>
      </trkpt>
      <trkpt lat="45.34279" lon="6.16029">
        <ele>1693.6205</ele>
        <time>2021-07-18T16:41:32</time>
      </trkpt>
      <trkpt lat="45.3428" lon="6.16027">
        <ele>1693.6205</ele>
        <time>2021-07-18T16:41:35</time>
      </trkpt>
      <trkpt lat="45.3428" lon="6.16026">
        <ele>1692.6205</ele>
        <time>2021-07-18T16:41:36</time>
      </trkpt>
      <trkpt lat="45.3428" lon="6.16026">
        <ele>1692.6205</ele>
        <time>2021-07-18T16:41:37</time>
      </trkpt>
      <trkpt lat="45.34281" lon="6.16025">
        <ele>1692.6205</ele>
        <time>2021-07-18T16:41:39</time>
      </trkpt>
      <trkpt lat="45.34287" lon="6.16017">
        <ele>1696.8871</ele>
        <time>2021-07-18T16:41:48</time>
      </trkpt>
      <trkpt lat="45.3429" lon="6.16013">
        <ele>1692.2205</ele>
        <time>2021-07-18T16:41:56</time>
      </trkpt>
      <trkpt lat="45.3429" lon="6.16013">
        <ele>1692.2205</ele>
        <time>2021-07-18T16:42:02</time>
      </trkpt>
      <trkpt lat="45.34297" lon="6.16012">
        <ele>1690.3204</ele>
        <time>2021-07-18T16:42:10</time>
      </trkpt>
      <trkpt lat="45.34297" lon="6.16012">
        <ele>1690.3204</ele>
        <time>2021-07-18T16:42:11</time>
      </trkpt>
      <trkpt lat="45.34298" lon="6.1601">
        <ele>1690.3204</ele>
        <time>2021-07-18T16:42:13</time>
      </trkpt>
      <trkpt lat="45.34299" lon="6.1601">
        <ele>1690.8204</ele>
        <time>2021-07-18T16:42:22</time>
      </trkpt>
      <trkpt lat="45.34299" lon="6.1601">
        <ele>1690.8204</ele>
        <time>2021-07-18T16:42:23</time>
      </trkpt>
      <trkpt lat="45.34299" lon="6.16011">
        <ele>1691.7205</ele>
        <time>2021-07-18T16:43:02</time>
      </trkpt>
      <trkpt lat="45.34299" lon="6.16011">
        <ele>1691.7205</ele>
        <time>2021-07-18T16:43:03</time>
      </trkpt>
      <trkpt lat="45.34298" lon="6.16011">
        <ele>1691.7205</ele>
        <time>2021-07-18T16:43:09</time>
      </trkpt>
      <trkpt lat="45.34298" lon="6.16011">
        <ele>1691.7205</ele>
        <time>2021-07-18T16:43:10</time>
      </trkpt>
      <trkpt lat="45.34298" lon="6.16011">
        <ele>1691.7205</ele>
        <time>2021-07-18T16:43:12</time>
      </trkpt>
      <trkpt lat="45.34298" lon="6.1601">
        <ele>1691.7205</ele>
        <time>2021-07-18T16:43:13</time>
      </trkpt>
      <trkpt lat="45.34299" lon="6.16009">
        <ele>1691.7205</ele>
        <time>2021-07-18T16:43:14</time>
      </trkpt>
      <trkpt lat="45.343" lon="6.16008">
        <ele>1690.3204</ele>
        <time>2021-07-18T16:43:16</time>
      </trkpt>
      <trkpt lat="45.34301" lon="6.16007">
        <ele>1690.3204</ele>
        <time>2021-07-18T16:43:17</time>
      </trkpt>
      <trkpt lat="45.34302" lon="6.16005">
        <ele>1690.3204</ele>
        <time>2021-07-18T16:43:20</time>
      </trkpt>
      <trkpt lat="45.34303" lon="6.16004">
        <ele>1690.3204</ele>
        <time>2021-07-18T16:43:21</time>
      </trkpt>
      <trkpt lat="45.34303" lon="6.16004">
        <ele>1690.3204</ele>
        <time>2021-07-18T16:43:22</time>
      </trkpt>
      <trkpt lat="45.34303" lon="6.16003">
        <ele>1690.3204</ele>
        <time>2021-07-18T16:43:23</time>
      </trkpt>
      <trkpt lat="45.34304" lon="6.16002">
        <ele>1690.3204</ele>
        <time>2021-07-18T16:43:25</time>
      </trkpt>
      <trkpt lat="45.34304" lon="6.16002">
        <ele>1693.6205</ele>
        <time>2021-07-18T16:43:26</time>
      </trkpt>
      <trkpt lat="45.34304" lon="6.16">
        <ele>1693.6205</ele>
        <time>2021-07-18T16:43:28</time>
      </trkpt>
      <trkpt lat="45.34305" lon="6.15996">
        <ele>1693.6205</ele>
        <time>2021-07-18T16:43:34</time>
      </trkpt>
      <trkpt lat="45.34306" lon="6.15995">
        <ele>1693.6205</ele>
        <time>2021-07-18T16:43:35</time>
      </trkpt>
      <trkpt lat="45.34307" lon="6.15994">
        <ele>1693.5204</ele>
        <time>2021-07-18T16:43:36</time>
      </trkpt>
      <trkpt lat="45.34314" lon="6.15988">
        <ele>1688.6205</ele>
        <time>2021-07-18T16:43:48</time>
      </trkpt>
      <trkpt lat="45.34314" lon="6.15988">
        <ele>1688.6205</ele>
        <time>2021-07-18T16:43:49</time>
      </trkpt>
      <trkpt lat="45.34315" lon="6.15986">
        <ele>1688.6205</ele>
        <time>2021-07-18T16:43:51</time>
      </trkpt>
      <trkpt lat="45.34316" lon="6.15984">
        <ele>1688.6205</ele>
        <time>2021-07-18T16:43:55</time>
      </trkpt>
      <trkpt lat="45.34316" lon="6.15984">
        <ele>1684.4204</ele>
        <time>2021-07-18T16:43:57</time>
      </trkpt>
      <trkpt lat="45.34322" lon="6.15978">
        <ele>1685.9204</ele>
        <time>2021-07-18T16:44:06</time>
      </trkpt>
      <trkpt lat="45.34322" lon="6.15977">
        <ele>1685.9204</ele>
        <time>2021-07-18T16:44:07</time>
      </trkpt>
      <trkpt lat="45.34323" lon="6.15976">
        <ele>1685.9204</ele>
        <time>2021-07-18T16:44:08</time>
      </trkpt>
      <trkpt lat="45.34324" lon="6.15974">
        <ele>1685.9204</ele>
        <time>2021-07-18T16:44:10</time>
      </trkpt>
      <trkpt lat="45.34331" lon="6.1597">
        <ele>1686.4204</ele>
        <time>2021-07-18T16:44:18</time>
      </trkpt>
      <trkpt lat="45.34332" lon="6.15969">
        <ele>1686.4204</ele>
        <time>2021-07-18T16:44:19</time>
      </trkpt>
      <trkpt lat="45.34333" lon="6.15969">
        <ele>1686.4204</ele>
        <time>2021-07-18T16:44:20</time>
      </trkpt>
      <trkpt lat="45.34336" lon="6.15966">
        <ele>1686.4204</ele>
        <time>2021-07-18T16:44:23</time>
      </trkpt>
      <trkpt lat="45.34338" lon="6.15965">
        <ele>1686.4204</ele>
        <time>2021-07-18T16:44:25</time>
      </trkpt>
      <trkpt lat="45.34342" lon="6.15964">
        <ele>1685.4204</ele>
        <time>2021-07-18T16:44:31</time>
      </trkpt>
      <trkpt lat="45.34343" lon="6.15963">
        <ele>1685.4204</ele>
        <time>2021-07-18T16:44:32</time>
      </trkpt>
      <trkpt lat="45.34344" lon="6.15962">
        <ele>1685.4204</ele>
        <time>2021-07-18T16:44:33</time>
      </trkpt>
      <trkpt lat="45.34346" lon="6.15961">
        <ele>1685.4204</ele>
        <time>2021-07-18T16:44:35</time>
      </trkpt>
      <trkpt lat="45.34346" lon="6.15961">
        <ele>1682.4204</ele>
        <time>2021-07-18T16:44:36</time>
      </trkpt>
      <trkpt lat="45.34347" lon="6.1596">
        <ele>1682.4204</ele>
        <time>2021-07-18T16:44:37</time>
      </trkpt>
      <trkpt lat="45.34352" lon="6.15953">
        <ele>1679.1205</ele>
        <time>2021-07-18T16:44:46</time>
      </trkpt>
      <trkpt lat="45.34354" lon="6.15953">
        <ele>1679.1205</ele>
        <time>2021-07-18T16:44:48</time>
      </trkpt>
      <trkpt lat="45.34358" lon="6.1595">
        <ele>1679.1205</ele>
        <time>2021-07-18T16:44:55</time>
      </trkpt>
      <trkpt lat="45.34359" lon="6.15949">
        <ele>1679.0204</ele>
        <time>2021-07-18T16:44:56</time>
      </trkpt>
      <trkpt lat="45.34361" lon="6.15948">
        <ele>1679.0204</ele>
        <time>2021-07-18T16:44:59</time>
      </trkpt>
      <trkpt lat="45.34361" lon="6.15948">
        <ele>1679.0204</ele>
        <time>2021-07-18T16:45:03</time>
      </trkpt>
      <trkpt lat="45.34362" lon="6.15947">
        <ele>1679.0204</ele>
        <time>2021-07-18T16:45:04</time>
      </trkpt>
      <trkpt lat="45.34362" lon="6.15946">
        <ele>1679.0204</ele>
        <time>2021-07-18T16:45:05</time>
      </trkpt>
      <trkpt lat="45.34363" lon="6.15946">
        <ele>1674.0204</ele>
        <time>2021-07-18T16:45:06</time>
      </trkpt>
      <trkpt lat="45.34364" lon="6.15945">
        <ele>1674.0204</ele>
        <time>2021-07-18T16:45:08</time>
      </trkpt>
      <trkpt lat="45.34364" lon="6.15944">
        <ele>1674.0204</ele>
        <time>2021-07-18T16:45:10</time>
      </trkpt>
      <trkpt lat="45.34364" lon="6.15943">
        <ele>1674.0204</ele>
        <time>2021-07-18T16:45:12</time>
      </trkpt>
      <trkpt lat="45.34367" lon="6.15942">
        <ele>1672.5204</ele>
        <time>2021-07-18T16:45:16</time>
      </trkpt>
      <trkpt lat="45.34367" lon="6.15942">
        <ele>1672.5204</ele>
        <time>2021-07-18T16:45:20</time>
      </trkpt>
      <trkpt lat="45.34368" lon="6.15941">
        <ele>1672.5204</ele>
        <time>2021-07-18T16:45:21</time>
      </trkpt>
      <trkpt lat="45.34371" lon="6.15936">
        <ele>1674.9204</ele>
        <time>2021-07-18T16:45:28</time>
      </trkpt>
      <trkpt lat="45.34378" lon="6.15926">
        <ele>1674.8204</ele>
        <time>2021-07-18T16:45:38</time>
      </trkpt>
      <trkpt lat="45.3438" lon="6.15923">
        <ele>1674.8204</ele>
        <time>2021-07-18T16:45:41</time>
      </trkpt>
      <trkpt lat="45.34381" lon="6.15921">
        <ele>1674.8204</ele>
        <time>2021-07-18T16:45:43</time>
      </trkpt>
      <trkpt lat="45.34385" lon="6.15914">
        <ele>1669.3204</ele>
        <time>2021-07-18T16:45:51</time>
      </trkpt>
      <trkpt lat="45.34385" lon="6.15913">
        <ele>1669.3204</ele>
        <time>2021-07-18T16:45:52</time>
      </trkpt>
      <trkpt lat="45.34386" lon="6.15912">
        <ele>1669.3204</ele>
        <time>2021-07-18T16:45:53</time>
      </trkpt>
      <trkpt lat="45.34387" lon="6.1591">
        <ele>1669.3204</ele>
        <time>2021-07-18T16:45:55</time>
      </trkpt>
      <trkpt lat="45.34388" lon="6.1591">
        <ele>1665.6205</ele>
        <time>2021-07-18T16:45:56</time>
      </trkpt>
      <trkpt lat="45.34391" lon="6.15907">
        <ele>1665.6205</ele>
        <time>2021-07-18T16:46:00</time>
      </trkpt>
      <trkpt lat="45.34394" lon="6.15904">
        <ele>1660.4204</ele>
        <time>2021-07-18T16:46:08</time>
      </trkpt>
      <trkpt lat="45.34393" lon="6.15899">
        <ele>1660.4204</ele>
        <time>2021-07-18T16:46:14</time>
      </trkpt>
      <trkpt lat="45.34396" lon="6.15892">
        <ele>1661.3538</ele>
        <time>2021-07-18T16:46:21</time>
      </trkpt>
      <trkpt lat="45.34396" lon="6.1589">
        <ele>1661.3538</ele>
        <time>2021-07-18T16:46:22</time>
      </trkpt>
      <trkpt lat="45.34397" lon="6.15885">
        <ele>1661.9204</ele>
        <time>2021-07-18T16:46:26</time>
      </trkpt>
      <trkpt lat="45.34397" lon="6.15884">
        <ele>1661.9204</ele>
        <time>2021-07-18T16:46:28</time>
      </trkpt>
      <trkpt lat="45.34396" lon="6.15878">
        <ele>1661.9204</ele>
        <time>2021-07-18T16:46:34</time>
      </trkpt>
      <trkpt lat="45.34395" lon="6.15871">
        <ele>1659.5204</ele>
        <time>2021-07-18T16:46:41</time>
      </trkpt>
      <trkpt lat="45.34395" lon="6.15867">
        <ele>1658.7205</ele>
        <time>2021-07-18T16:46:46</time>
      </trkpt>
      <trkpt lat="45.344" lon="6.15866">
        <ele>1658.7205</ele>
        <time>2021-07-18T16:46:55</time>
      </trkpt>
      <trkpt lat="45.34401" lon="6.15862">
        <ele>1659.6538</ele>
        <time>2021-07-18T16:47:00</time>
      </trkpt>
      <trkpt lat="45.34401" lon="6.15858">
        <ele>1659.6538</ele>
        <time>2021-07-18T16:47:03</time>
      </trkpt>
      <trkpt lat="45.34401" lon="6.15858">
        <ele>1659.6538</ele>
        <time>2021-07-18T16:47:04</time>
      </trkpt>
      <trkpt lat="45.34404" lon="6.15854">
        <ele>1659.0204</ele>
        <time>2021-07-18T16:47:08</time>
      </trkpt>
      <trkpt lat="45.34405" lon="6.15853">
        <ele>1659.0204</ele>
        <time>2021-07-18T16:47:10</time>
      </trkpt>
      <trkpt lat="45.34406" lon="6.15853">
        <ele>1663.6205</ele>
        <time>2021-07-18T16:47:25</time>
      </trkpt>
      <trkpt lat="45.34406" lon="6.15852">
        <ele>1662.0204</ele>
        <time>2021-07-18T16:47:26</time>
      </trkpt>
      <trkpt lat="45.34406" lon="6.1585">
        <ele>1662.0204</ele>
        <time>2021-07-18T16:47:32</time>
      </trkpt>
      <trkpt lat="45.34409" lon="6.15848">
        <ele>1662.0204</ele>
        <time>2021-07-18T16:47:35</time>
      </trkpt>
      <trkpt lat="45.34411" lon="6.15844">
        <ele>1661.5204</ele>
        <time>2021-07-18T16:47:40</time>
      </trkpt>
      <trkpt lat="45.34412" lon="6.15844">
        <ele>1661.5204</ele>
        <time>2021-07-18T16:47:42</time>
      </trkpt>
      <trkpt lat="45.34416" lon="6.15841">
        <ele>1656.0204</ele>
        <time>2021-07-18T16:47:48</time>
      </trkpt>
      <trkpt lat="45.34418" lon="6.1584">
        <ele>1656.0204</ele>
        <time>2021-07-18T16:47:50</time>
      </trkpt>
      <trkpt lat="45.34419" lon="6.1584">
        <ele>1656.0204</ele>
        <time>2021-07-18T16:47:51</time>
      </trkpt>
      <trkpt lat="45.3442" lon="6.15841">
        <ele>1656.0204</ele>
        <time>2021-07-18T16:47:52</time>
      </trkpt>
      <trkpt lat="45.34425" lon="6.15847">
        <ele>1650.1205</ele>
        <time>2021-07-18T16:48:27</time>
      </trkpt>
      <trkpt lat="45.34425" lon="6.15846">
        <ele>1647.9204</ele>
        <time>2021-07-18T16:49:18</time>
      </trkpt>
      <trkpt lat="45.34425" lon="6.15846">
        <ele>1646.4204</ele>
        <time>2021-07-18T16:49:34</time>
      </trkpt>
      <trkpt lat="45.34425" lon="6.15845">
        <ele>1646.4204</ele>
        <time>2021-07-18T16:49:35</time>
      </trkpt>
      <trkpt lat="45.34425" lon="6.15843">
        <ele>1646.4204</ele>
        <time>2021-07-18T16:49:38</time>
      </trkpt>
      <trkpt lat="45.34425" lon="6.15841">
        <ele>1646.4204</ele>
        <time>2021-07-18T16:49:41</time>
      </trkpt>
      <trkpt lat="45.34426" lon="6.1584">
        <ele>1646.4204</ele>
        <time>2021-07-18T16:49:42</time>
      </trkpt>
      <trkpt lat="45.34426" lon="6.15841">
        <ele>1646.4204</ele>
        <time>2021-07-18T16:49:43</time>
      </trkpt>
      <trkpt lat="45.34426" lon="6.1584">
        <ele>1646.4204</ele>
        <time>2021-07-18T16:49:45</time>
      </trkpt>
      <trkpt lat="45.34427" lon="6.1584">
        <ele>1645.7538</ele>
        <time>2021-07-18T16:49:46</time>
      </trkpt>
      <trkpt lat="45.34428" lon="6.15839">
        <ele>1645.0204</ele>
        <time>2021-07-18T16:49:57</time>
      </trkpt>
      <trkpt lat="45.34428" lon="6.15839">
        <ele>1645.0204</ele>
        <time>2021-07-18T16:49:58</time>
      </trkpt>
      <trkpt lat="45.34429" lon="6.15839">
        <ele>1645.0204</ele>
        <time>2021-07-18T16:49:59</time>
      </trkpt>
      <trkpt lat="45.34429" lon="6.15839">
        <ele>1645.0204</ele>
        <time>2021-07-18T16:50:00</time>
      </trkpt>
      <trkpt lat="45.3443" lon="6.15839">
        <ele>1645.0204</ele>
        <time>2021-07-18T16:50:01</time>
      </trkpt>
      <trkpt lat="45.3443" lon="6.15839">
        <ele>1645.0204</ele>
        <time>2021-07-18T16:50:03</time>
      </trkpt>
      <trkpt lat="45.3443" lon="6.15839">
        <ele>1647.9204</ele>
        <time>2021-07-18T16:50:07</time>
      </trkpt>
      <trkpt lat="45.34429" lon="6.15837">
        <ele>1647.9204</ele>
        <time>2021-07-18T16:50:08</time>
      </trkpt>
      <trkpt lat="45.34429" lon="6.15836">
        <ele>1647.9204</ele>
        <time>2021-07-18T16:50:09</time>
      </trkpt>
      <trkpt lat="45.34429" lon="6.15835">
        <ele>1647.9204</ele>
        <time>2021-07-18T16:50:10</time>
      </trkpt>
      <trkpt lat="45.34429" lon="6.15834">
        <ele>1647.9204</ele>
        <time>2021-07-18T16:50:11</time>
      </trkpt>
      <trkpt lat="45.34429" lon="6.15834">
        <ele>1647.9204</ele>
        <time>2021-07-18T16:50:12</time>
      </trkpt>
      <trkpt lat="45.34429" lon="6.15833">
        <ele>1647.9204</ele>
        <time>2021-07-18T16:50:13</time>
      </trkpt>
      <trkpt lat="45.3443" lon="6.15829">
        <ele>1645.4204</ele>
        <time>2021-07-18T16:50:21</time>
      </trkpt>
      <trkpt lat="45.3443" lon="6.15829">
        <ele>1645.4204</ele>
        <time>2021-07-18T16:50:22</time>
      </trkpt>
      <trkpt lat="45.3443" lon="6.15829">
        <ele>1645.4204</ele>
        <time>2021-07-18T16:50:23</time>
      </trkpt>
      <trkpt lat="45.3443" lon="6.15827">
        <ele>1647.1205</ele>
        <time>2021-07-18T16:50:27</time>
      </trkpt>
      <trkpt lat="45.3443" lon="6.15826">
        <ele>1647.1205</ele>
        <time>2021-07-18T16:50:28</time>
      </trkpt>
      <trkpt lat="45.34429" lon="6.15824">
        <ele>1647.1205</ele>
        <time>2021-07-18T16:50:30</time>
      </trkpt>
      <trkpt lat="45.3443" lon="6.15824">
        <ele>1647.1205</ele>
        <time>2021-07-18T16:50:32</time>
      </trkpt>
      <trkpt lat="45.3443" lon="6.15823">
        <ele>1647.1205</ele>
        <time>2021-07-18T16:50:33</time>
      </trkpt>
      <trkpt lat="45.3443" lon="6.15822">
        <ele>1647.1205</ele>
        <time>2021-07-18T16:50:34</time>
      </trkpt>
      <trkpt lat="45.3443" lon="6.1582">
        <ele>1643.9204</ele>
        <time>2021-07-18T16:50:37</time>
      </trkpt>
      <trkpt lat="45.3443" lon="6.1582">
        <ele>1643.9204</ele>
        <time>2021-07-18T16:50:39</time>
      </trkpt>
      <trkpt lat="45.34431" lon="6.15819">
        <ele>1643.9204</ele>
        <time>2021-07-18T16:50:41</time>
      </trkpt>
      <trkpt lat="45.34432" lon="6.15818">
        <ele>1643.9204</ele>
        <time>2021-07-18T16:50:43</time>
      </trkpt>
      <trkpt lat="45.34433" lon="6.15818">
        <ele>1643.9204</ele>
        <time>2021-07-18T16:50:44</time>
      </trkpt>
      <trkpt lat="45.34437" lon="6.15817">
        <ele>1643.2205</ele>
        <time>2021-07-18T16:50:50</time>
      </trkpt>
      <trkpt lat="45.34439" lon="6.15817">
        <ele>1643.2205</ele>
        <time>2021-07-18T16:50:54</time>
      </trkpt>
      <trkpt lat="45.3444" lon="6.15818">
        <ele>1641.1205</ele>
        <time>2021-07-18T16:50:56</time>
      </trkpt>
      <trkpt lat="45.3444" lon="6.15818">
        <ele>1641.1205</ele>
        <time>2021-07-18T16:50:57</time>
      </trkpt>
      <trkpt lat="45.3444" lon="6.15818">
        <ele>1641.1205</ele>
        <time>2021-07-18T16:50:58</time>
      </trkpt>
      <trkpt lat="45.34442" lon="6.15818">
        <ele>1641.1205</ele>
        <time>2021-07-18T16:51:04</time>
      </trkpt>
      <trkpt lat="45.3445" lon="6.15815">
        <ele>1640.9204</ele>
        <time>2021-07-18T16:51:19</time>
      </trkpt>
      <trkpt lat="45.34452" lon="6.15812">
        <ele>1640.9204</ele>
        <time>2021-07-18T16:51:24</time>
      </trkpt>
      <trkpt lat="45.34453" lon="6.15805">
        <ele>1642.8204</ele>
        <time>2021-07-18T16:51:33</time>
      </trkpt>
      <trkpt lat="45.34453" lon="6.15803">
        <ele>1639.5204</ele>
        <time>2021-07-18T16:51:36</time>
      </trkpt>
      <trkpt lat="45.34453" lon="6.15801">
        <ele>1639.5204</ele>
        <time>2021-07-18T16:51:38</time>
      </trkpt>
      <trkpt lat="45.34454" lon="6.15801">
        <ele>1639.5204</ele>
        <time>2021-07-18T16:51:39</time>
      </trkpt>
      <trkpt lat="45.34454" lon="6.15801">
        <ele>1639.5204</ele>
        <time>2021-07-18T16:51:40</time>
      </trkpt>
      <trkpt lat="45.34453" lon="6.15798">
        <ele>1636.2205</ele>
        <time>2021-07-18T16:51:46</time>
      </trkpt>
      <trkpt lat="45.34453" lon="6.15798">
        <ele>1636.2205</ele>
        <time>2021-07-18T16:51:47</time>
      </trkpt>
      <trkpt lat="45.34453" lon="6.15799">
        <ele>1636.2205</ele>
        <time>2021-07-18T16:51:48</time>
      </trkpt>
      <trkpt lat="45.34454" lon="6.15799">
        <ele>1636.2205</ele>
        <time>2021-07-18T16:51:50</time>
      </trkpt>
      <trkpt lat="45.34455" lon="6.15798">
        <ele>1636.2205</ele>
        <time>2021-07-18T16:51:51</time>
      </trkpt>
      <trkpt lat="45.34461" lon="6.15794">
        <ele>1631.0204</ele>
        <time>2021-07-18T16:52:01</time>
      </trkpt>
      <trkpt lat="45.34461" lon="6.15793">
        <ele>1631.0204</ele>
        <time>2021-07-18T16:52:02</time>
      </trkpt>
      <trkpt lat="45.34463" lon="6.15791">
        <ele>1631.0204</ele>
        <time>2021-07-18T16:52:05</time>
      </trkpt>
      <trkpt lat="45.3447" lon="6.15783">
        <ele>1626.5204</ele>
        <time>2021-07-18T16:52:26</time>
      </trkpt>
      <trkpt lat="45.34471" lon="6.15782">
        <ele>1626.5204</ele>
        <time>2021-07-18T16:52:27</time>
      </trkpt>
      <trkpt lat="45.34472" lon="6.15781">
        <ele>1626.5204</ele>
        <time>2021-07-18T16:52:29</time>
      </trkpt>
      <trkpt lat="45.34473" lon="6.15781">
        <ele>1626.5204</ele>
        <time>2021-07-18T16:52:30</time>
      </trkpt>
      <trkpt lat="45.34474" lon="6.1578">
        <ele>1626.5204</ele>
        <time>2021-07-18T16:52:32</time>
      </trkpt>
      <trkpt lat="45.34474" lon="6.1578">
        <ele>1626.5204</ele>
        <time>2021-07-18T16:52:33</time>
      </trkpt>
      <trkpt lat="45.34475" lon="6.15778">
        <ele>1626.5204</ele>
        <time>2021-07-18T16:52:34</time>
      </trkpt>
      <trkpt lat="45.34475" lon="6.15776">
        <ele>1626.1205</ele>
        <time>2021-07-18T16:52:37</time>
      </trkpt>
      <trkpt lat="45.34476" lon="6.15776">
        <ele>1626.1205</ele>
        <time>2021-07-18T16:52:42</time>
      </trkpt>
      <trkpt lat="45.34477" lon="6.15776">
        <ele>1626.1205</ele>
        <time>2021-07-18T16:52:43</time>
      </trkpt>
      <trkpt lat="45.34477" lon="6.15776">
        <ele>1626.1205</ele>
        <time>2021-07-18T16:52:45</time>
      </trkpt>
      <trkpt lat="45.34477" lon="6.15775">
        <ele>1628.2205</ele>
        <time>2021-07-18T16:52:46</time>
      </trkpt>
      <trkpt lat="45.34478" lon="6.15776">
        <ele>1628.2205</ele>
        <time>2021-07-18T16:52:49</time>
      </trkpt>
      <trkpt lat="45.34479" lon="6.15775">
        <ele>1628.2205</ele>
        <time>2021-07-18T16:52:50</time>
      </trkpt>
      <trkpt lat="45.34483" lon="6.15774">
        <ele>1625.8204</ele>
        <time>2021-07-18T16:52:58</time>
      </trkpt>
      <trkpt lat="45.34483" lon="6.15774">
        <ele>1625.8204</ele>
        <time>2021-07-18T16:52:59</time>
      </trkpt>
      <trkpt lat="45.34484" lon="6.15775">
        <ele>1625.8204</ele>
        <time>2021-07-18T16:53:01</time>
      </trkpt>
      <trkpt lat="45.34485" lon="6.15774">
        <ele>1625.8204</ele>
        <time>2021-07-18T16:53:02</time>
      </trkpt>
      <trkpt lat="45.34487" lon="6.15775">
        <ele>1625.8204</ele>
        <time>2021-07-18T16:53:05</time>
      </trkpt>
      <trkpt lat="45.34487" lon="6.15774">
        <ele>1622.6205</ele>
        <time>2021-07-18T16:53:07</time>
      </trkpt>
      <trkpt lat="45.34488" lon="6.15774">
        <ele>1622.6205</ele>
        <time>2021-07-18T16:53:08</time>
      </trkpt>
      <trkpt lat="45.34489" lon="6.15773">
        <ele>1622.6205</ele>
        <time>2021-07-18T16:53:10</time>
      </trkpt>
      <trkpt lat="45.34489" lon="6.15773">
        <ele>1622.6205</ele>
        <time>2021-07-18T16:53:11</time>
      </trkpt>
      <trkpt lat="45.3449" lon="6.15772">
        <ele>1622.6205</ele>
        <time>2021-07-18T16:53:14</time>
      </trkpt>
      <trkpt lat="45.3449" lon="6.15772">
        <ele>1618.5204</ele>
        <time>2021-07-18T16:53:18</time>
      </trkpt>
      <trkpt lat="45.3449" lon="6.15772">
        <ele>1618.5204</ele>
        <time>2021-07-18T16:53:19</time>
      </trkpt>
      <trkpt lat="45.3449" lon="6.15772">
        <ele>1618.5204</ele>
        <time>2021-07-18T16:53:22</time>
      </trkpt>
      <trkpt lat="45.34491" lon="6.15773">
        <ele>1618.5204</ele>
        <time>2021-07-18T16:53:23</time>
      </trkpt>
      <trkpt lat="45.34491" lon="6.15773">
        <ele>1618.5204</ele>
        <time>2021-07-18T16:53:24</time>
      </trkpt>
      <trkpt lat="45.34492" lon="6.15773">
        <ele>1618.5204</ele>
        <time>2021-07-18T16:53:25</time>
      </trkpt>
      <trkpt lat="45.34497" lon="6.15771">
        <ele>1624.4204</ele>
        <time>2021-07-18T16:53:33</time>
      </trkpt>
      <trkpt lat="45.34497" lon="6.15771">
        <ele>1624.4204</ele>
        <time>2021-07-18T16:53:34</time>
      </trkpt>
      <trkpt lat="45.345" lon="6.1577">
        <ele>1622.0204</ele>
        <time>2021-07-18T16:53:40</time>
      </trkpt>
      <trkpt lat="45.34501" lon="6.1577">
        <ele>1622.0204</ele>
        <time>2021-07-18T16:53:41</time>
      </trkpt>
      <trkpt lat="45.34501" lon="6.1577">
        <ele>1622.0204</ele>
        <time>2021-07-18T16:53:42</time>
      </trkpt>
      <trkpt lat="45.34501" lon="6.15768">
        <ele>1622.0204</ele>
        <time>2021-07-18T16:53:44</time>
      </trkpt>
      <trkpt lat="45.34501" lon="6.15767">
        <ele>1622.0204</ele>
        <time>2021-07-18T16:53:45</time>
      </trkpt>
      <trkpt lat="45.34502" lon="6.15767">
        <ele>1619.8204</ele>
        <time>2021-07-18T16:53:57</time>
      </trkpt>
      <trkpt lat="45.34502" lon="6.15767">
        <ele>1619.8204</ele>
        <time>2021-07-18T16:53:58</time>
      </trkpt>
      <trkpt lat="45.34503" lon="6.15767">
        <ele>1619.8204</ele>
        <time>2021-07-18T16:53:59</time>
      </trkpt>
      <trkpt lat="45.34505" lon="6.1577">
        <ele>1619.8204</ele>
        <time>2021-07-18T16:54:02</time>
      </trkpt>
      <trkpt lat="45.34506" lon="6.1577">
        <ele>1619.8204</ele>
        <time>2021-07-18T16:54:04</time>
      </trkpt>
      <trkpt lat="45.34506" lon="6.1577">
        <ele>1619.8204</ele>
        <time>2021-07-18T16:54:05</time>
      </trkpt>
      <trkpt lat="45.34512" lon="6.15767">
        <ele>1619.9204</ele>
        <time>2021-07-18T16:54:13</time>
      </trkpt>
      <trkpt lat="45.34512" lon="6.15767">
        <ele>1619.9204</ele>
        <time>2021-07-18T16:54:15</time>
      </trkpt>
      <trkpt lat="45.34514" lon="6.15768">
        <ele>1616.2205</ele>
        <time>2021-07-18T16:54:18</time>
      </trkpt>
      <trkpt lat="45.34515" lon="6.1577">
        <ele>1616.2205</ele>
        <time>2021-07-18T16:54:21</time>
      </trkpt>
      <trkpt lat="45.34516" lon="6.15771">
        <ele>1616.2205</ele>
        <time>2021-07-18T16:54:23</time>
      </trkpt>
      <trkpt lat="45.34517" lon="6.15772">
        <ele>1616.2205</ele>
        <time>2021-07-18T16:54:24</time>
      </trkpt>
      <trkpt lat="45.34517" lon="6.15772">
        <ele>1616.2205</ele>
        <time>2021-07-18T16:54:25</time>
      </trkpt>
      <trkpt lat="45.34517" lon="6.15773">
        <ele>1612.9204</ele>
        <time>2021-07-18T16:54:26</time>
      </trkpt>
      <trkpt lat="45.3452" lon="6.15774">
        <ele>1612.9204</ele>
        <time>2021-07-18T16:54:29</time>
      </trkpt>
      <trkpt lat="45.34525" lon="6.15768">
        <ele>1613.1205</ele>
        <time>2021-07-18T16:54:41</time>
      </trkpt>
      <trkpt lat="45.34526" lon="6.15767">
        <ele>1613.1205</ele>
        <time>2021-07-18T16:54:42</time>
      </trkpt>
      <trkpt lat="45.34526" lon="6.15767">
        <ele>1613.1205</ele>
        <time>2021-07-18T16:54:43</time>
      </trkpt>
      <trkpt lat="45.34528" lon="6.1577">
        <ele>1610.3538</ele>
        <time>2021-07-18T16:54:47</time>
      </trkpt>
      <trkpt lat="45.34529" lon="6.15777">
        <ele>1610.3538</ele>
        <time>2021-07-18T16:54:55</time>
      </trkpt>
      <trkpt lat="45.34534" lon="6.15773">
        <ele>1610.1205</ele>
        <time>2021-07-18T16:55:05</time>
      </trkpt>
      <trkpt lat="45.34535" lon="6.15773">
        <ele>1606.8204</ele>
        <time>2021-07-18T16:55:07</time>
      </trkpt>
      <trkpt lat="45.34535" lon="6.15774">
        <ele>1606.8204</ele>
        <time>2021-07-18T16:55:10</time>
      </trkpt>
      <trkpt lat="45.34536" lon="6.15777">
        <ele>1606.8204</ele>
        <time>2021-07-18T16:55:12</time>
      </trkpt>
      <trkpt lat="45.34536" lon="6.15778">
        <ele>1606.8204</ele>
        <time>2021-07-18T16:55:13</time>
      </trkpt>
      <trkpt lat="45.34535" lon="6.15779">
        <ele>1606.8204</ele>
        <time>2021-07-18T16:55:14</time>
      </trkpt>
      <trkpt lat="45.34535" lon="6.15779">
        <ele>1603.1205</ele>
        <time>2021-07-18T16:55:17</time>
      </trkpt>
      <trkpt lat="45.34536" lon="6.15779">
        <ele>1603.1205</ele>
        <time>2021-07-18T16:55:18</time>
      </trkpt>
      <trkpt lat="45.34536" lon="6.15779">
        <ele>1603.1205</ele>
        <time>2021-07-18T16:55:20</time>
      </trkpt>
      <trkpt lat="45.34537" lon="6.15777">
        <ele>1603.1205</ele>
        <time>2021-07-18T16:55:23</time>
      </trkpt>
      <trkpt lat="45.34538" lon="6.1577">
        <ele>1600.5204</ele>
        <time>2021-07-18T16:55:32</time>
      </trkpt>
      <trkpt lat="45.34538" lon="6.15768">
        <ele>1600.5204</ele>
        <time>2021-07-18T16:55:33</time>
      </trkpt>
      <trkpt lat="45.34539" lon="6.15766">
        <ele>1600.5204</ele>
        <time>2021-07-18T16:55:35</time>
      </trkpt>
      <trkpt lat="45.34539" lon="6.15764">
        <ele>1596.1205</ele>
        <time>2021-07-18T16:55:36</time>
      </trkpt>
      <trkpt lat="45.34541" lon="6.15762">
        <ele>1596.1205</ele>
        <time>2021-07-18T16:55:40</time>
      </trkpt>
      <trkpt lat="45.34541" lon="6.15762">
        <ele>1596.1205</ele>
        <time>2021-07-18T16:55:41</time>
      </trkpt>
      <trkpt lat="45.34541" lon="6.15762">
        <ele>1596.1205</ele>
        <time>2021-07-18T16:55:44</time>
      </trkpt>
      <trkpt lat="45.34542" lon="6.15762">
        <ele>1596.1205</ele>
        <time>2021-07-18T16:55:45</time>
      </trkpt>
      <trkpt lat="45.34542" lon="6.15762">
        <ele>1592.9204</ele>
        <time>2021-07-18T16:55:46</time>
      </trkpt>
      <trkpt lat="45.34542" lon="6.15762">
        <ele>1592.9204</ele>
        <time>2021-07-18T16:55:47</time>
      </trkpt>
      <trkpt lat="45.34542" lon="6.15762">
        <ele>1596.2205</ele>
        <time>2021-07-18T16:56:05</time>
      </trkpt>
      <trkpt lat="45.34542" lon="6.15761">
        <ele>1597.9204</ele>
        <time>2021-07-18T16:56:06</time>
      </trkpt>
      <trkpt lat="45.34542" lon="6.15761">
        <ele>1597.9204</ele>
        <time>2021-07-18T16:56:09</time>
      </trkpt>
      <trkpt lat="45.34543" lon="6.15763">
        <ele>1597.9204</ele>
        <time>2021-07-18T16:56:11</time>
      </trkpt>
      <trkpt lat="45.34543" lon="6.15764">
        <ele>1597.9204</ele>
        <time>2021-07-18T16:56:13</time>
      </trkpt>
      <trkpt lat="45.34543" lon="6.15765">
        <ele>1597.9204</ele>
        <time>2021-07-18T16:56:14</time>
      </trkpt>
      <trkpt lat="45.34544" lon="6.15766">
        <ele>1598.4204</ele>
        <time>2021-07-18T16:56:25</time>
      </trkpt>
      <trkpt lat="45.34544" lon="6.15766">
        <ele>1599.1205</ele>
        <time>2021-07-18T16:56:26</time>
      </trkpt>
      <trkpt lat="45.34545" lon="6.15768">
        <ele>1599.1205</ele>
        <time>2021-07-18T16:56:32</time>
      </trkpt>
      <trkpt lat="45.34544" lon="6.1577">
        <ele>1599.1205</ele>
        <time>2021-07-18T16:56:34</time>
      </trkpt>
      <trkpt lat="45.34544" lon="6.15771">
        <ele>1599.1205</ele>
        <time>2021-07-18T16:56:35</time>
      </trkpt>
      <trkpt lat="45.34544" lon="6.15772">
        <ele>1600.3204</ele>
        <time>2021-07-18T16:56:36</time>
      </trkpt>
      <trkpt lat="45.34544" lon="6.15772">
        <ele>1600.3204</ele>
        <time>2021-07-18T16:56:37</time>
      </trkpt>
      <trkpt lat="45.34545" lon="6.15773">
        <ele>1600.3204</ele>
        <time>2021-07-18T16:56:38</time>
      </trkpt>
      <trkpt lat="45.34545" lon="6.15773">
        <ele>1600.3204</ele>
        <time>2021-07-18T16:56:39</time>
      </trkpt>
      <trkpt lat="45.34546" lon="6.15772">
        <ele>1600.3204</ele>
        <time>2021-07-18T16:56:43</time>
      </trkpt>
      <trkpt lat="45.34547" lon="6.15772">
        <ele>1599.2205</ele>
        <time>2021-07-18T16:56:46</time>
      </trkpt>
      <trkpt lat="45.34548" lon="6.15771">
        <ele>1599.2205</ele>
        <time>2021-07-18T16:56:47</time>
      </trkpt>
      <trkpt lat="45.34549" lon="6.15772">
        <ele>1599.2205</ele>
        <time>2021-07-18T16:56:52</time>
      </trkpt>
      <trkpt lat="45.34549" lon="6.15772">
        <ele>1599.2205</ele>
        <time>2021-07-18T16:56:53</time>
      </trkpt>
      <trkpt lat="45.34549" lon="6.15772">
        <ele>1597.0204</ele>
        <time>2021-07-18T16:56:57</time>
      </trkpt>
      <trkpt lat="45.34551" lon="6.15772">
        <ele>1597.0204</ele>
        <time>2021-07-18T16:56:59</time>
      </trkpt>
      <trkpt lat="45.34553" lon="6.15775">
        <ele>1597.0204</ele>
        <time>2021-07-18T16:57:02</time>
      </trkpt>
      <trkpt lat="45.34554" lon="6.15776">
        <ele>1597.0204</ele>
        <time>2021-07-18T16:57:04</time>
      </trkpt>
      <trkpt lat="45.34555" lon="6.15778">
        <ele>1597.1205</ele>
        <time>2021-07-18T16:57:06</time>
      </trkpt>
      <trkpt lat="45.34556" lon="6.15779">
        <ele>1597.1205</ele>
        <time>2021-07-18T16:57:08</time>
      </trkpt>
      <trkpt lat="45.34557" lon="6.15781">
        <ele>1597.1205</ele>
        <time>2021-07-18T16:57:10</time>
      </trkpt>
      <trkpt lat="45.34556" lon="6.1578">
        <ele>1589.1205</ele>
        <time>2021-07-18T16:57:32</time>
      </trkpt>
      <trkpt lat="45.34556" lon="6.15781">
        <ele>1589.1205</ele>
        <time>2021-07-18T16:57:33</time>
      </trkpt>
      <trkpt lat="45.34557" lon="6.15781">
        <ele>1590.3204</ele>
        <time>2021-07-18T16:57:36</time>
      </trkpt>
      <trkpt lat="45.34558" lon="6.1578">
        <ele>1592.3204</ele>
        <time>2021-07-18T16:57:47</time>
      </trkpt>
      <trkpt lat="45.34558" lon="6.1578">
        <ele>1592.3204</ele>
        <time>2021-07-18T16:57:48</time>
      </trkpt>
      <trkpt lat="45.3456" lon="6.1578">
        <ele>1593.6205</ele>
        <time>2021-07-18T16:57:58</time>
      </trkpt>
      <trkpt lat="45.3456" lon="6.15781">
        <ele>1593.6205</ele>
        <time>2021-07-18T16:57:59</time>
      </trkpt>
      <trkpt lat="45.34563" lon="6.1578">
        <ele>1593.6205</ele>
        <time>2021-07-18T16:58:02</time>
      </trkpt>
      <trkpt lat="45.34567" lon="6.1578">
        <ele>1592.3204</ele>
        <time>2021-07-18T16:58:06</time>
      </trkpt>
      <trkpt lat="45.34568" lon="6.15781">
        <ele>1592.3204</ele>
        <time>2021-07-18T16:58:10</time>
      </trkpt>
      <trkpt lat="45.3457" lon="6.15785">
        <ele>1592.3204</ele>
        <time>2021-07-18T16:58:13</time>
      </trkpt>
      <trkpt lat="45.34571" lon="6.15787">
        <ele>1592.3204</ele>
        <time>2021-07-18T16:58:15</time>
      </trkpt>
      <trkpt lat="45.34574" lon="6.1579">
        <ele>1592.7205</ele>
        <time>2021-07-18T16:58:19</time>
      </trkpt>
      <trkpt lat="45.34574" lon="6.15791">
        <ele>1592.7205</ele>
        <time>2021-07-18T16:58:20</time>
      </trkpt>
      <trkpt lat="45.34577" lon="6.15793">
        <ele>1592.7205</ele>
        <time>2021-07-18T16:58:24</time>
      </trkpt>
      <trkpt lat="45.34579" lon="6.15795">
        <ele>1590.2205</ele>
        <time>2021-07-18T16:58:28</time>
      </trkpt>
      <trkpt lat="45.3458" lon="6.15794">
        <ele>1590.2205</ele>
        <time>2021-07-18T16:58:30</time>
      </trkpt>
      <trkpt lat="45.34582" lon="6.15794">
        <ele>1590.2205</ele>
        <time>2021-07-18T16:58:32</time>
      </trkpt>
      <trkpt lat="45.34582" lon="6.15794">
        <ele>1590.2205</ele>
        <time>2021-07-18T16:58:33</time>
      </trkpt>
      <trkpt lat="45.34587" lon="6.1579">
        <ele>1586.7205</ele>
        <time>2021-07-18T16:58:41</time>
      </trkpt>
      <trkpt lat="45.34587" lon="6.1579">
        <ele>1586.7205</ele>
        <time>2021-07-18T16:58:43</time>
      </trkpt>
      <trkpt lat="45.34587" lon="6.15789">
        <ele>1586.7205</ele>
        <time>2021-07-18T16:58:44</time>
      </trkpt>
      <trkpt lat="45.34588" lon="6.15787">
        <ele>1584.1205</ele>
        <time>2021-07-18T16:58:46</time>
      </trkpt>
      <trkpt lat="45.34588" lon="6.15787">
        <ele>1584.1205</ele>
        <time>2021-07-18T16:58:47</time>
      </trkpt>
      <trkpt lat="45.34589" lon="6.15785">
        <ele>1584.1205</ele>
        <time>2021-07-18T16:58:51</time>
      </trkpt>
      <trkpt lat="45.34591" lon="6.15785">
        <ele>1584.1205</ele>
        <time>2021-07-18T16:58:54</time>
      </trkpt>
      <trkpt lat="45.34591" lon="6.15785">
        <ele>1584.1205</ele>
        <time>2021-07-18T16:58:55</time>
      </trkpt>
      <trkpt lat="45.34595" lon="6.15788">
        <ele>1584.4204</ele>
        <time>2021-07-18T16:59:00</time>
      </trkpt>
      <trkpt lat="45.34595" lon="6.15789">
        <ele>1584.4204</ele>
        <time>2021-07-18T16:59:01</time>
      </trkpt>
      <trkpt lat="45.34596" lon="6.15789">
        <ele>1584.4204</ele>
        <time>2021-07-18T16:59:03</time>
      </trkpt>
      <trkpt lat="45.34597" lon="6.1579">
        <ele>1585.4204</ele>
        <time>2021-07-18T16:59:06</time>
      </trkpt>
      <trkpt lat="45.34597" lon="6.1579">
        <ele>1585.4204</ele>
        <time>2021-07-18T16:59:10</time>
      </trkpt>
      <trkpt lat="45.34597" lon="6.1579">
        <ele>1585.4204</ele>
        <time>2021-07-18T16:59:11</time>
      </trkpt>
      <trkpt lat="45.34597" lon="6.1579">
        <ele>1585.4204</ele>
        <time>2021-07-18T16:59:12</time>
      </trkpt>
      <trkpt lat="45.34597" lon="6.15791">
        <ele>1585.4204</ele>
        <time>2021-07-18T16:59:14</time>
      </trkpt>
      <trkpt lat="45.34598" lon="6.15791">
        <ele>1586.8204</ele>
        <time>2021-07-18T16:59:16</time>
      </trkpt>
      <trkpt lat="45.34598" lon="6.15792">
        <ele>1586.8204</ele>
        <time>2021-07-18T16:59:17</time>
      </trkpt>
      <trkpt lat="45.346" lon="6.15792">
        <ele>1586.8204</ele>
        <time>2021-07-18T16:59:20</time>
      </trkpt>
      <trkpt lat="45.34602" lon="6.15793">
        <ele>1586.8204</ele>
        <time>2021-07-18T16:59:23</time>
      </trkpt>
      <trkpt lat="45.34607" lon="6.15797">
        <ele>1587.2205</ele>
        <time>2021-07-18T16:59:30</time>
      </trkpt>
      <trkpt lat="45.34611" lon="6.15801">
        <ele>1584.5204</ele>
        <time>2021-07-18T16:59:36</time>
      </trkpt>
      <trkpt lat="45.34614" lon="6.15805">
        <ele>1584.5204</ele>
        <time>2021-07-18T16:59:42</time>
      </trkpt>
      <trkpt lat="45.34615" lon="6.15804">
        <ele>1584.5204</ele>
        <time>2021-07-18T16:59:43</time>
      </trkpt>
      <trkpt lat="45.34615" lon="6.15804">
        <ele>1584.5204</ele>
        <time>2021-07-18T16:59:44</time>
      </trkpt>
      <trkpt lat="45.34616" lon="6.15804">
        <ele>1577.8204</ele>
        <time>2021-07-18T16:59:47</time>
      </trkpt>
      <trkpt lat="45.34617" lon="6.15806">
        <ele>1577.8204</ele>
        <time>2021-07-18T16:59:50</time>
      </trkpt>
      <trkpt lat="45.34618" lon="6.15808">
        <ele>1577.8204</ele>
        <time>2021-07-18T16:59:54</time>
      </trkpt>
      <trkpt lat="45.3462" lon="6.15809">
        <ele>1574.6205</ele>
        <time>2021-07-18T16:59:58</time>
      </trkpt>
      <trkpt lat="45.3462" lon="6.15808">
        <ele>1574.6205</ele>
        <time>2021-07-18T17:00:00</time>
      </trkpt>
      <trkpt lat="45.34622" lon="6.15806">
        <ele>1574.6205</ele>
        <time>2021-07-18T17:00:02</time>
      </trkpt>
      <trkpt lat="45.34622" lon="6.15806">
        <ele>1574.6205</ele>
        <time>2021-07-18T17:00:04</time>
      </trkpt>
      <trkpt lat="45.34622" lon="6.15806">
        <ele>1574.6205</ele>
        <time>2021-07-18T17:00:05</time>
      </trkpt>
      <trkpt lat="45.34622" lon="6.15806">
        <ele>1575.4204</ele>
        <time>2021-07-18T17:00:06</time>
      </trkpt>
      <trkpt lat="45.34624" lon="6.15809">
        <ele>1575.4204</ele>
        <time>2021-07-18T17:00:12</time>
      </trkpt>
      <trkpt lat="45.34625" lon="6.15808">
        <ele>1576.6205</ele>
        <time>2021-07-18T17:00:19</time>
      </trkpt>
      <trkpt lat="45.34626" lon="6.15808">
        <ele>1576.6205</ele>
        <time>2021-07-18T17:00:21</time>
      </trkpt>
      <trkpt lat="45.34626" lon="6.15807">
        <ele>1576.6205</ele>
        <time>2021-07-18T17:00:22</time>
      </trkpt>
      <trkpt lat="45.34628" lon="6.15807">
        <ele>1576.6205</ele>
        <time>2021-07-18T17:00:25</time>
      </trkpt>
      <trkpt lat="45.34629" lon="6.15807">
        <ele>1575.9204</ele>
        <time>2021-07-18T17:00:27</time>
      </trkpt>
      <trkpt lat="45.34631" lon="6.15806">
        <ele>1575.9204</ele>
        <time>2021-07-18T17:00:33</time>
      </trkpt>
      <trkpt lat="45.34631" lon="6.15806">
        <ele>1578.5204</ele>
        <time>2021-07-18T17:00:37</time>
      </trkpt>
      <trkpt lat="45.34632" lon="6.15806">
        <ele>1578.5204</ele>
        <time>2021-07-18T17:00:38</time>
      </trkpt>
      <trkpt lat="45.34632" lon="6.15806">
        <ele>1578.5204</ele>
        <time>2021-07-18T17:00:40</time>
      </trkpt>
      <trkpt lat="45.34633" lon="6.15806">
        <ele>1578.5204</ele>
        <time>2021-07-18T17:00:41</time>
      </trkpt>
      <trkpt lat="45.34634" lon="6.15808">
        <ele>1580.5204</ele>
        <time>2021-07-18T17:00:48</time>
      </trkpt>
      <trkpt lat="45.34634" lon="6.15807">
        <ele>1580.5204</ele>
        <time>2021-07-18T17:00:50</time>
      </trkpt>
      <trkpt lat="45.34634" lon="6.15807">
        <ele>1580.5204</ele>
        <time>2021-07-18T17:00:54</time>
      </trkpt>
      <trkpt lat="45.34634" lon="6.15805">
        <ele>1580.5204</ele>
        <time>2021-07-18T17:00:55</time>
      </trkpt>
      <trkpt lat="45.34634" lon="6.15803">
        <ele>1576.9204</ele>
        <time>2021-07-18T17:00:59</time>
      </trkpt>
      <trkpt lat="45.34646" lon="6.15794">
        <ele>1571.6205</ele>
        <time>2021-07-18T17:01:29</time>
      </trkpt>
      <trkpt lat="45.34646" lon="6.15792">
        <ele>1571.6205</ele>
        <time>2021-07-18T17:01:34</time>
      </trkpt>
      <trkpt lat="45.34646" lon="6.15792">
        <ele>1571.6205</ele>
        <time>2021-07-18T17:01:35</time>
      </trkpt>
      <trkpt lat="45.34647" lon="6.15791">
        <ele>1569.6205</ele>
        <time>2021-07-18T17:01:36</time>
      </trkpt>
      <trkpt lat="45.34647" lon="6.15791">
        <ele>1569.6205</ele>
        <time>2021-07-18T17:01:37</time>
      </trkpt>
      <trkpt lat="45.34649" lon="6.15791">
        <ele>1569.6205</ele>
        <time>2021-07-18T17:01:40</time>
      </trkpt>
      <trkpt lat="45.3465" lon="6.15791">
        <ele>1569.6205</ele>
        <time>2021-07-18T17:01:41</time>
      </trkpt>
      <trkpt lat="45.34655" lon="6.15789">
        <ele>1569.4204</ele>
        <time>2021-07-18T17:01:48</time>
      </trkpt>
      <trkpt lat="45.34656" lon="6.1579">
        <ele>1569.4204</ele>
        <time>2021-07-18T17:01:53</time>
      </trkpt>
      <trkpt lat="45.34656" lon="6.1579">
        <ele>1569.4204</ele>
        <time>2021-07-18T17:01:54</time>
      </trkpt>
      <trkpt lat="45.34656" lon="6.1579">
        <ele>1569.4204</ele>
        <time>2021-07-18T17:01:55</time>
      </trkpt>
      <trkpt lat="45.34656" lon="6.1579">
        <ele>1568.2205</ele>
        <time>2021-07-18T17:01:56</time>
      </trkpt>
      <trkpt lat="45.34656" lon="6.1579">
        <ele>1568.2205</ele>
        <time>2021-07-18T17:01:59</time>
      </trkpt>
      <trkpt lat="45.34656" lon="6.15789">
        <ele>1568.2205</ele>
        <time>2021-07-18T17:02:00</time>
      </trkpt>
      <trkpt lat="45.34656" lon="6.15789">
        <ele>1568.2205</ele>
        <time>2021-07-18T17:02:05</time>
      </trkpt>
      <trkpt lat="45.34657" lon="6.15784">
        <ele>1567.5204</ele>
        <time>2021-07-18T17:02:10</time>
      </trkpt>
      <trkpt lat="45.34661" lon="6.1578">
        <ele>1569.1205</ele>
        <time>2021-07-18T17:02:16</time>
      </trkpt>
      <trkpt lat="45.34666" lon="6.15777">
        <ele>1569.1205</ele>
        <time>2021-07-18T17:02:23</time>
      </trkpt>
      <trkpt lat="45.34667" lon="6.15778">
        <ele>1569.1205</ele>
        <time>2021-07-18T17:02:25</time>
      </trkpt>
      <trkpt lat="45.34668" lon="6.15778">
        <ele>1565.9204</ele>
        <time>2021-07-18T17:02:30</time>
      </trkpt>
      <trkpt lat="45.34669" lon="6.15777">
        <ele>1565.9204</ele>
        <time>2021-07-18T17:02:33</time>
      </trkpt>
      <trkpt lat="45.3467" lon="6.15777">
        <ele>1565.9204</ele>
        <time>2021-07-18T17:02:34</time>
      </trkpt>
      <trkpt lat="45.34671" lon="6.15777">
        <ele>1565.2205</ele>
        <time>2021-07-18T17:02:38</time>
      </trkpt>
      <trkpt lat="45.34673" lon="6.15778">
        <ele>1565.2205</ele>
        <time>2021-07-18T17:02:41</time>
      </trkpt>
      <trkpt lat="45.34675" lon="6.15779">
        <ele>1565.2205</ele>
        <time>2021-07-18T17:02:44</time>
      </trkpt>
      <trkpt lat="45.34675" lon="6.15778">
        <ele>1565.2205</ele>
        <time>2021-07-18T17:02:45</time>
      </trkpt>
      <trkpt lat="45.34676" lon="6.15775">
        <ele>1564.9204</ele>
        <time>2021-07-18T17:02:50</time>
      </trkpt>
      <trkpt lat="45.34677" lon="6.15775">
        <ele>1564.9204</ele>
        <time>2021-07-18T17:02:52</time>
      </trkpt>
      <trkpt lat="45.34679" lon="6.15776">
        <ele>1564.9204</ele>
        <time>2021-07-18T17:02:54</time>
      </trkpt>
      <trkpt lat="45.34679" lon="6.15776">
        <ele>1564.9204</ele>
        <time>2021-07-18T17:02:55</time>
      </trkpt>
      <trkpt lat="45.3468" lon="6.15777">
        <ele>1564.2205</ele>
        <time>2021-07-18T17:02:58</time>
      </trkpt>
      <trkpt lat="45.34685" lon="6.15775">
        <ele>1564.2205</ele>
        <time>2021-07-18T17:03:05</time>
      </trkpt>
      <trkpt lat="45.34686" lon="6.15778">
        <ele>1559.8204</ele>
        <time>2021-07-18T17:03:09</time>
      </trkpt>
      <trkpt lat="45.34686" lon="6.15778">
        <ele>1559.8204</ele>
        <time>2021-07-18T17:03:11</time>
      </trkpt>
      <trkpt lat="45.34686" lon="6.15777">
        <ele>1559.8204</ele>
        <time>2021-07-18T17:03:12</time>
      </trkpt>
      <trkpt lat="45.34687" lon="6.15775">
        <ele>1559.8204</ele>
        <time>2021-07-18T17:03:15</time>
      </trkpt>
      <trkpt lat="45.3469" lon="6.15776">
        <ele>1558.6205</ele>
        <time>2021-07-18T17:03:18</time>
      </trkpt>
      <trkpt lat="45.34695" lon="6.1578">
        <ele>1558.6205</ele>
        <time>2021-07-18T17:03:24</time>
      </trkpt>
      <trkpt lat="45.34698" lon="6.15782">
        <ele>1561.5204</ele>
        <time>2021-07-18T17:03:28</time>
      </trkpt>
      <trkpt lat="45.347" lon="6.15786">
        <ele>1561.5204</ele>
        <time>2021-07-18T17:03:31</time>
      </trkpt>
      <trkpt lat="45.34704" lon="6.15791">
        <ele>1558.5204</ele>
        <time>2021-07-18T17:03:39</time>
      </trkpt>
      <trkpt lat="45.34704" lon="6.1579">
        <ele>1558.5204</ele>
        <time>2021-07-18T17:03:41</time>
      </trkpt>
      <trkpt lat="45.34704" lon="6.1579">
        <ele>1553.8204</ele>
        <time>2021-07-18T17:03:49</time>
      </trkpt>
      <trkpt lat="45.34705" lon="6.1579">
        <ele>1553.8204</ele>
        <time>2021-07-18T17:03:50</time>
      </trkpt>
      <trkpt lat="45.34705" lon="6.1579">
        <ele>1553.8204</ele>
        <time>2021-07-18T17:03:52</time>
      </trkpt>
      <trkpt lat="45.34707" lon="6.15791">
        <ele>1553.8204</ele>
        <time>2021-07-18T17:03:54</time>
      </trkpt>
      <trkpt lat="45.34709" lon="6.15792">
        <ele>1552.4204</ele>
        <time>2021-07-18T17:03:58</time>
      </trkpt>
      <trkpt lat="45.3471" lon="6.15793">
        <ele>1552.4204</ele>
        <time>2021-07-18T17:04:04</time>
      </trkpt>
      <trkpt lat="45.3471" lon="6.15792">
        <ele>1552.4204</ele>
        <time>2021-07-18T17:04:05</time>
      </trkpt>
      <trkpt lat="45.3471" lon="6.15792">
        <ele>1550.9204</ele>
        <time>2021-07-18T17:04:07</time>
      </trkpt>
      <trkpt lat="45.3471" lon="6.15791">
        <ele>1550.9204</ele>
        <time>2021-07-18T17:04:08</time>
      </trkpt>
      <trkpt lat="45.3471" lon="6.15791">
        <ele>1550.9204</ele>
        <time>2021-07-18T17:04:09</time>
      </trkpt>
      <trkpt lat="45.34712" lon="6.15791">
        <ele>1550.9204</ele>
        <time>2021-07-18T17:04:13</time>
      </trkpt>
      <trkpt lat="45.34714" lon="6.15792">
        <ele>1550.6205</ele>
        <time>2021-07-18T17:04:16</time>
      </trkpt>
      <trkpt lat="45.34714" lon="6.15792">
        <ele>1550.6205</ele>
        <time>2021-07-18T17:04:17</time>
      </trkpt>
      <trkpt lat="45.34716" lon="6.15794">
        <ele>1548.9204</ele>
        <time>2021-07-18T17:04:26</time>
      </trkpt>
      <trkpt lat="45.34717" lon="6.15794">
        <ele>1548.9204</ele>
        <time>2021-07-18T17:04:27</time>
      </trkpt>
      <trkpt lat="45.34717" lon="6.15795">
        <ele>1548.9204</ele>
        <time>2021-07-18T17:04:29</time>
      </trkpt>
      <trkpt lat="45.34718" lon="6.15798">
        <ele>1548.9204</ele>
        <time>2021-07-18T17:04:31</time>
      </trkpt>
      <trkpt lat="45.34717" lon="6.15801">
        <ele>1548.9204</ele>
        <time>2021-07-18T17:04:33</time>
      </trkpt>
      <trkpt lat="45.34717" lon="6.15802">
        <ele>1548.9204</ele>
        <time>2021-07-18T17:04:34</time>
      </trkpt>
      <trkpt lat="45.34716" lon="6.15804">
        <ele>1548.9204</ele>
        <time>2021-07-18T17:04:35</time>
      </trkpt>
      <trkpt lat="45.34717" lon="6.15806">
        <ele>1550.1205</ele>
        <time>2021-07-18T17:04:39</time>
      </trkpt>
      <trkpt lat="45.34717" lon="6.15807">
        <ele>1550.1205</ele>
        <time>2021-07-18T17:04:41</time>
      </trkpt>
      <trkpt lat="45.34717" lon="6.15808">
        <ele>1550.1205</ele>
        <time>2021-07-18T17:04:42</time>
      </trkpt>
      <trkpt lat="45.34718" lon="6.15808">
        <ele>1550.1205</ele>
        <time>2021-07-18T17:04:45</time>
      </trkpt>
      <trkpt lat="45.34718" lon="6.15807">
        <ele>1548.6205</ele>
        <time>2021-07-18T17:04:47</time>
      </trkpt>
      <trkpt lat="45.34721" lon="6.15806">
        <ele>1548.6205</ele>
        <time>2021-07-18T17:04:50</time>
      </trkpt>
      <trkpt lat="45.34723" lon="6.15805">
        <ele>1548.6205</ele>
        <time>2021-07-18T17:04:53</time>
      </trkpt>
      <trkpt lat="45.34724" lon="6.15809">
        <ele>1550.1205</ele>
        <time>2021-07-18T17:04:58</time>
      </trkpt>
      <trkpt lat="45.34727" lon="6.15812">
        <ele>1550.1205</ele>
        <time>2021-07-18T17:05:03</time>
      </trkpt>
      <trkpt lat="45.34729" lon="6.15813">
        <ele>1550.2205</ele>
        <time>2021-07-18T17:05:08</time>
      </trkpt>
      <trkpt lat="45.3473" lon="6.15813">
        <ele>1550.2205</ele>
        <time>2021-07-18T17:05:09</time>
      </trkpt>
      <trkpt lat="45.34731" lon="6.15812">
        <ele>1550.2205</ele>
        <time>2021-07-18T17:05:11</time>
      </trkpt>
      <trkpt lat="45.34733" lon="6.15814">
        <ele>1550.2205</ele>
        <time>2021-07-18T17:05:14</time>
      </trkpt>
      <trkpt lat="45.34736" lon="6.15816">
        <ele>1555.5204</ele>
        <time>2021-07-18T17:05:17</time>
      </trkpt>
      <trkpt lat="45.34737" lon="6.15818">
        <ele>1555.5204</ele>
        <time>2021-07-18T17:05:19</time>
      </trkpt>
      <trkpt lat="45.3474" lon="6.15818">
        <ele>1555.5204</ele>
        <time>2021-07-18T17:05:23</time>
      </trkpt>
      <trkpt lat="45.3474" lon="6.15818">
        <ele>1555.5204</ele>
        <time>2021-07-18T17:05:25</time>
      </trkpt>
      <trkpt lat="45.34741" lon="6.15818">
        <ele>1554.3204</ele>
        <time>2021-07-18T17:05:27</time>
      </trkpt>
      <trkpt lat="45.34742" lon="6.15817">
        <ele>1554.3204</ele>
        <time>2021-07-18T17:05:29</time>
      </trkpt>
      <trkpt lat="45.34745" lon="6.15818">
        <ele>1554.3204</ele>
        <time>2021-07-18T17:05:33</time>
      </trkpt>
      <trkpt lat="45.34746" lon="6.15821">
        <ele>1555.5204</ele>
        <time>2021-07-18T17:05:37</time>
      </trkpt>
      <trkpt lat="45.34746" lon="6.15822">
        <ele>1555.5204</ele>
        <time>2021-07-18T17:05:38</time>
      </trkpt>
      <trkpt lat="45.34746" lon="6.15823">
        <ele>1555.5204</ele>
        <time>2021-07-18T17:05:39</time>
      </trkpt>
      <trkpt lat="45.34749" lon="6.15825">
        <ele>1555.5204</ele>
        <time>2021-07-18T17:05:43</time>
      </trkpt>
      <trkpt lat="45.34751" lon="6.15827">
        <ele>1555.5204</ele>
        <time>2021-07-18T17:05:46</time>
      </trkpt>
      <trkpt lat="45.34753" lon="6.15827">
        <ele>1555.5204</ele>
        <time>2021-07-18T17:05:49</time>
      </trkpt>
      <trkpt lat="45.34754" lon="6.15827">
        <ele>1555.5204</ele>
        <time>2021-07-18T17:05:51</time>
      </trkpt>
      <trkpt lat="45.34755" lon="6.15827">
        <ele>1555.5204</ele>
        <time>2021-07-18T17:05:53</time>
      </trkpt>
      <trkpt lat="45.34755" lon="6.15828">
        <ele>1555.5204</ele>
        <time>2021-07-18T17:05:54</time>
      </trkpt>
      <trkpt lat="45.34755" lon="6.15828">
        <ele>1555.5204</ele>
        <time>2021-07-18T17:05:55</time>
      </trkpt>
      <trkpt lat="45.34759" lon="6.1583">
        <ele>1554.0204</ele>
        <time>2021-07-18T17:05:59</time>
      </trkpt>
      <trkpt lat="45.34761" lon="6.15831">
        <ele>1554.0204</ele>
        <time>2021-07-18T17:06:02</time>
      </trkpt>
      <trkpt lat="45.34764" lon="6.15826">
        <ele>1553.7205</ele>
        <time>2021-07-18T17:06:13</time>
      </trkpt>
      <trkpt lat="45.34765" lon="6.15827">
        <ele>1553.7205</ele>
        <time>2021-07-18T17:06:14</time>
      </trkpt>
      <trkpt lat="45.34766" lon="6.15827">
        <ele>1552.7205</ele>
        <time>2021-07-18T17:06:23</time>
      </trkpt>
      <trkpt lat="45.34768" lon="6.15824">
        <ele>1551.6205</ele>
        <time>2021-07-18T17:06:26</time>
      </trkpt>
      <trkpt lat="45.34771" lon="6.15824">
        <ele>1551.6205</ele>
        <time>2021-07-18T17:06:30</time>
      </trkpt>
      <trkpt lat="45.34772" lon="6.15824">
        <ele>1551.6205</ele>
        <time>2021-07-18T17:06:33</time>
      </trkpt>
      <trkpt lat="45.34775" lon="6.15824">
        <ele>1549.3204</ele>
        <time>2021-07-18T17:06:37</time>
      </trkpt>
      <trkpt lat="45.34779" lon="6.15824">
        <ele>1549.3204</ele>
        <time>2021-07-18T17:06:41</time>
      </trkpt>
      <trkpt lat="45.3478" lon="6.15824">
        <ele>1549.3204</ele>
        <time>2021-07-18T17:06:43</time>
      </trkpt>
      <trkpt lat="45.34782" lon="6.15824">
        <ele>1549.1205</ele>
        <time>2021-07-18T17:06:46</time>
      </trkpt>
      <trkpt lat="45.34784" lon="6.15823">
        <ele>1549.1205</ele>
        <time>2021-07-18T17:06:48</time>
      </trkpt>
      <trkpt lat="45.34784" lon="6.15823">
        <ele>1549.1205</ele>
        <time>2021-07-18T17:06:51</time>
      </trkpt>
      <trkpt lat="45.34784" lon="6.15823">
        <ele>1549.1205</ele>
        <time>2021-07-18T17:06:52</time>
      </trkpt>
      <trkpt lat="45.34784" lon="6.15823">
        <ele>1549.1205</ele>
        <time>2021-07-18T17:06:55</time>
      </trkpt>
      <trkpt lat="45.34791" lon="6.15815">
        <ele>1547.1205</ele>
        <time>2021-07-18T17:07:13</time>
      </trkpt>
      <trkpt lat="45.34791" lon="6.15814">
        <ele>1547.1205</ele>
        <time>2021-07-18T17:07:14</time>
      </trkpt>
      <trkpt lat="45.34793" lon="6.15813">
        <ele>1545.3204</ele>
        <time>2021-07-18T17:07:16</time>
      </trkpt>
      <trkpt lat="45.34794" lon="6.15811">
        <ele>1545.3204</ele>
        <time>2021-07-18T17:07:19</time>
      </trkpt>
      <trkpt lat="45.34795" lon="6.15807">
        <ele>1545.3204</ele>
        <time>2021-07-18T17:07:24</time>
      </trkpt>
      <trkpt lat="45.34795" lon="6.15805">
        <ele>1547.4204</ele>
        <time>2021-07-18T17:07:26</time>
      </trkpt>
      <trkpt lat="45.34797" lon="6.15804">
        <ele>1547.4204</ele>
        <time>2021-07-18T17:07:29</time>
      </trkpt>
      <trkpt lat="45.34798" lon="6.15803">
        <ele>1547.4204</ele>
        <time>2021-07-18T17:07:31</time>
      </trkpt>
      <trkpt lat="45.34797" lon="6.15802">
        <ele>1547.4204</ele>
        <time>2021-07-18T17:07:34</time>
      </trkpt>
      <trkpt lat="45.34798" lon="6.15802">
        <ele>1547.4204</ele>
        <time>2021-07-18T17:07:35</time>
      </trkpt>
      <trkpt lat="45.34799" lon="6.15801">
        <ele>1546.4204</ele>
        <time>2021-07-18T17:07:37</time>
      </trkpt>
      <trkpt lat="45.34799" lon="6.15801">
        <ele>1546.4204</ele>
        <time>2021-07-18T17:07:38</time>
      </trkpt>
      <trkpt lat="45.34803" lon="6.15797">
        <ele>1542.3204</ele>
        <time>2021-07-18T17:07:50</time>
      </trkpt>
      <trkpt lat="45.34804" lon="6.15797">
        <ele>1542.3204</ele>
        <time>2021-07-18T17:07:51</time>
      </trkpt>
      <trkpt lat="45.34805" lon="6.15796">
        <ele>1542.3204</ele>
        <time>2021-07-18T17:07:55</time>
      </trkpt>
      <trkpt lat="45.34807" lon="6.15796">
        <ele>1541.7205</ele>
        <time>2021-07-18T17:07:58</time>
      </trkpt>
      <trkpt lat="45.3481" lon="6.15794">
        <ele>1541.7205</ele>
        <time>2021-07-18T17:08:02</time>
      </trkpt>
      <trkpt lat="45.34812" lon="6.15791">
        <ele>1541.4204</ele>
        <time>2021-07-18T17:08:06</time>
      </trkpt>
      <trkpt lat="45.34814" lon="6.15789">
        <ele>1541.4204</ele>
        <time>2021-07-18T17:08:09</time>
      </trkpt>
      <trkpt lat="45.34815" lon="6.15787">
        <ele>1541.4204</ele>
        <time>2021-07-18T17:08:12</time>
      </trkpt>
      <trkpt lat="45.34816" lon="6.15784">
        <ele>1541.4204</ele>
        <time>2021-07-18T17:08:14</time>
      </trkpt>
      <trkpt lat="45.34816" lon="6.15782">
        <ele>1541.2205</ele>
        <time>2021-07-18T17:08:17</time>
      </trkpt>
      <trkpt lat="45.34816" lon="6.15781">
        <ele>1541.2205</ele>
        <time>2021-07-18T17:08:19</time>
      </trkpt>
      <trkpt lat="45.34816" lon="6.1578">
        <ele>1541.2205</ele>
        <time>2021-07-18T17:08:20</time>
      </trkpt>
      <trkpt lat="45.34817" lon="6.15778">
        <ele>1541.2205</ele>
        <time>2021-07-18T17:08:23</time>
      </trkpt>
      <trkpt lat="45.34818" lon="6.15778">
        <ele>1541.2205</ele>
        <time>2021-07-18T17:08:25</time>
      </trkpt>
      <trkpt lat="45.34819" lon="6.15778">
        <ele>1544.3204</ele>
        <time>2021-07-18T17:08:28</time>
      </trkpt>
      <trkpt lat="45.34819" lon="6.15778">
        <ele>1544.3204</ele>
        <time>2021-07-18T17:08:29</time>
      </trkpt>
      <trkpt lat="45.34821" lon="6.15775">
        <ele>1544.3204</ele>
        <time>2021-07-18T17:08:33</time>
      </trkpt>
      <trkpt lat="45.34824" lon="6.15775">
        <ele>1544.5204</ele>
        <time>2021-07-18T17:08:37</time>
      </trkpt>
      <trkpt lat="45.34827" lon="6.15768">
        <ele>1544.8204</ele>
        <time>2021-07-18T17:08:47</time>
      </trkpt>
      <trkpt lat="45.3483" lon="6.15762">
        <ele>1537.2205</ele>
        <time>2021-07-18T17:08:56</time>
      </trkpt>
      <trkpt lat="45.34833" lon="6.15759">
        <ele>1537.2205</ele>
        <time>2021-07-18T17:09:02</time>
      </trkpt>
      <trkpt lat="45.34836" lon="6.15756">
        <ele>1538.4204</ele>
        <time>2021-07-18T17:09:08</time>
      </trkpt>
      <trkpt lat="45.34838" lon="6.15755">
        <ele>1538.4204</ele>
        <time>2021-07-18T17:09:10</time>
      </trkpt>
      <trkpt lat="45.34841" lon="6.15751">
        <ele>1538.4204</ele>
        <time>2021-07-18T17:09:15</time>
      </trkpt>
      <trkpt lat="45.34841" lon="6.15751">
        <ele>1536.987</ele>
        <time>2021-07-18T17:09:17</time>
      </trkpt>
      <trkpt lat="45.34841" lon="6.15748">
        <ele>1536.987</ele>
        <time>2021-07-18T17:09:21</time>
      </trkpt>
      <trkpt lat="45.34843" lon="6.15745">
        <ele>1536.987</ele>
        <time>2021-07-18T17:09:25</time>
      </trkpt>
      <trkpt lat="45.34848" lon="6.15747">
        <ele>1536.6205</ele>
        <time>2021-07-18T17:09:32</time>
      </trkpt>
      <trkpt lat="45.34851" lon="6.15746">
        <ele>1535.5204</ele>
        <time>2021-07-18T17:09:37</time>
      </trkpt>
      <trkpt lat="45.34853" lon="6.15743">
        <ele>1535.5204</ele>
        <time>2021-07-18T17:09:43</time>
      </trkpt>
      <trkpt lat="45.34853" lon="6.15743">
        <ele>1535.5204</ele>
        <time>2021-07-18T17:09:45</time>
      </trkpt>
      <trkpt lat="45.34853" lon="6.15743">
        <ele>1534.0204</ele>
        <time>2021-07-18T17:09:46</time>
      </trkpt>
      <trkpt lat="45.34853" lon="6.15743">
        <ele>1534.0204</ele>
        <time>2021-07-18T17:09:47</time>
      </trkpt>
      <trkpt lat="45.34854" lon="6.15744">
        <ele>1534.0204</ele>
        <time>2021-07-18T17:09:48</time>
      </trkpt>
      <trkpt lat="45.34857" lon="6.15743">
        <ele>1534.0204</ele>
        <time>2021-07-18T17:09:52</time>
      </trkpt>
      <trkpt lat="45.34858" lon="6.15742">
        <ele>1534.0204</ele>
        <time>2021-07-18T17:09:55</time>
      </trkpt>
      <trkpt lat="45.34859" lon="6.15742">
        <ele>1531.8204</ele>
        <time>2021-07-18T17:09:56</time>
      </trkpt>
      <trkpt lat="45.34863" lon="6.15743">
        <ele>1531.8204</ele>
        <time>2021-07-18T17:10:01</time>
      </trkpt>
      <trkpt lat="45.34867" lon="6.15742">
        <ele>1532.3204</ele>
        <time>2021-07-18T17:10:06</time>
      </trkpt>
      <trkpt lat="45.34869" lon="6.15741">
        <ele>1532.3204</ele>
        <time>2021-07-18T17:10:10</time>
      </trkpt>
      <trkpt lat="45.34871" lon="6.15739">
        <ele>1532.3204</ele>
        <time>2021-07-18T17:10:13</time>
      </trkpt>
      <trkpt lat="45.34871" lon="6.15739">
        <ele>1532.3204</ele>
        <time>2021-07-18T17:10:14</time>
      </trkpt>
      <trkpt lat="45.34872" lon="6.15738">
        <ele>1536.1538</ele>
        <time>2021-07-18T17:10:16</time>
      </trkpt>
      <trkpt lat="45.34876" lon="6.15737">
        <ele>1536.1538</ele>
        <time>2021-07-18T17:10:21</time>
      </trkpt>
      <trkpt lat="45.34877" lon="6.15736">
        <ele>1536.1538</ele>
        <time>2021-07-18T17:10:22</time>
      </trkpt>
      <trkpt lat="45.34877" lon="6.15736">
        <ele>1536.1538</ele>
        <time>2021-07-18T17:10:23</time>
      </trkpt>
      <trkpt lat="45.34878" lon="6.15737">
        <ele>1536.1538</ele>
        <time>2021-07-18T17:10:24</time>
      </trkpt>
      <trkpt lat="45.34878" lon="6.15737">
        <ele>1536.1538</ele>
        <time>2021-07-18T17:10:25</time>
      </trkpt>
      <trkpt lat="45.34878" lon="6.15738">
        <ele>1535.5204</ele>
        <time>2021-07-18T17:10:26</time>
      </trkpt>
      <trkpt lat="45.34882" lon="6.15739">
        <ele>1535.5204</ele>
        <time>2021-07-18T17:10:33</time>
      </trkpt>
      <trkpt lat="45.34883" lon="6.1574">
        <ele>1535.5204</ele>
        <time>2021-07-18T17:10:35</time>
      </trkpt>
      <trkpt lat="45.34883" lon="6.1574">
        <ele>1536.7205</ele>
        <time>2021-07-18T17:10:36</time>
      </trkpt>
      <trkpt lat="45.34885" lon="6.1574">
        <ele>1536.7205</ele>
        <time>2021-07-18T17:10:38</time>
      </trkpt>
      <trkpt lat="45.34886" lon="6.1574">
        <ele>1536.7205</ele>
        <time>2021-07-18T17:10:41</time>
      </trkpt>
      <trkpt lat="45.34888" lon="6.15739">
        <ele>1536.7205</ele>
        <time>2021-07-18T17:10:45</time>
      </trkpt>
      <trkpt lat="45.34889" lon="6.15739">
        <ele>1536.1205</ele>
        <time>2021-07-18T17:10:46</time>
      </trkpt>
      <trkpt lat="45.34891" lon="6.15739">
        <ele>1536.1205</ele>
        <time>2021-07-18T17:10:52</time>
      </trkpt>
      <trkpt lat="45.34891" lon="6.15739">
        <ele>1536.1205</ele>
        <time>2021-07-18T17:10:54</time>
      </trkpt>
      <trkpt lat="45.34891" lon="6.15739">
        <ele>1535.8204</ele>
        <time>2021-07-18T17:10:56</time>
      </trkpt>
      <trkpt lat="45.34891" lon="6.15737">
        <ele>1535.8204</ele>
        <time>2021-07-18T17:11:03</time>
      </trkpt>
      <trkpt lat="45.34893" lon="6.15737">
        <ele>1537.6205</ele>
        <time>2021-07-18T17:11:08</time>
      </trkpt>
      <trkpt lat="45.34893" lon="6.15736">
        <ele>1537.6205</ele>
        <time>2021-07-18T17:11:10</time>
      </trkpt>
      <trkpt lat="45.34894" lon="6.15736">
        <ele>1537.6205</ele>
        <time>2021-07-18T17:11:13</time>
      </trkpt>
      <trkpt lat="45.34895" lon="6.15736">
        <ele>1537.6205</ele>
        <time>2021-07-18T17:11:15</time>
      </trkpt>
      <trkpt lat="45.34896" lon="6.15736">
        <ele>1539.8204</ele>
        <time>2021-07-18T17:11:16</time>
      </trkpt>
      <trkpt lat="45.34898" lon="6.15736">
        <ele>1539.8204</ele>
        <time>2021-07-18T17:11:20</time>
      </trkpt>
      <trkpt lat="45.34899" lon="6.15735">
        <ele>1537.8204</ele>
        <time>2021-07-18T17:11:53</time>
      </trkpt>
      <trkpt lat="45.34899" lon="6.15735">
        <ele>1537.8204</ele>
        <time>2021-07-18T17:11:55</time>
      </trkpt>
      <trkpt lat="45.349" lon="6.15734">
        <ele>1537.9204</ele>
        <time>2021-07-18T17:11:58</time>
      </trkpt>
      <trkpt lat="45.34901" lon="6.15734">
        <ele>1537.9204</ele>
        <time>2021-07-18T17:12:04</time>
      </trkpt>
      <trkpt lat="45.34904" lon="6.15731">
        <ele>1539.5537</ele>
        <time>2021-07-18T17:12:16</time>
      </trkpt>
      <trkpt lat="45.34904" lon="6.15731">
        <ele>1539.5537</ele>
        <time>2021-07-18T17:12:20</time>
      </trkpt>
      <trkpt lat="45.34904" lon="6.15732">
        <ele>1539.4204</ele>
        <time>2021-07-18T17:12:25</time>
      </trkpt>
      <trkpt lat="45.34904" lon="6.15732">
        <ele>1539.4204</ele>
        <time>2021-07-18T17:12:26</time>
      </trkpt>
      <trkpt lat="45.34903" lon="6.15732">
        <ele>1541.3204</ele>
        <time>2021-07-18T17:13:15</time>
      </trkpt>
      <trkpt lat="45.34903" lon="6.15732">
        <ele>1541.3204</ele>
        <time>2021-07-18T17:13:16</time>
      </trkpt>
      <trkpt lat="45.34904" lon="6.15734">
        <ele>1541.3204</ele>
        <time>2021-07-18T17:13:45</time>
      </trkpt>
      <trkpt lat="45.34904" lon="6.15733">
        <ele>1541.3204</ele>
        <time>2021-07-18T17:13:46</time>
      </trkpt>
      <trkpt lat="45.34903" lon="6.15733">
        <ele>1541.3204</ele>
        <time>2021-07-18T17:13:48</time>
      </trkpt>
      <trkpt lat="45.34903" lon="6.15733">
        <ele>1541.3204</ele>
        <time>2021-07-18T17:13:49</time>
      </trkpt>
      <trkpt lat="45.34903" lon="6.15734">
        <ele>1536.6205</ele>
        <time>2021-07-18T17:15:09</time>
      </trkpt>
      <trkpt lat="45.34903" lon="6.15734">
        <ele>1536.7205</ele>
        <time>2021-07-18T17:16:23</time>
      </trkpt>
      <trkpt lat="45.34904" lon="6.15733">
        <ele>1536.7205</ele>
        <time>2021-07-18T17:18:58</time>
      </trkpt>
      <trkpt lat="45.34904" lon="6.15733">
        <ele>1542.1205</ele>
        <time>2021-07-18T17:19:12</time>
      </trkpt>
      <trkpt lat="45.34904" lon="6.15732">
        <ele>1542.1205</ele>
        <time>2021-07-18T17:19:13</time>
      </trkpt>
      <trkpt lat="45.34904" lon="6.1573">
        <ele>1542.1205</ele>
        <time>2021-07-18T17:19:19</time>
      </trkpt>
      <trkpt lat="45.34904" lon="6.1573">
        <ele>1542.1205</ele>
        <time>2021-07-18T17:19:20</time>
      </trkpt>
      <trkpt lat="45.34905" lon="6.1573">
        <ele>1542.1205</ele>
        <time>2021-07-18T17:19:21</time>
      </trkpt>
      <trkpt lat="45.34907" lon="6.1573">
        <ele>1542.1205</ele>
        <time>2021-07-18T17:19:24</time>
      </trkpt>
      <trkpt lat="45.34909" lon="6.1573">
        <ele>1542.1205</ele>
        <time>2021-07-18T17:19:26</time>
      </trkpt>
      <trkpt lat="45.34909" lon="6.1573">
        <ele>1542.1205</ele>
        <time>2021-07-18T17:19:28</time>
      </trkpt>
      <trkpt lat="45.3491" lon="6.15729">
        <ele>1542.1205</ele>
        <time>2021-07-18T17:19:29</time>
      </trkpt>
      <trkpt lat="45.34912" lon="6.15728">
        <ele>1541.8204</ele>
        <time>2021-07-18T17:19:31</time>
      </trkpt>
      <trkpt lat="45.34916" lon="6.15728">
        <ele>1541.8204</ele>
        <time>2021-07-18T17:19:36</time>
      </trkpt>
      <trkpt lat="45.34918" lon="6.15728">
        <ele>1541.8204</ele>
        <time>2021-07-18T17:19:39</time>
      </trkpt>
      <trkpt lat="45.34923" lon="6.15729">
        <ele>1542.7205</ele>
        <time>2021-07-18T17:19:44</time>
      </trkpt>
      <trkpt lat="45.34925" lon="6.15728">
        <ele>1542.7205</ele>
        <time>2021-07-18T17:19:47</time>
      </trkpt>
      <trkpt lat="45.34928" lon="6.15727">
        <ele>1542.5204</ele>
        <time>2021-07-18T17:19:51</time>
      </trkpt>
      <trkpt lat="45.3493" lon="6.15727">
        <ele>1542.5204</ele>
        <time>2021-07-18T17:19:53</time>
      </trkpt>
      <trkpt lat="45.34931" lon="6.15727">
        <ele>1542.5204</ele>
        <time>2021-07-18T17:19:54</time>
      </trkpt>
      <trkpt lat="45.34933" lon="6.15726">
        <ele>1542.5204</ele>
        <time>2021-07-18T17:19:56</time>
      </trkpt>
      <trkpt lat="45.34937" lon="6.15726">
        <ele>1542.5204</ele>
        <time>2021-07-18T17:20:00</time>
      </trkpt>
      <trkpt lat="45.3494" lon="6.15726">
        <ele>1546.0204</ele>
        <time>2021-07-18T17:20:03</time>
      </trkpt>
      <trkpt lat="45.34943" lon="6.15725">
        <ele>1546.0204</ele>
        <time>2021-07-18T17:20:08</time>
      </trkpt>
      <trkpt lat="45.34945" lon="6.15723">
        <ele>1546.0204</ele>
        <time>2021-07-18T17:20:10</time>
      </trkpt>
      <trkpt lat="45.34947" lon="6.15722">
        <ele>1541.2205</ele>
        <time>2021-07-18T17:20:12</time>
      </trkpt>
      <trkpt lat="45.34953" lon="6.15716">
        <ele>1536.9204</ele>
        <time>2021-07-18T17:20:24</time>
      </trkpt>
      <trkpt lat="45.34955" lon="6.15712">
        <ele>1536.9204</ele>
        <time>2021-07-18T17:20:27</time>
      </trkpt>
      <trkpt lat="45.34958" lon="6.1571">
        <ele>1536.9204</ele>
        <time>2021-07-18T17:20:30</time>
      </trkpt>
      <trkpt lat="45.3496" lon="6.15707">
        <ele>1538.5204</ele>
        <time>2021-07-18T17:20:32</time>
      </trkpt>
      <trkpt lat="45.34962" lon="6.15704">
        <ele>1538.5204</ele>
        <time>2021-07-18T17:20:35</time>
      </trkpt>
      <trkpt lat="45.34964" lon="6.15702">
        <ele>1538.5204</ele>
        <time>2021-07-18T17:20:37</time>
      </trkpt>
      <trkpt lat="45.34967" lon="6.15699">
        <ele>1537.9204</ele>
        <time>2021-07-18T17:20:41</time>
      </trkpt>
      <trkpt lat="45.3497" lon="6.15695">
        <ele>1537.9204</ele>
        <time>2021-07-18T17:20:47</time>
      </trkpt>
      <trkpt lat="45.34972" lon="6.15693">
        <ele>1537.9204</ele>
        <time>2021-07-18T17:20:50</time>
      </trkpt>
      <trkpt lat="45.34975" lon="6.15691">
        <ele>1537.5204</ele>
        <time>2021-07-18T17:20:55</time>
      </trkpt>
      <trkpt lat="45.34986" lon="6.15684">
        <ele>1535.5204</ele>
        <time>2021-07-18T17:21:06</time>
      </trkpt>
      <trkpt lat="45.34987" lon="6.15681">
        <ele>1535.5204</ele>
        <time>2021-07-18T17:21:08</time>
      </trkpt>
      <trkpt lat="45.34988" lon="6.15675">
        <ele>1533.0204</ele>
        <time>2021-07-18T17:21:12</time>
      </trkpt>
      <trkpt lat="45.34991" lon="6.1567">
        <ele>1533.0204</ele>
        <time>2021-07-18T17:21:18</time>
      </trkpt>
      <trkpt lat="45.34992" lon="6.15667">
        <ele>1533.0204</ele>
        <time>2021-07-18T17:21:20</time>
      </trkpt>
      <trkpt lat="45.34994" lon="6.15663">
        <ele>1533.2205</ele>
        <time>2021-07-18T17:21:25</time>
      </trkpt>
      <trkpt lat="45.34995" lon="6.15663">
        <ele>1533.2205</ele>
        <time>2021-07-18T17:21:26</time>
      </trkpt>
      <trkpt lat="45.34995" lon="6.15663">
        <ele>1533.2205</ele>
        <time>2021-07-18T17:21:27</time>
      </trkpt>
      <trkpt lat="45.34995" lon="6.15663">
        <ele>1532.0204</ele>
        <time>2021-07-18T17:21:39</time>
      </trkpt>
      <trkpt lat="45.34996" lon="6.15661">
        <ele>1530.7205</ele>
        <time>2021-07-18T17:21:41</time>
      </trkpt>
      <trkpt lat="45.34997" lon="6.15659">
        <ele>1530.7205</ele>
        <time>2021-07-18T17:21:44</time>
      </trkpt>
      <trkpt lat="45.34999" lon="6.15655">
        <ele>1530.7205</ele>
        <time>2021-07-18T17:21:49</time>
      </trkpt>
      <trkpt lat="45.35001" lon="6.1565">
        <ele>1530.1205</ele>
        <time>2021-07-18T17:21:55</time>
      </trkpt>
      <trkpt lat="45.35001" lon="6.15649">
        <ele>1530.1205</ele>
        <time>2021-07-18T17:21:56</time>
      </trkpt>
      <trkpt lat="45.35001" lon="6.15649">
        <ele>1530.1205</ele>
        <time>2021-07-18T17:21:57</time>
      </trkpt>
      <trkpt lat="45.35003" lon="6.15649">
        <ele>1530.1205</ele>
        <time>2021-07-18T17:22:00</time>
      </trkpt>
      <trkpt lat="45.35004" lon="6.15646">
        <ele>1530.1205</ele>
        <time>2021-07-18T17:22:04</time>
      </trkpt>
      <trkpt lat="45.35006" lon="6.15647">
        <ele>1530.1205</ele>
        <time>2021-07-18T17:22:06</time>
      </trkpt>
      <trkpt lat="45.35007" lon="6.15648">
        <ele>1530.1205</ele>
        <time>2021-07-18T17:22:09</time>
      </trkpt>
      <trkpt lat="45.35007" lon="6.15648">
        <ele>1530.1205</ele>
        <time>2021-07-18T17:22:10</time>
      </trkpt>
      <trkpt lat="45.35008" lon="6.15647">
        <ele>1533.9204</ele>
        <time>2021-07-18T17:22:11</time>
      </trkpt>
      <trkpt lat="45.35009" lon="6.15646">
        <ele>1533.9204</ele>
        <time>2021-07-18T17:22:14</time>
      </trkpt>
      <trkpt lat="45.35009" lon="6.15646">
        <ele>1533.9204</ele>
        <time>2021-07-18T17:22:15</time>
      </trkpt>
      <trkpt lat="45.3501" lon="6.15646">
        <ele>1534.6205</ele>
        <time>2021-07-18T17:22:22</time>
      </trkpt>
      <trkpt lat="45.35011" lon="6.15645">
        <ele>1534.6205</ele>
        <time>2021-07-18T17:22:23</time>
      </trkpt>
      <trkpt lat="45.35013" lon="6.15645">
        <ele>1534.6205</ele>
        <time>2021-07-18T17:22:27</time>
      </trkpt>
      <trkpt lat="45.35013" lon="6.15644">
        <ele>1533.7205</ele>
        <time>2021-07-18T17:22:32</time>
      </trkpt>
      <trkpt lat="45.35015" lon="6.15643">
        <ele>1533.7205</ele>
        <time>2021-07-18T17:22:34</time>
      </trkpt>
      <trkpt lat="45.35022" lon="6.15638">
        <ele>1532.0204</ele>
        <time>2021-07-18T17:22:42</time>
      </trkpt>
      <trkpt lat="45.35025" lon="6.15636">
        <ele>1532.0204</ele>
        <time>2021-07-18T17:22:45</time>
      </trkpt>
      <trkpt lat="45.35026" lon="6.15635">
        <ele>1532.0204</ele>
        <time>2021-07-18T17:22:47</time>
      </trkpt>
      <trkpt lat="45.35029" lon="6.15634">
        <ele>1529.6205</ele>
        <time>2021-07-18T17:22:51</time>
      </trkpt>
      <trkpt lat="45.35032" lon="6.15635">
        <ele>1529.6205</ele>
        <time>2021-07-18T17:22:55</time>
      </trkpt>
      <trkpt lat="45.35035" lon="6.15632">
        <ele>1529.6205</ele>
        <time>2021-07-18T17:23:00</time>
      </trkpt>
      <trkpt lat="45.35039" lon="6.15633">
        <ele>1530.5204</ele>
        <time>2021-07-18T17:23:07</time>
      </trkpt>
      <trkpt lat="45.35043" lon="6.15633">
        <ele>1531.1205</ele>
        <time>2021-07-18T17:23:12</time>
      </trkpt>
      <trkpt lat="45.35045" lon="6.15633">
        <ele>1531.1205</ele>
        <time>2021-07-18T17:23:14</time>
      </trkpt>
      <trkpt lat="45.35051" lon="6.1563">
        <ele>1528.1205</ele>
        <time>2021-07-18T17:23:21</time>
      </trkpt>
      <trkpt lat="45.35054" lon="6.15628">
        <ele>1528.1205</ele>
        <time>2021-07-18T17:23:24</time>
      </trkpt>
      <trkpt lat="45.35056" lon="6.15626">
        <ele>1528.1205</ele>
        <time>2021-07-18T17:23:28</time>
      </trkpt>
      <trkpt lat="45.35058" lon="6.15625">
        <ele>1528.1205</ele>
        <time>2021-07-18T17:23:30</time>
      </trkpt>
      <trkpt lat="45.3506" lon="6.15625">
        <ele>1526.6205</ele>
        <time>2021-07-18T17:23:33</time>
      </trkpt>
      <trkpt lat="45.3506" lon="6.15625">
        <ele>1526.6205</ele>
        <time>2021-07-18T17:23:34</time>
      </trkpt>
      <trkpt lat="45.3506" lon="6.15624">
        <ele>1526.6205</ele>
        <time>2021-07-18T17:23:37</time>
      </trkpt>
      <trkpt lat="45.35061" lon="6.15622">
        <ele>1526.6205</ele>
        <time>2021-07-18T17:23:39</time>
      </trkpt>
      <trkpt lat="45.35063" lon="6.15609">
        <ele>1526.4204</ele>
        <time>2021-07-18T17:23:49</time>
      </trkpt>
      <trkpt lat="45.35064" lon="6.15605">
        <ele>1530.2205</ele>
        <time>2021-07-18T17:23:53</time>
      </trkpt>
      <trkpt lat="45.35064" lon="6.15603">
        <ele>1530.2205</ele>
        <time>2021-07-18T17:23:55</time>
      </trkpt>
      <trkpt lat="45.35066" lon="6.15601">
        <ele>1530.2205</ele>
        <time>2021-07-18T17:23:58</time>
      </trkpt>
      <trkpt lat="45.35069" lon="6.15597">
        <ele>1533.3204</ele>
        <time>2021-07-18T17:24:02</time>
      </trkpt>
      <trkpt lat="45.35069" lon="6.15596">
        <ele>1533.3204</ele>
        <time>2021-07-18T17:24:04</time>
      </trkpt>
      <trkpt lat="45.35068" lon="6.15596">
        <ele>1533.3204</ele>
        <time>2021-07-18T17:24:08</time>
      </trkpt>
      <trkpt lat="45.35069" lon="6.15595">
        <ele>1533.3204</ele>
        <time>2021-07-18T17:24:09</time>
      </trkpt>
      <trkpt lat="45.35069" lon="6.15595">
        <ele>1533.3204</ele>
        <time>2021-07-18T17:24:10</time>
      </trkpt>
      <trkpt lat="45.3507" lon="6.15592">
        <ele>1536.2205</ele>
        <time>2021-07-18T17:24:13</time>
      </trkpt>
      <trkpt lat="45.35071" lon="6.15588">
        <ele>1536.2205</ele>
        <time>2021-07-18T17:24:16</time>
      </trkpt>
      <trkpt lat="45.35072" lon="6.15586">
        <ele>1536.2205</ele>
        <time>2021-07-18T17:24:18</time>
      </trkpt>
      <trkpt lat="45.35072" lon="6.15576">
        <ele>1539.0204</ele>
        <time>2021-07-18T17:24:27</time>
      </trkpt>
      <trkpt lat="45.35072" lon="6.15569">
        <ele>1540.2205</ele>
        <time>2021-07-18T17:24:33</time>
      </trkpt>
      <trkpt lat="45.35073" lon="6.15568">
        <ele>1540.2205</ele>
        <time>2021-07-18T17:24:35</time>
      </trkpt>
      <trkpt lat="45.35075" lon="6.15563">
        <ele>1534.6205</ele>
        <time>2021-07-18T17:24:41</time>
      </trkpt>
      <trkpt lat="45.35073" lon="6.15563">
        <ele>1533.0204</ele>
        <time>2021-07-18T17:25:15</time>
      </trkpt>
      <trkpt lat="45.35073" lon="6.15562">
        <ele>1533.0204</ele>
        <time>2021-07-18T17:25:26</time>
      </trkpt>
      <trkpt lat="45.35074" lon="6.15561">
        <ele>1533.0204</ele>
        <time>2021-07-18T17:25:27</time>
      </trkpt>
      <trkpt lat="45.35074" lon="6.15561">
        <ele>1533.0204</ele>
        <time>2021-07-18T17:25:28</time>
      </trkpt>
      <trkpt lat="45.35074" lon="6.1556">
        <ele>1533.0204</ele>
        <time>2021-07-18T17:25:30</time>
      </trkpt>
      <trkpt lat="45.35075" lon="6.1556">
        <ele>1532.9204</ele>
        <time>2021-07-18T17:25:33</time>
      </trkpt>
      <trkpt lat="45.35075" lon="6.1556">
        <ele>1532.9204</ele>
        <time>2021-07-18T17:25:35</time>
      </trkpt>
      <trkpt lat="45.35075" lon="6.1556">
        <ele>1532.9204</ele>
        <time>2021-07-18T17:25:36</time>
      </trkpt>
      <trkpt lat="45.35077" lon="6.1556">
        <ele>1532.9204</ele>
        <time>2021-07-18T17:25:40</time>
      </trkpt>
      <trkpt lat="45.35079" lon="6.1556">
        <ele>1530.5204</ele>
        <time>2021-07-18T17:25:43</time>
      </trkpt>
      <trkpt lat="45.35081" lon="6.15563">
        <ele>1530.5204</ele>
        <time>2021-07-18T17:25:46</time>
      </trkpt>
      <trkpt lat="45.35081" lon="6.15563">
        <ele>1530.5204</ele>
        <time>2021-07-18T17:25:50</time>
      </trkpt>
      <trkpt lat="45.35083" lon="6.15565">
        <ele>1528.6205</ele>
        <time>2021-07-18T17:25:53</time>
      </trkpt>
      <trkpt lat="45.35084" lon="6.15565">
        <ele>1528.6205</ele>
        <time>2021-07-18T17:25:54</time>
      </trkpt>
      <trkpt lat="45.35086" lon="6.15567">
        <ele>1528.6205</ele>
        <time>2021-07-18T17:25:57</time>
      </trkpt>
      <trkpt lat="45.35087" lon="6.15567">
        <ele>1528.6205</ele>
        <time>2021-07-18T17:25:58</time>
      </trkpt>
      <trkpt lat="45.35087" lon="6.15568">
        <ele>1528.6205</ele>
        <time>2021-07-18T17:25:59</time>
      </trkpt>
      <trkpt lat="45.35089" lon="6.15568">
        <ele>1528.6205</ele>
        <time>2021-07-18T17:26:06</time>
      </trkpt>
      <trkpt lat="45.35089" lon="6.15569">
        <ele>1528.6205</ele>
        <time>2021-07-18T17:26:07</time>
      </trkpt>
      <trkpt lat="45.35089" lon="6.15568">
        <ele>1528.6205</ele>
        <time>2021-07-18T17:26:08</time>
      </trkpt>
      <trkpt lat="45.3509" lon="6.15568">
        <ele>1528.6205</ele>
        <time>2021-07-18T17:26:09</time>
      </trkpt>
      <trkpt lat="45.3509" lon="6.15568">
        <ele>1527.7205</ele>
        <time>2021-07-18T17:26:12</time>
      </trkpt>
      <trkpt lat="45.35091" lon="6.15569">
        <ele>1527.7205</ele>
        <time>2021-07-18T17:26:13</time>
      </trkpt>
      <trkpt lat="45.35092" lon="6.15571">
        <ele>1527.7205</ele>
        <time>2021-07-18T17:26:15</time>
      </trkpt>
      <trkpt lat="45.35093" lon="6.15571">
        <ele>1527.7205</ele>
        <time>2021-07-18T17:26:18</time>
      </trkpt>
      <trkpt lat="45.35093" lon="6.15571">
        <ele>1527.7205</ele>
        <time>2021-07-18T17:26:19</time>
      </trkpt>
      <trkpt lat="45.35094" lon="6.15572">
        <ele>1527.7205</ele>
        <time>2021-07-18T17:26:20</time>
      </trkpt>
      <trkpt lat="45.35094" lon="6.15572">
        <ele>1527.5204</ele>
        <time>2021-07-18T17:26:21</time>
      </trkpt>
      <trkpt lat="45.35095" lon="6.15572">
        <ele>1527.5204</ele>
        <time>2021-07-18T17:26:22</time>
      </trkpt>
      <trkpt lat="45.35095" lon="6.15572">
        <ele>1527.5204</ele>
        <time>2021-07-18T17:26:23</time>
      </trkpt>
      <trkpt lat="45.35096" lon="6.15572">
        <ele>1527.5204</ele>
        <time>2021-07-18T17:26:24</time>
      </trkpt>
      <trkpt lat="45.35098" lon="6.1557">
        <ele>1527.5204</ele>
        <time>2021-07-18T17:26:28</time>
      </trkpt>
      <trkpt lat="45.351" lon="6.15567">
        <ele>1529.7205</ele>
        <time>2021-07-18T17:26:35</time>
      </trkpt>
      <trkpt lat="45.35101" lon="6.15566">
        <ele>1529.7205</ele>
        <time>2021-07-18T17:26:36</time>
      </trkpt>
      <trkpt lat="45.35102" lon="6.15563">
        <ele>1529.7205</ele>
        <time>2021-07-18T17:26:40</time>
      </trkpt>
      <trkpt lat="45.35104" lon="6.15556">
        <ele>1530.7205</ele>
        <time>2021-07-18T17:26:47</time>
      </trkpt>
      <trkpt lat="45.35105" lon="6.15552">
        <ele>1530.8538</ele>
        <time>2021-07-18T17:26:51</time>
      </trkpt>
      <trkpt lat="45.35106" lon="6.1555">
        <ele>1530.8538</ele>
        <time>2021-07-18T17:26:54</time>
      </trkpt>
      <trkpt lat="45.35107" lon="6.15549">
        <ele>1530.8538</ele>
        <time>2021-07-18T17:26:56</time>
      </trkpt>
      <trkpt lat="45.35109" lon="6.15545">
        <ele>1530.8538</ele>
        <time>2021-07-18T17:27:00</time>
      </trkpt>
      <trkpt lat="45.3511" lon="6.15543">
        <ele>1530.5204</ele>
        <time>2021-07-18T17:27:02</time>
      </trkpt>
      <trkpt lat="45.35111" lon="6.15537">
        <ele>1530.5204</ele>
        <time>2021-07-18T17:27:07</time>
      </trkpt>
      <trkpt lat="45.35112" lon="6.15535">
        <ele>1530.5204</ele>
        <time>2021-07-18T17:27:10</time>
      </trkpt>
      <trkpt lat="45.35112" lon="6.15535">
        <ele>1530.0204</ele>
        <time>2021-07-18T17:27:11</time>
      </trkpt>
      <trkpt lat="45.35113" lon="6.15534">
        <ele>1530.0204</ele>
        <time>2021-07-18T17:27:12</time>
      </trkpt>
      <trkpt lat="45.35114" lon="6.15531">
        <ele>1530.0204</ele>
        <time>2021-07-18T17:27:16</time>
      </trkpt>
      <trkpt lat="45.35118" lon="6.15525">
        <ele>1528.7205</ele>
        <time>2021-07-18T17:27:23</time>
      </trkpt>
      <trkpt lat="45.35121" lon="6.15523">
        <ele>1528.7205</ele>
        <time>2021-07-18T17:27:28</time>
      </trkpt>
      <trkpt lat="45.35121" lon="6.15523">
        <ele>1528.7205</ele>
        <time>2021-07-18T17:27:29</time>
      </trkpt>
      <trkpt lat="45.35121" lon="6.15522">
        <ele>1528.7205</ele>
        <time>2021-07-18T17:27:30</time>
      </trkpt>
      <trkpt lat="45.35121" lon="6.15518">
        <ele>1531.4204</ele>
        <time>2021-07-18T17:27:35</time>
      </trkpt>
      <trkpt lat="45.35122" lon="6.15515">
        <ele>1531.4204</ele>
        <time>2021-07-18T17:27:37</time>
      </trkpt>
      <trkpt lat="45.35123" lon="6.1551">
        <ele>1531.2205</ele>
        <time>2021-07-18T17:27:44</time>
      </trkpt>
      <trkpt lat="45.35123" lon="6.15509">
        <ele>1531.2205</ele>
        <time>2021-07-18T17:27:45</time>
      </trkpt>
      <trkpt lat="45.35124" lon="6.15508">
        <ele>1531.2205</ele>
        <time>2021-07-18T17:27:46</time>
      </trkpt>
      <trkpt lat="45.35126" lon="6.15506">
        <ele>1531.2205</ele>
        <time>2021-07-18T17:27:49</time>
      </trkpt>
      <trkpt lat="45.35131" lon="6.155">
        <ele>1527.7205</ele>
        <time>2021-07-18T17:27:56</time>
      </trkpt>
      <trkpt lat="45.3513" lon="6.15496">
        <ele>1528.6205</ele>
        <time>2021-07-18T17:28:02</time>
      </trkpt>
      <trkpt lat="45.35135" lon="6.15488">
        <ele>1528.6205</ele>
        <time>2021-07-18T17:28:09</time>
      </trkpt>
      <trkpt lat="45.35141" lon="6.15481">
        <ele>1529.9204</ele>
        <time>2021-07-18T17:28:18</time>
      </trkpt>
      <trkpt lat="45.35144" lon="6.15479">
        <ele>1524.5204</ele>
        <time>2021-07-18T17:28:21</time>
      </trkpt>
      <trkpt lat="45.35147" lon="6.15478">
        <ele>1524.5204</ele>
        <time>2021-07-18T17:28:24</time>
      </trkpt>
      <trkpt lat="45.35149" lon="6.15477">
        <ele>1524.5204</ele>
        <time>2021-07-18T17:28:27</time>
      </trkpt>
      <trkpt lat="45.35153" lon="6.15471">
        <ele>1520.3204</ele>
        <time>2021-07-18T17:28:37</time>
      </trkpt>
      <trkpt lat="45.35157" lon="6.15463">
        <ele>1521.0204</ele>
        <time>2021-07-18T17:28:45</time>
      </trkpt>
      <trkpt lat="45.35157" lon="6.15461">
        <ele>1521.0204</ele>
        <time>2021-07-18T17:28:47</time>
      </trkpt>
      <trkpt lat="45.35158" lon="6.15459">
        <ele>1521.0204</ele>
        <time>2021-07-18T17:28:49</time>
      </trkpt>
      <trkpt lat="45.35159" lon="6.15456">
        <ele>1519.7205</ele>
        <time>2021-07-18T17:28:52</time>
      </trkpt>
      <trkpt lat="45.35161" lon="6.15453">
        <ele>1519.7205</ele>
        <time>2021-07-18T17:28:55</time>
      </trkpt>
      <trkpt lat="45.35163" lon="6.1545">
        <ele>1519.7205</ele>
        <time>2021-07-18T17:28:59</time>
      </trkpt>
      <trkpt lat="45.35165" lon="6.15449">
        <ele>1514.1205</ele>
        <time>2021-07-18T17:29:01</time>
      </trkpt>
      <trkpt lat="45.35166" lon="6.15446">
        <ele>1514.1205</ele>
        <time>2021-07-18T17:29:04</time>
      </trkpt>
      <trkpt lat="45.35168" lon="6.15444">
        <ele>1514.1205</ele>
        <time>2021-07-18T17:29:07</time>
      </trkpt>
      <trkpt lat="45.35172" lon="6.15443">
        <ele>1512.1205</ele>
        <time>2021-07-18T17:29:11</time>
      </trkpt>
      <trkpt lat="45.35174" lon="6.15443">
        <ele>1512.1205</ele>
        <time>2021-07-18T17:29:14</time>
      </trkpt>
      <trkpt lat="45.35176" lon="6.1544">
        <ele>1512.1205</ele>
        <time>2021-07-18T17:29:19</time>
      </trkpt>
      <trkpt lat="45.35178" lon="6.15438">
        <ele>1511.5204</ele>
        <time>2021-07-18T17:29:22</time>
      </trkpt>
      <trkpt lat="45.35179" lon="6.15434">
        <ele>1511.5204</ele>
        <time>2021-07-18T17:29:25</time>
      </trkpt>
      <trkpt lat="45.35179" lon="6.15429">
        <ele>1511.5204</ele>
        <time>2021-07-18T17:29:28</time>
      </trkpt>
      <trkpt lat="45.3518" lon="6.15423">
        <ele>1511.9204</ele>
        <time>2021-07-18T17:29:32</time>
      </trkpt>
      <trkpt lat="45.35181" lon="6.15421">
        <ele>1511.9204</ele>
        <time>2021-07-18T17:29:34</time>
      </trkpt>
      <trkpt lat="45.35183" lon="6.15417">
        <ele>1511.9204</ele>
        <time>2021-07-18T17:29:38</time>
      </trkpt>
      <trkpt lat="45.35184" lon="6.15415">
        <ele>1513.4204</ele>
        <time>2021-07-18T17:29:41</time>
      </trkpt>
      <trkpt lat="45.35185" lon="6.15413">
        <ele>1513.4204</ele>
        <time>2021-07-18T17:29:45</time>
      </trkpt>
      <trkpt lat="45.35187" lon="6.15413">
        <ele>1513.4204</ele>
        <time>2021-07-18T17:29:48</time>
      </trkpt>
      <trkpt lat="45.35188" lon="6.15413">
        <ele>1513.4204</ele>
        <time>2021-07-18T17:29:50</time>
      </trkpt>
      <trkpt lat="45.35189" lon="6.15413">
        <ele>1517.0204</ele>
        <time>2021-07-18T17:29:53</time>
      </trkpt>
      <trkpt lat="45.35191" lon="6.15409">
        <ele>1517.0204</ele>
        <time>2021-07-18T17:29:57</time>
      </trkpt>
      <trkpt lat="45.35193" lon="6.15408">
        <ele>1517.0204</ele>
        <time>2021-07-18T17:29:59</time>
      </trkpt>
      <trkpt lat="45.35195" lon="6.15407">
        <ele>1516.2205</ele>
        <time>2021-07-18T17:30:03</time>
      </trkpt>
      <trkpt lat="45.35196" lon="6.15406">
        <ele>1516.2205</ele>
        <time>2021-07-18T17:30:05</time>
      </trkpt>
      <trkpt lat="45.35201" lon="6.154">
        <ele>1519.1205</ele>
        <time>2021-07-18T17:30:13</time>
      </trkpt>
      <trkpt lat="45.35202" lon="6.15399">
        <ele>1519.1205</ele>
        <time>2021-07-18T17:30:14</time>
      </trkpt>
      <trkpt lat="45.35202" lon="6.15399">
        <ele>1519.1205</ele>
        <time>2021-07-18T17:30:15</time>
      </trkpt>
      <trkpt lat="45.35205" lon="6.15393">
        <ele>1519.1205</ele>
        <time>2021-07-18T17:30:20</time>
      </trkpt>
      <trkpt lat="45.35209" lon="6.15389">
        <ele>1522.3204</ele>
        <time>2021-07-18T17:30:25</time>
      </trkpt>
      <trkpt lat="45.35214" lon="6.15385">
        <ele>1523.8204</ele>
        <time>2021-07-18T17:30:32</time>
      </trkpt>
      <trkpt lat="45.35215" lon="6.15383">
        <ele>1523.8204</ele>
        <time>2021-07-18T17:30:34</time>
      </trkpt>
      <trkpt lat="45.35216" lon="6.1538">
        <ele>1523.8204</ele>
        <time>2021-07-18T17:30:38</time>
      </trkpt>
      <trkpt lat="45.35217" lon="6.15374">
        <ele>1524.0537</ele>
        <time>2021-07-18T17:30:43</time>
      </trkpt>
      <trkpt lat="45.35221" lon="6.1537">
        <ele>1524.0537</ele>
        <time>2021-07-18T17:30:47</time>
      </trkpt>
      <trkpt lat="45.35223" lon="6.15368">
        <ele>1524.0537</ele>
        <time>2021-07-18T17:30:49</time>
      </trkpt>
      <trkpt lat="45.35224" lon="6.15367">
        <ele>1523.4204</ele>
        <time>2021-07-18T17:30:51</time>
      </trkpt>
      <trkpt lat="45.35227" lon="6.15366">
        <ele>1523.4204</ele>
        <time>2021-07-18T17:30:54</time>
      </trkpt>
      <trkpt lat="45.35228" lon="6.15365">
        <ele>1523.4204</ele>
        <time>2021-07-18T17:30:56</time>
      </trkpt>
      <trkpt lat="45.35231" lon="6.15362">
        <ele>1523.4204</ele>
        <time>2021-07-18T17:31:00</time>
      </trkpt>
      <trkpt lat="45.35236" lon="6.15359">
        <ele>1526.1205</ele>
        <time>2021-07-18T17:31:05</time>
      </trkpt>
      <trkpt lat="45.35241" lon="6.15356">
        <ele>1523.1205</ele>
        <time>2021-07-18T17:31:11</time>
      </trkpt>
      <trkpt lat="45.3524" lon="6.15356">
        <ele>1523.1205</ele>
        <time>2021-07-18T17:31:13</time>
      </trkpt>
      <trkpt lat="45.35243" lon="6.15355">
        <ele>1523.1205</ele>
        <time>2021-07-18T17:31:17</time>
      </trkpt>
      <trkpt lat="45.35244" lon="6.15355">
        <ele>1523.1205</ele>
        <time>2021-07-18T17:31:18</time>
      </trkpt>
      <trkpt lat="45.35244" lon="6.15355">
        <ele>1523.1205</ele>
        <time>2021-07-18T17:31:19</time>
      </trkpt>
      <trkpt lat="45.35243" lon="6.15356">
        <ele>1523.4204</ele>
        <time>2021-07-18T17:31:25</time>
      </trkpt>
      <trkpt lat="45.35244" lon="6.15355">
        <ele>1523.4204</ele>
        <time>2021-07-18T17:31:26</time>
      </trkpt>
      <trkpt lat="45.35245" lon="6.15355">
        <ele>1523.4204</ele>
        <time>2021-07-18T17:31:30</time>
      </trkpt>
      <trkpt lat="45.35246" lon="6.15354">
        <ele>1525.4204</ele>
        <time>2021-07-18T17:31:33</time>
      </trkpt>
      <trkpt lat="45.35247" lon="6.15353">
        <ele>1525.4204</ele>
        <time>2021-07-18T17:31:35</time>
      </trkpt>
      <trkpt lat="45.35246" lon="6.15352">
        <ele>1525.4204</ele>
        <time>2021-07-18T17:31:37</time>
      </trkpt>
      <trkpt lat="45.35245" lon="6.15349">
        <ele>1525.2538</ele>
        <time>2021-07-18T17:31:42</time>
      </trkpt>
      <trkpt lat="45.35247" lon="6.15348">
        <ele>1525.2538</ele>
        <time>2021-07-18T17:31:44</time>
      </trkpt>
      <trkpt lat="45.35248" lon="6.15347">
        <ele>1525.2538</ele>
        <time>2021-07-18T17:31:50</time>
      </trkpt>
      <trkpt lat="45.35252" lon="6.15344">
        <ele>1522.7205</ele>
        <time>2021-07-18T17:31:55</time>
      </trkpt>
      <trkpt lat="45.35252" lon="6.15343">
        <ele>1522.7205</ele>
        <time>2021-07-18T17:31:57</time>
      </trkpt>
      <trkpt lat="45.35253" lon="6.15342">
        <ele>1522.7205</ele>
        <time>2021-07-18T17:31:59</time>
      </trkpt>
      <trkpt lat="45.3526" lon="6.15338">
        <ele>1526.4204</ele>
        <time>2021-07-18T17:32:09</time>
      </trkpt>
      <trkpt lat="45.35264" lon="6.15333">
        <ele>1525.3204</ele>
        <time>2021-07-18T17:32:18</time>
      </trkpt>
      <trkpt lat="45.35265" lon="6.1533">
        <ele>1524.6205</ele>
        <time>2021-07-18T17:32:25</time>
      </trkpt>
      <trkpt lat="45.35266" lon="6.15328">
        <ele>1524.6205</ele>
        <time>2021-07-18T17:32:29</time>
      </trkpt>
      <trkpt lat="45.35269" lon="6.15323">
        <ele>1520.6205</ele>
        <time>2021-07-18T17:32:38</time>
      </trkpt>
      <trkpt lat="45.35272" lon="6.15323">
        <ele>1522.6205</ele>
        <time>2021-07-18T17:33:07</time>
      </trkpt>
      <trkpt lat="45.35271" lon="6.15322">
        <ele>1522.6205</ele>
        <time>2021-07-18T17:33:08</time>
      </trkpt>
      <trkpt lat="45.35272" lon="6.15322">
        <ele>1522.6205</ele>
        <time>2021-07-18T17:33:10</time>
      </trkpt>
      <trkpt lat="45.35272" lon="6.15322">
        <ele>1522.6205</ele>
        <time>2021-07-18T17:33:11</time>
      </trkpt>
      <trkpt lat="45.35276" lon="6.15324">
        <ele>1522.6205</ele>
        <time>2021-07-18T17:33:15</time>
      </trkpt>
      <trkpt lat="45.35277" lon="6.15323">
        <ele>1522.6205</ele>
        <time>2021-07-18T17:33:16</time>
      </trkpt>
      <trkpt lat="45.35277" lon="6.15323">
        <ele>1522.6205</ele>
        <time>2021-07-18T17:33:17</time>
      </trkpt>
      <trkpt lat="45.35278" lon="6.15323">
        <ele>1522.6205</ele>
        <time>2021-07-18T17:33:18</time>
      </trkpt>
      <trkpt lat="45.35279" lon="6.15323">
        <ele>1522.6205</ele>
        <time>2021-07-18T17:33:19</time>
      </trkpt>
      <trkpt lat="45.3528" lon="6.15324">
        <ele>1522.6205</ele>
        <time>2021-07-18T17:33:20</time>
      </trkpt>
      <trkpt lat="45.35281" lon="6.15325">
        <ele>1521.2205</ele>
        <time>2021-07-18T17:33:21</time>
      </trkpt>
      <trkpt lat="45.35281" lon="6.15325">
        <ele>1521.2205</ele>
        <time>2021-07-18T17:33:22</time>
      </trkpt>
      <trkpt lat="45.35283" lon="6.15326">
        <ele>1521.2205</ele>
        <time>2021-07-18T17:33:25</time>
      </trkpt>
      <trkpt lat="45.35284" lon="6.15327">
        <ele>1521.2205</ele>
        <time>2021-07-18T17:33:26</time>
      </trkpt>
      <trkpt lat="45.35285" lon="6.15327">
        <ele>1521.2205</ele>
        <time>2021-07-18T17:33:27</time>
      </trkpt>
      <trkpt lat="45.35285" lon="6.15327">
        <ele>1521.2205</ele>
        <time>2021-07-18T17:33:28</time>
      </trkpt>
      <trkpt lat="45.35286" lon="6.15327">
        <ele>1521.2205</ele>
        <time>2021-07-18T17:33:29</time>
      </trkpt>
      <trkpt lat="45.35287" lon="6.15327">
        <ele>1521.2205</ele>
        <time>2021-07-18T17:33:30</time>
      </trkpt>
      <trkpt lat="45.35287" lon="6.15327">
        <ele>1519.4204</ele>
        <time>2021-07-18T17:33:31</time>
      </trkpt>
      <trkpt lat="45.35288" lon="6.15327">
        <ele>1519.4204</ele>
        <time>2021-07-18T17:33:33</time>
      </trkpt>
      <trkpt lat="45.35289" lon="6.15327">
        <ele>1519.4204</ele>
        <time>2021-07-18T17:33:34</time>
      </trkpt>
      <trkpt lat="45.35289" lon="6.15327">
        <ele>1519.4204</ele>
        <time>2021-07-18T17:33:35</time>
      </trkpt>
      <trkpt lat="45.3529" lon="6.15327">
        <ele>1519.4204</ele>
        <time>2021-07-18T17:33:36</time>
      </trkpt>
      <trkpt lat="45.3529" lon="6.15327">
        <ele>1519.4204</ele>
        <time>2021-07-18T17:33:38</time>
      </trkpt>
      <trkpt lat="45.35291" lon="6.15326">
        <ele>1519.4204</ele>
        <time>2021-07-18T17:33:39</time>
      </trkpt>
      <trkpt lat="45.35291" lon="6.1532">
        <ele>1516.9204</ele>
        <time>2021-07-18T17:33:49</time>
      </trkpt>
      <trkpt lat="45.35292" lon="6.15318">
        <ele>1513.5204</ele>
        <time>2021-07-18T17:33:51</time>
      </trkpt>
      <trkpt lat="45.35292" lon="6.15318">
        <ele>1513.5204</ele>
        <time>2021-07-18T17:33:52</time>
      </trkpt>
      <trkpt lat="45.35293" lon="6.15315">
        <ele>1513.5204</ele>
        <time>2021-07-18T17:33:54</time>
      </trkpt>
      <trkpt lat="45.35295" lon="6.15313">
        <ele>1513.5204</ele>
        <time>2021-07-18T17:33:56</time>
      </trkpt>
      <trkpt lat="45.35297" lon="6.1531">
        <ele>1513.5204</ele>
        <time>2021-07-18T17:34:04</time>
      </trkpt>
      <trkpt lat="45.35297" lon="6.1531">
        <ele>1513.5204</ele>
        <time>2021-07-18T17:34:05</time>
      </trkpt>
      <trkpt lat="45.353" lon="6.15309">
        <ele>1513.5204</ele>
        <time>2021-07-18T17:34:08</time>
      </trkpt>
      <trkpt lat="45.35303" lon="6.15308">
        <ele>1513.5204</ele>
        <time>2021-07-18T17:34:10</time>
      </trkpt>
      <trkpt lat="45.35305" lon="6.15307">
        <ele>1513.5204</ele>
        <time>2021-07-18T17:34:11</time>
      </trkpt>
      <trkpt lat="45.35306" lon="6.15306">
        <ele>1513.5204</ele>
        <time>2021-07-18T17:34:12</time>
      </trkpt>
      <trkpt lat="45.35307" lon="6.15306">
        <ele>1513.5204</ele>
        <time>2021-07-18T17:34:13</time>
      </trkpt>
      <trkpt lat="45.35309" lon="6.15304">
        <ele>1513.5204</ele>
        <time>2021-07-18T17:34:15</time>
      </trkpt>
      <trkpt lat="45.35311" lon="6.15304">
        <ele>1513.5204</ele>
        <time>2021-07-18T17:34:17</time>
      </trkpt>
      <trkpt lat="45.35315" lon="6.15304">
        <ele>1513.5204</ele>
        <time>2021-07-18T17:34:20</time>
      </trkpt>
      <trkpt lat="45.3532" lon="6.15302">
        <ele>1513.5204</ele>
        <time>2021-07-18T17:34:26</time>
      </trkpt>
      <trkpt lat="45.35323" lon="6.15301">
        <ele>1513.5204</ele>
        <time>2021-07-18T17:34:35</time>
      </trkpt>
      <trkpt lat="45.35324" lon="6.15301">
        <ele>1513.5204</ele>
        <time>2021-07-18T17:34:36</time>
      </trkpt>
      <trkpt lat="45.35325" lon="6.15302">
        <ele>1513.5204</ele>
        <time>2021-07-18T17:34:38</time>
      </trkpt>
      <trkpt lat="45.35326" lon="6.153">
        <ele>1513.5204</ele>
        <time>2021-07-18T17:34:41</time>
      </trkpt>
      <trkpt lat="45.35327" lon="6.15298">
        <ele>1513.5204</ele>
        <time>2021-07-18T17:34:47</time>
      </trkpt>
      <trkpt lat="45.35327" lon="6.15297">
        <ele>1513.5204</ele>
        <time>2021-07-18T17:34:48</time>
      </trkpt>
      <trkpt lat="45.35328" lon="6.15297">
        <ele>1513.5204</ele>
        <time>2021-07-18T17:34:49</time>
      </trkpt>
      <trkpt lat="45.3533" lon="6.15297">
        <ele>1513.5204</ele>
        <time>2021-07-18T17:34:51</time>
      </trkpt>
      <trkpt lat="45.3533" lon="6.15298">
        <ele>1513.5204</ele>
        <time>2021-07-18T17:34:52</time>
      </trkpt>
      <trkpt lat="45.35332" lon="6.15298">
        <ele>1513.5204</ele>
        <time>2021-07-18T17:34:56</time>
      </trkpt>
      <trkpt lat="45.35332" lon="6.15298">
        <ele>1513.5204</ele>
        <time>2021-07-18T17:34:57</time>
      </trkpt>
      <trkpt lat="45.35333" lon="6.15296">
        <ele>1513.5204</ele>
        <time>2021-07-18T17:35:00</time>
      </trkpt>
      <trkpt lat="45.35338" lon="6.15292">
        <ele>1513.5204</ele>
        <time>2021-07-18T17:35:08</time>
      </trkpt>
      <trkpt lat="45.35339" lon="6.15292">
        <ele>1513.5204</ele>
        <time>2021-07-18T17:35:15</time>
      </trkpt>
      <trkpt lat="45.35347" lon="6.15291">
        <ele>1511.2205</ele>
        <time>2021-07-18T17:35:23</time>
      </trkpt>
      <trkpt lat="45.35348" lon="6.15292">
        <ele>1511.2205</ele>
        <time>2021-07-18T17:35:24</time>
      </trkpt>
      <trkpt lat="45.35348" lon="6.15292">
        <ele>1511.2205</ele>
        <time>2021-07-18T17:35:25</time>
      </trkpt>
      <trkpt lat="45.35349" lon="6.15292">
        <ele>1511.2205</ele>
        <time>2021-07-18T17:35:28</time>
      </trkpt>
      <trkpt lat="45.35351" lon="6.1529">
        <ele>1507.3204</ele>
        <time>2021-07-18T17:35:31</time>
      </trkpt>
      <trkpt lat="45.35351" lon="6.15289">
        <ele>1507.3204</ele>
        <time>2021-07-18T17:35:33</time>
      </trkpt>
      <trkpt lat="45.35354" lon="6.15285">
        <ele>1507.3204</ele>
        <time>2021-07-18T17:35:39</time>
      </trkpt>
      <trkpt lat="45.35355" lon="6.15285">
        <ele>1507.3204</ele>
        <time>2021-07-18T17:35:40</time>
      </trkpt>
      <trkpt lat="45.35356" lon="6.15285">
        <ele>1504.0204</ele>
        <time>2021-07-18T17:35:43</time>
      </trkpt>
      <trkpt lat="45.35357" lon="6.15285">
        <ele>1504.0204</ele>
        <time>2021-07-18T17:35:45</time>
      </trkpt>
      <trkpt lat="45.35357" lon="6.15284">
        <ele>1504.0204</ele>
        <time>2021-07-18T17:35:50</time>
      </trkpt>
      <trkpt lat="45.35358" lon="6.15282">
        <ele>1503.4204</ele>
        <time>2021-07-18T17:35:53</time>
      </trkpt>
      <trkpt lat="45.3536" lon="6.15281">
        <ele>1503.4204</ele>
        <time>2021-07-18T17:35:57</time>
      </trkpt>
      <trkpt lat="45.3536" lon="6.15279">
        <ele>1503.4204</ele>
        <time>2021-07-18T17:35:58</time>
      </trkpt>
      <trkpt lat="45.35362" lon="6.15279">
        <ele>1502.5204</ele>
        <time>2021-07-18T17:36:02</time>
      </trkpt>
      <trkpt lat="45.35362" lon="6.15279">
        <ele>1502.5204</ele>
        <time>2021-07-18T17:36:03</time>
      </trkpt>
      <trkpt lat="45.35363" lon="6.15279">
        <ele>1502.3204</ele>
        <time>2021-07-18T17:36:13</time>
      </trkpt>
      <trkpt lat="45.35363" lon="6.15278">
        <ele>1502.3204</ele>
        <time>2021-07-18T17:36:15</time>
      </trkpt>
      <trkpt lat="45.35364" lon="6.15275">
        <ele>1501.3204</ele>
        <time>2021-07-18T17:36:26</time>
      </trkpt>
      <trkpt lat="45.35363" lon="6.15273">
        <ele>1503.1205</ele>
        <time>2021-07-18T17:36:31</time>
      </trkpt>
      <trkpt lat="45.35364" lon="6.1527">
        <ele>1503.1205</ele>
        <time>2021-07-18T17:36:35</time>
      </trkpt>
      <trkpt lat="45.35364" lon="6.1527">
        <ele>1503.1205</ele>
        <time>2021-07-18T17:36:36</time>
      </trkpt>
      <trkpt lat="45.35363" lon="6.1527">
        <ele>1503.1205</ele>
        <time>2021-07-18T17:36:37</time>
      </trkpt>
      <trkpt lat="45.35363" lon="6.15269">
        <ele>1497.2205</ele>
        <time>2021-07-18T17:36:41</time>
      </trkpt>
      <trkpt lat="45.35364" lon="6.15267">
        <ele>1497.2205</ele>
        <time>2021-07-18T17:36:48</time>
      </trkpt>
      <trkpt lat="45.35364" lon="6.15267">
        <ele>1497.2205</ele>
        <time>2021-07-18T17:36:49</time>
      </trkpt>
      <trkpt lat="45.35365" lon="6.15266">
        <ele>1495.9204</ele>
        <time>2021-07-18T17:36:53</time>
      </trkpt>
      <trkpt lat="45.35365" lon="6.15266">
        <ele>1495.9204</ele>
        <time>2021-07-18T17:36:54</time>
      </trkpt>
      <trkpt lat="45.35366" lon="6.15265">
        <ele>1495.9204</ele>
        <time>2021-07-18T17:36:55</time>
      </trkpt>
      <trkpt lat="45.35367" lon="6.15264">
        <ele>1495.9204</ele>
        <time>2021-07-18T17:36:57</time>
      </trkpt>
      <trkpt lat="45.35368" lon="6.15263">
        <ele>1495.9204</ele>
        <time>2021-07-18T17:36:58</time>
      </trkpt>
      <trkpt lat="45.35371" lon="6.15262">
        <ele>1500.5204</ele>
        <time>2021-07-18T17:37:01</time>
      </trkpt>
      <trkpt lat="45.35374" lon="6.15262">
        <ele>1500.5204</ele>
        <time>2021-07-18T17:37:03</time>
      </trkpt>
      <trkpt lat="45.35374" lon="6.15261">
        <ele>1500.5204</ele>
        <time>2021-07-18T17:37:05</time>
      </trkpt>
      <trkpt lat="45.35375" lon="6.15261">
        <ele>1500.5204</ele>
        <time>2021-07-18T17:37:08</time>
      </trkpt>
      <trkpt lat="45.35376" lon="6.15261">
        <ele>1500.5204</ele>
        <time>2021-07-18T17:37:09</time>
      </trkpt>
      <trkpt lat="45.35379" lon="6.1526">
        <ele>1502.1205</ele>
        <time>2021-07-18T17:37:14</time>
      </trkpt>
      <trkpt lat="45.35379" lon="6.15258">
        <ele>1502.1205</ele>
        <time>2021-07-18T17:37:21</time>
      </trkpt>
      <trkpt lat="45.3538" lon="6.15257">
        <ele>1502.1205</ele>
        <time>2021-07-18T17:37:22</time>
      </trkpt>
      <trkpt lat="45.3538" lon="6.15256">
        <ele>1502.1205</ele>
        <time>2021-07-18T17:37:23</time>
      </trkpt>
      <trkpt lat="45.3538" lon="6.15255">
        <ele>1502.1205</ele>
        <time>2021-07-18T17:37:24</time>
      </trkpt>
      <trkpt lat="45.35383" lon="6.15254">
        <ele>1497.5204</ele>
        <time>2021-07-18T17:37:36</time>
      </trkpt>
      <trkpt lat="45.35383" lon="6.15252">
        <ele>1497.5204</ele>
        <time>2021-07-18T17:37:37</time>
      </trkpt>
      <trkpt lat="45.35384" lon="6.15252">
        <ele>1497.5204</ele>
        <time>2021-07-18T17:37:38</time>
      </trkpt>
      <trkpt lat="45.35386" lon="6.15249">
        <ele>1496.0204</ele>
        <time>2021-07-18T17:37:44</time>
      </trkpt>
      <trkpt lat="45.35388" lon="6.15247">
        <ele>1496.0204</ele>
        <time>2021-07-18T17:37:48</time>
      </trkpt>
      <trkpt lat="45.35389" lon="6.15245">
        <ele>1488.9204</ele>
        <time>2021-07-18T17:37:52</time>
      </trkpt>
      <trkpt lat="45.35389" lon="6.15244">
        <ele>1488.9204</ele>
        <time>2021-07-18T17:37:53</time>
      </trkpt>
      <trkpt lat="45.35389" lon="6.15243">
        <ele>1488.9204</ele>
        <time>2021-07-18T17:37:54</time>
      </trkpt>
      <trkpt lat="45.35389" lon="6.15241">
        <ele>1488.9204</ele>
        <time>2021-07-18T17:37:55</time>
      </trkpt>
      <trkpt lat="45.35392" lon="6.15235">
        <ele>1484.6205</ele>
        <time>2021-07-18T17:38:01</time>
      </trkpt>
      <trkpt lat="45.35393" lon="6.15233">
        <ele>1484.6205</ele>
        <time>2021-07-18T17:38:03</time>
      </trkpt>
      <trkpt lat="45.35393" lon="6.15231">
        <ele>1484.6205</ele>
        <time>2021-07-18T17:38:05</time>
      </trkpt>
      <trkpt lat="45.35395" lon="6.15228">
        <ele>1484.6205</ele>
        <time>2021-07-18T17:38:07</time>
      </trkpt>
      <trkpt lat="45.35398" lon="6.15226">
        <ele>1486.5204</ele>
        <time>2021-07-18T17:38:11</time>
      </trkpt>
      <trkpt lat="45.35407" lon="6.15216">
        <ele>1486.5204</ele>
        <time>2021-07-18T17:38:20</time>
      </trkpt>
      <trkpt lat="45.35417" lon="6.15214">
        <ele>1484.9204</ele>
        <time>2021-07-18T17:38:29</time>
      </trkpt>
      <trkpt lat="45.35418" lon="6.15215">
        <ele>1484.9204</ele>
        <time>2021-07-18T17:38:30</time>
      </trkpt>
      <trkpt lat="45.3542" lon="6.15214">
        <ele>1486.6205</ele>
        <time>2021-07-18T17:38:36</time>
      </trkpt>
      <trkpt lat="45.35421" lon="6.15214">
        <ele>1486.6205</ele>
        <time>2021-07-18T17:38:37</time>
      </trkpt>
      <trkpt lat="45.35424" lon="6.15216">
        <ele>1488.3204</ele>
        <time>2021-07-18T17:38:42</time>
      </trkpt>
      <trkpt lat="45.35424" lon="6.15216">
        <ele>1488.3204</ele>
        <time>2021-07-18T17:38:43</time>
      </trkpt>
      <trkpt lat="45.35425" lon="6.15216">
        <ele>1488.3204</ele>
        <time>2021-07-18T17:38:45</time>
      </trkpt>
      <trkpt lat="45.3543" lon="6.15215">
        <ele>1485.2205</ele>
        <time>2021-07-18T17:38:53</time>
      </trkpt>
      <trkpt lat="45.35431" lon="6.15214">
        <ele>1485.2205</ele>
        <time>2021-07-18T17:38:54</time>
      </trkpt>
      <trkpt lat="45.35432" lon="6.15214">
        <ele>1485.2205</ele>
        <time>2021-07-18T17:38:56</time>
      </trkpt>
      <trkpt lat="45.35438" lon="6.15216">
        <ele>1484.5204</ele>
        <time>2021-07-18T17:39:06</time>
      </trkpt>
      <trkpt lat="45.35441" lon="6.15216">
        <ele>1484.5204</ele>
        <time>2021-07-18T17:39:09</time>
      </trkpt>
      <trkpt lat="45.35442" lon="6.15217">
        <ele>1482.487</ele>
        <time>2021-07-18T17:39:11</time>
      </trkpt>
      <trkpt lat="45.35443" lon="6.15218">
        <ele>1482.487</ele>
        <time>2021-07-18T17:39:13</time>
      </trkpt>
      <trkpt lat="45.35445" lon="6.1522">
        <ele>1482.487</ele>
        <time>2021-07-18T17:39:15</time>
      </trkpt>
      <trkpt lat="45.35448" lon="6.15222">
        <ele>1484.3204</ele>
        <time>2021-07-18T17:39:22</time>
      </trkpt>
      <trkpt lat="45.35449" lon="6.15222">
        <ele>1484.3204</ele>
        <time>2021-07-18T17:39:23</time>
      </trkpt>
      <trkpt lat="45.3545" lon="6.15224">
        <ele>1484.3204</ele>
        <time>2021-07-18T17:39:26</time>
      </trkpt>
      <trkpt lat="45.35451" lon="6.15225">
        <ele>1484.3204</ele>
        <time>2021-07-18T17:39:28</time>
      </trkpt>
      <trkpt lat="45.35452" lon="6.15225">
        <ele>1484.3204</ele>
        <time>2021-07-18T17:39:29</time>
      </trkpt>
      <trkpt lat="45.35454" lon="6.15228">
        <ele>1484.1538</ele>
        <time>2021-07-18T17:39:34</time>
      </trkpt>
      <trkpt lat="45.35454" lon="6.15228">
        <ele>1484.1538</ele>
        <time>2021-07-18T17:39:37</time>
      </trkpt>
      <trkpt lat="45.35455" lon="6.1523">
        <ele>1485.6205</ele>
        <time>2021-07-18T17:39:49</time>
      </trkpt>
      <trkpt lat="45.35456" lon="6.1523">
        <ele>1485.6205</ele>
        <time>2021-07-18T17:39:50</time>
      </trkpt>
      <trkpt lat="45.35457" lon="6.15231">
        <ele>1486.4204</ele>
        <time>2021-07-18T17:39:54</time>
      </trkpt>
      <trkpt lat="45.35459" lon="6.15233">
        <ele>1486.4204</ele>
        <time>2021-07-18T17:39:56</time>
      </trkpt>
      <trkpt lat="45.3546" lon="6.15233">
        <ele>1486.4204</ele>
        <time>2021-07-18T17:39:57</time>
      </trkpt>
      <trkpt lat="45.35461" lon="6.15235">
        <ele>1486.4204</ele>
        <time>2021-07-18T17:39:59</time>
      </trkpt>
      <trkpt lat="45.35463" lon="6.15236">
        <ele>1486.4204</ele>
        <time>2021-07-18T17:40:00</time>
      </trkpt>
      <trkpt lat="45.35464" lon="6.15236">
        <ele>1485.987</ele>
        <time>2021-07-18T17:40:01</time>
      </trkpt>
      <trkpt lat="45.35466" lon="6.15237">
        <ele>1485.987</ele>
        <time>2021-07-18T17:40:02</time>
      </trkpt>
      <trkpt lat="45.35467" lon="6.15238">
        <ele>1485.987</ele>
        <time>2021-07-18T17:40:03</time>
      </trkpt>
      <trkpt lat="45.35468" lon="6.15239">
        <ele>1485.987</ele>
        <time>2021-07-18T17:40:04</time>
      </trkpt>
      <trkpt lat="45.35469" lon="6.1524">
        <ele>1485.987</ele>
        <time>2021-07-18T17:40:05</time>
      </trkpt>
      <trkpt lat="45.3547" lon="6.15241">
        <ele>1485.987</ele>
        <time>2021-07-18T17:40:09</time>
      </trkpt>
      <trkpt lat="45.35471" lon="6.15242">
        <ele>1485.987</ele>
        <time>2021-07-18T17:40:10</time>
      </trkpt>
      <trkpt lat="45.35471" lon="6.15243">
        <ele>1490.1205</ele>
        <time>2021-07-18T17:40:11</time>
      </trkpt>
      <trkpt lat="45.35475" lon="6.15251">
        <ele>1490.1205</ele>
        <time>2021-07-18T17:40:20</time>
      </trkpt>
      <trkpt lat="45.35476" lon="6.15252">
        <ele>1487.7205</ele>
        <time>2021-07-18T17:40:25</time>
      </trkpt>
      <trkpt lat="45.35476" lon="6.15253">
        <ele>1487.7205</ele>
        <time>2021-07-18T17:40:27</time>
      </trkpt>
      <trkpt lat="45.35477" lon="6.15254">
        <ele>1487.7205</ele>
        <time>2021-07-18T17:40:28</time>
      </trkpt>
      <trkpt lat="45.35477" lon="6.15254">
        <ele>1485.0204</ele>
        <time>2021-07-18T17:40:32</time>
      </trkpt>
      <trkpt lat="45.35477" lon="6.15254">
        <ele>1485.0204</ele>
        <time>2021-07-18T17:40:33</time>
      </trkpt>
      <trkpt lat="45.35478" lon="6.15253">
        <ele>1485.0204</ele>
        <time>2021-07-18T17:40:39</time>
      </trkpt>
      <trkpt lat="45.35478" lon="6.15253">
        <ele>1485.0204</ele>
        <time>2021-07-18T17:40:40</time>
      </trkpt>
      <trkpt lat="45.35478" lon="6.15252">
        <ele>1483.9204</ele>
        <time>2021-07-18T17:40:41</time>
      </trkpt>
      <trkpt lat="45.35478" lon="6.15252">
        <ele>1483.9204</ele>
        <time>2021-07-18T17:40:42</time>
      </trkpt>
      <trkpt lat="45.3548" lon="6.15251">
        <ele>1483.9204</ele>
        <time>2021-07-18T17:40:47</time>
      </trkpt>
      <trkpt lat="45.3548" lon="6.15251">
        <ele>1483.9204</ele>
        <time>2021-07-18T17:40:48</time>
      </trkpt>
      <trkpt lat="45.35481" lon="6.15251">
        <ele>1483.9204</ele>
        <time>2021-07-18T17:40:50</time>
      </trkpt>
      <trkpt lat="45.35483" lon="6.15253">
        <ele>1483.7205</ele>
        <time>2021-07-18T17:40:54</time>
      </trkpt>
      <trkpt lat="45.35484" lon="6.15252">
        <ele>1483.7205</ele>
        <time>2021-07-18T17:41:00</time>
      </trkpt>
      <trkpt lat="45.35485" lon="6.15252">
        <ele>1486.0204</ele>
        <time>2021-07-18T17:41:01</time>
      </trkpt>
      <trkpt lat="45.35486" lon="6.15252">
        <ele>1486.0204</ele>
        <time>2021-07-18T17:41:02</time>
      </trkpt>
      <trkpt lat="45.35487" lon="6.15253">
        <ele>1486.0204</ele>
        <time>2021-07-18T17:41:05</time>
      </trkpt>
      <trkpt lat="45.3549" lon="6.15255">
        <ele>1486.0204</ele>
        <time>2021-07-18T17:41:09</time>
      </trkpt>
      <trkpt lat="45.35491" lon="6.15255">
        <ele>1482.9204</ele>
        <time>2021-07-18T17:41:12</time>
      </trkpt>
      <trkpt lat="45.35492" lon="6.15256">
        <ele>1482.9204</ele>
        <time>2021-07-18T17:41:14</time>
      </trkpt>
      <trkpt lat="45.35493" lon="6.15257">
        <ele>1482.9204</ele>
        <time>2021-07-18T17:41:18</time>
      </trkpt>
      <trkpt lat="45.35494" lon="6.15258">
        <ele>1482.9204</ele>
        <time>2021-07-18T17:41:20</time>
      </trkpt>
      <trkpt lat="45.35495" lon="6.15259">
        <ele>1481.7205</ele>
        <time>2021-07-18T17:41:22</time>
      </trkpt>
      <trkpt lat="45.35496" lon="6.15258">
        <ele>1481.7205</ele>
        <time>2021-07-18T17:41:28</time>
      </trkpt>
      <trkpt lat="45.35497" lon="6.15258">
        <ele>1478.9204</ele>
        <time>2021-07-18T17:41:32</time>
      </trkpt>
      <trkpt lat="45.35499" lon="6.15258">
        <ele>1478.9204</ele>
        <time>2021-07-18T17:41:39</time>
      </trkpt>
      <trkpt lat="45.35499" lon="6.15257">
        <ele>1474.0204</ele>
        <time>2021-07-18T17:41:41</time>
      </trkpt>
      <trkpt lat="45.35499" lon="6.15257">
        <ele>1474.0204</ele>
        <time>2021-07-18T17:41:44</time>
      </trkpt>
      <trkpt lat="45.355" lon="6.15256">
        <ele>1474.0204</ele>
        <time>2021-07-18T17:41:46</time>
      </trkpt>
      <trkpt lat="45.35501" lon="6.15254">
        <ele>1474.0204</ele>
        <time>2021-07-18T17:41:50</time>
      </trkpt>
      <trkpt lat="45.35507" lon="6.15252">
        <ele>1472.5204</ele>
        <time>2021-07-18T17:41:58</time>
      </trkpt>
      <trkpt lat="45.35508" lon="6.15251">
        <ele>1466.5204</ele>
        <time>2021-07-18T17:42:01</time>
      </trkpt>
      <trkpt lat="45.35508" lon="6.1525">
        <ele>1466.5204</ele>
        <time>2021-07-18T17:42:02</time>
      </trkpt>
      <trkpt lat="45.35509" lon="6.1525">
        <ele>1466.5204</ele>
        <time>2021-07-18T17:42:03</time>
      </trkpt>
      <trkpt lat="45.35509" lon="6.15249">
        <ele>1466.5204</ele>
        <time>2021-07-18T17:42:04</time>
      </trkpt>
      <trkpt lat="45.35509" lon="6.15248">
        <ele>1466.5204</ele>
        <time>2021-07-18T17:42:05</time>
      </trkpt>
      <trkpt lat="45.35509" lon="6.15248">
        <ele>1466.5204</ele>
        <time>2021-07-18T17:42:06</time>
      </trkpt>
      <trkpt lat="45.35506" lon="6.15245">
        <ele>1465.5204</ele>
        <time>2021-07-18T17:42:12</time>
      </trkpt>
      <trkpt lat="45.35506" lon="6.15245">
        <ele>1465.5204</ele>
        <time>2021-07-18T17:42:13</time>
      </trkpt>
      <trkpt lat="45.35504" lon="6.15245">
        <ele>1465.5204</ele>
        <time>2021-07-18T17:42:17</time>
      </trkpt>
      <trkpt lat="45.35504" lon="6.15244">
        <ele>1465.5204</ele>
        <time>2021-07-18T17:42:18</time>
      </trkpt>
      <trkpt lat="45.35503" lon="6.15242">
        <ele>1468.0204</ele>
        <time>2021-07-18T17:42:22</time>
      </trkpt>
      <trkpt lat="45.35502" lon="6.15241">
        <ele>1468.0204</ele>
        <time>2021-07-18T17:42:24</time>
      </trkpt>
      <trkpt lat="45.35502" lon="6.15241">
        <ele>1468.0204</ele>
        <time>2021-07-18T17:42:25</time>
      </trkpt>
      <trkpt lat="45.35501" lon="6.1524">
        <ele>1468.0204</ele>
        <time>2021-07-18T17:42:27</time>
      </trkpt>
      <trkpt lat="45.355" lon="6.1524">
        <ele>1468.0204</ele>
        <time>2021-07-18T17:42:29</time>
      </trkpt>
      <trkpt lat="45.35499" lon="6.1524">
        <ele>1468.0204</ele>
        <time>2021-07-18T17:42:30</time>
      </trkpt>
      <trkpt lat="45.35498" lon="6.15239">
        <ele>1469.4204</ele>
        <time>2021-07-18T17:42:31</time>
      </trkpt>
      <trkpt lat="45.35493" lon="6.15234">
        <ele>1468.6205</ele>
        <time>2021-07-18T17:42:41</time>
      </trkpt>
      <trkpt lat="45.3549" lon="6.15231">
        <ele>1468.6205</ele>
        <time>2021-07-18T17:42:49</time>
      </trkpt>
      <trkpt lat="45.3549" lon="6.15231">
        <ele>1468.6205</ele>
        <time>2021-07-18T17:42:50</time>
      </trkpt>
      <trkpt lat="45.3549" lon="6.15229">
        <ele>1464.8204</ele>
        <time>2021-07-18T17:42:51</time>
      </trkpt>
      <trkpt lat="45.35492" lon="6.15227">
        <ele>1464.8204</ele>
        <time>2021-07-18T17:42:57</time>
      </trkpt>
      <trkpt lat="45.35494" lon="6.15233">
        <ele>1465.1205</ele>
        <time>2021-07-18T17:43:04</time>
      </trkpt>
      <trkpt lat="45.35494" lon="6.15233">
        <ele>1465.1205</ele>
        <time>2021-07-18T17:43:06</time>
      </trkpt>
      <trkpt lat="45.35495" lon="6.15234">
        <ele>1465.1205</ele>
        <time>2021-07-18T17:43:09</time>
      </trkpt>
      <trkpt lat="45.35495" lon="6.15234">
        <ele>1465.1205</ele>
        <time>2021-07-18T17:43:10</time>
      </trkpt>
      <trkpt lat="45.35495" lon="6.15233">
        <ele>1460.3538</ele>
        <time>2021-07-18T17:43:11</time>
      </trkpt>
      <trkpt lat="45.35495" lon="6.15233">
        <ele>1460.3538</ele>
        <time>2021-07-18T17:43:12</time>
      </trkpt>
      <trkpt lat="45.35495" lon="6.15233">
        <ele>1460.3538</ele>
        <time>2021-07-18T17:43:13</time>
      </trkpt>
      <trkpt lat="45.35497" lon="6.15232">
        <ele>1460.3538</ele>
        <time>2021-07-18T17:43:20</time>
      </trkpt>
      <trkpt lat="45.35498" lon="6.15231">
        <ele>1456.4204</ele>
        <time>2021-07-18T17:43:21</time>
      </trkpt>
      <trkpt lat="45.355" lon="6.1523">
        <ele>1456.4204</ele>
        <time>2021-07-18T17:43:25</time>
      </trkpt>
      <trkpt lat="45.35502" lon="6.15229">
        <ele>1451.9204</ele>
        <time>2021-07-18T17:43:31</time>
      </trkpt>
      <trkpt lat="45.35503" lon="6.15229">
        <ele>1451.9204</ele>
        <time>2021-07-18T17:43:36</time>
      </trkpt>
      <trkpt lat="45.35503" lon="6.15227">
        <ele>1451.9204</ele>
        <time>2021-07-18T17:43:38</time>
      </trkpt>
      <trkpt lat="45.35502" lon="6.15227">
        <ele>1451.9204</ele>
        <time>2021-07-18T17:43:40</time>
      </trkpt>
      <trkpt lat="45.35502" lon="6.15227">
        <ele>1451.2205</ele>
        <time>2021-07-18T17:43:42</time>
      </trkpt>
      <trkpt lat="45.35501" lon="6.15226">
        <ele>1451.2205</ele>
        <time>2021-07-18T17:43:46</time>
      </trkpt>
      <trkpt lat="45.35501" lon="6.15225">
        <ele>1450.5204</ele>
        <time>2021-07-18T17:43:53</time>
      </trkpt>
      <trkpt lat="45.35501" lon="6.15225">
        <ele>1450.5204</ele>
        <time>2021-07-18T17:43:54</time>
      </trkpt>
      <trkpt lat="45.35502" lon="6.15222">
        <ele>1452.8204</ele>
        <time>2021-07-18T17:44:09</time>
      </trkpt>
      <trkpt lat="45.35503" lon="6.15222">
        <ele>1452.8204</ele>
        <time>2021-07-18T17:44:10</time>
      </trkpt>
      <trkpt lat="45.35504" lon="6.1522">
        <ele>1451.8204</ele>
        <time>2021-07-18T17:44:16</time>
      </trkpt>
      <trkpt lat="45.35504" lon="6.15219">
        <ele>1451.8204</ele>
        <time>2021-07-18T17:44:17</time>
      </trkpt>
      <trkpt lat="45.35504" lon="6.15218">
        <ele>1451.8204</ele>
        <time>2021-07-18T17:44:19</time>
      </trkpt>
      <trkpt lat="45.35504" lon="6.15217">
        <ele>1451.8204</ele>
        <time>2021-07-18T17:44:20</time>
      </trkpt>
      <trkpt lat="45.35504" lon="6.15213">
        <ele>1453.1205</ele>
        <time>2021-07-18T17:44:26</time>
      </trkpt>
      <trkpt lat="45.35505" lon="6.1521">
        <ele>1455.3204</ele>
        <time>2021-07-18T17:44:37</time>
      </trkpt>
      <trkpt lat="45.35506" lon="6.1521">
        <ele>1455.3204</ele>
        <time>2021-07-18T17:44:38</time>
      </trkpt>
      <trkpt lat="45.35506" lon="6.15211">
        <ele>1455.3204</ele>
        <time>2021-07-18T17:44:40</time>
      </trkpt>
      <trkpt lat="45.35506" lon="6.15211">
        <ele>1454.4204</ele>
        <time>2021-07-18T17:44:41</time>
      </trkpt>
      <trkpt lat="45.35508" lon="6.1521">
        <ele>1454.4204</ele>
        <time>2021-07-18T17:44:49</time>
      </trkpt>
      <trkpt lat="45.35509" lon="6.1521">
        <ele>1454.4204</ele>
        <time>2021-07-18T17:44:50</time>
      </trkpt>
      <trkpt lat="45.35509" lon="6.1521">
        <ele>1454.7205</ele>
        <time>2021-07-18T17:44:53</time>
      </trkpt>
      <trkpt lat="45.3551" lon="6.15209">
        <ele>1454.7205</ele>
        <time>2021-07-18T17:44:55</time>
      </trkpt>
      <trkpt lat="45.35511" lon="6.15207">
        <ele>1453.0204</ele>
        <time>2021-07-18T17:45:06</time>
      </trkpt>
      <trkpt lat="45.35511" lon="6.15206">
        <ele>1453.0204</ele>
        <time>2021-07-18T17:45:07</time>
      </trkpt>
      <trkpt lat="45.35512" lon="6.15204">
        <ele>1449.8204</ele>
        <time>2021-07-18T17:45:15</time>
      </trkpt>
      <trkpt lat="45.35512" lon="6.15203">
        <ele>1449.8204</ele>
        <time>2021-07-18T17:45:16</time>
      </trkpt>
      <trkpt lat="45.35512" lon="6.15201">
        <ele>1449.0204</ele>
        <time>2021-07-18T17:45:22</time>
      </trkpt>
      <trkpt lat="45.35512" lon="6.15201">
        <ele>1449.0204</ele>
        <time>2021-07-18T17:45:23</time>
      </trkpt>
      <trkpt lat="45.35512" lon="6.15198">
        <ele>1448.0204</ele>
        <time>2021-07-18T17:45:31</time>
      </trkpt>
      <trkpt lat="45.35512" lon="6.15198">
        <ele>1448.0204</ele>
        <time>2021-07-18T17:45:32</time>
      </trkpt>
      <trkpt lat="45.35513" lon="6.15196">
        <ele>1448.0204</ele>
        <time>2021-07-18T17:45:37</time>
      </trkpt>
      <trkpt lat="45.35514" lon="6.15196">
        <ele>1448.0204</ele>
        <time>2021-07-18T17:45:38</time>
      </trkpt>
      <trkpt lat="45.35514" lon="6.15196">
        <ele>1448.0204</ele>
        <time>2021-07-18T17:45:39</time>
      </trkpt>
      <trkpt lat="45.35515" lon="6.15196">
        <ele>1448.0204</ele>
        <time>2021-07-18T17:45:40</time>
      </trkpt>
      <trkpt lat="45.35516" lon="6.15196">
        <ele>1446.9204</ele>
        <time>2021-07-18T17:45:42</time>
      </trkpt>
      <trkpt lat="45.35517" lon="6.15196">
        <ele>1446.9204</ele>
        <time>2021-07-18T17:45:43</time>
      </trkpt>
      <trkpt lat="45.35517" lon="6.15194">
        <ele>1446.9204</ele>
        <time>2021-07-18T17:45:48</time>
      </trkpt>
      <trkpt lat="45.35518" lon="6.15193">
        <ele>1446.9204</ele>
        <time>2021-07-18T17:45:50</time>
      </trkpt>
      <trkpt lat="45.35519" lon="6.15192">
        <ele>1443.2205</ele>
        <time>2021-07-18T17:45:53</time>
      </trkpt>
      <trkpt lat="45.3552" lon="6.15191">
        <ele>1443.2205</ele>
        <time>2021-07-18T17:45:55</time>
      </trkpt>
      <trkpt lat="45.3552" lon="6.15191">
        <ele>1443.2205</ele>
        <time>2021-07-18T17:46:00</time>
      </trkpt>
      <trkpt lat="45.35521" lon="6.15191">
        <ele>1441.4204</ele>
        <time>2021-07-18T17:46:01</time>
      </trkpt>
      <trkpt lat="45.35524" lon="6.15189">
        <ele>1440.9204</ele>
        <time>2021-07-18T17:46:13</time>
      </trkpt>
      <trkpt lat="45.35524" lon="6.15189">
        <ele>1440.9204</ele>
        <time>2021-07-18T17:46:14</time>
      </trkpt>
      <trkpt lat="45.35523" lon="6.15188">
        <ele>1440.9204</ele>
        <time>2021-07-18T17:46:15</time>
      </trkpt>
      <trkpt lat="45.35524" lon="6.15184">
        <ele>1440.9204</ele>
        <time>2021-07-18T17:46:18</time>
      </trkpt>
      <trkpt lat="45.35524" lon="6.15184">
        <ele>1440.9204</ele>
        <time>2021-07-18T17:46:19</time>
      </trkpt>
      <trkpt lat="45.35523" lon="6.15183">
        <ele>1440.9204</ele>
        <time>2021-07-18T17:46:20</time>
      </trkpt>
      <trkpt lat="45.35523" lon="6.15182">
        <ele>1438.6205</ele>
        <time>2021-07-18T17:46:21</time>
      </trkpt>
      <trkpt lat="45.35523" lon="6.15182">
        <ele>1438.6205</ele>
        <time>2021-07-18T17:46:22</time>
      </trkpt>
      <trkpt lat="45.35523" lon="6.15181">
        <ele>1438.6205</ele>
        <time>2021-07-18T17:46:23</time>
      </trkpt>
      <trkpt lat="45.35522" lon="6.1518">
        <ele>1438.6205</ele>
        <time>2021-07-18T17:46:25</time>
      </trkpt>
      <trkpt lat="45.35522" lon="6.1518">
        <ele>1438.6205</ele>
        <time>2021-07-18T17:46:26</time>
      </trkpt>
      <trkpt lat="45.35519" lon="6.15179">
        <ele>1439.0204</ele>
        <time>2021-07-18T17:46:33</time>
      </trkpt>
      <trkpt lat="45.35519" lon="6.15179">
        <ele>1439.0204</ele>
        <time>2021-07-18T17:46:34</time>
      </trkpt>
      <trkpt lat="45.35519" lon="6.15179">
        <ele>1439.0204</ele>
        <time>2021-07-18T17:46:35</time>
      </trkpt>
      <trkpt lat="45.35519" lon="6.15178">
        <ele>1439.0204</ele>
        <time>2021-07-18T17:46:38</time>
      </trkpt>
      <trkpt lat="45.35519" lon="6.15178">
        <ele>1439.0204</ele>
        <time>2021-07-18T17:46:39</time>
      </trkpt>
      <trkpt lat="45.35519" lon="6.15178">
        <ele>1439.0204</ele>
        <time>2021-07-18T17:46:40</time>
      </trkpt>
      <trkpt lat="45.35517" lon="6.15177">
        <ele>1439.0204</ele>
        <time>2021-07-18T17:46:42</time>
      </trkpt>
      <trkpt lat="45.35517" lon="6.15175">
        <ele>1439.0204</ele>
        <time>2021-07-18T17:46:47</time>
      </trkpt>
      <trkpt lat="45.35518" lon="6.15172">
        <ele>1439.0204</ele>
        <time>2021-07-18T17:46:50</time>
      </trkpt>
      <trkpt lat="45.35519" lon="6.15171">
        <ele>1430.8204</ele>
        <time>2021-07-18T17:46:52</time>
      </trkpt>
      <trkpt lat="45.35519" lon="6.15171">
        <ele>1430.8204</ele>
        <time>2021-07-18T17:46:53</time>
      </trkpt>
      <trkpt lat="45.35521" lon="6.15169">
        <ele>1430.8204</ele>
        <time>2021-07-18T17:46:56</time>
      </trkpt>
      <trkpt lat="45.35524" lon="6.15169">
        <ele>1433.0204</ele>
        <time>2021-07-18T17:47:01</time>
      </trkpt>
      <trkpt lat="45.35524" lon="6.15168">
        <ele>1433.0204</ele>
        <time>2021-07-18T17:47:03</time>
      </trkpt>
      <trkpt lat="45.35523" lon="6.15166">
        <ele>1433.0204</ele>
        <time>2021-07-18T17:47:07</time>
      </trkpt>
      <trkpt lat="45.35523" lon="6.15167">
        <ele>1433.0204</ele>
        <time>2021-07-18T17:47:08</time>
      </trkpt>
      <trkpt lat="45.35525" lon="6.15166">
        <ele>1433.0204</ele>
        <time>2021-07-18T17:47:14</time>
      </trkpt>
      <trkpt lat="45.35526" lon="6.15165">
        <ele>1433.0204</ele>
        <time>2021-07-18T17:47:19</time>
      </trkpt>
      <trkpt lat="45.35526" lon="6.15165">
        <ele>1433.0204</ele>
        <time>2021-07-18T17:47:20</time>
      </trkpt>
      <trkpt lat="45.35527" lon="6.15164">
        <ele>1433.0204</ele>
        <time>2021-07-18T17:47:24</time>
      </trkpt>
      <trkpt lat="45.35528" lon="6.15163">
        <ele>1433.0204</ele>
        <time>2021-07-18T17:47:26</time>
      </trkpt>
      <trkpt lat="45.35528" lon="6.15162">
        <ele>1433.0204</ele>
        <time>2021-07-18T17:47:29</time>
      </trkpt>
      <trkpt lat="45.35527" lon="6.15161">
        <ele>1433.0204</ele>
        <time>2021-07-18T17:47:30</time>
      </trkpt>
      <trkpt lat="45.35525" lon="6.1516">
        <ele>1433.0204</ele>
        <time>2021-07-18T17:47:32</time>
      </trkpt>
      <trkpt lat="45.35518" lon="6.1515">
        <ele>1431.4204</ele>
        <time>2021-07-18T17:47:44</time>
      </trkpt>
      <trkpt lat="45.35518" lon="6.1515">
        <ele>1431.4204</ele>
        <time>2021-07-18T17:47:46</time>
      </trkpt>
      <trkpt lat="45.35518" lon="6.15148">
        <ele>1428.7205</ele>
        <time>2021-07-18T17:47:57</time>
      </trkpt>
      <trkpt lat="45.35518" lon="6.15145">
        <ele>1425.4204</ele>
        <time>2021-07-18T17:48:02</time>
      </trkpt>
      <trkpt lat="45.35518" lon="6.15145">
        <ele>1425.4204</ele>
        <time>2021-07-18T17:48:05</time>
      </trkpt>
      <trkpt lat="45.35519" lon="6.15145">
        <ele>1425.4204</ele>
        <time>2021-07-18T17:48:06</time>
      </trkpt>
      <trkpt lat="45.35519" lon="6.15146">
        <ele>1425.4204</ele>
        <time>2021-07-18T17:48:07</time>
      </trkpt>
      <trkpt lat="45.3552" lon="6.15146">
        <ele>1425.4204</ele>
        <time>2021-07-18T17:48:08</time>
      </trkpt>
      <trkpt lat="45.35526" lon="6.15146">
        <ele>1425.4204</ele>
        <time>2021-07-18T17:48:15</time>
      </trkpt>
      <trkpt lat="45.35528" lon="6.15146">
        <ele>1425.3204</ele>
        <time>2021-07-18T17:48:21</time>
      </trkpt>
      <trkpt lat="45.35534" lon="6.15148">
        <ele>1425.3204</ele>
        <time>2021-07-18T17:48:30</time>
      </trkpt>
      <trkpt lat="45.35535" lon="6.15148">
        <ele>1425.3204</ele>
        <time>2021-07-18T17:48:32</time>
      </trkpt>
      <trkpt lat="45.35535" lon="6.15147">
        <ele>1425.3204</ele>
        <time>2021-07-18T17:48:33</time>
      </trkpt>
      <trkpt lat="45.35536" lon="6.15147">
        <ele>1425.3204</ele>
        <time>2021-07-18T17:48:34</time>
      </trkpt>
      <trkpt lat="45.35542" lon="6.15149">
        <ele>1422.3204</ele>
        <time>2021-07-18T17:48:41</time>
      </trkpt>
      <trkpt lat="45.35543" lon="6.15151">
        <ele>1417.6205</ele>
        <time>2021-07-18T17:49:08</time>
      </trkpt>
      <trkpt lat="45.35544" lon="6.15151">
        <ele>1417.6205</ele>
        <time>2021-07-18T17:49:10</time>
      </trkpt>
      <trkpt lat="45.35553" lon="6.1515">
        <ele>1416.3204</ele>
        <time>2021-07-18T17:49:28</time>
      </trkpt>
      <trkpt lat="45.35553" lon="6.15149">
        <ele>1416.3204</ele>
        <time>2021-07-18T17:49:29</time>
      </trkpt>
      <trkpt lat="45.35555" lon="6.1515">
        <ele>1411.1205</ele>
        <time>2021-07-18T17:49:31</time>
      </trkpt>
      <trkpt lat="45.35555" lon="6.1515">
        <ele>1411.1205</ele>
        <time>2021-07-18T17:49:32</time>
      </trkpt>
      <trkpt lat="45.35557" lon="6.1515">
        <ele>1411.1205</ele>
        <time>2021-07-18T17:49:34</time>
      </trkpt>
      <trkpt lat="45.35557" lon="6.1515">
        <ele>1411.1205</ele>
        <time>2021-07-18T17:49:35</time>
      </trkpt>
      <trkpt lat="45.3556" lon="6.1515">
        <ele>1411.1205</ele>
        <time>2021-07-18T17:49:38</time>
      </trkpt>
      <trkpt lat="45.35563" lon="6.15149">
        <ele>1409.9204</ele>
        <time>2021-07-18T17:49:45</time>
      </trkpt>
      <trkpt lat="45.35563" lon="6.15148">
        <ele>1409.9204</ele>
        <time>2021-07-18T17:49:46</time>
      </trkpt>
      <trkpt lat="45.35564" lon="6.15146">
        <ele>1409.9204</ele>
        <time>2021-07-18T17:49:48</time>
      </trkpt>
      <trkpt lat="45.35564" lon="6.15145">
        <ele>1409.9204</ele>
        <time>2021-07-18T17:49:49</time>
      </trkpt>
      <trkpt lat="45.35567" lon="6.15146">
        <ele>1403.8204</ele>
        <time>2021-07-18T17:49:52</time>
      </trkpt>
      <trkpt lat="45.35574" lon="6.1515">
        <ele>1403.1205</ele>
        <time>2021-07-18T17:50:06</time>
      </trkpt>
      <trkpt lat="45.35575" lon="6.1515">
        <ele>1403.1205</ele>
        <time>2021-07-18T17:50:20</time>
      </trkpt>
      <trkpt lat="45.35576" lon="6.1515">
        <ele>1403.1205</ele>
        <time>2021-07-18T17:50:21</time>
      </trkpt>
      <trkpt lat="45.35576" lon="6.15146">
        <ele>1399.2205</ele>
        <time>2021-07-18T17:50:31</time>
      </trkpt>
      <trkpt lat="45.35576" lon="6.15146">
        <ele>1399.2205</ele>
        <time>2021-07-18T17:50:32</time>
      </trkpt>
      <trkpt lat="45.35578" lon="6.15146">
        <ele>1399.2205</ele>
        <time>2021-07-18T17:50:34</time>
      </trkpt>
      <trkpt lat="45.35578" lon="6.15144">
        <ele>1399.2205</ele>
        <time>2021-07-18T17:50:46</time>
      </trkpt>
      <trkpt lat="45.35578" lon="6.15143">
        <ele>1399.2205</ele>
        <time>2021-07-18T17:50:47</time>
      </trkpt>
      <trkpt lat="45.35578" lon="6.15142">
        <ele>1399.2205</ele>
        <time>2021-07-18T17:50:48</time>
      </trkpt>
      <trkpt lat="45.35579" lon="6.15142">
        <ele>1399.2205</ele>
        <time>2021-07-18T17:50:49</time>
      </trkpt>
      <trkpt lat="45.35579" lon="6.15142">
        <ele>1399.2205</ele>
        <time>2021-07-18T17:50:50</time>
      </trkpt>
      <trkpt lat="45.35581" lon="6.1514">
        <ele>1397.0204</ele>
        <time>2021-07-18T17:51:00</time>
      </trkpt>
      <trkpt lat="45.35583" lon="6.15139">
        <ele>1394.4204</ele>
        <time>2021-07-18T17:51:02</time>
      </trkpt>
      <trkpt lat="45.35583" lon="6.1514">
        <ele>1394.4204</ele>
        <time>2021-07-18T17:51:08</time>
      </trkpt>
      <trkpt lat="45.35584" lon="6.15141">
        <ele>1394.4204</ele>
        <time>2021-07-18T17:51:09</time>
      </trkpt>
      <trkpt lat="45.35587" lon="6.15141">
        <ele>1394.4204</ele>
        <time>2021-07-18T17:51:14</time>
      </trkpt>
      <trkpt lat="45.3559" lon="6.15138">
        <ele>1394.4204</ele>
        <time>2021-07-18T17:51:30</time>
      </trkpt>
      <trkpt lat="45.3559" lon="6.15135">
        <ele>1389.7205</ele>
        <time>2021-07-18T17:51:33</time>
      </trkpt>
      <trkpt lat="45.35591" lon="6.15134">
        <ele>1389.7205</ele>
        <time>2021-07-18T17:51:35</time>
      </trkpt>
      <trkpt lat="45.35591" lon="6.15134">
        <ele>1389.7205</ele>
        <time>2021-07-18T17:51:36</time>
      </trkpt>
      <trkpt lat="45.35591" lon="6.15133">
        <ele>1389.7205</ele>
        <time>2021-07-18T17:51:38</time>
      </trkpt>
      <trkpt lat="45.35594" lon="6.15132">
        <ele>1389.7205</ele>
        <time>2021-07-18T17:51:43</time>
      </trkpt>
      <trkpt lat="45.35595" lon="6.15131">
        <ele>1389.7205</ele>
        <time>2021-07-18T17:51:44</time>
      </trkpt>
      <trkpt lat="45.35597" lon="6.15129">
        <ele>1389.7205</ele>
        <time>2021-07-18T17:51:50</time>
      </trkpt>
      <trkpt lat="45.35597" lon="6.15129">
        <ele>1389.7205</ele>
        <time>2021-07-18T17:51:51</time>
      </trkpt>
      <trkpt lat="45.35598" lon="6.15129">
        <ele>1389.7205</ele>
        <time>2021-07-18T17:51:52</time>
      </trkpt>
      <trkpt lat="45.35599" lon="6.15129">
        <ele>1389.7205</ele>
        <time>2021-07-18T17:51:57</time>
      </trkpt>
      <trkpt lat="45.356" lon="6.15128">
        <ele>1389.7205</ele>
        <time>2021-07-18T17:51:58</time>
      </trkpt>
      <trkpt lat="45.356" lon="6.15126">
        <ele>1389.7205</ele>
        <time>2021-07-18T17:52:00</time>
      </trkpt>
      <trkpt lat="45.356" lon="6.15125">
        <ele>1383.1205</ele>
        <time>2021-07-18T17:52:01</time>
      </trkpt>
      <trkpt lat="45.356" lon="6.15124">
        <ele>1383.1205</ele>
        <time>2021-07-18T17:52:02</time>
      </trkpt>
      <trkpt lat="45.356" lon="6.15124">
        <ele>1383.1205</ele>
        <time>2021-07-18T17:52:03</time>
      </trkpt>
      <trkpt lat="45.356" lon="6.15123">
        <ele>1383.1205</ele>
        <time>2021-07-18T17:52:04</time>
      </trkpt>
      <trkpt lat="45.35601" lon="6.15122">
        <ele>1383.1205</ele>
        <time>2021-07-18T17:52:05</time>
      </trkpt>
      <trkpt lat="45.35601" lon="6.15122">
        <ele>1383.1205</ele>
        <time>2021-07-18T17:52:06</time>
      </trkpt>
      <trkpt lat="45.35602" lon="6.15122">
        <ele>1383.1205</ele>
        <time>2021-07-18T17:52:09</time>
      </trkpt>
      <trkpt lat="45.35602" lon="6.15118">
        <ele>1381.8204</ele>
        <time>2021-07-18T17:52:15</time>
      </trkpt>
      <trkpt lat="45.35604" lon="6.15116">
        <ele>1377.8204</ele>
        <time>2021-07-18T17:52:27</time>
      </trkpt>
      <trkpt lat="45.35608" lon="6.15113">
        <ele>1370.8204</ele>
        <time>2021-07-18T17:52:32</time>
      </trkpt>
      <trkpt lat="45.35613" lon="6.1511">
        <ele>1370.8204</ele>
        <time>2021-07-18T17:52:37</time>
      </trkpt>
      <trkpt lat="45.35614" lon="6.15109">
        <ele>1370.8204</ele>
        <time>2021-07-18T17:52:39</time>
      </trkpt>
      <trkpt lat="45.35614" lon="6.15109">
        <ele>1370.8204</ele>
        <time>2021-07-18T17:52:40</time>
      </trkpt>
      <trkpt lat="45.35616" lon="6.15107">
        <ele>1369.9204</ele>
        <time>2021-07-18T17:52:42</time>
      </trkpt>
      <trkpt lat="45.35618" lon="6.15103">
        <ele>1369.9204</ele>
        <time>2021-07-18T17:52:46</time>
      </trkpt>
      <trkpt lat="45.35619" lon="6.15098">
        <ele>1369.7205</ele>
        <time>2021-07-18T17:52:51</time>
      </trkpt>
      <trkpt lat="45.35621" lon="6.15091">
        <ele>1372.0204</ele>
        <time>2021-07-18T17:53:01</time>
      </trkpt>
      <trkpt lat="45.35624" lon="6.15085">
        <ele>1372.0204</ele>
        <time>2021-07-18T17:53:08</time>
      </trkpt>
      <trkpt lat="45.35628" lon="6.15083">
        <ele>1366.6205</ele>
        <time>2021-07-18T17:53:12</time>
      </trkpt>
      <trkpt lat="45.3563" lon="6.15082">
        <ele>1366.6205</ele>
        <time>2021-07-18T17:53:16</time>
      </trkpt>
      <trkpt lat="45.35634" lon="6.15079">
        <ele>1363.8204</ele>
        <time>2021-07-18T17:53:21</time>
      </trkpt>
      <trkpt lat="45.35645" lon="6.15078">
        <ele>1362.7205</ele>
        <time>2021-07-18T17:53:34</time>
      </trkpt>
      <trkpt lat="45.35645" lon="6.15078">
        <ele>1362.7205</ele>
        <time>2021-07-18T17:53:35</time>
      </trkpt>
      <trkpt lat="45.35645" lon="6.15077">
        <ele>1362.7205</ele>
        <time>2021-07-18T17:53:36</time>
      </trkpt>
      <trkpt lat="45.35645" lon="6.15075">
        <ele>1362.7205</ele>
        <time>2021-07-18T17:53:39</time>
      </trkpt>
      <trkpt lat="45.35652" lon="6.15069">
        <ele>1364.3204</ele>
        <time>2021-07-18T17:53:55</time>
      </trkpt>
      <trkpt lat="45.35653" lon="6.15068">
        <ele>1364.3204</ele>
        <time>2021-07-18T17:53:57</time>
      </trkpt>
      <trkpt lat="45.35654" lon="6.15068">
        <ele>1364.3204</ele>
        <time>2021-07-18T17:53:58</time>
      </trkpt>
      <trkpt lat="45.35659" lon="6.15064">
        <ele>1361.3204</ele>
        <time>2021-07-18T17:54:05</time>
      </trkpt>
      <trkpt lat="45.35661" lon="6.15062">
        <ele>1361.3204</ele>
        <time>2021-07-18T17:54:09</time>
      </trkpt>
      <trkpt lat="45.35668" lon="6.15057">
        <ele>1360.4204</ele>
        <time>2021-07-18T17:54:20</time>
      </trkpt>
      <trkpt lat="45.35668" lon="6.15057">
        <ele>1365.8204</ele>
        <time>2021-07-18T17:54:24</time>
      </trkpt>
      <trkpt lat="45.35669" lon="6.15056">
        <ele>1365.8204</ele>
        <time>2021-07-18T17:54:25</time>
      </trkpt>
      <trkpt lat="45.35669" lon="6.15054">
        <ele>1365.8204</ele>
        <time>2021-07-18T17:54:26</time>
      </trkpt>
      <trkpt lat="45.35669" lon="6.15053">
        <ele>1365.8204</ele>
        <time>2021-07-18T17:54:27</time>
      </trkpt>
      <trkpt lat="45.3567" lon="6.15052">
        <ele>1365.8204</ele>
        <time>2021-07-18T17:54:28</time>
      </trkpt>
      <trkpt lat="45.3567" lon="6.1505">
        <ele>1365.8204</ele>
        <time>2021-07-18T17:54:30</time>
      </trkpt>
      <trkpt lat="45.35671" lon="6.1505">
        <ele>1365.8204</ele>
        <time>2021-07-18T17:54:31</time>
      </trkpt>
      <trkpt lat="45.35671" lon="6.15049">
        <ele>1365.8204</ele>
        <time>2021-07-18T17:54:32</time>
      </trkpt>
      <trkpt lat="45.35673" lon="6.15046">
        <ele>1365.8204</ele>
        <time>2021-07-18T17:54:35</time>
      </trkpt>
      <trkpt lat="45.35673" lon="6.15045">
        <ele>1365.8204</ele>
        <time>2021-07-18T17:54:36</time>
      </trkpt>
      <trkpt lat="45.35674" lon="6.15044">
        <ele>1365.8204</ele>
        <time>2021-07-18T17:54:38</time>
      </trkpt>
      <trkpt lat="45.35674" lon="6.15044">
        <ele>1365.8204</ele>
        <time>2021-07-18T17:54:39</time>
      </trkpt>
      <trkpt lat="45.35676" lon="6.15041">
        <ele>1365.8204</ele>
        <time>2021-07-18T17:54:44</time>
      </trkpt>
      <trkpt lat="45.35678" lon="6.1504">
        <ele>1372.0204</ele>
        <time>2021-07-18T17:54:52</time>
      </trkpt>
      <trkpt lat="45.35678" lon="6.1504">
        <ele>1372.0204</ele>
        <time>2021-07-18T17:54:53</time>
      </trkpt>
      <trkpt lat="45.35679" lon="6.15039">
        <ele>1372.0204</ele>
        <time>2021-07-18T17:54:56</time>
      </trkpt>
      <trkpt lat="45.3568" lon="6.15038">
        <ele>1372.0204</ele>
        <time>2021-07-18T17:54:57</time>
      </trkpt>
      <trkpt lat="45.3568" lon="6.15037">
        <ele>1372.0204</ele>
        <time>2021-07-18T17:54:58</time>
      </trkpt>
      <trkpt lat="45.3568" lon="6.15035">
        <ele>1372.0204</ele>
        <time>2021-07-18T17:55:00</time>
      </trkpt>
      <trkpt lat="45.35681" lon="6.15035">
        <ele>1372.0204</ele>
        <time>2021-07-18T17:55:01</time>
      </trkpt>
      <trkpt lat="45.35683" lon="6.15034">
        <ele>1372.0204</ele>
        <time>2021-07-18T17:55:03</time>
      </trkpt>
      <trkpt lat="45.35685" lon="6.15033">
        <ele>1372.0204</ele>
        <time>2021-07-18T17:55:06</time>
      </trkpt>
      <trkpt lat="45.35686" lon="6.15033">
        <ele>1372.0204</ele>
        <time>2021-07-18T17:55:07</time>
      </trkpt>
      <trkpt lat="45.35687" lon="6.15032">
        <ele>1372.0204</ele>
        <time>2021-07-18T17:55:08</time>
      </trkpt>
      <trkpt lat="45.35688" lon="6.15032">
        <ele>1372.0204</ele>
        <time>2021-07-18T17:55:09</time>
      </trkpt>
      <trkpt lat="45.35689" lon="6.15032">
        <ele>1368.6205</ele>
        <time>2021-07-18T17:55:12</time>
      </trkpt>
      <trkpt lat="45.3569" lon="6.15029">
        <ele>1368.6205</ele>
        <time>2021-07-18T17:55:15</time>
      </trkpt>
      <trkpt lat="45.35689" lon="6.15028">
        <ele>1368.6205</ele>
        <time>2021-07-18T17:55:18</time>
      </trkpt>
      <trkpt lat="45.35689" lon="6.15028">
        <ele>1368.6205</ele>
        <time>2021-07-18T17:55:20</time>
      </trkpt>
      <trkpt lat="45.3569" lon="6.15028">
        <ele>1368.6205</ele>
        <time>2021-07-18T17:55:25</time>
      </trkpt>
      <trkpt lat="45.35688" lon="6.15028">
        <ele>1368.6205</ele>
        <time>2021-07-18T17:55:27</time>
      </trkpt>
      <trkpt lat="45.35688" lon="6.15028">
        <ele>1368.6205</ele>
        <time>2021-07-18T17:55:29</time>
      </trkpt>
      <trkpt lat="45.35687" lon="6.15028">
        <ele>1368.6205</ele>
        <time>2021-07-18T17:55:30</time>
      </trkpt>
      <trkpt lat="45.35687" lon="6.15027">
        <ele>1368.6205</ele>
        <time>2021-07-18T17:55:35</time>
      </trkpt>
      <trkpt lat="45.35685" lon="6.15027">
        <ele>1368.6205</ele>
        <time>2021-07-18T17:55:38</time>
      </trkpt>
      <trkpt lat="45.35681" lon="6.15025">
        <ele>1362.6205</ele>
        <time>2021-07-18T17:55:44</time>
      </trkpt>
      <trkpt lat="45.3568" lon="6.15023">
        <ele>1365.3204</ele>
        <time>2021-07-18T17:55:55</time>
      </trkpt>
      <trkpt lat="45.35678" lon="6.15018">
        <ele>1365.8204</ele>
        <time>2021-07-18T17:56:01</time>
      </trkpt>
      <trkpt lat="45.35678" lon="6.15016">
        <ele>1365.8204</ele>
        <time>2021-07-18T17:56:04</time>
      </trkpt>
      <trkpt lat="45.35678" lon="6.15015">
        <ele>1365.8204</ele>
        <time>2021-07-18T17:56:05</time>
      </trkpt>
      <trkpt lat="45.35677" lon="6.15013">
        <ele>1365.8204</ele>
        <time>2021-07-18T17:56:06</time>
      </trkpt>
      <trkpt lat="45.35677" lon="6.15012">
        <ele>1365.8204</ele>
        <time>2021-07-18T17:56:07</time>
      </trkpt>
      <trkpt lat="45.35677" lon="6.15011">
        <ele>1365.8204</ele>
        <time>2021-07-18T17:56:08</time>
      </trkpt>
      <trkpt lat="45.35678" lon="6.1501">
        <ele>1365.8204</ele>
        <time>2021-07-18T17:56:09</time>
      </trkpt>
      <trkpt lat="45.3568" lon="6.1501">
        <ele>1365.5204</ele>
        <time>2021-07-18T17:56:11</time>
      </trkpt>
      <trkpt lat="45.35684" lon="6.15011">
        <ele>1365.5204</ele>
        <time>2021-07-18T17:56:18</time>
      </trkpt>
      <trkpt lat="45.35684" lon="6.15011">
        <ele>1365.5204</ele>
        <time>2021-07-18T17:56:19</time>
      </trkpt>
      <trkpt lat="45.35685" lon="6.15009">
        <ele>1365.0204</ele>
        <time>2021-07-18T17:56:23</time>
      </trkpt>
      <trkpt lat="45.35687" lon="6.15009">
        <ele>1365.0204</ele>
        <time>2021-07-18T17:56:28</time>
      </trkpt>
      <trkpt lat="45.35689" lon="6.15005">
        <ele>1357.7205</ele>
        <time>2021-07-18T17:56:32</time>
      </trkpt>
      <trkpt lat="45.35691" lon="6.15002">
        <ele>1357.7205</ele>
        <time>2021-07-18T17:56:38</time>
      </trkpt>
      <trkpt lat="45.35691" lon="6.15001">
        <ele>1355.2205</ele>
        <time>2021-07-18T17:56:51</time>
      </trkpt>
      <trkpt lat="45.35692" lon="6.14999">
        <ele>1355.2205</ele>
        <time>2021-07-18T17:56:55</time>
      </trkpt>
      <trkpt lat="45.35693" lon="6.14998">
        <ele>1355.2205</ele>
        <time>2021-07-18T17:56:57</time>
      </trkpt>
      <trkpt lat="45.35693" lon="6.14998">
        <ele>1355.2205</ele>
        <time>2021-07-18T17:56:58</time>
      </trkpt>
      <trkpt lat="45.35694" lon="6.14998">
        <ele>1350.5204</ele>
        <time>2021-07-18T17:57:03</time>
      </trkpt>
      <trkpt lat="45.35696" lon="6.14997">
        <ele>1350.5204</ele>
        <time>2021-07-18T17:57:05</time>
      </trkpt>
      <trkpt lat="45.35696" lon="6.14997">
        <ele>1350.5204</ele>
        <time>2021-07-18T17:57:06</time>
      </trkpt>
      <trkpt lat="45.35698" lon="6.14996">
        <ele>1350.5204</ele>
        <time>2021-07-18T17:57:08</time>
      </trkpt>
      <trkpt lat="45.35699" lon="6.14995">
        <ele>1350.5204</ele>
        <time>2021-07-18T17:57:10</time>
      </trkpt>
      <trkpt lat="45.35704" lon="6.14997">
        <ele>1348.3204</ele>
        <time>2021-07-18T17:57:23</time>
      </trkpt>
      <trkpt lat="45.35705" lon="6.14997">
        <ele>1348.3204</ele>
        <time>2021-07-18T17:57:24</time>
      </trkpt>
      <trkpt lat="45.35708" lon="6.14996">
        <ele>1348.3204</ele>
        <time>2021-07-18T17:57:29</time>
      </trkpt>
      <trkpt lat="45.35709" lon="6.14995">
        <ele>1348.3204</ele>
        <time>2021-07-18T17:57:30</time>
      </trkpt>
      <trkpt lat="45.35711" lon="6.14995">
        <ele>1344.8204</ele>
        <time>2021-07-18T17:57:33</time>
      </trkpt>
      <trkpt lat="45.35712" lon="6.14994">
        <ele>1344.8204</ele>
        <time>2021-07-18T17:57:35</time>
      </trkpt>
      <trkpt lat="45.35716" lon="6.14992">
        <ele>1344.8204</ele>
        <time>2021-07-18T17:57:40</time>
      </trkpt>
      <trkpt lat="45.35717" lon="6.14992">
        <ele>1346.4204</ele>
        <time>2021-07-18T17:57:42</time>
      </trkpt>
      <trkpt lat="45.35718" lon="6.14992">
        <ele>1346.4204</ele>
        <time>2021-07-18T17:57:43</time>
      </trkpt>
      <trkpt lat="45.35718" lon="6.14992">
        <ele>1346.4204</ele>
        <time>2021-07-18T17:57:44</time>
      </trkpt>
      <trkpt lat="45.35721" lon="6.14989">
        <ele>1342.9204</ele>
        <time>2021-07-18T17:57:59</time>
      </trkpt>
      <trkpt lat="45.35722" lon="6.14987">
        <ele>1345.0204</ele>
        <time>2021-07-18T17:58:01</time>
      </trkpt>
      <trkpt lat="45.35724" lon="6.14983">
        <ele>1345.0204</ele>
        <time>2021-07-18T17:58:10</time>
      </trkpt>
      <trkpt lat="45.35723" lon="6.14979">
        <ele>1345.8204</ele>
        <time>2021-07-18T17:58:15</time>
      </trkpt>
      <trkpt lat="45.35724" lon="6.14978">
        <ele>1345.8204</ele>
        <time>2021-07-18T17:58:16</time>
      </trkpt>
      <trkpt lat="45.35724" lon="6.14978">
        <ele>1345.8204</ele>
        <time>2021-07-18T17:58:17</time>
      </trkpt>
      <trkpt lat="45.35724" lon="6.14977">
        <ele>1345.8204</ele>
        <time>2021-07-18T17:58:20</time>
      </trkpt>
      <trkpt lat="45.35724" lon="6.14976">
        <ele>1339.5204</ele>
        <time>2021-07-18T17:58:22</time>
      </trkpt>
      <trkpt lat="45.35724" lon="6.14972">
        <ele>1337.8538</ele>
        <time>2021-07-18T17:58:32</time>
      </trkpt>
      <trkpt lat="45.35724" lon="6.14972">
        <ele>1337.8538</ele>
        <time>2021-07-18T17:58:33</time>
      </trkpt>
      <trkpt lat="45.35725" lon="6.14972">
        <ele>1337.8538</ele>
        <time>2021-07-18T17:58:34</time>
      </trkpt>
      <trkpt lat="45.35726" lon="6.14972">
        <ele>1337.8538</ele>
        <time>2021-07-18T17:58:36</time>
      </trkpt>
      <trkpt lat="45.35726" lon="6.14971">
        <ele>1337.8538</ele>
        <time>2021-07-18T17:58:37</time>
      </trkpt>
      <trkpt lat="45.35728" lon="6.14968">
        <ele>1342.4537</ele>
        <time>2021-07-18T17:58:41</time>
      </trkpt>
      <trkpt lat="45.35729" lon="6.14968">
        <ele>1342.4537</ele>
        <time>2021-07-18T17:58:42</time>
      </trkpt>
      <trkpt lat="45.35729" lon="6.14967">
        <ele>1342.4537</ele>
        <time>2021-07-18T17:58:43</time>
      </trkpt>
      <trkpt lat="45.3573" lon="6.14966">
        <ele>1342.4537</ele>
        <time>2021-07-18T17:58:44</time>
      </trkpt>
      <trkpt lat="45.35731" lon="6.14966">
        <ele>1342.4537</ele>
        <time>2021-07-18T17:58:45</time>
      </trkpt>
      <trkpt lat="45.35731" lon="6.14965">
        <ele>1342.4537</ele>
        <time>2021-07-18T17:58:46</time>
      </trkpt>
      <trkpt lat="45.35732" lon="6.14965">
        <ele>1342.4537</ele>
        <time>2021-07-18T17:58:48</time>
      </trkpt>
      <trkpt lat="45.35733" lon="6.14965">
        <ele>1342.9204</ele>
        <time>2021-07-18T17:58:53</time>
      </trkpt>
      <trkpt lat="45.35732" lon="6.14964">
        <ele>1342.9204</ele>
        <time>2021-07-18T17:58:54</time>
      </trkpt>
      <trkpt lat="45.35732" lon="6.14963">
        <ele>1342.9204</ele>
        <time>2021-07-18T17:58:55</time>
      </trkpt>
      <trkpt lat="45.35733" lon="6.14962">
        <ele>1342.9204</ele>
        <time>2021-07-18T17:58:57</time>
      </trkpt>
      <trkpt lat="45.35733" lon="6.14962">
        <ele>1342.9204</ele>
        <time>2021-07-18T17:58:58</time>
      </trkpt>
      <trkpt lat="45.35733" lon="6.14959">
        <ele>1342.9204</ele>
        <time>2021-07-18T17:59:23</time>
      </trkpt>
      <trkpt lat="45.35733" lon="6.14959">
        <ele>1342.9204</ele>
        <time>2021-07-18T17:59:24</time>
      </trkpt>
      <trkpt lat="45.35734" lon="6.14957">
        <ele>1342.9204</ele>
        <time>2021-07-18T17:59:28</time>
      </trkpt>
      <trkpt lat="45.35735" lon="6.14956">
        <ele>1342.9204</ele>
        <time>2021-07-18T17:59:29</time>
      </trkpt>
      <trkpt lat="45.35734" lon="6.14955">
        <ele>1342.9204</ele>
        <time>2021-07-18T17:59:30</time>
      </trkpt>
      <trkpt lat="45.35736" lon="6.14952">
        <ele>1342.9204</ele>
        <time>2021-07-18T17:59:38</time>
      </trkpt>
      <trkpt lat="45.35736" lon="6.14952">
        <ele>1342.9204</ele>
        <time>2021-07-18T17:59:39</time>
      </trkpt>
      <trkpt lat="45.35736" lon="6.14951">
        <ele>1342.9204</ele>
        <time>2021-07-18T17:59:40</time>
      </trkpt>
      <trkpt lat="45.35738" lon="6.1495">
        <ele>1330.5204</ele>
        <time>2021-07-18T17:59:55</time>
      </trkpt>
      <trkpt lat="45.35738" lon="6.14949">
        <ele>1330.5204</ele>
        <time>2021-07-18T17:59:56</time>
      </trkpt>
      <trkpt lat="45.35737" lon="6.14948">
        <ele>1330.5204</ele>
        <time>2021-07-18T17:59:57</time>
      </trkpt>
      <trkpt lat="45.35738" lon="6.14946">
        <ele>1327.6205</ele>
        <time>2021-07-18T18:00:18</time>
      </trkpt>
      <trkpt lat="45.35738" lon="6.14946">
        <ele>1327.6205</ele>
        <time>2021-07-18T18:00:19</time>
      </trkpt>
      <trkpt lat="45.35739" lon="6.14946">
        <ele>1327.6205</ele>
        <time>2021-07-18T18:00:20</time>
      </trkpt>
      <trkpt lat="45.3574" lon="6.14944">
        <ele>1327.6205</ele>
        <time>2021-07-18T18:00:24</time>
      </trkpt>
      <trkpt lat="45.3574" lon="6.14943">
        <ele>1327.6205</ele>
        <time>2021-07-18T18:00:25</time>
      </trkpt>
      <trkpt lat="45.3574" lon="6.14942">
        <ele>1327.6205</ele>
        <time>2021-07-18T18:00:26</time>
      </trkpt>
      <trkpt lat="45.3574" lon="6.14939">
        <ele>1327.6205</ele>
        <time>2021-07-18T18:00:42</time>
      </trkpt>
      <trkpt lat="45.35739" lon="6.14938">
        <ele>1327.6205</ele>
        <time>2021-07-18T18:00:43</time>
      </trkpt>
      <trkpt lat="45.35739" lon="6.14934">
        <ele>1327.6205</ele>
        <time>2021-07-18T18:00:49</time>
      </trkpt>
      <trkpt lat="45.35738" lon="6.14932">
        <ele>1327.6205</ele>
        <time>2021-07-18T18:00:52</time>
      </trkpt>
      <trkpt lat="45.35737" lon="6.1493">
        <ele>1327.6205</ele>
        <time>2021-07-18T18:01:10</time>
      </trkpt>
      <trkpt lat="45.35737" lon="6.14929">
        <ele>1327.6205</ele>
        <time>2021-07-18T18:01:11</time>
      </trkpt>
      <trkpt lat="45.35739" lon="6.14927">
        <ele>1327.6205</ele>
        <time>2021-07-18T18:01:33</time>
      </trkpt>
      <trkpt lat="45.35739" lon="6.14926">
        <ele>1327.6205</ele>
        <time>2021-07-18T18:01:34</time>
      </trkpt>
      <trkpt lat="45.35739" lon="6.14925">
        <ele>1327.6205</ele>
        <time>2021-07-18T18:01:41</time>
      </trkpt>
      <trkpt lat="45.35739" lon="6.14924">
        <ele>1327.6205</ele>
        <time>2021-07-18T18:01:42</time>
      </trkpt>
      <trkpt lat="45.35741" lon="6.14924">
        <ele>1327.6205</ele>
        <time>2021-07-18T18:01:43</time>
      </trkpt>
      <trkpt lat="45.35743" lon="6.14923">
        <ele>1327.6205</ele>
        <time>2021-07-18T18:01:45</time>
      </trkpt>
      <trkpt lat="45.35743" lon="6.14923">
        <ele>1327.6205</ele>
        <time>2021-07-18T18:01:46</time>
      </trkpt>
      <trkpt lat="45.35744" lon="6.14922">
        <ele>1327.6205</ele>
        <time>2021-07-18T18:01:47</time>
      </trkpt>
      <trkpt lat="45.35744" lon="6.14921">
        <ele>1327.6205</ele>
        <time>2021-07-18T18:01:48</time>
      </trkpt>
      <trkpt lat="45.35745" lon="6.14918">
        <ele>1327.6205</ele>
        <time>2021-07-18T18:01:50</time>
      </trkpt>
      <trkpt lat="45.35746" lon="6.14916">
        <ele>1327.6205</ele>
        <time>2021-07-18T18:01:51</time>
      </trkpt>
      <trkpt lat="45.35746" lon="6.14915">
        <ele>1327.6205</ele>
        <time>2021-07-18T18:01:55</time>
      </trkpt>
      <trkpt lat="45.35746" lon="6.14914">
        <ele>1327.6205</ele>
        <time>2021-07-18T18:01:56</time>
      </trkpt>
      <trkpt lat="45.35746" lon="6.14914">
        <ele>1327.6205</ele>
        <time>2021-07-18T18:02:00</time>
      </trkpt>
      <trkpt lat="45.35746" lon="6.14914">
        <ele>1327.6205</ele>
        <time>2021-07-18T18:02:01</time>
      </trkpt>
      <trkpt lat="45.35747" lon="6.14912">
        <ele>1327.6205</ele>
        <time>2021-07-18T18:02:05</time>
      </trkpt>
      <trkpt lat="45.35748" lon="6.14912">
        <ele>1327.6205</ele>
        <time>2021-07-18T18:02:06</time>
      </trkpt>
      <trkpt lat="45.35749" lon="6.1491">
        <ele>1327.6205</ele>
        <time>2021-07-18T18:02:08</time>
      </trkpt>
      <trkpt lat="45.35751" lon="6.1491">
        <ele>1327.6205</ele>
        <time>2021-07-18T18:02:10</time>
      </trkpt>
      <trkpt lat="45.35755" lon="6.14911">
        <ele>1327.6205</ele>
        <time>2021-07-18T18:02:15</time>
      </trkpt>
      <trkpt lat="45.35756" lon="6.1491">
        <ele>1327.6205</ele>
        <time>2021-07-18T18:02:17</time>
      </trkpt>
      <trkpt lat="45.35756" lon="6.1491">
        <ele>1327.6205</ele>
        <time>2021-07-18T18:02:18</time>
      </trkpt>
      <trkpt lat="45.35757" lon="6.14909">
        <ele>1327.6205</ele>
        <time>2021-07-18T18:02:20</time>
      </trkpt>
      <trkpt lat="45.35759" lon="6.14908">
        <ele>1305.3204</ele>
        <time>2021-07-18T18:02:23</time>
      </trkpt>
      <trkpt lat="45.3576" lon="6.14906">
        <ele>1305.3204</ele>
        <time>2021-07-18T18:02:27</time>
      </trkpt>
      <trkpt lat="45.35762" lon="6.14904">
        <ele>1305.3204</ele>
        <time>2021-07-18T18:02:29</time>
      </trkpt>
      <trkpt lat="45.35764" lon="6.14902">
        <ele>1298.3204</ele>
        <time>2021-07-18T18:02:33</time>
      </trkpt>
      <trkpt lat="45.35767" lon="6.14901">
        <ele>1298.3204</ele>
        <time>2021-07-18T18:02:36</time>
      </trkpt>
      <trkpt lat="45.35768" lon="6.149">
        <ele>1298.3204</ele>
        <time>2021-07-18T18:02:39</time>
      </trkpt>
      <trkpt lat="45.35776" lon="6.14898">
        <ele>1298.3204</ele>
        <time>2021-07-18T18:02:49</time>
      </trkpt>
      <trkpt lat="45.3578" lon="6.14896">
        <ele>1298.3204</ele>
        <time>2021-07-18T18:02:54</time>
      </trkpt>
      <trkpt lat="45.35785" lon="6.14894">
        <ele>1298.3204</ele>
        <time>2021-07-18T18:03:02</time>
      </trkpt>
      <trkpt lat="45.35786" lon="6.14893">
        <ele>1298.3204</ele>
        <time>2021-07-18T18:03:03</time>
      </trkpt>
      <trkpt lat="45.35787" lon="6.14893">
        <ele>1298.3204</ele>
        <time>2021-07-18T18:03:09</time>
      </trkpt>
      <trkpt lat="45.35791" lon="6.14892">
        <ele>1298.3204</ele>
        <time>2021-07-18T18:03:12</time>
      </trkpt>
      <trkpt lat="45.35792" lon="6.14891">
        <ele>1298.3204</ele>
        <time>2021-07-18T18:03:15</time>
      </trkpt>
      <trkpt lat="45.35793" lon="6.14891">
        <ele>1298.3204</ele>
        <time>2021-07-18T18:03:16</time>
      </trkpt>
      <trkpt lat="45.35794" lon="6.14891">
        <ele>1298.3204</ele>
        <time>2021-07-18T18:03:20</time>
      </trkpt>
      <trkpt lat="45.35795" lon="6.1489">
        <ele>1298.3204</ele>
        <time>2021-07-18T18:03:21</time>
      </trkpt>
      <trkpt lat="45.35796" lon="6.1489">
        <ele>1298.3204</ele>
        <time>2021-07-18T18:03:22</time>
      </trkpt>
      <trkpt lat="45.35798" lon="6.1489">
        <ele>1298.3204</ele>
        <time>2021-07-18T18:03:25</time>
      </trkpt>
      <trkpt lat="45.35799" lon="6.1489">
        <ele>1298.3204</ele>
        <time>2021-07-18T18:03:26</time>
      </trkpt>
      <trkpt lat="45.358" lon="6.14889">
        <ele>1298.3204</ele>
        <time>2021-07-18T18:03:27</time>
      </trkpt>
      <trkpt lat="45.35802" lon="6.14888">
        <ele>1298.3204</ele>
        <time>2021-07-18T18:03:30</time>
      </trkpt>
      <trkpt lat="45.35802" lon="6.14887">
        <ele>1298.3204</ele>
        <time>2021-07-18T18:03:31</time>
      </trkpt>
      <trkpt lat="45.35802" lon="6.14886">
        <ele>1298.3204</ele>
        <time>2021-07-18T18:03:32</time>
      </trkpt>
      <trkpt lat="45.35802" lon="6.14885">
        <ele>1298.3204</ele>
        <time>2021-07-18T18:03:33</time>
      </trkpt>
      <trkpt lat="45.35803" lon="6.14884">
        <ele>1298.3204</ele>
        <time>2021-07-18T18:03:34</time>
      </trkpt>
      <trkpt lat="45.35804" lon="6.14883">
        <ele>1298.3204</ele>
        <time>2021-07-18T18:03:35</time>
      </trkpt>
      <trkpt lat="45.35805" lon="6.14882">
        <ele>1298.3204</ele>
        <time>2021-07-18T18:03:36</time>
      </trkpt>
      <trkpt lat="45.35808" lon="6.14881">
        <ele>1298.3204</ele>
        <time>2021-07-18T18:03:39</time>
      </trkpt>
      <trkpt lat="45.35808" lon="6.1488">
        <ele>1298.3204</ele>
        <time>2021-07-18T18:03:40</time>
      </trkpt>
      <trkpt lat="45.35809" lon="6.1488">
        <ele>1287.5204</ele>
        <time>2021-07-18T18:03:41</time>
      </trkpt>
      <trkpt lat="45.35812" lon="6.14876">
        <ele>1287.5204</ele>
        <time>2021-07-18T18:03:46</time>
      </trkpt>
      <trkpt lat="45.35813" lon="6.14875">
        <ele>1287.5204</ele>
        <time>2021-07-18T18:03:47</time>
      </trkpt>
      <trkpt lat="45.35813" lon="6.14875">
        <ele>1287.5204</ele>
        <time>2021-07-18T18:03:48</time>
      </trkpt>
      <trkpt lat="45.35814" lon="6.14874">
        <ele>1287.5204</ele>
        <time>2021-07-18T18:03:49</time>
      </trkpt>
      <trkpt lat="45.35814" lon="6.14872">
        <ele>1287.5204</ele>
        <time>2021-07-18T18:03:50</time>
      </trkpt>
      <trkpt lat="45.35814" lon="6.14871">
        <ele>1286.0204</ele>
        <time>2021-07-18T18:03:51</time>
      </trkpt>
      <trkpt lat="45.35815" lon="6.14869">
        <ele>1286.0204</ele>
        <time>2021-07-18T18:03:53</time>
      </trkpt>
      <trkpt lat="45.35815" lon="6.14868">
        <ele>1286.0204</ele>
        <time>2021-07-18T18:03:54</time>
      </trkpt>
      <trkpt lat="45.35816" lon="6.14867">
        <ele>1286.0204</ele>
        <time>2021-07-18T18:03:55</time>
      </trkpt>
      <trkpt lat="45.35816" lon="6.14867">
        <ele>1286.0204</ele>
        <time>2021-07-18T18:03:56</time>
      </trkpt>
      <trkpt lat="45.35816" lon="6.14864">
        <ele>1286.0204</ele>
        <time>2021-07-18T18:03:59</time>
      </trkpt>
      <trkpt lat="45.35816" lon="6.14864">
        <ele>1286.0204</ele>
        <time>2021-07-18T18:04:00</time>
      </trkpt>
      <trkpt lat="45.35816" lon="6.14863">
        <ele>1290.2205</ele>
        <time>2021-07-18T18:04:01</time>
      </trkpt>
      <trkpt lat="45.35818" lon="6.14853">
        <ele>1290.2205</ele>
        <time>2021-07-18T18:04:10</time>
      </trkpt>
      <trkpt lat="45.35818" lon="6.14853">
        <ele>1287.8204</ele>
        <time>2021-07-18T18:04:19</time>
      </trkpt>
      <trkpt lat="45.35818" lon="6.14853">
        <ele>1287.8204</ele>
        <time>2021-07-18T18:04:20</time>
      </trkpt>
      <trkpt lat="45.35818" lon="6.14851">
        <ele>1287.8204</ele>
        <time>2021-07-18T18:04:23</time>
      </trkpt>
      <trkpt lat="45.35817" lon="6.1485">
        <ele>1287.8204</ele>
        <time>2021-07-18T18:04:24</time>
      </trkpt>
      <trkpt lat="45.35817" lon="6.14847">
        <ele>1287.8204</ele>
        <time>2021-07-18T18:04:26</time>
      </trkpt>
      <trkpt lat="45.35817" lon="6.14846">
        <ele>1287.8204</ele>
        <time>2021-07-18T18:04:27</time>
      </trkpt>
      <trkpt lat="45.35816" lon="6.14845">
        <ele>1287.8204</ele>
        <time>2021-07-18T18:04:28</time>
      </trkpt>
      <trkpt lat="45.35815" lon="6.14843">
        <ele>1287.8204</ele>
        <time>2021-07-18T18:04:30</time>
      </trkpt>
      <trkpt lat="45.35814" lon="6.14842">
        <ele>1287.8204</ele>
        <time>2021-07-18T18:04:31</time>
      </trkpt>
      <trkpt lat="45.35813" lon="6.1484">
        <ele>1287.8204</ele>
        <time>2021-07-18T18:04:33</time>
      </trkpt>
      <trkpt lat="45.35813" lon="6.1484">
        <ele>1287.8204</ele>
        <time>2021-07-18T18:04:34</time>
      </trkpt>
      <trkpt lat="45.35814" lon="6.14837">
        <ele>1287.8204</ele>
        <time>2021-07-18T18:04:37</time>
      </trkpt>
      <trkpt lat="45.35815" lon="6.14834">
        <ele>1287.8204</ele>
        <time>2021-07-18T18:04:52</time>
      </trkpt>
      <trkpt lat="45.35814" lon="6.14834">
        <ele>1287.8204</ele>
        <time>2021-07-18T18:04:53</time>
      </trkpt>
      <trkpt lat="45.35813" lon="6.14834">
        <ele>1287.8204</ele>
        <time>2021-07-18T18:04:54</time>
      </trkpt>
      <trkpt lat="45.35811" lon="6.14834">
        <ele>1287.8204</ele>
        <time>2021-07-18T18:04:55</time>
      </trkpt>
      <trkpt lat="45.35809" lon="6.14831">
        <ele>1287.8204</ele>
        <time>2021-07-18T18:04:59</time>
      </trkpt>
      <trkpt lat="45.35808" lon="6.1483">
        <ele>1287.8204</ele>
        <time>2021-07-18T18:05:00</time>
      </trkpt>
      <trkpt lat="45.35807" lon="6.14828">
        <ele>1287.8204</ele>
        <time>2021-07-18T18:05:02</time>
      </trkpt>
      <trkpt lat="45.35806" lon="6.14825">
        <ele>1287.8204</ele>
        <time>2021-07-18T18:05:05</time>
      </trkpt>
      <trkpt lat="45.35806" lon="6.14824">
        <ele>1287.8204</ele>
        <time>2021-07-18T18:05:06</time>
      </trkpt>
      <trkpt lat="45.358" lon="6.14813">
        <ele>1280.8204</ele>
        <time>2021-07-18T18:05:24</time>
      </trkpt>
      <trkpt lat="45.358" lon="6.14812">
        <ele>1280.8204</ele>
        <time>2021-07-18T18:05:26</time>
      </trkpt>
      <trkpt lat="45.35799" lon="6.14811">
        <ele>1280.8204</ele>
        <time>2021-07-18T18:05:28</time>
      </trkpt>
      <trkpt lat="45.35799" lon="6.14811">
        <ele>1280.8204</ele>
        <time>2021-07-18T18:05:29</time>
      </trkpt>
      <trkpt lat="45.35798" lon="6.14808">
        <ele>1280.8204</ele>
        <time>2021-07-18T18:05:33</time>
      </trkpt>
      <trkpt lat="45.35797" lon="6.14805">
        <ele>1280.8204</ele>
        <time>2021-07-18T18:05:42</time>
      </trkpt>
      <trkpt lat="45.35797" lon="6.14803">
        <ele>1280.8204</ele>
        <time>2021-07-18T18:05:44</time>
      </trkpt>
      <trkpt lat="45.35797" lon="6.14802">
        <ele>1280.8204</ele>
        <time>2021-07-18T18:05:45</time>
      </trkpt>
      <trkpt lat="45.35797" lon="6.14799">
        <ele>1280.8204</ele>
        <time>2021-07-18T18:05:47</time>
      </trkpt>
      <trkpt lat="45.35796" lon="6.14797">
        <ele>1280.8204</ele>
        <time>2021-07-18T18:05:49</time>
      </trkpt>
      <trkpt lat="45.35795" lon="6.14794">
        <ele>1274.9204</ele>
        <time>2021-07-18T18:05:51</time>
      </trkpt>
      <trkpt lat="45.35793" lon="6.14792">
        <ele>1274.9204</ele>
        <time>2021-07-18T18:05:53</time>
      </trkpt>
      <trkpt lat="45.35793" lon="6.14791">
        <ele>1274.9204</ele>
        <time>2021-07-18T18:05:54</time>
      </trkpt>
      <trkpt lat="45.35791" lon="6.14788">
        <ele>1274.9204</ele>
        <time>2021-07-18T18:05:57</time>
      </trkpt>
      <trkpt lat="45.35791" lon="6.14787">
        <ele>1274.9204</ele>
        <time>2021-07-18T18:05:58</time>
      </trkpt>
      <trkpt lat="45.3579" lon="6.14786">
        <ele>1274.9204</ele>
        <time>2021-07-18T18:05:59</time>
      </trkpt>
      <trkpt lat="45.3579" lon="6.14785">
        <ele>1274.9204</ele>
        <time>2021-07-18T18:06:00</time>
      </trkpt>
      <trkpt lat="45.3579" lon="6.14785">
        <ele>1274.9204</ele>
        <time>2021-07-18T18:06:01</time>
      </trkpt>
      <trkpt lat="45.3579" lon="6.14783">
        <ele>1274.9204</ele>
        <time>2021-07-18T18:06:02</time>
      </trkpt>
      <trkpt lat="45.3579" lon="6.14778">
        <ele>1274.9204</ele>
        <time>2021-07-18T18:06:07</time>
      </trkpt>
      <trkpt lat="45.3579" lon="6.14775">
        <ele>1274.9204</ele>
        <time>2021-07-18T18:06:14</time>
      </trkpt>
      <trkpt lat="45.35787" lon="6.14772">
        <ele>1274.9204</ele>
        <time>2021-07-18T18:06:20</time>
      </trkpt>
      <trkpt lat="45.35787" lon="6.14769">
        <ele>1274.9204</ele>
        <time>2021-07-18T18:06:26</time>
      </trkpt>
      <trkpt lat="45.35787" lon="6.14763">
        <ele>1274.9204</ele>
        <time>2021-07-18T18:06:31</time>
      </trkpt>
      <trkpt lat="45.35788" lon="6.14757">
        <ele>1274.9204</ele>
        <time>2021-07-18T18:06:36</time>
      </trkpt>
      <trkpt lat="45.35788" lon="6.14755">
        <ele>1274.9204</ele>
        <time>2021-07-18T18:06:38</time>
      </trkpt>
      <trkpt lat="45.35789" lon="6.14753">
        <ele>1265.2205</ele>
        <time>2021-07-18T18:06:41</time>
      </trkpt>
      <trkpt lat="45.35788" lon="6.1475">
        <ele>1265.2205</ele>
        <time>2021-07-18T18:06:46</time>
      </trkpt>
      <trkpt lat="45.35787" lon="6.14748">
        <ele>1265.2205</ele>
        <time>2021-07-18T18:06:49</time>
      </trkpt>
      <trkpt lat="45.35787" lon="6.14746">
        <ele>1265.2205</ele>
        <time>2021-07-18T18:06:51</time>
      </trkpt>
      <trkpt lat="45.35787" lon="6.14741">
        <ele>1265.2205</ele>
        <time>2021-07-18T18:07:00</time>
      </trkpt>
      <trkpt lat="45.35787" lon="6.14736">
        <ele>1265.2205</ele>
        <time>2021-07-18T18:07:04</time>
      </trkpt>
      <trkpt lat="45.35787" lon="6.14732">
        <ele>1265.2205</ele>
        <time>2021-07-18T18:07:06</time>
      </trkpt>
      <trkpt lat="45.35786" lon="6.14717">
        <ele>1265.2205</ele>
        <time>2021-07-18T18:07:15</time>
      </trkpt>
      <trkpt lat="45.35785" lon="6.14715">
        <ele>1265.2205</ele>
        <time>2021-07-18T18:07:19</time>
      </trkpt>
      <trkpt lat="45.35782" lon="6.14711">
        <ele>1265.7205</ele>
        <time>2021-07-18T18:07:24</time>
      </trkpt>
      <trkpt lat="45.35782" lon="6.14709">
        <ele>1265.7205</ele>
        <time>2021-07-18T18:07:29</time>
      </trkpt>
      <trkpt lat="45.35781" lon="6.14705">
        <ele>1261.2205</ele>
        <time>2021-07-18T18:07:34</time>
      </trkpt>
      <trkpt lat="45.35781" lon="6.14704">
        <ele>1261.2205</ele>
        <time>2021-07-18T18:07:35</time>
      </trkpt>
      <trkpt lat="45.3578" lon="6.14698">
        <ele>1255.9204</ele>
        <time>2021-07-18T18:07:42</time>
      </trkpt>
      <trkpt lat="45.35782" lon="6.14696">
        <ele>1255.9204</ele>
        <time>2021-07-18T18:07:44</time>
      </trkpt>
      <trkpt lat="45.35783" lon="6.14694">
        <ele>1255.9204</ele>
        <time>2021-07-18T18:07:46</time>
      </trkpt>
      <trkpt lat="45.35783" lon="6.1469">
        <ele>1255.9204</ele>
        <time>2021-07-18T18:07:49</time>
      </trkpt>
      <trkpt lat="45.35784" lon="6.14689">
        <ele>1247.4204</ele>
        <time>2021-07-18T18:08:17</time>
      </trkpt>
      <trkpt lat="45.35784" lon="6.14688">
        <ele>1247.4204</ele>
        <time>2021-07-18T18:08:18</time>
      </trkpt>
      <trkpt lat="45.35786" lon="6.14688">
        <ele>1247.4204</ele>
        <time>2021-07-18T18:08:19</time>
      </trkpt>
      <trkpt lat="45.35789" lon="6.14688">
        <ele>1247.4204</ele>
        <time>2021-07-18T18:08:22</time>
      </trkpt>
      <trkpt lat="45.35796" lon="6.14684">
        <ele>1247.4204</ele>
        <time>2021-07-18T18:08:29</time>
      </trkpt>
      <trkpt lat="45.35796" lon="6.14683">
        <ele>1247.4204</ele>
        <time>2021-07-18T18:08:35</time>
      </trkpt>
      <trkpt lat="45.35798" lon="6.14681">
        <ele>1247.4204</ele>
        <time>2021-07-18T18:08:39</time>
      </trkpt>
      <trkpt lat="45.358" lon="6.1468">
        <ele>1247.4204</ele>
        <time>2021-07-18T18:08:40</time>
      </trkpt>
      <trkpt lat="45.35801" lon="6.1468">
        <ele>1248.6205</ele>
        <time>2021-07-18T18:08:41</time>
      </trkpt>
      <trkpt lat="45.35802" lon="6.14679">
        <ele>1248.6205</ele>
        <time>2021-07-18T18:08:42</time>
      </trkpt>
      <trkpt lat="45.35804" lon="6.14679">
        <ele>1248.6205</ele>
        <time>2021-07-18T18:08:43</time>
      </trkpt>
      <trkpt lat="45.35809" lon="6.14676">
        <ele>1248.6205</ele>
        <time>2021-07-18T18:08:48</time>
      </trkpt>
      <trkpt lat="45.35811" lon="6.14674">
        <ele>1248.6205</ele>
        <time>2021-07-18T18:08:50</time>
      </trkpt>
      <trkpt lat="45.35818" lon="6.14669">
        <ele>1242.4204</ele>
        <time>2021-07-18T18:09:00</time>
      </trkpt>
      <trkpt lat="45.3582" lon="6.14669">
        <ele>1238.9204</ele>
        <time>2021-07-18T18:09:03</time>
      </trkpt>
      <trkpt lat="45.35822" lon="6.14669">
        <ele>1238.9204</ele>
        <time>2021-07-18T18:09:06</time>
      </trkpt>
      <trkpt lat="45.35822" lon="6.14668">
        <ele>1238.9204</ele>
        <time>2021-07-18T18:09:07</time>
      </trkpt>
      <trkpt lat="45.35822" lon="6.14667">
        <ele>1238.9204</ele>
        <time>2021-07-18T18:09:08</time>
      </trkpt>
      <trkpt lat="45.35822" lon="6.14665">
        <ele>1238.9204</ele>
        <time>2021-07-18T18:09:09</time>
      </trkpt>
      <trkpt lat="45.35822" lon="6.14663">
        <ele>1238.9204</ele>
        <time>2021-07-18T18:09:10</time>
      </trkpt>
      <trkpt lat="45.35834" lon="6.14631">
        <ele>1241.9204</ele>
        <time>2021-07-18T18:09:36</time>
      </trkpt>
      <trkpt lat="45.35834" lon="6.14629">
        <ele>1241.9204</ele>
        <time>2021-07-18T18:09:39</time>
      </trkpt>
      <trkpt lat="45.35838" lon="6.14625">
        <ele>1244.1205</ele>
        <time>2021-07-18T18:09:43</time>
      </trkpt>
      <trkpt lat="45.35838" lon="6.14623">
        <ele>1244.1205</ele>
        <time>2021-07-18T18:09:44</time>
      </trkpt>
      <trkpt lat="45.3584" lon="6.1462">
        <ele>1244.1205</ele>
        <time>2021-07-18T18:09:47</time>
      </trkpt>
      <trkpt lat="45.35841" lon="6.14619">
        <ele>1244.1205</ele>
        <time>2021-07-18T18:09:48</time>
      </trkpt>
      <trkpt lat="45.35842" lon="6.14617">
        <ele>1244.1205</ele>
        <time>2021-07-18T18:09:49</time>
      </trkpt>
      <trkpt lat="45.35845" lon="6.14611">
        <ele>1246.0204</ele>
        <time>2021-07-18T18:09:54</time>
      </trkpt>
      <trkpt lat="45.35851" lon="6.14599">
        <ele>1244.4204</ele>
        <time>2021-07-18T18:10:03</time>
      </trkpt>
      <trkpt lat="45.35852" lon="6.14596">
        <ele>1244.4204</ele>
        <time>2021-07-18T18:10:05</time>
      </trkpt>
      <trkpt lat="45.35853" lon="6.14595">
        <ele>1244.4204</ele>
        <time>2021-07-18T18:10:06</time>
      </trkpt>
      <trkpt lat="45.35854" lon="6.14594">
        <ele>1244.4204</ele>
        <time>2021-07-18T18:10:07</time>
      </trkpt>
      <trkpt lat="45.35857" lon="6.14592">
        <ele>1244.4204</ele>
        <time>2021-07-18T18:10:10</time>
      </trkpt>
      <trkpt lat="45.3586" lon="6.14587">
        <ele>1244.2205</ele>
        <time>2021-07-18T18:10:14</time>
      </trkpt>
      <trkpt lat="45.35863" lon="6.14584">
        <ele>1244.2205</ele>
        <time>2021-07-18T18:10:17</time>
      </trkpt>
      <trkpt lat="45.3587" lon="6.14575">
        <ele>1245.3204</ele>
        <time>2021-07-18T18:10:24</time>
      </trkpt>
      <trkpt lat="45.35872" lon="6.14572">
        <ele>1245.3204</ele>
        <time>2021-07-18T18:10:26</time>
      </trkpt>
      <trkpt lat="45.35873" lon="6.14572">
        <ele>1245.3204</ele>
        <time>2021-07-18T18:10:27</time>
      </trkpt>
      <trkpt lat="45.35873" lon="6.14571">
        <ele>1245.3204</ele>
        <time>2021-07-18T18:10:28</time>
      </trkpt>
      <trkpt lat="45.35878" lon="6.14568">
        <ele>1241.6205</ele>
        <time>2021-07-18T18:10:34</time>
      </trkpt>
      <trkpt lat="45.35887" lon="6.14562">
        <ele>1241.6205</ele>
        <time>2021-07-18T18:10:44</time>
      </trkpt>
      <trkpt lat="45.35889" lon="6.1456">
        <ele>1241.6205</ele>
        <time>2021-07-18T18:10:46</time>
      </trkpt>
      <trkpt lat="45.35892" lon="6.14557">
        <ele>1241.6205</ele>
        <time>2021-07-18T18:10:49</time>
      </trkpt>
      <trkpt lat="45.35894" lon="6.14555">
        <ele>1242.6205</ele>
        <time>2021-07-18T18:10:51</time>
      </trkpt>
      <trkpt lat="45.35897" lon="6.14554">
        <ele>1242.6205</ele>
        <time>2021-07-18T18:10:54</time>
      </trkpt>
      <trkpt lat="45.35901" lon="6.14551">
        <ele>1242.6205</ele>
        <time>2021-07-18T18:11:00</time>
      </trkpt>
      <trkpt lat="45.35901" lon="6.14551">
        <ele>1240.0204</ele>
        <time>2021-07-18T18:11:01</time>
      </trkpt>
      <trkpt lat="45.35901" lon="6.14551">
        <ele>1240.0204</ele>
        <time>2021-07-18T18:11:02</time>
      </trkpt>
      <trkpt lat="45.35904" lon="6.14548">
        <ele>1240.0204</ele>
        <time>2021-07-18T18:11:06</time>
      </trkpt>
      <trkpt lat="45.35906" lon="6.14546">
        <ele>1240.0204</ele>
        <time>2021-07-18T18:11:08</time>
      </trkpt>
      <trkpt lat="45.35913" lon="6.1454">
        <ele>1239.9204</ele>
        <time>2021-07-18T18:11:17</time>
      </trkpt>
      <trkpt lat="45.35917" lon="6.14538">
        <ele>1239.9204</ele>
        <time>2021-07-18T18:11:21</time>
      </trkpt>
      <trkpt lat="45.35921" lon="6.14537">
        <ele>1239.9204</ele>
        <time>2021-07-18T18:11:25</time>
      </trkpt>
      <trkpt lat="45.35923" lon="6.14537">
        <ele>1239.9204</ele>
        <time>2021-07-18T18:11:28</time>
      </trkpt>
      <trkpt lat="45.35926" lon="6.14538">
        <ele>1238.1205</ele>
        <time>2021-07-18T18:11:35</time>
      </trkpt>
      <trkpt lat="45.35927" lon="6.14536">
        <ele>1238.1205</ele>
        <time>2021-07-18T18:11:39</time>
      </trkpt>
      <trkpt lat="45.35928" lon="6.14536">
        <ele>1236.0204</ele>
        <time>2021-07-18T18:11:50</time>
      </trkpt>
      <trkpt lat="45.35928" lon="6.14536">
        <ele>1236.2205</ele>
        <time>2021-07-18T18:11:51</time>
      </trkpt>
      <trkpt lat="45.35929" lon="6.14537">
        <ele>1237.2205</ele>
        <time>2021-07-18T18:12:34</time>
      </trkpt>
      <trkpt lat="45.35929" lon="6.14537">
        <ele>1237.2205</ele>
        <time>2021-07-18T18:13:17</time>
      </trkpt>
      <trkpt lat="45.3593" lon="6.14536">
        <ele>1237.2205</ele>
        <time>2021-07-18T18:13:19</time>
      </trkpt>
      <trkpt lat="45.3593" lon="6.14536">
        <ele>1237.2205</ele>
        <time>2021-07-18T18:13:20</time>
      </trkpt>
      <trkpt lat="45.35931" lon="6.14534">
        <ele>1237.2205</ele>
        <time>2021-07-18T18:13:21</time>
      </trkpt>
      <trkpt lat="45.35932" lon="6.1453">
        <ele>1237.2205</ele>
        <time>2021-07-18T18:13:23</time>
      </trkpt>
      <trkpt lat="45.35935" lon="6.14528">
        <ele>1237.2205</ele>
        <time>2021-07-18T18:13:27</time>
      </trkpt>
      <trkpt lat="45.35939" lon="6.14525">
        <ele>1237.2205</ele>
        <time>2021-07-18T18:13:31</time>
      </trkpt>
      <trkpt lat="45.35942" lon="6.14524">
        <ele>1237.6205</ele>
        <time>2021-07-18T18:13:34</time>
      </trkpt>
      <trkpt lat="45.35955" lon="6.14522">
        <ele>1237.6205</ele>
        <time>2021-07-18T18:13:47</time>
      </trkpt>
      <trkpt lat="45.35956" lon="6.14522">
        <ele>1237.6205</ele>
        <time>2021-07-18T18:13:48</time>
      </trkpt>
      <trkpt lat="45.35957" lon="6.14521">
        <ele>1237.6205</ele>
        <time>2021-07-18T18:13:49</time>
      </trkpt>
      <trkpt lat="45.35957" lon="6.14521">
        <ele>1237.6205</ele>
        <time>2021-07-18T18:13:50</time>
      </trkpt>
      <trkpt lat="45.35965" lon="6.14518">
        <ele>1237.6205</ele>
        <time>2021-07-18T18:13:59</time>
      </trkpt>
      <trkpt lat="45.35967" lon="6.14517">
        <ele>1237.6205</ele>
        <time>2021-07-18T18:14:01</time>
      </trkpt>
      <trkpt lat="45.35969" lon="6.14516">
        <ele>1237.6205</ele>
        <time>2021-07-18T18:14:03</time>
      </trkpt>
      <trkpt lat="45.3597" lon="6.14515">
        <ele>1236.0204</ele>
        <time>2021-07-18T18:14:05</time>
      </trkpt>
      <trkpt lat="45.35976" lon="6.14509">
        <ele>1236.0204</ele>
        <time>2021-07-18T18:14:12</time>
      </trkpt>
      <trkpt lat="45.35979" lon="6.14507">
        <ele>1236.0204</ele>
        <time>2021-07-18T18:14:15</time>
      </trkpt>
      <trkpt lat="45.35979" lon="6.14506">
        <ele>1236.0204</ele>
        <time>2021-07-18T18:14:16</time>
      </trkpt>
      <trkpt lat="45.35987" lon="6.14499">
        <ele>1236.0204</ele>
        <time>2021-07-18T18:14:26</time>
      </trkpt>
      <trkpt lat="45.35987" lon="6.14497">
        <ele>1236.0204</ele>
        <time>2021-07-18T18:14:27</time>
      </trkpt>
      <trkpt lat="45.35989" lon="6.14498">
        <ele>1236.0204</ele>
        <time>2021-07-18T18:14:30</time>
      </trkpt>
      <trkpt lat="45.3599" lon="6.14498">
        <ele>1236.0204</ele>
        <time>2021-07-18T18:14:31</time>
      </trkpt>
      <trkpt lat="45.35991" lon="6.14497">
        <ele>1236.0204</ele>
        <time>2021-07-18T18:14:32</time>
      </trkpt>
      <trkpt lat="45.35992" lon="6.14497">
        <ele>1236.0204</ele>
        <time>2021-07-18T18:14:33</time>
      </trkpt>
      <trkpt lat="45.35993" lon="6.14498">
        <ele>1236.0204</ele>
        <time>2021-07-18T18:14:34</time>
      </trkpt>
      <trkpt lat="45.35994" lon="6.14497">
        <ele>1236.0204</ele>
        <time>2021-07-18T18:14:35</time>
      </trkpt>
      <trkpt lat="45.35995" lon="6.14497">
        <ele>1236.0204</ele>
        <time>2021-07-18T18:14:36</time>
      </trkpt>
      <trkpt lat="45.35996" lon="6.14497">
        <ele>1236.0204</ele>
        <time>2021-07-18T18:14:37</time>
      </trkpt>
      <trkpt lat="45.35997" lon="6.14498">
        <ele>1236.0204</ele>
        <time>2021-07-18T18:14:38</time>
      </trkpt>
      <trkpt lat="45.35997" lon="6.14498">
        <ele>1236.0204</ele>
        <time>2021-07-18T18:14:39</time>
      </trkpt>
      <trkpt lat="45.35998" lon="6.14497">
        <ele>1236.0204</ele>
        <time>2021-07-18T18:14:40</time>
      </trkpt>
      <trkpt lat="45.35999" lon="6.14496">
        <ele>1236.0204</ele>
        <time>2021-07-18T18:14:41</time>
      </trkpt>
      <trkpt lat="45.36" lon="6.14496">
        <ele>1236.0204</ele>
        <time>2021-07-18T18:14:42</time>
      </trkpt>
      <trkpt lat="45.36002" lon="6.14495">
        <ele>1236.0204</ele>
        <time>2021-07-18T18:14:43</time>
      </trkpt>
      <trkpt lat="45.36003" lon="6.14495">
        <ele>1236.0204</ele>
        <time>2021-07-18T18:14:44</time>
      </trkpt>
      <trkpt lat="45.36006" lon="6.14495">
        <ele>1236.0204</ele>
        <time>2021-07-18T18:14:46</time>
      </trkpt>
      <trkpt lat="45.36008" lon="6.14494">
        <ele>1236.0204</ele>
        <time>2021-07-18T18:14:48</time>
      </trkpt>
      <trkpt lat="45.3602" lon="6.14492">
        <ele>1236.0204</ele>
        <time>2021-07-18T18:14:58</time>
      </trkpt>
      <trkpt lat="45.36023" lon="6.14493">
        <ele>1236.0204</ele>
        <time>2021-07-18T18:15:01</time>
      </trkpt>
      <trkpt lat="45.36028" lon="6.14497">
        <ele>1236.0204</ele>
        <time>2021-07-18T18:15:09</time>
      </trkpt>
      <trkpt lat="45.36029" lon="6.14498">
        <ele>1236.0204</ele>
        <time>2021-07-18T18:15:10</time>
      </trkpt>
      <trkpt lat="45.36031" lon="6.14499">
        <ele>1236.0204</ele>
        <time>2021-07-18T18:15:12</time>
      </trkpt>
      <trkpt lat="45.36033" lon="6.14501">
        <ele>1236.0204</ele>
        <time>2021-07-18T18:15:15</time>
      </trkpt>
      <trkpt lat="45.36037" lon="6.14502">
        <ele>1236.0204</ele>
        <time>2021-07-18T18:15:18</time>
      </trkpt>
      <trkpt lat="45.36043" lon="6.14508">
        <ele>1236.0204</ele>
        <time>2021-07-18T18:15:24</time>
      </trkpt>
      <trkpt lat="45.36046" lon="6.1451">
        <ele>1236.0204</ele>
        <time>2021-07-18T18:15:27</time>
      </trkpt>
      <trkpt lat="45.36052" lon="6.14513">
        <ele>1236.0204</ele>
        <time>2021-07-18T18:15:32</time>
      </trkpt>
      <trkpt lat="45.36063" lon="6.14512">
        <ele>1236.0204</ele>
        <time>2021-07-18T18:15:42</time>
      </trkpt>
      <trkpt lat="45.36065" lon="6.14513">
        <ele>1218.6205</ele>
        <time>2021-07-18T18:15:44</time>
      </trkpt>
      <trkpt lat="45.3607" lon="6.14513">
        <ele>1218.6205</ele>
        <time>2021-07-18T18:15:49</time>
      </trkpt>
      <trkpt lat="45.36085" lon="6.14502">
        <ele>1218.6205</ele>
        <time>2021-07-18T18:16:08</time>
      </trkpt>
      <trkpt lat="45.36096" lon="6.145">
        <ele>1218.3204</ele>
        <time>2021-07-18T18:16:18</time>
      </trkpt>
      <trkpt lat="45.361" lon="6.14498">
        <ele>1218.3204</ele>
        <time>2021-07-18T18:16:21</time>
      </trkpt>
      <trkpt lat="45.36101" lon="6.14498">
        <ele>1218.3204</ele>
        <time>2021-07-18T18:16:22</time>
      </trkpt>
      <trkpt lat="45.36109" lon="6.14497">
        <ele>1214.5204</ele>
        <time>2021-07-18T18:16:28</time>
      </trkpt>
      <trkpt lat="45.36113" lon="6.14498">
        <ele>1214.5204</ele>
        <time>2021-07-18T18:16:31</time>
      </trkpt>
      <trkpt lat="45.36119" lon="6.145">
        <ele>1207.5204</ele>
        <time>2021-07-18T18:16:37</time>
      </trkpt>
      <trkpt lat="45.3612" lon="6.145">
        <ele>1207.5204</ele>
        <time>2021-07-18T18:16:38</time>
      </trkpt>
      <trkpt lat="45.36121" lon="6.145">
        <ele>1207.5204</ele>
        <time>2021-07-18T18:16:39</time>
      </trkpt>
      <trkpt lat="45.36124" lon="6.14501">
        <ele>1207.5204</ele>
        <time>2021-07-18T18:16:42</time>
      </trkpt>
      <trkpt lat="45.36125" lon="6.14502">
        <ele>1207.5204</ele>
        <time>2021-07-18T18:16:44</time>
      </trkpt>
      <trkpt lat="45.36129" lon="6.14501">
        <ele>1207.5204</ele>
        <time>2021-07-18T18:16:47</time>
      </trkpt>
      <trkpt lat="45.36137" lon="6.14498">
        <ele>1207.5204</ele>
        <time>2021-07-18T18:16:54</time>
      </trkpt>
      <trkpt lat="45.36141" lon="6.14496">
        <ele>1207.5204</ele>
        <time>2021-07-18T18:16:59</time>
      </trkpt>
      <trkpt lat="45.36145" lon="6.14496">
        <ele>1207.5204</ele>
        <time>2021-07-18T18:17:02</time>
      </trkpt>
      <trkpt lat="45.36147" lon="6.14497">
        <ele>1207.5204</ele>
        <time>2021-07-18T18:17:04</time>
      </trkpt>
      <trkpt lat="45.36148" lon="6.14497">
        <ele>1207.5204</ele>
        <time>2021-07-18T18:17:05</time>
      </trkpt>
      <trkpt lat="45.36152" lon="6.14498">
        <ele>1207.5204</ele>
        <time>2021-07-18T18:17:09</time>
      </trkpt>
      <trkpt lat="45.36155" lon="6.14499">
        <ele>1207.5204</ele>
        <time>2021-07-18T18:17:12</time>
      </trkpt>
      <trkpt lat="45.36156" lon="6.14499">
        <ele>1207.5204</ele>
        <time>2021-07-18T18:17:13</time>
      </trkpt>
      <trkpt lat="45.36177" lon="6.145">
        <ele>1207.5204</ele>
        <time>2021-07-18T18:17:29</time>
      </trkpt>
      <trkpt lat="45.36177" lon="6.14501">
        <ele>1207.5204</ele>
        <time>2021-07-18T18:17:30</time>
      </trkpt>
      <trkpt lat="45.36178" lon="6.14502">
        <ele>1207.5204</ele>
        <time>2021-07-18T18:17:31</time>
      </trkpt>
      <trkpt lat="45.36179" lon="6.14502">
        <ele>1207.5204</ele>
        <time>2021-07-18T18:17:32</time>
      </trkpt>
      <trkpt lat="45.36181" lon="6.14503">
        <ele>1200.4204</ele>
        <time>2021-07-18T18:17:34</time>
      </trkpt>
      <trkpt lat="45.36182" lon="6.14503">
        <ele>1200.4204</ele>
        <time>2021-07-18T18:17:35</time>
      </trkpt>
      <trkpt lat="45.36183" lon="6.14503">
        <ele>1200.4204</ele>
        <time>2021-07-18T18:17:36</time>
      </trkpt>
      <trkpt lat="45.36187" lon="6.14502">
        <ele>1200.4204</ele>
        <time>2021-07-18T18:17:41</time>
      </trkpt>
      <trkpt lat="45.36188" lon="6.14502">
        <ele>1200.4204</ele>
        <time>2021-07-18T18:17:42</time>
      </trkpt>
      <trkpt lat="45.36189" lon="6.14502">
        <ele>1200.4204</ele>
        <time>2021-07-18T18:17:43</time>
      </trkpt>
      <trkpt lat="45.36198" lon="6.14507">
        <ele>1200.4204</ele>
        <time>2021-07-18T18:17:57</time>
      </trkpt>
      <trkpt lat="45.36199" lon="6.14508">
        <ele>1200.4204</ele>
        <time>2021-07-18T18:17:58</time>
      </trkpt>
      <trkpt lat="45.362" lon="6.14509">
        <ele>1200.4204</ele>
        <time>2021-07-18T18:17:59</time>
      </trkpt>
      <trkpt lat="45.36202" lon="6.14507">
        <ele>1200.4204</ele>
        <time>2021-07-18T18:18:08</time>
      </trkpt>
      <trkpt lat="45.36203" lon="6.14507">
        <ele>1200.4204</ele>
        <time>2021-07-18T18:18:09</time>
      </trkpt>
      <trkpt lat="45.36204" lon="6.14507">
        <ele>1200.4204</ele>
        <time>2021-07-18T18:18:10</time>
      </trkpt>
      <trkpt lat="45.36204" lon="6.14507">
        <ele>1200.4204</ele>
        <time>2021-07-18T18:18:11</time>
      </trkpt>
      <trkpt lat="45.36205" lon="6.14507">
        <ele>1200.4204</ele>
        <time>2021-07-18T18:18:12</time>
      </trkpt>
      <trkpt lat="45.36206" lon="6.14507">
        <ele>1200.4204</ele>
        <time>2021-07-18T18:18:13</time>
      </trkpt>
      <trkpt lat="45.36211" lon="6.14508">
        <ele>1200.4204</ele>
        <time>2021-07-18T18:18:18</time>
      </trkpt>
      <trkpt lat="45.36214" lon="6.14508">
        <ele>1200.4204</ele>
        <time>2021-07-18T18:18:20</time>
      </trkpt>
      <trkpt lat="45.36219" lon="6.1451">
        <ele>1200.4204</ele>
        <time>2021-07-18T18:18:25</time>
      </trkpt>
      <trkpt lat="45.36222" lon="6.1451">
        <ele>1200.4204</ele>
        <time>2021-07-18T18:18:27</time>
      </trkpt>
      <trkpt lat="45.36224" lon="6.14512">
        <ele>1200.4204</ele>
        <time>2021-07-18T18:18:29</time>
      </trkpt>
      <trkpt lat="45.36231" lon="6.14519">
        <ele>1200.4204</ele>
        <time>2021-07-18T18:18:38</time>
      </trkpt>
      <trkpt lat="45.36233" lon="6.1452">
        <ele>1200.4204</ele>
        <time>2021-07-18T18:18:41</time>
      </trkpt>
      <trkpt lat="45.36234" lon="6.14519">
        <ele>1200.4204</ele>
        <time>2021-07-18T18:18:43</time>
      </trkpt>
      <trkpt lat="45.36238" lon="6.14519">
        <ele>1195.7538</ele>
        <time>2021-07-18T18:18:47</time>
      </trkpt>
      <trkpt lat="45.3624" lon="6.1452">
        <ele>1195.7538</ele>
        <time>2021-07-18T18:18:48</time>
      </trkpt>
      <trkpt lat="45.36251" lon="6.14523">
        <ele>1195.7538</ele>
        <time>2021-07-18T18:19:00</time>
      </trkpt>
      <trkpt lat="45.36256" lon="6.14523">
        <ele>1195.7538</ele>
        <time>2021-07-18T18:19:04</time>
      </trkpt>
      <trkpt lat="45.36259" lon="6.14526">
        <ele>1195.7538</ele>
        <time>2021-07-18T18:19:07</time>
      </trkpt>
      <trkpt lat="45.3626" lon="6.14529">
        <ele>1195.7538</ele>
        <time>2021-07-18T18:19:09</time>
      </trkpt>
      <trkpt lat="45.36267" lon="6.14534">
        <ele>1195.7538</ele>
        <time>2021-07-18T18:19:15</time>
      </trkpt>
      <trkpt lat="45.36272" lon="6.1454">
        <ele>1195.7538</ele>
        <time>2021-07-18T18:19:24</time>
      </trkpt>
      <trkpt lat="45.36274" lon="6.14541">
        <ele>1195.7538</ele>
        <time>2021-07-18T18:19:26</time>
      </trkpt>
      <trkpt lat="45.36281" lon="6.14546">
        <ele>1195.7538</ele>
        <time>2021-07-18T18:19:32</time>
      </trkpt>
      <trkpt lat="45.36283" lon="6.14547">
        <ele>1195.7538</ele>
        <time>2021-07-18T18:19:34</time>
      </trkpt>
      <trkpt lat="45.36286" lon="6.14549">
        <ele>1195.7538</ele>
        <time>2021-07-18T18:19:37</time>
      </trkpt>
      <trkpt lat="45.36288" lon="6.14551">
        <ele>1195.7538</ele>
        <time>2021-07-18T18:19:40</time>
      </trkpt>
      <trkpt lat="45.36292" lon="6.14553">
        <ele>1195.7538</ele>
        <time>2021-07-18T18:19:43</time>
      </trkpt>
      <trkpt lat="45.36298" lon="6.14558">
        <ele>1195.7538</ele>
        <time>2021-07-18T18:19:49</time>
      </trkpt>
      <trkpt lat="45.36299" lon="6.14559">
        <ele>1195.7538</ele>
        <time>2021-07-18T18:19:50</time>
      </trkpt>
      <trkpt lat="45.363" lon="6.14561">
        <ele>1195.7538</ele>
        <time>2021-07-18T18:19:53</time>
      </trkpt>
      <trkpt lat="45.36307" lon="6.14569">
        <ele>1195.7538</ele>
        <time>2021-07-18T18:20:02</time>
      </trkpt>
      <trkpt lat="45.36308" lon="6.1457">
        <ele>1195.7538</ele>
        <time>2021-07-18T18:20:03</time>
      </trkpt>
      <trkpt lat="45.36312" lon="6.14572">
        <ele>1195.7538</ele>
        <time>2021-07-18T18:20:06</time>
      </trkpt>
      <trkpt lat="45.36313" lon="6.14572">
        <ele>1195.7538</ele>
        <time>2021-07-18T18:20:08</time>
      </trkpt>
      <trkpt lat="45.36314" lon="6.14573">
        <ele>1195.7538</ele>
        <time>2021-07-18T18:20:09</time>
      </trkpt>
      <trkpt lat="45.36316" lon="6.14574">
        <ele>1195.7538</ele>
        <time>2021-07-18T18:20:11</time>
      </trkpt>
      <trkpt lat="45.36317" lon="6.14575">
        <ele>1195.7538</ele>
        <time>2021-07-18T18:20:12</time>
      </trkpt>
      <trkpt lat="45.3632" lon="6.14576">
        <ele>1195.7538</ele>
        <time>2021-07-18T18:20:14</time>
      </trkpt>
      <trkpt lat="45.36323" lon="6.14576">
        <ele>1195.7538</ele>
        <time>2021-07-18T18:20:16</time>
      </trkpt>
      <trkpt lat="45.36326" lon="6.14576">
        <ele>1195.7538</ele>
        <time>2021-07-18T18:20:18</time>
      </trkpt>
      <trkpt lat="45.36329" lon="6.14578">
        <ele>1195.7538</ele>
        <time>2021-07-18T18:20:20</time>
      </trkpt>
      <trkpt lat="45.3633" lon="6.14579">
        <ele>1195.7538</ele>
        <time>2021-07-18T18:20:21</time>
      </trkpt>
      <trkpt lat="45.36335" lon="6.14583">
        <ele>1195.7538</ele>
        <time>2021-07-18T18:20:26</time>
      </trkpt>
      <trkpt lat="45.36342" lon="6.14585">
        <ele>1195.7538</ele>
        <time>2021-07-18T18:20:32</time>
      </trkpt>
      <trkpt lat="45.36354" lon="6.14588">
        <ele>1198.4204</ele>
        <time>2021-07-18T18:20:41</time>
      </trkpt>
      <trkpt lat="45.3636" lon="6.14589">
        <ele>1200.9204</ele>
        <time>2021-07-18T18:20:46</time>
      </trkpt>
      <trkpt lat="45.36361" lon="6.14589">
        <ele>1200.9204</ele>
        <time>2021-07-18T18:20:47</time>
      </trkpt>
      <trkpt lat="45.36362" lon="6.14589">
        <ele>1200.9204</ele>
        <time>2021-07-18T18:20:48</time>
      </trkpt>
      <trkpt lat="45.36368" lon="6.14589">
        <ele>1198.1205</ele>
        <time>2021-07-18T18:20:54</time>
      </trkpt>
      <trkpt lat="45.36371" lon="6.14587">
        <ele>1198.1205</ele>
        <time>2021-07-18T18:20:57</time>
      </trkpt>
      <trkpt lat="45.36374" lon="6.14585">
        <ele>1198.1205</ele>
        <time>2021-07-18T18:21:00</time>
      </trkpt>
      <trkpt lat="45.36385" lon="6.1458">
        <ele>1204.1205</ele>
        <time>2021-07-18T18:21:10</time>
      </trkpt>
      <trkpt lat="45.36388" lon="6.1458">
        <ele>1204.1205</ele>
        <time>2021-07-18T18:21:12</time>
      </trkpt>
      <trkpt lat="45.3639" lon="6.14579">
        <ele>1202.5204</ele>
        <time>2021-07-18T18:21:14</time>
      </trkpt>
      <trkpt lat="45.36398" lon="6.14579">
        <ele>1202.5204</ele>
        <time>2021-07-18T18:21:21</time>
      </trkpt>
      <trkpt lat="45.36401" lon="6.14578">
        <ele>1202.5204</ele>
        <time>2021-07-18T18:21:24</time>
      </trkpt>
      <trkpt lat="45.3641" lon="6.14575">
        <ele>1202.5204</ele>
        <time>2021-07-18T18:21:33</time>
      </trkpt>
      <trkpt lat="45.36415" lon="6.14573">
        <ele>1199.9204</ele>
        <time>2021-07-18T18:21:37</time>
      </trkpt>
      <trkpt lat="45.36418" lon="6.14573">
        <ele>1199.9204</ele>
        <time>2021-07-18T18:21:40</time>
      </trkpt>
      <trkpt lat="45.36422" lon="6.14571">
        <ele>1199.9204</ele>
        <time>2021-07-18T18:21:43</time>
      </trkpt>
      <trkpt lat="45.36424" lon="6.1457">
        <ele>1199.9204</ele>
        <time>2021-07-18T18:21:45</time>
      </trkpt>
      <trkpt lat="45.36429" lon="6.14568">
        <ele>1199.9204</ele>
        <time>2021-07-18T18:21:50</time>
      </trkpt>
      <trkpt lat="45.36435" lon="6.14563">
        <ele>1200.3204</ele>
        <time>2021-07-18T18:21:57</time>
      </trkpt>
      <trkpt lat="45.36437" lon="6.14563">
        <ele>1200.3204</ele>
        <time>2021-07-18T18:21:59</time>
      </trkpt>
      <trkpt lat="45.36455" lon="6.14554">
        <ele>1199.0204</ele>
        <time>2021-07-18T18:22:18</time>
      </trkpt>
      <trkpt lat="45.36456" lon="6.14554">
        <ele>1199.0204</ele>
        <time>2021-07-18T18:22:20</time>
      </trkpt>
      <trkpt lat="45.36458" lon="6.14554">
        <ele>1199.0204</ele>
        <time>2021-07-18T18:22:23</time>
      </trkpt>
      <trkpt lat="45.36459" lon="6.14552">
        <ele>1200.3204</ele>
        <time>2021-07-18T18:22:31</time>
      </trkpt>
      <trkpt lat="45.36461" lon="6.14549">
        <ele>1199.1205</ele>
        <time>2021-07-18T18:22:34</time>
      </trkpt>
      <trkpt lat="45.36464" lon="6.14546">
        <ele>1199.1205</ele>
        <time>2021-07-18T18:22:37</time>
      </trkpt>
      <trkpt lat="45.36467" lon="6.14545">
        <ele>1199.1205</ele>
        <time>2021-07-18T18:22:40</time>
      </trkpt>
      <trkpt lat="45.36469" lon="6.14544">
        <ele>1199.1205</ele>
        <time>2021-07-18T18:22:42</time>
      </trkpt>
      <trkpt lat="45.36476" lon="6.1454">
        <ele>1199.1205</ele>
        <time>2021-07-18T18:22:50</time>
      </trkpt>
      <trkpt lat="45.36476" lon="6.14539">
        <ele>1199.1205</ele>
        <time>2021-07-18T18:22:51</time>
      </trkpt>
      <trkpt lat="45.3648" lon="6.14535">
        <ele>1198.6205</ele>
        <time>2021-07-18T18:22:57</time>
      </trkpt>
      <trkpt lat="45.36484" lon="6.1453">
        <ele>1197.7205</ele>
        <time>2021-07-18T18:23:04</time>
      </trkpt>
      <trkpt lat="45.36484" lon="6.1453">
        <ele>1197.7205</ele>
        <time>2021-07-18T18:23:05</time>
      </trkpt>
      <trkpt lat="45.36486" lon="6.14527">
        <ele>1197.7205</ele>
        <time>2021-07-18T18:23:07</time>
      </trkpt>
      <trkpt lat="45.36493" lon="6.14514">
        <ele>1196.4204</ele>
        <time>2021-07-18T18:23:20</time>
      </trkpt>
      <trkpt lat="45.36498" lon="6.14502">
        <ele>1190.9204</ele>
        <time>2021-07-18T18:23:31</time>
      </trkpt>
      <trkpt lat="45.36498" lon="6.145">
        <ele>1190.9204</ele>
        <time>2021-07-18T18:23:32</time>
      </trkpt>
      <trkpt lat="45.36505" lon="6.14488">
        <ele>1193.4204</ele>
        <time>2021-07-18T18:23:44</time>
      </trkpt>
      <trkpt lat="45.36507" lon="6.14487">
        <ele>1193.4204</ele>
        <time>2021-07-18T18:23:45</time>
      </trkpt>
      <trkpt lat="45.36509" lon="6.14485">
        <ele>1193.4204</ele>
        <time>2021-07-18T18:23:48</time>
      </trkpt>
      <trkpt lat="45.36511" lon="6.14482">
        <ele>1193.4204</ele>
        <time>2021-07-18T18:23:50</time>
      </trkpt>
      <trkpt lat="45.36512" lon="6.1448">
        <ele>1190.5204</ele>
        <time>2021-07-18T18:23:56</time>
      </trkpt>
      <trkpt lat="45.36512" lon="6.1448">
        <ele>1190.5204</ele>
        <time>2021-07-18T18:23:57</time>
      </trkpt>
      <trkpt lat="45.36512" lon="6.14479">
        <ele>1190.5204</ele>
        <time>2021-07-18T18:23:58</time>
      </trkpt>
      <trkpt lat="45.36513" lon="6.14477">
        <ele>1190.5204</ele>
        <time>2021-07-18T18:24:00</time>
      </trkpt>
      <trkpt lat="45.36513" lon="6.14476">
        <ele>1190.5204</ele>
        <time>2021-07-18T18:24:01</time>
      </trkpt>
      <trkpt lat="45.36519" lon="6.14461">
        <ele>1194.8204</ele>
        <time>2021-07-18T18:24:15</time>
      </trkpt>
      <trkpt lat="45.36519" lon="6.1446">
        <ele>1194.8204</ele>
        <time>2021-07-18T18:24:16</time>
      </trkpt>
      <trkpt lat="45.36519" lon="6.14458">
        <ele>1194.8204</ele>
        <time>2021-07-18T18:24:17</time>
      </trkpt>
      <trkpt lat="45.3652" lon="6.14456">
        <ele>1194.8204</ele>
        <time>2021-07-18T18:24:18</time>
      </trkpt>
      <trkpt lat="45.36526" lon="6.14444">
        <ele>1198.1205</ele>
        <time>2021-07-18T18:24:26</time>
      </trkpt>
      <trkpt lat="45.36527" lon="6.1444">
        <ele>1198.1205</ele>
        <time>2021-07-18T18:24:28</time>
      </trkpt>
      <trkpt lat="45.36528" lon="6.14434">
        <ele>1198.1205</ele>
        <time>2021-07-18T18:24:32</time>
      </trkpt>
      <trkpt lat="45.36529" lon="6.14431">
        <ele>1198.3204</ele>
        <time>2021-07-18T18:24:35</time>
      </trkpt>
      <trkpt lat="45.36529" lon="6.1443">
        <ele>1198.3204</ele>
        <time>2021-07-18T18:24:36</time>
      </trkpt>
      <trkpt lat="45.36529" lon="6.14429">
        <ele>1198.3204</ele>
        <time>2021-07-18T18:24:38</time>
      </trkpt>
      <trkpt lat="45.36528" lon="6.14429">
        <ele>1198.3204</ele>
        <time>2021-07-18T18:24:39</time>
      </trkpt>
      <trkpt lat="45.36532" lon="6.14421">
        <ele>1195.2205</ele>
        <time>2021-07-18T18:24:46</time>
      </trkpt>
      <trkpt lat="45.36534" lon="6.14413">
        <ele>1195.2205</ele>
        <time>2021-07-18T18:24:52</time>
      </trkpt>
      <trkpt lat="45.36535" lon="6.14411">
        <ele>1197.4204</ele>
        <time>2021-07-18T18:24:58</time>
      </trkpt>
      <trkpt lat="45.36536" lon="6.1441">
        <ele>1197.4204</ele>
        <time>2021-07-18T18:24:59</time>
      </trkpt>
      <trkpt lat="45.36536" lon="6.14408">
        <ele>1197.4204</ele>
        <time>2021-07-18T18:25:00</time>
      </trkpt>
      <trkpt lat="45.36537" lon="6.14404">
        <ele>1197.4204</ele>
        <time>2021-07-18T18:25:02</time>
      </trkpt>
      <trkpt lat="45.36538" lon="6.14401">
        <ele>1197.4204</ele>
        <time>2021-07-18T18:25:04</time>
      </trkpt>
      <trkpt lat="45.36539" lon="6.144">
        <ele>1197.4204</ele>
        <time>2021-07-18T18:25:05</time>
      </trkpt>
      <trkpt lat="45.3654" lon="6.14398">
        <ele>1197.4204</ele>
        <time>2021-07-18T18:25:06</time>
      </trkpt>
      <trkpt lat="45.36541" lon="6.14396">
        <ele>1197.4204</ele>
        <time>2021-07-18T18:25:07</time>
      </trkpt>
      <trkpt lat="45.36543" lon="6.14387">
        <ele>1197.4204</ele>
        <time>2021-07-18T18:25:10</time>
      </trkpt>
      <trkpt lat="45.36546" lon="6.14383">
        <ele>1197.4204</ele>
        <time>2021-07-18T18:25:13</time>
      </trkpt>
      <trkpt lat="45.36547" lon="6.14381">
        <ele>1199.2205</ele>
        <time>2021-07-18T18:25:14</time>
      </trkpt>
      <trkpt lat="45.3655" lon="6.14377">
        <ele>1199.2205</ele>
        <time>2021-07-18T18:25:17</time>
      </trkpt>
      <trkpt lat="45.3655" lon="6.14376">
        <ele>1199.2205</ele>
        <time>2021-07-18T18:25:18</time>
      </trkpt>
      <trkpt lat="45.36552" lon="6.14373">
        <ele>1199.2205</ele>
        <time>2021-07-18T18:25:20</time>
      </trkpt>
      <trkpt lat="45.36554" lon="6.14369">
        <ele>1199.2205</ele>
        <time>2021-07-18T18:25:22</time>
      </trkpt>
      <trkpt lat="45.36555" lon="6.14368">
        <ele>1199.2205</ele>
        <time>2021-07-18T18:25:23</time>
      </trkpt>
      <trkpt lat="45.3656" lon="6.14361">
        <ele>1199.2205</ele>
        <time>2021-07-18T18:25:28</time>
      </trkpt>
      <trkpt lat="45.36562" lon="6.14359">
        <ele>1199.2205</ele>
        <time>2021-07-18T18:25:31</time>
      </trkpt>
      <trkpt lat="45.36562" lon="6.14357">
        <ele>1199.2205</ele>
        <time>2021-07-18T18:25:32</time>
      </trkpt>
      <trkpt lat="45.36563" lon="6.14354">
        <ele>1192.6205</ele>
        <time>2021-07-18T18:25:34</time>
      </trkpt>
      <trkpt lat="45.36563" lon="6.14353">
        <ele>1192.6205</ele>
        <time>2021-07-18T18:25:35</time>
      </trkpt>
      <trkpt lat="45.36565" lon="6.1435">
        <ele>1192.6205</ele>
        <time>2021-07-18T18:25:37</time>
      </trkpt>
      <trkpt lat="45.36567" lon="6.14348">
        <ele>1192.6205</ele>
        <time>2021-07-18T18:25:39</time>
      </trkpt>
      <trkpt lat="45.36575" lon="6.14339">
        <ele>1196.3204</ele>
        <time>2021-07-18T18:25:49</time>
      </trkpt>
      <trkpt lat="45.3658" lon="6.14336">
        <ele>1196.3204</ele>
        <time>2021-07-18T18:25:53</time>
      </trkpt>
      <trkpt lat="45.36582" lon="6.14334">
        <ele>1196.3204</ele>
        <time>2021-07-18T18:25:55</time>
      </trkpt>
      <trkpt lat="45.36587" lon="6.14329">
        <ele>1196.3204</ele>
        <time>2021-07-18T18:26:02</time>
      </trkpt>
      <trkpt lat="45.36588" lon="6.14328">
        <ele>1196.3204</ele>
        <time>2021-07-18T18:26:03</time>
      </trkpt>
      <trkpt lat="45.36589" lon="6.14326">
        <ele>1196.3204</ele>
        <time>2021-07-18T18:26:05</time>
      </trkpt>
      <trkpt lat="45.36589" lon="6.14325">
        <ele>1196.3204</ele>
        <time>2021-07-18T18:26:06</time>
      </trkpt>
      <trkpt lat="45.3659" lon="6.14325">
        <ele>1196.3204</ele>
        <time>2021-07-18T18:26:07</time>
      </trkpt>
      <trkpt lat="45.3659" lon="6.14324">
        <ele>1196.3204</ele>
        <time>2021-07-18T18:26:09</time>
      </trkpt>
      <trkpt lat="45.36591" lon="6.14322">
        <ele>1196.3204</ele>
        <time>2021-07-18T18:26:10</time>
      </trkpt>
      <trkpt lat="45.36592" lon="6.1432">
        <ele>1196.3204</ele>
        <time>2021-07-18T18:26:11</time>
      </trkpt>
      <trkpt lat="45.36592" lon="6.14319">
        <ele>1196.3204</ele>
        <time>2021-07-18T18:26:12</time>
      </trkpt>
      <trkpt lat="45.36592" lon="6.14318">
        <ele>1196.3204</ele>
        <time>2021-07-18T18:26:13</time>
      </trkpt>
      <trkpt lat="45.36593" lon="6.14317">
        <ele>1190.9204</ele>
        <time>2021-07-18T18:26:14</time>
      </trkpt>
      <trkpt lat="45.36593" lon="6.14315">
        <ele>1190.9204</ele>
        <time>2021-07-18T18:26:15</time>
      </trkpt>
      <trkpt lat="45.36594" lon="6.14307">
        <ele>1190.9204</ele>
        <time>2021-07-18T18:26:19</time>
      </trkpt>
      <trkpt lat="45.36594" lon="6.14302">
        <ele>1190.9204</ele>
        <time>2021-07-18T18:26:21</time>
      </trkpt>
      <trkpt lat="45.36592" lon="6.14295">
        <ele>1186.4204</ele>
        <time>2021-07-18T18:26:25</time>
      </trkpt>
      <trkpt lat="45.36588" lon="6.1429">
        <ele>1186.4204</ele>
        <time>2021-07-18T18:26:31</time>
      </trkpt>
      <trkpt lat="45.36585" lon="6.1429">
        <ele>1183.7205</ele>
        <time>2021-07-18T18:26:34</time>
      </trkpt>
      <trkpt lat="45.36581" lon="6.14292">
        <ele>1183.7205</ele>
        <time>2021-07-18T18:26:39</time>
      </trkpt>
      <trkpt lat="45.3658" lon="6.14292">
        <ele>1183.7205</ele>
        <time>2021-07-18T18:26:40</time>
      </trkpt>
      <trkpt lat="45.36577" lon="6.14293">
        <ele>1183.7205</ele>
        <time>2021-07-18T18:26:43</time>
      </trkpt>
      <trkpt lat="45.36577" lon="6.14293">
        <ele>1183.7205</ele>
        <time>2021-07-18T18:26:44</time>
      </trkpt>
      <trkpt lat="45.36572" lon="6.14294">
        <ele>1183.7205</ele>
        <time>2021-07-18T18:26:49</time>
      </trkpt>
      <trkpt lat="45.36566" lon="6.14298">
        <ele>1183.7205</ele>
        <time>2021-07-18T18:26:56</time>
      </trkpt>
      <trkpt lat="45.36565" lon="6.14299">
        <ele>1183.7205</ele>
        <time>2021-07-18T18:26:57</time>
      </trkpt>
      <trkpt lat="45.36563" lon="6.14301">
        <ele>1183.7205</ele>
        <time>2021-07-18T18:27:00</time>
      </trkpt>
      <trkpt lat="45.36563" lon="6.14301">
        <ele>1183.7205</ele>
        <time>2021-07-18T18:27:01</time>
      </trkpt>
      <trkpt lat="45.36561" lon="6.14303">
        <ele>1183.7205</ele>
        <time>2021-07-18T18:27:04</time>
      </trkpt>
      <trkpt lat="45.36559" lon="6.14307">
        <ele>1183.7205</ele>
        <time>2021-07-18T18:27:08</time>
      </trkpt>
      <trkpt lat="45.36557" lon="6.14308">
        <ele>1183.7205</ele>
        <time>2021-07-18T18:27:11</time>
      </trkpt>
      <trkpt lat="45.36556" lon="6.14309">
        <ele>1183.7205</ele>
        <time>2021-07-18T18:27:12</time>
      </trkpt>
      <trkpt lat="45.36555" lon="6.1431">
        <ele>1182.1205</ele>
        <time>2021-07-18T18:27:14</time>
      </trkpt>
      <trkpt lat="45.36553" lon="6.14311">
        <ele>1182.1205</ele>
        <time>2021-07-18T18:27:16</time>
      </trkpt>
      <trkpt lat="45.36552" lon="6.14313">
        <ele>1182.1205</ele>
        <time>2021-07-18T18:27:18</time>
      </trkpt>
      <trkpt lat="45.36552" lon="6.14313">
        <ele>1182.1205</ele>
        <time>2021-07-18T18:27:19</time>
      </trkpt>
      <trkpt lat="45.36551" lon="6.14315">
        <ele>1182.1205</ele>
        <time>2021-07-18T18:27:20</time>
      </trkpt>
      <trkpt lat="45.36551" lon="6.14316">
        <ele>1182.1205</ele>
        <time>2021-07-18T18:27:21</time>
      </trkpt>
      <trkpt lat="45.36549" lon="6.14319">
        <ele>1182.1205</ele>
        <time>2021-07-18T18:27:23</time>
      </trkpt>
      <trkpt lat="45.36547" lon="6.1432">
        <ele>1181.1205</ele>
        <time>2021-07-18T18:27:25</time>
      </trkpt>
      <trkpt lat="45.36529" lon="6.14326">
        <ele>1173.1205</ele>
        <time>2021-07-18T18:27:38</time>
      </trkpt>
      <trkpt lat="45.36527" lon="6.14326">
        <ele>1173.1205</ele>
        <time>2021-07-18T18:27:39</time>
      </trkpt>
      <trkpt lat="45.36526" lon="6.14326">
        <ele>1173.1205</ele>
        <time>2021-07-18T18:27:40</time>
      </trkpt>
      <trkpt lat="45.36525" lon="6.14327">
        <ele>1173.1205</ele>
        <time>2021-07-18T18:27:41</time>
      </trkpt>
      <trkpt lat="45.36523" lon="6.14327">
        <ele>1173.1205</ele>
        <time>2021-07-18T18:27:42</time>
      </trkpt>
      <trkpt lat="45.36521" lon="6.14329">
        <ele>1173.1205</ele>
        <time>2021-07-18T18:27:44</time>
      </trkpt>
      <trkpt lat="45.36519" lon="6.14329">
        <ele>1173.1205</ele>
        <time>2021-07-18T18:27:45</time>
      </trkpt>
      <trkpt lat="45.36504" lon="6.14332">
        <ele>1173.1205</ele>
        <time>2021-07-18T18:27:55</time>
      </trkpt>
      <trkpt lat="45.36497" lon="6.14332">
        <ele>1173.1205</ele>
        <time>2021-07-18T18:28:01</time>
      </trkpt>
      <trkpt lat="45.36492" lon="6.1433">
        <ele>1173.1205</ele>
        <time>2021-07-18T18:28:06</time>
      </trkpt>
      <trkpt lat="45.36483" lon="6.1433">
        <ele>1167.7205</ele>
        <time>2021-07-18T18:28:14</time>
      </trkpt>
      <trkpt lat="45.36478" lon="6.14329">
        <ele>1167.7205</ele>
        <time>2021-07-18T18:28:18</time>
      </trkpt>
      <trkpt lat="45.36471" lon="6.14329">
        <ele>1165.6205</ele>
        <time>2021-07-18T18:28:24</time>
      </trkpt>
      <trkpt lat="45.36466" lon="6.14328">
        <ele>1165.6205</ele>
        <time>2021-07-18T18:28:29</time>
      </trkpt>
      <trkpt lat="45.36457" lon="6.14326">
        <ele>1165.6205</ele>
        <time>2021-07-18T18:28:39</time>
      </trkpt>
      <trkpt lat="45.36456" lon="6.14326">
        <ele>1165.6205</ele>
        <time>2021-07-18T18:28:40</time>
      </trkpt>
      <trkpt lat="45.36455" lon="6.14325">
        <ele>1165.6205</ele>
        <time>2021-07-18T18:28:41</time>
      </trkpt>
      <trkpt lat="45.36454" lon="6.14325">
        <ele>1165.6205</ele>
        <time>2021-07-18T18:28:42</time>
      </trkpt>
      <trkpt lat="45.36453" lon="6.14326">
        <ele>1165.6205</ele>
        <time>2021-07-18T18:28:44</time>
      </trkpt>
      <trkpt lat="45.36451" lon="6.14326">
        <ele>1165.6205</ele>
        <time>2021-07-18T18:28:46</time>
      </trkpt>
      <trkpt lat="45.36449" lon="6.14327">
        <ele>1165.6205</ele>
        <time>2021-07-18T18:28:47</time>
      </trkpt>
      <trkpt lat="45.36448" lon="6.1433">
        <ele>1165.6205</ele>
        <time>2021-07-18T18:28:49</time>
      </trkpt>
      <trkpt lat="45.36446" lon="6.14331">
        <ele>1165.6205</ele>
        <time>2021-07-18T18:28:51</time>
      </trkpt>
      <trkpt lat="45.36444" lon="6.14331">
        <ele>1165.6205</ele>
        <time>2021-07-18T18:28:54</time>
      </trkpt>
      <trkpt lat="45.36444" lon="6.14331">
        <ele>1165.6205</ele>
        <time>2021-07-18T18:28:55</time>
      </trkpt>
      <trkpt lat="45.36439" lon="6.1433">
        <ele>1165.6205</ele>
        <time>2021-07-18T18:28:59</time>
      </trkpt>
      <trkpt lat="45.36436" lon="6.1433">
        <ele>1165.6205</ele>
        <time>2021-07-18T18:29:01</time>
      </trkpt>
      <trkpt lat="45.36434" lon="6.1433">
        <ele>1165.6205</ele>
        <time>2021-07-18T18:29:02</time>
      </trkpt>
      <trkpt lat="45.36433" lon="6.1433">
        <ele>1165.6205</ele>
        <time>2021-07-18T18:29:03</time>
      </trkpt>
      <trkpt lat="45.36429" lon="6.14329">
        <ele>1159.4204</ele>
        <time>2021-07-18T18:29:06</time>
      </trkpt>
      <trkpt lat="45.36426" lon="6.14328">
        <ele>1159.4204</ele>
        <time>2021-07-18T18:29:09</time>
      </trkpt>
      <trkpt lat="45.36422" lon="6.14328">
        <ele>1159.4204</ele>
        <time>2021-07-18T18:29:12</time>
      </trkpt>
      <trkpt lat="45.36421" lon="6.14327">
        <ele>1159.4204</ele>
        <time>2021-07-18T18:29:14</time>
      </trkpt>
      <trkpt lat="45.36413" lon="6.14325">
        <ele>1159.4204</ele>
        <time>2021-07-18T18:29:22</time>
      </trkpt>
      <trkpt lat="45.36412" lon="6.14325">
        <ele>1159.4204</ele>
        <time>2021-07-18T18:29:23</time>
      </trkpt>
      <trkpt lat="45.36407" lon="6.14325">
        <ele>1159.4204</ele>
        <time>2021-07-18T18:29:27</time>
      </trkpt>
      <trkpt lat="45.36404" lon="6.14324">
        <ele>1159.4204</ele>
        <time>2021-07-18T18:29:29</time>
      </trkpt>
      <trkpt lat="45.36402" lon="6.14324">
        <ele>1159.4204</ele>
        <time>2021-07-18T18:29:30</time>
      </trkpt>
      <trkpt lat="45.3639" lon="6.14323">
        <ele>1165.5204</ele>
        <time>2021-07-18T18:29:38</time>
      </trkpt>
      <trkpt lat="45.36385" lon="6.14324">
        <ele>1165.5204</ele>
        <time>2021-07-18T18:29:41</time>
      </trkpt>
      <trkpt lat="45.36383" lon="6.14324">
        <ele>1165.5204</ele>
        <time>2021-07-18T18:29:43</time>
      </trkpt>
      <trkpt lat="45.36378" lon="6.14322">
        <ele>1164.7205</ele>
        <time>2021-07-18T18:29:47</time>
      </trkpt>
      <trkpt lat="45.36375" lon="6.14322">
        <ele>1164.7205</ele>
        <time>2021-07-18T18:29:49</time>
      </trkpt>
      <trkpt lat="45.36372" lon="6.1432">
        <ele>1164.7205</ele>
        <time>2021-07-18T18:29:52</time>
      </trkpt>
      <trkpt lat="45.36368" lon="6.14311">
        <ele>1164.7205</ele>
        <time>2021-07-18T18:29:59</time>
      </trkpt>
      <trkpt lat="45.36367" lon="6.14309">
        <ele>1164.7205</ele>
        <time>2021-07-18T18:30:00</time>
      </trkpt>
      <trkpt lat="45.36368" lon="6.14307">
        <ele>1164.7205</ele>
        <time>2021-07-18T18:30:02</time>
      </trkpt>
      <trkpt lat="45.36369" lon="6.14305">
        <ele>1164.7205</ele>
        <time>2021-07-18T18:30:03</time>
      </trkpt>
      <trkpt lat="45.36371" lon="6.14302">
        <ele>1164.7205</ele>
        <time>2021-07-18T18:30:06</time>
      </trkpt>
      <trkpt lat="45.36372" lon="6.14302">
        <ele>1164.7205</ele>
        <time>2021-07-18T18:30:08</time>
      </trkpt>
      <trkpt lat="45.36372" lon="6.14301">
        <ele>1164.7205</ele>
        <time>2021-07-18T18:30:09</time>
      </trkpt>
      <trkpt lat="45.36373" lon="6.143">
        <ele>1164.7205</ele>
        <time>2021-07-18T18:30:10</time>
      </trkpt>
      <trkpt lat="45.36374" lon="6.14299">
        <ele>1164.7205</ele>
        <time>2021-07-18T18:30:11</time>
      </trkpt>
      <trkpt lat="45.36378" lon="6.14296">
        <ele>1160.7205</ele>
        <time>2021-07-18T18:30:15</time>
      </trkpt>
      <trkpt lat="45.36382" lon="6.14293">
        <ele>1160.7205</ele>
        <time>2021-07-18T18:30:22</time>
      </trkpt>
      <trkpt lat="45.36382" lon="6.14294">
        <ele>1157.8204</ele>
        <time>2021-07-18T18:30:26</time>
      </trkpt>
      <trkpt lat="45.36388" lon="6.14292">
        <ele>1157.8204</ele>
        <time>2021-07-18T18:30:32</time>
      </trkpt>
      <trkpt lat="45.36402" lon="6.1429">
        <ele>1157.8204</ele>
        <time>2021-07-18T18:30:51</time>
      </trkpt>
      <trkpt lat="45.36403" lon="6.1429">
        <ele>1157.8204</ele>
        <time>2021-07-18T18:30:52</time>
      </trkpt>
      <trkpt lat="45.36405" lon="6.1429">
        <ele>1157.8204</ele>
        <time>2021-07-18T18:30:54</time>
      </trkpt>
      <trkpt lat="45.36407" lon="6.1429">
        <ele>1157.8204</ele>
        <time>2021-07-18T18:30:56</time>
      </trkpt>
      <trkpt lat="45.36409" lon="6.14289">
        <ele>1157.8204</ele>
        <time>2021-07-18T18:30:57</time>
      </trkpt>
      <trkpt lat="45.36414" lon="6.14288">
        <ele>1157.8204</ele>
        <time>2021-07-18T18:31:00</time>
      </trkpt>
      <trkpt lat="45.36416" lon="6.14287">
        <ele>1157.8204</ele>
        <time>2021-07-18T18:31:02</time>
      </trkpt>
      <trkpt lat="45.36418" lon="6.14287">
        <ele>1157.8204</ele>
        <time>2021-07-18T18:31:03</time>
      </trkpt>
      <trkpt lat="45.36419" lon="6.14286">
        <ele>1140.8204</ele>
        <time>2021-07-18T18:31:04</time>
      </trkpt>
      <trkpt lat="45.3642" lon="6.14285">
        <ele>1140.8204</ele>
        <time>2021-07-18T18:31:05</time>
      </trkpt>
      <trkpt lat="45.36421" lon="6.14284">
        <ele>1140.8204</ele>
        <time>2021-07-18T18:31:06</time>
      </trkpt>
      <trkpt lat="45.36424" lon="6.14283">
        <ele>1140.8204</ele>
        <time>2021-07-18T18:31:09</time>
      </trkpt>
      <trkpt lat="45.36425" lon="6.14283">
        <ele>1140.8204</ele>
        <time>2021-07-18T18:31:10</time>
      </trkpt>
      <trkpt lat="45.36426" lon="6.14282">
        <ele>1140.8204</ele>
        <time>2021-07-18T18:31:11</time>
      </trkpt>
      <trkpt lat="45.36426" lon="6.14282">
        <ele>1140.8204</ele>
        <time>2021-07-18T18:31:12</time>
      </trkpt>
      <trkpt lat="45.36428" lon="6.14282">
        <ele>1140.8204</ele>
        <time>2021-07-18T18:31:14</time>
      </trkpt>
      <trkpt lat="45.36429" lon="6.14282">
        <ele>1140.8204</ele>
        <time>2021-07-18T18:31:15</time>
      </trkpt>
      <trkpt lat="45.36431" lon="6.14281">
        <ele>1140.8204</ele>
        <time>2021-07-18T18:31:17</time>
      </trkpt>
      <trkpt lat="45.36437" lon="6.14278">
        <ele>1140.8204</ele>
        <time>2021-07-18T18:31:22</time>
      </trkpt>
      <trkpt lat="45.36438" lon="6.14278">
        <ele>1140.8204</ele>
        <time>2021-07-18T18:31:23</time>
      </trkpt>
      <trkpt lat="45.36438" lon="6.14278">
        <ele>1140.8204</ele>
        <time>2021-07-18T18:31:24</time>
      </trkpt>
      <trkpt lat="45.36439" lon="6.14278">
        <ele>1140.8204</ele>
        <time>2021-07-18T18:31:28</time>
      </trkpt>
      <trkpt lat="45.36442" lon="6.14277">
        <ele>1140.8204</ele>
        <time>2021-07-18T18:31:30</time>
      </trkpt>
      <trkpt lat="45.36443" lon="6.14276">
        <ele>1140.8204</ele>
        <time>2021-07-18T18:31:31</time>
      </trkpt>
      <trkpt lat="45.36445" lon="6.14274">
        <ele>1140.8204</ele>
        <time>2021-07-18T18:31:33</time>
      </trkpt>
      <trkpt lat="45.36446" lon="6.14274">
        <ele>1141.9204</ele>
        <time>2021-07-18T18:31:34</time>
      </trkpt>
      <trkpt lat="45.36452" lon="6.14271">
        <ele>1141.9204</ele>
        <time>2021-07-18T18:31:39</time>
      </trkpt>
      <trkpt lat="45.36455" lon="6.1427">
        <ele>1141.9204</ele>
        <time>2021-07-18T18:31:41</time>
      </trkpt>
      <trkpt lat="45.36457" lon="6.14268">
        <ele>1141.9204</ele>
        <time>2021-07-18T18:31:42</time>
      </trkpt>
      <trkpt lat="45.36458" lon="6.14267">
        <ele>1141.9204</ele>
        <time>2021-07-18T18:31:43</time>
      </trkpt>
      <trkpt lat="45.36462" lon="6.14263">
        <ele>1141.9204</ele>
        <time>2021-07-18T18:31:46</time>
      </trkpt>
      <trkpt lat="45.36472" lon="6.14259">
        <ele>1141.9204</ele>
        <time>2021-07-18T18:31:52</time>
      </trkpt>
      <trkpt lat="45.36473" lon="6.14259">
        <ele>1141.9204</ele>
        <time>2021-07-18T18:31:53</time>
      </trkpt>
      <trkpt lat="45.36486" lon="6.14253">
        <ele>1143.2205</ele>
        <time>2021-07-18T18:32:04</time>
      </trkpt>
      <trkpt lat="45.36491" lon="6.1425">
        <ele>1143.2205</ele>
        <time>2021-07-18T18:32:08</time>
      </trkpt>
      <trkpt lat="45.36492" lon="6.14249">
        <ele>1143.2205</ele>
        <time>2021-07-18T18:32:09</time>
      </trkpt>
      <trkpt lat="45.36493" lon="6.14249">
        <ele>1143.2205</ele>
        <time>2021-07-18T18:32:10</time>
      </trkpt>
      <trkpt lat="45.36496" lon="6.14249">
        <ele>1143.2205</ele>
        <time>2021-07-18T18:32:12</time>
      </trkpt>
      <trkpt lat="45.36497" lon="6.14249">
        <ele>1143.2205</ele>
        <time>2021-07-18T18:32:13</time>
      </trkpt>
      <trkpt lat="45.36503" lon="6.14244">
        <ele>1140.5204</ele>
        <time>2021-07-18T18:32:19</time>
      </trkpt>
      <trkpt lat="45.36505" lon="6.14241">
        <ele>1140.5204</ele>
        <time>2021-07-18T18:32:22</time>
      </trkpt>
      <trkpt lat="45.36507" lon="6.14239">
        <ele>1137.0204</ele>
        <time>2021-07-18T18:32:24</time>
      </trkpt>
      <trkpt lat="45.36508" lon="6.14239">
        <ele>1137.0204</ele>
        <time>2021-07-18T18:32:25</time>
      </trkpt>
      <trkpt lat="45.36509" lon="6.14238">
        <ele>1137.0204</ele>
        <time>2021-07-18T18:32:26</time>
      </trkpt>
      <trkpt lat="45.3651" lon="6.14237">
        <ele>1137.0204</ele>
        <time>2021-07-18T18:32:27</time>
      </trkpt>
      <trkpt lat="45.36512" lon="6.14236">
        <ele>1137.0204</ele>
        <time>2021-07-18T18:32:28</time>
      </trkpt>
      <trkpt lat="45.36515" lon="6.14234">
        <ele>1137.0204</ele>
        <time>2021-07-18T18:32:31</time>
      </trkpt>
      <trkpt lat="45.36525" lon="6.14226">
        <ele>1139.2205</ele>
        <time>2021-07-18T18:32:40</time>
      </trkpt>
      <trkpt lat="45.3653" lon="6.14222">
        <ele>1142.6205</ele>
        <time>2021-07-18T18:32:44</time>
      </trkpt>
      <trkpt lat="45.36531" lon="6.14222">
        <ele>1142.6205</ele>
        <time>2021-07-18T18:32:45</time>
      </trkpt>
      <trkpt lat="45.36532" lon="6.14221">
        <ele>1142.6205</ele>
        <time>2021-07-18T18:32:46</time>
      </trkpt>
      <trkpt lat="45.36533" lon="6.14221">
        <ele>1142.6205</ele>
        <time>2021-07-18T18:32:47</time>
      </trkpt>
      <trkpt lat="45.36534" lon="6.14221">
        <ele>1142.6205</ele>
        <time>2021-07-18T18:32:48</time>
      </trkpt>
      <trkpt lat="45.36536" lon="6.14221">
        <ele>1142.6205</ele>
        <time>2021-07-18T18:32:49</time>
      </trkpt>
      <trkpt lat="45.36539" lon="6.14217">
        <ele>1142.6205</ele>
        <time>2021-07-18T18:32:52</time>
      </trkpt>
      <trkpt lat="45.36543" lon="6.14214">
        <ele>1138.8204</ele>
        <time>2021-07-18T18:32:56</time>
      </trkpt>
      <trkpt lat="45.36549" lon="6.14212">
        <ele>1138.8204</ele>
        <time>2021-07-18T18:33:01</time>
      </trkpt>
      <trkpt lat="45.36559" lon="6.14208">
        <ele>1136.1205</ele>
        <time>2021-07-18T18:33:09</time>
      </trkpt>
      <trkpt lat="45.36562" lon="6.14207">
        <ele>1136.1205</ele>
        <time>2021-07-18T18:33:12</time>
      </trkpt>
      <trkpt lat="45.36563" lon="6.14206">
        <ele>1136.1205</ele>
        <time>2021-07-18T18:33:13</time>
      </trkpt>
      <trkpt lat="45.36568" lon="6.14202">
        <ele>1134.0204</ele>
        <time>2021-07-18T18:33:17</time>
      </trkpt>
      <trkpt lat="45.3657" lon="6.14201">
        <ele>1134.0204</ele>
        <time>2021-07-18T18:33:19</time>
      </trkpt>
      <trkpt lat="45.36589" lon="6.14186">
        <ele>1135.6205</ele>
        <time>2021-07-18T18:33:37</time>
      </trkpt>
      <trkpt lat="45.36599" lon="6.14178">
        <ele>1140.2205</ele>
        <time>2021-07-18T18:33:50</time>
      </trkpt>
      <trkpt lat="45.36601" lon="6.14177">
        <ele>1140.2205</ele>
        <time>2021-07-18T18:33:52</time>
      </trkpt>
      <trkpt lat="45.36609" lon="6.14171">
        <ele>1143.0204</ele>
        <time>2021-07-18T18:34:02</time>
      </trkpt>
      <trkpt lat="45.36612" lon="6.14167">
        <ele>1141.2205</ele>
        <time>2021-07-18T18:34:07</time>
      </trkpt>
      <trkpt lat="45.36613" lon="6.14167">
        <ele>1141.2205</ele>
        <time>2021-07-18T18:34:10</time>
      </trkpt>
      <trkpt lat="45.36614" lon="6.14167">
        <ele>1141.2205</ele>
        <time>2021-07-18T18:34:11</time>
      </trkpt>
      <trkpt lat="45.3662" lon="6.14163">
        <ele>1134.0204</ele>
        <time>2021-07-18T18:34:19</time>
      </trkpt>
      <trkpt lat="45.3662" lon="6.14163">
        <ele>1134.0204</ele>
        <time>2021-07-18T18:34:20</time>
      </trkpt>
      <trkpt lat="45.36622" lon="6.14157">
        <ele>1123.3204</ele>
        <time>2021-07-18T18:34:25</time>
      </trkpt>
      <trkpt lat="45.36624" lon="6.14153">
        <ele>1123.3204</ele>
        <time>2021-07-18T18:34:27</time>
      </trkpt>
      <trkpt lat="45.36625" lon="6.14149">
        <ele>1123.3204</ele>
        <time>2021-07-18T18:34:30</time>
      </trkpt>
      <trkpt lat="45.36625" lon="6.14148">
        <ele>1123.3204</ele>
        <time>2021-07-18T18:34:31</time>
      </trkpt>
      <trkpt lat="45.36625" lon="6.14147">
        <ele>1123.3204</ele>
        <time>2021-07-18T18:34:32</time>
      </trkpt>
      <trkpt lat="45.36625" lon="6.14146">
        <ele>1123.3204</ele>
        <time>2021-07-18T18:34:33</time>
      </trkpt>
      <trkpt lat="45.36625" lon="6.14144">
        <ele>1123.6205</ele>
        <time>2021-07-18T18:34:34</time>
      </trkpt>
      <trkpt lat="45.36626" lon="6.14141">
        <ele>1123.6205</ele>
        <time>2021-07-18T18:34:36</time>
      </trkpt>
      <trkpt lat="45.36626" lon="6.1414">
        <ele>1123.6205</ele>
        <time>2021-07-18T18:34:39</time>
      </trkpt>
      <trkpt lat="45.36628" lon="6.14137">
        <ele>1123.6205</ele>
        <time>2021-07-18T18:34:42</time>
      </trkpt>
      <trkpt lat="45.3663" lon="6.14135">
        <ele>1125.2205</ele>
        <time>2021-07-18T18:34:44</time>
      </trkpt>
      <trkpt lat="45.36632" lon="6.14132">
        <ele>1125.2205</ele>
        <time>2021-07-18T18:34:46</time>
      </trkpt>
      <trkpt lat="45.36633" lon="6.1413">
        <ele>1125.2205</ele>
        <time>2021-07-18T18:34:47</time>
      </trkpt>
      <trkpt lat="45.36634" lon="6.14126">
        <ele>1125.2205</ele>
        <time>2021-07-18T18:34:49</time>
      </trkpt>
      <trkpt lat="45.36635" lon="6.14125">
        <ele>1125.2205</ele>
        <time>2021-07-18T18:34:50</time>
      </trkpt>
      <trkpt lat="45.36636" lon="6.14122">
        <ele>1125.2205</ele>
        <time>2021-07-18T18:34:52</time>
      </trkpt>
      <trkpt lat="45.36639" lon="6.14119">
        <ele>1123.3204</ele>
        <time>2021-07-18T18:34:54</time>
      </trkpt>
      <trkpt lat="45.36639" lon="6.14118">
        <ele>1123.3204</ele>
        <time>2021-07-18T18:34:55</time>
      </trkpt>
      <trkpt lat="45.36641" lon="6.14117">
        <ele>1123.3204</ele>
        <time>2021-07-18T18:34:56</time>
      </trkpt>
      <trkpt lat="45.36643" lon="6.14114">
        <ele>1123.3204</ele>
        <time>2021-07-18T18:34:58</time>
      </trkpt>
      <trkpt lat="45.36644" lon="6.14112">
        <ele>1123.3204</ele>
        <time>2021-07-18T18:34:59</time>
      </trkpt>
      <trkpt lat="45.36649" lon="6.14102">
        <ele>1124.4204</ele>
        <time>2021-07-18T18:35:05</time>
      </trkpt>
      <trkpt lat="45.3665" lon="6.14101">
        <ele>1124.4204</ele>
        <time>2021-07-18T18:35:06</time>
      </trkpt>
      <trkpt lat="45.36652" lon="6.14101">
        <ele>1124.4204</ele>
        <time>2021-07-18T18:35:08</time>
      </trkpt>
      <trkpt lat="45.36653" lon="6.141">
        <ele>1124.4204</ele>
        <time>2021-07-18T18:35:09</time>
      </trkpt>
      <trkpt lat="45.36657" lon="6.14096">
        <ele>1124.4204</ele>
        <time>2021-07-18T18:35:13</time>
      </trkpt>
      <trkpt lat="45.36662" lon="6.14092">
        <ele>1125.3204</ele>
        <time>2021-07-18T18:35:17</time>
      </trkpt>
      <trkpt lat="45.36662" lon="6.14091">
        <ele>1125.3204</ele>
        <time>2021-07-18T18:35:18</time>
      </trkpt>
      <trkpt lat="45.36663" lon="6.14091">
        <ele>1125.3204</ele>
        <time>2021-07-18T18:35:19</time>
      </trkpt>
      <trkpt lat="45.36664" lon="6.14091">
        <ele>1125.3204</ele>
        <time>2021-07-18T18:35:20</time>
      </trkpt>
      <trkpt lat="45.36664" lon="6.14091">
        <ele>1125.3204</ele>
        <time>2021-07-18T18:35:21</time>
      </trkpt>
      <trkpt lat="45.36665" lon="6.1409">
        <ele>1122.0204</ele>
        <time>2021-07-18T18:35:26</time>
      </trkpt>
      <trkpt lat="45.36666" lon="6.14089">
        <ele>1122.0204</ele>
        <time>2021-07-18T18:35:27</time>
      </trkpt>
      <trkpt lat="45.36667" lon="6.14087">
        <ele>1122.0204</ele>
        <time>2021-07-18T18:35:28</time>
      </trkpt>
      <trkpt lat="45.36668" lon="6.14085">
        <ele>1122.0204</ele>
        <time>2021-07-18T18:35:29</time>
      </trkpt>
      <trkpt lat="45.3667" lon="6.14084">
        <ele>1122.0204</ele>
        <time>2021-07-18T18:35:30</time>
      </trkpt>
      <trkpt lat="45.36671" lon="6.14084">
        <ele>1122.0204</ele>
        <time>2021-07-18T18:35:31</time>
      </trkpt>
      <trkpt lat="45.36674" lon="6.14083">
        <ele>1122.0204</ele>
        <time>2021-07-18T18:35:33</time>
      </trkpt>
      <trkpt lat="45.36675" lon="6.14082">
        <ele>1117.5204</ele>
        <time>2021-07-18T18:35:35</time>
      </trkpt>
      <trkpt lat="45.36676" lon="6.14081">
        <ele>1117.5204</ele>
        <time>2021-07-18T18:35:36</time>
      </trkpt>
      <trkpt lat="45.36677" lon="6.1408">
        <ele>1117.5204</ele>
        <time>2021-07-18T18:35:37</time>
      </trkpt>
      <trkpt lat="45.36678" lon="6.14079">
        <ele>1117.5204</ele>
        <time>2021-07-18T18:35:38</time>
      </trkpt>
      <trkpt lat="45.36681" lon="6.14077">
        <ele>1117.5204</ele>
        <time>2021-07-18T18:35:41</time>
      </trkpt>
      <trkpt lat="45.36684" lon="6.14075">
        <ele>1118.8204</ele>
        <time>2021-07-18T18:35:44</time>
      </trkpt>
      <trkpt lat="45.36687" lon="6.14074">
        <ele>1118.8204</ele>
        <time>2021-07-18T18:35:47</time>
      </trkpt>
      <trkpt lat="45.36687" lon="6.14074">
        <ele>1118.8204</ele>
        <time>2021-07-18T18:35:48</time>
      </trkpt>
      <trkpt lat="45.3669" lon="6.14072">
        <ele>1118.8204</ele>
        <time>2021-07-18T18:35:51</time>
      </trkpt>
      <trkpt lat="45.36694" lon="6.14069">
        <ele>1118.8204</ele>
        <time>2021-07-18T18:35:55</time>
      </trkpt>
      <trkpt lat="45.36701" lon="6.14066">
        <ele>1118.8204</ele>
        <time>2021-07-18T18:35:59</time>
      </trkpt>
      <trkpt lat="45.36703" lon="6.14063">
        <ele>1118.8204</ele>
        <time>2021-07-18T18:36:01</time>
      </trkpt>
      <trkpt lat="45.36705" lon="6.1406">
        <ele>1115.4204</ele>
        <time>2021-07-18T18:36:04</time>
      </trkpt>
      <trkpt lat="45.36706" lon="6.14059">
        <ele>1115.4204</ele>
        <time>2021-07-18T18:36:05</time>
      </trkpt>
      <trkpt lat="45.36707" lon="6.14058">
        <ele>1115.4204</ele>
        <time>2021-07-18T18:36:06</time>
      </trkpt>
      <trkpt lat="45.3671" lon="6.14052">
        <ele>1115.4204</ele>
        <time>2021-07-18T18:36:11</time>
      </trkpt>
      <trkpt lat="45.36718" lon="6.14041">
        <ele>1115.4204</ele>
        <time>2021-07-18T18:36:21</time>
      </trkpt>
      <trkpt lat="45.36719" lon="6.1404">
        <ele>1115.4204</ele>
        <time>2021-07-18T18:36:22</time>
      </trkpt>
      <trkpt lat="45.36721" lon="6.14038">
        <ele>1112.9204</ele>
        <time>2021-07-18T18:36:24</time>
      </trkpt>
      <trkpt lat="45.36729" lon="6.14033">
        <ele>1112.9204</ele>
        <time>2021-07-18T18:36:30</time>
      </trkpt>
      <trkpt lat="45.36734" lon="6.14031">
        <ele>1113.0204</ele>
        <time>2021-07-18T18:36:34</time>
      </trkpt>
      <trkpt lat="45.3675" lon="6.14021">
        <ele>1109.2205</ele>
        <time>2021-07-18T18:36:46</time>
      </trkpt>
      <trkpt lat="45.36754" lon="6.14021">
        <ele>1109.2205</ele>
        <time>2021-07-18T18:36:48</time>
      </trkpt>
      <trkpt lat="45.36755" lon="6.14022">
        <ele>1109.2205</ele>
        <time>2021-07-18T18:36:50</time>
      </trkpt>
      <trkpt lat="45.36758" lon="6.14024">
        <ele>1109.2205</ele>
        <time>2021-07-18T18:36:53</time>
      </trkpt>
      <trkpt lat="45.36759" lon="6.14024">
        <ele>1109.2205</ele>
        <time>2021-07-18T18:36:54</time>
      </trkpt>
      <trkpt lat="45.36771" lon="6.14025">
        <ele>1099.4204</ele>
        <time>2021-07-18T18:37:04</time>
      </trkpt>
      <trkpt lat="45.36772" lon="6.14025">
        <ele>1099.4204</ele>
        <time>2021-07-18T18:37:05</time>
      </trkpt>
      <trkpt lat="45.36774" lon="6.14025">
        <ele>1099.4204</ele>
        <time>2021-07-18T18:37:06</time>
      </trkpt>
      <trkpt lat="45.36776" lon="6.14024">
        <ele>1099.4204</ele>
        <time>2021-07-18T18:37:08</time>
      </trkpt>
      <trkpt lat="45.36781" lon="6.14022">
        <ele>1099.4204</ele>
        <time>2021-07-18T18:37:12</time>
      </trkpt>
      <trkpt lat="45.36784" lon="6.14023">
        <ele>1099.4204</ele>
        <time>2021-07-18T18:37:16</time>
      </trkpt>
      <trkpt lat="45.36785" lon="6.14023">
        <ele>1099.4204</ele>
        <time>2021-07-18T18:37:17</time>
      </trkpt>
      <trkpt lat="45.36788" lon="6.14021">
        <ele>1099.4204</ele>
        <time>2021-07-18T18:37:19</time>
      </trkpt>
      <trkpt lat="45.3679" lon="6.1402">
        <ele>1099.4204</ele>
        <time>2021-07-18T18:37:20</time>
      </trkpt>
      <trkpt lat="45.36794" lon="6.14017">
        <ele>1099.4204</ele>
        <time>2021-07-18T18:37:23</time>
      </trkpt>
      <trkpt lat="45.36798" lon="6.14015">
        <ele>1099.4204</ele>
        <time>2021-07-18T18:37:26</time>
      </trkpt>
      <trkpt lat="45.36801" lon="6.14013">
        <ele>1099.4204</ele>
        <time>2021-07-18T18:37:29</time>
      </trkpt>
      <trkpt lat="45.36805" lon="6.1401">
        <ele>1099.4204</ele>
        <time>2021-07-18T18:37:32</time>
      </trkpt>
      <trkpt lat="45.36808" lon="6.14009">
        <ele>1091.3204</ele>
        <time>2021-07-18T18:37:35</time>
      </trkpt>
      <trkpt lat="45.3681" lon="6.14008">
        <ele>1091.3204</ele>
        <time>2021-07-18T18:37:37</time>
      </trkpt>
      <trkpt lat="45.36811" lon="6.14008">
        <ele>1091.3204</ele>
        <time>2021-07-18T18:37:38</time>
      </trkpt>
      <trkpt lat="45.36815" lon="6.14006">
        <ele>1091.3204</ele>
        <time>2021-07-18T18:37:41</time>
      </trkpt>
      <trkpt lat="45.36821" lon="6.14002">
        <ele>1091.5204</ele>
        <time>2021-07-18T18:37:46</time>
      </trkpt>
      <trkpt lat="45.36824" lon="6.14001">
        <ele>1091.5204</ele>
        <time>2021-07-18T18:37:49</time>
      </trkpt>
      <trkpt lat="45.36826" lon="6.13999">
        <ele>1091.5204</ele>
        <time>2021-07-18T18:37:51</time>
      </trkpt>
      <trkpt lat="45.3683" lon="6.13996">
        <ele>1091.5204</ele>
        <time>2021-07-18T18:37:55</time>
      </trkpt>
      <trkpt lat="45.36833" lon="6.13992">
        <ele>1091.5204</ele>
        <time>2021-07-18T18:37:58</time>
      </trkpt>
      <trkpt lat="45.36835" lon="6.1399">
        <ele>1091.5204</ele>
        <time>2021-07-18T18:38:01</time>
      </trkpt>
      <trkpt lat="45.36838" lon="6.13989">
        <ele>1091.5204</ele>
        <time>2021-07-18T18:38:03</time>
      </trkpt>
      <trkpt lat="45.36839" lon="6.13989">
        <ele>1101.7205</ele>
        <time>2021-07-18T18:38:05</time>
      </trkpt>
      <trkpt lat="45.3684" lon="6.13987">
        <ele>1101.7205</ele>
        <time>2021-07-18T18:38:07</time>
      </trkpt>
      <trkpt lat="45.3684" lon="6.13986">
        <ele>1101.7205</ele>
        <time>2021-07-18T18:38:08</time>
      </trkpt>
      <trkpt lat="45.36839" lon="6.13984">
        <ele>1101.7205</ele>
        <time>2021-07-18T18:38:09</time>
      </trkpt>
      <trkpt lat="45.36839" lon="6.13983">
        <ele>1101.7205</ele>
        <time>2021-07-18T18:38:11</time>
      </trkpt>
      <trkpt lat="45.3684" lon="6.13982">
        <ele>1101.7205</ele>
        <time>2021-07-18T18:38:13</time>
      </trkpt>
      <trkpt lat="45.36841" lon="6.1398">
        <ele>1101.7205</ele>
        <time>2021-07-18T18:38:14</time>
      </trkpt>
      <trkpt lat="45.36842" lon="6.13978">
        <ele>1101.7205</ele>
        <time>2021-07-18T18:38:16</time>
      </trkpt>
      <trkpt lat="45.36842" lon="6.13977">
        <ele>1101.7205</ele>
        <time>2021-07-18T18:38:17</time>
      </trkpt>
      <trkpt lat="45.36842" lon="6.13976">
        <ele>1101.7205</ele>
        <time>2021-07-18T18:38:18</time>
      </trkpt>
      <trkpt lat="45.36843" lon="6.13974">
        <ele>1101.7205</ele>
        <time>2021-07-18T18:38:20</time>
      </trkpt>
      <trkpt lat="45.36844" lon="6.13972">
        <ele>1101.7205</ele>
        <time>2021-07-18T18:38:22</time>
      </trkpt>
      <trkpt lat="45.36848" lon="6.13971">
        <ele>1101.7205</ele>
        <time>2021-07-18T18:38:27</time>
      </trkpt>
      <trkpt lat="45.36848" lon="6.1397">
        <ele>1101.7205</ele>
        <time>2021-07-18T18:38:28</time>
      </trkpt>
      <trkpt lat="45.3685" lon="6.13968">
        <ele>1101.7205</ele>
        <time>2021-07-18T18:38:30</time>
      </trkpt>
      <trkpt lat="45.3685" lon="6.13968">
        <ele>1101.7205</ele>
        <time>2021-07-18T18:38:31</time>
      </trkpt>
      <trkpt lat="45.36851" lon="6.13967">
        <ele>1101.7205</ele>
        <time>2021-07-18T18:38:32</time>
      </trkpt>
      <trkpt lat="45.36852" lon="6.13968">
        <ele>1101.7205</ele>
        <time>2021-07-18T18:38:33</time>
      </trkpt>
      <trkpt lat="45.36853" lon="6.13967">
        <ele>1101.7205</ele>
        <time>2021-07-18T18:38:34</time>
      </trkpt>
      <trkpt lat="45.36853" lon="6.13968">
        <ele>1101.7205</ele>
        <time>2021-07-18T18:38:35</time>
      </trkpt>
      <trkpt lat="45.36854" lon="6.13967">
        <ele>1101.7205</ele>
        <time>2021-07-18T18:38:37</time>
      </trkpt>
      <trkpt lat="45.36856" lon="6.13966">
        <ele>1101.7205</ele>
        <time>2021-07-18T18:38:38</time>
      </trkpt>
      <trkpt lat="45.36858" lon="6.13965">
        <ele>1101.7205</ele>
        <time>2021-07-18T18:38:40</time>
      </trkpt>
      <trkpt lat="45.36862" lon="6.13968">
        <ele>1101.7205</ele>
        <time>2021-07-18T18:38:47</time>
      </trkpt>
      <trkpt lat="45.36864" lon="6.13966">
        <ele>1101.7205</ele>
        <time>2021-07-18T18:38:48</time>
      </trkpt>
      <trkpt lat="45.36869" lon="6.13962">
        <ele>1101.7205</ele>
        <time>2021-07-18T18:38:53</time>
      </trkpt>
      <trkpt lat="45.36871" lon="6.13962">
        <ele>1095.0204</ele>
        <time>2021-07-18T18:38:54</time>
      </trkpt>
      <trkpt lat="45.36872" lon="6.13961">
        <ele>1095.0204</ele>
        <time>2021-07-18T18:38:55</time>
      </trkpt>
      <trkpt lat="45.36875" lon="6.13957">
        <ele>1095.0204</ele>
        <time>2021-07-18T18:38:58</time>
      </trkpt>
      <trkpt lat="45.36876" lon="6.13956">
        <ele>1095.0204</ele>
        <time>2021-07-18T18:39:00</time>
      </trkpt>
      <trkpt lat="45.36877" lon="6.13955">
        <ele>1095.0204</ele>
        <time>2021-07-18T18:39:01</time>
      </trkpt>
      <trkpt lat="45.36877" lon="6.13954">
        <ele>1095.0204</ele>
        <time>2021-07-18T18:39:02</time>
      </trkpt>
      <trkpt lat="45.36879" lon="6.13952">
        <ele>1095.0204</ele>
        <time>2021-07-18T18:39:04</time>
      </trkpt>
      <trkpt lat="45.36879" lon="6.13951">
        <ele>1095.0204</ele>
        <time>2021-07-18T18:39:05</time>
      </trkpt>
      <trkpt lat="45.3688" lon="6.1395">
        <ele>1095.0204</ele>
        <time>2021-07-18T18:39:06</time>
      </trkpt>
      <trkpt lat="45.36881" lon="6.13949">
        <ele>1095.0204</ele>
        <time>2021-07-18T18:39:07</time>
      </trkpt>
      <trkpt lat="45.36882" lon="6.13948">
        <ele>1095.0204</ele>
        <time>2021-07-18T18:39:08</time>
      </trkpt>
      <trkpt lat="45.36883" lon="6.13946">
        <ele>1095.0204</ele>
        <time>2021-07-18T18:39:10</time>
      </trkpt>
      <trkpt lat="45.36889" lon="6.13936">
        <ele>1095.0204</ele>
        <time>2021-07-18T18:39:19</time>
      </trkpt>
      <trkpt lat="45.36893" lon="6.13934">
        <ele>1095.0204</ele>
        <time>2021-07-18T18:39:22</time>
      </trkpt>
      <trkpt lat="45.36895" lon="6.13932">
        <ele>1097.6205</ele>
        <time>2021-07-18T18:39:27</time>
      </trkpt>
      <trkpt lat="45.36898" lon="6.1393">
        <ele>1097.6205</ele>
        <time>2021-07-18T18:39:29</time>
      </trkpt>
      <trkpt lat="45.36902" lon="6.13929">
        <ele>1097.6205</ele>
        <time>2021-07-18T18:39:31</time>
      </trkpt>
      <trkpt lat="45.36914" lon="6.13926">
        <ele>1095.4204</ele>
        <time>2021-07-18T18:39:40</time>
      </trkpt>
      <trkpt lat="45.36914" lon="6.13925">
        <ele>1095.4204</ele>
        <time>2021-07-18T18:39:41</time>
      </trkpt>
      <trkpt lat="45.36916" lon="6.13924">
        <ele>1095.4204</ele>
        <time>2021-07-18T18:39:43</time>
      </trkpt>
      <trkpt lat="45.36917" lon="6.13924">
        <ele>1095.4204</ele>
        <time>2021-07-18T18:39:44</time>
      </trkpt>
      <trkpt lat="45.36919" lon="6.13924">
        <ele>1095.4204</ele>
        <time>2021-07-18T18:39:46</time>
      </trkpt>
      <trkpt lat="45.36921" lon="6.13923">
        <ele>1095.4204</ele>
        <time>2021-07-18T18:39:47</time>
      </trkpt>
      <trkpt lat="45.36923" lon="6.13921">
        <ele>1095.4204</ele>
        <time>2021-07-18T18:39:49</time>
      </trkpt>
      <trkpt lat="45.36927" lon="6.13918">
        <ele>1095.4204</ele>
        <time>2021-07-18T18:39:54</time>
      </trkpt>
      <trkpt lat="45.36929" lon="6.13917">
        <ele>1095.4204</ele>
        <time>2021-07-18T18:39:56</time>
      </trkpt>
      <trkpt lat="45.3693" lon="6.13917">
        <ele>1095.4204</ele>
        <time>2021-07-18T18:39:57</time>
      </trkpt>
      <trkpt lat="45.36933" lon="6.13918">
        <ele>1095.4204</ele>
        <time>2021-07-18T18:40:03</time>
      </trkpt>
      <trkpt lat="45.36936" lon="6.13916">
        <ele>1092.5204</ele>
        <time>2021-07-18T18:40:05</time>
      </trkpt>
      <trkpt lat="45.36939" lon="6.13913">
        <ele>1092.5204</ele>
        <time>2021-07-18T18:40:08</time>
      </trkpt>
      <trkpt lat="45.3694" lon="6.13912">
        <ele>1092.5204</ele>
        <time>2021-07-18T18:40:09</time>
      </trkpt>
      <trkpt lat="45.36942" lon="6.1391">
        <ele>1092.5204</ele>
        <time>2021-07-18T18:40:10</time>
      </trkpt>
      <trkpt lat="45.36943" lon="6.13908">
        <ele>1092.5204</ele>
        <time>2021-07-18T18:40:11</time>
      </trkpt>
      <trkpt lat="45.36948" lon="6.139">
        <ele>1087.1205</ele>
        <time>2021-07-18T18:40:14</time>
      </trkpt>
      <trkpt lat="45.36957" lon="6.13891">
        <ele>1087.1205</ele>
        <time>2021-07-18T18:40:23</time>
      </trkpt>
      <trkpt lat="45.36957" lon="6.1389">
        <ele>1087.1205</ele>
        <time>2021-07-18T18:40:24</time>
      </trkpt>
      <trkpt lat="45.36957" lon="6.13888">
        <ele>1087.1205</ele>
        <time>2021-07-18T18:40:25</time>
      </trkpt>
      <trkpt lat="45.36957" lon="6.13887">
        <ele>1087.1205</ele>
        <time>2021-07-18T18:40:26</time>
      </trkpt>
      <trkpt lat="45.36958" lon="6.13886">
        <ele>1087.1205</ele>
        <time>2021-07-18T18:40:27</time>
      </trkpt>
      <trkpt lat="45.36959" lon="6.13885">
        <ele>1087.1205</ele>
        <time>2021-07-18T18:40:29</time>
      </trkpt>
      <trkpt lat="45.36961" lon="6.13882">
        <ele>1087.1205</ele>
        <time>2021-07-18T18:40:31</time>
      </trkpt>
      <trkpt lat="45.36962" lon="6.13879">
        <ele>1087.1205</ele>
        <time>2021-07-18T18:40:33</time>
      </trkpt>
      <trkpt lat="45.36962" lon="6.13878">
        <ele>1087.1205</ele>
        <time>2021-07-18T18:40:34</time>
      </trkpt>
      <trkpt lat="45.36961" lon="6.13876">
        <ele>1087.1205</ele>
        <time>2021-07-18T18:40:35</time>
      </trkpt>
      <trkpt lat="45.36962" lon="6.13874">
        <ele>1087.1205</ele>
        <time>2021-07-18T18:40:36</time>
      </trkpt>
      <trkpt lat="45.36962" lon="6.13872">
        <ele>1087.1205</ele>
        <time>2021-07-18T18:40:37</time>
      </trkpt>
      <trkpt lat="45.36962" lon="6.1387">
        <ele>1087.1205</ele>
        <time>2021-07-18T18:40:39</time>
      </trkpt>
      <trkpt lat="45.36962" lon="6.13869">
        <ele>1087.1205</ele>
        <time>2021-07-18T18:40:40</time>
      </trkpt>
      <trkpt lat="45.36962" lon="6.13868">
        <ele>1087.1205</ele>
        <time>2021-07-18T18:40:41</time>
      </trkpt>
      <trkpt lat="45.36964" lon="6.13865">
        <ele>1087.1205</ele>
        <time>2021-07-18T18:40:43</time>
      </trkpt>
      <trkpt lat="45.36964" lon="6.13863">
        <ele>1087.1205</ele>
        <time>2021-07-18T18:40:44</time>
      </trkpt>
      <trkpt lat="45.36965" lon="6.13858">
        <ele>1087.1205</ele>
        <time>2021-07-18T18:40:47</time>
      </trkpt>
      <trkpt lat="45.36971" lon="6.13847">
        <ele>1087.1205</ele>
        <time>2021-07-18T18:40:53</time>
      </trkpt>
      <trkpt lat="45.36972" lon="6.13845">
        <ele>1086.3204</ele>
        <time>2021-07-18T18:40:54</time>
      </trkpt>
      <trkpt lat="45.36973" lon="6.13843">
        <ele>1086.3204</ele>
        <time>2021-07-18T18:40:57</time>
      </trkpt>
      <trkpt lat="45.36974" lon="6.13839">
        <ele>1086.3204</ele>
        <time>2021-07-18T18:40:59</time>
      </trkpt>
      <trkpt lat="45.36976" lon="6.13836">
        <ele>1086.3204</ele>
        <time>2021-07-18T18:41:02</time>
      </trkpt>
      <trkpt lat="45.36977" lon="6.13834">
        <ele>1086.7205</ele>
        <time>2021-07-18T18:41:04</time>
      </trkpt>
      <trkpt lat="45.36978" lon="6.13832">
        <ele>1086.7205</ele>
        <time>2021-07-18T18:41:05</time>
      </trkpt>
      <trkpt lat="45.36981" lon="6.13825">
        <ele>1086.7205</ele>
        <time>2021-07-18T18:41:10</time>
      </trkpt>
      <trkpt lat="45.36982" lon="6.13822">
        <ele>1086.7205</ele>
        <time>2021-07-18T18:41:12</time>
      </trkpt>
      <trkpt lat="45.36982" lon="6.13821">
        <ele>1086.7205</ele>
        <time>2021-07-18T18:41:13</time>
      </trkpt>
      <trkpt lat="45.36983" lon="6.13818">
        <ele>1086.7205</ele>
        <time>2021-07-18T18:41:15</time>
      </trkpt>
      <trkpt lat="45.36984" lon="6.13816">
        <ele>1086.7205</ele>
        <time>2021-07-18T18:41:16</time>
      </trkpt>
      <trkpt lat="45.36984" lon="6.13814">
        <ele>1086.7205</ele>
        <time>2021-07-18T18:41:17</time>
      </trkpt>
      <trkpt lat="45.36984" lon="6.13811">
        <ele>1086.7205</ele>
        <time>2021-07-18T18:41:18</time>
      </trkpt>
      <trkpt lat="45.36984" lon="6.13809">
        <ele>1086.7205</ele>
        <time>2021-07-18T18:41:19</time>
      </trkpt>
      <trkpt lat="45.36985" lon="6.13802">
        <ele>1086.7205</ele>
        <time>2021-07-18T18:41:23</time>
      </trkpt>
      <trkpt lat="45.36984" lon="6.13798">
        <ele>1086.7205</ele>
        <time>2021-07-18T18:41:25</time>
      </trkpt>
      <trkpt lat="45.36984" lon="6.13796">
        <ele>1086.7205</ele>
        <time>2021-07-18T18:41:26</time>
      </trkpt>
      <trkpt lat="45.36983" lon="6.13795">
        <ele>1086.7205</ele>
        <time>2021-07-18T18:41:28</time>
      </trkpt>
      <trkpt lat="45.36983" lon="6.13794">
        <ele>1086.7205</ele>
        <time>2021-07-18T18:41:29</time>
      </trkpt>
      <trkpt lat="45.36982" lon="6.13792">
        <ele>1086.7205</ele>
        <time>2021-07-18T18:41:31</time>
      </trkpt>
      <trkpt lat="45.36982" lon="6.1379">
        <ele>1086.7205</ele>
        <time>2021-07-18T18:41:32</time>
      </trkpt>
      <trkpt lat="45.36981" lon="6.13788">
        <ele>1086.7205</ele>
        <time>2021-07-18T18:41:33</time>
      </trkpt>
      <trkpt lat="45.36979" lon="6.13782">
        <ele>1086.7205</ele>
        <time>2021-07-18T18:41:38</time>
      </trkpt>
      <trkpt lat="45.36977" lon="6.13781">
        <ele>1086.7205</ele>
        <time>2021-07-18T18:41:39</time>
      </trkpt>
      <trkpt lat="45.36974" lon="6.13778">
        <ele>1086.7205</ele>
        <time>2021-07-18T18:41:42</time>
      </trkpt>
      <trkpt lat="45.3697" lon="6.13777">
        <ele>1086.7205</ele>
        <time>2021-07-18T18:41:45</time>
      </trkpt>
      <trkpt lat="45.36966" lon="6.13773">
        <ele>1086.7205</ele>
        <time>2021-07-18T18:41:48</time>
      </trkpt>
      <trkpt lat="45.36965" lon="6.13772">
        <ele>1086.7205</ele>
        <time>2021-07-18T18:41:49</time>
      </trkpt>
      <trkpt lat="45.36962" lon="6.1377">
        <ele>1086.7205</ele>
        <time>2021-07-18T18:41:51</time>
      </trkpt>
      <trkpt lat="45.36961" lon="6.13769">
        <ele>1086.7205</ele>
        <time>2021-07-18T18:41:52</time>
      </trkpt>
      <trkpt lat="45.36954" lon="6.13757">
        <ele>1086.7205</ele>
        <time>2021-07-18T18:42:01</time>
      </trkpt>
      <trkpt lat="45.36953" lon="6.13754">
        <ele>1086.7205</ele>
        <time>2021-07-18T18:42:03</time>
      </trkpt>
      <trkpt lat="45.36949" lon="6.13747">
        <ele>1086.7205</ele>
        <time>2021-07-18T18:42:09</time>
      </trkpt>
      <trkpt lat="45.36947" lon="6.13736">
        <ele>1086.7205</ele>
        <time>2021-07-18T18:42:17</time>
      </trkpt>
      <trkpt lat="45.36947" lon="6.1373">
        <ele>1086.7205</ele>
        <time>2021-07-18T18:42:20</time>
      </trkpt>
      <trkpt lat="45.36947" lon="6.13721">
        <ele>1086.7205</ele>
        <time>2021-07-18T18:42:26</time>
      </trkpt>
      <trkpt lat="45.36946" lon="6.13718">
        <ele>1086.7205</ele>
        <time>2021-07-18T18:42:27</time>
      </trkpt>
      <trkpt lat="45.36946" lon="6.13716">
        <ele>1086.7205</ele>
        <time>2021-07-18T18:42:28</time>
      </trkpt>
      <trkpt lat="45.36946" lon="6.13714">
        <ele>1086.7205</ele>
        <time>2021-07-18T18:42:29</time>
      </trkpt>
      <trkpt lat="45.36945" lon="6.13696">
        <ele>1086.7205</ele>
        <time>2021-07-18T18:42:41</time>
      </trkpt>
      <trkpt lat="45.36944" lon="6.13694">
        <ele>1086.7205</ele>
        <time>2021-07-18T18:42:42</time>
      </trkpt>
      <trkpt lat="45.36945" lon="6.13693">
        <ele>1086.7205</ele>
        <time>2021-07-18T18:42:43</time>
      </trkpt>
      <trkpt lat="45.36945" lon="6.13691">
        <ele>1086.7205</ele>
        <time>2021-07-18T18:42:44</time>
      </trkpt>
      <trkpt lat="45.36946" lon="6.13688">
        <ele>1086.7205</ele>
        <time>2021-07-18T18:42:46</time>
      </trkpt>
      <trkpt lat="45.36948" lon="6.13684">
        <ele>1086.7205</ele>
        <time>2021-07-18T18:42:48</time>
      </trkpt>
      <trkpt lat="45.36949" lon="6.13683">
        <ele>1086.7205</ele>
        <time>2021-07-18T18:42:49</time>
      </trkpt>
      <trkpt lat="45.3695" lon="6.1368">
        <ele>1086.7205</ele>
        <time>2021-07-18T18:42:51</time>
      </trkpt>
      <trkpt lat="45.3695" lon="6.13679">
        <ele>1086.7205</ele>
        <time>2021-07-18T18:42:52</time>
      </trkpt>
      <trkpt lat="45.36949" lon="6.13679">
        <ele>1086.7205</ele>
        <time>2021-07-18T18:42:53</time>
      </trkpt>
      <trkpt lat="45.36949" lon="6.13678">
        <ele>1086.7205</ele>
        <time>2021-07-18T18:42:54</time>
      </trkpt>
      <trkpt lat="45.36949" lon="6.13676">
        <ele>1086.7205</ele>
        <time>2021-07-18T18:42:55</time>
      </trkpt>
      <trkpt lat="45.3695" lon="6.13675">
        <ele>1086.7205</ele>
        <time>2021-07-18T18:42:56</time>
      </trkpt>
      <trkpt lat="45.36951" lon="6.13671">
        <ele>1086.7205</ele>
        <time>2021-07-18T18:42:58</time>
      </trkpt>
      <trkpt lat="45.36951" lon="6.13669">
        <ele>1086.7205</ele>
        <time>2021-07-18T18:42:59</time>
      </trkpt>
      <trkpt lat="45.3695" lon="6.13668">
        <ele>1086.7205</ele>
        <time>2021-07-18T18:43:00</time>
      </trkpt>
      <trkpt lat="45.3695" lon="6.13666">
        <ele>1086.7205</ele>
        <time>2021-07-18T18:43:01</time>
      </trkpt>
      <trkpt lat="45.3695" lon="6.13665">
        <ele>1086.7205</ele>
        <time>2021-07-18T18:43:02</time>
      </trkpt>
      <trkpt lat="45.36951" lon="6.13663">
        <ele>1086.7205</ele>
        <time>2021-07-18T18:43:03</time>
      </trkpt>
      <trkpt lat="45.36953" lon="6.13653">
        <ele>1086.7205</ele>
        <time>2021-07-18T18:43:09</time>
      </trkpt>
      <trkpt lat="45.36952" lon="6.13642">
        <ele>1086.7205</ele>
        <time>2021-07-18T18:43:14</time>
      </trkpt>
      <trkpt lat="45.36952" lon="6.1364">
        <ele>1086.7205</ele>
        <time>2021-07-18T18:43:15</time>
      </trkpt>
      <trkpt lat="45.36952" lon="6.13638">
        <ele>1086.7205</ele>
        <time>2021-07-18T18:43:16</time>
      </trkpt>
      <trkpt lat="45.36953" lon="6.13622">
        <ele>1086.7205</ele>
        <time>2021-07-18T18:43:26</time>
      </trkpt>
      <trkpt lat="45.36954" lon="6.13619">
        <ele>1086.7205</ele>
        <time>2021-07-18T18:43:28</time>
      </trkpt>
      <trkpt lat="45.36956" lon="6.13609">
        <ele>1086.7205</ele>
        <time>2021-07-18T18:43:34</time>
      </trkpt>
      <trkpt lat="45.36957" lon="6.13608">
        <ele>1086.7205</ele>
        <time>2021-07-18T18:43:35</time>
      </trkpt>
      <trkpt lat="45.36957" lon="6.13607">
        <ele>1086.7205</ele>
        <time>2021-07-18T18:43:36</time>
      </trkpt>
      <trkpt lat="45.36958" lon="6.13604">
        <ele>1086.7205</ele>
        <time>2021-07-18T18:43:38</time>
      </trkpt>
      <trkpt lat="45.36958" lon="6.136">
        <ele>1086.7205</ele>
        <time>2021-07-18T18:43:40</time>
      </trkpt>
      <trkpt lat="45.36959" lon="6.13598">
        <ele>1086.7205</ele>
        <time>2021-07-18T18:43:41</time>
      </trkpt>
      <trkpt lat="45.36961" lon="6.13592">
        <ele>1086.7205</ele>
        <time>2021-07-18T18:43:45</time>
      </trkpt>
      <trkpt lat="45.36961" lon="6.1359">
        <ele>1086.7205</ele>
        <time>2021-07-18T18:43:47</time>
      </trkpt>
      <trkpt lat="45.36962" lon="6.13586">
        <ele>1086.7205</ele>
        <time>2021-07-18T18:43:50</time>
      </trkpt>
      <trkpt lat="45.36962" lon="6.13585">
        <ele>1086.7205</ele>
        <time>2021-07-18T18:43:51</time>
      </trkpt>
      <trkpt lat="45.36962" lon="6.13584">
        <ele>1086.7205</ele>
        <time>2021-07-18T18:43:53</time>
      </trkpt>
      <trkpt lat="45.36962" lon="6.13583">
        <ele>1086.7205</ele>
        <time>2021-07-18T18:43:54</time>
      </trkpt>
      <trkpt lat="45.36962" lon="6.13582">
        <ele>1086.7205</ele>
        <time>2021-07-18T18:43:55</time>
      </trkpt>
      <trkpt lat="45.36962" lon="6.1358">
        <ele>1086.7205</ele>
        <time>2021-07-18T18:43:56</time>
      </trkpt>
      <trkpt lat="45.36963" lon="6.13578">
        <ele>1086.7205</ele>
        <time>2021-07-18T18:43:57</time>
      </trkpt>
      <trkpt lat="45.36966" lon="6.13571">
        <ele>1086.7205</ele>
        <time>2021-07-18T18:44:01</time>
      </trkpt>
      <trkpt lat="45.36966" lon="6.1357">
        <ele>1086.7205</ele>
        <time>2021-07-18T18:44:02</time>
      </trkpt>
      <trkpt lat="45.36967" lon="6.13568">
        <ele>1086.7205</ele>
        <time>2021-07-18T18:44:05</time>
      </trkpt>
      <trkpt lat="45.36967" lon="6.13566">
        <ele>1086.7205</ele>
        <time>2021-07-18T18:44:06</time>
      </trkpt>
      <trkpt lat="45.36966" lon="6.13565">
        <ele>1086.7205</ele>
        <time>2021-07-18T18:44:07</time>
      </trkpt>
      <trkpt lat="45.36966" lon="6.13564">
        <ele>1086.7205</ele>
        <time>2021-07-18T18:44:08</time>
      </trkpt>
      <trkpt lat="45.36965" lon="6.13564">
        <ele>1086.7205</ele>
        <time>2021-07-18T18:44:09</time>
      </trkpt>
      <trkpt lat="45.36965" lon="6.13564">
        <ele>1086.7205</ele>
        <time>2021-07-18T18:44:10</time>
      </trkpt>
      <trkpt lat="45.36965" lon="6.13563">
        <ele>1086.7205</ele>
        <time>2021-07-18T18:44:11</time>
      </trkpt>
      <trkpt lat="45.36966" lon="6.13561">
        <ele>1086.7205</ele>
        <time>2021-07-18T18:44:12</time>
      </trkpt>
      <trkpt lat="45.36966" lon="6.13558">
        <ele>1086.7205</ele>
        <time>2021-07-18T18:44:14</time>
      </trkpt>
      <trkpt lat="45.36967" lon="6.13556">
        <ele>1086.7205</ele>
        <time>2021-07-18T18:44:15</time>
      </trkpt>
      <trkpt lat="45.36969" lon="6.13554">
        <ele>1086.7205</ele>
        <time>2021-07-18T18:44:16</time>
      </trkpt>
      <trkpt lat="45.3697" lon="6.13552">
        <ele>1086.7205</ele>
        <time>2021-07-18T18:44:17</time>
      </trkpt>
      <trkpt lat="45.3697" lon="6.1355">
        <ele>1086.7205</ele>
        <time>2021-07-18T18:44:18</time>
      </trkpt>
      <trkpt lat="45.3697" lon="6.13547">
        <ele>1086.7205</ele>
        <time>2021-07-18T18:44:19</time>
      </trkpt>
      <trkpt lat="45.3697" lon="6.13544">
        <ele>1086.7205</ele>
        <time>2021-07-18T18:44:21</time>
      </trkpt>
      <trkpt lat="45.36971" lon="6.13542">
        <ele>1086.7205</ele>
        <time>2021-07-18T18:44:22</time>
      </trkpt>
      <trkpt lat="45.36972" lon="6.1354">
        <ele>1086.7205</ele>
        <time>2021-07-18T18:44:23</time>
      </trkpt>
      <trkpt lat="45.36974" lon="6.13539">
        <ele>1086.7205</ele>
        <time>2021-07-18T18:44:24</time>
      </trkpt>
      <trkpt lat="45.36977" lon="6.13536">
        <ele>1086.7205</ele>
        <time>2021-07-18T18:44:26</time>
      </trkpt>
      <trkpt lat="45.36978" lon="6.13533">
        <ele>1086.7205</ele>
        <time>2021-07-18T18:44:28</time>
      </trkpt>
      <trkpt lat="45.36979" lon="6.13531">
        <ele>1086.7205</ele>
        <time>2021-07-18T18:44:29</time>
      </trkpt>
      <trkpt lat="45.3698" lon="6.13527">
        <ele>1086.7205</ele>
        <time>2021-07-18T18:44:32</time>
      </trkpt>
      <trkpt lat="45.36981" lon="6.13526">
        <ele>1086.7205</ele>
        <time>2021-07-18T18:44:33</time>
      </trkpt>
      <trkpt lat="45.36982" lon="6.13525">
        <ele>1086.7205</ele>
        <time>2021-07-18T18:44:34</time>
      </trkpt>
      <trkpt lat="45.36983" lon="6.13524">
        <ele>1086.7205</ele>
        <time>2021-07-18T18:44:35</time>
      </trkpt>
      <trkpt lat="45.36984" lon="6.13523">
        <ele>1086.7205</ele>
        <time>2021-07-18T18:44:36</time>
      </trkpt>
      <trkpt lat="45.36986" lon="6.13518">
        <ele>1086.7205</ele>
        <time>2021-07-18T18:44:40</time>
      </trkpt>
      <trkpt lat="45.36986" lon="6.13516">
        <ele>1086.7205</ele>
        <time>2021-07-18T18:44:41</time>
      </trkpt>
      <trkpt lat="45.36987" lon="6.13515">
        <ele>1086.7205</ele>
        <time>2021-07-18T18:44:42</time>
      </trkpt>
      <trkpt lat="45.36988" lon="6.13514">
        <ele>1086.7205</ele>
        <time>2021-07-18T18:44:43</time>
      </trkpt>
      <trkpt lat="45.36989" lon="6.13513">
        <ele>1086.7205</ele>
        <time>2021-07-18T18:44:45</time>
      </trkpt>
      <trkpt lat="45.36992" lon="6.13511">
        <ele>1086.7205</ele>
        <time>2021-07-18T18:44:48</time>
      </trkpt>
      <trkpt lat="45.36995" lon="6.13508">
        <ele>1086.7205</ele>
        <time>2021-07-18T18:44:51</time>
      </trkpt>
      <trkpt lat="45.37" lon="6.13501">
        <ele>1086.7205</ele>
        <time>2021-07-18T18:44:57</time>
      </trkpt>
      <trkpt lat="45.37001" lon="6.135">
        <ele>1086.7205</ele>
        <time>2021-07-18T18:45:08</time>
      </trkpt>
      <trkpt lat="45.37012" lon="6.13496">
        <ele>1086.7205</ele>
        <time>2021-07-18T18:45:17</time>
      </trkpt>
      <trkpt lat="45.37016" lon="6.13494">
        <ele>1086.7205</ele>
        <time>2021-07-18T18:45:21</time>
      </trkpt>
      <trkpt lat="45.37018" lon="6.13494">
        <ele>1086.7205</ele>
        <time>2021-07-18T18:45:23</time>
      </trkpt>
      <trkpt lat="45.37019" lon="6.13495">
        <ele>1086.7205</ele>
        <time>2021-07-18T18:45:24</time>
      </trkpt>
      <trkpt lat="45.37021" lon="6.13495">
        <ele>1086.7205</ele>
        <time>2021-07-18T18:45:26</time>
      </trkpt>
      <trkpt lat="45.37023" lon="6.13495">
        <ele>1086.7205</ele>
        <time>2021-07-18T18:45:28</time>
      </trkpt>
      <trkpt lat="45.37032" lon="6.13494">
        <ele>1086.7205</ele>
        <time>2021-07-18T18:45:36</time>
      </trkpt>
      <trkpt lat="45.3704" lon="6.1349">
        <ele>1086.7205</ele>
        <time>2021-07-18T18:45:43</time>
      </trkpt>
      <trkpt lat="45.37043" lon="6.13488">
        <ele>1058.9204</ele>
        <time>2021-07-18T18:45:47</time>
      </trkpt>
      <trkpt lat="45.37048" lon="6.13486">
        <ele>1058.9204</ele>
        <time>2021-07-18T18:45:52</time>
      </trkpt>
      <trkpt lat="45.37049" lon="6.13485">
        <ele>1058.9204</ele>
        <time>2021-07-18T18:45:53</time>
      </trkpt>
      <trkpt lat="45.3705" lon="6.13484">
        <ele>1061.3204</ele>
        <time>2021-07-18T18:45:54</time>
      </trkpt>
      <trkpt lat="45.37051" lon="6.13483">
        <ele>1061.3204</ele>
        <time>2021-07-18T18:45:55</time>
      </trkpt>
      <trkpt lat="45.37051" lon="6.13482">
        <ele>1061.3204</ele>
        <time>2021-07-18T18:45:57</time>
      </trkpt>
      <trkpt lat="45.37055" lon="6.13478">
        <ele>1061.3204</ele>
        <time>2021-07-18T18:46:01</time>
      </trkpt>
      <trkpt lat="45.37056" lon="6.13478">
        <ele>1061.3204</ele>
        <time>2021-07-18T18:46:02</time>
      </trkpt>
      <trkpt lat="45.37061" lon="6.13476">
        <ele>1061.8204</ele>
        <time>2021-07-18T18:46:09</time>
      </trkpt>
      <trkpt lat="45.37063" lon="6.13476">
        <ele>1061.8204</ele>
        <time>2021-07-18T18:46:11</time>
      </trkpt>
      <trkpt lat="45.37066" lon="6.13473">
        <ele>1059.2205</ele>
        <time>2021-07-18T18:46:15</time>
      </trkpt>
      <trkpt lat="45.37069" lon="6.13471">
        <ele>1059.2205</ele>
        <time>2021-07-18T18:46:19</time>
      </trkpt>
      <trkpt lat="45.3707" lon="6.13471">
        <ele>1059.2205</ele>
        <time>2021-07-18T18:46:20</time>
      </trkpt>
      <trkpt lat="45.37078" lon="6.13467">
        <ele>1061.9204</ele>
        <time>2021-07-18T18:46:29</time>
      </trkpt>
      <trkpt lat="45.37078" lon="6.13466">
        <ele>1061.9204</ele>
        <time>2021-07-18T18:46:30</time>
      </trkpt>
      <trkpt lat="45.3708" lon="6.13465">
        <ele>1061.9204</ele>
        <time>2021-07-18T18:46:34</time>
      </trkpt>
      <trkpt lat="45.37097" lon="6.13457">
        <ele>1061.9204</ele>
        <time>2021-07-18T18:46:51</time>
      </trkpt>
      <trkpt lat="45.37108" lon="6.1345">
        <ele>1061.9204</ele>
        <time>2021-07-18T18:47:01</time>
      </trkpt>
      <trkpt lat="45.37118" lon="6.1344">
        <ele>1061.9204</ele>
        <time>2021-07-18T18:47:09</time>
      </trkpt>
      <trkpt lat="45.37126" lon="6.13429">
        <ele>1061.9204</ele>
        <time>2021-07-18T18:47:18</time>
      </trkpt>
      <trkpt lat="45.37131" lon="6.13417">
        <ele>1054.7205</ele>
        <time>2021-07-18T18:47:25</time>
      </trkpt>
      <trkpt lat="45.37131" lon="6.13416">
        <ele>1054.7205</ele>
        <time>2021-07-18T18:47:26</time>
      </trkpt>
      <trkpt lat="45.37131" lon="6.13414">
        <ele>1054.7205</ele>
        <time>2021-07-18T18:47:27</time>
      </trkpt>
      <trkpt lat="45.37133" lon="6.13407">
        <ele>1054.7205</ele>
        <time>2021-07-18T18:47:31</time>
      </trkpt>
      <trkpt lat="45.37135" lon="6.13402">
        <ele>1054.7205</ele>
        <time>2021-07-18T18:47:34</time>
      </trkpt>
      <trkpt lat="45.37141" lon="6.13389">
        <ele>1054.7205</ele>
        <time>2021-07-18T18:47:43</time>
      </trkpt>
      <trkpt lat="45.37142" lon="6.13386">
        <ele>1054.7205</ele>
        <time>2021-07-18T18:47:45</time>
      </trkpt>
      <trkpt lat="45.37143" lon="6.13385">
        <ele>1054.7205</ele>
        <time>2021-07-18T18:47:46</time>
      </trkpt>
      <trkpt lat="45.37146" lon="6.13381">
        <ele>1054.7205</ele>
        <time>2021-07-18T18:47:50</time>
      </trkpt>
      <trkpt lat="45.37148" lon="6.13379">
        <ele>1054.7205</ele>
        <time>2021-07-18T18:47:52</time>
      </trkpt>
      <trkpt lat="45.37151" lon="6.13375">
        <ele>1054.7205</ele>
        <time>2021-07-18T18:47:56</time>
      </trkpt>
      <trkpt lat="45.37153" lon="6.13372">
        <ele>1054.7205</ele>
        <time>2021-07-18T18:47:59</time>
      </trkpt>
      <trkpt lat="45.37159" lon="6.13368">
        <ele>1054.7205</ele>
        <time>2021-07-18T18:48:04</time>
      </trkpt>
      <trkpt lat="45.37163" lon="6.13365">
        <ele>1054.7205</ele>
        <time>2021-07-18T18:48:08</time>
      </trkpt>
      <trkpt lat="45.37166" lon="6.13362">
        <ele>1054.7205</ele>
        <time>2021-07-18T18:48:12</time>
      </trkpt>
      <trkpt lat="45.37167" lon="6.13361">
        <ele>1054.7205</ele>
        <time>2021-07-18T18:48:13</time>
      </trkpt>
      <trkpt lat="45.37168" lon="6.13358">
        <ele>1054.7205</ele>
        <time>2021-07-18T18:48:15</time>
      </trkpt>
      <trkpt lat="45.37169" lon="6.13357">
        <ele>1054.7205</ele>
        <time>2021-07-18T18:48:16</time>
      </trkpt>
      <trkpt lat="45.3717" lon="6.13356">
        <ele>1054.7205</ele>
        <time>2021-07-18T18:48:17</time>
      </trkpt>
      <trkpt lat="45.37172" lon="6.13354">
        <ele>1054.7205</ele>
        <time>2021-07-18T18:48:19</time>
      </trkpt>
      <trkpt lat="45.37172" lon="6.13353">
        <ele>1054.7205</ele>
        <time>2021-07-18T18:48:20</time>
      </trkpt>
      <trkpt lat="45.37172" lon="6.13352">
        <ele>1054.7205</ele>
        <time>2021-07-18T18:48:21</time>
      </trkpt>
      <trkpt lat="45.37172" lon="6.1335">
        <ele>1054.7205</ele>
        <time>2021-07-18T18:48:22</time>
      </trkpt>
      <trkpt lat="45.37172" lon="6.13349">
        <ele>1054.7205</ele>
        <time>2021-07-18T18:48:23</time>
      </trkpt>
      <trkpt lat="45.37173" lon="6.13347">
        <ele>1054.7205</ele>
        <time>2021-07-18T18:48:24</time>
      </trkpt>
      <trkpt lat="45.37173" lon="6.13346">
        <ele>1054.7205</ele>
        <time>2021-07-18T18:48:25</time>
      </trkpt>
      <trkpt lat="45.37175" lon="6.13344">
        <ele>1054.7205</ele>
        <time>2021-07-18T18:48:27</time>
      </trkpt>
      <trkpt lat="45.37181" lon="6.1334">
        <ele>1054.7205</ele>
        <time>2021-07-18T18:48:32</time>
      </trkpt>
      <trkpt lat="45.37183" lon="6.13338">
        <ele>1054.7205</ele>
        <time>2021-07-18T18:48:34</time>
      </trkpt>
      <trkpt lat="45.37183" lon="6.13337">
        <ele>1054.7205</ele>
        <time>2021-07-18T18:48:35</time>
      </trkpt>
      <trkpt lat="45.37184" lon="6.13336">
        <ele>1054.7205</ele>
        <time>2021-07-18T18:48:36</time>
      </trkpt>
      <trkpt lat="45.37185" lon="6.13329">
        <ele>1054.7205</ele>
        <time>2021-07-18T18:48:40</time>
      </trkpt>
      <trkpt lat="45.37186" lon="6.13327">
        <ele>1054.7205</ele>
        <time>2021-07-18T18:48:41</time>
      </trkpt>
      <trkpt lat="45.37187" lon="6.13326">
        <ele>1054.7205</ele>
        <time>2021-07-18T18:48:42</time>
      </trkpt>
      <trkpt lat="45.37188" lon="6.13324">
        <ele>1054.7205</ele>
        <time>2021-07-18T18:48:44</time>
      </trkpt>
      <trkpt lat="45.37191" lon="6.13317">
        <ele>1054.7205</ele>
        <time>2021-07-18T18:48:49</time>
      </trkpt>
      <trkpt lat="45.37191" lon="6.13315">
        <ele>1054.7205</ele>
        <time>2021-07-18T18:48:50</time>
      </trkpt>
      <trkpt lat="45.37192" lon="6.13313">
        <ele>1054.7205</ele>
        <time>2021-07-18T18:48:51</time>
      </trkpt>
      <trkpt lat="45.37192" lon="6.13309">
        <ele>1054.7205</ele>
        <time>2021-07-18T18:48:53</time>
      </trkpt>
      <trkpt lat="45.37193" lon="6.13308">
        <ele>1054.7205</ele>
        <time>2021-07-18T18:48:54</time>
      </trkpt>
      <trkpt lat="45.37194" lon="6.13308">
        <ele>1054.7205</ele>
        <time>2021-07-18T18:48:55</time>
      </trkpt>
      <trkpt lat="45.37196" lon="6.13308">
        <ele>1054.7205</ele>
        <time>2021-07-18T18:48:56</time>
      </trkpt>
      <trkpt lat="45.37199" lon="6.13307">
        <ele>1054.7205</ele>
        <time>2021-07-18T18:48:58</time>
      </trkpt>
      <trkpt lat="45.372" lon="6.13307">
        <ele>1054.7205</ele>
        <time>2021-07-18T18:48:59</time>
      </trkpt>
      <trkpt lat="45.37201" lon="6.13305">
        <ele>1054.7205</ele>
        <time>2021-07-18T18:49:00</time>
      </trkpt>
      <trkpt lat="45.37203" lon="6.13302">
        <ele>1054.7205</ele>
        <time>2021-07-18T18:49:02</time>
      </trkpt>
      <trkpt lat="45.37203" lon="6.133">
        <ele>1054.7205</ele>
        <time>2021-07-18T18:49:03</time>
      </trkpt>
      <trkpt lat="45.37204" lon="6.13296">
        <ele>1054.7205</ele>
        <time>2021-07-18T18:49:05</time>
      </trkpt>
      <trkpt lat="45.37205" lon="6.13293">
        <ele>1054.7205</ele>
        <time>2021-07-18T18:49:06</time>
      </trkpt>
      <trkpt lat="45.37212" lon="6.13285">
        <ele>1054.7205</ele>
        <time>2021-07-18T18:49:12</time>
      </trkpt>
      <trkpt lat="45.37214" lon="6.13283">
        <ele>1054.7205</ele>
        <time>2021-07-18T18:49:14</time>
      </trkpt>
      <trkpt lat="45.37217" lon="6.13278">
        <ele>1054.7205</ele>
        <time>2021-07-18T18:49:17</time>
      </trkpt>
      <trkpt lat="45.37223" lon="6.13268">
        <ele>1054.7205</ele>
        <time>2021-07-18T18:49:23</time>
      </trkpt>
      <trkpt lat="45.37223" lon="6.13268">
        <ele>1054.7205</ele>
        <time>2021-07-18T18:49:24</time>
      </trkpt>
      <trkpt lat="45.37224" lon="6.13267">
        <ele>1054.7205</ele>
        <time>2021-07-18T18:49:25</time>
      </trkpt>
      <trkpt lat="45.37225" lon="6.13266">
        <ele>1054.7205</ele>
        <time>2021-07-18T18:49:26</time>
      </trkpt>
      <trkpt lat="45.37226" lon="6.13265">
        <ele>1054.7205</ele>
        <time>2021-07-18T18:49:27</time>
      </trkpt>
      <trkpt lat="45.37234" lon="6.1326">
        <ele>1054.7205</ele>
        <time>2021-07-18T18:49:33</time>
      </trkpt>
      <trkpt lat="45.37236" lon="6.13259">
        <ele>1054.7205</ele>
        <time>2021-07-18T18:49:35</time>
      </trkpt>
      <trkpt lat="45.37238" lon="6.13257">
        <ele>1054.7205</ele>
        <time>2021-07-18T18:49:37</time>
      </trkpt>
      <trkpt lat="45.37238" lon="6.13256">
        <ele>1054.7205</ele>
        <time>2021-07-18T18:49:38</time>
      </trkpt>
      <trkpt lat="45.37238" lon="6.13256">
        <ele>1054.7205</ele>
        <time>2021-07-18T18:49:40</time>
      </trkpt>
      <trkpt lat="45.37238" lon="6.13256">
        <ele>1054.7205</ele>
        <time>2021-07-18T18:49:41</time>
      </trkpt>
      <trkpt lat="45.37238" lon="6.13258">
        <ele>1054.7205</ele>
        <time>2021-07-18T18:49:43</time>
      </trkpt>
      <trkpt lat="45.37239" lon="6.13258">
        <ele>1054.7205</ele>
        <time>2021-07-18T18:49:44</time>
      </trkpt>
      <trkpt lat="45.37242" lon="6.13257">
        <ele>1054.7205</ele>
        <time>2021-07-18T18:49:46</time>
      </trkpt>
      <trkpt lat="45.37244" lon="6.13256">
        <ele>1054.7205</ele>
        <time>2021-07-18T18:49:48</time>
      </trkpt>
      <trkpt lat="45.37245" lon="6.13255">
        <ele>1054.7205</ele>
        <time>2021-07-18T18:49:49</time>
      </trkpt>
      <trkpt lat="45.37249" lon="6.1325">
        <ele>1049.2205</ele>
        <time>2021-07-18T18:49:54</time>
      </trkpt>
      <trkpt lat="45.37251" lon="6.13246">
        <ele>1049.2205</ele>
        <time>2021-07-18T18:49:57</time>
      </trkpt>
      <trkpt lat="45.37264" lon="6.13235">
        <ele>1048.3538</ele>
        <time>2021-07-18T18:50:10</time>
      </trkpt>
      <trkpt lat="45.37268" lon="6.13228">
        <ele>1048.3538</ele>
        <time>2021-07-18T18:50:16</time>
      </trkpt>
      <trkpt lat="45.37272" lon="6.13224">
        <ele>1048.3538</ele>
        <time>2021-07-18T18:50:21</time>
      </trkpt>
      <trkpt lat="45.37276" lon="6.13218">
        <ele>1048.3538</ele>
        <time>2021-07-18T18:50:27</time>
      </trkpt>
      <trkpt lat="45.37276" lon="6.13217">
        <ele>1048.3538</ele>
        <time>2021-07-18T18:50:29</time>
      </trkpt>
      <trkpt lat="45.37279" lon="6.13214">
        <ele>1048.3538</ele>
        <time>2021-07-18T18:50:32</time>
      </trkpt>
      <trkpt lat="45.3728" lon="6.13214">
        <ele>1048.3538</ele>
        <time>2021-07-18T18:50:33</time>
      </trkpt>
      <trkpt lat="45.37287" lon="6.13209">
        <ele>1047.0204</ele>
        <time>2021-07-18T18:50:40</time>
      </trkpt>
      <trkpt lat="45.37288" lon="6.13207">
        <ele>1047.0204</ele>
        <time>2021-07-18T18:50:42</time>
      </trkpt>
      <trkpt lat="45.37289" lon="6.13207">
        <ele>1047.0204</ele>
        <time>2021-07-18T18:50:43</time>
      </trkpt>
      <trkpt lat="45.37289" lon="6.13206">
        <ele>1052.0204</ele>
        <time>2021-07-18T18:50:44</time>
      </trkpt>
      <trkpt lat="45.37291" lon="6.13205">
        <ele>1052.0204</ele>
        <time>2021-07-18T18:50:46</time>
      </trkpt>
      <trkpt lat="45.37294" lon="6.13203">
        <ele>1052.0204</ele>
        <time>2021-07-18T18:50:50</time>
      </trkpt>
      <trkpt lat="45.37296" lon="6.132">
        <ele>1052.0204</ele>
        <time>2021-07-18T18:50:53</time>
      </trkpt>
      <trkpt lat="45.37298" lon="6.13197">
        <ele>1051.0204</ele>
        <time>2021-07-18T18:50:55</time>
      </trkpt>
      <trkpt lat="45.37299" lon="6.13196">
        <ele>1051.0204</ele>
        <time>2021-07-18T18:50:56</time>
      </trkpt>
      <trkpt lat="45.37302" lon="6.13194">
        <ele>1051.0204</ele>
        <time>2021-07-18T18:50:58</time>
      </trkpt>
      <trkpt lat="45.37303" lon="6.13192">
        <ele>1051.0204</ele>
        <time>2021-07-18T18:51:00</time>
      </trkpt>
      <trkpt lat="45.37304" lon="6.13191">
        <ele>1051.0204</ele>
        <time>2021-07-18T18:51:01</time>
      </trkpt>
      <trkpt lat="45.37305" lon="6.13189">
        <ele>1051.0204</ele>
        <time>2021-07-18T18:51:03</time>
      </trkpt>
      <trkpt lat="45.37306" lon="6.13188">
        <ele>1055.9204</ele>
        <time>2021-07-18T18:51:04</time>
      </trkpt>
      <trkpt lat="45.37308" lon="6.13186">
        <ele>1055.9204</ele>
        <time>2021-07-18T18:51:06</time>
      </trkpt>
      <trkpt lat="45.37309" lon="6.13185">
        <ele>1055.9204</ele>
        <time>2021-07-18T18:51:07</time>
      </trkpt>
      <trkpt lat="45.37312" lon="6.13184">
        <ele>1055.9204</ele>
        <time>2021-07-18T18:51:09</time>
      </trkpt>
      <trkpt lat="45.37312" lon="6.13183">
        <ele>1055.9204</ele>
        <time>2021-07-18T18:51:10</time>
      </trkpt>
      <trkpt lat="45.37314" lon="6.13181">
        <ele>1055.9204</ele>
        <time>2021-07-18T18:51:12</time>
      </trkpt>
      <trkpt lat="45.37319" lon="6.13178">
        <ele>1055.9204</ele>
        <time>2021-07-18T18:51:17</time>
      </trkpt>
      <trkpt lat="45.37319" lon="6.13178">
        <ele>1055.9204</ele>
        <time>2021-07-18T18:51:18</time>
      </trkpt>
      <trkpt lat="45.3732" lon="6.1318">
        <ele>1055.9204</ele>
        <time>2021-07-18T18:51:21</time>
      </trkpt>
      <trkpt lat="45.37321" lon="6.13179">
        <ele>1055.9204</ele>
        <time>2021-07-18T18:51:22</time>
      </trkpt>
      <trkpt lat="45.37324" lon="6.13177">
        <ele>1065.0204</ele>
        <time>2021-07-18T18:51:24</time>
      </trkpt>
      <trkpt lat="45.3733" lon="6.13173">
        <ele>1065.0204</ele>
        <time>2021-07-18T18:51:29</time>
      </trkpt>
      <trkpt lat="45.37331" lon="6.13173">
        <ele>1065.0204</ele>
        <time>2021-07-18T18:51:30</time>
      </trkpt>
      <trkpt lat="45.37332" lon="6.13172">
        <ele>1065.0204</ele>
        <time>2021-07-18T18:51:31</time>
      </trkpt>
      <trkpt lat="45.37339" lon="6.13172">
        <ele>1065.0204</ele>
        <time>2021-07-18T18:51:42</time>
      </trkpt>
      <trkpt lat="45.3734" lon="6.13171">
        <ele>1065.0204</ele>
        <time>2021-07-18T18:51:43</time>
      </trkpt>
      <trkpt lat="45.37343" lon="6.1317">
        <ele>1065.0204</ele>
        <time>2021-07-18T18:51:45</time>
      </trkpt>
      <trkpt lat="45.37344" lon="6.13169">
        <ele>1065.0204</ele>
        <time>2021-07-18T18:51:46</time>
      </trkpt>
      <trkpt lat="45.37346" lon="6.13168">
        <ele>1065.0204</ele>
        <time>2021-07-18T18:51:48</time>
      </trkpt>
      <trkpt lat="45.37355" lon="6.1316">
        <ele>1065.0204</ele>
        <time>2021-07-18T18:51:54</time>
      </trkpt>
      <trkpt lat="45.37355" lon="6.13159">
        <ele>1065.0204</ele>
        <time>2021-07-18T18:51:55</time>
      </trkpt>
      <trkpt lat="45.37358" lon="6.13151">
        <ele>1059.4204</ele>
        <time>2021-07-18T18:52:04</time>
      </trkpt>
      <trkpt lat="45.3736" lon="6.13148">
        <ele>1059.4204</ele>
        <time>2021-07-18T18:52:06</time>
      </trkpt>
      <trkpt lat="45.37362" lon="6.13145">
        <ele>1059.4204</ele>
        <time>2021-07-18T18:52:08</time>
      </trkpt>
      <trkpt lat="45.37362" lon="6.13143">
        <ele>1059.4204</ele>
        <time>2021-07-18T18:52:09</time>
      </trkpt>
      <trkpt lat="45.37362" lon="6.13142">
        <ele>1059.4204</ele>
        <time>2021-07-18T18:52:10</time>
      </trkpt>
      <trkpt lat="45.37362" lon="6.13141">
        <ele>1059.4204</ele>
        <time>2021-07-18T18:52:11</time>
      </trkpt>
      <trkpt lat="45.37362" lon="6.13138">
        <ele>1059.4204</ele>
        <time>2021-07-18T18:52:13</time>
      </trkpt>
      <trkpt lat="45.37363" lon="6.13135">
        <ele>1063.7205</ele>
        <time>2021-07-18T18:52:15</time>
      </trkpt>
      <trkpt lat="45.37364" lon="6.13134">
        <ele>1063.7205</ele>
        <time>2021-07-18T18:52:16</time>
      </trkpt>
      <trkpt lat="45.37367" lon="6.13127">
        <ele>1063.7205</ele>
        <time>2021-07-18T18:52:20</time>
      </trkpt>
      <trkpt lat="45.37367" lon="6.13126">
        <ele>1063.7205</ele>
        <time>2021-07-18T18:52:21</time>
      </trkpt>
      <trkpt lat="45.37368" lon="6.13125">
        <ele>1063.7205</ele>
        <time>2021-07-18T18:52:22</time>
      </trkpt>
      <trkpt lat="45.37369" lon="6.13122">
        <ele>1063.7205</ele>
        <time>2021-07-18T18:52:23</time>
      </trkpt>
      <trkpt lat="45.37371" lon="6.1312">
        <ele>1063.7205</ele>
        <time>2021-07-18T18:52:24</time>
      </trkpt>
      <trkpt lat="45.37373" lon="6.13116">
        <ele>1063.7205</ele>
        <time>2021-07-18T18:52:26</time>
      </trkpt>
      <trkpt lat="45.37374" lon="6.13114">
        <ele>1063.7205</ele>
        <time>2021-07-18T18:52:27</time>
      </trkpt>
      <trkpt lat="45.37375" lon="6.1311">
        <ele>1063.7205</ele>
        <time>2021-07-18T18:52:29</time>
      </trkpt>
      <trkpt lat="45.37376" lon="6.13107">
        <ele>1063.7205</ele>
        <time>2021-07-18T18:52:31</time>
      </trkpt>
      <trkpt lat="45.37376" lon="6.13105">
        <ele>1063.7205</ele>
        <time>2021-07-18T18:52:32</time>
      </trkpt>
      <trkpt lat="45.37377" lon="6.13104">
        <ele>1063.7205</ele>
        <time>2021-07-18T18:52:33</time>
      </trkpt>
      <trkpt lat="45.37377" lon="6.13103">
        <ele>1055.8538</ele>
        <time>2021-07-18T18:52:34</time>
      </trkpt>
      <trkpt lat="45.37378" lon="6.13103">
        <ele>1055.8538</ele>
        <time>2021-07-18T18:52:35</time>
      </trkpt>
      <trkpt lat="45.37378" lon="6.13101">
        <ele>1055.8538</ele>
        <time>2021-07-18T18:52:37</time>
      </trkpt>
      <trkpt lat="45.37381" lon="6.13096">
        <ele>1055.8538</ele>
        <time>2021-07-18T18:52:41</time>
      </trkpt>
      <trkpt lat="45.37382" lon="6.13095">
        <ele>1055.8538</ele>
        <time>2021-07-18T18:52:42</time>
      </trkpt>
      <trkpt lat="45.37383" lon="6.13094">
        <ele>1055.8538</ele>
        <time>2021-07-18T18:52:43</time>
      </trkpt>
      <trkpt lat="45.37383" lon="6.13093">
        <ele>1054.2205</ele>
        <time>2021-07-18T18:52:44</time>
      </trkpt>
      <trkpt lat="45.37385" lon="6.13093">
        <ele>1054.2205</ele>
        <time>2021-07-18T18:52:45</time>
      </trkpt>
      <trkpt lat="45.37385" lon="6.13093">
        <ele>1054.2205</ele>
        <time>2021-07-18T18:52:46</time>
      </trkpt>
      <trkpt lat="45.3739" lon="6.1309">
        <ele>1054.2205</ele>
        <time>2021-07-18T18:52:49</time>
      </trkpt>
      <trkpt lat="45.37394" lon="6.13088">
        <ele>1054.2205</ele>
        <time>2021-07-18T18:52:51</time>
      </trkpt>
      <trkpt lat="45.37396" lon="6.13087">
        <ele>1054.2205</ele>
        <time>2021-07-18T18:52:53</time>
      </trkpt>
      <trkpt lat="45.374" lon="6.13084">
        <ele>1048.2205</ele>
        <time>2021-07-18T18:52:56</time>
      </trkpt>
      <trkpt lat="45.37402" lon="6.13083">
        <ele>1048.2205</ele>
        <time>2021-07-18T18:52:58</time>
      </trkpt>
      <trkpt lat="45.37403" lon="6.13082">
        <ele>1048.2205</ele>
        <time>2021-07-18T18:52:59</time>
      </trkpt>
      <trkpt lat="45.37404" lon="6.13082">
        <ele>1048.2205</ele>
        <time>2021-07-18T18:53:00</time>
      </trkpt>
      <trkpt lat="45.37404" lon="6.13081">
        <ele>1048.2205</ele>
        <time>2021-07-18T18:53:01</time>
      </trkpt>
      <trkpt lat="45.37406" lon="6.1308">
        <ele>1048.2205</ele>
        <time>2021-07-18T18:53:03</time>
      </trkpt>
      <trkpt lat="45.37413" lon="6.13076">
        <ele>1047.9537</ele>
        <time>2021-07-18T18:53:07</time>
      </trkpt>
      <trkpt lat="45.37416" lon="6.13073">
        <ele>1047.9537</ele>
        <time>2021-07-18T18:53:10</time>
      </trkpt>
      <trkpt lat="45.37419" lon="6.13072">
        <ele>1047.9537</ele>
        <time>2021-07-18T18:53:13</time>
      </trkpt>
      <trkpt lat="45.37419" lon="6.13071">
        <ele>1048.2205</ele>
        <time>2021-07-18T18:53:14</time>
      </trkpt>
      <trkpt lat="45.37421" lon="6.13068">
        <ele>1048.2205</ele>
        <time>2021-07-18T18:53:17</time>
      </trkpt>
      <trkpt lat="45.37422" lon="6.13068">
        <ele>1048.2205</ele>
        <time>2021-07-18T18:53:19</time>
      </trkpt>
      <trkpt lat="45.37423" lon="6.13068">
        <ele>1048.2205</ele>
        <time>2021-07-18T18:53:20</time>
      </trkpt>
      <trkpt lat="45.37428" lon="6.13067">
        <ele>1048.2205</ele>
        <time>2021-07-18T18:53:25</time>
      </trkpt>
      <trkpt lat="45.37429" lon="6.13066">
        <ele>1048.2205</ele>
        <time>2021-07-18T18:53:26</time>
      </trkpt>
      <trkpt lat="45.37429" lon="6.13066">
        <ele>1048.2205</ele>
        <time>2021-07-18T18:53:27</time>
      </trkpt>
      <trkpt lat="45.37431" lon="6.13065">
        <ele>1048.2205</ele>
        <time>2021-07-18T18:53:28</time>
      </trkpt>
      <trkpt lat="45.37438" lon="6.13063">
        <ele>1048.2205</ele>
        <time>2021-07-18T18:53:33</time>
      </trkpt>
      <trkpt lat="45.37439" lon="6.13063">
        <ele>1049.1205</ele>
        <time>2021-07-18T18:53:34</time>
      </trkpt>
      <trkpt lat="45.3744" lon="6.13063">
        <ele>1049.1205</ele>
        <time>2021-07-18T18:53:35</time>
      </trkpt>
      <trkpt lat="45.37441" lon="6.13063">
        <ele>1049.1205</ele>
        <time>2021-07-18T18:53:36</time>
      </trkpt>
      <trkpt lat="45.37444" lon="6.13064">
        <ele>1049.1205</ele>
        <time>2021-07-18T18:53:38</time>
      </trkpt>
      <trkpt lat="45.37447" lon="6.13063">
        <ele>1049.1205</ele>
        <time>2021-07-18T18:53:40</time>
      </trkpt>
      <trkpt lat="45.37449" lon="6.13063">
        <ele>1049.1205</ele>
        <time>2021-07-18T18:53:41</time>
      </trkpt>
      <trkpt lat="45.3745" lon="6.13062">
        <ele>1049.1205</ele>
        <time>2021-07-18T18:53:42</time>
      </trkpt>
      <trkpt lat="45.3745" lon="6.13062">
        <ele>1049.1205</ele>
        <time>2021-07-18T18:53:43</time>
      </trkpt>
      <trkpt lat="45.37451" lon="6.13062">
        <ele>1047.1205</ele>
        <time>2021-07-18T18:53:44</time>
      </trkpt>
      <trkpt lat="45.37452" lon="6.13063">
        <ele>1047.1205</ele>
        <time>2021-07-18T18:53:45</time>
      </trkpt>
      <trkpt lat="45.37452" lon="6.13063">
        <ele>1047.1205</ele>
        <time>2021-07-18T18:53:46</time>
      </trkpt>
      <trkpt lat="45.37454" lon="6.13063">
        <ele>1047.1205</ele>
        <time>2021-07-18T18:53:47</time>
      </trkpt>
      <trkpt lat="45.37455" lon="6.13063">
        <ele>1047.1205</ele>
        <time>2021-07-18T18:53:49</time>
      </trkpt>
      <trkpt lat="45.37463" lon="6.13065">
        <ele>1051.2205</ele>
        <time>2021-07-18T18:53:58</time>
      </trkpt>
      <trkpt lat="45.37464" lon="6.13065">
        <ele>1051.2205</ele>
        <time>2021-07-18T18:53:59</time>
      </trkpt>
      <trkpt lat="45.37465" lon="6.13064">
        <ele>1051.2205</ele>
        <time>2021-07-18T18:54:00</time>
      </trkpt>
      <trkpt lat="45.37467" lon="6.13064">
        <ele>1051.2205</ele>
        <time>2021-07-18T18:54:02</time>
      </trkpt>
      <trkpt lat="45.37472" lon="6.13064">
        <ele>1048.4204</ele>
        <time>2021-07-18T18:54:08</time>
      </trkpt>
      <trkpt lat="45.37474" lon="6.13063">
        <ele>1048.4204</ele>
        <time>2021-07-18T18:54:09</time>
      </trkpt>
      <trkpt lat="45.37475" lon="6.13063">
        <ele>1048.4204</ele>
        <time>2021-07-18T18:54:10</time>
      </trkpt>
      <trkpt lat="45.37476" lon="6.13062">
        <ele>1048.4204</ele>
        <time>2021-07-18T18:54:11</time>
      </trkpt>
      <trkpt lat="45.37478" lon="6.13059">
        <ele>1048.4204</ele>
        <time>2021-07-18T18:54:13</time>
      </trkpt>
      <trkpt lat="45.37481" lon="6.13056">
        <ele>1047.3204</ele>
        <time>2021-07-18T18:54:16</time>
      </trkpt>
      <trkpt lat="45.37484" lon="6.13056">
        <ele>1047.3204</ele>
        <time>2021-07-18T18:54:19</time>
      </trkpt>
      <trkpt lat="45.37485" lon="6.13055">
        <ele>1047.3204</ele>
        <time>2021-07-18T18:54:20</time>
      </trkpt>
      <trkpt lat="45.37486" lon="6.13055">
        <ele>1047.3204</ele>
        <time>2021-07-18T18:54:21</time>
      </trkpt>
      <trkpt lat="45.37487" lon="6.13055">
        <ele>1047.3204</ele>
        <time>2021-07-18T18:54:22</time>
      </trkpt>
      <trkpt lat="45.3749" lon="6.13053">
        <ele>1047.3204</ele>
        <time>2021-07-18T18:54:25</time>
      </trkpt>
      <trkpt lat="45.37494" lon="6.13052">
        <ele>1047.3204</ele>
        <time>2021-07-18T18:54:27</time>
      </trkpt>
      <trkpt lat="45.37498" lon="6.13049">
        <ele>1047.3204</ele>
        <time>2021-07-18T18:54:33</time>
      </trkpt>
      <trkpt lat="45.375" lon="6.13048">
        <ele>1046.9204</ele>
        <time>2021-07-18T18:54:35</time>
      </trkpt>
      <trkpt lat="45.37501" lon="6.13048">
        <ele>1046.9204</ele>
        <time>2021-07-18T18:54:37</time>
      </trkpt>
      <trkpt lat="45.37502" lon="6.13047">
        <ele>1046.9204</ele>
        <time>2021-07-18T18:54:40</time>
      </trkpt>
      <trkpt lat="45.37504" lon="6.13046">
        <ele>1046.9204</ele>
        <time>2021-07-18T18:54:44</time>
      </trkpt>
      <trkpt lat="45.37507" lon="6.13045">
        <ele>1046.9204</ele>
        <time>2021-07-18T18:54:48</time>
      </trkpt>
      <trkpt lat="45.3751" lon="6.13043">
        <ele>1046.9204</ele>
        <time>2021-07-18T18:54:52</time>
      </trkpt>
      <trkpt lat="45.37513" lon="6.13042">
        <ele>1046.9204</ele>
        <time>2021-07-18T18:54:55</time>
      </trkpt>
      <trkpt lat="45.37513" lon="6.13042">
        <ele>1046.9204</ele>
        <time>2021-07-18T18:54:56</time>
      </trkpt>
      <trkpt lat="45.37514" lon="6.13042">
        <ele>1046.9204</ele>
        <time>2021-07-18T18:54:57</time>
      </trkpt>
      <trkpt lat="45.37514" lon="6.13041">
        <ele>1046.9204</ele>
        <time>2021-07-18T18:54:58</time>
      </trkpt>
      <trkpt lat="45.37515" lon="6.1304">
        <ele>1046.9204</ele>
        <time>2021-07-18T18:54:59</time>
      </trkpt>
      <trkpt lat="45.37516" lon="6.13039">
        <ele>1046.9204</ele>
        <time>2021-07-18T18:55:00</time>
      </trkpt>
      <trkpt lat="45.37517" lon="6.13038">
        <ele>1046.9204</ele>
        <time>2021-07-18T18:55:01</time>
      </trkpt>
      <trkpt lat="45.37518" lon="6.13038">
        <ele>1046.9204</ele>
        <time>2021-07-18T18:55:02</time>
      </trkpt>
      <trkpt lat="45.37518" lon="6.13037">
        <ele>1046.9204</ele>
        <time>2021-07-18T18:55:03</time>
      </trkpt>
      <trkpt lat="45.37519" lon="6.13037">
        <ele>1046.9204</ele>
        <time>2021-07-18T18:55:04</time>
      </trkpt>
      <trkpt lat="45.3752" lon="6.13036">
        <ele>1046.9204</ele>
        <time>2021-07-18T18:55:05</time>
      </trkpt>
      <trkpt lat="45.37521" lon="6.13036">
        <ele>1046.9204</ele>
        <time>2021-07-18T18:55:06</time>
      </trkpt>
      <trkpt lat="45.37522" lon="6.13037">
        <ele>1046.9204</ele>
        <time>2021-07-18T18:55:07</time>
      </trkpt>
      <trkpt lat="45.37523" lon="6.13037">
        <ele>1046.9204</ele>
        <time>2021-07-18T18:55:08</time>
      </trkpt>
      <trkpt lat="45.37524" lon="6.13036">
        <ele>1046.9204</ele>
        <time>2021-07-18T18:55:09</time>
      </trkpt>
      <trkpt lat="45.37524" lon="6.13036">
        <ele>1046.9204</ele>
        <time>2021-07-18T18:55:10</time>
      </trkpt>
      <trkpt lat="45.37525" lon="6.13035">
        <ele>1046.9204</ele>
        <time>2021-07-18T18:55:11</time>
      </trkpt>
      <trkpt lat="45.37526" lon="6.13034">
        <ele>1046.9204</ele>
        <time>2021-07-18T18:55:12</time>
      </trkpt>
      <trkpt lat="45.37527" lon="6.13033">
        <ele>1046.9204</ele>
        <time>2021-07-18T18:55:13</time>
      </trkpt>
      <trkpt lat="45.37528" lon="6.13033">
        <ele>1046.9204</ele>
        <time>2021-07-18T18:55:14</time>
      </trkpt>
      <trkpt lat="45.37529" lon="6.13032">
        <ele>1046.9204</ele>
        <time>2021-07-18T18:55:15</time>
      </trkpt>
      <trkpt lat="45.37533" lon="6.13029">
        <ele>1046.9204</ele>
        <time>2021-07-18T18:55:17</time>
      </trkpt>
      <trkpt lat="45.37539" lon="6.13026">
        <ele>1046.9204</ele>
        <time>2021-07-18T18:55:22</time>
      </trkpt>
      <trkpt lat="45.37541" lon="6.13024">
        <ele>1046.9204</ele>
        <time>2021-07-18T18:55:24</time>
      </trkpt>
      <trkpt lat="45.37542" lon="6.13023">
        <ele>1046.9204</ele>
        <time>2021-07-18T18:55:25</time>
      </trkpt>
      <trkpt lat="45.37543" lon="6.13021">
        <ele>1046.9204</ele>
        <time>2021-07-18T18:55:26</time>
      </trkpt>
      <trkpt lat="45.37546" lon="6.13018">
        <ele>1046.9204</ele>
        <time>2021-07-18T18:55:29</time>
      </trkpt>
      <trkpt lat="45.37548" lon="6.13016">
        <ele>1046.9204</ele>
        <time>2021-07-18T18:55:31</time>
      </trkpt>
      <trkpt lat="45.37549" lon="6.13015">
        <ele>1046.9204</ele>
        <time>2021-07-18T18:55:32</time>
      </trkpt>
      <trkpt lat="45.37551" lon="6.13014">
        <ele>1046.9204</ele>
        <time>2021-07-18T18:55:33</time>
      </trkpt>
      <trkpt lat="45.37555" lon="6.13008">
        <ele>1046.9204</ele>
        <time>2021-07-18T18:55:40</time>
      </trkpt>
      <trkpt lat="45.37555" lon="6.13008">
        <ele>1046.9204</ele>
        <time>2021-07-18T18:55:41</time>
      </trkpt>
      <trkpt lat="45.37555" lon="6.13007">
        <ele>1038.0204</ele>
        <time>2021-07-18T18:55:44</time>
      </trkpt>
      <trkpt lat="45.37555" lon="6.13007">
        <ele>1038.0204</ele>
        <time>2021-07-18T18:55:45</time>
      </trkpt>
      <trkpt lat="45.37555" lon="6.13006">
        <ele>1038.0204</ele>
        <time>2021-07-18T18:55:46</time>
      </trkpt>
      <trkpt lat="45.37555" lon="6.13006">
        <ele>1038.0204</ele>
        <time>2021-07-18T18:55:47</time>
      </trkpt>
      <trkpt lat="45.37557" lon="6.13004">
        <ele>1038.0204</ele>
        <time>2021-07-18T18:55:49</time>
      </trkpt>
      <trkpt lat="45.37559" lon="6.13003">
        <ele>1038.0204</ele>
        <time>2021-07-18T18:55:50</time>
      </trkpt>
      <trkpt lat="45.37561" lon="6.13001">
        <ele>1038.0204</ele>
        <time>2021-07-18T18:55:52</time>
      </trkpt>
      <trkpt lat="45.37566" lon="6.12995">
        <ele>1038.0204</ele>
        <time>2021-07-18T18:55:59</time>
      </trkpt>
      <trkpt lat="45.37566" lon="6.12994">
        <ele>1038.0204</ele>
        <time>2021-07-18T18:56:00</time>
      </trkpt>
      <trkpt lat="45.37568" lon="6.12991">
        <ele>1038.0204</ele>
        <time>2021-07-18T18:56:02</time>
      </trkpt>
      <trkpt lat="45.37569" lon="6.12989">
        <ele>1038.0204</ele>
        <time>2021-07-18T18:56:03</time>
      </trkpt>
      <trkpt lat="45.37573" lon="6.12985">
        <ele>1038.0204</ele>
        <time>2021-07-18T18:56:08</time>
      </trkpt>
      <trkpt lat="45.37575" lon="6.12983">
        <ele>1038.0204</ele>
        <time>2021-07-18T18:56:11</time>
      </trkpt>
      <trkpt lat="45.37576" lon="6.12983">
        <ele>1038.0204</ele>
        <time>2021-07-18T18:56:12</time>
      </trkpt>
      <trkpt lat="45.37578" lon="6.12982">
        <ele>1038.0204</ele>
        <time>2021-07-18T18:56:14</time>
      </trkpt>
      <trkpt lat="45.3758" lon="6.1298">
        <ele>1038.0204</ele>
        <time>2021-07-18T18:56:15</time>
      </trkpt>
      <trkpt lat="45.37583" lon="6.12976">
        <ele>1038.0204</ele>
        <time>2021-07-18T18:56:18</time>
      </trkpt>
      <trkpt lat="45.37584" lon="6.12975">
        <ele>1038.0204</ele>
        <time>2021-07-18T18:56:19</time>
      </trkpt>
      <trkpt lat="45.37584" lon="6.12974">
        <ele>1038.0204</ele>
        <time>2021-07-18T18:56:20</time>
      </trkpt>
      <trkpt lat="45.37585" lon="6.12973">
        <ele>1038.0204</ele>
        <time>2021-07-18T18:56:21</time>
      </trkpt>
      <trkpt lat="45.37585" lon="6.12972">
        <ele>1038.0204</ele>
        <time>2021-07-18T18:56:22</time>
      </trkpt>
      <trkpt lat="45.37586" lon="6.12971">
        <ele>1028.1205</ele>
        <time>2021-07-18T18:56:24</time>
      </trkpt>
      <trkpt lat="45.37587" lon="6.1297">
        <ele>1028.1205</ele>
        <time>2021-07-18T18:56:26</time>
      </trkpt>
      <trkpt lat="45.37589" lon="6.12967">
        <ele>1028.1205</ele>
        <time>2021-07-18T18:56:28</time>
      </trkpt>
      <trkpt lat="45.3759" lon="6.12965">
        <ele>1028.1205</ele>
        <time>2021-07-18T18:56:29</time>
      </trkpt>
      <trkpt lat="45.37592" lon="6.12961">
        <ele>1028.1205</ele>
        <time>2021-07-18T18:56:32</time>
      </trkpt>
      <trkpt lat="45.37599" lon="6.12955">
        <ele>1029.5204</ele>
        <time>2021-07-18T18:56:41</time>
      </trkpt>
      <trkpt lat="45.376" lon="6.12954">
        <ele>1029.5204</ele>
        <time>2021-07-18T18:56:42</time>
      </trkpt>
      <trkpt lat="45.37602" lon="6.12953">
        <ele>1029.5204</ele>
        <time>2021-07-18T18:56:43</time>
      </trkpt>
      <trkpt lat="45.37606" lon="6.12952">
        <ele>1024.4204</ele>
        <time>2021-07-18T18:56:46</time>
      </trkpt>
      <trkpt lat="45.37607" lon="6.1295">
        <ele>1024.4204</ele>
        <time>2021-07-18T18:56:47</time>
      </trkpt>
      <trkpt lat="45.37608" lon="6.1295">
        <ele>1024.4204</ele>
        <time>2021-07-18T18:56:48</time>
      </trkpt>
      <trkpt lat="45.37611" lon="6.12947">
        <ele>1024.4204</ele>
        <time>2021-07-18T18:56:50</time>
      </trkpt>
      <trkpt lat="45.37612" lon="6.12947">
        <ele>1024.4204</ele>
        <time>2021-07-18T18:56:51</time>
      </trkpt>
      <trkpt lat="45.3762" lon="6.1294">
        <ele>1024.4204</ele>
        <time>2021-07-18T18:57:02</time>
      </trkpt>
      <trkpt lat="45.37621" lon="6.12939">
        <ele>1024.4204</ele>
        <time>2021-07-18T18:57:03</time>
      </trkpt>
      <trkpt lat="45.37622" lon="6.12939">
        <ele>1024.4204</ele>
        <time>2021-07-18T18:57:04</time>
      </trkpt>
      <trkpt lat="45.37624" lon="6.12937">
        <ele>1024.4204</ele>
        <time>2021-07-18T18:57:07</time>
      </trkpt>
      <trkpt lat="45.37625" lon="6.12936">
        <ele>1024.4204</ele>
        <time>2021-07-18T18:57:08</time>
      </trkpt>
      <trkpt lat="45.37627" lon="6.12933">
        <ele>1024.4204</ele>
        <time>2021-07-18T18:57:10</time>
      </trkpt>
      <trkpt lat="45.37629" lon="6.12932">
        <ele>1024.4204</ele>
        <time>2021-07-18T18:57:11</time>
      </trkpt>
      <trkpt lat="45.37633" lon="6.12931">
        <ele>1024.4204</ele>
        <time>2021-07-18T18:57:13</time>
      </trkpt>
      <trkpt lat="45.37637" lon="6.12931">
        <ele>1024.4204</ele>
        <time>2021-07-18T18:57:16</time>
      </trkpt>
      <trkpt lat="45.37641" lon="6.1293">
        <ele>1024.4204</ele>
        <time>2021-07-18T18:57:19</time>
      </trkpt>
      <trkpt lat="45.37645" lon="6.12929">
        <ele>1024.4204</ele>
        <time>2021-07-18T18:57:22</time>
      </trkpt>
      <trkpt lat="45.37646" lon="6.12929">
        <ele>1024.4204</ele>
        <time>2021-07-18T18:57:23</time>
      </trkpt>
      <trkpt lat="45.37647" lon="6.12929">
        <ele>1024.4204</ele>
        <time>2021-07-18T18:57:24</time>
      </trkpt>
      <trkpt lat="45.37651" lon="6.12929">
        <ele>1024.4204</ele>
        <time>2021-07-18T18:57:27</time>
      </trkpt>
      <trkpt lat="45.37652" lon="6.12929">
        <ele>1024.4204</ele>
        <time>2021-07-18T18:57:28</time>
      </trkpt>
      <trkpt lat="45.37653" lon="6.12929">
        <ele>1024.4204</ele>
        <time>2021-07-18T18:57:29</time>
      </trkpt>
      <trkpt lat="45.37657" lon="6.1293">
        <ele>1024.4204</ele>
        <time>2021-07-18T18:57:34</time>
      </trkpt>
      <trkpt lat="45.37659" lon="6.1293">
        <ele>1024.4204</ele>
        <time>2021-07-18T18:57:35</time>
      </trkpt>
      <trkpt lat="45.3766" lon="6.12929">
        <ele>1024.4204</ele>
        <time>2021-07-18T18:57:36</time>
      </trkpt>
      <trkpt lat="45.37662" lon="6.12929">
        <ele>1024.4204</ele>
        <time>2021-07-18T18:57:37</time>
      </trkpt>
      <trkpt lat="45.37664" lon="6.12929">
        <ele>1024.4204</ele>
        <time>2021-07-18T18:57:40</time>
      </trkpt>
      <trkpt lat="45.37665" lon="6.12928">
        <ele>1024.4204</ele>
        <time>2021-07-18T18:57:41</time>
      </trkpt>
      <trkpt lat="45.37666" lon="6.12927">
        <ele>1024.4204</ele>
        <time>2021-07-18T18:57:42</time>
      </trkpt>
      <trkpt lat="45.37667" lon="6.12926">
        <ele>1024.4204</ele>
        <time>2021-07-18T18:57:43</time>
      </trkpt>
      <trkpt lat="45.37667" lon="6.12925">
        <ele>1008.22046</ele>
        <time>2021-07-18T18:57:44</time>
      </trkpt>
      <trkpt lat="45.37667" lon="6.12921">
        <ele>1008.22046</ele>
        <time>2021-07-18T18:57:46</time>
      </trkpt>
      <trkpt lat="45.37668" lon="6.1292">
        <ele>1008.22046</ele>
        <time>2021-07-18T18:57:47</time>
      </trkpt>
      <trkpt lat="45.37668" lon="6.12919">
        <ele>1008.22046</ele>
        <time>2021-07-18T18:57:48</time>
      </trkpt>
      <trkpt lat="45.37667" lon="6.12918">
        <ele>1008.22046</ele>
        <time>2021-07-18T18:57:49</time>
      </trkpt>
      <trkpt lat="45.37667" lon="6.12917">
        <ele>1008.22046</ele>
        <time>2021-07-18T18:57:50</time>
      </trkpt>
      <trkpt lat="45.37666" lon="6.12917">
        <ele>1008.22046</ele>
        <time>2021-07-18T18:57:51</time>
      </trkpt>
      <trkpt lat="45.37665" lon="6.12917">
        <ele>1008.22046</ele>
        <time>2021-07-18T18:57:52</time>
      </trkpt>
      <trkpt lat="45.37663" lon="6.12918">
        <ele>1008.22046</ele>
        <time>2021-07-18T18:57:54</time>
      </trkpt>
      <trkpt lat="45.37661" lon="6.12918">
        <ele>1008.22046</ele>
        <time>2021-07-18T18:57:56</time>
      </trkpt>
      <trkpt lat="45.3766" lon="6.12918">
        <ele>1008.22046</ele>
        <time>2021-07-18T18:57:57</time>
      </trkpt>
      <trkpt lat="45.37656" lon="6.12916">
        <ele>1008.22046</ele>
        <time>2021-07-18T18:58:02</time>
      </trkpt>
      <trkpt lat="45.37655" lon="6.12916">
        <ele>1008.22046</ele>
        <time>2021-07-18T18:58:03</time>
      </trkpt>
      <trkpt lat="45.37651" lon="6.12917">
        <ele>1008.22046</ele>
        <time>2021-07-18T18:58:07</time>
      </trkpt>
      <trkpt lat="45.37649" lon="6.12917">
        <ele>1008.22046</ele>
        <time>2021-07-18T18:58:09</time>
      </trkpt>
      <trkpt lat="45.37648" lon="6.12917">
        <ele>1008.22046</ele>
        <time>2021-07-18T18:58:10</time>
      </trkpt>
      <trkpt lat="45.37647" lon="6.12917">
        <ele>1008.22046</ele>
        <time>2021-07-18T18:58:11</time>
      </trkpt>
      <trkpt lat="45.37646" lon="6.12916">
        <ele>1008.22046</ele>
        <time>2021-07-18T18:58:12</time>
      </trkpt>
      <trkpt lat="45.37645" lon="6.12914">
        <ele>1008.22046</ele>
        <time>2021-07-18T18:58:14</time>
      </trkpt>
      <trkpt lat="45.37643" lon="6.12914">
        <ele>1008.22046</ele>
        <time>2021-07-18T18:58:15</time>
      </trkpt>
      <trkpt lat="45.37641" lon="6.12912">
        <ele>1008.22046</ele>
        <time>2021-07-18T18:58:18</time>
      </trkpt>
      <trkpt lat="45.37638" lon="6.1291">
        <ele>1008.22046</ele>
        <time>2021-07-18T18:58:21</time>
      </trkpt>
      <trkpt lat="45.37637" lon="6.1291">
        <ele>1008.22046</ele>
        <time>2021-07-18T18:58:22</time>
      </trkpt>
      <trkpt lat="45.37635" lon="6.12909">
        <ele>1008.22046</ele>
        <time>2021-07-18T18:58:24</time>
      </trkpt>
      <trkpt lat="45.37633" lon="6.12908">
        <ele>1008.22046</ele>
        <time>2021-07-18T18:58:27</time>
      </trkpt>
      <trkpt lat="45.3763" lon="6.12908">
        <ele>1008.22046</ele>
        <time>2021-07-18T18:58:31</time>
      </trkpt>
      <trkpt lat="45.3763" lon="6.12908">
        <ele>1008.22046</ele>
        <time>2021-07-18T18:58:32</time>
      </trkpt>
      <trkpt lat="45.37624" lon="6.12907">
        <ele>1008.22046</ele>
        <time>2021-07-18T18:58:38</time>
      </trkpt>
      <trkpt lat="45.37623" lon="6.12907">
        <ele>1008.22046</ele>
        <time>2021-07-18T18:58:39</time>
      </trkpt>
      <trkpt lat="45.3762" lon="6.12907">
        <ele>1008.22046</ele>
        <time>2021-07-18T18:58:42</time>
      </trkpt>
      <trkpt lat="45.37617" lon="6.12907">
        <ele>1008.22046</ele>
        <time>2021-07-18T18:58:46</time>
      </trkpt>
      <trkpt lat="45.37615" lon="6.12906">
        <ele>1008.22046</ele>
        <time>2021-07-18T18:58:47</time>
      </trkpt>
      <trkpt lat="45.3761" lon="6.12905">
        <ele>1008.22046</ele>
        <time>2021-07-18T18:58:52</time>
      </trkpt>
      <trkpt lat="45.37609" lon="6.12906">
        <ele>1008.22046</ele>
        <time>2021-07-18T18:58:53</time>
      </trkpt>
      <trkpt lat="45.37607" lon="6.12908">
        <ele>1008.22046</ele>
        <time>2021-07-18T18:58:55</time>
      </trkpt>
      <trkpt lat="45.37606" lon="6.12908">
        <ele>1008.22046</ele>
        <time>2021-07-18T18:58:56</time>
      </trkpt>
      <trkpt lat="45.37605" lon="6.12908">
        <ele>1008.22046</ele>
        <time>2021-07-18T18:58:57</time>
      </trkpt>
      <trkpt lat="45.37598" lon="6.12907">
        <ele>1008.22046</ele>
        <time>2021-07-18T18:59:04</time>
      </trkpt>
      <trkpt lat="45.37597" lon="6.12907">
        <ele>1008.22046</ele>
        <time>2021-07-18T18:59:05</time>
      </trkpt>
      <trkpt lat="45.37595" lon="6.12907">
        <ele>1008.22046</ele>
        <time>2021-07-18T18:59:07</time>
      </trkpt>
      <trkpt lat="45.37594" lon="6.12906">
        <ele>1008.22046</ele>
        <time>2021-07-18T18:59:08</time>
      </trkpt>
      <trkpt lat="45.37592" lon="6.12905">
        <ele>1008.22046</ele>
        <time>2021-07-18T18:59:10</time>
      </trkpt>
      <trkpt lat="45.37591" lon="6.12905">
        <ele>1008.22046</ele>
        <time>2021-07-18T18:59:11</time>
      </trkpt>
      <trkpt lat="45.37581" lon="6.12905">
        <ele>1008.22046</ele>
        <time>2021-07-18T18:59:22</time>
      </trkpt>
      <trkpt lat="45.3758" lon="6.12905">
        <ele>1008.22046</ele>
        <time>2021-07-18T18:59:23</time>
      </trkpt>
      <trkpt lat="45.3758" lon="6.12905">
        <ele>1008.22046</ele>
        <time>2021-07-18T18:59:24</time>
      </trkpt>
      <trkpt lat="45.37573" lon="6.12906">
        <ele>1008.22046</ele>
        <time>2021-07-18T18:59:30</time>
      </trkpt>
      <trkpt lat="45.3757" lon="6.12907">
        <ele>1008.22046</ele>
        <time>2021-07-18T18:59:32</time>
      </trkpt>
      <trkpt lat="45.37567" lon="6.12909">
        <ele>1008.22046</ele>
        <time>2021-07-18T18:59:34</time>
      </trkpt>
      <trkpt lat="45.37564" lon="6.12911">
        <ele>1008.22046</ele>
        <time>2021-07-18T18:59:36</time>
      </trkpt>
      <trkpt lat="45.37556" lon="6.12917">
        <ele>1008.22046</ele>
        <time>2021-07-18T18:59:43</time>
      </trkpt>
      <trkpt lat="45.37549" lon="6.12921">
        <ele>1008.22046</ele>
        <time>2021-07-18T18:59:49</time>
      </trkpt>
      <trkpt lat="45.37543" lon="6.12924">
        <ele>1008.22046</ele>
        <time>2021-07-18T18:59:56</time>
      </trkpt>
      <trkpt lat="45.37542" lon="6.12924">
        <ele>1008.22046</ele>
        <time>2021-07-18T18:59:57</time>
      </trkpt>
      <trkpt lat="45.37541" lon="6.12924">
        <ele>1008.22046</ele>
        <time>2021-07-18T18:59:58</time>
      </trkpt>
      <trkpt lat="45.37538" lon="6.12925">
        <ele>1008.22046</ele>
        <time>2021-07-18T19:00:01</time>
      </trkpt>
      <trkpt lat="45.37536" lon="6.12927">
        <ele>1008.22046</ele>
        <time>2021-07-18T19:00:03</time>
      </trkpt>
      <trkpt lat="45.37531" lon="6.12929">
        <ele>1008.22046</ele>
        <time>2021-07-18T19:00:07</time>
      </trkpt>
      <trkpt lat="45.3753" lon="6.12928">
        <ele>1008.22046</ele>
        <time>2021-07-18T19:00:08</time>
      </trkpt>
      <trkpt lat="45.37529" lon="6.12928">
        <ele>1008.22046</ele>
        <time>2021-07-18T19:00:09</time>
      </trkpt>
      <trkpt lat="45.37528" lon="6.12927">
        <ele>1008.22046</ele>
        <time>2021-07-18T19:00:10</time>
      </trkpt>
      <trkpt lat="45.37527" lon="6.12925">
        <ele>1008.22046</ele>
        <time>2021-07-18T19:00:12</time>
      </trkpt>
      <trkpt lat="45.37526" lon="6.12925">
        <ele>1008.22046</ele>
        <time>2021-07-18T19:00:13</time>
      </trkpt>
      <trkpt lat="45.37523" lon="6.12924">
        <ele>1008.22046</ele>
        <time>2021-07-18T19:00:16</time>
      </trkpt>
      <trkpt lat="45.37522" lon="6.12923">
        <ele>1008.22046</ele>
        <time>2021-07-18T19:00:17</time>
      </trkpt>
      <trkpt lat="45.37519" lon="6.12922">
        <ele>1008.22046</ele>
        <time>2021-07-18T19:00:20</time>
      </trkpt>
      <trkpt lat="45.37512" lon="6.1292">
        <ele>1008.22046</ele>
        <time>2021-07-18T19:00:27</time>
      </trkpt>
      <trkpt lat="45.37512" lon="6.12919">
        <ele>1008.22046</ele>
        <time>2021-07-18T19:00:28</time>
      </trkpt>
      <trkpt lat="45.3751" lon="6.12918">
        <ele>1008.22046</ele>
        <time>2021-07-18T19:00:30</time>
      </trkpt>
      <trkpt lat="45.37508" lon="6.12918">
        <ele>1008.22046</ele>
        <time>2021-07-18T19:00:32</time>
      </trkpt>
      <trkpt lat="45.37505" lon="6.12917">
        <ele>1008.22046</ele>
        <time>2021-07-18T19:00:34</time>
      </trkpt>
      <trkpt lat="45.37503" lon="6.12917">
        <ele>1008.22046</ele>
        <time>2021-07-18T19:00:36</time>
      </trkpt>
      <trkpt lat="45.37502" lon="6.12916">
        <ele>1008.22046</ele>
        <time>2021-07-18T19:00:37</time>
      </trkpt>
      <trkpt lat="45.37494" lon="6.12913">
        <ele>1003.82043</ele>
        <time>2021-07-18T19:00:46</time>
      </trkpt>
      <trkpt lat="45.37489" lon="6.12912">
        <ele>1003.82043</ele>
        <time>2021-07-18T19:00:51</time>
      </trkpt>
      <trkpt lat="45.37487" lon="6.12912">
        <ele>1003.82043</ele>
        <time>2021-07-18T19:00:52</time>
      </trkpt>
      <trkpt lat="45.37485" lon="6.12912">
        <ele>1005.1205</ele>
        <time>2021-07-18T19:00:54</time>
      </trkpt>
      <trkpt lat="45.37476" lon="6.1291">
        <ele>1005.1205</ele>
        <time>2021-07-18T19:01:01</time>
      </trkpt>
      <trkpt lat="45.37474" lon="6.12909">
        <ele>1005.1205</ele>
        <time>2021-07-18T19:01:04</time>
      </trkpt>
      <trkpt lat="45.37474" lon="6.12908">
        <ele>1005.1205</ele>
        <time>2021-07-18T19:01:05</time>
      </trkpt>
      <trkpt lat="45.37474" lon="6.12907">
        <ele>1005.1205</ele>
        <time>2021-07-18T19:01:06</time>
      </trkpt>
      <trkpt lat="45.37474" lon="6.12903">
        <ele>1005.1205</ele>
        <time>2021-07-18T19:01:09</time>
      </trkpt>
      <trkpt lat="45.37474" lon="6.12902">
        <ele>1005.1205</ele>
        <time>2021-07-18T19:01:10</time>
      </trkpt>
      <trkpt lat="45.37475" lon="6.12901">
        <ele>1005.1205</ele>
        <time>2021-07-18T19:01:11</time>
      </trkpt>
      <trkpt lat="45.37475" lon="6.12901">
        <ele>1005.1205</ele>
        <time>2021-07-18T19:01:12</time>
      </trkpt>
      <trkpt lat="45.37476" lon="6.12901">
        <ele>1005.1205</ele>
        <time>2021-07-18T19:01:13</time>
      </trkpt>
      <trkpt lat="45.37475" lon="6.12901">
        <ele>997.22046</ele>
        <time>2021-07-18T19:01:14</time>
      </trkpt>
      <trkpt lat="45.37475" lon="6.12902">
        <ele>997.22046</ele>
        <time>2021-07-18T19:01:15</time>
      </trkpt>
      <trkpt lat="45.37474" lon="6.12903">
        <ele>997.22046</ele>
        <time>2021-07-18T19:01:17</time>
      </trkpt>
      <trkpt lat="45.37475" lon="6.12905">
        <ele>997.22046</ele>
        <time>2021-07-18T19:01:18</time>
      </trkpt>
      <trkpt lat="45.37477" lon="6.12906">
        <ele>997.22046</ele>
        <time>2021-07-18T19:01:24</time>
      </trkpt>
      <trkpt lat="45.37479" lon="6.12905">
        <ele>997.22046</ele>
        <time>2021-07-18T19:01:25</time>
      </trkpt>
      <trkpt lat="45.3748" lon="6.12905">
        <ele>997.22046</ele>
        <time>2021-07-18T19:01:26</time>
      </trkpt>
      <trkpt lat="45.37481" lon="6.12905">
        <ele>997.22046</ele>
        <time>2021-07-18T19:01:27</time>
      </trkpt>
      <trkpt lat="45.37485" lon="6.12907">
        <ele>997.22046</ele>
        <time>2021-07-18T19:01:30</time>
      </trkpt>
      <trkpt lat="45.37486" lon="6.12907">
        <ele>997.22046</ele>
        <time>2021-07-18T19:01:31</time>
      </trkpt>
      <trkpt lat="45.37489" lon="6.12907">
        <ele>997.22046</ele>
        <time>2021-07-18T19:01:34</time>
      </trkpt>
      <trkpt lat="45.3749" lon="6.12908">
        <ele>997.22046</ele>
        <time>2021-07-18T19:01:35</time>
      </trkpt>
      <trkpt lat="45.37491" lon="6.12908">
        <ele>997.22046</ele>
        <time>2021-07-18T19:01:36</time>
      </trkpt>
      <trkpt lat="45.37494" lon="6.12908">
        <ele>997.22046</ele>
        <time>2021-07-18T19:01:39</time>
      </trkpt>
      <trkpt lat="45.37496" lon="6.12908">
        <ele>997.22046</ele>
        <time>2021-07-18T19:01:40</time>
      </trkpt>
      <trkpt lat="45.37497" lon="6.12908">
        <ele>997.22046</ele>
        <time>2021-07-18T19:01:41</time>
      </trkpt>
      <trkpt lat="45.37498" lon="6.12907">
        <ele>997.22046</ele>
        <time>2021-07-18T19:01:42</time>
      </trkpt>
      <trkpt lat="45.375" lon="6.12907">
        <ele>997.22046</ele>
        <time>2021-07-18T19:01:43</time>
      </trkpt>
      <trkpt lat="45.37502" lon="6.12907">
        <ele>997.22046</ele>
        <time>2021-07-18T19:01:46</time>
      </trkpt>
      <trkpt lat="45.37503" lon="6.12907">
        <ele>997.22046</ele>
        <time>2021-07-18T19:01:47</time>
      </trkpt>
      <trkpt lat="45.37504" lon="6.12907">
        <ele>997.22046</ele>
        <time>2021-07-18T19:01:48</time>
      </trkpt>
      <trkpt lat="45.37505" lon="6.12907">
        <ele>997.22046</ele>
        <time>2021-07-18T19:01:49</time>
      </trkpt>
      <trkpt lat="45.37508" lon="6.12907">
        <ele>997.22046</ele>
        <time>2021-07-18T19:01:51</time>
      </trkpt>
      <trkpt lat="45.37509" lon="6.12907">
        <ele>997.22046</ele>
        <time>2021-07-18T19:01:52</time>
      </trkpt>
      <trkpt lat="45.37511" lon="6.12907">
        <ele>997.22046</ele>
        <time>2021-07-18T19:01:53</time>
      </trkpt>
      <trkpt lat="45.37512" lon="6.12908">
        <ele>997.22046</ele>
        <time>2021-07-18T19:01:55</time>
      </trkpt>
      <trkpt lat="45.37515" lon="6.12908">
        <ele>997.22046</ele>
        <time>2021-07-18T19:01:58</time>
      </trkpt>
      <trkpt lat="45.37519" lon="6.12907">
        <ele>997.22046</ele>
        <time>2021-07-18T19:02:01</time>
      </trkpt>
      <trkpt lat="45.3752" lon="6.12906">
        <ele>997.22046</ele>
        <time>2021-07-18T19:02:02</time>
      </trkpt>
      <trkpt lat="45.37522" lon="6.12905">
        <ele>997.22046</ele>
        <time>2021-07-18T19:02:03</time>
      </trkpt>
      <trkpt lat="45.37524" lon="6.12902">
        <ele>997.22046</ele>
        <time>2021-07-18T19:02:05</time>
      </trkpt>
      <trkpt lat="45.37525" lon="6.12901">
        <ele>997.22046</ele>
        <time>2021-07-18T19:02:06</time>
      </trkpt>
      <trkpt lat="45.37526" lon="6.12898">
        <ele>997.22046</ele>
        <time>2021-07-18T19:02:07</time>
      </trkpt>
      <trkpt lat="45.37532" lon="6.12886">
        <ele>997.22046</ele>
        <time>2021-07-18T19:02:14</time>
      </trkpt>
      <trkpt lat="45.37531" lon="6.12883">
        <ele>997.22046</ele>
        <time>2021-07-18T19:02:17</time>
      </trkpt>
      <trkpt lat="45.37529" lon="6.12883">
        <ele>997.22046</ele>
        <time>2021-07-18T19:02:20</time>
      </trkpt>
      <trkpt lat="45.37528" lon="6.12883">
        <ele>997.22046</ele>
        <time>2021-07-18T19:02:21</time>
      </trkpt>
      <trkpt lat="45.37525" lon="6.12882">
        <ele>997.22046</ele>
        <time>2021-07-18T19:02:25</time>
      </trkpt>
      <trkpt lat="45.37522" lon="6.1288">
        <ele>997.22046</ele>
        <time>2021-07-18T19:02:28</time>
      </trkpt>
      <trkpt lat="45.37521" lon="6.1288">
        <ele>997.22046</ele>
        <time>2021-07-18T19:02:29</time>
      </trkpt>
      <trkpt lat="45.37519" lon="6.12881">
        <ele>997.22046</ele>
        <time>2021-07-18T19:02:31</time>
      </trkpt>
      <trkpt lat="45.37516" lon="6.1288">
        <ele>997.22046</ele>
        <time>2021-07-18T19:02:35</time>
      </trkpt>
      <trkpt lat="45.37516" lon="6.1288">
        <ele>997.22046</ele>
        <time>2021-07-18T19:02:36</time>
      </trkpt>
      <trkpt lat="45.37514" lon="6.12878">
        <ele>997.22046</ele>
        <time>2021-07-18T19:02:41</time>
      </trkpt>
      <trkpt lat="45.37513" lon="6.12877">
        <ele>997.22046</ele>
        <time>2021-07-18T19:02:42</time>
      </trkpt>
      <trkpt lat="45.37512" lon="6.12875">
        <ele>997.22046</ele>
        <time>2021-07-18T19:02:44</time>
      </trkpt>
      <trkpt lat="45.37511" lon="6.12875">
        <ele>997.22046</ele>
        <time>2021-07-18T19:02:45</time>
      </trkpt>
      <trkpt lat="45.37508" lon="6.12874">
        <ele>997.22046</ele>
        <time>2021-07-18T19:02:47</time>
      </trkpt>
      <trkpt lat="45.37504" lon="6.12873">
        <ele>997.22046</ele>
        <time>2021-07-18T19:02:50</time>
      </trkpt>
      <trkpt lat="45.37498" lon="6.12869">
        <ele>997.22046</ele>
        <time>2021-07-18T19:02:55</time>
      </trkpt>
      <trkpt lat="45.37493" lon="6.12866">
        <ele>997.22046</ele>
        <time>2021-07-18T19:03:00</time>
      </trkpt>
      <trkpt lat="45.37492" lon="6.12865">
        <ele>997.22046</ele>
        <time>2021-07-18T19:03:01</time>
      </trkpt>
      <trkpt lat="45.37489" lon="6.12862">
        <ele>997.22046</ele>
        <time>2021-07-18T19:03:05</time>
      </trkpt>
      <trkpt lat="45.37487" lon="6.12858">
        <ele>997.22046</ele>
        <time>2021-07-18T19:03:07</time>
      </trkpt>
      <trkpt lat="45.37487" lon="6.12855">
        <ele>997.22046</ele>
        <time>2021-07-18T19:03:09</time>
      </trkpt>
      <trkpt lat="45.37487" lon="6.1285">
        <ele>997.22046</ele>
        <time>2021-07-18T19:03:11</time>
      </trkpt>
      <trkpt lat="45.37487" lon="6.12843">
        <ele>997.22046</ele>
        <time>2021-07-18T19:03:15</time>
      </trkpt>
      <trkpt lat="45.37487" lon="6.12841">
        <ele>997.22046</ele>
        <time>2021-07-18T19:03:16</time>
      </trkpt>
      <trkpt lat="45.37487" lon="6.12839">
        <ele>997.22046</ele>
        <time>2021-07-18T19:03:17</time>
      </trkpt>
      <trkpt lat="45.37487" lon="6.12838">
        <ele>997.22046</ele>
        <time>2021-07-18T19:03:18</time>
      </trkpt>
      <trkpt lat="45.37486" lon="6.12837">
        <ele>997.22046</ele>
        <time>2021-07-18T19:03:20</time>
      </trkpt>
      <trkpt lat="45.37487" lon="6.12837">
        <ele>997.22046</ele>
        <time>2021-07-18T19:03:21</time>
      </trkpt>
      <trkpt lat="45.37489" lon="6.12837">
        <ele>997.22046</ele>
        <time>2021-07-18T19:03:24</time>
      </trkpt>
      <trkpt lat="45.37489" lon="6.12837">
        <ele>997.22046</ele>
        <time>2021-07-18T19:03:25</time>
      </trkpt>
      <trkpt lat="45.3749" lon="6.12838">
        <ele>997.22046</ele>
        <time>2021-07-18T19:03:26</time>
      </trkpt>
      <trkpt lat="45.37491" lon="6.12839">
        <ele>997.22046</ele>
        <time>2021-07-18T19:03:27</time>
      </trkpt>
      <trkpt lat="45.37495" lon="6.1284">
        <ele>997.22046</ele>
        <time>2021-07-18T19:03:30</time>
      </trkpt>
      <trkpt lat="45.37502" lon="6.12843">
        <ele>997.22046</ele>
        <time>2021-07-18T19:03:37</time>
      </trkpt>
      <trkpt lat="45.37507" lon="6.12846">
        <ele>997.22046</ele>
        <time>2021-07-18T19:03:42</time>
      </trkpt>
      <trkpt lat="45.37508" lon="6.12846">
        <ele>997.22046</ele>
        <time>2021-07-18T19:03:43</time>
      </trkpt>
      <trkpt lat="45.37509" lon="6.12845">
        <ele>997.22046</ele>
        <time>2021-07-18T19:03:44</time>
      </trkpt>
      <trkpt lat="45.3751" lon="6.12845">
        <ele>997.22046</ele>
        <time>2021-07-18T19:03:45</time>
      </trkpt>
      <trkpt lat="45.37513" lon="6.12844">
        <ele>997.22046</ele>
        <time>2021-07-18T19:03:48</time>
      </trkpt>
      <trkpt lat="45.37518" lon="6.12843">
        <ele>997.22046</ele>
        <time>2021-07-18T19:03:53</time>
      </trkpt>
      <trkpt lat="45.37524" lon="6.12841">
        <ele>997.22046</ele>
        <time>2021-07-18T19:03:57</time>
      </trkpt>
      <trkpt lat="45.37526" lon="6.1284">
        <ele>997.22046</ele>
        <time>2021-07-18T19:03:59</time>
      </trkpt>
      <trkpt lat="45.37532" lon="6.12837">
        <ele>997.22046</ele>
        <time>2021-07-18T19:04:06</time>
      </trkpt>
      <trkpt lat="45.37533" lon="6.12836">
        <ele>997.22046</ele>
        <time>2021-07-18T19:04:07</time>
      </trkpt>
      <trkpt lat="45.37533" lon="6.12835">
        <ele>997.22046</ele>
        <time>2021-07-18T19:04:09</time>
      </trkpt>
      <trkpt lat="45.37535" lon="6.12834">
        <ele>997.22046</ele>
        <time>2021-07-18T19:04:11</time>
      </trkpt>
      <trkpt lat="45.37538" lon="6.12831">
        <ele>997.22046</ele>
        <time>2021-07-18T19:04:13</time>
      </trkpt>
      <trkpt lat="45.3754" lon="6.12829">
        <ele>997.22046</ele>
        <time>2021-07-18T19:04:15</time>
      </trkpt>
      <trkpt lat="45.37541" lon="6.12827">
        <ele>997.22046</ele>
        <time>2021-07-18T19:04:16</time>
      </trkpt>
      <trkpt lat="45.37542" lon="6.12827">
        <ele>997.22046</ele>
        <time>2021-07-18T19:04:17</time>
      </trkpt>
      <trkpt lat="45.37543" lon="6.12827">
        <ele>997.22046</ele>
        <time>2021-07-18T19:04:18</time>
      </trkpt>
      <trkpt lat="45.37543" lon="6.12826">
        <ele>997.22046</ele>
        <time>2021-07-18T19:04:19</time>
      </trkpt>
      <trkpt lat="45.37544" lon="6.12825">
        <ele>997.22046</ele>
        <time>2021-07-18T19:04:20</time>
      </trkpt>
      <trkpt lat="45.37547" lon="6.12821">
        <ele>997.22046</ele>
        <time>2021-07-18T19:04:23</time>
      </trkpt>
      <trkpt lat="45.37548" lon="6.12821">
        <ele>997.22046</ele>
        <time>2021-07-18T19:04:25</time>
      </trkpt>
      <trkpt lat="45.37548" lon="6.1282">
        <ele>997.22046</ele>
        <time>2021-07-18T19:04:26</time>
      </trkpt>
      <trkpt lat="45.37548" lon="6.12819">
        <ele>997.22046</ele>
        <time>2021-07-18T19:04:27</time>
      </trkpt>
      <trkpt lat="45.37548" lon="6.12819">
        <ele>997.22046</ele>
        <time>2021-07-18T19:04:28</time>
      </trkpt>
      <trkpt lat="45.3755" lon="6.12819">
        <ele>997.22046</ele>
        <time>2021-07-18T19:04:33</time>
      </trkpt>
      <trkpt lat="45.3755" lon="6.12819">
        <ele>952.1204</ele>
        <time>2021-07-18T19:04:34</time>
      </trkpt>
      <trkpt lat="45.37551" lon="6.12816">
        <ele>952.1204</ele>
        <time>2021-07-18T19:04:36</time>
      </trkpt>
      <trkpt lat="45.37551" lon="6.12814">
        <ele>952.1204</ele>
        <time>2021-07-18T19:04:37</time>
      </trkpt>
      <trkpt lat="45.37552" lon="6.12813">
        <ele>952.1204</ele>
        <time>2021-07-18T19:04:39</time>
      </trkpt>
      <trkpt lat="45.37553" lon="6.12813">
        <ele>952.1204</ele>
        <time>2021-07-18T19:04:42</time>
      </trkpt>
      <trkpt lat="45.37555" lon="6.12813">
        <ele>947.82043</ele>
        <time>2021-07-18T19:04:44</time>
      </trkpt>
      <trkpt lat="45.37559" lon="6.12814">
        <ele>944.32043</ele>
        <time>2021-07-18T19:05:07</time>
      </trkpt>
      <trkpt lat="45.3756" lon="6.12813">
        <ele>944.32043</ele>
        <time>2021-07-18T19:05:08</time>
      </trkpt>
      <trkpt lat="45.3756" lon="6.12811">
        <ele>944.32043</ele>
        <time>2021-07-18T19:05:09</time>
      </trkpt>
      <trkpt lat="45.37562" lon="6.12808">
        <ele>944.32043</ele>
        <time>2021-07-18T19:05:11</time>
      </trkpt>
      <trkpt lat="45.37562" lon="6.12807">
        <ele>944.32043</ele>
        <time>2021-07-18T19:05:12</time>
      </trkpt>
      <trkpt lat="45.37563" lon="6.12806">
        <ele>944.32043</ele>
        <time>2021-07-18T19:05:13</time>
      </trkpt>
      <trkpt lat="45.37564" lon="6.12805">
        <ele>944.2871</ele>
        <time>2021-07-18T19:05:15</time>
      </trkpt>
      <trkpt lat="45.37565" lon="6.12804">
        <ele>944.2871</ele>
        <time>2021-07-18T19:05:16</time>
      </trkpt>
      <trkpt lat="45.37567" lon="6.12802">
        <ele>944.2871</ele>
        <time>2021-07-18T19:05:18</time>
      </trkpt>
      <trkpt lat="45.37567" lon="6.12801">
        <ele>944.2871</ele>
        <time>2021-07-18T19:05:19</time>
      </trkpt>
      <trkpt lat="45.3757" lon="6.12796">
        <ele>944.2871</ele>
        <time>2021-07-18T19:05:22</time>
      </trkpt>
      <trkpt lat="45.37575" lon="6.1279">
        <ele>944.2871</ele>
        <time>2021-07-18T19:05:27</time>
      </trkpt>
      <trkpt lat="45.37576" lon="6.1279">
        <ele>944.2871</ele>
        <time>2021-07-18T19:05:28</time>
      </trkpt>
      <trkpt lat="45.37578" lon="6.12787">
        <ele>944.2871</ele>
        <time>2021-07-18T19:05:30</time>
      </trkpt>
      <trkpt lat="45.37578" lon="6.12786">
        <ele>944.2871</ele>
        <time>2021-07-18T19:05:31</time>
      </trkpt>
      <trkpt lat="45.37579" lon="6.12785">
        <ele>944.2871</ele>
        <time>2021-07-18T19:05:32</time>
      </trkpt>
      <trkpt lat="45.37579" lon="6.12783">
        <ele>954.6204</ele>
        <time>2021-07-18T19:05:34</time>
      </trkpt>
      <trkpt lat="45.37579" lon="6.12783">
        <ele>954.6204</ele>
        <time>2021-07-18T19:05:35</time>
      </trkpt>
      <trkpt lat="45.37579" lon="6.12782">
        <ele>954.6204</ele>
        <time>2021-07-18T19:05:36</time>
      </trkpt>
      <trkpt lat="45.37579" lon="6.12782">
        <ele>954.6204</ele>
        <time>2021-07-18T19:05:37</time>
      </trkpt>
      <trkpt lat="45.3758" lon="6.12781">
        <ele>954.6204</ele>
        <time>2021-07-18T19:05:38</time>
      </trkpt>
      <trkpt lat="45.3758" lon="6.12781">
        <ele>954.6204</ele>
        <time>2021-07-18T19:05:39</time>
      </trkpt>
      <trkpt lat="45.37581" lon="6.1278">
        <ele>954.6204</ele>
        <time>2021-07-18T19:05:40</time>
      </trkpt>
      <trkpt lat="45.37581" lon="6.12779">
        <ele>954.6204</ele>
        <time>2021-07-18T19:05:42</time>
      </trkpt>
      <trkpt lat="45.37582" lon="6.12778">
        <ele>954.6204</ele>
        <time>2021-07-18T19:05:43</time>
      </trkpt>
      <trkpt lat="45.37582" lon="6.12777">
        <ele>949.6204</ele>
        <time>2021-07-18T19:05:44</time>
      </trkpt>
      <trkpt lat="45.37583" lon="6.12776">
        <ele>949.6204</ele>
        <time>2021-07-18T19:05:45</time>
      </trkpt>
      <trkpt lat="45.37588" lon="6.12773">
        <ele>949.6204</ele>
        <time>2021-07-18T19:05:50</time>
      </trkpt>
      <trkpt lat="45.37591" lon="6.12771">
        <ele>949.6204</ele>
        <time>2021-07-18T19:05:52</time>
      </trkpt>
      <trkpt lat="45.37592" lon="6.1277">
        <ele>949.6204</ele>
        <time>2021-07-18T19:05:53</time>
      </trkpt>
      <trkpt lat="45.37593" lon="6.1277">
        <ele>949.6204</ele>
        <time>2021-07-18T19:05:54</time>
      </trkpt>
      <trkpt lat="45.37594" lon="6.12769">
        <ele>949.6204</ele>
        <time>2021-07-18T19:05:57</time>
      </trkpt>
      <trkpt lat="45.37597" lon="6.12768">
        <ele>949.6204</ele>
        <time>2021-07-18T19:05:59</time>
      </trkpt>
      <trkpt lat="45.376" lon="6.12767">
        <ele>949.6204</ele>
        <time>2021-07-18T19:06:03</time>
      </trkpt>
      <trkpt lat="45.37601" lon="6.12766">
        <ele>949.6204</ele>
        <time>2021-07-18T19:06:04</time>
      </trkpt>
      <trkpt lat="45.37603" lon="6.12766">
        <ele>949.6204</ele>
        <time>2021-07-18T19:06:07</time>
      </trkpt>
      <trkpt lat="45.37605" lon="6.12766">
        <ele>949.6204</ele>
        <time>2021-07-18T19:06:10</time>
      </trkpt>
      <trkpt lat="45.37605" lon="6.12766">
        <ele>949.6204</ele>
        <time>2021-07-18T19:06:11</time>
      </trkpt>
      <trkpt lat="45.37607" lon="6.12765">
        <ele>944.4871</ele>
        <time>2021-07-18T19:06:14</time>
      </trkpt>
      <trkpt lat="45.37608" lon="6.12765">
        <ele>944.4871</ele>
        <time>2021-07-18T19:06:15</time>
      </trkpt>
      <trkpt lat="45.37609" lon="6.12764">
        <ele>944.4871</ele>
        <time>2021-07-18T19:06:16</time>
      </trkpt>
      <trkpt lat="45.37611" lon="6.12762">
        <ele>944.4871</ele>
        <time>2021-07-18T19:06:18</time>
      </trkpt>
      <trkpt lat="45.37612" lon="6.12762">
        <ele>944.4871</ele>
        <time>2021-07-18T19:06:19</time>
      </trkpt>
      <trkpt lat="45.37614" lon="6.12761">
        <ele>944.4871</ele>
        <time>2021-07-18T19:06:20</time>
      </trkpt>
      <trkpt lat="45.37615" lon="6.1276">
        <ele>944.4871</ele>
        <time>2021-07-18T19:06:21</time>
      </trkpt>
      <trkpt lat="45.37616" lon="6.12759">
        <ele>944.4871</ele>
        <time>2021-07-18T19:06:22</time>
      </trkpt>
      <trkpt lat="45.37616" lon="6.1276">
        <ele>941.9204</ele>
        <time>2021-07-18T19:06:26</time>
      </trkpt>
      <trkpt lat="45.37617" lon="6.12759">
        <ele>941.9204</ele>
        <time>2021-07-18T19:06:27</time>
      </trkpt>
      <trkpt lat="45.37618" lon="6.12759">
        <ele>941.9204</ele>
        <time>2021-07-18T19:06:28</time>
      </trkpt>
      <trkpt lat="45.37619" lon="6.12759">
        <ele>941.9204</ele>
        <time>2021-07-18T19:06:29</time>
      </trkpt>
      <trkpt lat="45.37621" lon="6.1276">
        <ele>941.9204</ele>
        <time>2021-07-18T19:06:31</time>
      </trkpt>
      <trkpt lat="45.37622" lon="6.1276">
        <ele>941.9204</ele>
        <time>2021-07-18T19:06:32</time>
      </trkpt>
      <trkpt lat="45.37624" lon="6.12761">
        <ele>945.32043</ele>
        <time>2021-07-18T19:06:35</time>
      </trkpt>
      <trkpt lat="45.37626" lon="6.12761">
        <ele>945.32043</ele>
        <time>2021-07-18T19:06:37</time>
      </trkpt>
      <trkpt lat="45.37628" lon="6.12761">
        <ele>945.32043</ele>
        <time>2021-07-18T19:06:38</time>
      </trkpt>
      <trkpt lat="45.3763" lon="6.1276">
        <ele>945.32043</ele>
        <time>2021-07-18T19:06:40</time>
      </trkpt>
      <trkpt lat="45.37631" lon="6.12759">
        <ele>945.32043</ele>
        <time>2021-07-18T19:06:41</time>
      </trkpt>
      <trkpt lat="45.37632" lon="6.12758">
        <ele>945.32043</ele>
        <time>2021-07-18T19:06:42</time>
      </trkpt>
      <trkpt lat="45.37634" lon="6.12758">
        <ele>938.6204</ele>
        <time>2021-07-18T19:06:44</time>
      </trkpt>
      <trkpt lat="45.37636" lon="6.12757">
        <ele>938.6204</ele>
        <time>2021-07-18T19:06:46</time>
      </trkpt>
      <trkpt lat="45.37637" lon="6.12757">
        <ele>938.6204</ele>
        <time>2021-07-18T19:06:47</time>
      </trkpt>
      <trkpt lat="45.37637" lon="6.12756">
        <ele>938.6204</ele>
        <time>2021-07-18T19:06:48</time>
      </trkpt>
      <trkpt lat="45.37639" lon="6.12755">
        <ele>938.6204</ele>
        <time>2021-07-18T19:06:50</time>
      </trkpt>
      <trkpt lat="45.37641" lon="6.12753">
        <ele>938.6204</ele>
        <time>2021-07-18T19:06:52</time>
      </trkpt>
      <trkpt lat="45.37645" lon="6.12747">
        <ele>934.1204</ele>
        <time>2021-07-18T19:06:56</time>
      </trkpt>
      <trkpt lat="45.37652" lon="6.12728">
        <ele>928.82043</ele>
        <time>2021-07-18T19:07:13</time>
      </trkpt>
      <trkpt lat="45.37652" lon="6.12726">
        <ele>929.82043</ele>
        <time>2021-07-18T19:07:14</time>
      </trkpt>
      <trkpt lat="45.37653" lon="6.12725">
        <ele>929.82043</ele>
        <time>2021-07-18T19:07:15</time>
      </trkpt>
      <trkpt lat="45.37653" lon="6.12724">
        <ele>929.82043</ele>
        <time>2021-07-18T19:07:16</time>
      </trkpt>
      <trkpt lat="45.37654" lon="6.12723">
        <ele>929.82043</ele>
        <time>2021-07-18T19:07:17</time>
      </trkpt>
      <trkpt lat="45.3766" lon="6.12714">
        <ele>932.82043</ele>
        <time>2021-07-18T19:07:26</time>
      </trkpt>
      <trkpt lat="45.37666" lon="6.12704">
        <ele>924.9204</ele>
        <time>2021-07-18T19:07:38</time>
      </trkpt>
      <trkpt lat="45.37671" lon="6.12697">
        <ele>925.32043</ele>
        <time>2021-07-18T19:07:45</time>
      </trkpt>
      <trkpt lat="45.37672" lon="6.12696">
        <ele>925.32043</ele>
        <time>2021-07-18T19:07:46</time>
      </trkpt>
      <trkpt lat="45.37675" lon="6.12693">
        <ele>925.32043</ele>
        <time>2021-07-18T19:07:50</time>
      </trkpt>
      <trkpt lat="45.37676" lon="6.12692">
        <ele>925.32043</ele>
        <time>2021-07-18T19:07:51</time>
      </trkpt>
      <trkpt lat="45.37679" lon="6.1269">
        <ele>925.32043</ele>
        <time>2021-07-18T19:07:54</time>
      </trkpt>
      <trkpt lat="45.3768" lon="6.1269">
        <ele>925.32043</ele>
        <time>2021-07-18T19:07:55</time>
      </trkpt>
      <trkpt lat="45.3768" lon="6.1269">
        <ele>925.32043</ele>
        <time>2021-07-18T19:07:56</time>
      </trkpt>
      <trkpt lat="45.37681" lon="6.12689">
        <ele>925.32043</ele>
        <time>2021-07-18T19:07:57</time>
      </trkpt>
      <trkpt lat="45.37682" lon="6.12688">
        <ele>925.32043</ele>
        <time>2021-07-18T19:08:01</time>
      </trkpt>
      <trkpt lat="45.37685" lon="6.12685">
        <ele>924.6204</ele>
        <time>2021-07-18T19:08:05</time>
      </trkpt>
      <trkpt lat="45.37686" lon="6.12683">
        <ele>924.6204</ele>
        <time>2021-07-18T19:08:06</time>
      </trkpt>
      <trkpt lat="45.37687" lon="6.1268">
        <ele>924.6204</ele>
        <time>2021-07-18T19:08:09</time>
      </trkpt>
      <trkpt lat="45.37689" lon="6.12678">
        <ele>924.6204</ele>
        <time>2021-07-18T19:08:11</time>
      </trkpt>
      <trkpt lat="45.37691" lon="6.12676">
        <ele>924.6204</ele>
        <time>2021-07-18T19:08:13</time>
      </trkpt>
      <trkpt lat="45.37693" lon="6.12674">
        <ele>921.9204</ele>
        <time>2021-07-18T19:08:16</time>
      </trkpt>
      <trkpt lat="45.37693" lon="6.12673">
        <ele>921.9204</ele>
        <time>2021-07-18T19:08:17</time>
      </trkpt>
      <trkpt lat="45.37694" lon="6.12669">
        <ele>921.9204</ele>
        <time>2021-07-18T19:08:20</time>
      </trkpt>
      <trkpt lat="45.37695" lon="6.12669">
        <ele>921.9204</ele>
        <time>2021-07-18T19:08:21</time>
      </trkpt>
      <trkpt lat="45.37695" lon="6.12669">
        <ele>921.9204</ele>
        <time>2021-07-18T19:08:22</time>
      </trkpt>
      <trkpt lat="45.37695" lon="6.12668">
        <ele>921.9204</ele>
        <time>2021-07-18T19:08:23</time>
      </trkpt>
      <trkpt lat="45.37696" lon="6.12668">
        <ele>921.9204</ele>
        <time>2021-07-18T19:08:24</time>
      </trkpt>
      <trkpt lat="45.37696" lon="6.12667">
        <ele>921.9204</ele>
        <time>2021-07-18T19:08:25</time>
      </trkpt>
      <trkpt lat="45.37698" lon="6.12664">
        <ele>921.9204</ele>
        <time>2021-07-18T19:08:27</time>
      </trkpt>
      <trkpt lat="45.37699" lon="6.12659">
        <ele>921.9204</ele>
        <time>2021-07-18T19:08:30</time>
      </trkpt>
      <trkpt lat="45.37701" lon="6.12654">
        <ele>921.9204</ele>
        <time>2021-07-18T19:08:33</time>
      </trkpt>
      <trkpt lat="45.37701" lon="6.12653">
        <ele>921.9204</ele>
        <time>2021-07-18T19:08:34</time>
      </trkpt>
      <trkpt lat="45.377" lon="6.12651">
        <ele>921.9204</ele>
        <time>2021-07-18T19:08:36</time>
      </trkpt>
      <trkpt lat="45.37703" lon="6.12643">
        <ele>921.9204</ele>
        <time>2021-07-18T19:08:42</time>
      </trkpt>
      <trkpt lat="45.37703" lon="6.12641">
        <ele>921.9204</ele>
        <time>2021-07-18T19:08:43</time>
      </trkpt>
      <trkpt lat="45.37703" lon="6.1264">
        <ele>915.4204</ele>
        <time>2021-07-18T19:08:44</time>
      </trkpt>
      <trkpt lat="45.37703" lon="6.12639">
        <ele>915.4204</ele>
        <time>2021-07-18T19:08:45</time>
      </trkpt>
      <trkpt lat="45.37702" lon="6.12638">
        <ele>915.4204</ele>
        <time>2021-07-18T19:08:46</time>
      </trkpt>
      <trkpt lat="45.37701" lon="6.12638">
        <ele>915.4204</ele>
        <time>2021-07-18T19:08:48</time>
      </trkpt>
      <trkpt lat="45.37701" lon="6.12637">
        <ele>915.4204</ele>
        <time>2021-07-18T19:08:50</time>
      </trkpt>
      <trkpt lat="45.37701" lon="6.12636">
        <ele>915.4204</ele>
        <time>2021-07-18T19:08:51</time>
      </trkpt>
      <trkpt lat="45.37702" lon="6.12631">
        <ele>915.1204</ele>
        <time>2021-07-18T19:08:55</time>
      </trkpt>
      <trkpt lat="45.37703" lon="6.12628">
        <ele>915.1204</ele>
        <time>2021-07-18T19:08:57</time>
      </trkpt>
      <trkpt lat="45.37703" lon="6.12625">
        <ele>915.1204</ele>
        <time>2021-07-18T19:08:59</time>
      </trkpt>
      <trkpt lat="45.37704" lon="6.12625">
        <ele>915.1204</ele>
        <time>2021-07-18T19:09:00</time>
      </trkpt>
      <trkpt lat="45.37704" lon="6.12623">
        <ele>915.1204</ele>
        <time>2021-07-18T19:09:01</time>
      </trkpt>
      <trkpt lat="45.37705" lon="6.1262">
        <ele>915.1204</ele>
        <time>2021-07-18T19:09:03</time>
      </trkpt>
      <trkpt lat="45.37707" lon="6.12618">
        <ele>915.1204</ele>
        <time>2021-07-18T19:09:05</time>
      </trkpt>
      <trkpt lat="45.37708" lon="6.12613">
        <ele>915.1204</ele>
        <time>2021-07-18T19:09:08</time>
      </trkpt>
      <trkpt lat="45.37709" lon="6.12611">
        <ele>915.1204</ele>
        <time>2021-07-18T19:09:09</time>
      </trkpt>
      <trkpt lat="45.37709" lon="6.12605">
        <ele>915.1204</ele>
        <time>2021-07-18T19:09:12</time>
      </trkpt>
      <trkpt lat="45.37709" lon="6.12599">
        <ele>915.1204</ele>
        <time>2021-07-18T19:09:16</time>
      </trkpt>
      <trkpt lat="45.37709" lon="6.12594">
        <ele>915.1204</ele>
        <time>2021-07-18T19:09:19</time>
      </trkpt>
      <trkpt lat="45.3771" lon="6.12593">
        <ele>915.1204</ele>
        <time>2021-07-18T19:09:20</time>
      </trkpt>
      <trkpt lat="45.37712" lon="6.1259">
        <ele>915.1204</ele>
        <time>2021-07-18T19:09:22</time>
      </trkpt>
      <trkpt lat="45.37714" lon="6.12586">
        <ele>915.1204</ele>
        <time>2021-07-18T19:09:24</time>
      </trkpt>
      <trkpt lat="45.37716" lon="6.12582">
        <ele>915.1204</ele>
        <time>2021-07-18T19:09:26</time>
      </trkpt>
      <trkpt lat="45.37717" lon="6.12579">
        <ele>915.1204</ele>
        <time>2021-07-18T19:09:30</time>
      </trkpt>
      <trkpt lat="45.37717" lon="6.12579">
        <ele>915.1204</ele>
        <time>2021-07-18T19:09:31</time>
      </trkpt>
      <trkpt lat="45.37717" lon="6.12579">
        <ele>915.1204</ele>
        <time>2021-07-18T19:09:32</time>
      </trkpt>
      <trkpt lat="45.37718" lon="6.12578">
        <ele>915.1204</ele>
        <time>2021-07-18T19:09:34</time>
      </trkpt>
      <trkpt lat="45.37719" lon="6.12576">
        <ele>915.1204</ele>
        <time>2021-07-18T19:09:37</time>
      </trkpt>
      <trkpt lat="45.3772" lon="6.12572">
        <ele>915.1204</ele>
        <time>2021-07-18T19:09:41</time>
      </trkpt>
      <trkpt lat="45.3772" lon="6.12571">
        <ele>915.1204</ele>
        <time>2021-07-18T19:09:42</time>
      </trkpt>
      <trkpt lat="45.3772" lon="6.1257">
        <ele>915.1204</ele>
        <time>2021-07-18T19:09:43</time>
      </trkpt>
      <trkpt lat="45.37722" lon="6.12568">
        <ele>915.1204</ele>
        <time>2021-07-18T19:09:46</time>
      </trkpt>
      <trkpt lat="45.37723" lon="6.12568">
        <ele>915.1204</ele>
        <time>2021-07-18T19:09:47</time>
      </trkpt>
      <trkpt lat="45.37723" lon="6.12567">
        <ele>915.1204</ele>
        <time>2021-07-18T19:09:49</time>
      </trkpt>
      <trkpt lat="45.37723" lon="6.12567">
        <ele>915.1204</ele>
        <time>2021-07-18T19:09:50</time>
      </trkpt>
      <trkpt lat="45.37723" lon="6.12566">
        <ele>915.1204</ele>
        <time>2021-07-18T19:09:51</time>
      </trkpt>
      <trkpt lat="45.37724" lon="6.12564">
        <ele>915.1204</ele>
        <time>2021-07-18T19:09:52</time>
      </trkpt>
      <trkpt lat="45.37724" lon="6.12563">
        <ele>915.1204</ele>
        <time>2021-07-18T19:09:53</time>
      </trkpt>
      <trkpt lat="45.37725" lon="6.1256">
        <ele>915.1204</ele>
        <time>2021-07-18T19:09:55</time>
      </trkpt>
      <trkpt lat="45.37725" lon="6.12559">
        <ele>915.1204</ele>
        <time>2021-07-18T19:09:56</time>
      </trkpt>
      <trkpt lat="45.37731" lon="6.12541">
        <ele>915.1204</ele>
        <time>2021-07-18T19:10:09</time>
      </trkpt>
      <trkpt lat="45.37731" lon="6.12539">
        <ele>915.1204</ele>
        <time>2021-07-18T19:10:10</time>
      </trkpt>
      <trkpt lat="45.37735" lon="6.12531">
        <ele>915.1204</ele>
        <time>2021-07-18T19:10:19</time>
      </trkpt>
      <trkpt lat="45.37735" lon="6.1253">
        <ele>915.1204</ele>
        <time>2021-07-18T19:10:20</time>
      </trkpt>
      <trkpt lat="45.37735" lon="6.12529">
        <ele>915.1204</ele>
        <time>2021-07-18T19:10:21</time>
      </trkpt>
      <trkpt lat="45.37736" lon="6.12527">
        <ele>915.1204</ele>
        <time>2021-07-18T19:10:23</time>
      </trkpt>
      <trkpt lat="45.37736" lon="6.12525">
        <ele>915.1204</ele>
        <time>2021-07-18T19:10:24</time>
      </trkpt>
      <trkpt lat="45.37737" lon="6.12523">
        <ele>915.1204</ele>
        <time>2021-07-18T19:10:25</time>
      </trkpt>
      <trkpt lat="45.37738" lon="6.1252">
        <ele>915.1204</ele>
        <time>2021-07-18T19:10:28</time>
      </trkpt>
      <trkpt lat="45.3774" lon="6.12517">
        <ele>915.1204</ele>
        <time>2021-07-18T19:10:30</time>
      </trkpt>
      <trkpt lat="45.3774" lon="6.12516">
        <ele>915.1204</ele>
        <time>2021-07-18T19:10:31</time>
      </trkpt>
      <trkpt lat="45.3774" lon="6.12514">
        <ele>915.1204</ele>
        <time>2021-07-18T19:10:33</time>
      </trkpt>
      <trkpt lat="45.37741" lon="6.12513">
        <ele>915.1204</ele>
        <time>2021-07-18T19:10:34</time>
      </trkpt>
      <trkpt lat="45.37744" lon="6.1251">
        <ele>915.1204</ele>
        <time>2021-07-18T19:10:37</time>
      </trkpt>
      <trkpt lat="45.37744" lon="6.12509">
        <ele>915.1204</ele>
        <time>2021-07-18T19:10:38</time>
      </trkpt>
      <trkpt lat="45.37744" lon="6.12507">
        <ele>915.1204</ele>
        <time>2021-07-18T19:10:40</time>
      </trkpt>
      <trkpt lat="45.37745" lon="6.12506">
        <ele>915.1204</ele>
        <time>2021-07-18T19:10:41</time>
      </trkpt>
      <trkpt lat="45.37746" lon="6.12505">
        <ele>915.1204</ele>
        <time>2021-07-18T19:10:42</time>
      </trkpt>
      <trkpt lat="45.37751" lon="6.12489">
        <ele>915.1204</ele>
        <time>2021-07-18T19:10:54</time>
      </trkpt>
      <trkpt lat="45.37752" lon="6.12478">
        <ele>915.1204</ele>
        <time>2021-07-18T19:11:01</time>
      </trkpt>
      <trkpt lat="45.37752" lon="6.12478">
        <ele>915.1204</ele>
        <time>2021-07-18T19:11:02</time>
      </trkpt>
      <trkpt lat="45.37752" lon="6.12478">
        <ele>915.1204</ele>
        <time>2021-07-18T19:11:03</time>
      </trkpt>
      <trkpt lat="45.37752" lon="6.12477">
        <ele>915.1204</ele>
        <time>2021-07-18T19:11:04</time>
      </trkpt>
      <trkpt lat="45.37753" lon="6.12476">
        <ele>915.1204</ele>
        <time>2021-07-18T19:11:06</time>
      </trkpt>
      <trkpt lat="45.37753" lon="6.12476">
        <ele>915.1204</ele>
        <time>2021-07-18T19:11:07</time>
      </trkpt>
      <trkpt lat="45.37753" lon="6.12475">
        <ele>915.1204</ele>
        <time>2021-07-18T19:11:08</time>
      </trkpt>
      <trkpt lat="45.37753" lon="6.12474">
        <ele>915.1204</ele>
        <time>2021-07-18T19:11:09</time>
      </trkpt>
      <trkpt lat="45.37753" lon="6.12474">
        <ele>915.1204</ele>
        <time>2021-07-18T19:11:10</time>
      </trkpt>
      <trkpt lat="45.37753" lon="6.12473">
        <ele>915.1204</ele>
        <time>2021-07-18T19:11:11</time>
      </trkpt>
      <trkpt lat="45.37753" lon="6.1247">
        <ele>915.1204</ele>
        <time>2021-07-18T19:11:13</time>
      </trkpt>
      <trkpt lat="45.37753" lon="6.12468">
        <ele>915.1204</ele>
        <time>2021-07-18T19:11:16</time>
      </trkpt>
      <trkpt lat="45.37752" lon="6.12467">
        <ele>915.1204</ele>
        <time>2021-07-18T19:11:17</time>
      </trkpt>
      <trkpt lat="45.37751" lon="6.12467">
        <ele>915.1204</ele>
        <time>2021-07-18T19:11:18</time>
      </trkpt>
      <trkpt lat="45.37746" lon="6.12466">
        <ele>915.1204</ele>
        <time>2021-07-18T19:11:23</time>
      </trkpt>
      <trkpt lat="45.37743" lon="6.12465">
        <ele>915.1204</ele>
        <time>2021-07-18T19:11:26</time>
      </trkpt>
      <trkpt lat="45.3774" lon="6.12466">
        <ele>915.1204</ele>
        <time>2021-07-18T19:11:28</time>
      </trkpt>
      <trkpt lat="45.3774" lon="6.12465">
        <ele>915.1204</ele>
        <time>2021-07-18T19:11:29</time>
      </trkpt>
      <trkpt lat="45.37741" lon="6.12464">
        <ele>915.1204</ele>
        <time>2021-07-18T19:11:30</time>
      </trkpt>
      <trkpt lat="45.37741" lon="6.12463">
        <ele>915.1204</ele>
        <time>2021-07-18T19:11:31</time>
      </trkpt>
      <trkpt lat="45.37741" lon="6.12463">
        <ele>915.1204</ele>
        <time>2021-07-18T19:11:32</time>
      </trkpt>
      <trkpt lat="45.37741" lon="6.12462">
        <ele>915.1204</ele>
        <time>2021-07-18T19:11:33</time>
      </trkpt>
      <trkpt lat="45.37739" lon="6.12461">
        <ele>915.1204</ele>
        <time>2021-07-18T19:11:36</time>
      </trkpt>
      <trkpt lat="45.37737" lon="6.1246">
        <ele>915.1204</ele>
        <time>2021-07-18T19:11:38</time>
      </trkpt>
      <trkpt lat="45.37736" lon="6.12459">
        <ele>915.1204</ele>
        <time>2021-07-18T19:11:41</time>
      </trkpt>
      <trkpt lat="45.37735" lon="6.12457">
        <ele>915.1204</ele>
        <time>2021-07-18T19:11:44</time>
      </trkpt>
      <trkpt lat="45.37732" lon="6.12453">
        <ele>915.1204</ele>
        <time>2021-07-18T19:11:48</time>
      </trkpt>
      <trkpt lat="45.37731" lon="6.1245">
        <ele>915.1204</ele>
        <time>2021-07-18T19:11:50</time>
      </trkpt>
      <trkpt lat="45.37731" lon="6.12449">
        <ele>915.1204</ele>
        <time>2021-07-18T19:11:51</time>
      </trkpt>
      <trkpt lat="45.37729" lon="6.12448">
        <ele>915.1204</ele>
        <time>2021-07-18T19:11:52</time>
      </trkpt>
      <trkpt lat="45.37724" lon="6.12445">
        <ele>915.1204</ele>
        <time>2021-07-18T19:11:56</time>
      </trkpt>
      <trkpt lat="45.3772" lon="6.12438">
        <ele>915.1204</ele>
        <time>2021-07-18T19:12:03</time>
      </trkpt>
      <trkpt lat="45.3772" lon="6.12437">
        <ele>915.1204</ele>
        <time>2021-07-18T19:12:04</time>
      </trkpt>
      <trkpt lat="45.37719" lon="6.12435">
        <ele>915.1204</ele>
        <time>2021-07-18T19:12:05</time>
      </trkpt>
      <trkpt lat="45.37719" lon="6.12434">
        <ele>915.1204</ele>
        <time>2021-07-18T19:12:06</time>
      </trkpt>
      <trkpt lat="45.37719" lon="6.12429">
        <ele>915.1204</ele>
        <time>2021-07-18T19:12:09</time>
      </trkpt>
      <trkpt lat="45.37718" lon="6.12427">
        <ele>915.1204</ele>
        <time>2021-07-18T19:12:11</time>
      </trkpt>
      <trkpt lat="45.37717" lon="6.12426">
        <ele>915.1204</ele>
        <time>2021-07-18T19:12:12</time>
      </trkpt>
      <trkpt lat="45.37716" lon="6.12425">
        <ele>915.1204</ele>
        <time>2021-07-18T19:12:13</time>
      </trkpt>
      <trkpt lat="45.37713" lon="6.1242">
        <ele>915.1204</ele>
        <time>2021-07-18T19:12:18</time>
      </trkpt>
      <trkpt lat="45.37712" lon="6.12417">
        <ele>915.1204</ele>
        <time>2021-07-18T19:12:20</time>
      </trkpt>
      <trkpt lat="45.3771" lon="6.12405">
        <ele>915.1204</ele>
        <time>2021-07-18T19:12:28</time>
      </trkpt>
      <trkpt lat="45.37709" lon="6.12404">
        <ele>915.1204</ele>
        <time>2021-07-18T19:12:30</time>
      </trkpt>
      <trkpt lat="45.37706" lon="6.12398">
        <ele>915.1204</ele>
        <time>2021-07-18T19:12:35</time>
      </trkpt>
      <trkpt lat="45.37706" lon="6.12395">
        <ele>915.1204</ele>
        <time>2021-07-18T19:12:37</time>
      </trkpt>
      <trkpt lat="45.37705" lon="6.12392">
        <ele>915.1204</ele>
        <time>2021-07-18T19:12:39</time>
      </trkpt>
      <trkpt lat="45.37703" lon="6.12389">
        <ele>915.1204</ele>
        <time>2021-07-18T19:12:41</time>
      </trkpt>
      <trkpt lat="45.37703" lon="6.12388">
        <ele>915.1204</ele>
        <time>2021-07-18T19:12:42</time>
      </trkpt>
      <trkpt lat="45.37703" lon="6.12385">
        <ele>915.1204</ele>
        <time>2021-07-18T19:12:44</time>
      </trkpt>
      <trkpt lat="45.37704" lon="6.12383">
        <ele>915.1204</ele>
        <time>2021-07-18T19:12:45</time>
      </trkpt>
      <trkpt lat="45.3771" lon="6.12375">
        <ele>915.1204</ele>
        <time>2021-07-18T19:12:51</time>
      </trkpt>
      <trkpt lat="45.3771" lon="6.12374">
        <ele>915.1204</ele>
        <time>2021-07-18T19:12:52</time>
      </trkpt>
      <trkpt lat="45.37711" lon="6.12373">
        <ele>915.1204</ele>
        <time>2021-07-18T19:12:56</time>
      </trkpt>
      <trkpt lat="45.37712" lon="6.12373">
        <ele>915.1204</ele>
        <time>2021-07-18T19:12:57</time>
      </trkpt>
      <trkpt lat="45.37708" lon="6.12374">
        <ele>915.1204</ele>
        <time>2021-07-18T19:13:20</time>
      </trkpt>
      <trkpt lat="45.37708" lon="6.12373">
        <ele>915.1204</ele>
        <time>2021-07-18T19:13:21</time>
      </trkpt>
      <trkpt lat="45.37707" lon="6.12374">
        <ele>915.1204</ele>
        <time>2021-07-18T19:14:10</time>
      </trkpt>
      <trkpt lat="45.37707" lon="6.12374">
        <ele>915.1204</ele>
        <time>2021-07-18T19:14:34</time>
      </trkpt>
      <trkpt lat="45.37708" lon="6.12374">
        <ele>915.1204</ele>
        <time>2021-07-18T19:14:35</time>
      </trkpt>
      <trkpt lat="45.3771" lon="6.12377">
        <ele>915.1204</ele>
        <time>2021-07-18T19:15:05</time>
      </trkpt>
      <trkpt lat="45.3771" lon="6.12377">
        <ele>915.1204</ele>
        <time>2021-07-18T19:15:09</time>
      </trkpt>
      <trkpt lat="45.3771" lon="6.12378">
        <ele>915.1204</ele>
        <time>2021-07-18T19:15:10</time>
      </trkpt>
      <trkpt lat="45.37718" lon="6.12372">
        <ele>915.1204</ele>
        <time>2021-07-18T19:15:24</time>
      </trkpt>
      <trkpt lat="45.37718" lon="6.12371">
        <ele>915.1204</ele>
        <time>2021-07-18T19:15:25</time>
      </trkpt>
      <trkpt lat="45.37718" lon="6.1237">
        <ele>915.1204</ele>
        <time>2021-07-18T19:15:26</time>
      </trkpt>
      <trkpt lat="45.37719" lon="6.12365">
        <ele>915.1204</ele>
        <time>2021-07-18T19:15:29</time>
      </trkpt>
      <trkpt lat="45.37718" lon="6.1236">
        <ele>915.1204</ele>
        <time>2021-07-18T19:15:32</time>
      </trkpt>
      <trkpt lat="45.37719" lon="6.12356">
        <ele>915.1204</ele>
        <time>2021-07-18T19:15:34</time>
      </trkpt>
      <trkpt lat="45.3772" lon="6.12351">
        <ele>915.1204</ele>
        <time>2021-07-18T19:15:36</time>
      </trkpt>
      <trkpt lat="45.3772" lon="6.12349">
        <ele>915.1204</ele>
        <time>2021-07-18T19:15:37</time>
      </trkpt>
      <trkpt lat="45.37721" lon="6.12345">
        <ele>915.1204</ele>
        <time>2021-07-18T19:15:39</time>
      </trkpt>
      <trkpt lat="45.37722" lon="6.12343">
        <ele>915.1204</ele>
        <time>2021-07-18T19:15:40</time>
      </trkpt>
      <trkpt lat="45.37722" lon="6.12341">
        <ele>915.1204</ele>
        <time>2021-07-18T19:15:42</time>
      </trkpt>
      <trkpt lat="45.37722" lon="6.12339">
        <ele>915.1204</ele>
        <time>2021-07-18T19:15:44</time>
      </trkpt>
      <trkpt lat="45.37721" lon="6.12339">
        <ele>915.1204</ele>
        <time>2021-07-18T19:15:45</time>
      </trkpt>
      <trkpt lat="45.37721" lon="6.12337">
        <ele>915.1204</ele>
        <time>2021-07-18T19:15:46</time>
      </trkpt>
      <trkpt lat="45.3772" lon="6.12336">
        <ele>915.1204</ele>
        <time>2021-07-18T19:15:47</time>
      </trkpt>
      <trkpt lat="45.37719" lon="6.12334">
        <ele>915.1204</ele>
        <time>2021-07-18T19:15:49</time>
      </trkpt>
      <trkpt lat="45.37717" lon="6.12331">
        <ele>915.1204</ele>
        <time>2021-07-18T19:15:52</time>
      </trkpt>
      <trkpt lat="45.37716" lon="6.12327">
        <ele>915.1204</ele>
        <time>2021-07-18T19:15:55</time>
      </trkpt>
      <trkpt lat="45.37717" lon="6.12325">
        <ele>915.1204</ele>
        <time>2021-07-18T19:15:56</time>
      </trkpt>
      <trkpt lat="45.37717" lon="6.12324">
        <ele>915.1204</ele>
        <time>2021-07-18T19:15:57</time>
      </trkpt>
      <trkpt lat="45.37717" lon="6.12322">
        <ele>915.1204</ele>
        <time>2021-07-18T19:15:58</time>
      </trkpt>
      <trkpt lat="45.37718" lon="6.12318">
        <ele>915.1204</ele>
        <time>2021-07-18T19:16:00</time>
      </trkpt>
      <trkpt lat="45.37719" lon="6.12314">
        <ele>915.1204</ele>
        <time>2021-07-18T19:16:03</time>
      </trkpt>
      <trkpt lat="45.3772" lon="6.12308">
        <ele>915.1204</ele>
        <time>2021-07-18T19:16:06</time>
      </trkpt>
      <trkpt lat="45.37721" lon="6.12303">
        <ele>915.1204</ele>
        <time>2021-07-18T19:16:09</time>
      </trkpt>
      <trkpt lat="45.37722" lon="6.12299">
        <ele>915.1204</ele>
        <time>2021-07-18T19:16:13</time>
      </trkpt>
      <trkpt lat="45.37722" lon="6.12287">
        <ele>915.1204</ele>
        <time>2021-07-18T19:16:21</time>
      </trkpt>
      <trkpt lat="45.37722" lon="6.12286">
        <ele>915.1204</ele>
        <time>2021-07-18T19:16:22</time>
      </trkpt>
      <trkpt lat="45.37722" lon="6.12284">
        <ele>915.1204</ele>
        <time>2021-07-18T19:16:24</time>
      </trkpt>
      <trkpt lat="45.37723" lon="6.12282">
        <ele>915.1204</ele>
        <time>2021-07-18T19:16:25</time>
      </trkpt>
      <trkpt lat="45.37724" lon="6.1228">
        <ele>915.1204</ele>
        <time>2021-07-18T19:16:26</time>
      </trkpt>
      <trkpt lat="45.37725" lon="6.12277">
        <ele>915.1204</ele>
        <time>2021-07-18T19:16:28</time>
      </trkpt>
      <trkpt lat="45.3773" lon="6.12266">
        <ele>915.1204</ele>
        <time>2021-07-18T19:16:34</time>
      </trkpt>
      <trkpt lat="45.37733" lon="6.12258">
        <ele>915.1204</ele>
        <time>2021-07-18T19:16:38</time>
      </trkpt>
      <trkpt lat="45.37734" lon="6.12254">
        <ele>915.1204</ele>
        <time>2021-07-18T19:16:40</time>
      </trkpt>
      <trkpt lat="45.37734" lon="6.12251">
        <ele>915.1204</ele>
        <time>2021-07-18T19:16:41</time>
      </trkpt>
      <trkpt lat="45.37734" lon="6.12249">
        <ele>915.1204</ele>
        <time>2021-07-18T19:16:43</time>
      </trkpt>
      <trkpt lat="45.37734" lon="6.12248">
        <ele>915.1204</ele>
        <time>2021-07-18T19:16:44</time>
      </trkpt>
      <trkpt lat="45.37734" lon="6.12248">
        <ele>915.1204</ele>
        <time>2021-07-18T19:16:45</time>
      </trkpt>
      <trkpt lat="45.37733" lon="6.12246">
        <ele>915.1204</ele>
        <time>2021-07-18T19:16:47</time>
      </trkpt>
      <trkpt lat="45.37733" lon="6.12244">
        <ele>915.1204</ele>
        <time>2021-07-18T19:16:48</time>
      </trkpt>
      <trkpt lat="45.37734" lon="6.12239">
        <ele>915.1204</ele>
        <time>2021-07-18T19:16:51</time>
      </trkpt>
      <trkpt lat="45.37734" lon="6.12237">
        <ele>915.1204</ele>
        <time>2021-07-18T19:16:52</time>
      </trkpt>
      <trkpt lat="45.37733" lon="6.12235">
        <ele>915.1204</ele>
        <time>2021-07-18T19:16:55</time>
      </trkpt>
      <trkpt lat="45.37732" lon="6.12234">
        <ele>915.1204</ele>
        <time>2021-07-18T19:16:56</time>
      </trkpt>
      <trkpt lat="45.37731" lon="6.12233">
        <ele>915.1204</ele>
        <time>2021-07-18T19:16:58</time>
      </trkpt>
      <trkpt lat="45.3773" lon="6.12232">
        <ele>915.1204</ele>
        <time>2021-07-18T19:16:59</time>
      </trkpt>
      <trkpt lat="45.37729" lon="6.12232">
        <ele>915.1204</ele>
        <time>2021-07-18T19:17:00</time>
      </trkpt>
      <trkpt lat="45.37728" lon="6.12232">
        <ele>915.1204</ele>
        <time>2021-07-18T19:17:01</time>
      </trkpt>
      <trkpt lat="45.37728" lon="6.12231">
        <ele>915.1204</ele>
        <time>2021-07-18T19:17:02</time>
      </trkpt>
      <trkpt lat="45.37728" lon="6.1223">
        <ele>915.1204</ele>
        <time>2021-07-18T19:17:03</time>
      </trkpt>
      <trkpt lat="45.37728" lon="6.12228">
        <ele>915.1204</ele>
        <time>2021-07-18T19:17:04</time>
      </trkpt>
      <trkpt lat="45.37728" lon="6.12227">
        <ele>915.1204</ele>
        <time>2021-07-18T19:17:05</time>
      </trkpt>
      <trkpt lat="45.37728" lon="6.12227">
        <ele>915.1204</ele>
        <time>2021-07-18T19:17:06</time>
      </trkpt>
      <trkpt lat="45.37727" lon="6.12226">
        <ele>915.1204</ele>
        <time>2021-07-18T19:17:07</time>
      </trkpt>
      <trkpt lat="45.37726" lon="6.12225">
        <ele>915.1204</ele>
        <time>2021-07-18T19:17:09</time>
      </trkpt>
      <trkpt lat="45.37726" lon="6.12224">
        <ele>915.1204</ele>
        <time>2021-07-18T19:17:10</time>
      </trkpt>
      <trkpt lat="45.37727" lon="6.12217">
        <ele>915.1204</ele>
        <time>2021-07-18T19:17:14</time>
      </trkpt>
      <trkpt lat="45.3773" lon="6.12207">
        <ele>915.1204</ele>
        <time>2021-07-18T19:17:18</time>
      </trkpt>
      <trkpt lat="45.37732" lon="6.122">
        <ele>915.1204</ele>
        <time>2021-07-18T19:17:21</time>
      </trkpt>
      <trkpt lat="45.37735" lon="6.12188">
        <ele>915.1204</ele>
        <time>2021-07-18T19:17:26</time>
      </trkpt>
      <trkpt lat="45.37739" lon="6.12175">
        <ele>915.1204</ele>
        <time>2021-07-18T19:17:33</time>
      </trkpt>
      <trkpt lat="45.37739" lon="6.12174">
        <ele>915.1204</ele>
        <time>2021-07-18T19:17:34</time>
      </trkpt>
      <trkpt lat="45.3774" lon="6.12164">
        <ele>915.1204</ele>
        <time>2021-07-18T19:17:43</time>
      </trkpt>
      <trkpt lat="45.3774" lon="6.12162">
        <ele>915.1204</ele>
        <time>2021-07-18T19:17:44</time>
      </trkpt>
      <trkpt lat="45.3774" lon="6.12159">
        <ele>915.1204</ele>
        <time>2021-07-18T19:17:46</time>
      </trkpt>
      <trkpt lat="45.37741" lon="6.12158">
        <ele>915.1204</ele>
        <time>2021-07-18T19:17:47</time>
      </trkpt>
      <trkpt lat="45.37742" lon="6.12153">
        <ele>915.1204</ele>
        <time>2021-07-18T19:17:50</time>
      </trkpt>
      <trkpt lat="45.37742" lon="6.12151">
        <ele>915.1204</ele>
        <time>2021-07-18T19:17:52</time>
      </trkpt>
      <trkpt lat="45.37744" lon="6.12139">
        <ele>915.1204</ele>
        <time>2021-07-18T19:17:59</time>
      </trkpt>
      <trkpt lat="45.37744" lon="6.12137">
        <ele>915.1204</ele>
        <time>2021-07-18T19:18:01</time>
      </trkpt>
      <trkpt lat="45.37744" lon="6.12137">
        <ele>915.1204</ele>
        <time>2021-07-18T19:18:02</time>
      </trkpt>
      <trkpt lat="45.37742" lon="6.12133">
        <ele>915.1204</ele>
        <time>2021-07-18T19:18:06</time>
      </trkpt>
      <trkpt lat="45.37742" lon="6.12132">
        <ele>915.1204</ele>
        <time>2021-07-18T19:18:07</time>
      </trkpt>
      <trkpt lat="45.37742" lon="6.12128">
        <ele>915.1204</ele>
        <time>2021-07-18T19:18:10</time>
      </trkpt>
      <trkpt lat="45.37741" lon="6.12125">
        <ele>915.1204</ele>
        <time>2021-07-18T19:18:12</time>
      </trkpt>
      <trkpt lat="45.37741" lon="6.12122">
        <ele>915.1204</ele>
        <time>2021-07-18T19:18:14</time>
      </trkpt>
      <trkpt lat="45.37741" lon="6.12121">
        <ele>915.1204</ele>
        <time>2021-07-18T19:18:15</time>
      </trkpt>
      <trkpt lat="45.3774" lon="6.12119">
        <ele>915.1204</ele>
        <time>2021-07-18T19:18:17</time>
      </trkpt>
      <trkpt lat="45.37739" lon="6.12116">
        <ele>915.1204</ele>
        <time>2021-07-18T19:18:19</time>
      </trkpt>
      <trkpt lat="45.37739" lon="6.12115">
        <ele>915.1204</ele>
        <time>2021-07-18T19:18:20</time>
      </trkpt>
      <trkpt lat="45.37738" lon="6.12111">
        <ele>915.1204</ele>
        <time>2021-07-18T19:18:23</time>
      </trkpt>
      <trkpt lat="45.37737" lon="6.12106">
        <ele>915.1204</ele>
        <time>2021-07-18T19:18:27</time>
      </trkpt>
      <trkpt lat="45.37736" lon="6.12104">
        <ele>915.1204</ele>
        <time>2021-07-18T19:18:29</time>
      </trkpt>
      <trkpt lat="45.37736" lon="6.12101">
        <ele>915.1204</ele>
        <time>2021-07-18T19:18:31</time>
      </trkpt>
      <trkpt lat="45.37737" lon="6.12099">
        <ele>915.1204</ele>
        <time>2021-07-18T19:18:32</time>
      </trkpt>
      <trkpt lat="45.37737" lon="6.12097">
        <ele>915.1204</ele>
        <time>2021-07-18T19:18:33</time>
      </trkpt>
      <trkpt lat="45.37739" lon="6.12095">
        <ele>915.1204</ele>
        <time>2021-07-18T19:18:34</time>
      </trkpt>
      <trkpt lat="45.37741" lon="6.12093">
        <ele>915.1204</ele>
        <time>2021-07-18T19:18:37</time>
      </trkpt>
      <trkpt lat="45.37743" lon="6.12087">
        <ele>915.1204</ele>
        <time>2021-07-18T19:18:40</time>
      </trkpt>
      <trkpt lat="45.37743" lon="6.12086">
        <ele>915.1204</ele>
        <time>2021-07-18T19:18:41</time>
      </trkpt>
      <trkpt lat="45.37743" lon="6.12085">
        <ele>915.1204</ele>
        <time>2021-07-18T19:18:42</time>
      </trkpt>
      <trkpt lat="45.37743" lon="6.12082">
        <ele>915.1204</ele>
        <time>2021-07-18T19:18:45</time>
      </trkpt>
      <trkpt lat="45.37743" lon="6.12081">
        <ele>915.1204</ele>
        <time>2021-07-18T19:18:46</time>
      </trkpt>
      <trkpt lat="45.37743" lon="6.12075">
        <ele>915.1204</ele>
        <time>2021-07-18T19:18:51</time>
      </trkpt>
      <trkpt lat="45.37743" lon="6.12074">
        <ele>915.1204</ele>
        <time>2021-07-18T19:18:52</time>
      </trkpt>
      <trkpt lat="45.37743" lon="6.12073">
        <ele>915.1204</ele>
        <time>2021-07-18T19:18:53</time>
      </trkpt>
      <trkpt lat="45.37744" lon="6.12071">
        <ele>915.1204</ele>
        <time>2021-07-18T19:18:54</time>
      </trkpt>
      <trkpt lat="45.37744" lon="6.12069">
        <ele>915.1204</ele>
        <time>2021-07-18T19:18:55</time>
      </trkpt>
      <trkpt lat="45.37744" lon="6.12066">
        <ele>915.1204</ele>
        <time>2021-07-18T19:18:57</time>
      </trkpt>
      <trkpt lat="45.37745" lon="6.12064">
        <ele>915.1204</ele>
        <time>2021-07-18T19:18:58</time>
      </trkpt>
      <trkpt lat="45.37748" lon="6.12051">
        <ele>915.1204</ele>
        <time>2021-07-18T19:19:07</time>
      </trkpt>
      <trkpt lat="45.37748" lon="6.12049">
        <ele>915.1204</ele>
        <time>2021-07-18T19:19:08</time>
      </trkpt>
      <trkpt lat="45.37747" lon="6.12048">
        <ele>915.1204</ele>
        <time>2021-07-18T19:19:09</time>
      </trkpt>
      <trkpt lat="45.37746" lon="6.12048">
        <ele>915.1204</ele>
        <time>2021-07-18T19:19:10</time>
      </trkpt>
      <trkpt lat="45.37745" lon="6.12047">
        <ele>915.1204</ele>
        <time>2021-07-18T19:19:11</time>
      </trkpt>
      <trkpt lat="45.37745" lon="6.12046">
        <ele>915.1204</ele>
        <time>2021-07-18T19:19:12</time>
      </trkpt>
      <trkpt lat="45.37744" lon="6.12045">
        <ele>915.1204</ele>
        <time>2021-07-18T19:19:13</time>
      </trkpt>
      <trkpt lat="45.37744" lon="6.12043">
        <ele>915.1204</ele>
        <time>2021-07-18T19:19:14</time>
      </trkpt>
      <trkpt lat="45.37744" lon="6.12041">
        <ele>915.1204</ele>
        <time>2021-07-18T19:19:15</time>
      </trkpt>
      <trkpt lat="45.37743" lon="6.12036">
        <ele>915.1204</ele>
        <time>2021-07-18T19:19:18</time>
      </trkpt>
      <trkpt lat="45.37743" lon="6.12033">
        <ele>915.1204</ele>
        <time>2021-07-18T19:19:20</time>
      </trkpt>
      <trkpt lat="45.37743" lon="6.12032">
        <ele>915.1204</ele>
        <time>2021-07-18T19:19:21</time>
      </trkpt>
      <trkpt lat="45.37743" lon="6.1203">
        <ele>915.1204</ele>
        <time>2021-07-18T19:19:22</time>
      </trkpt>
      <trkpt lat="45.37742" lon="6.12029">
        <ele>915.1204</ele>
        <time>2021-07-18T19:19:23</time>
      </trkpt>
      <trkpt lat="45.37741" lon="6.12028">
        <ele>915.1204</ele>
        <time>2021-07-18T19:19:24</time>
      </trkpt>
      <trkpt lat="45.37739" lon="6.12023">
        <ele>915.1204</ele>
        <time>2021-07-18T19:19:27</time>
      </trkpt>
      <trkpt lat="45.37737" lon="6.12007">
        <ele>915.1204</ele>
        <time>2021-07-18T19:19:39</time>
      </trkpt>
      <trkpt lat="45.37737" lon="6.12006">
        <ele>915.1204</ele>
        <time>2021-07-18T19:19:40</time>
      </trkpt>
      <trkpt lat="45.37738" lon="6.12004">
        <ele>915.1204</ele>
        <time>2021-07-18T19:19:41</time>
      </trkpt>
      <trkpt lat="45.37738" lon="6.12002">
        <ele>915.1204</ele>
        <time>2021-07-18T19:19:42</time>
      </trkpt>
      <trkpt lat="45.37739" lon="6.12">
        <ele>915.1204</ele>
        <time>2021-07-18T19:19:43</time>
      </trkpt>
      <trkpt lat="45.37739" lon="6.11998">
        <ele>915.1204</ele>
        <time>2021-07-18T19:19:44</time>
      </trkpt>
      <trkpt lat="45.37739" lon="6.11996">
        <ele>915.1204</ele>
        <time>2021-07-18T19:19:45</time>
      </trkpt>
      <trkpt lat="45.3774" lon="6.11991">
        <ele>915.1204</ele>
        <time>2021-07-18T19:19:48</time>
      </trkpt>
      <trkpt lat="45.37741" lon="6.11988">
        <ele>915.1204</ele>
        <time>2021-07-18T19:19:49</time>
      </trkpt>
      <trkpt lat="45.37744" lon="6.11985">
        <ele>915.1204</ele>
        <time>2021-07-18T19:19:50</time>
      </trkpt>
      <trkpt lat="45.37745" lon="6.11981">
        <ele>915.1204</ele>
        <time>2021-07-18T19:19:52</time>
      </trkpt>
      <trkpt lat="45.37746" lon="6.1198">
        <ele>915.1204</ele>
        <time>2021-07-18T19:19:53</time>
      </trkpt>
      <trkpt lat="45.37747" lon="6.11978">
        <ele>915.1204</ele>
        <time>2021-07-18T19:19:54</time>
      </trkpt>
      <trkpt lat="45.37747" lon="6.11976">
        <ele>915.1204</ele>
        <time>2021-07-18T19:19:55</time>
      </trkpt>
      <trkpt lat="45.37749" lon="6.11973">
        <ele>915.1204</ele>
        <time>2021-07-18T19:19:57</time>
      </trkpt>
      <trkpt lat="45.3775" lon="6.1197">
        <ele>915.1204</ele>
        <time>2021-07-18T19:19:59</time>
      </trkpt>
      <trkpt lat="45.3775" lon="6.11968">
        <ele>915.1204</ele>
        <time>2021-07-18T19:20:00</time>
      </trkpt>
      <trkpt lat="45.37751" lon="6.11966">
        <ele>915.1204</ele>
        <time>2021-07-18T19:20:01</time>
      </trkpt>
      <trkpt lat="45.37755" lon="6.11948">
        <ele>915.1204</ele>
        <time>2021-07-18T19:20:12</time>
      </trkpt>
      <trkpt lat="45.37758" lon="6.11943">
        <ele>915.1204</ele>
        <time>2021-07-18T19:20:15</time>
      </trkpt>
      <trkpt lat="45.37758" lon="6.11941">
        <ele>915.1204</ele>
        <time>2021-07-18T19:20:16</time>
      </trkpt>
      <trkpt lat="45.3776" lon="6.11934">
        <ele>915.1204</ele>
        <time>2021-07-18T19:20:19</time>
      </trkpt>
      <trkpt lat="45.37761" lon="6.1193">
        <ele>915.1204</ele>
        <time>2021-07-18T19:20:21</time>
      </trkpt>
      <trkpt lat="45.37763" lon="6.1192">
        <ele>915.1204</ele>
        <time>2021-07-18T19:20:28</time>
      </trkpt>
      <trkpt lat="45.37763" lon="6.11919">
        <ele>915.1204</ele>
        <time>2021-07-18T19:20:30</time>
      </trkpt>
      <trkpt lat="45.37764" lon="6.11916">
        <ele>915.1204</ele>
        <time>2021-07-18T19:20:32</time>
      </trkpt>
      <trkpt lat="45.37765" lon="6.11911">
        <ele>915.1204</ele>
        <time>2021-07-18T19:20:38</time>
      </trkpt>
      <trkpt lat="45.37765" lon="6.11909">
        <ele>915.1204</ele>
        <time>2021-07-18T19:20:39</time>
      </trkpt>
      <trkpt lat="45.37767" lon="6.11907">
        <ele>915.1204</ele>
        <time>2021-07-18T19:20:41</time>
      </trkpt>
      <trkpt lat="45.37767" lon="6.11906">
        <ele>915.1204</ele>
        <time>2021-07-18T19:20:42</time>
      </trkpt>
      <trkpt lat="45.37768" lon="6.11903">
        <ele>915.1204</ele>
        <time>2021-07-18T19:20:44</time>
      </trkpt>
      <trkpt lat="45.37768" lon="6.11902">
        <ele>915.1204</ele>
        <time>2021-07-18T19:20:45</time>
      </trkpt>
      <trkpt lat="45.37769" lon="6.11899">
        <ele>915.1204</ele>
        <time>2021-07-18T19:20:47</time>
      </trkpt>
      <trkpt lat="45.37769" lon="6.11896">
        <ele>915.1204</ele>
        <time>2021-07-18T19:20:49</time>
      </trkpt>
      <trkpt lat="45.37769" lon="6.11894">
        <ele>915.1204</ele>
        <time>2021-07-18T19:20:50</time>
      </trkpt>
      <trkpt lat="45.3777" lon="6.11893">
        <ele>915.1204</ele>
        <time>2021-07-18T19:20:51</time>
      </trkpt>
      <trkpt lat="45.37771" lon="6.11891">
        <ele>915.1204</ele>
        <time>2021-07-18T19:20:52</time>
      </trkpt>
      <trkpt lat="45.37771" lon="6.1189">
        <ele>915.1204</ele>
        <time>2021-07-18T19:20:53</time>
      </trkpt>
      <trkpt lat="45.37773" lon="6.11888">
        <ele>915.1204</ele>
        <time>2021-07-18T19:20:55</time>
      </trkpt>
      <trkpt lat="45.37773" lon="6.11888">
        <ele>915.1204</ele>
        <time>2021-07-18T19:20:56</time>
      </trkpt>
      <trkpt lat="45.37773" lon="6.11887">
        <ele>915.1204</ele>
        <time>2021-07-18T19:20:57</time>
      </trkpt>
      <trkpt lat="45.37775" lon="6.11884">
        <ele>915.1204</ele>
        <time>2021-07-18T19:21:00</time>
      </trkpt>
      <trkpt lat="45.37777" lon="6.11878">
        <ele>915.1204</ele>
        <time>2021-07-18T19:21:04</time>
      </trkpt>
      <trkpt lat="45.37778" lon="6.11874">
        <ele>915.1204</ele>
        <time>2021-07-18T19:21:06</time>
      </trkpt>
      <trkpt lat="45.37781" lon="6.11865">
        <ele>915.1204</ele>
        <time>2021-07-18T19:21:11</time>
      </trkpt>
      <trkpt lat="45.37789" lon="6.11852">
        <ele>915.1204</ele>
        <time>2021-07-18T19:21:23</time>
      </trkpt>
      <trkpt lat="45.37791" lon="6.1185">
        <ele>915.1204</ele>
        <time>2021-07-18T19:21:25</time>
      </trkpt>
      <trkpt lat="45.37793" lon="6.11847">
        <ele>915.1204</ele>
        <time>2021-07-18T19:21:28</time>
      </trkpt>
      <trkpt lat="45.37795" lon="6.11844">
        <ele>915.1204</ele>
        <time>2021-07-18T19:21:30</time>
      </trkpt>
      <trkpt lat="45.37796" lon="6.11842">
        <ele>915.1204</ele>
        <time>2021-07-18T19:21:32</time>
      </trkpt>
      <trkpt lat="45.37796" lon="6.1184">
        <ele>915.1204</ele>
        <time>2021-07-18T19:21:33</time>
      </trkpt>
      <trkpt lat="45.37798" lon="6.11831">
        <ele>915.1204</ele>
        <time>2021-07-18T19:21:39</time>
      </trkpt>
      <trkpt lat="45.37802" lon="6.11819">
        <ele>915.1204</ele>
        <time>2021-07-18T19:21:48</time>
      </trkpt>
      <trkpt lat="45.37805" lon="6.11801">
        <ele>915.1204</ele>
        <time>2021-07-18T19:22:02</time>
      </trkpt>
      <trkpt lat="45.37805" lon="6.118">
        <ele>915.1204</ele>
        <time>2021-07-18T19:22:03</time>
      </trkpt>
      <trkpt lat="45.37811" lon="6.1179">
        <ele>915.1204</ele>
        <time>2021-07-18T19:22:14</time>
      </trkpt>
      <trkpt lat="45.37816" lon="6.11786">
        <ele>915.1204</ele>
        <time>2021-07-18T19:22:22</time>
      </trkpt>
      <trkpt lat="45.3782" lon="6.11776">
        <ele>915.1204</ele>
        <time>2021-07-18T19:22:33</time>
      </trkpt>
      <trkpt lat="45.37821" lon="6.11772">
        <ele>915.1204</ele>
        <time>2021-07-18T19:22:36</time>
      </trkpt>
      <trkpt lat="45.37821" lon="6.11772">
        <ele>915.1204</ele>
        <time>2021-07-18T19:22:37</time>
      </trkpt>
      <trkpt lat="45.37821" lon="6.1177">
        <ele>915.1204</ele>
        <time>2021-07-18T19:22:39</time>
      </trkpt>
      <trkpt lat="45.37823" lon="6.11769">
        <ele>915.1204</ele>
        <time>2021-07-18T19:22:43</time>
      </trkpt>
      <trkpt lat="45.37823" lon="6.11769">
        <ele>915.1204</ele>
        <time>2021-07-18T19:22:45</time>
      </trkpt>
      <trkpt lat="45.37823" lon="6.11769">
        <ele>915.1204</ele>
        <time>2021-07-18T19:22:49</time>
      </trkpt>
      <trkpt lat="45.37824" lon="6.11765">
        <ele>915.1204</ele>
        <time>2021-07-18T19:22:52</time>
      </trkpt>
      <trkpt lat="45.37825" lon="6.1176">
        <ele>915.1204</ele>
        <time>2021-07-18T19:22:55</time>
      </trkpt>
      <trkpt lat="45.37825" lon="6.11756">
        <ele>915.1204</ele>
        <time>2021-07-18T19:22:57</time>
      </trkpt>
      <trkpt lat="45.37825" lon="6.11755">
        <ele>915.1204</ele>
        <time>2021-07-18T19:22:58</time>
      </trkpt>
      <trkpt lat="45.37826" lon="6.11754">
        <ele>915.1204</ele>
        <time>2021-07-18T19:23:00</time>
      </trkpt>
      <trkpt lat="45.37827" lon="6.11751">
        <ele>915.1204</ele>
        <time>2021-07-18T19:23:02</time>
      </trkpt>
      <trkpt lat="45.37828" lon="6.1175">
        <ele>915.1204</ele>
        <time>2021-07-18T19:23:03</time>
      </trkpt>
      <trkpt lat="45.37831" lon="6.11747">
        <ele>915.1204</ele>
        <time>2021-07-18T19:23:05</time>
      </trkpt>
      <trkpt lat="45.37833" lon="6.11745">
        <ele>807.22046</ele>
        <time>2021-07-18T19:23:07</time>
      </trkpt>
      <trkpt lat="45.37835" lon="6.1174">
        <ele>807.22046</ele>
        <time>2021-07-18T19:23:10</time>
      </trkpt>
      <trkpt lat="45.37836" lon="6.11738">
        <ele>807.22046</ele>
        <time>2021-07-18T19:23:11</time>
      </trkpt>
      <trkpt lat="45.37836" lon="6.11737">
        <ele>807.22046</ele>
        <time>2021-07-18T19:23:12</time>
      </trkpt>
      <trkpt lat="45.37835" lon="6.11737">
        <ele>807.22046</ele>
        <time>2021-07-18T19:23:13</time>
      </trkpt>
      <trkpt lat="45.37835" lon="6.11736">
        <ele>807.22046</ele>
        <time>2021-07-18T19:23:14</time>
      </trkpt>
      <trkpt lat="45.37835" lon="6.11736">
        <ele>807.22046</ele>
        <time>2021-07-18T19:23:15</time>
      </trkpt>
      <trkpt lat="45.37835" lon="6.11736">
        <ele>807.22046</ele>
        <time>2021-07-18T19:23:16</time>
      </trkpt>
      <trkpt lat="45.37837" lon="6.11733">
        <ele>807.22046</ele>
        <time>2021-07-18T19:23:18</time>
      </trkpt>
      <trkpt lat="45.37838" lon="6.1173">
        <ele>807.22046</ele>
        <time>2021-07-18T19:23:20</time>
      </trkpt>
      <trkpt lat="45.37839" lon="6.11727">
        <ele>807.22046</ele>
        <time>2021-07-18T19:23:22</time>
      </trkpt>
      <trkpt lat="45.37839" lon="6.11727">
        <ele>807.22046</ele>
        <time>2021-07-18T19:23:23</time>
      </trkpt>
      <trkpt lat="45.37839" lon="6.11725">
        <ele>807.22046</ele>
        <time>2021-07-18T19:23:24</time>
      </trkpt>
      <trkpt lat="45.3784" lon="6.11723">
        <ele>807.22046</ele>
        <time>2021-07-18T19:23:26</time>
      </trkpt>
      <trkpt lat="45.37841" lon="6.1172">
        <ele>807.22046</ele>
        <time>2021-07-18T19:23:28</time>
      </trkpt>
      <trkpt lat="45.37842" lon="6.11718">
        <ele>807.22046</ele>
        <time>2021-07-18T19:23:30</time>
      </trkpt>
      <trkpt lat="45.37844" lon="6.11714">
        <ele>807.22046</ele>
        <time>2021-07-18T19:23:39</time>
      </trkpt>
      <trkpt lat="45.37849" lon="6.11711">
        <ele>807.22046</ele>
        <time>2021-07-18T19:23:43</time>
      </trkpt>
      <trkpt lat="45.3785" lon="6.11709">
        <ele>807.22046</ele>
        <time>2021-07-18T19:23:44</time>
      </trkpt>
      <trkpt lat="45.37852" lon="6.11706">
        <ele>807.22046</ele>
        <time>2021-07-18T19:23:46</time>
      </trkpt>
      <trkpt lat="45.37855" lon="6.11703">
        <ele>807.22046</ele>
        <time>2021-07-18T19:23:49</time>
      </trkpt>
      <trkpt lat="45.37856" lon="6.11702">
        <ele>807.22046</ele>
        <time>2021-07-18T19:23:51</time>
      </trkpt>
      <trkpt lat="45.37857" lon="6.11699">
        <ele>807.22046</ele>
        <time>2021-07-18T19:23:53</time>
      </trkpt>
      <trkpt lat="45.37858" lon="6.11698">
        <ele>807.22046</ele>
        <time>2021-07-18T19:23:54</time>
      </trkpt>
      <trkpt lat="45.37858" lon="6.11697">
        <ele>807.22046</ele>
        <time>2021-07-18T19:23:55</time>
      </trkpt>
      <trkpt lat="45.37859" lon="6.11696">
        <ele>807.22046</ele>
        <time>2021-07-18T19:23:56</time>
      </trkpt>
      <trkpt lat="45.3786" lon="6.11692">
        <ele>807.22046</ele>
        <time>2021-07-18T19:23:58</time>
      </trkpt>
      <trkpt lat="45.37861" lon="6.11688">
        <ele>807.22046</ele>
        <time>2021-07-18T19:24:00</time>
      </trkpt>
      <trkpt lat="45.37862" lon="6.11686">
        <ele>807.22046</ele>
        <time>2021-07-18T19:24:03</time>
      </trkpt>
      <trkpt lat="45.37863" lon="6.11685">
        <ele>807.22046</ele>
        <time>2021-07-18T19:24:04</time>
      </trkpt>
      <trkpt lat="45.37863" lon="6.11685">
        <ele>807.22046</ele>
        <time>2021-07-18T19:24:05</time>
      </trkpt>
      <trkpt lat="45.37864" lon="6.11683">
        <ele>807.22046</ele>
        <time>2021-07-18T19:24:06</time>
      </trkpt>
      <trkpt lat="45.37867" lon="6.11675">
        <ele>807.22046</ele>
        <time>2021-07-18T19:24:12</time>
      </trkpt>
      <trkpt lat="45.37869" lon="6.11672">
        <ele>807.22046</ele>
        <time>2021-07-18T19:24:14</time>
      </trkpt>
      <trkpt lat="45.3787" lon="6.11671">
        <ele>807.22046</ele>
        <time>2021-07-18T19:24:15</time>
      </trkpt>
      <trkpt lat="45.37874" lon="6.11664">
        <ele>807.22046</ele>
        <time>2021-07-18T19:24:20</time>
      </trkpt>
      <trkpt lat="45.37876" lon="6.11659">
        <ele>807.22046</ele>
        <time>2021-07-18T19:24:23</time>
      </trkpt>
      <trkpt lat="45.3788" lon="6.11646">
        <ele>807.22046</ele>
        <time>2021-07-18T19:24:34</time>
      </trkpt>
      <trkpt lat="45.37884" lon="6.11633">
        <ele>807.22046</ele>
        <time>2021-07-18T19:24:43</time>
      </trkpt>
      <trkpt lat="45.37885" lon="6.11628">
        <ele>807.22046</ele>
        <time>2021-07-18T19:24:46</time>
      </trkpt>
      <trkpt lat="45.37886" lon="6.11625">
        <ele>807.22046</ele>
        <time>2021-07-18T19:24:48</time>
      </trkpt>
      <trkpt lat="45.37887" lon="6.11621">
        <ele>807.22046</ele>
        <time>2021-07-18T19:24:52</time>
      </trkpt>
      <trkpt lat="45.37887" lon="6.11622">
        <ele>807.22046</ele>
        <time>2021-07-18T19:24:56</time>
      </trkpt>
      <trkpt lat="45.37887" lon="6.11622">
        <ele>807.22046</ele>
        <time>2021-07-18T19:24:57</time>
      </trkpt>
      <trkpt lat="45.37887" lon="6.11621">
        <ele>807.22046</ele>
        <time>2021-07-18T19:24:58</time>
      </trkpt>
      <trkpt lat="45.37886" lon="6.11621">
        <ele>807.22046</ele>
        <time>2021-07-18T19:24:59</time>
      </trkpt>
      <trkpt lat="45.37886" lon="6.1162">
        <ele>807.22046</ele>
        <time>2021-07-18T19:25:02</time>
      </trkpt>
      <trkpt lat="45.37886" lon="6.11619">
        <ele>807.22046</ele>
        <time>2021-07-18T19:25:03</time>
      </trkpt>
      <trkpt lat="45.37886" lon="6.11615">
        <ele>807.22046</ele>
        <time>2021-07-18T19:25:06</time>
      </trkpt>
      <trkpt lat="45.37886" lon="6.11612">
        <ele>807.22046</ele>
        <time>2021-07-18T19:25:08</time>
      </trkpt>
      <trkpt lat="45.37886" lon="6.1161">
        <ele>807.22046</ele>
        <time>2021-07-18T19:25:09</time>
      </trkpt>
      <trkpt lat="45.37887" lon="6.11608">
        <ele>807.22046</ele>
        <time>2021-07-18T19:25:10</time>
      </trkpt>
      <trkpt lat="45.37887" lon="6.11606">
        <ele>807.22046</ele>
        <time>2021-07-18T19:25:11</time>
      </trkpt>
      <trkpt lat="45.37888" lon="6.11602">
        <ele>807.22046</ele>
        <time>2021-07-18T19:25:14</time>
      </trkpt>
      <trkpt lat="45.3789" lon="6.11597">
        <ele>807.22046</ele>
        <time>2021-07-18T19:25:17</time>
      </trkpt>
      <trkpt lat="45.3789" lon="6.11595">
        <ele>807.22046</ele>
        <time>2021-07-18T19:25:18</time>
      </trkpt>
      <trkpt lat="45.37891" lon="6.11585">
        <ele>807.22046</ele>
        <time>2021-07-18T19:25:26</time>
      </trkpt>
      <trkpt lat="45.37892" lon="6.11583">
        <ele>807.22046</ele>
        <time>2021-07-18T19:25:29</time>
      </trkpt>
      <trkpt lat="45.37895" lon="6.11573">
        <ele>807.22046</ele>
        <time>2021-07-18T19:25:37</time>
      </trkpt>
      <trkpt lat="45.37895" lon="6.1157">
        <ele>807.22046</ele>
        <time>2021-07-18T19:25:38</time>
      </trkpt>
      <trkpt lat="45.37896" lon="6.11565">
        <ele>807.22046</ele>
        <time>2021-07-18T19:25:41</time>
      </trkpt>
      <trkpt lat="45.37896" lon="6.11561">
        <ele>807.22046</ele>
        <time>2021-07-18T19:25:44</time>
      </trkpt>
      <trkpt lat="45.37897" lon="6.1155">
        <ele>807.22046</ele>
        <time>2021-07-18T19:25:52</time>
      </trkpt>
      <trkpt lat="45.37897" lon="6.11548">
        <ele>807.22046</ele>
        <time>2021-07-18T19:25:54</time>
      </trkpt>
      <trkpt lat="45.37897" lon="6.11546">
        <ele>807.22046</ele>
        <time>2021-07-18T19:25:56</time>
      </trkpt>
      <trkpt lat="45.37897" lon="6.11545">
        <ele>807.22046</ele>
        <time>2021-07-18T19:25:57</time>
      </trkpt>
      <trkpt lat="45.37896" lon="6.11541">
        <ele>807.22046</ele>
        <time>2021-07-18T19:26:00</time>
      </trkpt>
      <trkpt lat="45.37897" lon="6.1154">
        <ele>807.22046</ele>
        <time>2021-07-18T19:26:02</time>
      </trkpt>
      <trkpt lat="45.37897" lon="6.11539">
        <ele>807.22046</ele>
        <time>2021-07-18T19:26:03</time>
      </trkpt>
      <trkpt lat="45.37898" lon="6.11535">
        <ele>807.22046</ele>
        <time>2021-07-18T19:26:06</time>
      </trkpt>
      <trkpt lat="45.37896" lon="6.11531">
        <ele>807.22046</ele>
        <time>2021-07-18T19:26:10</time>
      </trkpt>
      <trkpt lat="45.37895" lon="6.11524">
        <ele>807.22046</ele>
        <time>2021-07-18T19:26:15</time>
      </trkpt>
      <trkpt lat="45.37895" lon="6.11523">
        <ele>807.22046</ele>
        <time>2021-07-18T19:26:16</time>
      </trkpt>
      <trkpt lat="45.37896" lon="6.11521">
        <ele>807.22046</ele>
        <time>2021-07-18T19:26:17</time>
      </trkpt>
      <trkpt lat="45.37898" lon="6.11521">
        <ele>807.22046</ele>
        <time>2021-07-18T19:26:18</time>
      </trkpt>
      <trkpt lat="45.37899" lon="6.1152">
        <ele>807.22046</ele>
        <time>2021-07-18T19:26:23</time>
      </trkpt>
      <trkpt lat="45.37899" lon="6.1152">
        <ele>807.22046</ele>
        <time>2021-07-18T19:26:24</time>
      </trkpt>
      <trkpt lat="45.37899" lon="6.11519">
        <ele>807.22046</ele>
        <time>2021-07-18T19:26:25</time>
      </trkpt>
      <trkpt lat="45.37899" lon="6.11517">
        <ele>807.22046</ele>
        <time>2021-07-18T19:26:26</time>
      </trkpt>
      <trkpt lat="45.379" lon="6.11516">
        <ele>807.22046</ele>
        <time>2021-07-18T19:26:27</time>
      </trkpt>
      <trkpt lat="45.37904" lon="6.11501">
        <ele>807.22046</ele>
        <time>2021-07-18T19:26:35</time>
      </trkpt>
      <trkpt lat="45.37906" lon="6.11489">
        <ele>807.22046</ele>
        <time>2021-07-18T19:26:40</time>
      </trkpt>
      <trkpt lat="45.37907" lon="6.11487">
        <ele>807.22046</ele>
        <time>2021-07-18T19:26:41</time>
      </trkpt>
      <trkpt lat="45.37909" lon="6.11483">
        <ele>807.22046</ele>
        <time>2021-07-18T19:26:43</time>
      </trkpt>
      <trkpt lat="45.3791" lon="6.11479">
        <ele>807.22046</ele>
        <time>2021-07-18T19:26:45</time>
      </trkpt>
      <trkpt lat="45.3791" lon="6.11478">
        <ele>807.22046</ele>
        <time>2021-07-18T19:26:46</time>
      </trkpt>
      <trkpt lat="45.37911" lon="6.11476">
        <ele>807.22046</ele>
        <time>2021-07-18T19:26:47</time>
      </trkpt>
      <trkpt lat="45.37912" lon="6.1147">
        <ele>807.22046</ele>
        <time>2021-07-18T19:26:51</time>
      </trkpt>
      <trkpt lat="45.37912" lon="6.11468">
        <ele>807.22046</ele>
        <time>2021-07-18T19:26:52</time>
      </trkpt>
      <trkpt lat="45.37913" lon="6.11464">
        <ele>807.22046</ele>
        <time>2021-07-18T19:26:56</time>
      </trkpt>
      <trkpt lat="45.37913" lon="6.11463">
        <ele>807.22046</ele>
        <time>2021-07-18T19:26:57</time>
      </trkpt>
      <trkpt lat="45.37913" lon="6.11461">
        <ele>807.22046</ele>
        <time>2021-07-18T19:26:59</time>
      </trkpt>
      <trkpt lat="45.37913" lon="6.11461">
        <ele>807.22046</ele>
        <time>2021-07-18T19:27:00</time>
      </trkpt>
      <trkpt lat="45.37914" lon="6.1146">
        <ele>807.22046</ele>
        <time>2021-07-18T19:27:01</time>
      </trkpt>
      <trkpt lat="45.37914" lon="6.1146">
        <ele>807.22046</ele>
        <time>2021-07-18T19:27:02</time>
      </trkpt>
      <trkpt lat="45.37914" lon="6.11459">
        <ele>807.22046</ele>
        <time>2021-07-18T19:27:03</time>
      </trkpt>
      <trkpt lat="45.37914" lon="6.11456">
        <ele>807.22046</ele>
        <time>2021-07-18T19:27:05</time>
      </trkpt>
      <trkpt lat="45.37914" lon="6.11455">
        <ele>807.22046</ele>
        <time>2021-07-18T19:27:06</time>
      </trkpt>
      <trkpt lat="45.37914" lon="6.11453">
        <ele>807.22046</ele>
        <time>2021-07-18T19:27:07</time>
      </trkpt>
      <trkpt lat="45.37914" lon="6.11451">
        <ele>807.22046</ele>
        <time>2021-07-18T19:27:09</time>
      </trkpt>
      <trkpt lat="45.37915" lon="6.11447">
        <ele>807.22046</ele>
        <time>2021-07-18T19:27:11</time>
      </trkpt>
      <trkpt lat="45.37917" lon="6.11443">
        <ele>807.22046</ele>
        <time>2021-07-18T19:27:13</time>
      </trkpt>
      <trkpt lat="45.37919" lon="6.11439">
        <ele>807.22046</ele>
        <time>2021-07-18T19:27:15</time>
      </trkpt>
      <trkpt lat="45.3792" lon="6.11437">
        <ele>807.22046</ele>
        <time>2021-07-18T19:27:16</time>
      </trkpt>
      <trkpt lat="45.37922" lon="6.11432">
        <ele>807.22046</ele>
        <time>2021-07-18T19:27:19</time>
      </trkpt>
      <trkpt lat="45.37922" lon="6.11431">
        <ele>807.22046</ele>
        <time>2021-07-18T19:27:20</time>
      </trkpt>
      <trkpt lat="45.37922" lon="6.1143">
        <ele>807.22046</ele>
        <time>2021-07-18T19:27:21</time>
      </trkpt>
      <trkpt lat="45.37922" lon="6.11428">
        <ele>807.22046</ele>
        <time>2021-07-18T19:27:22</time>
      </trkpt>
      <trkpt lat="45.37922" lon="6.11424">
        <ele>807.22046</ele>
        <time>2021-07-18T19:27:25</time>
      </trkpt>
      <trkpt lat="45.37922" lon="6.11422">
        <ele>807.22046</ele>
        <time>2021-07-18T19:27:26</time>
      </trkpt>
      <trkpt lat="45.37923" lon="6.11418">
        <ele>807.22046</ele>
        <time>2021-07-18T19:27:28</time>
      </trkpt>
      <trkpt lat="45.37923" lon="6.11413">
        <ele>807.22046</ele>
        <time>2021-07-18T19:27:31</time>
      </trkpt>
      <trkpt lat="45.37923" lon="6.11412">
        <ele>807.22046</ele>
        <time>2021-07-18T19:27:32</time>
      </trkpt>
      <trkpt lat="45.37922" lon="6.11404">
        <ele>807.22046</ele>
        <time>2021-07-18T19:27:39</time>
      </trkpt>
      <trkpt lat="45.37922" lon="6.11403">
        <ele>807.22046</ele>
        <time>2021-07-18T19:27:40</time>
      </trkpt>
      <trkpt lat="45.37921" lon="6.11401">
        <ele>807.22046</ele>
        <time>2021-07-18T19:27:42</time>
      </trkpt>
      <trkpt lat="45.37922" lon="6.11398">
        <ele>807.22046</ele>
        <time>2021-07-18T19:27:44</time>
      </trkpt>
      <trkpt lat="45.37923" lon="6.11394">
        <ele>807.22046</ele>
        <time>2021-07-18T19:27:47</time>
      </trkpt>
      <trkpt lat="45.37924" lon="6.11393">
        <ele>807.22046</ele>
        <time>2021-07-18T19:27:49</time>
      </trkpt>
      <trkpt lat="45.37925" lon="6.11389">
        <ele>807.22046</ele>
        <time>2021-07-18T19:27:52</time>
      </trkpt>
      <trkpt lat="45.37926" lon="6.11388">
        <ele>807.22046</ele>
        <time>2021-07-18T19:27:53</time>
      </trkpt>
      <trkpt lat="45.37926" lon="6.11387">
        <ele>807.22046</ele>
        <time>2021-07-18T19:27:54</time>
      </trkpt>
      <trkpt lat="45.37926" lon="6.11386">
        <ele>807.22046</ele>
        <time>2021-07-18T19:27:55</time>
      </trkpt>
      <trkpt lat="45.37926" lon="6.11385">
        <ele>807.22046</ele>
        <time>2021-07-18T19:27:56</time>
      </trkpt>
      <trkpt lat="45.37927" lon="6.11383">
        <ele>807.22046</ele>
        <time>2021-07-18T19:27:57</time>
      </trkpt>
      <trkpt lat="45.37929" lon="6.11379">
        <ele>807.22046</ele>
        <time>2021-07-18T19:27:59</time>
      </trkpt>
      <trkpt lat="45.3793" lon="6.11377">
        <ele>807.22046</ele>
        <time>2021-07-18T19:28:00</time>
      </trkpt>
      <trkpt lat="45.37931" lon="6.11375">
        <ele>807.22046</ele>
        <time>2021-07-18T19:28:01</time>
      </trkpt>
      <trkpt lat="45.37933" lon="6.11372">
        <ele>807.22046</ele>
        <time>2021-07-18T19:28:04</time>
      </trkpt>
      <trkpt lat="45.37934" lon="6.11368">
        <ele>807.22046</ele>
        <time>2021-07-18T19:28:06</time>
      </trkpt>
      <trkpt lat="45.37935" lon="6.11364">
        <ele>807.22046</ele>
        <time>2021-07-18T19:28:08</time>
      </trkpt>
      <trkpt lat="45.37936" lon="6.11363">
        <ele>807.22046</ele>
        <time>2021-07-18T19:28:09</time>
      </trkpt>
      <trkpt lat="45.37938" lon="6.11359">
        <ele>807.22046</ele>
        <time>2021-07-18T19:28:11</time>
      </trkpt>
      <trkpt lat="45.37939" lon="6.11356">
        <ele>807.22046</ele>
        <time>2021-07-18T19:28:13</time>
      </trkpt>
      <trkpt lat="45.37939" lon="6.11354">
        <ele>807.22046</ele>
        <time>2021-07-18T19:28:16</time>
      </trkpt>
      <trkpt lat="45.37939" lon="6.11352">
        <ele>807.22046</ele>
        <time>2021-07-18T19:28:22</time>
      </trkpt>
      <trkpt lat="45.3794" lon="6.11351">
        <ele>807.22046</ele>
        <time>2021-07-18T19:28:24</time>
      </trkpt>
      <trkpt lat="45.3794" lon="6.11346">
        <ele>807.22046</ele>
        <time>2021-07-18T19:28:27</time>
      </trkpt>
      <trkpt lat="45.3794" lon="6.11344">
        <ele>807.22046</ele>
        <time>2021-07-18T19:28:28</time>
      </trkpt>
      <trkpt lat="45.3794" lon="6.11341">
        <ele>807.22046</ele>
        <time>2021-07-18T19:28:30</time>
      </trkpt>
      <trkpt lat="45.3794" lon="6.11339">
        <ele>807.22046</ele>
        <time>2021-07-18T19:28:31</time>
      </trkpt>
      <trkpt lat="45.3794" lon="6.11337">
        <ele>807.22046</ele>
        <time>2021-07-18T19:28:32</time>
      </trkpt>
      <trkpt lat="45.37941" lon="6.11335">
        <ele>807.22046</ele>
        <time>2021-07-18T19:28:34</time>
      </trkpt>
      <trkpt lat="45.3794" lon="6.11334">
        <ele>807.22046</ele>
        <time>2021-07-18T19:28:35</time>
      </trkpt>
      <trkpt lat="45.3794" lon="6.11334">
        <ele>807.22046</ele>
        <time>2021-07-18T19:28:36</time>
      </trkpt>
      <trkpt lat="45.3794" lon="6.11333">
        <ele>807.22046</ele>
        <time>2021-07-18T19:28:37</time>
      </trkpt>
      <trkpt lat="45.37939" lon="6.11331">
        <ele>807.22046</ele>
        <time>2021-07-18T19:28:39</time>
      </trkpt>
      <trkpt lat="45.37939" lon="6.1133">
        <ele>807.22046</ele>
        <time>2021-07-18T19:28:40</time>
      </trkpt>
      <trkpt lat="45.37939" lon="6.11329">
        <ele>807.22046</ele>
        <time>2021-07-18T19:28:41</time>
      </trkpt>
      <trkpt lat="45.37939" lon="6.11327">
        <ele>807.22046</ele>
        <time>2021-07-18T19:28:43</time>
      </trkpt>
      <trkpt lat="45.37939" lon="6.11326">
        <ele>807.22046</ele>
        <time>2021-07-18T19:28:44</time>
      </trkpt>
      <trkpt lat="45.37939" lon="6.11325">
        <ele>807.22046</ele>
        <time>2021-07-18T19:28:45</time>
      </trkpt>
      <trkpt lat="45.37938" lon="6.11324">
        <ele>807.22046</ele>
        <time>2021-07-18T19:28:46</time>
      </trkpt>
      <trkpt lat="45.37938" lon="6.11321">
        <ele>807.22046</ele>
        <time>2021-07-18T19:28:47</time>
      </trkpt>
      <trkpt lat="45.37939" lon="6.1132">
        <ele>807.22046</ele>
        <time>2021-07-18T19:28:48</time>
      </trkpt>
      <trkpt lat="45.37939" lon="6.11318">
        <ele>807.22046</ele>
        <time>2021-07-18T19:28:49</time>
      </trkpt>
      <trkpt lat="45.3794" lon="6.11316">
        <ele>807.22046</ele>
        <time>2021-07-18T19:28:50</time>
      </trkpt>
      <trkpt lat="45.37941" lon="6.11314">
        <ele>807.22046</ele>
        <time>2021-07-18T19:28:51</time>
      </trkpt>
      <trkpt lat="45.37942" lon="6.11312">
        <ele>807.22046</ele>
        <time>2021-07-18T19:28:52</time>
      </trkpt>
      <trkpt lat="45.37945" lon="6.11307">
        <ele>807.22046</ele>
        <time>2021-07-18T19:28:55</time>
      </trkpt>
      <trkpt lat="45.37946" lon="6.11306">
        <ele>807.22046</ele>
        <time>2021-07-18T19:28:56</time>
      </trkpt>
      <trkpt lat="45.37949" lon="6.113">
        <ele>807.22046</ele>
        <time>2021-07-18T19:29:00</time>
      </trkpt>
      <trkpt lat="45.37949" lon="6.11299">
        <ele>807.22046</ele>
        <time>2021-07-18T19:29:01</time>
      </trkpt>
      <trkpt lat="45.37949" lon="6.11297">
        <ele>807.22046</ele>
        <time>2021-07-18T19:29:02</time>
      </trkpt>
      <trkpt lat="45.37949" lon="6.11295">
        <ele>807.22046</ele>
        <time>2021-07-18T19:29:03</time>
      </trkpt>
      <trkpt lat="45.37949" lon="6.11294">
        <ele>807.22046</ele>
        <time>2021-07-18T19:29:04</time>
      </trkpt>
      <trkpt lat="45.3795" lon="6.11292">
        <ele>807.22046</ele>
        <time>2021-07-18T19:29:05</time>
      </trkpt>
      <trkpt lat="45.37953" lon="6.11276">
        <ele>807.22046</ele>
        <time>2021-07-18T19:29:13</time>
      </trkpt>
      <trkpt lat="45.37955" lon="6.11273">
        <ele>807.22046</ele>
        <time>2021-07-18T19:29:15</time>
      </trkpt>
      <trkpt lat="45.37956" lon="6.11269">
        <ele>807.22046</ele>
        <time>2021-07-18T19:29:17</time>
      </trkpt>
      <trkpt lat="45.37962" lon="6.11246">
        <ele>807.22046</ele>
        <time>2021-07-18T19:29:33</time>
      </trkpt>
      <trkpt lat="45.37965" lon="6.11239">
        <ele>807.22046</ele>
        <time>2021-07-18T19:29:38</time>
      </trkpt>
      <trkpt lat="45.37967" lon="6.11237">
        <ele>807.22046</ele>
        <time>2021-07-18T19:29:40</time>
      </trkpt>
      <trkpt lat="45.37968" lon="6.11233">
        <ele>807.22046</ele>
        <time>2021-07-18T19:29:43</time>
      </trkpt>
      <trkpt lat="45.37968" lon="6.11233">
        <ele>807.22046</ele>
        <time>2021-07-18T19:29:48</time>
      </trkpt>
      <trkpt lat="45.37969" lon="6.11231">
        <ele>807.22046</ele>
        <time>2021-07-18T19:29:50</time>
      </trkpt>
      <trkpt lat="45.3797" lon="6.1123">
        <ele>807.22046</ele>
        <time>2021-07-18T19:29:51</time>
      </trkpt>
      <trkpt lat="45.37971" lon="6.11229">
        <ele>807.22046</ele>
        <time>2021-07-18T19:29:53</time>
      </trkpt>
      <trkpt lat="45.37972" lon="6.11228">
        <ele>807.22046</ele>
        <time>2021-07-18T19:29:54</time>
      </trkpt>
      <trkpt lat="45.37974" lon="6.1122">
        <ele>807.22046</ele>
        <time>2021-07-18T19:29:59</time>
      </trkpt>
      <trkpt lat="45.37976" lon="6.11215">
        <ele>807.22046</ele>
        <time>2021-07-18T19:30:02</time>
      </trkpt>
      <trkpt lat="45.37976" lon="6.11214">
        <ele>807.22046</ele>
        <time>2021-07-18T19:30:03</time>
      </trkpt>
      <trkpt lat="45.37977" lon="6.11208">
        <ele>807.22046</ele>
        <time>2021-07-18T19:30:07</time>
      </trkpt>
      <trkpt lat="45.37977" lon="6.11207">
        <ele>807.22046</ele>
        <time>2021-07-18T19:30:08</time>
      </trkpt>
      <trkpt lat="45.37978" lon="6.11204">
        <ele>807.22046</ele>
        <time>2021-07-18T19:30:10</time>
      </trkpt>
      <trkpt lat="45.37979" lon="6.11202">
        <ele>807.22046</ele>
        <time>2021-07-18T19:30:11</time>
      </trkpt>
      <trkpt lat="45.3798" lon="6.11196">
        <ele>807.22046</ele>
        <time>2021-07-18T19:30:15</time>
      </trkpt>
      <trkpt lat="45.3798" lon="6.11194">
        <ele>807.22046</ele>
        <time>2021-07-18T19:30:17</time>
      </trkpt>
      <trkpt lat="45.37982" lon="6.11191">
        <ele>807.22046</ele>
        <time>2021-07-18T19:30:19</time>
      </trkpt>
      <trkpt lat="45.37989" lon="6.11177">
        <ele>807.22046</ele>
        <time>2021-07-18T19:30:31</time>
      </trkpt>
      <trkpt lat="45.37991" lon="6.11172">
        <ele>807.22046</ele>
        <time>2021-07-18T19:30:34</time>
      </trkpt>
      <trkpt lat="45.37994" lon="6.11166">
        <ele>807.22046</ele>
        <time>2021-07-18T19:30:38</time>
      </trkpt>
      <trkpt lat="45.37995" lon="6.11165">
        <ele>807.22046</ele>
        <time>2021-07-18T19:30:39</time>
      </trkpt>
      <trkpt lat="45.37997" lon="6.11162">
        <ele>807.22046</ele>
        <time>2021-07-18T19:30:41</time>
      </trkpt>
      <trkpt lat="45.37998" lon="6.11161">
        <ele>807.22046</ele>
        <time>2021-07-18T19:30:42</time>
      </trkpt>
      <trkpt lat="45.37999" lon="6.11157">
        <ele>807.22046</ele>
        <time>2021-07-18T19:30:45</time>
      </trkpt>
      <trkpt lat="45.38" lon="6.11155">
        <ele>807.22046</ele>
        <time>2021-07-18T19:30:47</time>
      </trkpt>
      <trkpt lat="45.38" lon="6.11155">
        <ele>807.22046</ele>
        <time>2021-07-18T19:30:48</time>
      </trkpt>
      <trkpt lat="45.37999" lon="6.11154">
        <ele>807.22046</ele>
        <time>2021-07-18T19:30:49</time>
      </trkpt>
      <trkpt lat="45.37998" lon="6.11154">
        <ele>807.22046</ele>
        <time>2021-07-18T19:30:50</time>
      </trkpt>
      <trkpt lat="45.37995" lon="6.11154">
        <ele>807.22046</ele>
        <time>2021-07-18T19:30:52</time>
      </trkpt>
      <trkpt lat="45.37995" lon="6.11153">
        <ele>807.22046</ele>
        <time>2021-07-18T19:30:57</time>
      </trkpt>
      <trkpt lat="45.37995" lon="6.11152">
        <ele>807.22046</ele>
        <time>2021-07-18T19:30:58</time>
      </trkpt>
      <trkpt lat="45.37999" lon="6.11146">
        <ele>807.22046</ele>
        <time>2021-07-18T19:31:03</time>
      </trkpt>
      <trkpt lat="45.38002" lon="6.11144">
        <ele>807.22046</ele>
        <time>2021-07-18T19:31:06</time>
      </trkpt>
      <trkpt lat="45.38003" lon="6.11142">
        <ele>807.22046</ele>
        <time>2021-07-18T19:31:07</time>
      </trkpt>
      <trkpt lat="45.38003" lon="6.11141">
        <ele>807.22046</ele>
        <time>2021-07-18T19:31:08</time>
      </trkpt>
      <trkpt lat="45.3801" lon="6.11118">
        <ele>807.22046</ele>
        <time>2021-07-18T19:31:20</time>
      </trkpt>
      <trkpt lat="45.3801" lon="6.11116">
        <ele>807.22046</ele>
        <time>2021-07-18T19:31:21</time>
      </trkpt>
      <trkpt lat="45.38011" lon="6.11114">
        <ele>807.22046</ele>
        <time>2021-07-18T19:31:25</time>
      </trkpt>
      <trkpt lat="45.38011" lon="6.11113">
        <ele>807.22046</ele>
        <time>2021-07-18T19:31:26</time>
      </trkpt>
      <trkpt lat="45.38012" lon="6.11108">
        <ele>807.22046</ele>
        <time>2021-07-18T19:31:29</time>
      </trkpt>
      <trkpt lat="45.38013" lon="6.11106">
        <ele>807.22046</ele>
        <time>2021-07-18T19:31:31</time>
      </trkpt>
      <trkpt lat="45.38014" lon="6.11105">
        <ele>807.22046</ele>
        <time>2021-07-18T19:31:32</time>
      </trkpt>
      <trkpt lat="45.38015" lon="6.11104">
        <ele>807.22046</ele>
        <time>2021-07-18T19:31:33</time>
      </trkpt>
      <trkpt lat="45.38016" lon="6.11101">
        <ele>807.22046</ele>
        <time>2021-07-18T19:31:36</time>
      </trkpt>
      <trkpt lat="45.38016" lon="6.111">
        <ele>807.22046</ele>
        <time>2021-07-18T19:31:37</time>
      </trkpt>
      <trkpt lat="45.38017" lon="6.11097">
        <ele>807.22046</ele>
        <time>2021-07-18T19:31:39</time>
      </trkpt>
      <trkpt lat="45.38017" lon="6.11096">
        <ele>807.22046</ele>
        <time>2021-07-18T19:31:40</time>
      </trkpt>
      <trkpt lat="45.38016" lon="6.11091">
        <ele>807.22046</ele>
        <time>2021-07-18T19:31:43</time>
      </trkpt>
      <trkpt lat="45.38016" lon="6.1109">
        <ele>807.22046</ele>
        <time>2021-07-18T19:31:44</time>
      </trkpt>
      <trkpt lat="45.38017" lon="6.11087">
        <ele>807.22046</ele>
        <time>2021-07-18T19:31:46</time>
      </trkpt>
      <trkpt lat="45.38018" lon="6.11084">
        <ele>807.22046</ele>
        <time>2021-07-18T19:31:48</time>
      </trkpt>
      <trkpt lat="45.38018" lon="6.11084">
        <ele>807.22046</ele>
        <time>2021-07-18T19:31:49</time>
      </trkpt>
      <trkpt lat="45.38019" lon="6.11081">
        <ele>807.22046</ele>
        <time>2021-07-18T19:31:52</time>
      </trkpt>
      <trkpt lat="45.38019" lon="6.1108">
        <ele>807.22046</ele>
        <time>2021-07-18T19:31:53</time>
      </trkpt>
      <trkpt lat="45.38021" lon="6.1107">
        <ele>807.22046</ele>
        <time>2021-07-18T19:31:59</time>
      </trkpt>
      <trkpt lat="45.38024" lon="6.11057">
        <ele>807.22046</ele>
        <time>2021-07-18T19:32:08</time>
      </trkpt>
      <trkpt lat="45.38025" lon="6.11051">
        <ele>807.22046</ele>
        <time>2021-07-18T19:32:13</time>
      </trkpt>
      <trkpt lat="45.38025" lon="6.1105">
        <ele>807.22046</ele>
        <time>2021-07-18T19:32:14</time>
      </trkpt>
      <trkpt lat="45.38026" lon="6.11047">
        <ele>807.22046</ele>
        <time>2021-07-18T19:32:16</time>
      </trkpt>
      <trkpt lat="45.38029" lon="6.11041">
        <ele>807.22046</ele>
        <time>2021-07-18T19:32:20</time>
      </trkpt>
      <trkpt lat="45.38031" lon="6.11037">
        <ele>807.22046</ele>
        <time>2021-07-18T19:32:23</time>
      </trkpt>
      <trkpt lat="45.38031" lon="6.11036">
        <ele>807.22046</ele>
        <time>2021-07-18T19:32:24</time>
      </trkpt>
      <trkpt lat="45.38032" lon="6.11035">
        <ele>807.22046</ele>
        <time>2021-07-18T19:32:25</time>
      </trkpt>
      <trkpt lat="45.38032" lon="6.11034">
        <ele>807.22046</ele>
        <time>2021-07-18T19:32:26</time>
      </trkpt>
      <trkpt lat="45.38034" lon="6.11032">
        <ele>807.22046</ele>
        <time>2021-07-18T19:32:28</time>
      </trkpt>
      <trkpt lat="45.38036" lon="6.11028">
        <ele>807.22046</ele>
        <time>2021-07-18T19:32:31</time>
      </trkpt>
      <trkpt lat="45.38036" lon="6.11026">
        <ele>807.22046</ele>
        <time>2021-07-18T19:32:32</time>
      </trkpt>
      <trkpt lat="45.38037" lon="6.11024">
        <ele>807.22046</ele>
        <time>2021-07-18T19:32:34</time>
      </trkpt>
      <trkpt lat="45.3804" lon="6.11008">
        <ele>807.22046</ele>
        <time>2021-07-18T19:32:48</time>
      </trkpt>
      <trkpt lat="45.38041" lon="6.11007">
        <ele>807.22046</ele>
        <time>2021-07-18T19:32:49</time>
      </trkpt>
      <trkpt lat="45.38041" lon="6.11006">
        <ele>807.22046</ele>
        <time>2021-07-18T19:32:50</time>
      </trkpt>
      <trkpt lat="45.38041" lon="6.11003">
        <ele>807.22046</ele>
        <time>2021-07-18T19:32:52</time>
      </trkpt>
      <trkpt lat="45.38043" lon="6.11">
        <ele>807.22046</ele>
        <time>2021-07-18T19:32:54</time>
      </trkpt>
      <trkpt lat="45.38046" lon="6.10989">
        <ele>807.22046</ele>
        <time>2021-07-18T19:33:05</time>
      </trkpt>
      <trkpt lat="45.38047" lon="6.10988">
        <ele>807.22046</ele>
        <time>2021-07-18T19:33:09</time>
      </trkpt>
      <trkpt lat="45.38047" lon="6.10987">
        <ele>807.22046</ele>
        <time>2021-07-18T19:33:10</time>
      </trkpt>
      <trkpt lat="45.38049" lon="6.10979">
        <ele>807.22046</ele>
        <time>2021-07-18T19:33:15</time>
      </trkpt>
      <trkpt lat="45.3805" lon="6.10979">
        <ele>807.22046</ele>
        <time>2021-07-18T19:33:16</time>
      </trkpt>
      <trkpt lat="45.3805" lon="6.10977">
        <ele>807.22046</ele>
        <time>2021-07-18T19:33:17</time>
      </trkpt>
      <trkpt lat="45.38051" lon="6.10974">
        <ele>807.22046</ele>
        <time>2021-07-18T19:33:19</time>
      </trkpt>
      <trkpt lat="45.38051" lon="6.10972">
        <ele>807.22046</ele>
        <time>2021-07-18T19:33:20</time>
      </trkpt>
      <trkpt lat="45.38051" lon="6.10969">
        <ele>807.22046</ele>
        <time>2021-07-18T19:33:22</time>
      </trkpt>
      <trkpt lat="45.38054" lon="6.10952">
        <ele>807.22046</ele>
        <time>2021-07-18T19:33:31</time>
      </trkpt>
      <trkpt lat="45.38056" lon="6.10949">
        <ele>807.22046</ele>
        <time>2021-07-18T19:33:33</time>
      </trkpt>
      <trkpt lat="45.38057" lon="6.10947">
        <ele>807.22046</ele>
        <time>2021-07-18T19:33:35</time>
      </trkpt>
      <trkpt lat="45.38057" lon="6.10945">
        <ele>807.22046</ele>
        <time>2021-07-18T19:33:36</time>
      </trkpt>
      <trkpt lat="45.38061" lon="6.10934">
        <ele>807.22046</ele>
        <time>2021-07-18T19:33:46</time>
      </trkpt>
      <trkpt lat="45.38061" lon="6.10933">
        <ele>807.22046</ele>
        <time>2021-07-18T19:33:47</time>
      </trkpt>
      <trkpt lat="45.38061" lon="6.10931">
        <ele>807.22046</ele>
        <time>2021-07-18T19:33:48</time>
      </trkpt>
      <trkpt lat="45.38062" lon="6.10923">
        <ele>807.22046</ele>
        <time>2021-07-18T19:33:54</time>
      </trkpt>
      <trkpt lat="45.38062" lon="6.10921">
        <ele>807.22046</ele>
        <time>2021-07-18T19:33:55</time>
      </trkpt>
      <trkpt lat="45.38065" lon="6.10913">
        <ele>807.22046</ele>
        <time>2021-07-18T19:34:02</time>
      </trkpt>
      <trkpt lat="45.38067" lon="6.1091">
        <ele>807.22046</ele>
        <time>2021-07-18T19:34:05</time>
      </trkpt>
      <trkpt lat="45.38068" lon="6.10908">
        <ele>807.22046</ele>
        <time>2021-07-18T19:34:06</time>
      </trkpt>
      <trkpt lat="45.38069" lon="6.10906">
        <ele>807.22046</ele>
        <time>2021-07-18T19:34:08</time>
      </trkpt>
      <trkpt lat="45.38072" lon="6.109">
        <ele>807.22046</ele>
        <time>2021-07-18T19:34:14</time>
      </trkpt>
      <trkpt lat="45.38075" lon="6.10894">
        <ele>807.22046</ele>
        <time>2021-07-18T19:34:19</time>
      </trkpt>
      <trkpt lat="45.38076" lon="6.10893">
        <ele>807.22046</ele>
        <time>2021-07-18T19:34:20</time>
      </trkpt>
      <trkpt lat="45.38079" lon="6.10889">
        <ele>807.22046</ele>
        <time>2021-07-18T19:34:22</time>
      </trkpt>
      <trkpt lat="45.38079" lon="6.10888">
        <ele>807.22046</ele>
        <time>2021-07-18T19:34:23</time>
      </trkpt>
      <trkpt lat="45.3808" lon="6.10885">
        <ele>807.22046</ele>
        <time>2021-07-18T19:34:26</time>
      </trkpt>
      <trkpt lat="45.38083" lon="6.1088">
        <ele>807.22046</ele>
        <time>2021-07-18T19:34:30</time>
      </trkpt>
      <trkpt lat="45.38084" lon="6.10879">
        <ele>807.22046</ele>
        <time>2021-07-18T19:34:32</time>
      </trkpt>
      <trkpt lat="45.38084" lon="6.10878">
        <ele>807.22046</ele>
        <time>2021-07-18T19:34:33</time>
      </trkpt>
      <trkpt lat="45.38083" lon="6.10878">
        <ele>807.22046</ele>
        <time>2021-07-18T19:34:34</time>
      </trkpt>
      <trkpt lat="45.38084" lon="6.10877">
        <ele>807.22046</ele>
        <time>2021-07-18T19:34:35</time>
      </trkpt>
      <trkpt lat="45.38084" lon="6.10877">
        <ele>807.22046</ele>
        <time>2021-07-18T19:34:36</time>
      </trkpt>
      <trkpt lat="45.38085" lon="6.10877">
        <ele>807.22046</ele>
        <time>2021-07-18T19:34:37</time>
      </trkpt>
      <trkpt lat="45.38087" lon="6.10875">
        <ele>807.22046</ele>
        <time>2021-07-18T19:34:40</time>
      </trkpt>
      <trkpt lat="45.38089" lon="6.10873">
        <ele>807.22046</ele>
        <time>2021-07-18T19:34:43</time>
      </trkpt>
      <trkpt lat="45.38089" lon="6.10873">
        <ele>807.22046</ele>
        <time>2021-07-18T19:34:44</time>
      </trkpt>
      <trkpt lat="45.3809" lon="6.10868">
        <ele>807.22046</ele>
        <time>2021-07-18T19:34:47</time>
      </trkpt>
      <trkpt lat="45.3809" lon="6.10867">
        <ele>807.22046</ele>
        <time>2021-07-18T19:34:48</time>
      </trkpt>
      <trkpt lat="45.38091" lon="6.10859">
        <ele>807.22046</ele>
        <time>2021-07-18T19:34:53</time>
      </trkpt>
      <trkpt lat="45.38091" lon="6.10857">
        <ele>807.22046</ele>
        <time>2021-07-18T19:34:54</time>
      </trkpt>
      <trkpt lat="45.38092" lon="6.10842">
        <ele>807.22046</ele>
        <time>2021-07-18T19:35:05</time>
      </trkpt>
      <trkpt lat="45.38093" lon="6.10841">
        <ele>807.22046</ele>
        <time>2021-07-18T19:35:06</time>
      </trkpt>
      <trkpt lat="45.38094" lon="6.10837">
        <ele>807.22046</ele>
        <time>2021-07-18T19:35:09</time>
      </trkpt>
      <trkpt lat="45.38096" lon="6.10832">
        <ele>807.22046</ele>
        <time>2021-07-18T19:35:13</time>
      </trkpt>
      <trkpt lat="45.38098" lon="6.1083">
        <ele>807.22046</ele>
        <time>2021-07-18T19:35:15</time>
      </trkpt>
      <trkpt lat="45.38098" lon="6.10829">
        <ele>807.22046</ele>
        <time>2021-07-18T19:35:16</time>
      </trkpt>
      <trkpt lat="45.38099" lon="6.10825">
        <ele>807.22046</ele>
        <time>2021-07-18T19:35:19</time>
      </trkpt>
      <trkpt lat="45.38099" lon="6.10824">
        <ele>807.22046</ele>
        <time>2021-07-18T19:35:20</time>
      </trkpt>
      <trkpt lat="45.38099" lon="6.10823">
        <ele>807.22046</ele>
        <time>2021-07-18T19:35:21</time>
      </trkpt>
      <trkpt lat="45.381" lon="6.10821">
        <ele>807.22046</ele>
        <time>2021-07-18T19:35:23</time>
      </trkpt>
      <trkpt lat="45.381" lon="6.1082">
        <ele>807.22046</ele>
        <time>2021-07-18T19:35:24</time>
      </trkpt>
      <trkpt lat="45.38099" lon="6.10819">
        <ele>807.22046</ele>
        <time>2021-07-18T19:35:25</time>
      </trkpt>
      <trkpt lat="45.38099" lon="6.10819">
        <ele>807.22046</ele>
        <time>2021-07-18T19:35:26</time>
      </trkpt>
      <trkpt lat="45.38099" lon="6.10817">
        <ele>807.22046</ele>
        <time>2021-07-18T19:35:30</time>
      </trkpt>
      <trkpt lat="45.38099" lon="6.10815">
        <ele>807.22046</ele>
        <time>2021-07-18T19:35:31</time>
      </trkpt>
      <trkpt lat="45.38099" lon="6.10813">
        <ele>807.22046</ele>
        <time>2021-07-18T19:35:33</time>
      </trkpt>
      <trkpt lat="45.38098" lon="6.10812">
        <ele>807.22046</ele>
        <time>2021-07-18T19:35:34</time>
      </trkpt>
      <trkpt lat="45.38097" lon="6.10811">
        <ele>807.22046</ele>
        <time>2021-07-18T19:35:35</time>
      </trkpt>
      <trkpt lat="45.38097" lon="6.10808">
        <ele>807.22046</ele>
        <time>2021-07-18T19:35:37</time>
      </trkpt>
      <trkpt lat="45.38096" lon="6.10806">
        <ele>807.22046</ele>
        <time>2021-07-18T19:35:39</time>
      </trkpt>
      <trkpt lat="45.38096" lon="6.10805">
        <ele>807.22046</ele>
        <time>2021-07-18T19:35:40</time>
      </trkpt>
      <trkpt lat="45.38093" lon="6.10792">
        <ele>807.22046</ele>
        <time>2021-07-18T19:35:48</time>
      </trkpt>
      <trkpt lat="45.38093" lon="6.1079">
        <ele>807.22046</ele>
        <time>2021-07-18T19:35:49</time>
      </trkpt>
      <trkpt lat="45.38093" lon="6.10788">
        <ele>807.22046</ele>
        <time>2021-07-18T19:35:51</time>
      </trkpt>
      <trkpt lat="45.38094" lon="6.10787">
        <ele>807.22046</ele>
        <time>2021-07-18T19:35:52</time>
      </trkpt>
      <trkpt lat="45.38094" lon="6.10786">
        <ele>807.22046</ele>
        <time>2021-07-18T19:35:53</time>
      </trkpt>
      <trkpt lat="45.38089" lon="6.10773">
        <ele>807.22046</ele>
        <time>2021-07-18T19:36:06</time>
      </trkpt>
      <trkpt lat="45.38085" lon="6.10766">
        <ele>807.22046</ele>
        <time>2021-07-18T19:36:12</time>
      </trkpt>
      <trkpt lat="45.38085" lon="6.10764">
        <ele>807.22046</ele>
        <time>2021-07-18T19:36:13</time>
      </trkpt>
      <trkpt lat="45.38084" lon="6.10763">
        <ele>807.22046</ele>
        <time>2021-07-18T19:36:14</time>
      </trkpt>
      <trkpt lat="45.38082" lon="6.10756">
        <ele>807.22046</ele>
        <time>2021-07-18T19:36:19</time>
      </trkpt>
      <trkpt lat="45.38081" lon="6.10746">
        <ele>807.22046</ele>
        <time>2021-07-18T19:36:25</time>
      </trkpt>
      <trkpt lat="45.3808" lon="6.10744">
        <ele>807.22046</ele>
        <time>2021-07-18T19:36:26</time>
      </trkpt>
      <trkpt lat="45.38079" lon="6.1074">
        <ele>807.22046</ele>
        <time>2021-07-18T19:36:29</time>
      </trkpt>
      <trkpt lat="45.38076" lon="6.10728">
        <ele>807.22046</ele>
        <time>2021-07-18T19:36:38</time>
      </trkpt>
      <trkpt lat="45.38073" lon="6.10722">
        <ele>807.22046</ele>
        <time>2021-07-18T19:36:43</time>
      </trkpt>
      <trkpt lat="45.38073" lon="6.10719">
        <ele>807.22046</ele>
        <time>2021-07-18T19:36:45</time>
      </trkpt>
      <trkpt lat="45.38073" lon="6.10717">
        <ele>807.22046</ele>
        <time>2021-07-18T19:36:46</time>
      </trkpt>
      <trkpt lat="45.38072" lon="6.10706">
        <ele>807.22046</ele>
        <time>2021-07-18T19:36:53</time>
      </trkpt>
      <trkpt lat="45.38072" lon="6.10705">
        <ele>807.22046</ele>
        <time>2021-07-18T19:36:54</time>
      </trkpt>
      <trkpt lat="45.38072" lon="6.10702">
        <ele>807.22046</ele>
        <time>2021-07-18T19:36:56</time>
      </trkpt>
      <trkpt lat="45.38072" lon="6.10701">
        <ele>807.22046</ele>
        <time>2021-07-18T19:36:57</time>
      </trkpt>
      <trkpt lat="45.38075" lon="6.10684">
        <ele>807.22046</ele>
        <time>2021-07-18T19:37:08</time>
      </trkpt>
      <trkpt lat="45.38077" lon="6.10678">
        <ele>807.22046</ele>
        <time>2021-07-18T19:37:12</time>
      </trkpt>
      <trkpt lat="45.38079" lon="6.10673">
        <ele>807.22046</ele>
        <time>2021-07-18T19:37:16</time>
      </trkpt>
      <trkpt lat="45.3808" lon="6.10665">
        <ele>807.22046</ele>
        <time>2021-07-18T19:37:21</time>
      </trkpt>
      <trkpt lat="45.38081" lon="6.10662">
        <ele>807.22046</ele>
        <time>2021-07-18T19:37:23</time>
      </trkpt>
      <trkpt lat="45.38082" lon="6.10661">
        <ele>807.22046</ele>
        <time>2021-07-18T19:37:24</time>
      </trkpt>
      <trkpt lat="45.38084" lon="6.10657">
        <ele>807.22046</ele>
        <time>2021-07-18T19:37:27</time>
      </trkpt>
      <trkpt lat="45.38085" lon="6.10653">
        <ele>807.22046</ele>
        <time>2021-07-18T19:37:30</time>
      </trkpt>
      <trkpt lat="45.38086" lon="6.1064">
        <ele>807.22046</ele>
        <time>2021-07-18T19:37:40</time>
      </trkpt>
      <trkpt lat="45.38088" lon="6.10635">
        <ele>807.22046</ele>
        <time>2021-07-18T19:37:43</time>
      </trkpt>
      <trkpt lat="45.38089" lon="6.1063">
        <ele>807.22046</ele>
        <time>2021-07-18T19:37:47</time>
      </trkpt>
      <trkpt lat="45.3809" lon="6.10626">
        <ele>807.22046</ele>
        <time>2021-07-18T19:37:50</time>
      </trkpt>
      <trkpt lat="45.3809" lon="6.10623">
        <ele>807.22046</ele>
        <time>2021-07-18T19:37:52</time>
      </trkpt>
      <trkpt lat="45.3809" lon="6.10621">
        <ele>807.22046</ele>
        <time>2021-07-18T19:37:54</time>
      </trkpt>
      <trkpt lat="45.38094" lon="6.10615">
        <ele>807.22046</ele>
        <time>2021-07-18T19:38:01</time>
      </trkpt>
      <trkpt lat="45.38095" lon="6.10613">
        <ele>807.22046</ele>
        <time>2021-07-18T19:38:02</time>
      </trkpt>
      <trkpt lat="45.38095" lon="6.10612">
        <ele>807.22046</ele>
        <time>2021-07-18T19:38:03</time>
      </trkpt>
      <trkpt lat="45.38096" lon="6.1061">
        <ele>807.22046</ele>
        <time>2021-07-18T19:38:05</time>
      </trkpt>
      <trkpt lat="45.38099" lon="6.10604">
        <ele>807.22046</ele>
        <time>2021-07-18T19:38:11</time>
      </trkpt>
      <trkpt lat="45.381" lon="6.10603">
        <ele>807.22046</ele>
        <time>2021-07-18T19:38:13</time>
      </trkpt>
      <trkpt lat="45.381" lon="6.10602">
        <ele>807.22046</ele>
        <time>2021-07-18T19:38:14</time>
      </trkpt>
      <trkpt lat="45.38101" lon="6.106">
        <ele>807.22046</ele>
        <time>2021-07-18T19:38:18</time>
      </trkpt>
      <trkpt lat="45.38101" lon="6.106">
        <ele>807.22046</ele>
        <time>2021-07-18T19:38:19</time>
      </trkpt>
      <trkpt lat="45.38101" lon="6.10599">
        <ele>807.22046</ele>
        <time>2021-07-18T19:38:20</time>
      </trkpt>
      <trkpt lat="45.38102" lon="6.10598">
        <ele>807.22046</ele>
        <time>2021-07-18T19:38:21</time>
      </trkpt>
      <trkpt lat="45.38103" lon="6.10597">
        <ele>807.22046</ele>
        <time>2021-07-18T19:38:22</time>
      </trkpt>
      <trkpt lat="45.38103" lon="6.10596">
        <ele>807.22046</ele>
        <time>2021-07-18T19:38:23</time>
      </trkpt>
      <trkpt lat="45.38104" lon="6.10595">
        <ele>807.22046</ele>
        <time>2021-07-18T19:38:24</time>
      </trkpt>
      <trkpt lat="45.38107" lon="6.10593">
        <ele>807.22046</ele>
        <time>2021-07-18T19:38:26</time>
      </trkpt>
      <trkpt lat="45.38109" lon="6.10592">
        <ele>807.22046</ele>
        <time>2021-07-18T19:38:30</time>
      </trkpt>
      <trkpt lat="45.38111" lon="6.10589">
        <ele>807.22046</ele>
        <time>2021-07-18T19:38:33</time>
      </trkpt>
      <trkpt lat="45.38114" lon="6.10586">
        <ele>807.22046</ele>
        <time>2021-07-18T19:38:36</time>
      </trkpt>
      <trkpt lat="45.38115" lon="6.10584">
        <ele>807.22046</ele>
        <time>2021-07-18T19:38:37</time>
      </trkpt>
      <trkpt lat="45.38115" lon="6.10582">
        <ele>807.22046</ele>
        <time>2021-07-18T19:38:38</time>
      </trkpt>
      <trkpt lat="45.38115" lon="6.10579">
        <ele>807.22046</ele>
        <time>2021-07-18T19:38:40</time>
      </trkpt>
      <trkpt lat="45.38116" lon="6.10575">
        <ele>807.22046</ele>
        <time>2021-07-18T19:38:46</time>
      </trkpt>
      <trkpt lat="45.38117" lon="6.10573">
        <ele>807.22046</ele>
        <time>2021-07-18T19:38:47</time>
      </trkpt>
      <trkpt lat="45.38118" lon="6.10569">
        <ele>807.22046</ele>
        <time>2021-07-18T19:38:50</time>
      </trkpt>
      <trkpt lat="45.38119" lon="6.10568">
        <ele>807.22046</ele>
        <time>2021-07-18T19:38:51</time>
      </trkpt>
      <trkpt lat="45.3812" lon="6.10567">
        <ele>807.22046</ele>
        <time>2021-07-18T19:38:52</time>
      </trkpt>
      <trkpt lat="45.3812" lon="6.10565">
        <ele>807.22046</ele>
        <time>2021-07-18T19:38:53</time>
      </trkpt>
      <trkpt lat="45.3812" lon="6.10564">
        <ele>807.22046</ele>
        <time>2021-07-18T19:38:54</time>
      </trkpt>
      <trkpt lat="45.38121" lon="6.1056">
        <ele>807.22046</ele>
        <time>2021-07-18T19:38:56</time>
      </trkpt>
      <trkpt lat="45.38121" lon="6.10559">
        <ele>807.22046</ele>
        <time>2021-07-18T19:38:57</time>
      </trkpt>
      <trkpt lat="45.38121" lon="6.10557">
        <ele>807.22046</ele>
        <time>2021-07-18T19:38:58</time>
      </trkpt>
      <trkpt lat="45.38123" lon="6.10552">
        <ele>807.22046</ele>
        <time>2021-07-18T19:39:01</time>
      </trkpt>
      <trkpt lat="45.38125" lon="6.10547">
        <ele>807.22046</ele>
        <time>2021-07-18T19:39:04</time>
      </trkpt>
      <trkpt lat="45.38126" lon="6.10545">
        <ele>807.22046</ele>
        <time>2021-07-18T19:39:06</time>
      </trkpt>
      <trkpt lat="45.38127" lon="6.10542">
        <ele>807.22046</ele>
        <time>2021-07-18T19:39:08</time>
      </trkpt>
      <trkpt lat="45.38128" lon="6.10539">
        <ele>807.22046</ele>
        <time>2021-07-18T19:39:10</time>
      </trkpt>
      <trkpt lat="45.3813" lon="6.10533">
        <ele>807.22046</ele>
        <time>2021-07-18T19:39:13</time>
      </trkpt>
      <trkpt lat="45.38131" lon="6.10532">
        <ele>807.22046</ele>
        <time>2021-07-18T19:39:14</time>
      </trkpt>
      <trkpt lat="45.38133" lon="6.10529">
        <ele>807.22046</ele>
        <time>2021-07-18T19:39:16</time>
      </trkpt>
      <trkpt lat="45.38142" lon="6.10525">
        <ele>807.22046</ele>
        <time>2021-07-18T19:39:24</time>
      </trkpt>
      <trkpt lat="45.38145" lon="6.10524">
        <ele>807.22046</ele>
        <time>2021-07-18T19:39:26</time>
      </trkpt>
      <trkpt lat="45.38161" lon="6.1052">
        <ele>807.22046</ele>
        <time>2021-07-18T19:39:40</time>
      </trkpt>
      <trkpt lat="45.38163" lon="6.10521">
        <ele>807.22046</ele>
        <time>2021-07-18T19:39:42</time>
      </trkpt>
      <trkpt lat="45.38164" lon="6.10521">
        <ele>807.22046</ele>
        <time>2021-07-18T19:39:44</time>
      </trkpt>
      <trkpt lat="45.38168" lon="6.1052">
        <ele>807.22046</ele>
        <time>2021-07-18T19:39:48</time>
      </trkpt>
      <trkpt lat="45.38172" lon="6.10517">
        <ele>807.22046</ele>
        <time>2021-07-18T19:39:53</time>
      </trkpt>
      <trkpt lat="45.38173" lon="6.10517">
        <ele>807.22046</ele>
        <time>2021-07-18T19:39:55</time>
      </trkpt>
      <trkpt lat="45.38173" lon="6.10517">
        <ele>807.22046</ele>
        <time>2021-07-18T19:39:56</time>
      </trkpt>
      <trkpt lat="45.38178" lon="6.1051">
        <ele>807.22046</ele>
        <time>2021-07-18T19:40:04</time>
      </trkpt>
      <trkpt lat="45.38181" lon="6.10507">
        <ele>807.22046</ele>
        <time>2021-07-18T19:40:07</time>
      </trkpt>
      <trkpt lat="45.38182" lon="6.10506">
        <ele>807.22046</ele>
        <time>2021-07-18T19:40:08</time>
      </trkpt>
      <trkpt lat="45.38186" lon="6.10503">
        <ele>807.22046</ele>
        <time>2021-07-18T19:40:11</time>
      </trkpt>
      <trkpt lat="45.38188" lon="6.105">
        <ele>807.22046</ele>
        <time>2021-07-18T19:40:13</time>
      </trkpt>
      <trkpt lat="45.38188" lon="6.10499">
        <ele>807.22046</ele>
        <time>2021-07-18T19:40:14</time>
      </trkpt>
      <trkpt lat="45.38188" lon="6.10498">
        <ele>807.22046</ele>
        <time>2021-07-18T19:40:16</time>
      </trkpt>
      <trkpt lat="45.38189" lon="6.10494">
        <ele>807.22046</ele>
        <time>2021-07-18T19:40:18</time>
      </trkpt>
      <trkpt lat="45.38189" lon="6.1049">
        <ele>807.22046</ele>
        <time>2021-07-18T19:40:20</time>
      </trkpt>
      <trkpt lat="45.3819" lon="6.10482">
        <ele>807.22046</ele>
        <time>2021-07-18T19:40:23</time>
      </trkpt>
      <trkpt lat="45.38191" lon="6.10478">
        <ele>807.22046</ele>
        <time>2021-07-18T19:40:25</time>
      </trkpt>
      <trkpt lat="45.38193" lon="6.10474">
        <ele>807.22046</ele>
        <time>2021-07-18T19:40:28</time>
      </trkpt>
      <trkpt lat="45.38194" lon="6.10472">
        <ele>807.22046</ele>
        <time>2021-07-18T19:40:30</time>
      </trkpt>
      <trkpt lat="45.38201" lon="6.10464">
        <ele>807.22046</ele>
        <time>2021-07-18T19:40:41</time>
      </trkpt>
      <trkpt lat="45.38208" lon="6.10446">
        <ele>807.22046</ele>
        <time>2021-07-18T19:40:52</time>
      </trkpt>
      <trkpt lat="45.3821" lon="6.10441">
        <ele>807.22046</ele>
        <time>2021-07-18T19:40:56</time>
      </trkpt>
      <trkpt lat="45.38211" lon="6.10433">
        <ele>807.22046</ele>
        <time>2021-07-18T19:41:03</time>
      </trkpt>
      <trkpt lat="45.38211" lon="6.10429">
        <ele>807.22046</ele>
        <time>2021-07-18T19:41:05</time>
      </trkpt>
      <trkpt lat="45.38212" lon="6.10423">
        <ele>807.22046</ele>
        <time>2021-07-18T19:41:08</time>
      </trkpt>
      <trkpt lat="45.38212" lon="6.10418">
        <ele>807.22046</ele>
        <time>2021-07-18T19:41:11</time>
      </trkpt>
      <trkpt lat="45.38211" lon="6.10406">
        <ele>807.22046</ele>
        <time>2021-07-18T19:41:18</time>
      </trkpt>
      <trkpt lat="45.38211" lon="6.10405">
        <ele>807.22046</ele>
        <time>2021-07-18T19:41:19</time>
      </trkpt>
      <trkpt lat="45.3821" lon="6.10404">
        <ele>807.22046</ele>
        <time>2021-07-18T19:41:21</time>
      </trkpt>
      <trkpt lat="45.38207" lon="6.10404">
        <ele>807.22046</ele>
        <time>2021-07-18T19:41:25</time>
      </trkpt>
      <trkpt lat="45.38206" lon="6.10406">
        <ele>807.22046</ele>
        <time>2021-07-18T19:41:28</time>
      </trkpt>
      <trkpt lat="45.38205" lon="6.10393">
        <ele>807.22046</ele>
        <time>2021-07-18T19:41:37</time>
      </trkpt>
      <trkpt lat="45.38206" lon="6.10387">
        <ele>807.22046</ele>
        <time>2021-07-18T19:41:40</time>
      </trkpt>
      <trkpt lat="45.38206" lon="6.10385">
        <ele>807.22046</ele>
        <time>2021-07-18T19:41:41</time>
      </trkpt>
      <trkpt lat="45.38207" lon="6.10383">
        <ele>807.22046</ele>
        <time>2021-07-18T19:41:42</time>
      </trkpt>
      <trkpt lat="45.38211" lon="6.10373">
        <ele>807.22046</ele>
        <time>2021-07-18T19:41:48</time>
      </trkpt>
      <trkpt lat="45.38213" lon="6.1037">
        <ele>807.22046</ele>
        <time>2021-07-18T19:41:51</time>
      </trkpt>
      <trkpt lat="45.38216" lon="6.10361">
        <ele>807.22046</ele>
        <time>2021-07-18T19:41:57</time>
      </trkpt>
      <trkpt lat="45.38228" lon="6.10347">
        <ele>807.22046</ele>
        <time>2021-07-18T19:42:18</time>
      </trkpt>
      <trkpt lat="45.38229" lon="6.10347">
        <ele>807.22046</ele>
        <time>2021-07-18T19:42:19</time>
      </trkpt>
      <trkpt lat="45.3823" lon="6.10346">
        <ele>807.22046</ele>
        <time>2021-07-18T19:42:20</time>
      </trkpt>
      <trkpt lat="45.38231" lon="6.10345">
        <ele>807.22046</ele>
        <time>2021-07-18T19:42:21</time>
      </trkpt>
      <trkpt lat="45.38231" lon="6.10344">
        <ele>807.22046</ele>
        <time>2021-07-18T19:42:22</time>
      </trkpt>
      <trkpt lat="45.38232" lon="6.10342">
        <ele>807.22046</ele>
        <time>2021-07-18T19:42:23</time>
      </trkpt>
      <trkpt lat="45.38233" lon="6.1034">
        <ele>807.22046</ele>
        <time>2021-07-18T19:42:25</time>
      </trkpt>
      <trkpt lat="45.38241" lon="6.10332">
        <ele>807.22046</ele>
        <time>2021-07-18T19:42:34</time>
      </trkpt>
      <trkpt lat="45.38242" lon="6.10329">
        <ele>807.22046</ele>
        <time>2021-07-18T19:42:37</time>
      </trkpt>
      <trkpt lat="45.38242" lon="6.10327">
        <ele>807.22046</ele>
        <time>2021-07-18T19:42:40</time>
      </trkpt>
      <trkpt lat="45.38241" lon="6.10316">
        <ele>807.22046</ele>
        <time>2021-07-18T19:42:50</time>
      </trkpt>
      <trkpt lat="45.38241" lon="6.10307">
        <ele>807.22046</ele>
        <time>2021-07-18T19:42:56</time>
      </trkpt>
      <trkpt lat="45.38241" lon="6.10306">
        <ele>807.22046</ele>
        <time>2021-07-18T19:42:57</time>
      </trkpt>
      <trkpt lat="45.38241" lon="6.10302">
        <ele>807.22046</ele>
        <time>2021-07-18T19:42:59</time>
      </trkpt>
      <trkpt lat="45.38241" lon="6.10294">
        <ele>807.22046</ele>
        <time>2021-07-18T19:43:05</time>
      </trkpt>
      <trkpt lat="45.38241" lon="6.1029">
        <ele>807.22046</ele>
        <time>2021-07-18T19:43:09</time>
      </trkpt>
      <trkpt lat="45.38249" lon="6.10274">
        <ele>807.22046</ele>
        <time>2021-07-18T19:43:23</time>
      </trkpt>
      <trkpt lat="45.38251" lon="6.10269">
        <ele>807.22046</ele>
        <time>2021-07-18T19:43:26</time>
      </trkpt>
      <trkpt lat="45.38253" lon="6.10256">
        <ele>807.22046</ele>
        <time>2021-07-18T19:43:35</time>
      </trkpt>
      <trkpt lat="45.38254" lon="6.10254">
        <ele>807.22046</ele>
        <time>2021-07-18T19:43:38</time>
      </trkpt>
      <trkpt lat="45.38255" lon="6.10252">
        <ele>807.22046</ele>
        <time>2021-07-18T19:43:39</time>
      </trkpt>
      <trkpt lat="45.38257" lon="6.10248">
        <ele>807.22046</ele>
        <time>2021-07-18T19:43:42</time>
      </trkpt>
      <trkpt lat="45.38257" lon="6.10246">
        <ele>807.22046</ele>
        <time>2021-07-18T19:43:44</time>
      </trkpt>
      <trkpt lat="45.38257" lon="6.10246">
        <ele>807.22046</ele>
        <time>2021-07-18T19:43:45</time>
      </trkpt>
      <trkpt lat="45.38258" lon="6.10244">
        <ele>657.02045</ele>
        <time>2021-07-18T19:43:47</time>
      </trkpt>
      <trkpt lat="45.3826" lon="6.1024">
        <ele>657.02045</ele>
        <time>2021-07-18T19:43:50</time>
      </trkpt>
      <trkpt lat="45.38261" lon="6.10237">
        <ele>657.02045</ele>
        <time>2021-07-18T19:43:52</time>
      </trkpt>
      <trkpt lat="45.3827" lon="6.10214">
        <ele>657.02045</ele>
        <time>2021-07-18T19:44:09</time>
      </trkpt>
      <trkpt lat="45.38275" lon="6.10205">
        <ele>657.02045</ele>
        <time>2021-07-18T19:44:18</time>
      </trkpt>
      <trkpt lat="45.38276" lon="6.10204">
        <ele>657.02045</ele>
        <time>2021-07-18T19:44:19</time>
      </trkpt>
      <trkpt lat="45.38276" lon="6.10203">
        <ele>657.02045</ele>
        <time>2021-07-18T19:44:20</time>
      </trkpt>
      <trkpt lat="45.38276" lon="6.10202">
        <ele>657.02045</ele>
        <time>2021-07-18T19:44:21</time>
      </trkpt>
      <trkpt lat="45.38277" lon="6.10196">
        <ele>657.02045</ele>
        <time>2021-07-18T19:44:26</time>
      </trkpt>
      <trkpt lat="45.38277" lon="6.10196">
        <ele>657.02045</ele>
        <time>2021-07-18T19:44:27</time>
      </trkpt>
      <trkpt lat="45.38278" lon="6.10194">
        <ele>657.02045</ele>
        <time>2021-07-18T19:44:29</time>
      </trkpt>
      <trkpt lat="45.38278" lon="6.10191">
        <ele>657.02045</ele>
        <time>2021-07-18T19:44:32</time>
      </trkpt>
      <trkpt lat="45.38279" lon="6.10187">
        <ele>657.02045</ele>
        <time>2021-07-18T19:44:36</time>
      </trkpt>
      <trkpt lat="45.38279" lon="6.10186">
        <ele>657.02045</ele>
        <time>2021-07-18T19:44:38</time>
      </trkpt>
      <trkpt lat="45.38279" lon="6.10183">
        <ele>657.02045</ele>
        <time>2021-07-18T19:44:40</time>
      </trkpt>
      <trkpt lat="45.3828" lon="6.10182">
        <ele>657.02045</ele>
        <time>2021-07-18T19:44:41</time>
      </trkpt>
      <trkpt lat="45.3828" lon="6.10181">
        <ele>657.02045</ele>
        <time>2021-07-18T19:44:42</time>
      </trkpt>
      <trkpt lat="45.38281" lon="6.10181">
        <ele>657.02045</ele>
        <time>2021-07-18T19:44:43</time>
      </trkpt>
      <trkpt lat="45.38282" lon="6.1018">
        <ele>657.02045</ele>
        <time>2021-07-18T19:44:44</time>
      </trkpt>
      <trkpt lat="45.38281" lon="6.10179">
        <ele>657.02045</ele>
        <time>2021-07-18T19:44:46</time>
      </trkpt>
      <trkpt lat="45.38281" lon="6.10178">
        <ele>657.02045</ele>
        <time>2021-07-18T19:44:47</time>
      </trkpt>
      <trkpt lat="45.38281" lon="6.10176">
        <ele>657.02045</ele>
        <time>2021-07-18T19:44:49</time>
      </trkpt>
      <trkpt lat="45.38282" lon="6.10175">
        <ele>657.02045</ele>
        <time>2021-07-18T19:44:51</time>
      </trkpt>
      <trkpt lat="45.38283" lon="6.10174">
        <ele>657.02045</ele>
        <time>2021-07-18T19:44:52</time>
      </trkpt>
      <trkpt lat="45.38287" lon="6.10169">
        <ele>643.22046</ele>
        <time>2021-07-18T19:44:56</time>
      </trkpt>
      <trkpt lat="45.38288" lon="6.10166">
        <ele>643.22046</ele>
        <time>2021-07-18T19:45:00</time>
      </trkpt>
      <trkpt lat="45.38288" lon="6.10165">
        <ele>643.22046</ele>
        <time>2021-07-18T19:45:01</time>
      </trkpt>
      <trkpt lat="45.38289" lon="6.10164">
        <ele>643.22046</ele>
        <time>2021-07-18T19:45:02</time>
      </trkpt>
      <trkpt lat="45.38289" lon="6.10163">
        <ele>643.22046</ele>
        <time>2021-07-18T19:45:03</time>
      </trkpt>
      <trkpt lat="45.3829" lon="6.10162">
        <ele>643.22046</ele>
        <time>2021-07-18T19:45:04</time>
      </trkpt>
      <trkpt lat="45.38292" lon="6.10158">
        <ele>642.32043</ele>
        <time>2021-07-18T19:45:07</time>
      </trkpt>
      <trkpt lat="45.38295" lon="6.10155">
        <ele>642.32043</ele>
        <time>2021-07-18T19:45:10</time>
      </trkpt>
      <trkpt lat="45.38299" lon="6.1015">
        <ele>642.32043</ele>
        <time>2021-07-18T19:45:13</time>
      </trkpt>
      <trkpt lat="45.383" lon="6.10149">
        <ele>642.32043</ele>
        <time>2021-07-18T19:45:14</time>
      </trkpt>
      <trkpt lat="45.38302" lon="6.10146">
        <ele>642.5871</ele>
        <time>2021-07-18T19:45:16</time>
      </trkpt>
      <trkpt lat="45.38304" lon="6.10144">
        <ele>642.5871</ele>
        <time>2021-07-18T19:45:18</time>
      </trkpt>
      <trkpt lat="45.38305" lon="6.10143">
        <ele>642.5871</ele>
        <time>2021-07-18T19:45:19</time>
      </trkpt>
      <trkpt lat="45.38307" lon="6.1014">
        <ele>642.5871</ele>
        <time>2021-07-18T19:45:21</time>
      </trkpt>
      <trkpt lat="45.38313" lon="6.10135">
        <ele>645.2871</ele>
        <time>2021-07-18T19:45:26</time>
      </trkpt>
      <trkpt lat="45.38316" lon="6.10133">
        <ele>645.2871</ele>
        <time>2021-07-18T19:45:28</time>
      </trkpt>
      <trkpt lat="45.38318" lon="6.1013">
        <ele>645.2871</ele>
        <time>2021-07-18T19:45:31</time>
      </trkpt>
      <trkpt lat="45.38318" lon="6.10127">
        <ele>645.2871</ele>
        <time>2021-07-18T19:45:33</time>
      </trkpt>
      <trkpt lat="45.3832" lon="6.10122">
        <ele>645.2871</ele>
        <time>2021-07-18T19:45:36</time>
      </trkpt>
      <trkpt lat="45.38321" lon="6.10121">
        <ele>645.2871</ele>
        <time>2021-07-18T19:45:37</time>
      </trkpt>
      <trkpt lat="45.38324" lon="6.10118">
        <ele>645.2871</ele>
        <time>2021-07-18T19:45:41</time>
      </trkpt>
      <trkpt lat="45.38324" lon="6.10117">
        <ele>645.2871</ele>
        <time>2021-07-18T19:45:42</time>
      </trkpt>
      <trkpt lat="45.38327" lon="6.10108">
        <ele>648.4538</ele>
        <time>2021-07-18T19:45:50</time>
      </trkpt>
      <trkpt lat="45.38327" lon="6.10104">
        <ele>648.4538</ele>
        <time>2021-07-18T19:45:53</time>
      </trkpt>
      <trkpt lat="45.3833" lon="6.10091">
        <ele>648.4538</ele>
        <time>2021-07-18T19:46:03</time>
      </trkpt>
      <trkpt lat="45.3833" lon="6.10086">
        <ele>648.4538</ele>
        <time>2021-07-18T19:46:08</time>
      </trkpt>
      <trkpt lat="45.3833" lon="6.10085">
        <ele>648.4538</ele>
        <time>2021-07-18T19:46:09</time>
      </trkpt>
      <trkpt lat="45.38332" lon="6.1008">
        <ele>648.4538</ele>
        <time>2021-07-18T19:46:13</time>
      </trkpt>
      <trkpt lat="45.38333" lon="6.10078">
        <ele>648.4538</ele>
        <time>2021-07-18T19:46:14</time>
      </trkpt>
      <trkpt lat="45.38334" lon="6.10075">
        <ele>648.4538</ele>
        <time>2021-07-18T19:46:16</time>
      </trkpt>
      <trkpt lat="45.38335" lon="6.10074">
        <ele>648.4538</ele>
        <time>2021-07-18T19:46:17</time>
      </trkpt>
      <trkpt lat="45.38335" lon="6.10072">
        <ele>648.4538</ele>
        <time>2021-07-18T19:46:18</time>
      </trkpt>
      <trkpt lat="45.38337" lon="6.10069">
        <ele>648.4538</ele>
        <time>2021-07-18T19:46:21</time>
      </trkpt>
      <trkpt lat="45.38338" lon="6.10066">
        <ele>648.4538</ele>
        <time>2021-07-18T19:46:23</time>
      </trkpt>
      <trkpt lat="45.38338" lon="6.10065">
        <ele>648.4538</ele>
        <time>2021-07-18T19:46:24</time>
      </trkpt>
      <trkpt lat="45.38339" lon="6.10063">
        <ele>648.4538</ele>
        <time>2021-07-18T19:46:25</time>
      </trkpt>
      <trkpt lat="45.38341" lon="6.10061">
        <ele>648.4538</ele>
        <time>2021-07-18T19:46:27</time>
      </trkpt>
      <trkpt lat="45.38342" lon="6.10059">
        <ele>648.4538</ele>
        <time>2021-07-18T19:46:29</time>
      </trkpt>
      <trkpt lat="45.38348" lon="6.10045">
        <ele>648.4538</ele>
        <time>2021-07-18T19:46:39</time>
      </trkpt>
      <trkpt lat="45.38351" lon="6.1004">
        <ele>648.4538</ele>
        <time>2021-07-18T19:46:43</time>
      </trkpt>
      <trkpt lat="45.38351" lon="6.10033">
        <ele>648.4538</ele>
        <time>2021-07-18T19:46:49</time>
      </trkpt>
      <trkpt lat="45.38351" lon="6.1003">
        <ele>648.4538</ele>
        <time>2021-07-18T19:46:52</time>
      </trkpt>
      <trkpt lat="45.38351" lon="6.10027">
        <ele>648.4538</ele>
        <time>2021-07-18T19:46:55</time>
      </trkpt>
      <trkpt lat="45.38352" lon="6.10025">
        <ele>648.4538</ele>
        <time>2021-07-18T19:46:56</time>
      </trkpt>
      <trkpt lat="45.38356" lon="6.10019">
        <ele>648.4538</ele>
        <time>2021-07-18T19:47:01</time>
      </trkpt>
      <trkpt lat="45.38356" lon="6.10019">
        <ele>648.4538</ele>
        <time>2021-07-18T19:47:02</time>
      </trkpt>
      <trkpt lat="45.38356" lon="6.10018">
        <ele>648.4538</ele>
        <time>2021-07-18T19:47:03</time>
      </trkpt>
      <trkpt lat="45.38355" lon="6.10017">
        <ele>648.4538</ele>
        <time>2021-07-18T19:47:04</time>
      </trkpt>
      <trkpt lat="45.38353" lon="6.10007">
        <ele>648.4538</ele>
        <time>2021-07-18T19:47:15</time>
      </trkpt>
      <trkpt lat="45.38358" lon="6.09994">
        <ele>648.4538</ele>
        <time>2021-07-18T19:47:22</time>
      </trkpt>
      <trkpt lat="45.38359" lon="6.09992">
        <ele>648.4538</ele>
        <time>2021-07-18T19:47:23</time>
      </trkpt>
      <trkpt lat="45.38362" lon="6.09984">
        <ele>648.4538</ele>
        <time>2021-07-18T19:47:28</time>
      </trkpt>
      <trkpt lat="45.38362" lon="6.09984">
        <ele>648.4538</ele>
        <time>2021-07-18T19:47:29</time>
      </trkpt>
      <trkpt lat="45.38363" lon="6.09983">
        <ele>648.4538</ele>
        <time>2021-07-18T19:47:30</time>
      </trkpt>
      <trkpt lat="45.38363" lon="6.09981">
        <ele>648.4538</ele>
        <time>2021-07-18T19:47:31</time>
      </trkpt>
      <trkpt lat="45.38364" lon="6.09979">
        <ele>648.4538</ele>
        <time>2021-07-18T19:47:32</time>
      </trkpt>
      <trkpt lat="45.38364" lon="6.09974">
        <ele>648.4538</ele>
        <time>2021-07-18T19:47:35</time>
      </trkpt>
      <trkpt lat="45.38364" lon="6.09973">
        <ele>648.4538</ele>
        <time>2021-07-18T19:47:36</time>
      </trkpt>
      <trkpt lat="45.38365" lon="6.09968">
        <ele>648.4538</ele>
        <time>2021-07-18T19:47:40</time>
      </trkpt>
      <trkpt lat="45.38368" lon="6.09961">
        <ele>648.4538</ele>
        <time>2021-07-18T19:47:45</time>
      </trkpt>
      <trkpt lat="45.38367" lon="6.09948">
        <ele>648.4538</ele>
        <time>2021-07-18T19:47:54</time>
      </trkpt>
      <trkpt lat="45.38367" lon="6.09944">
        <ele>648.4538</ele>
        <time>2021-07-18T19:47:56</time>
      </trkpt>
      <trkpt lat="45.38367" lon="6.0994">
        <ele>648.4538</ele>
        <time>2021-07-18T19:47:58</time>
      </trkpt>
      <trkpt lat="45.38369" lon="6.09932">
        <ele>648.4538</ele>
        <time>2021-07-18T19:48:04</time>
      </trkpt>
      <trkpt lat="45.3837" lon="6.09931">
        <ele>648.4538</ele>
        <time>2021-07-18T19:48:05</time>
      </trkpt>
      <trkpt lat="45.38373" lon="6.09914">
        <ele>648.4538</ele>
        <time>2021-07-18T19:48:19</time>
      </trkpt>
      <trkpt lat="45.38372" lon="6.09912">
        <ele>648.4538</ele>
        <time>2021-07-18T19:48:20</time>
      </trkpt>
      <trkpt lat="45.3837" lon="6.099">
        <ele>648.4538</ele>
        <time>2021-07-18T19:48:31</time>
      </trkpt>
      <trkpt lat="45.38369" lon="6.09897">
        <ele>648.4538</ele>
        <time>2021-07-18T19:48:33</time>
      </trkpt>
      <trkpt lat="45.3837" lon="6.09896">
        <ele>648.4538</ele>
        <time>2021-07-18T19:48:34</time>
      </trkpt>
      <trkpt lat="45.38372" lon="6.09883">
        <ele>648.4538</ele>
        <time>2021-07-18T19:48:44</time>
      </trkpt>
      <trkpt lat="45.38368" lon="6.09872">
        <ele>648.4538</ele>
        <time>2021-07-18T19:48:54</time>
      </trkpt>
      <trkpt lat="45.38368" lon="6.0987">
        <ele>648.4538</ele>
        <time>2021-07-18T19:48:55</time>
      </trkpt>
      <trkpt lat="45.38369" lon="6.09868">
        <ele>648.4538</ele>
        <time>2021-07-18T19:48:56</time>
      </trkpt>
      <trkpt lat="45.38369" lon="6.09866">
        <ele>648.4538</ele>
        <time>2021-07-18T19:48:57</time>
      </trkpt>
      <trkpt lat="45.38372" lon="6.0985">
        <ele>648.4538</ele>
        <time>2021-07-18T19:49:09</time>
      </trkpt>
      <trkpt lat="45.38372" lon="6.09842">
        <ele>648.4538</ele>
        <time>2021-07-18T19:49:15</time>
      </trkpt>
      <trkpt lat="45.38371" lon="6.09842">
        <ele>648.4538</ele>
        <time>2021-07-18T19:49:18</time>
      </trkpt>
      <trkpt lat="45.38372" lon="6.09837">
        <ele>648.4538</ele>
        <time>2021-07-18T19:49:22</time>
      </trkpt>
      <trkpt lat="45.38372" lon="6.09835">
        <ele>648.4538</ele>
        <time>2021-07-18T19:49:25</time>
      </trkpt>
      <trkpt lat="45.38372" lon="6.09834">
        <ele>648.4538</ele>
        <time>2021-07-18T19:49:28</time>
      </trkpt>
      <trkpt lat="45.38372" lon="6.09833">
        <ele>648.4538</ele>
        <time>2021-07-18T19:49:29</time>
      </trkpt>
      <trkpt lat="45.38372" lon="6.09831">
        <ele>648.4538</ele>
        <time>2021-07-18T19:49:30</time>
      </trkpt>
      <trkpt lat="45.38372" lon="6.09828">
        <ele>648.4538</ele>
        <time>2021-07-18T19:49:32</time>
      </trkpt>
      <trkpt lat="45.38372" lon="6.09827">
        <ele>648.4538</ele>
        <time>2021-07-18T19:49:33</time>
      </trkpt>
      <trkpt lat="45.38371" lon="6.09824">
        <ele>648.4538</ele>
        <time>2021-07-18T19:49:35</time>
      </trkpt>
      <trkpt lat="45.38371" lon="6.0982">
        <ele>648.4538</ele>
        <time>2021-07-18T19:49:38</time>
      </trkpt>
      <trkpt lat="45.38371" lon="6.09809">
        <ele>648.4538</ele>
        <time>2021-07-18T19:49:45</time>
      </trkpt>
      <trkpt lat="45.38371" lon="6.09805">
        <ele>648.4538</ele>
        <time>2021-07-18T19:49:47</time>
      </trkpt>
      <trkpt lat="45.38371" lon="6.09801">
        <ele>648.4538</ele>
        <time>2021-07-18T19:49:50</time>
      </trkpt>
      <trkpt lat="45.38372" lon="6.098">
        <ele>648.4538</ele>
        <time>2021-07-18T19:49:53</time>
      </trkpt>
      <trkpt lat="45.38371" lon="6.09796">
        <ele>648.4538</ele>
        <time>2021-07-18T19:49:56</time>
      </trkpt>
      <trkpt lat="45.38371" lon="6.09795">
        <ele>648.4538</ele>
        <time>2021-07-18T19:49:57</time>
      </trkpt>
      <trkpt lat="45.3837" lon="6.09794">
        <ele>648.4538</ele>
        <time>2021-07-18T19:49:58</time>
      </trkpt>
      <trkpt lat="45.3837" lon="6.09793">
        <ele>648.4538</ele>
        <time>2021-07-18T19:49:59</time>
      </trkpt>
      <trkpt lat="45.38369" lon="6.09794">
        <ele>648.4538</ele>
        <time>2021-07-18T19:50:00</time>
      </trkpt>
      <trkpt lat="45.38367" lon="6.09793">
        <ele>648.4538</ele>
        <time>2021-07-18T19:50:02</time>
      </trkpt>
      <trkpt lat="45.38366" lon="6.09792">
        <ele>648.4538</ele>
        <time>2021-07-18T19:50:03</time>
      </trkpt>
      <trkpt lat="45.38366" lon="6.09791">
        <ele>648.4538</ele>
        <time>2021-07-18T19:50:04</time>
      </trkpt>
      <trkpt lat="45.38365" lon="6.0979">
        <ele>648.4538</ele>
        <time>2021-07-18T19:50:05</time>
      </trkpt>
      <trkpt lat="45.38363" lon="6.09788">
        <ele>648.4538</ele>
        <time>2021-07-18T19:50:07</time>
      </trkpt>
      <trkpt lat="45.3836" lon="6.09782">
        <ele>648.4538</ele>
        <time>2021-07-18T19:50:15</time>
      </trkpt>
      <trkpt lat="45.3836" lon="6.0978">
        <ele>648.4538</ele>
        <time>2021-07-18T19:50:16</time>
      </trkpt>
      <trkpt lat="45.38357" lon="6.09772">
        <ele>648.4538</ele>
        <time>2021-07-18T19:50:24</time>
      </trkpt>
      <trkpt lat="45.38358" lon="6.09765">
        <ele>648.4538</ele>
        <time>2021-07-18T19:50:30</time>
      </trkpt>
      <trkpt lat="45.38358" lon="6.09764">
        <ele>648.4538</ele>
        <time>2021-07-18T19:50:32</time>
      </trkpt>
      <trkpt lat="45.38357" lon="6.09754">
        <ele>648.4538</ele>
        <time>2021-07-18T19:50:41</time>
      </trkpt>
      <trkpt lat="45.38355" lon="6.09752">
        <ele>648.4538</ele>
        <time>2021-07-18T19:50:45</time>
      </trkpt>
      <trkpt lat="45.38357" lon="6.09749">
        <ele>648.4538</ele>
        <time>2021-07-18T19:50:56</time>
      </trkpt>
      <trkpt lat="45.38358" lon="6.09749">
        <ele>648.4538</ele>
        <time>2021-07-18T19:50:57</time>
      </trkpt>
      <trkpt lat="45.38358" lon="6.09749">
        <ele>648.4538</ele>
        <time>2021-07-18T19:51:00</time>
      </trkpt>
      <trkpt lat="45.38359" lon="6.0975">
        <ele>648.4538</ele>
        <time>2021-07-18T19:51:04</time>
      </trkpt>
      <trkpt lat="45.38359" lon="6.09749">
        <ele>648.4538</ele>
        <time>2021-07-18T19:51:05</time>
      </trkpt>
      <trkpt lat="45.38361" lon="6.09748">
        <ele>648.4538</ele>
        <time>2021-07-18T19:51:07</time>
      </trkpt>
      <trkpt lat="45.3836" lon="6.09749">
        <ele>648.4538</ele>
        <time>2021-07-18T19:51:26</time>
      </trkpt>
      <trkpt lat="45.3836" lon="6.09749">
        <ele>648.4538</ele>
        <time>2021-07-18T19:51:28</time>
      </trkpt>
      <trkpt lat="45.38365" lon="6.09749">
        <ele>648.4538</ele>
        <time>2021-07-18T19:54:50</time>
      </trkpt>
      <trkpt lat="45.38365" lon="6.09749">
        <ele>648.4538</ele>
        <time>2021-07-18T19:54:51</time>
      </trkpt>
      <trkpt lat="45.38365" lon="6.09749">
        <ele>648.4538</ele>
        <time>2021-07-18T19:54:52</time>
      </trkpt>
      <trkpt lat="45.38365" lon="6.09748">
        <ele>648.4538</ele>
        <time>2021-07-18T19:54:53</time>
      </trkpt>
      <trkpt lat="45.38365" lon="6.09747">
        <ele>648.4538</ele>
        <time>2021-07-18T19:54:54</time>
      </trkpt>
      <trkpt lat="45.3837" lon="6.09751">
        <ele>648.4538</ele>
        <time>2021-07-18T19:56:23</time>
      </trkpt>
      <trkpt lat="45.3837" lon="6.09751">
        <ele>648.4538</ele>
        <time>2021-07-18T19:56:24</time>
      </trkpt>
      <trkpt lat="45.38369" lon="6.09755">
        <ele>648.4538</ele>
        <time>2021-07-18T19:56:34</time>
      </trkpt>
      <trkpt lat="45.38368" lon="6.09756">
        <ele>648.4538</ele>
        <time>2021-07-18T19:56:35</time>
      </trkpt>
      <trkpt lat="45.38367" lon="6.09755">
        <ele>648.4538</ele>
        <time>2021-07-18T19:56:40</time>
      </trkpt>
      <trkpt lat="45.38366" lon="6.09755">
        <ele>648.4538</ele>
        <time>2021-07-18T19:56:41</time>
      </trkpt>
      <trkpt lat="45.38366" lon="6.09754">
        <ele>648.4538</ele>
        <time>2021-07-18T19:56:42</time>
      </trkpt>
      <trkpt lat="45.38363" lon="6.09754">
        <ele>648.4538</ele>
        <time>2021-07-18T19:56:49</time>
      </trkpt>
      <trkpt lat="45.38363" lon="6.09754">
        <ele>648.4538</ele>
        <time>2021-07-18T19:56:50</time>
      </trkpt>
      <trkpt lat="45.38361" lon="6.09755">
        <ele>648.4538</ele>
        <time>2021-07-18T19:56:55</time>
      </trkpt>
      <trkpt lat="45.38361" lon="6.09756">
        <ele>585.6204</ele>
        <time>2021-07-18T19:56:56</time>
      </trkpt>
      <trkpt lat="45.3836" lon="6.09757">
        <ele>588.32043</ele>
        <time>2021-07-18T19:57:10</time>
      </trkpt>
      <trkpt lat="45.3836" lon="6.09756">
        <ele>588.32043</ele>
        <time>2021-07-18T19:57:11</time>
      </trkpt>
      <trkpt lat="45.3836" lon="6.09755">
        <ele>588.32043</ele>
        <time>2021-07-18T19:57:13</time>
      </trkpt>
      <trkpt lat="45.38359" lon="6.09755">
        <ele>588.32043</ele>
        <time>2021-07-18T19:57:14</time>
      </trkpt>
      <trkpt lat="45.38358" lon="6.09756">
        <ele>588.82043</ele>
        <time>2021-07-18T19:57:44</time>
      </trkpt>
      <trkpt lat="45.38358" lon="6.09755">
        <ele>588.82043</ele>
        <time>2021-07-18T19:57:54</time>
      </trkpt>
    </trkseg>
  </trk>
</gpx>